<?xml version='1.0' encoding='UTF-8'?><gpx version="1.1" creator="JPX - https://github.com/jenetics/jpx" xmlns="http://www.topografix.com/GPX/1/1"><trk><trkseg><trkpt lat="48.62161016058344" lon="7.487989334474872"><ele>191.83333333333334</ele><time>2026-03-28T06:16:47Z</time></trkpt><trkpt lat="48.62156510822981" lon="7.487920383339265"><ele>191.66666666666666</ele><time>2026-03-28T06:16:49Z</time></trkpt><trkpt lat="48.62153031239003" lon="7.487825873075993"><ele>191.5</ele><time>2026-03-28T06:16:52Z</time></trkpt><trkpt lat="48.62148649377559" lon="7.487736399271604"><ele>191.33333333333331</ele><time>2026-03-28T06:16:57Z</time></trkpt><trkpt lat="48.62140337362076" lon="7.487725400931913"><ele>191.16666666666666</ele><time>2026-03-28T06:17:00Z</time></trkpt><trkpt lat="48.62138922664736" lon="7.487609635231349"><ele>191.0</ele><time>2026-03-28T06:17:04Z</time></trkpt><trkpt lat="48.62142237045351" lon="7.487459657467458"><ele>191.0</ele><time>2026-03-28T06:17:06Z</time></trkpt><trkpt lat="48.621443251378125" lon="7.487307879316034"><ele>191.0</ele><time>2026-03-28T06:17:08Z</time></trkpt><trkpt lat="48.62145325171639" lon="7.487205610341937"><ele>191.0</ele><time>2026-03-28T06:17:09Z</time></trkpt><trkpt lat="48.62146449915413" lon="7.48709350615088"><ele>191.0</ele><time>2026-03-28T06:17:10Z</time></trkpt><trkpt lat="48.62146661998456" lon="7.486971956532033"><ele>191.0</ele><time>2026-03-28T06:17:11Z</time></trkpt><trkpt lat="48.621463804450215" lon="7.4868543940627434"><ele>191.0</ele><time>2026-03-28T06:17:12Z</time></trkpt><trkpt lat="48.62145740408887" lon="7.486740904971787"><ele>191.14285714285714</ele><time>2026-03-28T06:17:13Z</time></trkpt><trkpt lat="48.62145993256222" lon="7.486628965552426"><ele>191.28571428571428</ele><time>2026-03-28T06:17:14Z</time></trkpt><trkpt lat="48.62146159533283" lon="7.486518893806306"><ele>191.42857142857142</ele><time>2026-03-28T06:17:15Z</time></trkpt><trkpt lat="48.62146033547002" lon="7.486410616841059"><ele>191.57142857142856</ele><time>2026-03-28T06:17:16Z</time></trkpt><trkpt lat="48.62145499809201" lon="7.486312845529922"><ele>191.71428571428572</ele><time>2026-03-28T06:17:17Z</time></trkpt><trkpt lat="48.62145430535405" lon="7.486207051044819"><ele>191.85714285714283</ele><time>2026-03-28T06:17:18Z</time></trkpt><trkpt lat="48.62144956293659" lon="7.486112068578021"><ele>192.0</ele><time>2026-03-28T06:17:19.001Z</time></trkpt><trkpt lat="48.62144017434816" lon="7.486006008435323"><ele>191.7142857142857</ele><time>2026-03-28T06:17:20.001Z</time></trkpt><trkpt lat="48.621435610736626" lon="7.485899658815606"><ele>191.42857142857142</ele><time>2026-03-28T06:17:21.001Z</time></trkpt><trkpt lat="48.62142993754523" lon="7.485795182511083"><ele>191.14285714285714</ele><time>2026-03-28T06:17:22.001Z</time></trkpt><trkpt lat="48.62142639257239" lon="7.485673279066939"><ele>190.85714285714283</ele><time>2026-03-28T06:17:23.001Z</time></trkpt><trkpt lat="48.621415237090616" lon="7.485561457024626"><ele>190.57142857142858</ele><time>2026-03-28T06:17:24.001Z</time></trkpt><trkpt lat="48.621410201774644" lon="7.485449689892611"><ele>190.28571428571428</ele><time>2026-03-28T06:17:25.001Z</time></trkpt><trkpt lat="48.621402660592004" lon="7.485344220517602"><ele>190.0</ele><time>2026-03-28T06:17:26.001Z</time></trkpt><trkpt lat="48.62139927784559" lon="7.485232366497677"><ele>189.85714285714286</ele><time>2026-03-28T06:17:27.001Z</time></trkpt><trkpt lat="48.62139358895293" lon="7.485122049631106"><ele>189.71428571428572</ele><time>2026-03-28T06:17:28.001Z</time></trkpt><trkpt lat="48.62138215117167" lon="7.485010266333662"><ele>189.57142857142856</ele><time>2026-03-28T06:17:29.001Z</time></trkpt><trkpt lat="48.621373911068325" lon="7.484901180848426"><ele>189.42857142857144</ele><time>2026-03-28T06:17:30.001Z</time></trkpt><trkpt lat="48.6213647342542" lon="7.484796014493613"><ele>189.28571428571428</ele><time>2026-03-28T06:17:31.001Z</time></trkpt><trkpt lat="48.62135154238902" lon="7.484690660583466"><ele>189.14285714285714</ele><time>2026-03-28T06:17:32.001Z</time></trkpt><trkpt lat="48.621349106380436" lon="7.48458629397477"><ele>189.0</ele><time>2026-03-28T06:17:33.001Z</time></trkpt><trkpt lat="48.62135444372629" lon="7.484482964013717"><ele>189.0</ele><time>2026-03-28T06:17:34.001Z</time></trkpt><trkpt lat="48.62135230357513" lon="7.484379612262641"><ele>189.0</ele><time>2026-03-28T06:17:35.001Z</time></trkpt><trkpt lat="48.621343315523404" lon="7.484265073643241"><ele>189.0</ele><time>2026-03-28T06:17:36.001Z</time></trkpt><trkpt lat="48.62132690558656" lon="7.4841497301657816"><ele>189.0</ele><time>2026-03-28T06:17:37.001Z</time></trkpt><trkpt lat="48.62131498874871" lon="7.4840376492427625"><ele>189.0</ele><time>2026-03-28T06:17:38.001Z</time></trkpt><trkpt lat="48.62130365760388" lon="7.483928533181897"><ele>189.0</ele><time>2026-03-28T06:17:39.001Z</time></trkpt><trkpt lat="48.621291635736206" lon="7.483820202291904"><ele>189.0</ele><time>2026-03-28T06:17:40.001Z</time></trkpt><trkpt lat="48.62130475258417" lon="7.483702988610183"><ele>189.0</ele><time>2026-03-28T06:17:41.001Z</time></trkpt><trkpt lat="48.62129229221228" lon="7.483595305158928"><ele>189.0</ele><time>2026-03-28T06:17:42.001Z</time></trkpt><trkpt lat="48.621282107610234" lon="7.483485114528868"><ele>189.0</ele><time>2026-03-28T06:17:43.001Z</time></trkpt><trkpt lat="48.62127071568866" lon="7.483363326009583"><ele>189.0</ele><time>2026-03-28T06:17:44.001Z</time></trkpt><trkpt lat="48.62126085991395" lon="7.483247749621354"><ele>189.0</ele><time>2026-03-28T06:17:45.001Z</time></trkpt><trkpt lat="48.6212557604916" lon="7.483134524844059"><ele>189.0</ele><time>2026-03-28T06:17:46.001Z</time></trkpt><trkpt lat="48.62124820281684" lon="7.4830201013858675"><ele>189.33333333333334</ele><time>2026-03-28T06:17:47.001Z</time></trkpt><trkpt lat="48.62124660422014" lon="7.482901703277332"><ele>189.66666666666666</ele><time>2026-03-28T06:17:48.001Z</time></trkpt><trkpt lat="48.62124633031573" lon="7.482783482070477"><ele>190.0</ele><time>2026-03-28T06:17:49.001Z</time></trkpt><trkpt lat="48.6212446314198" lon="7.482659974515949"><ele>190.33333333333331</ele><time>2026-03-28T06:17:50Z</time></trkpt><trkpt lat="48.62124625188497" lon="7.482537129454748"><ele>190.66666666666666</ele><time>2026-03-28T06:17:51Z</time></trkpt><trkpt lat="48.62124950171044" lon="7.48241766870961"><ele>191.0</ele><time>2026-03-28T06:17:52Z</time></trkpt><trkpt lat="48.621253333159" lon="7.482296433632589"><ele>191.0</ele><time>2026-03-28T06:17:53Z</time></trkpt><trkpt lat="48.62125890924478" lon="7.482176680279496"><ele>191.0</ele><time>2026-03-28T06:17:54Z</time></trkpt><trkpt lat="48.621259190090974" lon="7.482060336243113"><ele>191.0</ele><time>2026-03-28T06:17:55Z</time></trkpt><trkpt lat="48.621260879816234" lon="7.481935937925509"><ele>191.0</ele><time>2026-03-28T06:17:56Z</time></trkpt><trkpt lat="48.62126543280476" lon="7.481813823431574"><ele>191.0</ele><time>2026-03-28T06:17:57Z</time></trkpt><trkpt lat="48.62127038483469" lon="7.4816926886853725"><ele>191.0</ele><time>2026-03-28T06:17:58Z</time></trkpt><trkpt lat="48.62127911686288" lon="7.481571129161098"><ele>191.0</ele><time>2026-03-28T06:17:59Z</time></trkpt><trkpt lat="48.621287140858065" lon="7.481446406664787"><ele>191.0</ele><time>2026-03-28T06:18:00Z</time></trkpt><trkpt lat="48.62129113274113" lon="7.481326279649171"><ele>191.0</ele><time>2026-03-28T06:18:01Z</time></trkpt><trkpt lat="48.62129921211624" lon="7.4812026783243795"><ele>191.0</ele><time>2026-03-28T06:18:02Z</time></trkpt><trkpt lat="48.62130500933428" lon="7.4810775686367235"><ele>191.0</ele><time>2026-03-28T06:18:03Z</time></trkpt><trkpt lat="48.621316135528595" lon="7.480961796383221"><ele>191.0</ele><time>2026-03-28T06:18:04Z</time></trkpt><trkpt lat="48.62130490742229" lon="7.480824317734026"><ele>191.0</ele><time>2026-03-28T06:18:05Z</time></trkpt><trkpt lat="48.621301696403265" lon="7.480691646472491"><ele>191.0</ele><time>2026-03-28T06:18:06Z</time></trkpt><trkpt lat="48.62129888387192" lon="7.480552627609595"><ele>191.0</ele><time>2026-03-28T06:18:07Z</time></trkpt><trkpt lat="48.62129813049574" lon="7.480402161395375"><ele>191.0</ele><time>2026-03-28T06:18:08Z</time></trkpt><trkpt lat="48.621308388212334" lon="7.480251631422327"><ele>191.0</ele><time>2026-03-28T06:18:09Z</time></trkpt><trkpt lat="48.62131633743618" lon="7.480089559237338"><ele>191.20000000000002</ele><time>2026-03-28T06:18:10Z</time></trkpt><trkpt lat="48.62132963140399" lon="7.479936677342727"><ele>191.4</ele><time>2026-03-28T06:18:11Z</time></trkpt><trkpt lat="48.62134017101959" lon="7.47977931703335"><ele>191.6</ele><time>2026-03-28T06:18:12Z</time></trkpt><trkpt lat="48.621346007721755" lon="7.479628403048346"><ele>191.8</ele><time>2026-03-28T06:18:13Z</time></trkpt><trkpt lat="48.621356334121494" lon="7.479477261009248"><ele>192.0</ele><time>2026-03-28T06:18:14Z</time></trkpt><trkpt lat="48.621368489599654" lon="7.479328777153125"><ele>191.6</ele><time>2026-03-28T06:18:15Z</time></trkpt><trkpt lat="48.62139769072933" lon="7.479179760594507"><ele>191.2</ele><time>2026-03-28T06:18:16Z</time></trkpt><trkpt lat="48.6214113526899" lon="7.479031472693437"><ele>190.8</ele><time>2026-03-28T06:18:17Z</time></trkpt><trkpt lat="48.6214265892284" lon="7.478896185713778"><ele>190.4</ele><time>2026-03-28T06:18:18Z</time></trkpt><trkpt lat="48.621437641221824" lon="7.478761346525535"><ele>190.0</ele><time>2026-03-28T06:18:19Z</time></trkpt><trkpt lat="48.621460331250134" lon="7.4786342900644325"><ele>190.0</ele><time>2026-03-28T06:18:20Z</time></trkpt><trkpt lat="48.62149736722188" lon="7.4785055030701715"><ele>190.0</ele><time>2026-03-28T06:18:21Z</time></trkpt><trkpt lat="48.62151596467416" lon="7.478367075780502"><ele>190.0</ele><time>2026-03-28T06:18:22Z</time></trkpt><trkpt lat="48.62153196100104" lon="7.478221650861603"><ele>190.0</ele><time>2026-03-28T06:18:23Z</time></trkpt><trkpt lat="48.62154627427713" lon="7.4780745519038865"><ele>190.0</ele><time>2026-03-28T06:18:24Z</time></trkpt><trkpt lat="48.62156140593367" lon="7.477921399115009"><ele>190.2</ele><time>2026-03-28T06:18:25Z</time></trkpt><trkpt lat="48.62158011703997" lon="7.47776477558248"><ele>190.4</ele><time>2026-03-28T06:18:26Z</time></trkpt><trkpt lat="48.621596953318594" lon="7.47760537265476"><ele>190.60000000000002</ele><time>2026-03-28T06:18:27Z</time></trkpt><trkpt lat="48.62161239585089" lon="7.477439432426704"><ele>190.8</ele><time>2026-03-28T06:18:28Z</time></trkpt><trkpt lat="48.62163024447777" lon="7.477270949280506"><ele>191.0</ele><time>2026-03-28T06:18:29Z</time></trkpt><trkpt lat="48.62165953000762" lon="7.477111055589546"><ele>190.8</ele><time>2026-03-28T06:18:30Z</time></trkpt><trkpt lat="48.62170198334728" lon="7.476957740089153"><ele>190.60000000000002</ele><time>2026-03-28T06:18:31Z</time></trkpt><trkpt lat="48.62175348557079" lon="7.476814504670565"><ele>190.4</ele><time>2026-03-28T06:18:32Z</time></trkpt><trkpt lat="48.62180670134164" lon="7.476673191139153"><ele>190.2</ele><time>2026-03-28T06:18:33Z</time></trkpt><trkpt lat="48.62185294107537" lon="7.476542975288079"><ele>190.0</ele><time>2026-03-28T06:18:34Z</time></trkpt><trkpt lat="48.621892033150715" lon="7.476422384483382"><ele>190.0</ele><time>2026-03-28T06:18:35Z</time></trkpt><trkpt lat="48.621921283240596" lon="7.476298954044333"><ele>190.0</ele><time>2026-03-28T06:18:36Z</time></trkpt><trkpt lat="48.62192363862213" lon="7.47618551703546"><ele>190.0</ele><time>2026-03-28T06:18:37Z</time></trkpt><trkpt lat="48.62191547821455" lon="7.476057296138257"><ele>190.0</ele><time>2026-03-28T06:18:38Z</time></trkpt><trkpt lat="48.62188975755338" lon="7.475934346624253"><ele>190.0</ele><time>2026-03-28T06:18:39Z</time></trkpt><trkpt lat="48.62184907856469" lon="7.475828656848823"><ele>190.0</ele><time>2026-03-28T06:18:40Z</time></trkpt><trkpt lat="48.62180646050643" lon="7.475732057081635"><ele>189.0</ele><time>2026-03-28T06:18:41Z</time></trkpt><trkpt lat="48.6217784022679" lon="7.475628746516396"><ele>188.0</ele><time>2026-03-28T06:18:42Z</time></trkpt><trkpt lat="48.62188596671602" lon="7.475477960553289"><ele>187.0</ele><time>2026-03-28T06:18:43Z</time></trkpt><trkpt lat="48.621874124743506" lon="7.475369402400756"><ele>186.0</ele><time>2026-03-28T06:18:44Z</time></trkpt><trkpt lat="48.621724935477246" lon="7.475288418827913"><ele>185.5</ele><time>2026-03-28T06:18:45Z</time></trkpt><trkpt lat="48.6216788420148" lon="7.475203531649755"><ele>185.0</ele><time>2026-03-28T06:18:46Z</time></trkpt><trkpt lat="48.62160751638764" lon="7.475153891909898"><ele>184.5</ele><time>2026-03-28T06:18:47Z</time></trkpt><trkpt lat="48.62153480174547" lon="7.4751500263934885"><ele>184.0</ele><time>2026-03-28T06:18:48Z</time></trkpt><trkpt lat="48.6214503619405" lon="7.475182545987861"><ele>183.5</ele><time>2026-03-28T06:18:49Z</time></trkpt><trkpt lat="48.62137877889852" lon="7.475259098019105"><ele>183.0</ele><time>2026-03-28T06:18:50Z</time></trkpt><trkpt lat="48.62131429665039" lon="7.475347126312094"><ele>183.0</ele><time>2026-03-28T06:18:51Z</time></trkpt><trkpt lat="48.62123421704891" lon="7.4754106536978675"><ele>183.0</ele><time>2026-03-28T06:18:52Z</time></trkpt><trkpt lat="48.62114010615142" lon="7.475448943670824"><ele>183.0</ele><time>2026-03-28T06:18:53Z</time></trkpt><trkpt lat="48.62103450137486" lon="7.475464180777646"><ele>183.0</ele><time>2026-03-28T06:18:54Z</time></trkpt><trkpt lat="48.620922291718614" lon="7.475477800533138"><ele>183.0</ele><time>2026-03-28T06:18:55Z</time></trkpt><trkpt lat="48.620801935230546" lon="7.475489519999634"><ele>183.0</ele><time>2026-03-28T06:18:56Z</time></trkpt><trkpt lat="48.62067857195532" lon="7.475501217367846"><ele>183.0</ele><time>2026-03-28T06:18:57Z</time></trkpt><trkpt lat="48.6205479688049" lon="7.4755119541255315"><ele>183.0</ele><time>2026-03-28T06:18:58Z</time></trkpt><trkpt lat="48.62041925440345" lon="7.475528984056479"><ele>183.0</ele><time>2026-03-28T06:18:59Z</time></trkpt><trkpt lat="48.62028518966237" lon="7.475537698787669"><ele>183.0</ele><time>2026-03-28T06:19:00Z</time></trkpt><trkpt lat="48.62014878699546" lon="7.475549550130306"><ele>183.0</ele><time>2026-03-28T06:19:01Z</time></trkpt><trkpt lat="48.6200075191721" lon="7.475559890169741"><ele>183.0</ele><time>2026-03-28T06:19:02Z</time></trkpt><trkpt lat="48.61986641404913" lon="7.475574028261448"><ele>183.0</ele><time>2026-03-28T06:19:03Z</time></trkpt><trkpt lat="48.61972631355283" lon="7.475591687502484"><ele>183.0</ele><time>2026-03-28T06:19:04Z</time></trkpt><trkpt lat="48.6195822178819" lon="7.475612724548556"><ele>183.0</ele><time>2026-03-28T06:19:05Z</time></trkpt><trkpt lat="48.61943963578608" lon="7.4756349486358635"><ele>183.0</ele><time>2026-03-28T06:19:06Z</time></trkpt><trkpt lat="48.61928827281156" lon="7.4756503501896265"><ele>183.0</ele><time>2026-03-28T06:19:07Z</time></trkpt><trkpt lat="48.61915130616895" lon="7.475688808312377"><ele>183.25</ele><time>2026-03-28T06:19:08Z</time></trkpt><trkpt lat="48.61900668811453" lon="7.475731291923257"><ele>183.5</ele><time>2026-03-28T06:19:09Z</time></trkpt><trkpt lat="48.61886420697517" lon="7.475776733484989"><ele>183.75</ele><time>2026-03-28T06:19:10Z</time></trkpt><trkpt lat="48.618728554839876" lon="7.475823914885193"><ele>184.0</ele><time>2026-03-28T06:19:11Z</time></trkpt><trkpt lat="48.61859839771193" lon="7.475868178196904"><ele>185.5</ele><time>2026-03-28T06:19:12Z</time></trkpt><trkpt lat="48.618471006916444" lon="7.4759125851982455"><ele>187.0</ele><time>2026-03-28T06:19:13Z</time></trkpt><trkpt lat="48.61834342710089" lon="7.475953766224294"><ele>188.5</ele><time>2026-03-28T06:19:14Z</time></trkpt><trkpt lat="48.61822454059534" lon="7.475996730957181"><ele>190.0</ele><time>2026-03-28T06:19:15Z</time></trkpt><trkpt lat="48.61811459350866" lon="7.476035080287966"><ele>190.0</ele><time>2026-03-28T06:19:16Z</time></trkpt><trkpt lat="48.61801515801645" lon="7.476071596444227"><ele>190.0</ele><time>2026-03-28T06:19:17Z</time></trkpt><trkpt lat="48.61792579779878" lon="7.476104451129182"><ele>190.0</ele><time>2026-03-28T06:19:18Z</time></trkpt><trkpt lat="48.61783536757116" lon="7.4761248200036"><ele>190.0</ele><time>2026-03-28T06:19:19Z</time></trkpt><trkpt lat="48.61775166741692" lon="7.4761334639284955"><ele>190.0</ele><time>2026-03-28T06:19:20Z</time></trkpt><trkpt lat="48.61767076212967" lon="7.47613188220107"><ele>190.14285714285714</ele><time>2026-03-28T06:19:21Z</time></trkpt><trkpt lat="48.61760016760861" lon="7.476107066086127"><ele>190.28571428571428</ele><time>2026-03-28T06:19:22Z</time></trkpt><trkpt lat="48.617530750586454" lon="7.476058096623727"><ele>190.42857142857144</ele><time>2026-03-28T06:19:23Z</time></trkpt><trkpt lat="48.61746553474261" lon="7.476017785144086"><ele>190.57142857142856</ele><time>2026-03-28T06:19:24Z</time></trkpt><trkpt lat="48.61738537825956" lon="7.4760025792764155"><ele>190.7142857142857</ele><time>2026-03-28T06:19:25Z</time></trkpt><trkpt lat="48.61732277471268" lon="7.476033680830849"><ele>190.85714285714286</ele><time>2026-03-28T06:19:26Z</time></trkpt><trkpt lat="48.617264046269426" lon="7.476090587397079"><ele>191.0</ele><time>2026-03-28T06:19:27Z</time></trkpt><trkpt lat="48.61721160454674" lon="7.476183979621923"><ele>190.60000000000002</ele><time>2026-03-28T06:19:28Z</time></trkpt><trkpt lat="48.61715597509177" lon="7.476281040970129"><ele>190.2</ele><time>2026-03-28T06:19:29Z</time></trkpt><trkpt lat="48.61708834747732" lon="7.476368400472426"><ele>189.8</ele><time>2026-03-28T06:19:30Z</time></trkpt><trkpt lat="48.617004162103356" lon="7.476436318950607"><ele>189.39999999999998</ele><time>2026-03-28T06:19:31Z</time></trkpt><trkpt lat="48.61691639181872" lon="7.476523684442169"><ele>189.0</ele><time>2026-03-28T06:19:32Z</time></trkpt><trkpt lat="48.61679067781812" lon="7.4765412135446185"><ele>188.75</ele><time>2026-03-28T06:19:33Z</time></trkpt><trkpt lat="48.61667575613985" lon="7.476588546282462"><ele>188.5</ele><time>2026-03-28T06:19:34Z</time></trkpt><trkpt lat="48.616556198568105" lon="7.476636633725834"><ele>188.25</ele><time>2026-03-28T06:19:35Z</time></trkpt><trkpt lat="48.61643064802936" lon="7.476689284323119"><ele>188.0</ele><time>2026-03-28T06:19:36Z</time></trkpt><trkpt lat="48.61629935560237" lon="7.476737155783809"><ele>188.0</ele><time>2026-03-28T06:19:37Z</time></trkpt><trkpt lat="48.61616442177667" lon="7.476793497878323"><ele>188.0</ele><time>2026-03-28T06:19:38Z</time></trkpt><trkpt lat="48.61602686656614" lon="7.4768485147228585"><ele>188.0</ele><time>2026-03-28T06:19:39Z</time></trkpt><trkpt lat="48.61588488439123" lon="7.476905536474651"><ele>188.0</ele><time>2026-03-28T06:19:40Z</time></trkpt><trkpt lat="48.615738186929605" lon="7.476967310858568"><ele>189.33333333333331</ele><time>2026-03-28T06:19:41Z</time></trkpt><trkpt lat="48.61559072759886" lon="7.477027250734627"><ele>190.66666666666666</ele><time>2026-03-28T06:19:42Z</time></trkpt><trkpt lat="48.61544115370233" lon="7.477089047379078"><ele>192.0</ele><time>2026-03-28T06:19:43Z</time></trkpt><trkpt lat="48.615290163521905" lon="7.477152117698309"><ele>193.33333333333331</ele><time>2026-03-28T06:19:44Z</time></trkpt><trkpt lat="48.615136538283316" lon="7.477218427862224"><ele>194.66666666666666</ele><time>2026-03-28T06:19:45Z</time></trkpt><trkpt lat="48.61498181437596" lon="7.47728360617866"><ele>196.0</ele><time>2026-03-28T06:19:46Z</time></trkpt><trkpt lat="48.61482589663775" lon="7.4773462657000564"><ele>196.0</ele><time>2026-03-28T06:19:47Z</time></trkpt><trkpt lat="48.61466677593644" lon="7.477405816097526"><ele>196.0</ele><time>2026-03-28T06:19:48Z</time></trkpt><trkpt lat="48.61451128618266" lon="7.477461225447187"><ele>196.0</ele><time>2026-03-28T06:19:49Z</time></trkpt><trkpt lat="48.614351475365865" lon="7.477508869557022"><ele>197.0</ele><time>2026-03-28T06:19:50Z</time></trkpt><trkpt lat="48.614187067453635" lon="7.477553953612573"><ele>198.0</ele><time>2026-03-28T06:19:51Z</time></trkpt><trkpt lat="48.61402000278117" lon="7.477597352789488"><ele>199.0</ele><time>2026-03-28T06:19:52Z</time></trkpt><trkpt lat="48.613848563331274" lon="7.4776418058822935"><ele>199.0</ele><time>2026-03-28T06:19:53Z</time></trkpt><trkpt lat="48.61367642002007" lon="7.4776860277533945"><ele>199.0</ele><time>2026-03-28T06:19:54Z</time></trkpt><trkpt lat="48.61350713855684" lon="7.4777325061321855"><ele>199.0</ele><time>2026-03-28T06:19:55Z</time></trkpt><trkpt lat="48.613334488144325" lon="7.47778117929888"><ele>199.0</ele><time>2026-03-28T06:19:56Z</time></trkpt><trkpt lat="48.61316193833973" lon="7.477827283130981"><ele>199.0</ele><time>2026-03-28T06:19:57Z</time></trkpt><trkpt lat="48.61299086649233" lon="7.477872692650134"><ele>199.0</ele><time>2026-03-28T06:19:58Z</time></trkpt><trkpt lat="48.6128192440162" lon="7.477918139736902"><ele>198.0</ele><time>2026-03-28T06:19:59Z</time></trkpt><trkpt lat="48.61264757159454" lon="7.477960830872724"><ele>197.0</ele><time>2026-03-28T06:20:00Z</time></trkpt><trkpt lat="48.61248177337176" lon="7.478006175946252"><ele>196.0</ele><time>2026-03-28T06:20:01Z</time></trkpt><trkpt lat="48.61231926223042" lon="7.47805201017205"><ele>196.0</ele><time>2026-03-28T06:20:02Z</time></trkpt><trkpt lat="48.61215718952789" lon="7.478091880864289"><ele>196.0</ele><time>2026-03-28T06:20:03Z</time></trkpt><trkpt lat="48.61199322334466" lon="7.478132660465814"><ele>196.0</ele><time>2026-03-28T06:20:04Z</time></trkpt><trkpt lat="48.61182903245456" lon="7.47817237092318"><ele>196.66666666666666</ele><time>2026-03-28T06:20:05Z</time></trkpt><trkpt lat="48.61166448060355" lon="7.478210733893076"><ele>197.33333333333331</ele><time>2026-03-28T06:20:06Z</time></trkpt><trkpt lat="48.611497622312804" lon="7.478251630132897"><ele>198.0</ele><time>2026-03-28T06:20:07Z</time></trkpt><trkpt lat="48.61133138389962" lon="7.478295261212802"><ele>198.0</ele><time>2026-03-28T06:20:08Z</time></trkpt><trkpt lat="48.611166927275896" lon="7.4783402857168095"><ele>198.0</ele><time>2026-03-28T06:20:09Z</time></trkpt><trkpt lat="48.61100040172996" lon="7.478383842124737"><ele>198.0</ele><time>2026-03-28T06:20:10Z</time></trkpt><trkpt lat="48.61083495827879" lon="7.478426598681601"><ele>199.33333333333331</ele><time>2026-03-28T06:20:11Z</time></trkpt><trkpt lat="48.61066717983733" lon="7.478471541113512"><ele>200.66666666666666</ele><time>2026-03-28T06:20:12Z</time></trkpt><trkpt lat="48.610503235470055" lon="7.4785220212534425"><ele>202.0</ele><time>2026-03-28T06:20:13Z</time></trkpt><trkpt lat="48.61033989141324" lon="7.478571448122207"><ele>202.33333333333331</ele><time>2026-03-28T06:20:14Z</time></trkpt><trkpt lat="48.6101726558728" lon="7.4786209135983395"><ele>202.66666666666669</ele><time>2026-03-28T06:20:15Z</time></trkpt><trkpt lat="48.61000372808729" lon="7.478667033721761"><ele>203.0</ele><time>2026-03-28T06:20:16Z</time></trkpt><trkpt lat="48.60983578353599" lon="7.478714866081901"><ele>203.0</ele><time>2026-03-28T06:20:17Z</time></trkpt><trkpt lat="48.60966654908981" lon="7.478760490860311"><ele>203.0</ele><time>2026-03-28T06:20:18Z</time></trkpt><trkpt lat="48.60949989966736" lon="7.4788057611529695"><ele>203.0</ele><time>2026-03-28T06:20:19Z</time></trkpt><trkpt lat="48.60933596629876" lon="7.478852819120869"><ele>203.0</ele><time>2026-03-28T06:20:20Z</time></trkpt><trkpt lat="48.60917166923578" lon="7.47889888211454"><ele>203.0</ele><time>2026-03-28T06:20:21Z</time></trkpt><trkpt lat="48.60900476448257" lon="7.478941334439979"><ele>203.0</ele><time>2026-03-28T06:20:22Z</time></trkpt><trkpt lat="48.60884451427036" lon="7.478984733757141"><ele>203.0</ele><time>2026-03-28T06:20:23Z</time></trkpt><trkpt lat="48.60868537496744" lon="7.479026792141406"><ele>203.0</ele><time>2026-03-28T06:20:24Z</time></trkpt><trkpt lat="48.60853108137926" lon="7.479070238206832"><ele>203.0</ele><time>2026-03-28T06:20:25Z</time></trkpt><trkpt lat="48.60837542702351" lon="7.479111404965656"><ele>202.66666666666669</ele><time>2026-03-28T06:20:26Z</time></trkpt><trkpt lat="48.608223645560045" lon="7.479153618717423"><ele>202.33333333333331</ele><time>2026-03-28T06:20:27Z</time></trkpt><trkpt lat="48.60807126736823" lon="7.479196057005216"><ele>202.0</ele><time>2026-03-28T06:20:28Z</time></trkpt><trkpt lat="48.60792128017324" lon="7.4792396839038044"><ele>201.75</ele><time>2026-03-28T06:20:29Z</time></trkpt><trkpt lat="48.6077769655916" lon="7.47928143420741"><ele>201.5</ele><time>2026-03-28T06:20:30Z</time></trkpt><trkpt lat="48.60762648901641" lon="7.479320244469658"><ele>201.25</ele><time>2026-03-28T06:20:31Z</time></trkpt><trkpt lat="48.607480166649815" lon="7.479360427014252"><ele>201.0</ele><time>2026-03-28T06:20:32Z</time></trkpt><trkpt lat="48.60733716126189" lon="7.4793996184333835"><ele>201.0</ele><time>2026-03-28T06:20:33Z</time></trkpt><trkpt lat="48.607193708731764" lon="7.479439029141159"><ele>201.0</ele><time>2026-03-28T06:20:34Z</time></trkpt><trkpt lat="48.607053764867054" lon="7.479477208608397"><ele>201.0</ele><time>2026-03-28T06:20:35Z</time></trkpt><trkpt lat="48.606915365219244" lon="7.479515139245764"><ele>201.0</ele><time>2026-03-28T06:20:36Z</time></trkpt><trkpt lat="48.60678447428766" lon="7.479547529642624"><ele>200.75</ele><time>2026-03-28T06:20:37Z</time></trkpt><trkpt lat="48.60666614413376" lon="7.479584942056105"><ele>200.5</ele><time>2026-03-28T06:20:38Z</time></trkpt><trkpt lat="48.606543621248186" lon="7.479615554306751"><ele>200.25</ele><time>2026-03-28T06:20:39Z</time></trkpt><trkpt lat="48.60643354893779" lon="7.4796446134159345"><ele>200.0</ele><time>2026-03-28T06:20:40Z</time></trkpt><trkpt lat="48.60632805608966" lon="7.479677564253087"><ele>200.00000000000003</ele><time>2026-03-28T06:20:41Z</time></trkpt><trkpt lat="48.60623419719058" lon="7.479709446949296"><ele>200.0</ele><time>2026-03-28T06:20:42Z</time></trkpt><trkpt lat="48.60614722239697" lon="7.479737566145442"><ele>200.0</ele><time>2026-03-28T06:20:43Z</time></trkpt><trkpt lat="48.606056494253174" lon="7.479761913584028"><ele>200.0</ele><time>2026-03-28T06:20:44Z</time></trkpt><trkpt lat="48.6059754154927" lon="7.479784335571375"><ele>200.00000000000003</ele><time>2026-03-28T06:20:45Z</time></trkpt><trkpt lat="48.60589674150984" lon="7.479806442702579"><ele>200.0</ele><time>2026-03-28T06:20:46Z</time></trkpt><trkpt lat="48.60582254386732" lon="7.479824321141034"><ele>199.66666666666669</ele><time>2026-03-28T06:20:47Z</time></trkpt><trkpt lat="48.60575027425022" lon="7.479834053398892"><ele>199.33333333333334</ele><time>2026-03-28T06:20:48Z</time></trkpt><trkpt lat="48.60567833777138" lon="7.4798153738719915"><ele>199.0</ele><time>2026-03-28T06:20:49Z</time></trkpt><trkpt lat="48.605611856997946" lon="7.479780734471691"><ele>198.66666666666669</ele><time>2026-03-28T06:20:50Z</time></trkpt><trkpt lat="48.60553835591262" lon="7.479747856424614"><ele>198.33333333333334</ele><time>2026-03-28T06:20:51Z</time></trkpt><trkpt lat="48.605468388381915" lon="7.479733364384093"><ele>198.0</ele><time>2026-03-28T06:20:52Z</time></trkpt><trkpt lat="48.60539167575389" lon="7.479810039586141"><ele>197.60000000000002</ele><time>2026-03-28T06:20:53Z</time></trkpt><trkpt lat="48.60531927270816" lon="7.479884964314422"><ele>197.20000000000002</ele><time>2026-03-28T06:20:54Z</time></trkpt><trkpt lat="48.60523328883727" lon="7.47995194002114"><ele>196.8</ele><time>2026-03-28T06:20:55Z</time></trkpt><trkpt lat="48.60513205063019" lon="7.479995620962654"><ele>196.4</ele><time>2026-03-28T06:20:56Z</time></trkpt><trkpt lat="48.60502558339545" lon="7.480060703485241"><ele>196.0</ele><time>2026-03-28T06:20:57Z</time></trkpt><trkpt lat="48.60491514895908" lon="7.480125504117871"><ele>196.0</ele><time>2026-03-28T06:20:58Z</time></trkpt><trkpt lat="48.604777548734575" lon="7.480121492793845"><ele>196.0</ele><time>2026-03-28T06:20:59Z</time></trkpt><trkpt lat="48.604642626520835" lon="7.4801607653787725"><ele>196.0</ele><time>2026-03-28T06:21:00Z</time></trkpt><trkpt lat="48.60449900709981" lon="7.480201564508581"><ele>196.0</ele><time>2026-03-28T06:21:01Z</time></trkpt><trkpt lat="48.60434850979198" lon="7.480243728284776"><ele>195.66666666666666</ele><time>2026-03-28T06:21:02Z</time></trkpt><trkpt lat="48.60419504018269" lon="7.480283690664235"><ele>195.33333333333331</ele><time>2026-03-28T06:21:03Z</time></trkpt><trkpt lat="48.60404176168792" lon="7.480327877741129"><ele>195.0</ele><time>2026-03-28T06:21:04Z</time></trkpt><trkpt lat="48.60388154005381" lon="7.480370004582212"><ele>195.0</ele><time>2026-03-28T06:21:05Z</time></trkpt><trkpt lat="48.60371790232706" lon="7.480413022586332"><ele>195.0</ele><time>2026-03-28T06:21:06Z</time></trkpt><trkpt lat="48.603551810569606" lon="7.480454924465426"><ele>195.0</ele><time>2026-03-28T06:21:07Z</time></trkpt><trkpt lat="48.603384120904344" lon="7.480499108883911"><ele>194.33333333333331</ele><time>2026-03-28T06:21:08Z</time></trkpt><trkpt lat="48.60321651702944" lon="7.480544947963989"><ele>193.66666666666666</ele><time>2026-03-28T06:21:09Z</time></trkpt><trkpt lat="48.60305164689094" lon="7.480592382593125"><ele>193.0</ele><time>2026-03-28T06:21:10Z</time></trkpt><trkpt lat="48.602886311197125" lon="7.480641057931921"><ele>192.66666666666666</ele><time>2026-03-28T06:21:11Z</time></trkpt><trkpt lat="48.60271763766756" lon="7.480688727519903"><ele>192.33333333333331</ele><time>2026-03-28T06:21:12Z</time></trkpt><trkpt lat="48.60255196381081" lon="7.480736065831443"><ele>192.0</ele><time>2026-03-28T06:21:13Z</time></trkpt><trkpt lat="48.60238586163844" lon="7.480782089519288"><ele>192.0</ele><time>2026-03-28T06:21:14Z</time></trkpt><trkpt lat="48.60221865922241" lon="7.480828052137786"><ele>192.0</ele><time>2026-03-28T06:21:15Z</time></trkpt><trkpt lat="48.602054358232664" lon="7.480871596299736"><ele>192.0</ele><time>2026-03-28T06:21:16Z</time></trkpt><trkpt lat="48.601892038916446" lon="7.480915446865553"><ele>192.33333333333331</ele><time>2026-03-28T06:21:17Z</time></trkpt><trkpt lat="48.6017328555305" lon="7.4809567806864266"><ele>192.66666666666666</ele><time>2026-03-28T06:21:18Z</time></trkpt><trkpt lat="48.60156848801408" lon="7.4809899382151555"><ele>193.0</ele><time>2026-03-28T06:21:19Z</time></trkpt><trkpt lat="48.601404852381" lon="7.481015383339554"><ele>193.0</ele><time>2026-03-28T06:21:20Z</time></trkpt><trkpt lat="48.60124251543858" lon="7.481034993917361"><ele>193.0</ele><time>2026-03-28T06:21:21Z</time></trkpt><trkpt lat="48.601081686913425" lon="7.4810467373752765"><ele>193.0</ele><time>2026-03-28T06:21:22Z</time></trkpt><trkpt lat="48.60091836596248" lon="7.481051606866057"><ele>192.5</ele><time>2026-03-28T06:21:23Z</time></trkpt><trkpt lat="48.600761472554815" lon="7.481052780616123"><ele>192.0</ele><time>2026-03-28T06:21:24Z</time></trkpt><trkpt lat="48.600614049413956" lon="7.481049796746404"><ele>191.5</ele><time>2026-03-28T06:21:25Z</time></trkpt><trkpt lat="48.60046895858235" lon="7.4810503858455215"><ele>191.0</ele><time>2026-03-28T06:21:26Z</time></trkpt><trkpt lat="48.60033022587421" lon="7.481051437910692"><ele>190.0</ele><time>2026-03-28T06:21:27Z</time></trkpt><trkpt lat="48.60020072803058" lon="7.481049225898716"><ele>189.0</ele><time>2026-03-28T06:21:28Z</time></trkpt><trkpt lat="48.600074685277576" lon="7.4810477106572915"><ele>188.0</ele><time>2026-03-28T06:21:29Z</time></trkpt><trkpt lat="48.599954386660244" lon="7.481048770523655"><ele>187.0</ele><time>2026-03-28T06:21:30Z</time></trkpt><trkpt lat="48.59984264630102" lon="7.481046760840833"><ele>187.0</ele><time>2026-03-28T06:21:31Z</time></trkpt><trkpt lat="48.59973592661288" lon="7.481045079545566"><ele>187.0</ele><time>2026-03-28T06:21:32Z</time></trkpt><trkpt lat="48.5996386297904" lon="7.481037386968382"><ele>187.0</ele><time>2026-03-28T06:21:33Z</time></trkpt><trkpt lat="48.59954380255019" lon="7.481019533073378"><ele>187.0</ele><time>2026-03-28T06:21:34Z</time></trkpt><trkpt lat="48.59945267254473" lon="7.480984512078049"><ele>187.0</ele><time>2026-03-28T06:21:35Z</time></trkpt><trkpt lat="48.599373638991054" lon="7.480923661204461"><ele>185.8</ele><time>2026-03-28T06:21:36Z</time></trkpt><trkpt lat="48.59929482612151" lon="7.4808596752495635"><ele>184.6</ele><time>2026-03-28T06:21:37Z</time></trkpt><trkpt lat="48.59920786688457" lon="7.4808363356790055"><ele>183.4</ele><time>2026-03-28T06:21:38Z</time></trkpt><trkpt lat="48.59910798418699" lon="7.4808506098695995"><ele>182.20000000000002</ele><time>2026-03-28T06:21:39Z</time></trkpt><trkpt lat="48.59900135468742" lon="7.480862575151809"><ele>181.0</ele><time>2026-03-28T06:21:40Z</time></trkpt><trkpt lat="48.59887772486739" lon="7.480845201363077"><ele>181.0</ele><time>2026-03-28T06:21:41Z</time></trkpt><trkpt lat="48.59875130258896" lon="7.480807760624802"><ele>181.0</ele><time>2026-03-28T06:21:42Z</time></trkpt><trkpt lat="48.5986171107047" lon="7.480759844830527"><ele>181.0</ele><time>2026-03-28T06:21:43Z</time></trkpt><trkpt lat="48.59848499594227" lon="7.480703485375781"><ele>181.0</ele><time>2026-03-28T06:21:44Z</time></trkpt><trkpt lat="48.59834926285149" lon="7.48063612975928"><ele>180.33333333333334</ele><time>2026-03-28T06:21:45Z</time></trkpt><trkpt lat="48.59821012331634" lon="7.480562503494457"><ele>179.66666666666666</ele><time>2026-03-28T06:21:46Z</time></trkpt><trkpt lat="48.59806479072044" lon="7.480479157448404"><ele>179.0</ele><time>2026-03-28T06:21:47Z</time></trkpt><trkpt lat="48.59791567594576" lon="7.480395213216399"><ele>179.33333333333331</ele><time>2026-03-28T06:21:48Z</time></trkpt><trkpt lat="48.597765788014" lon="7.480309399967255"><ele>179.66666666666666</ele><time>2026-03-28T06:21:49Z</time></trkpt><trkpt lat="48.59761396809588" lon="7.4802160233155055"><ele>180.0</ele><time>2026-03-28T06:21:50Z</time></trkpt><trkpt lat="48.59745890074574" lon="7.480120632756892"><ele>180.0</ele><time>2026-03-28T06:21:51Z</time></trkpt><trkpt lat="48.597306879415804" lon="7.4800264981287485"><ele>180.0</ele><time>2026-03-28T06:21:52Z</time></trkpt><trkpt lat="48.59715035726722" lon="7.479935315334072"><ele>180.0</ele><time>2026-03-28T06:21:53Z</time></trkpt><trkpt lat="48.596993941643305" lon="7.47984869488147"><ele>181.66666666666666</ele><time>2026-03-28T06:21:54Z</time></trkpt><trkpt lat="48.596840648300606" lon="7.479759988257473"><ele>183.33333333333331</ele><time>2026-03-28T06:21:55Z</time></trkpt><trkpt lat="48.596692784226725" lon="7.479672407901795"><ele>185.0</ele><time>2026-03-28T06:21:56Z</time></trkpt><trkpt lat="48.59654089895496" lon="7.479588564579478"><ele>185.66666666666666</ele><time>2026-03-28T06:21:57Z</time></trkpt><trkpt lat="48.59638847769781" lon="7.47949615288753"><ele>186.33333333333334</ele><time>2026-03-28T06:21:58Z</time></trkpt><trkpt lat="48.59623574976761" lon="7.479409150610924"><ele>187.0</ele><time>2026-03-28T06:21:59Z</time></trkpt><trkpt lat="48.596080153857" lon="7.479325064017033"><ele>187.66666666666669</ele><time>2026-03-28T06:22:00Z</time></trkpt><trkpt lat="48.59592311071828" lon="7.4792466683493295"><ele>188.33333333333334</ele><time>2026-03-28T06:22:01Z</time></trkpt><trkpt lat="48.59576062077512" lon="7.4791804688924"><ele>189.0</ele><time>2026-03-28T06:22:02Z</time></trkpt><trkpt lat="48.59560036441991" lon="7.479124773177286"><ele>189.0</ele><time>2026-03-28T06:22:03Z</time></trkpt><trkpt lat="48.59543409360282" lon="7.4790792310921175"><ele>189.0</ele><time>2026-03-28T06:22:04Z</time></trkpt><trkpt lat="48.59526656557811" lon="7.479037492844668"><ele>189.0</ele><time>2026-03-28T06:22:05Z</time></trkpt><trkpt lat="48.595103701324064" lon="7.4789976698155165"><ele>189.66666666666666</ele><time>2026-03-28T06:22:06Z</time></trkpt><trkpt lat="48.594941228427665" lon="7.478964532765455"><ele>190.33333333333331</ele><time>2026-03-28T06:22:07Z</time></trkpt><trkpt lat="48.59478499902141" lon="7.4789277316366185"><ele>191.0</ele><time>2026-03-28T06:22:08Z</time></trkpt><trkpt lat="48.59463331250565" lon="7.478895977318088"><ele>191.33333333333331</ele><time>2026-03-28T06:22:09Z</time></trkpt><trkpt lat="48.59447717639954" lon="7.478865915464717"><ele>191.66666666666666</ele><time>2026-03-28T06:22:10Z</time></trkpt><trkpt lat="48.594327779987665" lon="7.478836692303927"><ele>192.0</ele><time>2026-03-28T06:22:11Z</time></trkpt><trkpt lat="48.59418128696666" lon="7.478807367981427"><ele>192.0</ele><time>2026-03-28T06:22:12Z</time></trkpt><trkpt lat="48.594043930721604" lon="7.478777178263728"><ele>192.0</ele><time>2026-03-28T06:22:13Z</time></trkpt><trkpt lat="48.59392252952605" lon="7.478752934193624"><ele>192.0</ele><time>2026-03-28T06:22:14Z</time></trkpt><trkpt lat="48.593808002680994" lon="7.4787310798435005"><ele>192.0</ele><time>2026-03-28T06:22:15Z</time></trkpt><trkpt lat="48.59369736328617" lon="7.4787075870513045"><ele>191.8</ele><time>2026-03-28T06:22:16Z</time></trkpt><trkpt lat="48.593588819450126" lon="7.478686044765371"><ele>191.6</ele><time>2026-03-28T06:22:17Z</time></trkpt><trkpt lat="48.59348632226114" lon="7.478663237321258"><ele>191.4</ele><time>2026-03-28T06:22:18Z</time></trkpt><trkpt lat="48.59338814425222" lon="7.478642585438728"><ele>191.20000000000002</ele><time>2026-03-28T06:22:19Z</time></trkpt><trkpt lat="48.59331128261311" lon="7.478623634900597"><ele>191.0</ele><time>2026-03-28T06:22:20Z</time></trkpt><trkpt lat="48.593232861299484" lon="7.478596792494428"><ele>191.0</ele><time>2026-03-28T06:22:21Z</time></trkpt><trkpt lat="48.59315744672677" lon="7.478544817558405"><ele>191.0</ele><time>2026-03-28T06:22:22Z</time></trkpt><trkpt lat="48.593096955366924" lon="7.47847781038446"><ele>191.0</ele><time>2026-03-28T06:22:23Z</time></trkpt><trkpt lat="48.59304242063069" lon="7.4784129991643296"><ele>191.0</ele><time>2026-03-28T06:22:24Z</time></trkpt><trkpt lat="48.59297534863831" lon="7.4783762375343725"><ele>191.0</ele><time>2026-03-28T06:22:25Z</time></trkpt><trkpt lat="48.59290907144757" lon="7.478370645479196"><ele>191.0</ele><time>2026-03-28T06:22:26Z</time></trkpt><trkpt lat="48.59284810410032" lon="7.4784032074311515"><ele>191.0</ele><time>2026-03-28T06:22:27Z</time></trkpt><trkpt lat="48.59278473672242" lon="7.478472117225556"><ele>190.20000000000002</ele><time>2026-03-28T06:22:28Z</time></trkpt><trkpt lat="48.59270728949371" lon="7.4785381333708205"><ele>189.4</ele><time>2026-03-28T06:22:29Z</time></trkpt><trkpt lat="48.59261463805547" lon="7.478587850273022"><ele>188.6</ele><time>2026-03-28T06:22:30Z</time></trkpt><trkpt lat="48.59250536079381" lon="7.478612933523022"><ele>187.8</ele><time>2026-03-28T06:22:31Z</time></trkpt><trkpt lat="48.592385911708156" lon="7.478625353925512"><ele>187.0</ele><time>2026-03-28T06:22:32Z</time></trkpt><trkpt lat="48.59225730256299" lon="7.4786380763815625"><ele>187.0</ele><time>2026-03-28T06:22:33Z</time></trkpt><trkpt lat="48.59212097984265" lon="7.478651428850625"><ele>187.0</ele><time>2026-03-28T06:22:34Z</time></trkpt><trkpt lat="48.591976285022064" lon="7.4786662598617575"><ele>187.0</ele><time>2026-03-28T06:22:35Z</time></trkpt><trkpt lat="48.591829329347405" lon="7.478681017952782"><ele>187.0</ele><time>2026-03-28T06:22:36Z</time></trkpt><trkpt lat="48.59168024207587" lon="7.47869728984092"><ele>186.66666666666669</ele><time>2026-03-28T06:22:37Z</time></trkpt><trkpt lat="48.59152658192555" lon="7.478712549853489"><ele>186.33333333333334</ele><time>2026-03-28T06:22:38Z</time></trkpt><trkpt lat="48.59137129200222" lon="7.478727628375808"><ele>186.0</ele><time>2026-03-28T06:22:39Z</time></trkpt><trkpt lat="48.59121648902914" lon="7.478741369412395"><ele>186.5</ele><time>2026-03-28T06:22:40Z</time></trkpt><trkpt lat="48.591067578176194" lon="7.478752980631918"><ele>187.0</ele><time>2026-03-28T06:22:41Z</time></trkpt><trkpt lat="48.59092065750519" lon="7.478755444907167"><ele>187.5</ele><time>2026-03-28T06:22:42Z</time></trkpt><trkpt lat="48.59077776512604" lon="7.478741535767382"><ele>188.0</ele><time>2026-03-28T06:22:43Z</time></trkpt><trkpt lat="48.59063878122954" lon="7.4787113823288625"><ele>188.0</ele><time>2026-03-28T06:22:44Z</time></trkpt><trkpt lat="48.59050768422625" lon="7.4786709344211655"><ele>188.0</ele><time>2026-03-28T06:22:45Z</time></trkpt><trkpt lat="48.59038348842095" lon="7.478621569128444"><ele>188.0</ele><time>2026-03-28T06:22:46Z</time></trkpt><trkpt lat="48.59026806004988" lon="7.478551110598653"><ele>188.0</ele><time>2026-03-28T06:22:47Z</time></trkpt><trkpt lat="48.59015256957476" lon="7.478476061484176"><ele>188.25</ele><time>2026-03-28T06:22:48Z</time></trkpt><trkpt lat="48.59003304794299" lon="7.47840452605904"><ele>188.5</ele><time>2026-03-28T06:22:49Z</time></trkpt><trkpt lat="48.58991236593314" lon="7.478336176664867"><ele>188.75</ele><time>2026-03-28T06:22:50Z</time></trkpt><trkpt lat="48.589788879267374" lon="7.478279291468139"><ele>189.0</ele><time>2026-03-28T06:22:51Z</time></trkpt><trkpt lat="48.58967303320129" lon="7.478228344025815"><ele>189.0</ele><time>2026-03-28T06:22:52Z</time></trkpt><trkpt lat="48.589554530617214" lon="7.478167524982741"><ele>189.0</ele><time>2026-03-28T06:22:53Z</time></trkpt><trkpt lat="48.5894400851053" lon="7.478105327894437"><ele>189.0</ele><time>2026-03-28T06:22:54Z</time></trkpt><trkpt lat="48.58932927387185" lon="7.478047360911136"><ele>189.0</ele><time>2026-03-28T06:22:55Z</time></trkpt><trkpt lat="48.58922213379896" lon="7.47798885070049"><ele>189.0</ele><time>2026-03-28T06:22:56Z</time></trkpt><trkpt lat="48.589117594728094" lon="7.47793255564971"><ele>189.0</ele><time>2026-03-28T06:22:57Z</time></trkpt><trkpt lat="48.58902101457061" lon="7.477878874572473"><ele>189.0</ele><time>2026-03-28T06:22:58Z</time></trkpt><trkpt lat="48.58892582727393" lon="7.477827140241086"><ele>189.0</ele><time>2026-03-28T06:22:59Z</time></trkpt><trkpt lat="48.58883482113989" lon="7.477777126944864"><ele>189.0</ele><time>2026-03-28T06:23:00Z</time></trkpt><trkpt lat="48.58874404112682" lon="7.477720197305213"><ele>188.39999999999998</ele><time>2026-03-28T06:23:01Z</time></trkpt><trkpt lat="48.58865525085713" lon="7.477655130818005"><ele>187.8</ele><time>2026-03-28T06:23:02Z</time></trkpt><trkpt lat="48.5885638388622" lon="7.4775995065310745"><ele>187.2</ele><time>2026-03-28T06:23:03Z</time></trkpt><trkpt lat="48.58846983069453" lon="7.477556368850323"><ele>186.60000000000002</ele><time>2026-03-28T06:23:04Z</time></trkpt><trkpt lat="48.58837504036615" lon="7.47752054213264"><ele>186.0</ele><time>2026-03-28T06:23:05Z</time></trkpt><trkpt lat="48.58827830592553" lon="7.477475627168206"><ele>186.0</ele><time>2026-03-28T06:23:06Z</time></trkpt><trkpt lat="48.58818197255181" lon="7.477424057459455"><ele>186.0</ele><time>2026-03-28T06:23:07Z</time></trkpt><trkpt lat="48.588084518834975" lon="7.477370631200605"><ele>186.0</ele><time>2026-03-28T06:23:08Z</time></trkpt><trkpt lat="48.58798806094849" lon="7.477318969695588"><ele>186.0</ele><time>2026-03-28T06:23:09Z</time></trkpt><trkpt lat="48.58789355886914" lon="7.477269372394875"><ele>186.0</ele><time>2026-03-28T06:23:10Z</time></trkpt><trkpt lat="48.587800883339725" lon="7.477222824979398"><ele>186.16666666666666</ele><time>2026-03-28T06:23:11Z</time></trkpt><trkpt lat="48.58771655467883" lon="7.477175065565677"><ele>186.33333333333334</ele><time>2026-03-28T06:23:12Z</time></trkpt><trkpt lat="48.587631670737935" lon="7.477127013438534"><ele>186.5</ele><time>2026-03-28T06:23:13Z</time></trkpt><trkpt lat="48.58755300274398" lon="7.477077870324009"><ele>186.66666666666669</ele><time>2026-03-28T06:23:14Z</time></trkpt><trkpt lat="48.58746833778089" lon="7.477026244639068"><ele>186.83333333333334</ele><time>2026-03-28T06:23:15Z</time></trkpt><trkpt lat="48.587383392081044" lon="7.4769800120812295"><ele>187.0</ele><time>2026-03-28T06:23:16Z</time></trkpt><trkpt lat="48.587301543920034" lon="7.476934213991851"><ele>187.0</ele><time>2026-03-28T06:23:17Z</time></trkpt><trkpt lat="48.58720915013444" lon="7.476884813812739"><ele>187.0</ele><time>2026-03-28T06:23:18Z</time></trkpt><trkpt lat="48.587122633431456" lon="7.476840640332337"><ele>187.0</ele><time>2026-03-28T06:23:19Z</time></trkpt><trkpt lat="48.58702604350509" lon="7.476795877306627"><ele>187.0</ele><time>2026-03-28T06:23:20Z</time></trkpt><trkpt lat="48.58691735513038" lon="7.476753484761954"><ele>187.0</ele><time>2026-03-28T06:23:21Z</time></trkpt><trkpt lat="48.58681430459713" lon="7.476699947213404"><ele>186.0</ele><time>2026-03-28T06:23:22Z</time></trkpt><trkpt lat="48.5867007779477" lon="7.47663609392745"><ele>185.0</ele><time>2026-03-28T06:23:23Z</time></trkpt><trkpt lat="48.58658512888451" lon="7.476562804457222"><ele>184.0</ele><time>2026-03-28T06:23:24Z</time></trkpt><trkpt lat="48.58646484889383" lon="7.476488530653413"><ele>183.0</ele><time>2026-03-28T06:23:25Z</time></trkpt><trkpt lat="48.5863427530786" lon="7.476421753295821"><ele>183.0</ele><time>2026-03-28T06:23:26Z</time></trkpt><trkpt lat="48.58621131091176" lon="7.476355864799403"><ele>183.0</ele><time>2026-03-28T06:23:27Z</time></trkpt><trkpt lat="48.58607795708352" lon="7.476290358711713"><ele>183.0</ele><time>2026-03-28T06:23:28Z</time></trkpt><trkpt lat="48.585941595105716" lon="7.476221682672281"><ele>183.0</ele><time>2026-03-28T06:23:29Z</time></trkpt><trkpt lat="48.5858019879251" lon="7.476150581288534"><ele>184.33333333333334</ele><time>2026-03-28T06:23:30Z</time></trkpt><trkpt lat="48.585658822010124" lon="7.4760746496468045"><ele>185.66666666666669</ele><time>2026-03-28T06:23:31Z</time></trkpt><trkpt lat="48.58551127952168" lon="7.475994991062879"><ele>187.0</ele><time>2026-03-28T06:23:32Z</time></trkpt><trkpt lat="48.58536132304797" lon="7.475914773804795"><ele>187.0</ele><time>2026-03-28T06:23:33Z</time></trkpt><trkpt lat="48.585212269322604" lon="7.475838353370369"><ele>187.0</ele><time>2026-03-28T06:23:34Z</time></trkpt><trkpt lat="48.58506335909374" lon="7.475759308718993"><ele>187.0</ele><time>2026-03-28T06:23:35Z</time></trkpt><trkpt lat="48.584909751146064" lon="7.475678435443378"><ele>187.0</ele><time>2026-03-28T06:23:36Z</time></trkpt><trkpt lat="48.58475378162249" lon="7.475595702630734"><ele>187.0</ele><time>2026-03-28T06:23:37Z</time></trkpt><trkpt lat="48.58459351478969" lon="7.475511589392432"><ele>187.0</ele><time>2026-03-28T06:23:38Z</time></trkpt><trkpt lat="48.58443155150495" lon="7.475425714840752"><ele>187.66666666666669</ele><time>2026-03-28T06:23:39Z</time></trkpt><trkpt lat="48.58426604231418" lon="7.475338114413591"><ele>188.33333333333334</ele><time>2026-03-28T06:23:40Z</time></trkpt><trkpt lat="48.584103034092905" lon="7.475250453872251"><ele>189.0</ele><time>2026-03-28T06:23:41Z</time></trkpt><trkpt lat="48.58394085695576" lon="7.475164096818327"><ele>189.0</ele><time>2026-03-28T06:23:42Z</time></trkpt><trkpt lat="48.583781129900835" lon="7.4750766936484565"><ele>189.0</ele><time>2026-03-28T06:23:43Z</time></trkpt><trkpt lat="48.5836246202554" lon="7.474991214127007"><ele>189.0</ele><time>2026-03-28T06:23:44Z</time></trkpt><trkpt lat="48.5834681482148" lon="7.474909291079353"><ele>187.66666666666666</ele><time>2026-03-28T06:23:45Z</time></trkpt><trkpt lat="48.58330614087983" lon="7.474833175291043"><ele>186.33333333333331</ele><time>2026-03-28T06:23:46Z</time></trkpt><trkpt lat="48.58314675115816" lon="7.474761897314898"><ele>185.0</ele><time>2026-03-28T06:23:47Z</time></trkpt><trkpt lat="48.58297630790361" lon="7.474708898783245"><ele>184.0</ele><time>2026-03-28T06:23:48Z</time></trkpt><trkpt lat="48.582812198359086" lon="7.474675602908176"><ele>183.0</ele><time>2026-03-28T06:23:49Z</time></trkpt><trkpt lat="48.5826347612072" lon="7.4746658210582675"><ele>182.0</ele><time>2026-03-28T06:23:50Z</time></trkpt><trkpt lat="48.58246124706834" lon="7.47468553086443"><ele>182.0</ele><time>2026-03-28T06:23:51Z</time></trkpt><trkpt lat="48.5822898759673" lon="7.474733738722801"><ele>182.0</ele><time>2026-03-28T06:23:52Z</time></trkpt><trkpt lat="48.58212277353425" lon="7.474812518681138"><ele>182.0</ele><time>2026-03-28T06:23:53Z</time></trkpt><trkpt lat="48.5819522145153" lon="7.474907580674107"><ele>182.66666666666666</ele><time>2026-03-28T06:23:54Z</time></trkpt><trkpt lat="48.58178560387995" lon="7.475024680041777"><ele>183.33333333333334</ele><time>2026-03-28T06:23:55Z</time></trkpt><trkpt lat="48.581623749848035" lon="7.475141824199418"><ele>184.0</ele><time>2026-03-28T06:23:56Z</time></trkpt><trkpt lat="48.58146213256478" lon="7.4752590466975075"><ele>184.0</ele><time>2026-03-28T06:23:57Z</time></trkpt><trkpt lat="48.58129469355544" lon="7.475376870518674"><ele>184.0</ele><time>2026-03-28T06:23:58Z</time></trkpt><trkpt lat="48.5811320630106" lon="7.475491946558169"><ele>184.0</ele><time>2026-03-28T06:23:59Z</time></trkpt><trkpt lat="48.58096941755263" lon="7.475609239492752"><ele>183.0</ele><time>2026-03-28T06:24:00Z</time></trkpt><trkpt lat="48.58080758928764" lon="7.475725832204601"><ele>182.0</ele><time>2026-03-28T06:24:01Z</time></trkpt><trkpt lat="48.58064593560598" lon="7.475844459281572"><ele>181.0</ele><time>2026-03-28T06:24:02Z</time></trkpt><trkpt lat="48.5804844291127" lon="7.475960462813088"><ele>181.0</ele><time>2026-03-28T06:24:03Z</time></trkpt><trkpt lat="48.58032087521365" lon="7.476079543725909"><ele>181.0</ele><time>2026-03-28T06:24:04Z</time></trkpt><trkpt lat="48.58016180675769" lon="7.476196827989465"><ele>181.0</ele><time>2026-03-28T06:24:05Z</time></trkpt><trkpt lat="48.57999790222057" lon="7.476314094216706"><ele>181.33333333333334</ele><time>2026-03-28T06:24:06Z</time></trkpt><trkpt lat="48.57983380527675" lon="7.476433685494332"><ele>181.66666666666666</ele><time>2026-03-28T06:24:07Z</time></trkpt><trkpt lat="48.5796738944061" lon="7.476550553852799"><ele>182.0</ele><time>2026-03-28T06:24:08Z</time></trkpt><trkpt lat="48.579515189552836" lon="7.4766653438873725"><ele>182.0</ele><time>2026-03-28T06:24:09Z</time></trkpt><trkpt lat="48.57935401779835" lon="7.476781357161866"><ele>182.0</ele><time>2026-03-28T06:24:10Z</time></trkpt><trkpt lat="48.579193880441" lon="7.476893332663427"><ele>182.0</ele><time>2026-03-28T06:24:11Z</time></trkpt><trkpt lat="48.579033588688226" lon="7.477001487089055"><ele>182.0</ele><time>2026-03-28T06:24:12Z</time></trkpt><trkpt lat="48.5788686380979" lon="7.477099391575492"><ele>182.0</ele><time>2026-03-28T06:24:13Z</time></trkpt><trkpt lat="48.57870097486764" lon="7.477189318299349"><ele>182.0</ele><time>2026-03-28T06:24:14Z</time></trkpt><trkpt lat="48.578531806229556" lon="7.477271017701417"><ele>180.0</ele><time>2026-03-28T06:24:15Z</time></trkpt><trkpt lat="48.57836291997294" lon="7.477350665866663"><ele>178.0</ele><time>2026-03-28T06:24:16Z</time></trkpt><trkpt lat="48.57819435013715" lon="7.477430246812516"><ele>176.0</ele><time>2026-03-28T06:24:17Z</time></trkpt><trkpt lat="48.57802450217028" lon="7.477509337961704"><ele>176.0</ele><time>2026-03-28T06:24:18Z</time></trkpt><trkpt lat="48.57785693618319" lon="7.4775873771702415"><ele>176.0</ele><time>2026-03-28T06:24:19Z</time></trkpt><trkpt lat="48.57769026767105" lon="7.477663836400899"><ele>176.0</ele><time>2026-03-28T06:24:20Z</time></trkpt><trkpt lat="48.57752551965328" lon="7.4777388565968135"><ele>175.33333333333331</ele><time>2026-03-28T06:24:21Z</time></trkpt><trkpt lat="48.57736879590725" lon="7.477813239165484"><ele>174.66666666666666</ele><time>2026-03-28T06:24:22Z</time></trkpt><trkpt lat="48.57721959967115" lon="7.477881927303651"><ele>174.0</ele><time>2026-03-28T06:24:23Z</time></trkpt><trkpt lat="48.577075992037685" lon="7.477948699285633"><ele>173.5</ele><time>2026-03-28T06:24:24Z</time></trkpt><trkpt lat="48.57694508246527" lon="7.478011956414015"><ele>173.0</ele><time>2026-03-28T06:24:25Z</time></trkpt><trkpt lat="48.57682199293573" lon="7.478069197906213"><ele>172.5</ele><time>2026-03-28T06:24:26Z</time></trkpt><trkpt lat="48.57670795210988" lon="7.478120772594796"><ele>172.0</ele><time>2026-03-28T06:24:27Z</time></trkpt><trkpt lat="48.576604066635795" lon="7.478166547008682"><ele>172.0</ele><time>2026-03-28T06:24:28Z</time></trkpt><trkpt lat="48.57651082284764" lon="7.47820525973996"><ele>172.0</ele><time>2026-03-28T06:24:29Z</time></trkpt><trkpt lat="48.576428470900964" lon="7.478237380866674"><ele>172.0</ele><time>2026-03-28T06:24:30Z</time></trkpt><trkpt lat="48.57634585285121" lon="7.478256260956472"><ele>172.0</ele><time>2026-03-28T06:24:31Z</time></trkpt><trkpt lat="48.57626963415216" lon="7.478256237438405"><ele>172.0</ele><time>2026-03-28T06:24:32Z</time></trkpt><trkpt lat="48.57619503692273" lon="7.478229713746512"><ele>172.0</ele><time>2026-03-28T06:24:33Z</time></trkpt><trkpt lat="48.57612082245429" lon="7.478201266343314"><ele>171.85714285714286</ele><time>2026-03-28T06:24:34Z</time></trkpt><trkpt lat="48.57604671354754" lon="7.478203684675545"><ele>171.71428571428572</ele><time>2026-03-28T06:24:35Z</time></trkpt><trkpt lat="48.57598288794319" lon="7.478241560678807"><ele>171.57142857142856</ele><time>2026-03-28T06:24:36Z</time></trkpt><trkpt lat="48.575937906967695" lon="7.4783182164772635"><ele>171.42857142857144</ele><time>2026-03-28T06:24:37Z</time></trkpt><trkpt lat="48.57591623204063" lon="7.478423648111974"><ele>171.28571428571428</ele><time>2026-03-28T06:24:38Z</time></trkpt><trkpt lat="48.57591642088825" lon="7.478543458213723"><ele>171.14285714285714</ele><time>2026-03-28T06:24:39Z</time></trkpt><trkpt lat="48.57592628794199" lon="7.4786722838120125"><ele>171.0</ele><time>2026-03-28T06:24:40Z</time></trkpt><trkpt lat="48.57592812630155" lon="7.478810176057956"><ele>170.8</ele><time>2026-03-28T06:24:41Z</time></trkpt><trkpt lat="48.57591190062428" lon="7.478953893097423"><ele>170.60000000000002</ele><time>2026-03-28T06:24:42Z</time></trkpt><trkpt lat="48.57588087623729" lon="7.479105676635812"><ele>170.4</ele><time>2026-03-28T06:24:43Z</time></trkpt><trkpt lat="48.57583859270979" lon="7.479269985430682"><ele>170.2</ele><time>2026-03-28T06:24:44Z</time></trkpt><trkpt lat="48.57579024045127" lon="7.479446746962699"><ele>170.0</ele><time>2026-03-28T06:24:45Z</time></trkpt><trkpt lat="48.57574218363893" lon="7.479634925607948"><ele>169.75</ele><time>2026-03-28T06:24:46Z</time></trkpt><trkpt lat="48.57569365432671" lon="7.4798251414097185"><ele>169.5</ele><time>2026-03-28T06:24:47Z</time></trkpt><trkpt lat="48.57564268636755" lon="7.480019086486869"><ele>169.25</ele><time>2026-03-28T06:24:48Z</time></trkpt><trkpt lat="48.57559130430076" lon="7.4802184618100585"><ele>169.0</ele><time>2026-03-28T06:24:49Z</time></trkpt><trkpt lat="48.575535692005964" lon="7.480423560854934"><ele>169.0</ele><time>2026-03-28T06:24:50Z</time></trkpt><trkpt lat="48.575479212265634" lon="7.480637732918831"><ele>169.0</ele><time>2026-03-28T06:24:51Z</time></trkpt><trkpt lat="48.57542129833891" lon="7.48086034263304"><ele>169.0</ele><time>2026-03-28T06:24:52Z</time></trkpt><trkpt lat="48.575362478174384" lon="7.481089365380088"><ele>171.0</ele><time>2026-03-28T06:24:53Z</time></trkpt><trkpt lat="48.57530216231415" lon="7.481319030178497"><ele>173.0</ele><time>2026-03-28T06:24:54Z</time></trkpt><trkpt lat="48.57524399672345" lon="7.481547861892762"><ele>175.0</ele><time>2026-03-28T06:24:55Z</time></trkpt><trkpt lat="48.575185964589984" lon="7.481772180620589"><ele>175.0</ele><time>2026-03-28T06:24:56Z</time></trkpt><trkpt lat="48.57512960479069" lon="7.481991928893704"><ele>175.0</ele><time>2026-03-28T06:24:57Z</time></trkpt><trkpt lat="48.57507863501652" lon="7.482203826835696"><ele>175.0</ele><time>2026-03-28T06:24:58Z</time></trkpt><trkpt lat="48.57502415013713" lon="7.482410055282968"><ele>174.5</ele><time>2026-03-28T06:24:59Z</time></trkpt><trkpt lat="48.57497261674019" lon="7.482616474078384"><ele>174.0</ele><time>2026-03-28T06:25:00Z</time></trkpt><trkpt lat="48.574918230545705" lon="7.48282620725503"><ele>173.5</ele><time>2026-03-28T06:25:01Z</time></trkpt><trkpt lat="48.57485999895168" lon="7.4830245642634114"><ele>173.0</ele><time>2026-03-28T06:25:02Z</time></trkpt><trkpt lat="48.5747920592789" lon="7.483207075545368"><ele>172.75</ele><time>2026-03-28T06:25:03Z</time></trkpt><trkpt lat="48.57471434062336" lon="7.4833738058707455"><ele>172.5</ele><time>2026-03-28T06:25:04Z</time></trkpt><trkpt lat="48.57462654096294" lon="7.483528998085484"><ele>172.25</ele><time>2026-03-28T06:25:05Z</time></trkpt><trkpt lat="48.574536635198896" lon="7.4836796270498205"><ele>172.0</ele><time>2026-03-28T06:25:06Z</time></trkpt><trkpt lat="48.57445122756402" lon="7.4838299422473975"><ele>172.5</ele><time>2026-03-28T06:25:07Z</time></trkpt><trkpt lat="48.574372022344406" lon="7.483979344988288"><ele>173.0</ele><time>2026-03-28T06:25:08Z</time></trkpt><trkpt lat="48.57429245116729" lon="7.484125051286105"><ele>173.5</ele><time>2026-03-28T06:25:09Z</time></trkpt><trkpt lat="48.57421821375443" lon="7.484259042852651"><ele>174.0</ele><time>2026-03-28T06:25:10Z</time></trkpt><trkpt lat="48.57414056081903" lon="7.484382296354273"><ele>174.0</ele><time>2026-03-28T06:25:11Z</time></trkpt><trkpt lat="48.57406417156274" lon="7.4844944307955465"><ele>174.0</ele><time>2026-03-28T06:25:12Z</time></trkpt><trkpt lat="48.57398329633031" lon="7.484591868734659"><ele>174.0</ele><time>2026-03-28T06:25:13Z</time></trkpt><trkpt lat="48.57389983957714" lon="7.4846792448843065"><ele>174.0</ele><time>2026-03-28T06:25:14Z</time></trkpt><trkpt lat="48.57382221125477" lon="7.484786458245602"><ele>174.0</ele><time>2026-03-28T06:25:15Z</time></trkpt><trkpt lat="48.57375144034951" lon="7.484902067842765"><ele>174.2</ele><time>2026-03-28T06:25:16Z</time></trkpt><trkpt lat="48.5736759587608" lon="7.485013831436539"><ele>174.39999999999998</ele><time>2026-03-28T06:25:17Z</time></trkpt><trkpt lat="48.573599521190886" lon="7.485119409660883"><ele>174.6</ele><time>2026-03-28T06:25:18Z</time></trkpt><trkpt lat="48.57351021470083" lon="7.485217851634359"><ele>174.8</ele><time>2026-03-28T06:25:19Z</time></trkpt><trkpt lat="48.57341775569915" lon="7.485313772055662"><ele>175.0</ele><time>2026-03-28T06:25:20Z</time></trkpt><trkpt lat="48.57332241050133" lon="7.485408726439016"><ele>174.8</ele><time>2026-03-28T06:25:21Z</time></trkpt><trkpt lat="48.57322951165708" lon="7.485499933306111"><ele>174.6</ele><time>2026-03-28T06:25:22Z</time></trkpt><trkpt lat="48.57313683566691" lon="7.485592627860164"><ele>174.39999999999998</ele><time>2026-03-28T06:25:23Z</time></trkpt><trkpt lat="48.573046640400214" lon="7.485680279251998"><ele>174.2</ele><time>2026-03-28T06:25:24Z</time></trkpt><trkpt lat="48.57295913425455" lon="7.485765994448494"><ele>174.0</ele><time>2026-03-28T06:25:25Z</time></trkpt><trkpt lat="48.57287416270403" lon="7.4858508359258105"><ele>174.2</ele><time>2026-03-28T06:25:26Z</time></trkpt><trkpt lat="48.57278751619576" lon="7.485938391142747"><ele>174.39999999999998</ele><time>2026-03-28T06:25:27Z</time></trkpt><trkpt lat="48.572706381379916" lon="7.48602144517342"><ele>174.6</ele><time>2026-03-28T06:25:28Z</time></trkpt><trkpt lat="48.57262711211994" lon="7.486105887411531"><ele>174.8</ele><time>2026-03-28T06:25:29Z</time></trkpt><trkpt lat="48.57255933781489" lon="7.486186865886242"><ele>175.0</ele><time>2026-03-28T06:25:30Z</time></trkpt><trkpt lat="48.572494019781345" lon="7.486260531679834"><ele>174.66666666666669</ele><time>2026-03-28T06:25:31Z</time></trkpt><trkpt lat="48.57243302688096" lon="7.486332950097591"><ele>174.33333333333334</ele><time>2026-03-28T06:25:32Z</time></trkpt><trkpt lat="48.572377911376925" lon="7.486401624732708"><ele>174.0</ele><time>2026-03-28T06:25:33Z</time></trkpt><trkpt lat="48.57232413568101" lon="7.486470360864159"><ele>173.66666666666666</ele><time>2026-03-28T06:25:34Z</time></trkpt><trkpt lat="48.57224554344229" lon="7.486579843074792"><ele>173.33333333333331</ele><time>2026-03-28T06:25:36Z</time></trkpt><trkpt lat="48.572192641566716" lon="7.4866523857193"><ele>173.0</ele><time>2026-03-28T06:25:38Z</time></trkpt><trkpt lat="48.57213959423285" lon="7.486727152366212"><ele>173.0</ele><time>2026-03-28T06:25:40Z</time></trkpt><trkpt lat="48.572057200279005" lon="7.486850257876651"><ele>173.0</ele><time>2026-03-28T06:25:42Z</time></trkpt><trkpt lat="48.57199777075565" lon="7.486916034758331"><ele>173.0</ele><time>2026-03-28T06:25:43Z</time></trkpt><trkpt lat="48.57193975846733" lon="7.486986090048831"><ele>173.0</ele><time>2026-03-28T06:25:44Z</time></trkpt><trkpt lat="48.57188172167508" lon="7.487049409230387"><ele>173.0</ele><time>2026-03-28T06:25:45Z</time></trkpt><trkpt lat="48.571811361214266" lon="7.487099163429712"><ele>173.0</ele><time>2026-03-28T06:25:46Z</time></trkpt><trkpt lat="48.57174912005391" lon="7.487162113987851"><ele>174.0</ele><time>2026-03-28T06:25:47Z</time></trkpt><trkpt lat="48.57168087458719" lon="7.48723420557495"><ele>175.0</ele><time>2026-03-28T06:25:48Z</time></trkpt><trkpt lat="48.57160752335237" lon="7.487320169975861"><ele>176.0</ele><time>2026-03-28T06:25:49Z</time></trkpt><trkpt lat="48.57153430163498" lon="7.487416370655534"><ele>177.0</ele><time>2026-03-28T06:25:50Z</time></trkpt><trkpt lat="48.571464747334836" lon="7.4875176224278395"><ele>178.0</ele><time>2026-03-28T06:25:51Z</time></trkpt><trkpt lat="48.57139785312378" lon="7.487630594802793"><ele>178.0</ele><time>2026-03-28T06:25:52Z</time></trkpt><trkpt lat="48.571336525529745" lon="7.487746845014074"><ele>178.0</ele><time>2026-03-28T06:25:53Z</time></trkpt><trkpt lat="48.57127661870569" lon="7.487864402746604"><ele>178.0</ele><time>2026-03-28T06:25:54Z</time></trkpt><trkpt lat="48.57121544824888" lon="7.487984729126979"><ele>178.0</ele><time>2026-03-28T06:25:55Z</time></trkpt><trkpt lat="48.57115801021866" lon="7.48811002909154"><ele>178.0</ele><time>2026-03-28T06:25:56Z</time></trkpt><trkpt lat="48.57109826525205" lon="7.488233008730323"><ele>178.0</ele><time>2026-03-28T06:25:57Z</time></trkpt><trkpt lat="48.571039260108655" lon="7.488355727278902"><ele>178.0</ele><time>2026-03-28T06:25:58Z</time></trkpt><trkpt lat="48.57098342849076" lon="7.48848024112291"><ele>178.0</ele><time>2026-03-28T06:25:59Z</time></trkpt><trkpt lat="48.57092507979132" lon="7.488606577662206"><ele>178.0</ele><time>2026-03-28T06:26:00Z</time></trkpt><trkpt lat="48.570866555031046" lon="7.488722061942361"><ele>178.0</ele><time>2026-03-28T06:26:01Z</time></trkpt><trkpt lat="48.57080236648726" lon="7.488826660503932"><ele>177.0</ele><time>2026-03-28T06:26:02Z</time></trkpt><trkpt lat="48.57074064770113" lon="7.488924268178034"><ele>176.0</ele><time>2026-03-28T06:26:03Z</time></trkpt><trkpt lat="48.570672610937045" lon="7.4890183756316855"><ele>175.0</ele><time>2026-03-28T06:26:04Z</time></trkpt><trkpt lat="48.570603367960615" lon="7.48910700703163"><ele>174.0</ele><time>2026-03-28T06:26:05Z</time></trkpt><trkpt lat="48.57053120604929" lon="7.489193399614873"><ele>173.0</ele><time>2026-03-28T06:26:06Z</time></trkpt><trkpt lat="48.57045696725223" lon="7.489282551621691"><ele>173.0</ele><time>2026-03-28T06:26:07Z</time></trkpt><trkpt lat="48.57038377561534" lon="7.489376797961323"><ele>173.0</ele><time>2026-03-28T06:26:08Z</time></trkpt><trkpt lat="48.57030948654577" lon="7.48946938524336"><ele>173.0</ele><time>2026-03-28T06:26:09Z</time></trkpt><trkpt lat="48.57024201763084" lon="7.4895602544591515"><ele>173.0</ele><time>2026-03-28T06:26:10Z</time></trkpt><trkpt lat="48.57016837478491" lon="7.489652131891648"><ele>173.0</ele><time>2026-03-28T06:26:11Z</time></trkpt><trkpt lat="48.570094460872234" lon="7.489743731389965"><ele>172.8</ele><time>2026-03-28T06:26:12Z</time></trkpt><trkpt lat="48.57001953410219" lon="7.489837553206084"><ele>172.60000000000002</ele><time>2026-03-28T06:26:13Z</time></trkpt><trkpt lat="48.56994347476377" lon="7.489933978876939"><ele>172.39999999999998</ele><time>2026-03-28T06:26:14Z</time></trkpt><trkpt lat="48.56986555048188" lon="7.490031604154034"><ele>172.2</ele><time>2026-03-28T06:26:15Z</time></trkpt><trkpt lat="48.569786825339904" lon="7.490129776767826"><ele>172.0</ele><time>2026-03-28T06:26:16Z</time></trkpt><trkpt lat="48.569708627311805" lon="7.490224025228826"><ele>172.0</ele><time>2026-03-28T06:26:17Z</time></trkpt><trkpt lat="48.569633395693" lon="7.49032376899545"><ele>172.0</ele><time>2026-03-28T06:26:18Z</time></trkpt><trkpt lat="48.56955499053893" lon="7.490423548743094"><ele>172.0</ele><time>2026-03-28T06:26:19Z</time></trkpt><trkpt lat="48.56947801275604" lon="7.49051655989232"><ele>172.0</ele><time>2026-03-28T06:26:20Z</time></trkpt><trkpt lat="48.56939888284506" lon="7.490605757025571"><ele>172.0</ele><time>2026-03-28T06:26:21Z</time></trkpt><trkpt lat="48.56932112912179" lon="7.490697111036109"><ele>172.2</ele><time>2026-03-28T06:26:22Z</time></trkpt><trkpt lat="48.56924173946863" lon="7.490796342275887"><ele>172.39999999999998</ele><time>2026-03-28T06:26:23Z</time></trkpt><trkpt lat="48.56916916508342" lon="7.490900893666994"><ele>172.60000000000002</ele><time>2026-03-28T06:26:24Z</time></trkpt><trkpt lat="48.569092492322255" lon="7.491004424152821"><ele>172.8</ele><time>2026-03-28T06:26:25Z</time></trkpt><trkpt lat="48.56901701248392" lon="7.491100543980447"><ele>173.0</ele><time>2026-03-28T06:26:26Z</time></trkpt><trkpt lat="48.56893900126932" lon="7.491196733563807"><ele>173.0</ele><time>2026-03-28T06:26:27Z</time></trkpt><trkpt lat="48.56886809511237" lon="7.491289148143353"><ele>173.0</ele><time>2026-03-28T06:26:28Z</time></trkpt><trkpt lat="48.56879826831944" lon="7.491380015404858"><ele>173.0</ele><time>2026-03-28T06:26:29Z</time></trkpt><trkpt lat="48.56872469434186" lon="7.491464463430539"><ele>173.0</ele><time>2026-03-28T06:26:30Z</time></trkpt><trkpt lat="48.56865295542449" lon="7.491549562073411"><ele>173.0</ele><time>2026-03-28T06:26:31Z</time></trkpt><trkpt lat="48.56858726021784" lon="7.491626671483809"><ele>173.16666666666666</ele><time>2026-03-28T06:26:32Z</time></trkpt><trkpt lat="48.56852394576966" lon="7.491700504082963"><ele>173.33333333333331</ele><time>2026-03-28T06:26:33Z</time></trkpt><trkpt lat="48.56846846184282" lon="7.491772213917606"><ele>173.5</ele><time>2026-03-28T06:26:34Z</time></trkpt><trkpt lat="48.56841350681392" lon="7.491839667534252"><ele>173.66666666666666</ele><time>2026-03-28T06:26:35Z</time></trkpt><trkpt lat="48.56835887979142" lon="7.491907648781903"><ele>173.83333333333334</ele><time>2026-03-28T06:26:36Z</time></trkpt><trkpt lat="48.568279451867056" lon="7.492016287581988"><ele>174.0</ele><time>2026-03-28T06:26:38Z</time></trkpt><trkpt lat="48.56822161550212" lon="7.492076897942922"><ele>173.16666666666666</ele><time>2026-03-28T06:26:40Z</time></trkpt><trkpt lat="48.56817581421978" lon="7.492188751471414"><ele>172.33333333333334</ele><time>2026-03-28T06:31:36Z</time></trkpt><trkpt lat="48.56810310321761" lon="7.492249278423433"><ele>171.5</ele><time>2026-03-28T06:31:38Z</time></trkpt><trkpt lat="48.56801415855753" lon="7.492361235704875"><ele>170.66666666666669</ele><time>2026-03-28T06:31:40Z</time></trkpt><trkpt lat="48.56796163677979" lon="7.492433559716761"><ele>169.83333333333334</ele><time>2026-03-28T06:31:41Z</time></trkpt><trkpt lat="48.56791248898627" lon="7.492509681259065"><ele>169.0</ele><time>2026-03-28T06:31:42Z</time></trkpt><trkpt lat="48.56786444278865" lon="7.492597853230811"><ele>169.33333333333334</ele><time>2026-03-28T06:31:43Z</time></trkpt><trkpt lat="48.567832100103416" lon="7.492699455010728"><ele>169.66666666666669</ele><time>2026-03-28T06:31:44Z</time></trkpt><trkpt lat="48.56778096674004" lon="7.492791034377004"><ele>170.0</ele><time>2026-03-28T06:31:45Z</time></trkpt><trkpt lat="48.56772192509656" lon="7.492874501586403"><ele>170.33333333333334</ele><time>2026-03-28T06:31:46Z</time></trkpt><trkpt lat="48.56764931537093" lon="7.492944603538517"><ele>170.66666666666666</ele><time>2026-03-28T06:31:47Z</time></trkpt><trkpt lat="48.56756836979497" lon="7.492997734490165"><ele>171.0</ele><time>2026-03-28T06:31:48Z</time></trkpt><trkpt lat="48.567482541746564" lon="7.493061573353274"><ele>171.0</ele><time>2026-03-28T06:31:49Z</time></trkpt><trkpt lat="48.567405494368494" lon="7.493148575216933"><ele>171.0</ele><time>2026-03-28T06:31:50Z</time></trkpt><trkpt lat="48.567329363314" lon="7.493252959367024"><ele>171.0</ele><time>2026-03-28T06:31:51Z</time></trkpt><trkpt lat="48.56723729328866" lon="7.493344096081701"><ele>171.0</ele><time>2026-03-28T06:31:52Z</time></trkpt><trkpt lat="48.56714903077257" lon="7.493458939928668"><ele>171.0</ele><time>2026-03-28T06:31:53Z</time></trkpt><trkpt lat="48.567055623598336" lon="7.4935804778009025"><ele>170.75</ele><time>2026-03-28T06:31:54Z</time></trkpt><trkpt lat="48.56695996266678" lon="7.493698419734793"><ele>170.5</ele><time>2026-03-28T06:31:55Z</time></trkpt><trkpt lat="48.56686312299599" lon="7.493817922021173"><ele>170.25</ele><time>2026-03-28T06:31:56Z</time></trkpt><trkpt lat="48.56676139096138" lon="7.493939367856238"><ele>170.0</ele><time>2026-03-28T06:31:57Z</time></trkpt><trkpt lat="48.56665605620534" lon="7.494063012611057"><ele>170.0</ele><time>2026-03-28T06:31:58Z</time></trkpt><trkpt lat="48.56654274768532" lon="7.494188322431816"><ele>170.0</ele><time>2026-03-28T06:31:59Z</time></trkpt><trkpt lat="48.56643585810117" lon="7.49433007873282"><ele>170.0</ele><time>2026-03-28T06:32:00Z</time></trkpt><trkpt lat="48.566312682228" lon="7.494445894883993"><ele>170.0</ele><time>2026-03-28T06:32:01Z</time></trkpt><trkpt lat="48.56619355389931" lon="7.494563741801726"><ele>170.5</ele><time>2026-03-28T06:32:02Z</time></trkpt><trkpt lat="48.56607407356418" lon="7.49468029762031"><ele>171.0</ele><time>2026-03-28T06:32:03Z</time></trkpt><trkpt lat="48.565956915795454" lon="7.494793506096347"><ele>171.5</ele><time>2026-03-28T06:32:04Z</time></trkpt><trkpt lat="48.565840484345046" lon="7.494904645927752"><ele>172.0</ele><time>2026-03-28T06:32:05Z</time></trkpt><trkpt lat="48.565728044604086" lon="7.4950147775976035"><ele>172.0</ele><time>2026-03-28T06:32:06Z</time></trkpt><trkpt lat="48.565613269445585" lon="7.495128571738031"><ele>172.0</ele><time>2026-03-28T06:32:07Z</time></trkpt><trkpt lat="48.56549318019667" lon="7.495242475909889"><ele>172.0</ele><time>2026-03-28T06:32:08Z</time></trkpt><trkpt lat="48.56537109258237" lon="7.4953597031491"><ele>172.0</ele><time>2026-03-28T06:32:09Z</time></trkpt><trkpt lat="48.5652480214235" lon="7.495474561703129"><ele>171.75</ele><time>2026-03-28T06:32:10Z</time></trkpt><trkpt lat="48.56512294618104" lon="7.495587777407769"><ele>171.5</ele><time>2026-03-28T06:32:11Z</time></trkpt><trkpt lat="48.56499282354129" lon="7.495697158464045"><ele>171.25</ele><time>2026-03-28T06:32:12Z</time></trkpt><trkpt lat="48.564860004512845" lon="7.495801951699435"><ele>171.0</ele><time>2026-03-28T06:32:13Z</time></trkpt><trkpt lat="48.5647246843615" lon="7.495905424637864"><ele>171.0</ele><time>2026-03-28T06:32:14Z</time></trkpt><trkpt lat="48.56458933786672" lon="7.496007589742686"><ele>171.0</ele><time>2026-03-28T06:32:15Z</time></trkpt><trkpt lat="48.564455806920535" lon="7.4961042266749605"><ele>171.0</ele><time>2026-03-28T06:32:16Z</time></trkpt><trkpt lat="48.564324481137" lon="7.496194626267335"><ele>171.0</ele><time>2026-03-28T06:32:17Z</time></trkpt><trkpt lat="48.56419123533132" lon="7.496281195572746"><ele>171.25</ele><time>2026-03-28T06:32:18Z</time></trkpt><trkpt lat="48.56406142681589" lon="7.4963630847121125"><ele>171.5</ele><time>2026-03-28T06:32:19Z</time></trkpt><trkpt lat="48.563936226265255" lon="7.496439787966034"><ele>171.75</ele><time>2026-03-28T06:32:20Z</time></trkpt><trkpt lat="48.563816249322095" lon="7.496507574604589"><ele>172.0</ele><time>2026-03-28T06:32:21Z</time></trkpt><trkpt lat="48.56369843080801" lon="7.496567863168701"><ele>173.0</ele><time>2026-03-28T06:32:22Z</time></trkpt><trkpt lat="48.56358216966971" lon="7.496632148990366"><ele>174.0</ele><time>2026-03-28T06:32:23Z</time></trkpt><trkpt lat="48.563470846644336" lon="7.496696520050628"><ele>175.0</ele><time>2026-03-28T06:32:24Z</time></trkpt><trkpt lat="48.563361917790786" lon="7.496767817941718"><ele>176.0</ele><time>2026-03-28T06:32:25Z</time></trkpt><trkpt lat="48.563252925467445" lon="7.496842483098222"><ele>176.0</ele><time>2026-03-28T06:32:26Z</time></trkpt><trkpt lat="48.563149033763814" lon="7.49691006861408"><ele>176.0</ele><time>2026-03-28T06:32:27Z</time></trkpt><trkpt lat="48.56303729839378" lon="7.49696620999199"><ele>176.0</ele><time>2026-03-28T06:32:28Z</time></trkpt><trkpt lat="48.56291883271862" lon="7.497007289976094"><ele>176.0</ele><time>2026-03-28T06:32:29Z</time></trkpt><trkpt lat="48.562810398190294" lon="7.4970630761456745"><ele>176.20000000000002</ele><time>2026-03-28T06:32:30Z</time></trkpt><trkpt lat="48.56270539221546" lon="7.497122094241015"><ele>176.4</ele><time>2026-03-28T06:32:31Z</time></trkpt><trkpt lat="48.56259856969058" lon="7.497182019906737"><ele>176.6</ele><time>2026-03-28T06:32:32Z</time></trkpt><trkpt lat="48.56248708784168" lon="7.497230035644376"><ele>176.8</ele><time>2026-03-28T06:32:33Z</time></trkpt><trkpt lat="48.56238817950134" lon="7.4972894058661685"><ele>177.0</ele><time>2026-03-28T06:32:34Z</time></trkpt><trkpt lat="48.56228970867918" lon="7.497349077510589"><ele>177.0</ele><time>2026-03-28T06:32:35Z</time></trkpt><trkpt lat="48.562189925171694" lon="7.497409217175111"><ele>177.0</ele><time>2026-03-28T06:32:36Z</time></trkpt><trkpt lat="48.562092440673624" lon="7.497467365822864"><ele>177.0</ele><time>2026-03-28T06:32:37Z</time></trkpt><trkpt lat="48.561997152954504" lon="7.497524236276144"><ele>177.0</ele><time>2026-03-28T06:32:38Z</time></trkpt><trkpt lat="48.56190227032728" lon="7.49758170569127"><ele>177.0</ele><time>2026-03-28T06:32:39Z</time></trkpt><trkpt lat="48.56180613234975" lon="7.497638041755666"><ele>177.16666666666666</ele><time>2026-03-28T06:32:40Z</time></trkpt><trkpt lat="48.56171295761648" lon="7.497691352470704"><ele>177.33333333333334</ele><time>2026-03-28T06:32:41Z</time></trkpt><trkpt lat="48.561620472574845" lon="7.497738740985529"><ele>177.5</ele><time>2026-03-28T06:32:42Z</time></trkpt><trkpt lat="48.561533412605804" lon="7.497782653437625"><ele>177.66666666666669</ele><time>2026-03-28T06:32:43Z</time></trkpt><trkpt lat="48.56145722215493" lon="7.49782016363542"><ele>177.83333333333334</ele><time>2026-03-28T06:32:44Z</time></trkpt><trkpt lat="48.561390932553564" lon="7.497851064122289"><ele>178.0</ele><time>2026-03-28T06:32:45Z</time></trkpt><trkpt lat="48.56129908587544" lon="7.497886785132999"><ele>178.0</ele><time>2026-03-28T06:32:47Z</time></trkpt><trkpt lat="48.561205425062546" lon="7.497907095634106"><ele>178.0</ele><time>2026-03-28T06:33:00Z</time></trkpt><trkpt lat="48.561114990583015" lon="7.497923868098137"><ele>178.0</ele><time>2026-03-28T06:33:02Z</time></trkpt><trkpt lat="48.56098606817492" lon="7.497901726173946"><ele>178.0</ele><time>2026-03-28T06:33:04Z</time></trkpt><trkpt lat="48.56090320475832" lon="7.4978899125261655"><ele>178.0</ele><time>2026-03-28T06:33:05Z</time></trkpt><trkpt lat="48.560819660908926" lon="7.497868894380444"><ele>178.4</ele><time>2026-03-28T06:33:06Z</time></trkpt><trkpt lat="48.56073986296758" lon="7.49784651705083"><ele>178.8</ele><time>2026-03-28T06:33:07Z</time></trkpt><trkpt lat="48.56065100387619" lon="7.497835393084191"><ele>179.2</ele><time>2026-03-28T06:33:08Z</time></trkpt><trkpt lat="48.56055444175052" lon="7.497820860617482"><ele>179.6</ele><time>2026-03-28T06:33:09Z</time></trkpt><trkpt lat="48.56045693313587" lon="7.497800161452948"><ele>180.0</ele><time>2026-03-28T06:33:10Z</time></trkpt><trkpt lat="48.560350988032994" lon="7.497773011860658"><ele>180.25</ele><time>2026-03-28T06:33:11Z</time></trkpt><trkpt lat="48.560239323112974" lon="7.497747159955117"><ele>180.5</ele><time>2026-03-28T06:33:12Z</time></trkpt><trkpt lat="48.56012531269793" lon="7.49772014963564"><ele>180.75</ele><time>2026-03-28T06:33:13Z</time></trkpt><trkpt lat="48.56001664948322" lon="7.497693238052793"><ele>181.0</ele><time>2026-03-28T06:33:14Z</time></trkpt><trkpt lat="48.55990339840889" lon="7.497664448068086"><ele>181.0</ele><time>2026-03-28T06:33:15Z</time></trkpt><trkpt lat="48.559791966898345" lon="7.497634439637823"><ele>181.0</ele><time>2026-03-28T06:33:16Z</time></trkpt><trkpt lat="48.559675164969406" lon="7.497603999111939"><ele>181.0</ele><time>2026-03-28T06:33:17Z</time></trkpt><trkpt lat="48.55956322560909" lon="7.4975668842939385"><ele>181.0</ele><time>2026-03-28T06:33:18Z</time></trkpt><trkpt lat="48.55944729858798" lon="7.497530768645018"><ele>181.75</ele><time>2026-03-28T06:33:19Z</time></trkpt><trkpt lat="48.55932892867228" lon="7.497499397193714"><ele>182.5</ele><time>2026-03-28T06:33:20Z</time></trkpt><trkpt lat="48.559208166214205" lon="7.49747106011619"><ele>183.25</ele><time>2026-03-28T06:33:21Z</time></trkpt><trkpt lat="48.559085790903076" lon="7.497442838945818"><ele>184.0</ele><time>2026-03-28T06:33:22Z</time></trkpt><trkpt lat="48.55896293659087" lon="7.497413134761203"><ele>184.0</ele><time>2026-03-28T06:33:23Z</time></trkpt><trkpt lat="48.5588389763558" lon="7.49738387470497"><ele>184.0</ele><time>2026-03-28T06:33:24Z</time></trkpt><trkpt lat="48.55871382836918" lon="7.4973447465459016"><ele>184.0</ele><time>2026-03-28T06:33:25Z</time></trkpt><trkpt lat="48.55858685745729" lon="7.49729584728139"><ele>184.0</ele><time>2026-03-28T06:33:26Z</time></trkpt><trkpt lat="48.55845768754217" lon="7.497235948019997"><ele>185.5</ele><time>2026-03-28T06:33:27Z</time></trkpt><trkpt lat="48.558329906309" lon="7.497167277614062"><ele>187.0</ele><time>2026-03-28T06:33:28Z</time></trkpt><trkpt lat="48.55820148904171" lon="7.497088722292006"><ele>188.5</ele><time>2026-03-28T06:33:29Z</time></trkpt><trkpt lat="48.55807027358904" lon="7.497004418314276"><ele>190.0</ele><time>2026-03-28T06:33:30Z</time></trkpt><trkpt lat="48.557939229822686" lon="7.49691759627571"><ele>190.5</ele><time>2026-03-28T06:33:31Z</time></trkpt><trkpt lat="48.557806264585146" lon="7.496829416708731"><ele>191.0</ele><time>2026-03-28T06:33:32Z</time></trkpt><trkpt lat="48.55767149911194" lon="7.496738692537252"><ele>191.5</ele><time>2026-03-28T06:33:33Z</time></trkpt><trkpt lat="48.557533450636356" lon="7.496646206493253"><ele>192.0</ele><time>2026-03-28T06:33:34Z</time></trkpt><trkpt lat="48.55739113197922" lon="7.496552758359534"><ele>192.0</ele><time>2026-03-28T06:33:35Z</time></trkpt><trkpt lat="48.557245375011455" lon="7.496458471182198"><ele>192.0</ele><time>2026-03-28T06:33:36Z</time></trkpt><trkpt lat="48.557090641767374" lon="7.496369110017134"><ele>192.0</ele><time>2026-03-28T06:33:37Z</time></trkpt><trkpt lat="48.55692923084629" lon="7.496281006083552"><ele>192.66666666666669</ele><time>2026-03-28T06:33:38Z</time></trkpt><trkpt lat="48.556758374522914" lon="7.49619483696325"><ele>193.33333333333334</ele><time>2026-03-28T06:33:39Z</time></trkpt><trkpt lat="48.55658588390673" lon="7.496110993740897"><ele>194.0</ele><time>2026-03-28T06:33:40Z</time></trkpt><trkpt lat="48.55642066568864" lon="7.496029838352789"><ele>194.0</ele><time>2026-03-28T06:33:41Z</time></trkpt><trkpt lat="48.55624877047537" lon="7.495947278000428"><ele>194.0</ele><time>2026-03-28T06:33:42Z</time></trkpt><trkpt lat="48.55607313980804" lon="7.4958669547216035"><ele>194.0</ele><time>2026-03-28T06:33:43Z</time></trkpt><trkpt lat="48.555902157099474" lon="7.495784011394221"><ele>192.0</ele><time>2026-03-28T06:33:44Z</time></trkpt><trkpt lat="48.55573183305803" lon="7.4957056358516505"><ele>190.0</ele><time>2026-03-28T06:33:45Z</time></trkpt><trkpt lat="48.555561147240724" lon="7.4956327376526115"><ele>188.0</ele><time>2026-03-28T06:33:46Z</time></trkpt><trkpt lat="48.55539339637863" lon="7.495568459958775"><ele>188.33333333333331</ele><time>2026-03-28T06:33:47Z</time></trkpt><trkpt lat="48.555225077253226" lon="7.495510190331607"><ele>188.66666666666666</ele><time>2026-03-28T06:33:48Z</time></trkpt><trkpt lat="48.55505826906861" lon="7.495456166098256"><ele>189.0</ele><time>2026-03-28T06:33:49Z</time></trkpt><trkpt lat="48.554890185607185" lon="7.49540876126043"><ele>189.66666666666666</ele><time>2026-03-28T06:33:50Z</time></trkpt><trkpt lat="48.55472517766038" lon="7.495366218754398"><ele>190.33333333333331</ele><time>2026-03-28T06:33:51Z</time></trkpt><trkpt lat="48.55455419278943" lon="7.495323568868228"><ele>191.0</ele><time>2026-03-28T06:33:52Z</time></trkpt><trkpt lat="48.55438568439233" lon="7.49527722868742"><ele>191.33333333333331</ele><time>2026-03-28T06:33:53Z</time></trkpt><trkpt lat="48.55421543376389" lon="7.495225406107474"><ele>191.66666666666666</ele><time>2026-03-28T06:33:54Z</time></trkpt><trkpt lat="48.554047165743334" lon="7.495166466974212"><ele>192.0</ele><time>2026-03-28T06:33:55Z</time></trkpt><trkpt lat="48.553880747895" lon="7.495105621856751"><ele>192.0</ele><time>2026-03-28T06:33:56Z</time></trkpt><trkpt lat="48.553714399378755" lon="7.495039989622501"><ele>192.0</ele><time>2026-03-28T06:33:57Z</time></trkpt><trkpt lat="48.55355001919505" lon="7.494973082088373"><ele>192.0</ele><time>2026-03-28T06:33:58Z</time></trkpt><trkpt lat="48.55338788949893" lon="7.494909795410282"><ele>191.33333333333334</ele><time>2026-03-28T06:33:59Z</time></trkpt><trkpt lat="48.5532323029569" lon="7.494847389816756"><ele>190.66666666666669</ele><time>2026-03-28T06:34:00Z</time></trkpt><trkpt lat="48.55308165276852" lon="7.494787072644243"><ele>190.0</ele><time>2026-03-28T06:34:01Z</time></trkpt><trkpt lat="48.55293415572437" lon="7.494728400662302"><ele>189.5</ele><time>2026-03-28T06:34:02Z</time></trkpt><trkpt lat="48.55279323125717" lon="7.494672545544095"><ele>189.0</ele><time>2026-03-28T06:34:03Z</time></trkpt><trkpt lat="48.55265744095526" lon="7.494618808326004"><ele>188.5</ele><time>2026-03-28T06:34:04Z</time></trkpt><trkpt lat="48.55253388521006" lon="7.494569750539305"><ele>188.0</ele><time>2026-03-28T06:34:05Z</time></trkpt><trkpt lat="48.552421456225396" lon="7.494524592180487"><ele>188.2</ele><time>2026-03-28T06:34:06Z</time></trkpt><trkpt lat="48.55231742780327" lon="7.494483562168718"><ele>188.4</ele><time>2026-03-28T06:34:07Z</time></trkpt><trkpt lat="48.5522262247625" lon="7.494442625393215"><ele>188.6</ele><time>2026-03-28T06:34:08Z</time></trkpt><trkpt lat="48.55214548260193" lon="7.494396856612072"><ele>188.79999999999998</ele><time>2026-03-28T06:34:09Z</time></trkpt><trkpt lat="48.5520691354118" lon="7.4943423575594315"><ele>189.0</ele><time>2026-03-28T06:34:10Z</time></trkpt><trkpt lat="48.55200215348127" lon="7.494270764176929"><ele>189.0</ele><time>2026-03-28T06:34:11Z</time></trkpt><trkpt lat="48.55193798759573" lon="7.494191519403286"><ele>189.0</ele><time>2026-03-28T06:34:12Z</time></trkpt><trkpt lat="48.551864911924596" lon="7.494141342779109"><ele>189.0</ele><time>2026-03-28T06:34:13Z</time></trkpt><trkpt lat="48.55178322639413" lon="7.494125607687744"><ele>189.0</ele><time>2026-03-28T06:34:14Z</time></trkpt><trkpt lat="48.55169179780903" lon="7.494126660943415"><ele>189.0</ele><time>2026-03-28T06:34:15Z</time></trkpt><trkpt lat="48.55159163190217" lon="7.494111400745374"><ele>189.0</ele><time>2026-03-28T06:34:16Z</time></trkpt><trkpt lat="48.55148380640738" lon="7.494070576531093"><ele>189.0</ele><time>2026-03-28T06:34:17Z</time></trkpt><trkpt lat="48.55136908706313" lon="7.494006320073009"><ele>189.0</ele><time>2026-03-28T06:34:18Z</time></trkpt><trkpt lat="48.55125210151412" lon="7.493929018471271"><ele>189.0</ele><time>2026-03-28T06:34:19Z</time></trkpt><trkpt lat="48.55112415422547" lon="7.493848813013538"><ele>189.0</ele><time>2026-03-28T06:34:20Z</time></trkpt><trkpt lat="48.55100090675035" lon="7.493771733754164"><ele>190.0</ele><time>2026-03-28T06:34:21Z</time></trkpt><trkpt lat="48.55088035953434" lon="7.493694704480538"><ele>191.0</ele><time>2026-03-28T06:34:22Z</time></trkpt><trkpt lat="48.55075233616236" lon="7.493624768757567"><ele>192.0</ele><time>2026-03-28T06:34:23Z</time></trkpt><trkpt lat="48.5506184241654" lon="7.493561391485354"><ele>193.0</ele><time>2026-03-28T06:34:24Z</time></trkpt><trkpt lat="48.550479350201655" lon="7.493498807574996"><ele>194.66666666666666</ele><time>2026-03-28T06:34:25Z</time></trkpt><trkpt lat="48.5503330831215" lon="7.49344250120219"><ele>196.33333333333331</ele><time>2026-03-28T06:34:26Z</time></trkpt><trkpt lat="48.55018606693908" lon="7.493390543945536"><ele>198.0</ele><time>2026-03-28T06:34:27Z</time></trkpt><trkpt lat="48.550040618016546" lon="7.493342990311356"><ele>198.0</ele><time>2026-03-28T06:34:28Z</time></trkpt><trkpt lat="48.549890078227754" lon="7.493302132958083"><ele>198.0</ele><time>2026-03-28T06:34:29Z</time></trkpt><trkpt lat="48.54974695576264" lon="7.493261305667022"><ele>198.0</ele><time>2026-03-28T06:34:30Z</time></trkpt><trkpt lat="48.54960481153094" lon="7.493222189046578"><ele>198.0</ele><time>2026-03-28T06:34:31Z</time></trkpt><trkpt lat="48.549472698331456" lon="7.4931832635384135"><ele>198.0</ele><time>2026-03-28T06:34:32Z</time></trkpt><trkpt lat="48.549345758195706" lon="7.493142734816388"><ele>198.0</ele><time>2026-03-28T06:34:33Z</time></trkpt><trkpt lat="48.54921782293071" lon="7.493104118884491"><ele>198.0</ele><time>2026-03-28T06:34:34Z</time></trkpt><trkpt lat="48.549089081724055" lon="7.493064526131948"><ele>198.0</ele><time>2026-03-28T06:34:35Z</time></trkpt><trkpt lat="48.548963268313024" lon="7.493022008110306"><ele>198.0</ele><time>2026-03-28T06:34:36Z</time></trkpt><trkpt lat="48.54884144266389" lon="7.492978752097725"><ele>198.0</ele><time>2026-03-28T06:34:37Z</time></trkpt><trkpt lat="48.548718078258325" lon="7.4929366202970975"><ele>198.0</ele><time>2026-03-28T06:34:38Z</time></trkpt><trkpt lat="48.54859558641671" lon="7.49289454917769"><ele>198.0</ele><time>2026-03-28T06:34:39Z</time></trkpt><trkpt lat="48.54847474151307" lon="7.492845793542491"><ele>198.5</ele><time>2026-03-28T06:34:40Z</time></trkpt><trkpt lat="48.54835675592896" lon="7.492789358871469"><ele>199.0</ele><time>2026-03-28T06:34:41Z</time></trkpt><trkpt lat="48.54824310276736" lon="7.492732787765506"><ele>199.5</ele><time>2026-03-28T06:34:42Z</time></trkpt><trkpt lat="48.5481307976712" lon="7.492676616276211"><ele>200.0</ele><time>2026-03-28T06:34:43Z</time></trkpt><trkpt lat="48.548017239716366" lon="7.492620270755948"><ele>200.0</ele><time>2026-03-28T06:34:44Z</time></trkpt><trkpt lat="48.54790497879402" lon="7.492565973602846"><ele>200.0</ele><time>2026-03-28T06:34:45Z</time></trkpt><trkpt lat="48.547793752146944" lon="7.492510149504866"><ele>200.0</ele><time>2026-03-28T06:34:46Z</time></trkpt><trkpt lat="48.54768593429229" lon="7.492455290602627"><ele>200.0</ele><time>2026-03-28T06:34:47Z</time></trkpt><trkpt lat="48.54757840585616" lon="7.492403810850779"><ele>199.5</ele><time>2026-03-28T06:34:48Z</time></trkpt><trkpt lat="48.54747297444412" lon="7.492351149813053"><ele>199.0</ele><time>2026-03-28T06:34:49Z</time></trkpt><trkpt lat="48.54736248291795" lon="7.492299224813038"><ele>198.5</ele><time>2026-03-28T06:34:50Z</time></trkpt><trkpt lat="48.54725412821252" lon="7.492247649286282"><ele>198.0</ele><time>2026-03-28T06:34:51Z</time></trkpt><trkpt lat="48.547144110869915" lon="7.49219432819354"><ele>198.0</ele><time>2026-03-28T06:34:52Z</time></trkpt><trkpt lat="48.54703462161248" lon="7.492142661785078"><ele>198.0</ele><time>2026-03-28T06:34:53Z</time></trkpt><trkpt lat="48.5469287286875" lon="7.492091339932023"><ele>198.0</ele><time>2026-03-28T06:34:54Z</time></trkpt><trkpt lat="48.546820032149085" lon="7.492041386239273"><ele>198.0</ele><time>2026-03-28T06:34:55Z</time></trkpt><trkpt lat="48.54671339149008" lon="7.491991311622832"><ele>198.0</ele><time>2026-03-28T06:34:56Z</time></trkpt><trkpt lat="48.54660654275204" lon="7.491943456384555"><ele>198.0</ele><time>2026-03-28T06:34:57Z</time></trkpt><trkpt lat="48.54650560236821" lon="7.491895100043676"><ele>198.0</ele><time>2026-03-28T06:34:58Z</time></trkpt><trkpt lat="48.54640827182107" lon="7.491846635261256"><ele>198.0</ele><time>2026-03-28T06:34:59Z</time></trkpt><trkpt lat="48.546315268388874" lon="7.491793316116883"><ele>198.0</ele><time>2026-03-28T06:35:00Z</time></trkpt><trkpt lat="48.54622519065711" lon="7.491729319139078"><ele>196.33333333333334</ele><time>2026-03-28T06:35:01Z</time></trkpt><trkpt lat="48.546142213947256" lon="7.49165840272828"><ele>194.66666666666666</ele><time>2026-03-28T06:35:02Z</time></trkpt><trkpt lat="48.54606763703659" lon="7.491585569988605"><ele>193.0</ele><time>2026-03-28T06:35:03Z</time></trkpt><trkpt lat="48.54599647047528" lon="7.491513469184851"><ele>191.33333333333331</ele><time>2026-03-28T06:35:04Z</time></trkpt><trkpt lat="48.54593344837749" lon="7.491445257874644"><ele>189.66666666666666</ele><time>2026-03-28T06:35:05Z</time></trkpt><trkpt lat="48.54587535912764" lon="7.491388338131277"><ele>188.0</ele><time>2026-03-28T06:35:06Z</time></trkpt><trkpt lat="48.545812966045844" lon="7.491342108304197"><ele>188.0</ele><time>2026-03-28T06:35:07Z</time></trkpt><trkpt lat="48.54574193867739" lon="7.491315754725767"><ele>188.0</ele><time>2026-03-28T06:35:08Z</time></trkpt><trkpt lat="48.54566575717734" lon="7.491326605970513"><ele>188.0</ele><time>2026-03-28T06:35:09Z</time></trkpt><trkpt lat="48.54558402865012" lon="7.491373703738887"><ele>188.0</ele><time>2026-03-28T06:35:10Z</time></trkpt><trkpt lat="48.54550810072874" lon="7.491425063910696"><ele>188.0</ele><time>2026-03-28T06:35:11Z</time></trkpt><trkpt lat="48.54543189302366" lon="7.491475046385097"><ele>188.0</ele><time>2026-03-28T06:35:12Z</time></trkpt><trkpt lat="48.54535568881578" lon="7.491527284087705"><ele>187.16666666666666</ele><time>2026-03-28T06:35:13Z</time></trkpt><trkpt lat="48.54527753594829" lon="7.491572883282595"><ele>186.33333333333331</ele><time>2026-03-28T06:35:14Z</time></trkpt><trkpt lat="48.54519985412573" lon="7.491598291489277"><ele>185.5</ele><time>2026-03-28T06:35:15Z</time></trkpt><trkpt lat="48.54511650804211" lon="7.491607083858442"><ele>184.66666666666666</ele><time>2026-03-28T06:35:16Z</time></trkpt><trkpt lat="48.545041473996214" lon="7.491586143043617"><ele>183.83333333333334</ele><time>2026-03-28T06:35:17Z</time></trkpt><trkpt lat="48.54496282750917" lon="7.491530953462459"><ele>183.0</ele><time>2026-03-28T06:35:18Z</time></trkpt><trkpt lat="48.54489192181096" lon="7.4914486528202735"><ele>183.0</ele><time>2026-03-28T06:35:19Z</time></trkpt><trkpt lat="48.54482432636985" lon="7.491353025753735"><ele>183.0</ele><time>2026-03-28T06:35:20Z</time></trkpt><trkpt lat="48.54477068248492" lon="7.491250246080126"><ele>183.0</ele><time>2026-03-28T06:35:21Z</time></trkpt><trkpt lat="48.54471160347227" lon="7.491131170010697"><ele>183.0</ele><time>2026-03-28T06:35:22Z</time></trkpt><trkpt lat="48.54465479090264" lon="7.49100148443384"><ele>183.0</ele><time>2026-03-28T06:35:23Z</time></trkpt><trkpt lat="48.54460412354823" lon="7.4908722650276625"><ele>182.8</ele><time>2026-03-28T06:35:24Z</time></trkpt><trkpt lat="48.54455161641541" lon="7.490742063151645"><ele>182.60000000000002</ele><time>2026-03-28T06:35:25Z</time></trkpt><trkpt lat="48.54449459596598" lon="7.490620517915198"><ele>182.39999999999998</ele><time>2026-03-28T06:35:26Z</time></trkpt><trkpt lat="48.54442748349804" lon="7.4905094817795055"><ele>182.2</ele><time>2026-03-28T06:35:27Z</time></trkpt><trkpt lat="48.544350659660836" lon="7.490406863807898"><ele>182.0</ele><time>2026-03-28T06:35:28Z</time></trkpt><trkpt lat="48.544268447408115" lon="7.490308924569681"><ele>182.0</ele><time>2026-03-28T06:35:29Z</time></trkpt><trkpt lat="48.54418143961814" lon="7.490217675162324"><ele>182.0</ele><time>2026-03-28T06:35:30Z</time></trkpt><trkpt lat="48.54409820242421" lon="7.490122233137859"><ele>182.0</ele><time>2026-03-28T06:35:31Z</time></trkpt><trkpt lat="48.544014533057094" lon="7.4900306791173135"><ele>182.0</ele><time>2026-03-28T06:35:32Z</time></trkpt><trkpt lat="48.54392920424121" lon="7.4899377871099455"><ele>182.0</ele><time>2026-03-28T06:35:33Z</time></trkpt><trkpt lat="48.543841866969515" lon="7.489845555998351"><ele>182.0</ele><time>2026-03-28T06:35:34Z</time></trkpt><trkpt lat="48.543757852078" lon="7.489755268688236"><ele>182.0</ele><time>2026-03-28T06:35:35Z</time></trkpt><trkpt lat="48.54367253654691" lon="7.489665540215357"><ele>182.0</ele><time>2026-03-28T06:35:36Z</time></trkpt><trkpt lat="48.543583964868525" lon="7.489575280445504"><ele>182.0</ele><time>2026-03-28T06:35:37Z</time></trkpt><trkpt lat="48.543492112412736" lon="7.489492267557497"><ele>182.0</ele><time>2026-03-28T06:35:38Z</time></trkpt><trkpt lat="48.543402523662664" lon="7.489409682891253"><ele>182.2</ele><time>2026-03-28T06:35:39Z</time></trkpt><trkpt lat="48.5433133223393" lon="7.489328929398685"><ele>182.39999999999998</ele><time>2026-03-28T06:35:40Z</time></trkpt><trkpt lat="48.54321821409392" lon="7.489246618900872"><ele>182.60000000000002</ele><time>2026-03-28T06:35:41Z</time></trkpt><trkpt lat="48.54312661588437" lon="7.489164803037308"><ele>182.8</ele><time>2026-03-28T06:35:42Z</time></trkpt><trkpt lat="48.543036387973935" lon="7.489083791116781"><ele>183.0</ele><time>2026-03-28T06:35:43Z</time></trkpt><trkpt lat="48.54294074382224" lon="7.489006697288627"><ele>182.8</ele><time>2026-03-28T06:35:44Z</time></trkpt><trkpt lat="48.54285424713271" lon="7.488927419343007"><ele>182.60000000000002</ele><time>2026-03-28T06:35:45Z</time></trkpt><trkpt lat="48.5427632074299" lon="7.488847084368712"><ele>182.39999999999998</ele><time>2026-03-28T06:35:46Z</time></trkpt><trkpt lat="48.54267160248716" lon="7.488774007085333"><ele>182.2</ele><time>2026-03-28T06:35:47Z</time></trkpt><trkpt lat="48.542579461082546" lon="7.488698219898759"><ele>182.0</ele><time>2026-03-28T06:35:48Z</time></trkpt><trkpt lat="48.54249001048323" lon="7.48862694118129"><ele>181.8</ele><time>2026-03-28T06:35:49Z</time></trkpt><trkpt lat="48.54239771634398" lon="7.488561715286972"><ele>181.6</ele><time>2026-03-28T06:35:50Z</time></trkpt><trkpt lat="48.54230753665381" lon="7.488505720997074"><ele>181.4</ele><time>2026-03-28T06:35:51Z</time></trkpt><trkpt lat="48.54221189192473" lon="7.488456177885933"><ele>181.20000000000002</ele><time>2026-03-28T06:35:52Z</time></trkpt><trkpt lat="48.542116951631314" lon="7.488413890628874"><ele>181.0</ele><time>2026-03-28T06:35:53Z</time></trkpt><trkpt lat="48.542017616979784" lon="7.488374596546349"><ele>180.8</ele><time>2026-03-28T06:35:54Z</time></trkpt><trkpt lat="48.54192135543968" lon="7.4883374612978395"><ele>180.60000000000002</ele><time>2026-03-28T06:35:55Z</time></trkpt><trkpt lat="48.54182187800447" lon="7.488297143154032"><ele>180.4</ele><time>2026-03-28T06:35:56Z</time></trkpt><trkpt lat="48.541723635356746" lon="7.488253610273666"><ele>180.2</ele><time>2026-03-28T06:35:57Z</time></trkpt><trkpt lat="48.54162705119441" lon="7.4882094487438415"><ele>180.0</ele><time>2026-03-28T06:35:58Z</time></trkpt><trkpt lat="48.541531741587846" lon="7.488169118495296"><ele>180.0</ele><time>2026-03-28T06:35:59Z</time></trkpt><trkpt lat="48.54143984827982" lon="7.488139338026525"><ele>180.0</ele><time>2026-03-28T06:36:00Z</time></trkpt><trkpt lat="48.54134980339776" lon="7.4881334064775915"><ele>180.0</ele><time>2026-03-28T06:36:01Z</time></trkpt><trkpt lat="48.54125242386083" lon="7.488150672948015"><ele>180.0</ele><time>2026-03-28T06:36:02Z</time></trkpt><trkpt lat="48.54116026396607" lon="7.488189526167412"><ele>180.0</ele><time>2026-03-28T06:36:03Z</time></trkpt><trkpt lat="48.54107528513032" lon="7.488263979784786"><ele>180.0</ele><time>2026-03-28T06:36:04Z</time></trkpt><trkpt lat="48.54099868074888" lon="7.488347924961634"><ele>180.0</ele><time>2026-03-28T06:36:05Z</time></trkpt><trkpt lat="48.54092344619673" lon="7.488437863655735"><ele>180.0</ele><time>2026-03-28T06:36:06Z</time></trkpt><trkpt lat="48.54084723234246" lon="7.488531486756041"><ele>180.0</ele><time>2026-03-28T06:36:07Z</time></trkpt><trkpt lat="48.54077029225695" lon="7.488622102238225"><ele>180.0</ele><time>2026-03-28T06:36:08Z</time></trkpt><trkpt lat="48.54069402399444" lon="7.488714207575493"><ele>179.8</ele><time>2026-03-28T06:36:09Z</time></trkpt><trkpt lat="48.54062614102225" lon="7.488810178232695"><ele>179.6</ele><time>2026-03-28T06:36:10Z</time></trkpt><trkpt lat="48.54056465726615" lon="7.488915836559243"><ele>179.39999999999998</ele><time>2026-03-28T06:36:11Z</time></trkpt><trkpt lat="48.54050768933523" lon="7.489031504436467"><ele>179.2</ele><time>2026-03-28T06:36:12Z</time></trkpt><trkpt lat="48.54046020661637" lon="7.489147053202137"><ele>179.0</ele><time>2026-03-28T06:36:13Z</time></trkpt><trkpt lat="48.54042039418841" lon="7.489276532433716"><ele>179.0</ele><time>2026-03-28T06:36:14Z</time></trkpt><trkpt lat="48.54039260139374" lon="7.489410007870886"><ele>179.0</ele><time>2026-03-28T06:36:15Z</time></trkpt><trkpt lat="48.54037230489536" lon="7.4895493398279465"><ele>179.0</ele><time>2026-03-28T06:36:16Z</time></trkpt><trkpt lat="48.540360379467764" lon="7.489693351264393"><ele>179.0</ele><time>2026-03-28T06:36:17Z</time></trkpt><trkpt lat="48.54036119854818" lon="7.489842046313531"><ele>179.0</ele><time>2026-03-28T06:36:18Z</time></trkpt><trkpt lat="48.540366631244815" lon="7.48999078974304"><ele>179.0</ele><time>2026-03-28T06:36:19Z</time></trkpt><trkpt lat="48.54037030725563" lon="7.490137355914901"><ele>179.0</ele><time>2026-03-28T06:36:20Z</time></trkpt><trkpt lat="48.54037537094901" lon="7.49028388479811"><ele>179.0</ele><time>2026-03-28T06:36:21Z</time></trkpt><trkpt lat="48.54037535434765" lon="7.490435438307571"><ele>179.0</ele><time>2026-03-28T06:36:22Z</time></trkpt><trkpt lat="48.540373216426374" lon="7.490586139669435"><ele>179.0</ele><time>2026-03-28T06:36:23Z</time></trkpt><trkpt lat="48.54036385988018" lon="7.490733777762596"><ele>179.0</ele><time>2026-03-28T06:36:24Z</time></trkpt><trkpt lat="48.54034776285965" lon="7.4908818165781925"><ele>179.0</ele><time>2026-03-28T06:36:25Z</time></trkpt><trkpt lat="48.540327125730876" lon="7.491025551953422"><ele>179.0</ele><time>2026-03-28T06:36:26Z</time></trkpt><trkpt lat="48.540303015928" lon="7.4911690325063605"><ele>179.0</ele><time>2026-03-28T06:36:27Z</time></trkpt><trkpt lat="48.54027737064796" lon="7.491307696286331"><ele>179.0</ele><time>2026-03-28T06:36:28Z</time></trkpt><trkpt lat="48.54025416188416" lon="7.4914472402468295"><ele>179.16666666666666</ele><time>2026-03-28T06:36:29Z</time></trkpt><trkpt lat="48.540231486133095" lon="7.491577494536668"><ele>179.33333333333331</ele><time>2026-03-28T06:36:30Z</time></trkpt><trkpt lat="48.54020966709809" lon="7.491709667851039"><ele>179.5</ele><time>2026-03-28T06:36:31Z</time></trkpt><trkpt lat="48.540184795429305" lon="7.49184272990468"><ele>179.66666666666666</ele><time>2026-03-28T06:36:32Z</time></trkpt><trkpt lat="48.54015714390541" lon="7.49197015805149"><ele>179.83333333333334</ele><time>2026-03-28T06:36:33Z</time></trkpt><trkpt lat="48.540113879079314" lon="7.492088245322619"><ele>180.0</ele><time>2026-03-28T06:36:34Z</time></trkpt><trkpt lat="48.54006587868127" lon="7.4921931787423555"><ele>180.0</ele><time>2026-03-28T06:36:35Z</time></trkpt><trkpt lat="48.54001860508073" lon="7.492305992859749"><ele>180.0</ele><time>2026-03-28T06:36:36Z</time></trkpt><trkpt lat="48.53997845812597" lon="7.492428888582183"><ele>180.0</ele><time>2026-03-28T06:36:37Z</time></trkpt><trkpt lat="48.53994041275173" lon="7.492562389610635"><ele>180.0</ele><time>2026-03-28T06:36:38Z</time></trkpt><trkpt lat="48.53990877088691" lon="7.492701811461186"><ele>180.0</ele><time>2026-03-28T06:36:39Z</time></trkpt><trkpt lat="48.53987395330568" lon="7.492837605082347"><ele>179.6</ele><time>2026-03-28T06:36:40Z</time></trkpt><trkpt lat="48.53983472883934" lon="7.4929747775674835"><ele>179.2</ele><time>2026-03-28T06:36:41Z</time></trkpt><trkpt lat="48.53979499046747" lon="7.493113901522183"><ele>178.8</ele><time>2026-03-28T06:36:42Z</time></trkpt><trkpt lat="48.53975587112472" lon="7.493256076242046"><ele>178.4</ele><time>2026-03-28T06:36:43Z</time></trkpt><trkpt lat="48.53970720588527" lon="7.493403965405882"><ele>178.0</ele><time>2026-03-28T06:36:44Z</time></trkpt><trkpt lat="48.53966857589969" lon="7.4935526660996254"><ele>178.0</ele><time>2026-03-28T06:36:45Z</time></trkpt><trkpt lat="48.53962822950579" lon="7.4937015822409245"><ele>178.0</ele><time>2026-03-28T06:36:46Z</time></trkpt><trkpt lat="48.53959034647665" lon="7.493851751203685"><ele>178.0</ele><time>2026-03-28T06:36:47Z</time></trkpt><trkpt lat="48.539546472051285" lon="7.494003748418579"><ele>178.0</ele><time>2026-03-28T06:36:48Z</time></trkpt><trkpt lat="48.53949917943059" lon="7.494156223799297"><ele>178.0</ele><time>2026-03-28T06:36:49Z</time></trkpt><trkpt lat="48.53945876552101" lon="7.494308506884871"><ele>178.2</ele><time>2026-03-28T06:36:50Z</time></trkpt><trkpt lat="48.53940733538829" lon="7.494464705372159"><ele>178.4</ele><time>2026-03-28T06:36:51Z</time></trkpt><trkpt lat="48.53936143238154" lon="7.494617486751795"><ele>178.6</ele><time>2026-03-28T06:36:52Z</time></trkpt><trkpt lat="48.53931620522482" lon="7.4947717479881435"><ele>178.79999999999998</ele><time>2026-03-28T06:36:53Z</time></trkpt><trkpt lat="48.539268570420624" lon="7.494919876409841"><ele>179.0</ele><time>2026-03-28T06:36:54Z</time></trkpt><trkpt lat="48.53922516768738" lon="7.495074035718521"><ele>179.0</ele><time>2026-03-28T06:36:55Z</time></trkpt><trkpt lat="48.539180801284935" lon="7.495222948269427"><ele>179.0</ele><time>2026-03-28T06:36:56Z</time></trkpt><trkpt lat="48.53913680733107" lon="7.495379429086459"><ele>179.0</ele><time>2026-03-28T06:36:57Z</time></trkpt><trkpt lat="48.53909285938824" lon="7.495534557899905"><ele>179.0</ele><time>2026-03-28T06:36:58Z</time></trkpt><trkpt lat="48.53904816980962" lon="7.495688633872997"><ele>179.0</ele><time>2026-03-28T06:36:59Z</time></trkpt><trkpt lat="48.53900587153858" lon="7.495841043599762"><ele>178.6</ele><time>2026-03-28T06:37:00Z</time></trkpt><trkpt lat="48.538960215337404" lon="7.495992926763212"><ele>178.2</ele><time>2026-03-28T06:37:01Z</time></trkpt><trkpt lat="48.53891900365061" lon="7.496141919503112"><ele>177.79999999999998</ele><time>2026-03-28T06:37:02Z</time></trkpt><trkpt lat="48.5388731750087" lon="7.496298200161094"><ele>177.39999999999998</ele><time>2026-03-28T06:37:03Z</time></trkpt><trkpt lat="48.538827567023525" lon="7.496448353540236"><ele>177.0</ele><time>2026-03-28T06:37:04Z</time></trkpt><trkpt lat="48.53878400662378" lon="7.496596318909635"><ele>177.0</ele><time>2026-03-28T06:37:05Z</time></trkpt><trkpt lat="48.538743799999594" lon="7.496745723202894"><ele>177.0</ele><time>2026-03-28T06:37:06Z</time></trkpt><trkpt lat="48.53870813795534" lon="7.4968937045633215"><ele>177.0</ele><time>2026-03-28T06:37:07Z</time></trkpt><trkpt lat="48.53866933408104" lon="7.497043410981531"><ele>177.0</ele><time>2026-03-28T06:37:08Z</time></trkpt><trkpt lat="48.538630774180625" lon="7.497192717031578"><ele>177.0</ele><time>2026-03-28T06:37:09Z</time></trkpt><trkpt lat="48.538591602513236" lon="7.497332081862258"><ele>176.6</ele><time>2026-03-28T06:37:10Z</time></trkpt><trkpt lat="48.5385487141511" lon="7.497459895752456"><ele>176.2</ele><time>2026-03-28T06:37:11Z</time></trkpt><trkpt lat="48.53849096031757" lon="7.497575605955541"><ele>175.8</ele><time>2026-03-28T06:37:12Z</time></trkpt><trkpt lat="48.53842299027974" lon="7.497671592820201"><ele>175.4</ele><time>2026-03-28T06:37:13Z</time></trkpt><trkpt lat="48.53834627169278" lon="7.497756206642949"><ele>175.0</ele><time>2026-03-28T06:37:14Z</time></trkpt><trkpt lat="48.53827279548636" lon="7.497842027280009"><ele>175.16666666666669</ele><time>2026-03-28T06:37:15Z</time></trkpt><trkpt lat="48.5381989380207" lon="7.497929232897755"><ele>175.33333333333334</ele><time>2026-03-28T06:37:16Z</time></trkpt><trkpt lat="48.53813046559188" lon="7.498013652088973"><ele>175.5</ele><time>2026-03-28T06:37:17Z</time></trkpt><trkpt lat="48.53806455367496" lon="7.498098159208058"><ele>175.66666666666666</ele><time>2026-03-28T06:37:18Z</time></trkpt><trkpt lat="48.537996981955985" lon="7.498182273899904"><ele>175.83333333333331</ele><time>2026-03-28T06:37:19Z</time></trkpt><trkpt lat="48.537933767476666" lon="7.498265442705536"><ele>176.0</ele><time>2026-03-28T06:37:20Z</time></trkpt><trkpt lat="48.53787854825968" lon="7.498348958327658"><ele>176.0</ele><time>2026-03-28T06:37:21Z</time></trkpt><trkpt lat="48.53783549674173" lon="7.498427812789957"><ele>176.0</ele><time>2026-03-28T06:37:22Z</time></trkpt><trkpt lat="48.537775630878976" lon="7.498516929975936"><ele>176.0</ele><time>2026-03-28T06:37:24Z</time></trkpt><trkpt lat="48.537702913139825" lon="7.498637234922998"><ele>176.0</ele><time>2026-03-28T06:37:26Z</time></trkpt><trkpt lat="48.5376597506472" lon="7.498725546253679"><ele>176.0</ele><time>2026-03-28T06:37:27Z</time></trkpt><trkpt lat="48.537612245426736" lon="7.498815178059115"><ele>176.0</ele><time>2026-03-28T06:37:28Z</time></trkpt><trkpt lat="48.5375556661272" lon="7.498910163332064"><ele>176.0</ele><time>2026-03-28T06:37:29Z</time></trkpt><trkpt lat="48.53748828154757" lon="7.4989947319678985"><ele>176.0</ele><time>2026-03-28T06:37:30Z</time></trkpt><trkpt lat="48.53740994811294" lon="7.499068928697576"><ele>176.0</ele><time>2026-03-28T06:37:31Z</time></trkpt><trkpt lat="48.537325048212935" lon="7.499137931976182"><ele>176.0</ele><time>2026-03-28T06:37:32Z</time></trkpt><trkpt lat="48.537230980357386" lon="7.4991938051384475"><ele>176.0</ele><time>2026-03-28T06:37:33Z</time></trkpt><trkpt lat="48.53712734156171" lon="7.499236934649588"><ele>176.0</ele><time>2026-03-28T06:37:34Z</time></trkpt><trkpt lat="48.53701806566676" lon="7.499262333999256"><ele>176.0</ele><time>2026-03-28T06:37:35Z</time></trkpt><trkpt lat="48.53690879563095" lon="7.499288626210481"><ele>176.0</ele><time>2026-03-28T06:37:36Z</time></trkpt><trkpt lat="48.53680326404128" lon="7.499311959384172"><ele>176.0</ele><time>2026-03-28T06:37:37Z</time></trkpt><trkpt lat="48.536701201085485" lon="7.499333204770401"><ele>176.0</ele><time>2026-03-28T06:37:38Z</time></trkpt><trkpt lat="48.53660317605286" lon="7.4993466788701095"><ele>176.0</ele><time>2026-03-28T06:37:39Z</time></trkpt><trkpt lat="48.53651167426714" lon="7.499337123470005"><ele>176.0</ele><time>2026-03-28T06:37:40Z</time></trkpt><trkpt lat="48.536426778781916" lon="7.499297325736598"><ele>176.0</ele><time>2026-03-28T06:37:41Z</time></trkpt><trkpt lat="48.53634677743756" lon="7.4992389794624925"><ele>176.0</ele><time>2026-03-28T06:37:42Z</time></trkpt><trkpt lat="48.53627294922076" lon="7.499149528060821"><ele>176.0</ele><time>2026-03-28T06:37:43Z</time></trkpt><trkpt lat="48.53620251083786" lon="7.499044496770152"><ele>176.0</ele><time>2026-03-28T06:37:44Z</time></trkpt><trkpt lat="48.53613991964326" lon="7.498928827382107"><ele>176.0</ele><time>2026-03-28T06:37:45Z</time></trkpt><trkpt lat="48.53607762187712" lon="7.498820927580306"><ele>176.0</ele><time>2026-03-28T06:37:46Z</time></trkpt><trkpt lat="48.536004242091856" lon="7.498719282823428"><ele>176.0</ele><time>2026-03-28T06:37:47Z</time></trkpt><trkpt lat="48.535931753085876" lon="7.498613578215776"><ele>176.0</ele><time>2026-03-28T06:37:48Z</time></trkpt><trkpt lat="48.535856467496174" lon="7.498517728269204"><ele>176.0</ele><time>2026-03-28T06:37:49Z</time></trkpt><trkpt lat="48.535767275897086" lon="7.498442946817093"><ele>176.0</ele><time>2026-03-28T06:37:50Z</time></trkpt><trkpt lat="48.535680325410574" lon="7.498386817179855"><ele>176.0</ele><time>2026-03-28T06:37:51Z</time></trkpt><trkpt lat="48.53558009369928" lon="7.498356349765628"><ele>176.0</ele><time>2026-03-28T06:37:52Z</time></trkpt><trkpt lat="48.535478355614686" lon="7.498344031381729"><ele>176.0</ele><time>2026-03-28T06:37:53Z</time></trkpt><trkpt lat="48.53537194177412" lon="7.498332713982371"><ele>176.20000000000002</ele><time>2026-03-28T06:37:54Z</time></trkpt><trkpt lat="48.53525876585516" lon="7.49832704683657"><ele>176.4</ele><time>2026-03-28T06:37:55Z</time></trkpt><trkpt lat="48.5351532290184" lon="7.498311332589408"><ele>176.6</ele><time>2026-03-28T06:37:56Z</time></trkpt><trkpt lat="48.535049300815636" lon="7.498274377992756"><ele>176.8</ele><time>2026-03-28T06:37:57Z</time></trkpt><trkpt lat="48.534944400222955" lon="7.498221021286938"><ele>177.0</ele><time>2026-03-28T06:37:58Z</time></trkpt><trkpt lat="48.5348388043411" lon="7.498156344761157"><ele>177.0</ele><time>2026-03-28T06:37:59Z</time></trkpt><trkpt lat="48.534737278317614" lon="7.498096917679906"><ele>177.0</ele><time>2026-03-28T06:38:00Z</time></trkpt><trkpt lat="48.53463282825994" lon="7.498046534973426"><ele>177.0</ele><time>2026-03-28T06:38:01Z</time></trkpt><trkpt lat="48.534522948674834" lon="7.49800973688856"><ele>177.0</ele><time>2026-03-28T06:38:02Z</time></trkpt><trkpt lat="48.53440968217656" lon="7.497984558061818"><ele>177.0</ele><time>2026-03-28T06:38:03Z</time></trkpt><trkpt lat="48.53430308912803" lon="7.49796425387862"><ele>177.0</ele><time>2026-03-28T06:38:04Z</time></trkpt><trkpt lat="48.53420301662345" lon="7.497957063868061"><ele>177.0</ele><time>2026-03-28T06:38:05Z</time></trkpt><trkpt lat="48.53410244028682" lon="7.497950986042055"><ele>177.0</ele><time>2026-03-28T06:38:06Z</time></trkpt><trkpt lat="48.53400581251356" lon="7.497946510176631"><ele>177.0</ele><time>2026-03-28T06:38:07Z</time></trkpt><trkpt lat="48.5339165792033" lon="7.497941095089944"><ele>177.0</ele><time>2026-03-28T06:38:08Z</time></trkpt><trkpt lat="48.533828803472694" lon="7.497934331717738"><ele>177.0</ele><time>2026-03-28T06:38:09Z</time></trkpt><trkpt lat="48.53375013540219" lon="7.497927634677953"><ele>177.0</ele><time>2026-03-28T06:38:10Z</time></trkpt><trkpt lat="48.533674408920426" lon="7.497920487963831"><ele>177.0</ele><time>2026-03-28T06:38:11Z</time></trkpt><trkpt lat="48.533601628413486" lon="7.497912628434959"><ele>177.0</ele><time>2026-03-28T06:38:12Z</time></trkpt><trkpt lat="48.53352863226366" lon="7.4979067605363445"><ele>177.0</ele><time>2026-03-28T06:38:13Z</time></trkpt><trkpt lat="48.53345819471121" lon="7.497899609557341"><ele>177.0</ele><time>2026-03-28T06:38:14Z</time></trkpt><trkpt lat="48.53339162087387" lon="7.4978924062355565"><ele>177.0</ele><time>2026-03-28T06:38:15Z</time></trkpt><trkpt lat="48.533324888173645" lon="7.497885146577058"><ele>176.83333333333334</ele><time>2026-03-28T06:38:16Z</time></trkpt><trkpt lat="48.53325990639314" lon="7.4978787179813615"><ele>176.66666666666666</ele><time>2026-03-28T06:38:17Z</time></trkpt><trkpt lat="48.53316352597935" lon="7.497870336425286"><ele>176.5</ele><time>2026-03-28T06:38:19Z</time></trkpt><trkpt lat="48.5331004479624" lon="7.497854850632381"><ele>176.33333333333331</ele><time>2026-03-28T06:38:32Z</time></trkpt><trkpt lat="48.533031032867164" lon="7.497847945079689"><ele>176.16666666666666</ele><time>2026-03-28T06:38:34Z</time></trkpt><trkpt lat="48.53293525065329" lon="7.4978373375317435"><ele>176.0</ele><time>2026-03-28T06:38:36Z</time></trkpt><trkpt lat="48.532799919545006" lon="7.497819850645004"><ele>176.0</ele><time>2026-03-28T06:38:38Z</time></trkpt><trkpt lat="48.53271309334903" lon="7.497808841250025"><ele>176.0</ele><time>2026-03-28T06:38:39Z</time></trkpt><trkpt lat="48.53263028716708" lon="7.497797386214674"><ele>176.0</ele><time>2026-03-28T06:38:40Z</time></trkpt><trkpt lat="48.532541997453855" lon="7.497783775967372"><ele>176.0</ele><time>2026-03-28T06:38:41Z</time></trkpt><trkpt lat="48.53244936804343" lon="7.497768726945589"><ele>176.0</ele><time>2026-03-28T06:38:42Z</time></trkpt><trkpt lat="48.53234301368737" lon="7.497749765520712"><ele>176.0</ele><time>2026-03-28T06:38:43Z</time></trkpt><trkpt lat="48.53223800968798" lon="7.497722374498411"><ele>176.0</ele><time>2026-03-28T06:38:44Z</time></trkpt><trkpt lat="48.532127072160705" lon="7.497689874231406"><ele>176.0</ele><time>2026-03-28T06:38:45Z</time></trkpt><trkpt lat="48.5320167842675" lon="7.497655750794584"><ele>176.0</ele><time>2026-03-28T06:38:46Z</time></trkpt><trkpt lat="48.53191023352252" lon="7.497620690599371"><ele>176.0</ele><time>2026-03-28T06:38:47Z</time></trkpt><trkpt lat="48.53181110850951" lon="7.497591977067479"><ele>176.4</ele><time>2026-03-28T06:38:48Z</time></trkpt><trkpt lat="48.5317076857704" lon="7.497556566215367"><ele>176.8</ele><time>2026-03-28T06:38:49Z</time></trkpt><trkpt lat="48.531603551978144" lon="7.497518733673919"><ele>177.20000000000002</ele><time>2026-03-28T06:38:50Z</time></trkpt><trkpt lat="48.53149729994728" lon="7.497483465180761"><ele>177.60000000000002</ele><time>2026-03-28T06:38:51Z</time></trkpt><trkpt lat="48.53139083670613" lon="7.497450977704458"><ele>178.0</ele><time>2026-03-28T06:38:52Z</time></trkpt><trkpt lat="48.531283175790136" lon="7.497432690099591"><ele>178.0</ele><time>2026-03-28T06:38:53Z</time></trkpt><trkpt lat="48.53117256051054" lon="7.497426041918807"><ele>178.0</ele><time>2026-03-28T06:38:54Z</time></trkpt><trkpt lat="48.531064171575565" lon="7.49743640773981"><ele>178.0</ele><time>2026-03-28T06:38:55Z</time></trkpt><trkpt lat="48.53095225414754" lon="7.497458482062032"><ele>178.0</ele><time>2026-03-28T06:38:56Z</time></trkpt><trkpt lat="48.5308451069987" lon="7.497496850050988"><ele>178.0</ele><time>2026-03-28T06:38:57Z</time></trkpt><trkpt lat="48.53074291435171" lon="7.497553960454485"><ele>178.0</ele><time>2026-03-28T06:38:58Z</time></trkpt><trkpt lat="48.53064158534753" lon="7.497629713972723"><ele>178.0</ele><time>2026-03-28T06:38:59Z</time></trkpt><trkpt lat="48.53053713153433" lon="7.4976948879846805"><ele>178.0</ele><time>2026-03-28T06:39:00Z</time></trkpt><trkpt lat="48.53042810798078" lon="7.497748385054546"><ele>178.0</ele><time>2026-03-28T06:39:01Z</time></trkpt><trkpt lat="48.53031500703723" lon="7.497785042661975"><ele>178.75</ele><time>2026-03-28T06:39:02Z</time></trkpt><trkpt lat="48.53020114775919" lon="7.497804455828531"><ele>179.5</ele><time>2026-03-28T06:39:03Z</time></trkpt><trkpt lat="48.530081949699245" lon="7.497813028660333"><ele>180.25</ele><time>2026-03-28T06:39:04Z</time></trkpt><trkpt lat="48.529970894002716" lon="7.497830652328184"><ele>181.0</ele><time>2026-03-28T06:39:05Z</time></trkpt><trkpt lat="48.52985066678528" lon="7.497854187772652"><ele>181.0</ele><time>2026-03-28T06:39:06Z</time></trkpt><trkpt lat="48.529734920410064" lon="7.497878868623334"><ele>181.0</ele><time>2026-03-28T06:39:07Z</time></trkpt><trkpt lat="48.52961693359743" lon="7.4979066972057"><ele>181.0</ele><time>2026-03-28T06:39:08Z</time></trkpt><trkpt lat="48.52949519100185" lon="7.497933370222526"><ele>181.0</ele><time>2026-03-28T06:39:09Z</time></trkpt><trkpt lat="48.52937616702153" lon="7.497956233578052"><ele>180.5</ele><time>2026-03-28T06:39:10Z</time></trkpt><trkpt lat="48.52925932832565" lon="7.497984431813711"><ele>180.0</ele><time>2026-03-28T06:39:11Z</time></trkpt><trkpt lat="48.529135627102065" lon="7.498011276337595"><ele>179.5</ele><time>2026-03-28T06:39:12Z</time></trkpt><trkpt lat="48.52901415272863" lon="7.498044400336854"><ele>179.0</ele><time>2026-03-28T06:39:13Z</time></trkpt><trkpt lat="48.528896961481564" lon="7.498079502421128"><ele>179.0</ele><time>2026-03-28T06:39:14Z</time></trkpt><trkpt lat="48.528782158885235" lon="7.498116821517452"><ele>179.0</ele><time>2026-03-28T06:39:15Z</time></trkpt><trkpt lat="48.52866667991195" lon="7.498150189176149"><ele>179.0</ele><time>2026-03-28T06:39:16Z</time></trkpt><trkpt lat="48.52854837815858" lon="7.498181867976898"><ele>179.0</ele><time>2026-03-28T06:39:17Z</time></trkpt><trkpt lat="48.52842877577588" lon="7.498214989427091"><ele>178.5</ele><time>2026-03-28T06:39:18Z</time></trkpt><trkpt lat="48.528311970849735" lon="7.498244242087052"><ele>178.0</ele><time>2026-03-28T06:39:19Z</time></trkpt><trkpt lat="48.528195155023894" lon="7.498272677442705"><ele>177.5</ele><time>2026-03-28T06:39:20Z</time></trkpt><trkpt lat="48.52807438907371" lon="7.498301858692017"><ele>177.0</ele><time>2026-03-28T06:39:21Z</time></trkpt><trkpt lat="48.52795130269104" lon="7.498331066653933"><ele>177.5</ele><time>2026-03-28T06:39:22Z</time></trkpt><trkpt lat="48.52782841774093" lon="7.498358606165639"><ele>178.0</ele><time>2026-03-28T06:39:23Z</time></trkpt><trkpt lat="48.52770742252" lon="7.498381081710139"><ele>178.5</ele><time>2026-03-28T06:39:24Z</time></trkpt><trkpt lat="48.5275839825639" lon="7.498394831665672"><ele>179.0</ele><time>2026-03-28T06:39:25Z</time></trkpt><trkpt lat="48.52745746560601" lon="7.49839989173755"><ele>179.0</ele><time>2026-03-28T06:39:26Z</time></trkpt><trkpt lat="48.52733468551651" lon="7.4983956912178265"><ele>179.0</ele><time>2026-03-28T06:39:27Z</time></trkpt><trkpt lat="48.52720747953094" lon="7.498395815393028"><ele>179.0</ele><time>2026-03-28T06:39:28Z</time></trkpt><trkpt lat="48.52708254213452" lon="7.498391116413152"><ele>179.0</ele><time>2026-03-28T06:39:29Z</time></trkpt><trkpt lat="48.52695928091308" lon="7.498385123046209"><ele>179.0</ele><time>2026-03-28T06:39:30Z</time></trkpt><trkpt lat="48.52683677766694" lon="7.498381105803413"><ele>179.0</ele><time>2026-03-28T06:39:31Z</time></trkpt><trkpt lat="48.52672071775703" lon="7.498377985027703"><ele>179.0</ele><time>2026-03-28T06:39:32Z</time></trkpt><trkpt lat="48.52660573775058" lon="7.498376315538476"><ele>179.0</ele><time>2026-03-28T06:39:33Z</time></trkpt><trkpt lat="48.52649112240246" lon="7.498371114909458"><ele>179.0</ele><time>2026-03-28T06:39:34Z</time></trkpt><trkpt lat="48.52637351911332" lon="7.498364512195407"><ele>179.0</ele><time>2026-03-28T06:39:35Z</time></trkpt><trkpt lat="48.526258464135296" lon="7.498360454105883"><ele>179.0</ele><time>2026-03-28T06:39:36Z</time></trkpt><trkpt lat="48.52614580439307" lon="7.498356433925862"><ele>179.0</ele><time>2026-03-28T06:39:37Z</time></trkpt><trkpt lat="48.526035589931695" lon="7.498355119131884"><ele>179.0</ele><time>2026-03-28T06:39:38Z</time></trkpt><trkpt lat="48.52592183363086" lon="7.498354086043533"><ele>179.0</ele><time>2026-03-28T06:39:39Z</time></trkpt><trkpt lat="48.52580195809942" lon="7.498350152724623"><ele>179.0</ele><time>2026-03-28T06:39:40Z</time></trkpt><trkpt lat="48.52568231857043" lon="7.498342076751158"><ele>179.0</ele><time>2026-03-28T06:39:41Z</time></trkpt><trkpt lat="48.52556139649984" lon="7.498333822740293"><ele>179.0</ele><time>2026-03-28T06:39:42Z</time></trkpt><trkpt lat="48.52544087216364" lon="7.498320539691076"><ele>179.0</ele><time>2026-03-28T06:39:43Z</time></trkpt><trkpt lat="48.52531622232069" lon="7.498309665277048"><ele>179.0</ele><time>2026-03-28T06:39:44Z</time></trkpt><trkpt lat="48.525192889706695" lon="7.4982926058104375"><ele>179.0</ele><time>2026-03-28T06:39:45Z</time></trkpt><trkpt lat="48.52507143772481" lon="7.498274406030378"><ele>178.6</ele><time>2026-03-28T06:39:46Z</time></trkpt><trkpt lat="48.52495720721268" lon="7.49825419409834"><ele>178.2</ele><time>2026-03-28T06:39:47Z</time></trkpt><trkpt lat="48.52484354176416" lon="7.498231261476107"><ele>177.79999999999998</ele><time>2026-03-28T06:39:48Z</time></trkpt><trkpt lat="48.524734024274466" lon="7.498201825442634"><ele>177.39999999999998</ele><time>2026-03-28T06:39:49Z</time></trkpt><trkpt lat="48.52462890568882" lon="7.498162999882133"><ele>177.0</ele><time>2026-03-28T06:39:50Z</time></trkpt><trkpt lat="48.52452761463906" lon="7.498119766531936"><ele>177.0</ele><time>2026-03-28T06:39:51Z</time></trkpt><trkpt lat="48.52442027358985" lon="7.4981059735402225"><ele>177.0</ele><time>2026-03-28T06:39:52Z</time></trkpt><trkpt lat="48.52432091304501" lon="7.498071210044907"><ele>177.0</ele><time>2026-03-28T06:39:53Z</time></trkpt><trkpt lat="48.52423147445372" lon="7.49803990116175"><ele>177.0</ele><time>2026-03-28T06:39:54Z</time></trkpt><trkpt lat="48.524154233594125" lon="7.498012832082493"><ele>177.0</ele><time>2026-03-28T06:39:55Z</time></trkpt><trkpt lat="48.524084039880734" lon="7.497986272239235"><ele>177.0</ele><time>2026-03-28T06:39:56Z</time></trkpt><trkpt lat="48.524016627231376" lon="7.497959706242968"><ele>177.0</ele><time>2026-03-28T06:39:57Z</time></trkpt><trkpt lat="48.523951300217405" lon="7.497929542131786"><ele>177.0</ele><time>2026-03-28T06:39:58Z</time></trkpt><trkpt lat="48.523899349254464" lon="7.49785104013914"><ele>177.0</ele><time>2026-03-28T06:39:59Z</time></trkpt><trkpt lat="48.52384843425365" lon="7.497773127903333"><ele>177.0</ele><time>2026-03-28T06:40:00Z</time></trkpt><trkpt lat="48.52379876256307" lon="7.4977016361361635"><ele>177.0</ele><time>2026-03-28T06:40:01Z</time></trkpt><trkpt lat="48.523740902390266" lon="7.497653007819567"><ele>177.0</ele><time>2026-03-28T06:40:02Z</time></trkpt><trkpt lat="48.52367605013469" lon="7.497642384336087"><ele>177.2</ele><time>2026-03-28T06:40:03Z</time></trkpt><trkpt lat="48.52359942991246" lon="7.49766728865779"><ele>177.39999999999998</ele><time>2026-03-28T06:40:04Z</time></trkpt><trkpt lat="48.52351777186772" lon="7.497703617251385"><ele>177.60000000000002</ele><time>2026-03-28T06:40:05Z</time></trkpt><trkpt lat="48.523429676204934" lon="7.497724262337879"><ele>177.8</ele><time>2026-03-28T06:40:06Z</time></trkpt><trkpt lat="48.523332816344734" lon="7.4977157040458415"><ele>178.0</ele><time>2026-03-28T06:40:07Z</time></trkpt><trkpt lat="48.523220748623054" lon="7.497697976100075"><ele>178.0</ele><time>2026-03-28T06:40:08Z</time></trkpt><trkpt lat="48.523097370722915" lon="7.497675314692074"><ele>178.0</ele><time>2026-03-28T06:40:09Z</time></trkpt><trkpt lat="48.5229631761112" lon="7.49765779983962"><ele>178.0</ele><time>2026-03-28T06:40:10Z</time></trkpt><trkpt lat="48.522823899009246" lon="7.49763780331377"><ele>178.0</ele><time>2026-03-28T06:40:11Z</time></trkpt><trkpt lat="48.52268134019336" lon="7.497618781283464"><ele>177.33333333333334</ele><time>2026-03-28T06:40:12Z</time></trkpt><trkpt lat="48.52253144554578" lon="7.4976006566052655"><ele>176.66666666666666</ele><time>2026-03-28T06:40:13Z</time></trkpt><trkpt lat="48.52237812333559" lon="7.497590505766029"><ele>176.0</ele><time>2026-03-28T06:40:14Z</time></trkpt><trkpt lat="48.52221880592146" lon="7.497583599778072"><ele>176.33333333333331</ele><time>2026-03-28T06:40:15Z</time></trkpt><trkpt lat="48.522053282180764" lon="7.497580873360809"><ele>176.66666666666666</ele><time>2026-03-28T06:40:16Z</time></trkpt><trkpt lat="48.5218785074312" lon="7.497580788013789"><ele>177.0</ele><time>2026-03-28T06:40:17Z</time></trkpt><trkpt lat="48.52169700799334" lon="7.497578860825336"><ele>177.0</ele><time>2026-03-28T06:40:18Z</time></trkpt><trkpt lat="48.52150780019336" lon="7.497578284839768"><ele>177.0</ele><time>2026-03-28T06:40:19Z</time></trkpt><trkpt lat="48.52131574770546" lon="7.497579397847519"><ele>177.0</ele><time>2026-03-28T06:40:20Z</time></trkpt><trkpt lat="48.52113067346161" lon="7.497578918688453"><ele>178.0</ele><time>2026-03-28T06:40:21Z</time></trkpt><trkpt lat="48.52093586897218" lon="7.497576447648793"><ele>179.0</ele><time>2026-03-28T06:40:22Z</time></trkpt><trkpt lat="48.520738277580165" lon="7.497573147973243"><ele>180.0</ele><time>2026-03-28T06:40:23Z</time></trkpt><trkpt lat="48.52053454961735" lon="7.4975672676694884"><ele>181.33333333333334</ele><time>2026-03-28T06:40:24Z</time></trkpt><trkpt lat="48.520327834159716" lon="7.497559755959474"><ele>182.66666666666669</ele><time>2026-03-28T06:40:25Z</time></trkpt><trkpt lat="48.520115239241406" lon="7.497553285998504"><ele>184.0</ele><time>2026-03-28T06:40:26Z</time></trkpt><trkpt lat="48.51989968860785" lon="7.497546741251786"><ele>184.0</ele><time>2026-03-28T06:40:27Z</time></trkpt><trkpt lat="48.51968158322266" lon="7.497541958726268"><ele>184.0</ele><time>2026-03-28T06:40:28Z</time></trkpt><trkpt lat="48.5194639428562" lon="7.497535998670729"><ele>184.0</ele><time>2026-03-28T06:40:29Z</time></trkpt><trkpt lat="48.51923651969414" lon="7.4975336531350205"><ele>184.0</ele><time>2026-03-28T06:40:30Z</time></trkpt><trkpt lat="48.51901334264207" lon="7.4975256952426905"><ele>184.0</ele><time>2026-03-28T06:40:31Z</time></trkpt><trkpt lat="48.518788924728796" lon="7.497522506317203"><ele>184.0</ele><time>2026-03-28T06:40:32Z</time></trkpt><trkpt lat="48.51855803493831" lon="7.497513462695981"><ele>183.0</ele><time>2026-03-28T06:40:33Z</time></trkpt><trkpt lat="48.518330886236065" lon="7.497506569070534"><ele>182.0</ele><time>2026-03-28T06:40:34Z</time></trkpt><trkpt lat="48.518097718013024" lon="7.497497911383429"><ele>182.0</ele><time>2026-03-28T06:40:35Z</time></trkpt><trkpt lat="48.51786461266053" lon="7.497490490563368"><ele>182.0</ele><time>2026-03-28T06:40:36Z</time></trkpt><trkpt lat="48.51763180843431" lon="7.497479563148482"><ele>182.0</ele><time>2026-03-28T06:40:37Z</time></trkpt><trkpt lat="48.517399456215564" lon="7.497473864872927"><ele>182.0</ele><time>2026-03-28T06:40:38Z</time></trkpt><trkpt lat="48.517167826854866" lon="7.497467090749879"><ele>182.5</ele><time>2026-03-28T06:40:39Z</time></trkpt><trkpt lat="48.51693379356012" lon="7.497459515056196"><ele>183.0</ele><time>2026-03-28T06:40:40Z</time></trkpt><trkpt lat="48.51670198543321" lon="7.497452013324298"><ele>183.0</ele><time>2026-03-28T06:40:41Z</time></trkpt><trkpt lat="48.516471205957814" lon="7.497444703614691"><ele>183.0</ele><time>2026-03-28T06:40:42Z</time></trkpt><trkpt lat="48.51623753884906" lon="7.4974394532575275"><ele>183.5</ele><time>2026-03-28T06:40:43Z</time></trkpt><trkpt lat="48.516008214917285" lon="7.4974309744530645"><ele>184.0</ele><time>2026-03-28T06:40:44Z</time></trkpt><trkpt lat="48.51577799699406" lon="7.497422144634173"><ele>184.0</ele><time>2026-03-28T06:40:45Z</time></trkpt><trkpt lat="48.515544789203844" lon="7.497413248135076"><ele>184.0</ele><time>2026-03-28T06:40:46Z</time></trkpt><trkpt lat="48.51530913782665" lon="7.4974045288902875"><ele>184.5</ele><time>2026-03-28T06:40:47Z</time></trkpt><trkpt lat="48.51507241099673" lon="7.497393996343167"><ele>185.0</ele><time>2026-03-28T06:40:48Z</time></trkpt><trkpt lat="48.51483435552691" lon="7.4973823410154194"><ele>185.0</ele><time>2026-03-28T06:40:49Z</time></trkpt><trkpt lat="48.51459400439532" lon="7.497370361047659"><ele>185.0</ele><time>2026-03-28T06:40:50Z</time></trkpt><trkpt lat="48.51435223516824" lon="7.497361421575356"><ele>185.5</ele><time>2026-03-28T06:40:51Z</time></trkpt><trkpt lat="48.51411193178184" lon="7.4973546994529405"><ele>186.0</ele><time>2026-03-28T06:40:52Z</time></trkpt><trkpt lat="48.51386889609356" lon="7.497345485521088"><ele>187.0</ele><time>2026-03-28T06:40:53Z</time></trkpt><trkpt lat="48.51362454971656" lon="7.497334949805961"><ele>188.0</ele><time>2026-03-28T06:40:54Z</time></trkpt><trkpt lat="48.513378617109495" lon="7.497324861688605"><ele>188.0</ele><time>2026-03-28T06:40:55Z</time></trkpt><trkpt lat="48.51313067266337" lon="7.497316467125256"><ele>188.0</ele><time>2026-03-28T06:40:56Z</time></trkpt><trkpt lat="48.512879476931225" lon="7.49730838571819"><ele>188.0</ele><time>2026-03-28T06:40:57Z</time></trkpt><trkpt lat="48.51262859780611" lon="7.497298827719755"><ele>188.0</ele><time>2026-03-28T06:40:58Z</time></trkpt><trkpt lat="48.51237588003496" lon="7.497287741072694"><ele>188.0</ele><time>2026-03-28T06:40:59Z</time></trkpt><trkpt lat="48.51212492249994" lon="7.497277835150537"><ele>188.0</ele><time>2026-03-28T06:41:00Z</time></trkpt><trkpt lat="48.511871624864284" lon="7.497270741473734"><ele>188.5</ele><time>2026-03-28T06:41:01Z</time></trkpt><trkpt lat="48.51161960608473" lon="7.49726198263444"><ele>189.0</ele><time>2026-03-28T06:41:02Z</time></trkpt><trkpt lat="48.51136552998376" lon="7.497254754658698"><ele>188.5</ele><time>2026-03-28T06:41:03Z</time></trkpt><trkpt lat="48.51111002160615" lon="7.497245622968606"><ele>188.0</ele><time>2026-03-28T06:41:04Z</time></trkpt><trkpt lat="48.510852345203396" lon="7.497236303642822"><ele>188.0</ele><time>2026-03-28T06:41:05Z</time></trkpt><trkpt lat="48.51059936291176" lon="7.4972255518672855"><ele>188.0</ele><time>2026-03-28T06:41:06Z</time></trkpt><trkpt lat="48.51034253463311" lon="7.497218833264998"><ele>189.0</ele><time>2026-03-28T06:41:07Z</time></trkpt><trkpt lat="48.510081021448855" lon="7.497210363505275"><ele>190.0</ele><time>2026-03-28T06:41:08Z</time></trkpt><trkpt lat="48.50982356720423" lon="7.4972013489447695"><ele>189.5</ele><time>2026-03-28T06:41:09Z</time></trkpt><trkpt lat="48.50956716575806" lon="7.49719274911916"><ele>189.0</ele><time>2026-03-28T06:41:10Z</time></trkpt><trkpt lat="48.50931138773297" lon="7.4971831510498"><ele>189.0</ele><time>2026-03-28T06:41:11Z</time></trkpt><trkpt lat="48.50905686335637" lon="7.497172992345753"><ele>189.0</ele><time>2026-03-28T06:41:12Z</time></trkpt><trkpt lat="48.50880182250598" lon="7.4971666170898175"><ele>190.5</ele><time>2026-03-28T06:41:13Z</time></trkpt><trkpt lat="48.50854730335421" lon="7.497162382890645"><ele>192.0</ele><time>2026-03-28T06:41:14Z</time></trkpt><trkpt lat="48.50829101189491" lon="7.497156921791546"><ele>192.0</ele><time>2026-03-28T06:41:15Z</time></trkpt><trkpt lat="48.50803764261135" lon="7.497157077631392"><ele>192.0</ele><time>2026-03-28T06:41:16Z</time></trkpt><trkpt lat="48.507784706434286" lon="7.497168180160785"><ele>190.0</ele><time>2026-03-28T06:41:17Z</time></trkpt><trkpt lat="48.507532822964144" lon="7.497196127597126"><ele>188.0</ele><time>2026-03-28T06:41:18Z</time></trkpt><trkpt lat="48.507282849766234" lon="7.497238714612247"><ele>188.0</ele><time>2026-03-28T06:41:19Z</time></trkpt><trkpt lat="48.507035866385195" lon="7.497302571261658"><ele>188.0</ele><time>2026-03-28T06:41:20Z</time></trkpt><trkpt lat="48.50678833393806" lon="7.497384482591621"><ele>188.0</ele><time>2026-03-28T06:41:21Z</time></trkpt><trkpt lat="48.5065432123404" lon="7.497485210243472"><ele>188.0</ele><time>2026-03-28T06:41:22Z</time></trkpt><trkpt lat="48.50630183373404" lon="7.497606084681731"><ele>187.0</ele><time>2026-03-28T06:41:23Z</time></trkpt><trkpt lat="48.50606669905747" lon="7.497748303848833"><ele>186.0</ele><time>2026-03-28T06:41:24Z</time></trkpt><trkpt lat="48.50583290783328" lon="7.497914638067541"><ele>186.0</ele><time>2026-03-28T06:41:25Z</time></trkpt><trkpt lat="48.505609102764396" lon="7.49809662394489"><ele>186.0</ele><time>2026-03-28T06:41:26Z</time></trkpt><trkpt lat="48.505390343743386" lon="7.4982992948005025"><ele>186.0</ele><time>2026-03-28T06:41:27Z</time></trkpt><trkpt lat="48.50517783493093" lon="7.498519558076037"><ele>186.0</ele><time>2026-03-28T06:41:28Z</time></trkpt><trkpt lat="48.50497400863924" lon="7.49875959578846"><ele>185.5</ele><time>2026-03-28T06:41:29Z</time></trkpt><trkpt lat="48.504775525265536" lon="7.499014483295947"><ele>185.0</ele><time>2026-03-28T06:41:30Z</time></trkpt><trkpt lat="48.504585032520666" lon="7.499276334154117"><ele>185.0</ele><time>2026-03-28T06:41:31Z</time></trkpt><trkpt lat="48.5043944992355" lon="7.499542140473744"><ele>185.0</ele><time>2026-03-28T06:41:32Z</time></trkpt><trkpt lat="48.50420280360165" lon="7.4998086337689545"><ele>185.5</ele><time>2026-03-28T06:41:33Z</time></trkpt><trkpt lat="48.50400866591399" lon="7.500072502101096"><ele>186.0</ele><time>2026-03-28T06:41:34Z</time></trkpt><trkpt lat="48.50381123508754" lon="7.5003294254221196"><ele>183.5</ele><time>2026-03-28T06:41:35Z</time></trkpt><trkpt lat="48.50360389135191" lon="7.500573804932768"><ele>181.0</ele><time>2026-03-28T06:41:36Z</time></trkpt><trkpt lat="48.50338908426711" lon="7.50080312858072"><ele>181.0</ele><time>2026-03-28T06:41:37Z</time></trkpt><trkpt lat="48.503165034147266" lon="7.501017653250932"><ele>181.0</ele><time>2026-03-28T06:41:38Z</time></trkpt><trkpt lat="48.50293765106878" lon="7.501219343368516"><ele>180.5</ele><time>2026-03-28T06:41:39Z</time></trkpt><trkpt lat="48.50270491776836" lon="7.501408121403465"><ele>180.0</ele><time>2026-03-28T06:41:40Z</time></trkpt><trkpt lat="48.502468615382845" lon="7.50159252628967"><ele>180.0</ele><time>2026-03-28T06:41:41Z</time></trkpt><trkpt lat="48.50223065957148" lon="7.501778131549269"><ele>180.0</ele><time>2026-03-28T06:41:42Z</time></trkpt><trkpt lat="48.50199201986452" lon="7.501962305130422"><ele>179.5</ele><time>2026-03-28T06:41:43Z</time></trkpt><trkpt lat="48.501751491498226" lon="7.502149874046713"><ele>179.0</ele><time>2026-03-28T06:41:44Z</time></trkpt><trkpt lat="48.501510643691226" lon="7.502336592582795"><ele>179.0</ele><time>2026-03-28T06:41:45Z</time></trkpt><trkpt lat="48.501271457924176" lon="7.502524925944351"><ele>179.0</ele><time>2026-03-28T06:41:46Z</time></trkpt><trkpt lat="48.50103440359821" lon="7.5027143282218"><ele>178.5</ele><time>2026-03-28T06:41:47Z</time></trkpt><trkpt lat="48.50079062413402" lon="7.502899283702395"><ele>178.0</ele><time>2026-03-28T06:41:48Z</time></trkpt><trkpt lat="48.50055288430881" lon="7.503085044407167"><ele>175.5</ele><time>2026-03-28T06:41:49Z</time></trkpt><trkpt lat="48.500312081610836" lon="7.503270395281936"><ele>173.0</ele><time>2026-03-28T06:41:50Z</time></trkpt><trkpt lat="48.50007445145802" lon="7.503450196927676"><ele>173.0</ele><time>2026-03-28T06:41:51Z</time></trkpt><trkpt lat="48.49983389655856" lon="7.503627895927806"><ele>173.0</ele><time>2026-03-28T06:41:52Z</time></trkpt><trkpt lat="48.499593575786605" lon="7.503798027124773"><ele>174.0</ele><time>2026-03-28T06:41:53Z</time></trkpt><trkpt lat="48.499350010364964" lon="7.50395875853632"><ele>175.0</ele><time>2026-03-28T06:41:54Z</time></trkpt><trkpt lat="48.49910239194934" lon="7.50410918234436"><ele>175.0</ele><time>2026-03-28T06:41:55Z</time></trkpt><trkpt lat="48.49885498657456" lon="7.504252702949602"><ele>175.0</ele><time>2026-03-28T06:41:56Z</time></trkpt><trkpt lat="48.49860693579536" lon="7.504386271933301"><ele>176.5</ele><time>2026-03-28T06:41:57Z</time></trkpt><trkpt lat="48.49835582688247" lon="7.504511204515744"><ele>178.0</ele><time>2026-03-28T06:41:58Z</time></trkpt><trkpt lat="48.49810234113588" lon="7.504625881842296"><ele>180.5</ele><time>2026-03-28T06:41:59Z</time></trkpt><trkpt lat="48.49784899378133" lon="7.504731908830801"><ele>183.0</ele><time>2026-03-28T06:42:00Z</time></trkpt><trkpt lat="48.49759178826189" lon="7.504831866170563"><ele>183.0</ele><time>2026-03-28T06:42:01Z</time></trkpt><trkpt lat="48.49733376245264" lon="7.5049269196909485"><ele>183.0</ele><time>2026-03-28T06:42:02Z</time></trkpt><trkpt lat="48.49707292585134" lon="7.505017217700784"><ele>183.0</ele><time>2026-03-28T06:42:03Z</time></trkpt><trkpt lat="48.496812245098866" lon="7.5051070206170865"><ele>183.0</ele><time>2026-03-28T06:42:04Z</time></trkpt><trkpt lat="48.496551418687666" lon="7.505195227747658"><ele>183.0</ele><time>2026-03-28T06:42:05Z</time></trkpt><trkpt lat="48.496285718147384" lon="7.505284953316837"><ele>183.0</ele><time>2026-03-28T06:42:06Z</time></trkpt><trkpt lat="48.49601911436263" lon="7.505374886511287"><ele>184.0</ele><time>2026-03-28T06:42:07Z</time></trkpt><trkpt lat="48.49575625912794" lon="7.50546568066208"><ele>185.0</ele><time>2026-03-28T06:42:08Z</time></trkpt><trkpt lat="48.49549320373238" lon="7.505559056082662"><ele>184.0</ele><time>2026-03-28T06:42:09Z</time></trkpt><trkpt lat="48.49522869810387" lon="7.505650617477618"><ele>183.0</ele><time>2026-03-28T06:42:10Z</time></trkpt><trkpt lat="48.494960910177454" lon="7.505743648090403"><ele>183.0</ele><time>2026-03-28T06:42:11Z</time></trkpt><trkpt lat="48.49469560492061" lon="7.505834726904067"><ele>183.0</ele><time>2026-03-28T06:42:12Z</time></trkpt><trkpt lat="48.494431461031546" lon="7.505927013031783"><ele>183.5</ele><time>2026-03-28T06:42:13Z</time></trkpt><trkpt lat="48.494162305145686" lon="7.5060192606621206"><ele>184.0</ele><time>2026-03-28T06:42:14Z</time></trkpt><trkpt lat="48.49389505017484" lon="7.506108580467995"><ele>184.0</ele><time>2026-03-28T06:42:15Z</time></trkpt><trkpt lat="48.49363065561176" lon="7.506199934517326"><ele>184.0</ele><time>2026-03-28T06:42:16Z</time></trkpt><trkpt lat="48.493365016466164" lon="7.506293925008708"><ele>184.0</ele><time>2026-03-28T06:42:17Z</time></trkpt><trkpt lat="48.493096912133474" lon="7.506385599976006"><ele>184.0</ele><time>2026-03-28T06:42:18Z</time></trkpt><trkpt lat="48.492828322088435" lon="7.506475071156533"><ele>182.5</ele><time>2026-03-28T06:42:19Z</time></trkpt><trkpt lat="48.49256039565202" lon="7.506564528715978"><ele>181.0</ele><time>2026-03-28T06:42:20Z</time></trkpt><trkpt lat="48.49229475226541" lon="7.506655346228711"><ele>179.5</ele><time>2026-03-28T06:42:21Z</time></trkpt><trkpt lat="48.492031795877274" lon="7.506746008891359"><ele>178.0</ele><time>2026-03-28T06:42:22Z</time></trkpt><trkpt lat="48.49176885428848" lon="7.506837736440824"><ele>178.0</ele><time>2026-03-28T06:42:23Z</time></trkpt><trkpt lat="48.49150612916566" lon="7.506927305636182"><ele>178.0</ele><time>2026-03-28T06:42:24Z</time></trkpt><trkpt lat="48.49124629120428" lon="7.507022925909674"><ele>177.0</ele><time>2026-03-28T06:42:25Z</time></trkpt><trkpt lat="48.49098488334915" lon="7.5071122296828285"><ele>176.0</ele><time>2026-03-28T06:42:26Z</time></trkpt><trkpt lat="48.49072199366095" lon="7.5072037198467685"><ele>176.0</ele><time>2026-03-28T06:42:27Z</time></trkpt><trkpt lat="48.49046230571033" lon="7.507295030037344"><ele>176.0</ele><time>2026-03-28T06:42:28Z</time></trkpt><trkpt lat="48.49020050177947" lon="7.507382497697846"><ele>176.0</ele><time>2026-03-28T06:42:29Z</time></trkpt><trkpt lat="48.48994172646823" lon="7.507469321244552"><ele>176.0</ele><time>2026-03-28T06:42:30Z</time></trkpt><trkpt lat="48.489680980203865" lon="7.507556754099672"><ele>177.5</ele><time>2026-03-28T06:42:31Z</time></trkpt><trkpt lat="48.48941882536485" lon="7.507648229608001"><ele>179.0</ele><time>2026-03-28T06:42:32Z</time></trkpt><trkpt lat="48.48915736551689" lon="7.50774078934334"><ele>179.0</ele><time>2026-03-28T06:42:33Z</time></trkpt><trkpt lat="48.48889357048638" lon="7.507830564111474"><ele>179.0</ele><time>2026-03-28T06:42:34Z</time></trkpt><trkpt lat="48.488632753485696" lon="7.507920364306873"><ele>179.0</ele><time>2026-03-28T06:42:35Z</time></trkpt><trkpt lat="48.48836933566465" lon="7.5080078846099605"><ele>179.0</ele><time>2026-03-28T06:42:36Z</time></trkpt><trkpt lat="48.48810666328063" lon="7.508100443494115"><ele>179.0</ele><time>2026-03-28T06:42:37Z</time></trkpt><trkpt lat="48.4878437177141" lon="7.508189622775668"><ele>179.0</ele><time>2026-03-28T06:42:38Z</time></trkpt><trkpt lat="48.487581100696744" lon="7.508284136115285"><ele>179.0</ele><time>2026-03-28T06:42:39Z</time></trkpt><trkpt lat="48.487314631873744" lon="7.508371107466549"><ele>179.0</ele><time>2026-03-28T06:42:40Z</time></trkpt><trkpt lat="48.48705393980907" lon="7.508457030768121"><ele>179.5</ele><time>2026-03-28T06:42:41Z</time></trkpt><trkpt lat="48.48679229225849" lon="7.508545338686591"><ele>180.0</ele><time>2026-03-28T06:42:42Z</time></trkpt><trkpt lat="48.4865258779431" lon="7.508633068152713"><ele>180.0</ele><time>2026-03-28T06:42:43Z</time></trkpt><trkpt lat="48.48626335991145" lon="7.508719849192423"><ele>180.0</ele><time>2026-03-28T06:42:44Z</time></trkpt><trkpt lat="48.48600160293128" lon="7.508809924523347"><ele>178.0</ele><time>2026-03-28T06:42:45Z</time></trkpt><trkpt lat="48.48573850393866" lon="7.508898999391038"><ele>176.0</ele><time>2026-03-28T06:42:46Z</time></trkpt><trkpt lat="48.48547387461322" lon="7.508987183205782"><ele>176.0</ele><time>2026-03-28T06:42:47Z</time></trkpt><trkpt lat="48.485213474706065" lon="7.509078465730204"><ele>176.0</ele><time>2026-03-28T06:42:48Z</time></trkpt><trkpt lat="48.484952719304076" lon="7.509171784229161"><ele>176.0</ele><time>2026-03-28T06:42:49Z</time></trkpt><trkpt lat="48.48468971531414" lon="7.509267391465816"><ele>176.0</ele><time>2026-03-28T06:42:50Z</time></trkpt><trkpt lat="48.48442663857729" lon="7.509360042043934"><ele>174.0</ele><time>2026-03-28T06:42:51Z</time></trkpt><trkpt lat="48.4841620139686" lon="7.509456790204707"><ele>172.0</ele><time>2026-03-28T06:42:52Z</time></trkpt><trkpt lat="48.48389967488138" lon="7.509550087872062"><ele>172.0</ele><time>2026-03-28T06:42:53Z</time></trkpt><trkpt lat="48.48363578551284" lon="7.509641526772143"><ele>172.0</ele><time>2026-03-28T06:42:54Z</time></trkpt><trkpt lat="48.48337280004975" lon="7.5097349669183195"><ele>172.0</ele><time>2026-03-28T06:42:55Z</time></trkpt><trkpt lat="48.48311056463854" lon="7.50982907803409"><ele>172.0</ele><time>2026-03-28T06:42:56Z</time></trkpt><trkpt lat="48.48284743667262" lon="7.509920423691158"><ele>171.0</ele><time>2026-03-28T06:42:57Z</time></trkpt><trkpt lat="48.48258392001545" lon="7.510013203464562"><ele>170.0</ele><time>2026-03-28T06:42:58Z</time></trkpt><trkpt lat="48.482317606455574" lon="7.510102117121908"><ele>170.5</ele><time>2026-03-28T06:42:59Z</time></trkpt><trkpt lat="48.482051636959504" lon="7.510194806151124"><ele>171.0</ele><time>2026-03-28T06:43:00Z</time></trkpt><trkpt lat="48.481785159963856" lon="7.510284774938499"><ele>171.0</ele><time>2026-03-28T06:43:01Z</time></trkpt><trkpt lat="48.48152016487028" lon="7.510374036844956"><ele>171.0</ele><time>2026-03-28T06:43:02Z</time></trkpt><trkpt lat="48.48125552466804" lon="7.5104546071392635"><ele>169.5</ele><time>2026-03-28T06:43:03Z</time></trkpt><trkpt lat="48.480988654828934" lon="7.510528784218002"><ele>168.0</ele><time>2026-03-28T06:43:04Z</time></trkpt><trkpt lat="48.48072141235103" lon="7.510598010082116"><ele>168.0</ele><time>2026-03-28T06:43:05Z</time></trkpt><trkpt lat="48.48045368830174" lon="7.510661366187383"><ele>168.0</ele><time>2026-03-28T06:43:06Z</time></trkpt><trkpt lat="48.480189354226724" lon="7.510718112236518"><ele>169.0</ele><time>2026-03-28T06:43:07Z</time></trkpt><trkpt lat="48.47991688919984" lon="7.510769977920196"><ele>170.0</ele><time>2026-03-28T06:43:08Z</time></trkpt><trkpt lat="48.479648380005365" lon="7.510823490145501"><ele>170.5</ele><time>2026-03-28T06:43:09Z</time></trkpt><trkpt lat="48.479380914454374" lon="7.510873428640568"><ele>171.0</ele><time>2026-03-28T06:43:10Z</time></trkpt><trkpt lat="48.479115636241666" lon="7.510922450445032"><ele>171.0</ele><time>2026-03-28T06:43:11Z</time></trkpt><trkpt lat="48.4788498824585" lon="7.510974944140903"><ele>171.0</ele><time>2026-03-28T06:43:12Z</time></trkpt><trkpt lat="48.47858354726215" lon="7.511026013384237"><ele>171.0</ele><time>2026-03-28T06:43:13Z</time></trkpt><trkpt lat="48.478318745428616" lon="7.511073899249502"><ele>171.0</ele><time>2026-03-28T06:43:14Z</time></trkpt><trkpt lat="48.478051782829205" lon="7.5111232432196156"><ele>173.5</ele><time>2026-03-28T06:43:15Z</time></trkpt><trkpt lat="48.477787679940775" lon="7.5111740984022655"><ele>176.0</ele><time>2026-03-28T06:43:16Z</time></trkpt><trkpt lat="48.47752242270722" lon="7.511226296755032"><ele>176.0</ele><time>2026-03-28T06:43:17Z</time></trkpt><trkpt lat="48.47725644411484" lon="7.511276335226857"><ele>176.0</ele><time>2026-03-28T06:43:18Z</time></trkpt><trkpt lat="48.47699219850299" lon="7.511327248104495"><ele>176.0</ele><time>2026-03-28T06:43:19Z</time></trkpt><trkpt lat="48.47672754639042" lon="7.511380109219229"><ele>176.0</ele><time>2026-03-28T06:43:20Z</time></trkpt><trkpt lat="48.47646300758875" lon="7.511428750830288"><ele>174.0</ele><time>2026-03-28T06:43:21Z</time></trkpt><trkpt lat="48.47619787907652" lon="7.511479720839541"><ele>172.0</ele><time>2026-03-28T06:43:22Z</time></trkpt><trkpt lat="48.47593310932653" lon="7.511531330379182"><ele>172.0</ele><time>2026-03-28T06:43:23Z</time></trkpt><trkpt lat="48.47567024264044" lon="7.511584192611156"><ele>172.0</ele><time>2026-03-28T06:43:24Z</time></trkpt><trkpt lat="48.475406146819566" lon="7.511633785029679"><ele>174.0</ele><time>2026-03-28T06:43:25Z</time></trkpt><trkpt lat="48.475139568951796" lon="7.511683604008803"><ele>176.0</ele><time>2026-03-28T06:43:26Z</time></trkpt><trkpt lat="48.474877530480136" lon="7.5117328901004985"><ele>176.0</ele><time>2026-03-28T06:43:27Z</time></trkpt><trkpt lat="48.47461367298156" lon="7.511784168559796"><ele>176.0</ele><time>2026-03-28T06:43:28Z</time></trkpt><trkpt lat="48.47434818448148" lon="7.511835144932212"><ele>178.0</ele><time>2026-03-28T06:43:29Z</time></trkpt><trkpt lat="48.474084421529206" lon="7.511886293515046"><ele>180.0</ele><time>2026-03-28T06:43:30Z</time></trkpt><trkpt lat="48.47381930506953" lon="7.511934419887029"><ele>182.0</ele><time>2026-03-28T06:43:31Z</time></trkpt><trkpt lat="48.473556314897316" lon="7.5119833616279585"><ele>184.0</ele><time>2026-03-28T06:43:32Z</time></trkpt><trkpt lat="48.47329287799499" lon="7.512033895263834"><ele>182.0</ele><time>2026-03-28T06:43:33Z</time></trkpt><trkpt lat="48.47302903152418" lon="7.512086500541302"><ele>180.0</ele><time>2026-03-28T06:43:34Z</time></trkpt><trkpt lat="48.472765270017554" lon="7.512137284494466"><ele>179.0</ele><time>2026-03-28T06:43:35Z</time></trkpt><trkpt lat="48.47250285556863" lon="7.5121881744172745"><ele>178.0</ele><time>2026-03-28T06:43:36Z</time></trkpt><trkpt lat="48.47223853559703" lon="7.512241376833165"><ele>178.0</ele><time>2026-03-28T06:43:37Z</time></trkpt><trkpt lat="48.47197477080706" lon="7.51229271131907"><ele>178.0</ele><time>2026-03-28T06:43:38Z</time></trkpt><trkpt lat="48.47171474587848" lon="7.512344012512342"><ele>178.0</ele><time>2026-03-28T06:43:39Z</time></trkpt><trkpt lat="48.47144909157949" lon="7.512394362235085"><ele>178.0</ele><time>2026-03-28T06:43:40Z</time></trkpt><trkpt lat="48.471184467121596" lon="7.5124448844810425"><ele>178.5</ele><time>2026-03-28T06:43:41Z</time></trkpt><trkpt lat="48.470919688790424" lon="7.51249509217236"><ele>179.0</ele><time>2026-03-28T06:43:42Z</time></trkpt><trkpt lat="48.4706535552068" lon="7.512546619621266"><ele>177.5</ele><time>2026-03-28T06:43:43Z</time></trkpt><trkpt lat="48.470385119339916" lon="7.5125973924131655"><ele>176.0</ele><time>2026-03-28T06:43:44Z</time></trkpt><trkpt lat="48.47011869092152" lon="7.51264599476554"><ele>176.0</ele><time>2026-03-28T06:43:45Z</time></trkpt><trkpt lat="48.46985168186056" lon="7.512696033054354"><ele>176.0</ele><time>2026-03-28T06:43:46Z</time></trkpt><trkpt lat="48.469585170075185" lon="7.512746671670007"><ele>175.0</ele><time>2026-03-28T06:43:47Z</time></trkpt><trkpt lat="48.469316070055015" lon="7.512794012027555"><ele>174.0</ele><time>2026-03-28T06:43:48Z</time></trkpt><trkpt lat="48.46904777390802" lon="7.512842570772694"><ele>174.0</ele><time>2026-03-28T06:43:49Z</time></trkpt><trkpt lat="48.46878132460436" lon="7.512890026337849"><ele>174.0</ele><time>2026-03-28T06:43:50Z</time></trkpt><trkpt lat="48.468511930835156" lon="7.5129352863529695"><ele>172.5</ele><time>2026-03-28T06:43:51Z</time></trkpt><trkpt lat="48.468244190525496" lon="7.512972569870503"><ele>171.0</ele><time>2026-03-28T06:43:52Z</time></trkpt><trkpt lat="48.46797564155149" lon="7.513005500091363"><ele>171.5</ele><time>2026-03-28T06:43:53Z</time></trkpt><trkpt lat="48.46770845686588" lon="7.51303689029329"><ele>172.0</ele><time>2026-03-28T06:43:54Z</time></trkpt><trkpt lat="48.4674403111003" lon="7.513056928961893"><ele>172.0</ele><time>2026-03-28T06:43:55Z</time></trkpt><trkpt lat="48.467167458810714" lon="7.513066566075922"><ele>172.0</ele><time>2026-03-28T06:43:56Z</time></trkpt><trkpt lat="48.46689634218438" lon="7.513067506815179"><ele>172.0</ele><time>2026-03-28T06:43:57Z</time></trkpt><trkpt lat="48.466628561966324" lon="7.513061805073726"><ele>172.0</ele><time>2026-03-28T06:43:58Z</time></trkpt><trkpt lat="48.466360164694095" lon="7.513046937058825"><ele>173.0</ele><time>2026-03-28T06:43:59Z</time></trkpt><trkpt lat="48.46609338619171" lon="7.513024847629096"><ele>174.0</ele><time>2026-03-28T06:44:00Z</time></trkpt><trkpt lat="48.46582512737395" lon="7.5129939261425"><ele>174.0</ele><time>2026-03-28T06:44:01Z</time></trkpt><trkpt lat="48.46555983962602" lon="7.512955183438393"><ele>174.0</ele><time>2026-03-28T06:44:02Z</time></trkpt><trkpt lat="48.465293597835675" lon="7.512909077228782"><ele>173.0</ele><time>2026-03-28T06:44:03Z</time></trkpt><trkpt lat="48.465026325443716" lon="7.5128566225656765"><ele>172.0</ele><time>2026-03-28T06:44:04Z</time></trkpt><trkpt lat="48.464759851670834" lon="7.5128033230658"><ele>173.0</ele><time>2026-03-28T06:44:05Z</time></trkpt><trkpt lat="48.46449667324282" lon="7.512751890405938"><ele>174.0</ele><time>2026-03-28T06:44:06Z</time></trkpt><trkpt lat="48.464233733049255" lon="7.51270652454676"><ele>174.0</ele><time>2026-03-28T06:44:07Z</time></trkpt><trkpt lat="48.46396433458345" lon="7.51265752113996"><ele>174.0</ele><time>2026-03-28T06:44:08Z</time></trkpt><trkpt lat="48.4636983105106" lon="7.512617709556508"><ele>175.0</ele><time>2026-03-28T06:44:09Z</time></trkpt><trkpt lat="48.463432188090266" lon="7.51257398261953"><ele>176.0</ele><time>2026-03-28T06:44:10Z</time></trkpt><trkpt lat="48.46316904797212" lon="7.512529085288517"><ele>176.5</ele><time>2026-03-28T06:44:11Z</time></trkpt><trkpt lat="48.462902331985774" lon="7.512479926060156"><ele>177.0</ele><time>2026-03-28T06:44:12Z</time></trkpt><trkpt lat="48.462641289512945" lon="7.512427832894288"><ele>177.0</ele><time>2026-03-28T06:44:13Z</time></trkpt><trkpt lat="48.46237182242487" lon="7.512377241072707"><ele>177.0</ele><time>2026-03-28T06:44:14Z</time></trkpt><trkpt lat="48.462105721995826" lon="7.512325683589749"><ele>176.5</ele><time>2026-03-28T06:44:15Z</time></trkpt><trkpt lat="48.461839143247445" lon="7.5122718338777545"><ele>176.0</ele><time>2026-03-28T06:44:16Z</time></trkpt><trkpt lat="48.461575031819585" lon="7.5122191485061025"><ele>176.0</ele><time>2026-03-28T06:44:17Z</time></trkpt><trkpt lat="48.461310118892314" lon="7.512166728114505"><ele>176.0</ele><time>2026-03-28T06:44:18Z</time></trkpt><trkpt lat="48.46104396318661" lon="7.512113020430808"><ele>176.0</ele><time>2026-03-28T06:44:19Z</time></trkpt><trkpt lat="48.46078072664718" lon="7.512058713905245"><ele>176.0</ele><time>2026-03-28T06:44:20Z</time></trkpt><trkpt lat="48.46051467869939" lon="7.51200655992884"><ele>176.5</ele><time>2026-03-28T06:44:21Z</time></trkpt><trkpt lat="48.46024695930973" lon="7.511951059102966"><ele>177.0</ele><time>2026-03-28T06:44:22Z</time></trkpt><trkpt lat="48.45998318845708" lon="7.5118982383318444"><ele>177.0</ele><time>2026-03-28T06:44:23Z</time></trkpt><trkpt lat="48.45971707452686" lon="7.511845052729778"><ele>177.0</ele><time>2026-03-28T06:44:24Z</time></trkpt><trkpt lat="48.459456036320276" lon="7.511789148569371"><ele>177.0</ele><time>2026-03-28T06:44:25Z</time></trkpt><trkpt lat="48.459189405570406" lon="7.511736946138386"><ele>177.0</ele><time>2026-03-28T06:44:26Z</time></trkpt><trkpt lat="48.458925613536294" lon="7.511684432777952"><ele>177.0</ele><time>2026-03-28T06:44:27Z</time></trkpt><trkpt lat="48.458661367968574" lon="7.511633237438086"><ele>177.0</ele><time>2026-03-28T06:44:28Z</time></trkpt><trkpt lat="48.458398732385994" lon="7.511578493344562"><ele>177.0</ele><time>2026-03-28T06:44:29Z</time></trkpt><trkpt lat="48.45813759020273" lon="7.511525617104526"><ele>177.0</ele><time>2026-03-28T06:44:30Z</time></trkpt><trkpt lat="48.45787469951014" lon="7.511472635889552"><ele>176.0</ele><time>2026-03-28T06:44:31Z</time></trkpt><trkpt lat="48.45761085888205" lon="7.511416363218336"><ele>175.0</ele><time>2026-03-28T06:44:32Z</time></trkpt><trkpt lat="48.45734797543084" lon="7.5113563176803915"><ele>174.0</ele><time>2026-03-28T06:44:33Z</time></trkpt><trkpt lat="48.45709031046445" lon="7.51128448966037"><ele>173.0</ele><time>2026-03-28T06:44:34Z</time></trkpt><trkpt lat="48.45683243835156" lon="7.511197276490194"><ele>173.0</ele><time>2026-03-28T06:44:35Z</time></trkpt><trkpt lat="48.45657482653389" lon="7.511099094813349"><ele>173.0</ele><time>2026-03-28T06:44:36Z</time></trkpt><trkpt lat="48.4563193437617" lon="7.510981319413117"><ele>172.0</ele><time>2026-03-28T06:44:37Z</time></trkpt><trkpt lat="48.45606497662564" lon="7.510847691707667"><ele>171.0</ele><time>2026-03-28T06:44:38Z</time></trkpt><trkpt lat="48.455810602007766" lon="7.5106935680350615"><ele>171.0</ele><time>2026-03-28T06:44:39Z</time></trkpt><trkpt lat="48.455564891552754" lon="7.5105226054073455"><ele>171.0</ele><time>2026-03-28T06:44:40Z</time></trkpt><trkpt lat="48.45533045063277" lon="7.510335876378523"><ele>171.0</ele><time>2026-03-28T06:44:41Z</time></trkpt><trkpt lat="48.4550984085183" lon="7.510134668633605"><ele>171.0</ele><time>2026-03-28T06:44:42Z</time></trkpt><trkpt lat="48.45487381990114" lon="7.509914827385593"><ele>171.0</ele><time>2026-03-28T06:44:43Z</time></trkpt><trkpt lat="48.45464993971748" lon="7.509691629094025"><ele>171.0</ele><time>2026-03-28T06:44:44Z</time></trkpt><trkpt lat="48.45442963624465" lon="7.509458958774088"><ele>170.5</ele><time>2026-03-28T06:44:45Z</time></trkpt><trkpt lat="48.45420737877568" lon="7.509224517459233"><ele>170.0</ele><time>2026-03-28T06:44:46Z</time></trkpt><trkpt lat="48.45398754985903" lon="7.508993733132449"><ele>170.0</ele><time>2026-03-28T06:44:47Z</time></trkpt><trkpt lat="48.453762129457346" lon="7.508763942512428"><ele>170.0</ele><time>2026-03-28T06:44:48Z</time></trkpt><trkpt lat="48.45353728733513" lon="7.508547013452849"><ele>170.0</ele><time>2026-03-28T06:44:49Z</time></trkpt><trkpt lat="48.45330650916541" lon="7.508336853967231"><ele>170.0</ele><time>2026-03-28T06:44:50Z</time></trkpt><trkpt lat="48.453078370134826" lon="7.50813034038923"><ele>167.5</ele><time>2026-03-28T06:44:51Z</time></trkpt><trkpt lat="48.452844560110734" lon="7.507928230522059"><ele>165.0</ele><time>2026-03-28T06:44:52Z</time></trkpt><trkpt lat="48.45260651908398" lon="7.507733662224176"><ele>164.5</ele><time>2026-03-28T06:44:53Z</time></trkpt><trkpt lat="48.45237176185891" lon="7.507544756247636"><ele>164.0</ele><time>2026-03-28T06:44:54Z</time></trkpt><trkpt lat="48.452128194082064" lon="7.507354254893358"><ele>164.0</ele><time>2026-03-28T06:44:55Z</time></trkpt><trkpt lat="48.45188693119646" lon="7.507176603085713"><ele>164.0</ele><time>2026-03-28T06:44:56Z</time></trkpt><trkpt lat="48.451644010199324" lon="7.507009916788996"><ele>165.0</ele><time>2026-03-28T06:44:57Z</time></trkpt><trkpt lat="48.45140047461536" lon="7.506847154459164"><ele>166.0</ele><time>2026-03-28T06:44:58Z</time></trkpt><trkpt lat="48.451155160376565" lon="7.506686202001464"><ele>166.0</ele><time>2026-03-28T06:44:59Z</time></trkpt><trkpt lat="48.45090866680095" lon="7.506535299215117"><ele>166.0</ele><time>2026-03-28T06:45:00Z</time></trkpt><trkpt lat="48.45066199344959" lon="7.50639106080329"><ele>165.0</ele><time>2026-03-28T06:45:01Z</time></trkpt><trkpt lat="48.450412858041936" lon="7.506251581557609"><ele>164.0</ele><time>2026-03-28T06:45:02Z</time></trkpt><trkpt lat="48.45015856820165" lon="7.506120796398736"><ele>164.0</ele><time>2026-03-28T06:45:03Z</time></trkpt><trkpt lat="48.449906524599925" lon="7.505992569394481"><ele>164.0</ele><time>2026-03-28T06:45:04Z</time></trkpt><trkpt lat="48.44965621454326" lon="7.505866686304843"><ele>163.5</ele><time>2026-03-28T06:45:05Z</time></trkpt><trkpt lat="48.449403056982106" lon="7.505739616899602"><ele>163.0</ele><time>2026-03-28T06:45:06Z</time></trkpt><trkpt lat="48.44914748784314" lon="7.505613455652774"><ele>163.0</ele><time>2026-03-28T06:45:07Z</time></trkpt><trkpt lat="48.448896762399286" lon="7.5054866001726035"><ele>163.0</ele><time>2026-03-28T06:45:08Z</time></trkpt><trkpt lat="48.44864583028142" lon="7.505359612076064"><ele>162.0</ele><time>2026-03-28T06:45:09Z</time></trkpt><trkpt lat="48.448394479535" lon="7.505236636500014"><ele>161.0</ele><time>2026-03-28T06:45:10Z</time></trkpt><trkpt lat="48.44814116581144" lon="7.505110069044228"><ele>161.5</ele><time>2026-03-28T06:45:11Z</time></trkpt><trkpt lat="48.44789336264841" lon="7.504986778370202"><ele>162.0</ele><time>2026-03-28T06:45:12Z</time></trkpt><trkpt lat="48.44764658365371" lon="7.504864089798826"><ele>162.0</ele><time>2026-03-28T06:45:13Z</time></trkpt><trkpt lat="48.447401449605366" lon="7.5047384739552365"><ele>162.0</ele><time>2026-03-28T06:45:14Z</time></trkpt><trkpt lat="48.44715819452826" lon="7.504615446154187"><ele>162.5</ele><time>2026-03-28T06:45:15Z</time></trkpt><trkpt lat="48.44690831822221" lon="7.504490447915649"><ele>163.0</ele><time>2026-03-28T06:45:16Z</time></trkpt><trkpt lat="48.446662996404136" lon="7.504363694370439"><ele>163.0</ele><time>2026-03-28T06:45:17Z</time></trkpt><trkpt lat="48.44640727911876" lon="7.504234118760552"><ele>163.0</ele><time>2026-03-28T06:45:18Z</time></trkpt><trkpt lat="48.44616165664296" lon="7.504108447368926"><ele>163.0</ele><time>2026-03-28T06:45:19Z</time></trkpt><trkpt lat="48.44591374497852" lon="7.503981827657124"><ele>163.0</ele><time>2026-03-28T06:45:20Z</time></trkpt><trkpt lat="48.44566228078532" lon="7.503858165391143"><ele>161.0</ele><time>2026-03-28T06:45:21Z</time></trkpt><trkpt lat="48.445411396870846" lon="7.5037316616789385"><ele>159.0</ele><time>2026-03-28T06:45:22Z</time></trkpt><trkpt lat="48.44516191070251" lon="7.50360396620464"><ele>159.0</ele><time>2026-03-28T06:45:23Z</time></trkpt><trkpt lat="48.4449101064334" lon="7.503475974764347"><ele>159.0</ele><time>2026-03-28T06:45:24Z</time></trkpt><trkpt lat="48.44466451920451" lon="7.503349152936828"><ele>159.5</ele><time>2026-03-28T06:45:25Z</time></trkpt><trkpt lat="48.44442157059244" lon="7.503227081051257"><ele>160.0</ele><time>2026-03-28T06:45:26Z</time></trkpt><trkpt lat="48.44418004846234" lon="7.503105944592373"><ele>160.0</ele><time>2026-03-28T06:45:27Z</time></trkpt><trkpt lat="48.443938900229035" lon="7.502983508527393"><ele>160.0</ele><time>2026-03-28T06:45:28Z</time></trkpt><trkpt lat="48.44369820912075" lon="7.502864298288638"><ele>161.0</ele><time>2026-03-28T06:45:29Z</time></trkpt><trkpt lat="48.44345809297449" lon="7.502747986477476"><ele>162.0</ele><time>2026-03-28T06:45:30Z</time></trkpt><trkpt lat="48.44321414061645" lon="7.502634048509247"><ele>162.0</ele><time>2026-03-28T06:45:31Z</time></trkpt><trkpt lat="48.44297086330215" lon="7.502521325651504"><ele>162.0</ele><time>2026-03-28T06:45:32Z</time></trkpt><trkpt lat="48.442726515446765" lon="7.502398849931363"><ele>162.5</ele><time>2026-03-28T06:45:33Z</time></trkpt><trkpt lat="48.44247680927722" lon="7.502274195620595"><ele>163.0</ele><time>2026-03-28T06:45:34Z</time></trkpt><trkpt lat="48.44222311645282" lon="7.502141469885633"><ele>163.5</ele><time>2026-03-28T06:45:35Z</time></trkpt><trkpt lat="48.44197556160597" lon="7.502012617754125"><ele>164.0</ele><time>2026-03-28T06:45:36Z</time></trkpt><trkpt lat="48.44172960092132" lon="7.501883267565666"><ele>164.0</ele><time>2026-03-28T06:45:37Z</time></trkpt><trkpt lat="48.441491316982784" lon="7.501750693330172"><ele>164.0</ele><time>2026-03-28T06:45:38Z</time></trkpt><trkpt lat="48.44125207896796" lon="7.501619541141994"><ele>163.0</ele><time>2026-03-28T06:45:39Z</time></trkpt><trkpt lat="48.44101246990476" lon="7.501485861341463"><ele>162.0</ele><time>2026-03-28T06:45:40Z</time></trkpt><trkpt lat="48.44077181228498" lon="7.5013505840954045"><ele>162.0</ele><time>2026-03-28T06:45:41Z</time></trkpt><trkpt lat="48.44053251273588" lon="7.501216785201345"><ele>162.0</ele><time>2026-03-28T06:45:42Z</time></trkpt><trkpt lat="48.44029604861505" lon="7.50108082041555"><ele>161.5</ele><time>2026-03-28T06:45:43Z</time></trkpt><trkpt lat="48.440062505100265" lon="7.50094155361671"><ele>161.0</ele><time>2026-03-28T06:45:44Z</time></trkpt><trkpt lat="48.439823756927176" lon="7.500805931845581"><ele>161.0</ele><time>2026-03-28T06:45:45Z</time></trkpt><trkpt lat="48.439585180012486" lon="7.500659842082643"><ele>161.0</ele><time>2026-03-28T06:45:46Z</time></trkpt><trkpt lat="48.439339134906675" lon="7.500522543409215"><ele>160.5</ele><time>2026-03-28T06:45:47Z</time></trkpt><trkpt lat="48.43908971355588" lon="7.500373914558132"><ele>160.0</ele><time>2026-03-28T06:45:48Z</time></trkpt><trkpt lat="48.43884209386447" lon="7.500222013407403"><ele>159.5</ele><time>2026-03-28T06:45:49Z</time></trkpt><trkpt lat="48.43859338551426" lon="7.50006980668901"><ele>159.0</ele><time>2026-03-28T06:45:50Z</time></trkpt><trkpt lat="48.438341921514414" lon="7.499920511175542"><ele>159.0</ele><time>2026-03-28T06:45:51Z</time></trkpt><trkpt lat="48.438090581860436" lon="7.499766245068983"><ele>159.0</ele><time>2026-03-28T06:45:52Z</time></trkpt><trkpt lat="48.437843183497456" lon="7.499615648363958"><ele>160.0</ele><time>2026-03-28T06:45:53Z</time></trkpt><trkpt lat="48.43759739090184" lon="7.499458307615054"><ele>161.0</ele><time>2026-03-28T06:45:54Z</time></trkpt><trkpt lat="48.437349799703775" lon="7.499297308547045"><ele>160.5</ele><time>2026-03-28T06:45:55Z</time></trkpt><trkpt lat="48.4370973056121" lon="7.4991409745401745"><ele>160.0</ele><time>2026-03-28T06:45:56Z</time></trkpt><trkpt lat="48.436846744494595" lon="7.49898505398893"><ele>160.0</ele><time>2026-03-28T06:45:57Z</time></trkpt><trkpt lat="48.43660025089166" lon="7.4988202685389735"><ele>160.0</ele><time>2026-03-28T06:45:58Z</time></trkpt><trkpt lat="48.43635634708828" lon="7.4986549930523685"><ele>159.5</ele><time>2026-03-28T06:45:59Z</time></trkpt><trkpt lat="48.43611380711151" lon="7.498484863536345"><ele>159.0</ele><time>2026-03-28T06:46:00Z</time></trkpt><trkpt lat="48.43587178808483" lon="7.4983155021608585"><ele>159.0</ele><time>2026-03-28T06:46:01Z</time></trkpt><trkpt lat="48.43562833405345" lon="7.498143773331616"><ele>159.0</ele><time>2026-03-28T06:46:02Z</time></trkpt><trkpt lat="48.43538597609696" lon="7.497972563696723"><ele>160.0</ele><time>2026-03-28T06:46:03Z</time></trkpt><trkpt lat="48.43513971771122" lon="7.4978000539556895"><ele>161.0</ele><time>2026-03-28T06:46:04Z</time></trkpt><trkpt lat="48.434895488410824" lon="7.497631754157584"><ele>161.0</ele><time>2026-03-28T06:46:05Z</time></trkpt><trkpt lat="48.43465017042894" lon="7.497462011127004"><ele>161.0</ele><time>2026-03-28T06:46:06Z</time></trkpt><trkpt lat="48.43440806705006" lon="7.49728828869457"><ele>160.5</ele><time>2026-03-28T06:46:07Z</time></trkpt><trkpt lat="48.43416394093041" lon="7.497117199023905"><ele>160.0</ele><time>2026-03-28T06:46:08Z</time></trkpt><trkpt lat="48.43392092925814" lon="7.496950397566487"><ele>161.0</ele><time>2026-03-28T06:46:09Z</time></trkpt><trkpt lat="48.433679500317645" lon="7.496779848197463"><ele>162.0</ele><time>2026-03-28T06:46:10Z</time></trkpt><trkpt lat="48.43343810659275" lon="7.496604342562024"><ele>162.0</ele><time>2026-03-28T06:46:11Z</time></trkpt><trkpt lat="48.433199005773716" lon="7.496429893111298"><ele>162.0</ele><time>2026-03-28T06:46:12Z</time></trkpt><trkpt lat="48.432960331009554" lon="7.496251032540079"><ele>162.0</ele><time>2026-03-28T06:46:13Z</time></trkpt><trkpt lat="48.43272043456565" lon="7.496074888789698"><ele>162.0</ele><time>2026-03-28T06:46:14Z</time></trkpt><trkpt lat="48.43248087582498" lon="7.495895707538255"><ele>162.0</ele><time>2026-03-28T06:46:15Z</time></trkpt><trkpt lat="48.43224365552444" lon="7.495712844037452"><ele>162.0</ele><time>2026-03-28T06:46:16Z</time></trkpt><trkpt lat="48.43200565680101" lon="7.495533165229674"><ele>160.5</ele><time>2026-03-28T06:46:17Z</time></trkpt><trkpt lat="48.43176615268581" lon="7.49535426389653"><ele>159.0</ele><time>2026-03-28T06:46:18Z</time></trkpt><trkpt lat="48.43152596240562" lon="7.495175297579914"><ele>159.5</ele><time>2026-03-28T06:46:19Z</time></trkpt><trkpt lat="48.43128378980243" lon="7.494995045340266"><ele>160.0</ele><time>2026-03-28T06:46:20Z</time></trkpt><trkpt lat="48.43104900533661" lon="7.494813388868429"><ele>160.0</ele><time>2026-03-28T06:46:21Z</time></trkpt><trkpt lat="48.43080626737336" lon="7.49463117022897"><ele>160.0</ele><time>2026-03-28T06:46:22Z</time></trkpt><trkpt lat="48.43056761171377" lon="7.494449510953807"><ele>160.0</ele><time>2026-03-28T06:46:23Z</time></trkpt><trkpt lat="48.43032994463244" lon="7.494267253414888"><ele>160.0</ele><time>2026-03-28T06:46:24Z</time></trkpt><trkpt lat="48.4300906088639" lon="7.494083060222532"><ele>160.0</ele><time>2026-03-28T06:46:25Z</time></trkpt><trkpt lat="48.429847806985286" lon="7.4939013124230245"><ele>160.0</ele><time>2026-03-28T06:46:26Z</time></trkpt><trkpt lat="48.42961210258879" lon="7.493712779647631"><ele>160.0</ele><time>2026-03-28T06:46:27Z</time></trkpt><trkpt lat="48.42937440114232" lon="7.493526596217429"><ele>160.0</ele><time>2026-03-28T06:46:28Z</time></trkpt><trkpt lat="48.4291381906817" lon="7.49333595304895"><ele>160.0</ele><time>2026-03-28T06:46:29Z</time></trkpt><trkpt lat="48.428896425494486" lon="7.493143488851251"><ele>160.0</ele><time>2026-03-28T06:46:30Z</time></trkpt><trkpt lat="48.42866321145986" lon="7.492947795792962"><ele>160.0</ele><time>2026-03-28T06:46:31Z</time></trkpt><trkpt lat="48.42843109934197" lon="7.492754794051169"><ele>160.0</ele><time>2026-03-28T06:46:32Z</time></trkpt><trkpt lat="48.428200921024796" lon="7.492558520909704"><ele>160.0</ele><time>2026-03-28T06:46:33Z</time></trkpt><trkpt lat="48.42796461016458" lon="7.492362688399772"><ele>160.0</ele><time>2026-03-28T06:46:34Z</time></trkpt><trkpt lat="48.42773379244601" lon="7.492165281826713"><ele>160.0</ele><time>2026-03-28T06:46:35Z</time></trkpt><trkpt lat="48.427502441165466" lon="7.49196889519829"><ele>160.0</ele><time>2026-03-28T06:46:36Z</time></trkpt><trkpt lat="48.42727216846537" lon="7.491768379904757"><ele>159.5</ele><time>2026-03-28T06:46:37Z</time></trkpt><trkpt lat="48.427042240117586" lon="7.491569539227647"><ele>159.0</ele><time>2026-03-28T06:46:38Z</time></trkpt><trkpt lat="48.42681245165364" lon="7.491369756959633"><ele>159.0</ele><time>2026-03-28T06:46:39Z</time></trkpt><trkpt lat="48.426585425975304" lon="7.4911664339757"><ele>159.0</ele><time>2026-03-28T06:46:40Z</time></trkpt><trkpt lat="48.42635917225134" lon="7.490966929706032"><ele>159.5</ele><time>2026-03-28T06:46:41Z</time></trkpt><trkpt lat="48.42613315358099" lon="7.490766071128687"><ele>160.0</ele><time>2026-03-28T06:46:42Z</time></trkpt><trkpt lat="48.42590959667138" lon="7.4905646280905005"><ele>161.0</ele><time>2026-03-28T06:46:43Z</time></trkpt><trkpt lat="48.42568745415046" lon="7.490361229474604"><ele>162.0</ele><time>2026-03-28T06:46:44Z</time></trkpt><trkpt lat="48.425467540857376" lon="7.490162362535641"><ele>162.0</ele><time>2026-03-28T06:46:45Z</time></trkpt><trkpt lat="48.425248418800216" lon="7.489962888851967"><ele>162.0</ele><time>2026-03-28T06:46:46Z</time></trkpt><trkpt lat="48.425034030674865" lon="7.489762325755051"><ele>162.5</ele><time>2026-03-28T06:46:47Z</time></trkpt><trkpt lat="48.42481831632241" lon="7.4895616563621905"><ele>163.0</ele><time>2026-03-28T06:46:48Z</time></trkpt><trkpt lat="48.42460596467713" lon="7.489361476181062"><ele>163.0</ele><time>2026-03-28T06:46:49Z</time></trkpt><trkpt lat="48.424394878404904" lon="7.489162932021327"><ele>163.0</ele><time>2026-03-28T06:46:50Z</time></trkpt><trkpt lat="48.4241839272267" lon="7.48896342855606"><ele>163.5</ele><time>2026-03-28T06:46:51Z</time></trkpt><trkpt lat="48.42397320074325" lon="7.488757818627169"><ele>164.0</ele><time>2026-03-28T06:46:52Z</time></trkpt><trkpt lat="48.42375988314113" lon="7.488551891704132"><ele>164.0</ele><time>2026-03-28T06:46:53Z</time></trkpt><trkpt lat="48.423544749461115" lon="7.488345990937952"><ele>164.0</ele><time>2026-03-28T06:46:54Z</time></trkpt><trkpt lat="48.42332897536875" lon="7.488140551639736"><ele>164.0</ele><time>2026-03-28T06:46:55Z</time></trkpt><trkpt lat="48.42311284730329" lon="7.487937401726617"><ele>164.0</ele><time>2026-03-28T06:46:56Z</time></trkpt><trkpt lat="48.422894872020834" lon="7.487736697412028"><ele>163.5</ele><time>2026-03-28T06:46:57Z</time></trkpt><trkpt lat="48.42267442602027" lon="7.487539478057007"><ele>163.0</ele><time>2026-03-28T06:46:58Z</time></trkpt><trkpt lat="48.42245315310261" lon="7.487344992390193"><ele>163.0</ele><time>2026-03-28T06:46:59Z</time></trkpt><trkpt lat="48.42223018654917" lon="7.4871504159985784"><ele>163.0</ele><time>2026-03-28T06:47:00Z</time></trkpt><trkpt lat="48.422002953923226" lon="7.486960503648145"><ele>164.0</ele><time>2026-03-28T06:47:01Z</time></trkpt><trkpt lat="48.42177471332724" lon="7.486777828301162"><ele>165.0</ele><time>2026-03-28T06:47:02Z</time></trkpt><trkpt lat="48.42154146950758" lon="7.4865917002325615"><ele>165.0</ele><time>2026-03-28T06:47:03Z</time></trkpt><trkpt lat="48.421309573650746" lon="7.486410990041146"><ele>165.0</ele><time>2026-03-28T06:47:04Z</time></trkpt><trkpt lat="48.42107363726837" lon="7.486230280751949"><ele>165.5</ele><time>2026-03-28T06:47:05Z</time></trkpt><trkpt lat="48.42083610959542" lon="7.4860540930468344"><ele>166.0</ele><time>2026-03-28T06:47:06Z</time></trkpt><trkpt lat="48.42059610762922" lon="7.485878658195749"><ele>165.5</ele><time>2026-03-28T06:47:07Z</time></trkpt><trkpt lat="48.420354420098974" lon="7.485708929816411"><ele>165.0</ele><time>2026-03-28T06:47:08Z</time></trkpt><trkpt lat="48.42011142795986" lon="7.4855389615148775"><ele>165.0</ele><time>2026-03-28T06:47:09Z</time></trkpt><trkpt lat="48.41986244693905" lon="7.485374835956101"><ele>165.0</ele><time>2026-03-28T06:47:10Z</time></trkpt><trkpt lat="48.419611946551356" lon="7.4852150490926705"><ele>165.5</ele><time>2026-03-28T06:47:11Z</time></trkpt><trkpt lat="48.419362309503605" lon="7.485055913647354"><ele>166.0</ele><time>2026-03-28T06:47:12Z</time></trkpt><trkpt lat="48.4191144043714" lon="7.484895699768635"><ele>166.0</ele><time>2026-03-28T06:47:13Z</time></trkpt><trkpt lat="48.418866199565336" lon="7.484733182388315"><ele>166.0</ele><time>2026-03-28T06:47:14Z</time></trkpt><trkpt lat="48.41861780966008" lon="7.484571203608186"><ele>166.5</ele><time>2026-03-28T06:47:15Z</time></trkpt><trkpt lat="48.41836856034759" lon="7.484417249788511"><ele>167.0</ele><time>2026-03-28T06:47:16Z</time></trkpt><trkpt lat="48.41811274047928" lon="7.484271956236455"><ele>167.0</ele><time>2026-03-28T06:47:17Z</time></trkpt><trkpt lat="48.41785256401623" lon="7.484130794970354"><ele>167.0</ele><time>2026-03-28T06:47:18Z</time></trkpt><trkpt lat="48.41759338545393" lon="7.4839983768111775"><ele>167.0</ele><time>2026-03-28T06:47:19Z</time></trkpt><trkpt lat="48.41733078903811" lon="7.483867392832483"><ele>167.0</ele><time>2026-03-28T06:47:20Z</time></trkpt><trkpt lat="48.417071263397155" lon="7.483744993767209"><ele>167.5</ele><time>2026-03-28T06:47:21Z</time></trkpt><trkpt lat="48.416813168181" lon="7.483626171376333"><ele>168.0</ele><time>2026-03-28T06:47:22Z</time></trkpt><trkpt lat="48.4165491275077" lon="7.48351357820585"><ele>169.0</ele><time>2026-03-28T06:47:23Z</time></trkpt><trkpt lat="48.416288379196715" lon="7.48340489355104"><ele>170.0</ele><time>2026-03-28T06:47:24Z</time></trkpt><trkpt lat="48.41602478439992" lon="7.4832988477036215"><ele>170.0</ele><time>2026-03-28T06:47:25Z</time></trkpt><trkpt lat="48.41576096605693" lon="7.483195206391334"><ele>170.0</ele><time>2026-03-28T06:47:26Z</time></trkpt><trkpt lat="48.41549687584122" lon="7.483096344104887"><ele>170.0</ele><time>2026-03-28T06:47:27Z</time></trkpt><trkpt lat="48.41523159030539" lon="7.4830025778343146"><ele>170.0</ele><time>2026-03-28T06:47:28Z</time></trkpt><trkpt lat="48.41496907476105" lon="7.482907427785739"><ele>170.0</ele><time>2026-03-28T06:47:29Z</time></trkpt><trkpt lat="48.41470709545824" lon="7.482821287813247"><ele>170.0</ele><time>2026-03-28T06:47:30Z</time></trkpt><trkpt lat="48.414448810968494" lon="7.482740606369271"><ele>170.0</ele><time>2026-03-28T06:47:31Z</time></trkpt><trkpt lat="48.41418618294779" lon="7.48266359780842"><ele>170.0</ele><time>2026-03-28T06:47:32Z</time></trkpt><trkpt lat="48.413926000016076" lon="7.482591801620248"><ele>171.0</ele><time>2026-03-28T06:47:33Z</time></trkpt><trkpt lat="48.41366546863372" lon="7.4825248398236175"><ele>172.0</ele><time>2026-03-28T06:47:34Z</time></trkpt><trkpt lat="48.413407541937495" lon="7.482454773503529"><ele>172.0</ele><time>2026-03-28T06:47:35Z</time></trkpt><trkpt lat="48.413147458988036" lon="7.48239432490411"><ele>172.0</ele><time>2026-03-28T06:47:36Z</time></trkpt><trkpt lat="48.412885512832325" lon="7.482345278544778"><ele>173.5</ele><time>2026-03-28T06:47:37Z</time></trkpt><trkpt lat="48.41262122274174" lon="7.48230300273361"><ele>175.0</ele><time>2026-03-28T06:47:38Z</time></trkpt><trkpt lat="48.412358719883585" lon="7.482259376790545"><ele>176.5</ele><time>2026-03-28T06:47:39Z</time></trkpt><trkpt lat="48.41209307324246" lon="7.482213134065648"><ele>178.0</ele><time>2026-03-28T06:47:40Z</time></trkpt><trkpt lat="48.411828702736635" lon="7.482162508652394"><ele>178.0</ele><time>2026-03-28T06:47:41Z</time></trkpt><trkpt lat="48.411564245192416" lon="7.482108285144977"><ele>178.0</ele><time>2026-03-28T06:47:42Z</time></trkpt><trkpt lat="48.41129987315127" lon="7.482052082116309"><ele>179.0</ele><time>2026-03-28T06:47:43Z</time></trkpt><trkpt lat="48.41103469528632" lon="7.481988705084932"><ele>180.0</ele><time>2026-03-28T06:47:44Z</time></trkpt><trkpt lat="48.41077382043213" lon="7.481923830241746"><ele>180.0</ele><time>2026-03-28T06:47:45Z</time></trkpt><trkpt lat="48.4105098512772" lon="7.481856056669282"><ele>180.0</ele><time>2026-03-28T06:47:46Z</time></trkpt><trkpt lat="48.41024794567097" lon="7.481785937843821"><ele>179.5</ele><time>2026-03-28T06:47:47Z</time></trkpt><trkpt lat="48.40998421077017" lon="7.481712060571792"><ele>179.0</ele><time>2026-03-28T06:47:48Z</time></trkpt><trkpt lat="48.409724034053696" lon="7.481635758748964"><ele>179.0</ele><time>2026-03-28T06:47:49Z</time></trkpt><trkpt lat="48.40946248266865" lon="7.481553713935749"><ele>179.0</ele><time>2026-03-28T06:47:50Z</time></trkpt><trkpt lat="48.40920176276594" lon="7.481468869473286"><ele>179.0</ele><time>2026-03-28T06:47:51Z</time></trkpt><trkpt lat="48.40893822040681" lon="7.481378697395619"><ele>179.0</ele><time>2026-03-28T06:47:52Z</time></trkpt><trkpt lat="48.40867505510433" lon="7.4812836126398015"><ele>179.0</ele><time>2026-03-28T06:47:53Z</time></trkpt><trkpt lat="48.408410677083396" lon="7.481184341420885"><ele>179.0</ele><time>2026-03-28T06:47:54Z</time></trkpt><trkpt lat="48.408146198059264" lon="7.481081388509073"><ele>179.0</ele><time>2026-03-28T06:47:55Z</time></trkpt><trkpt lat="48.407881458877696" lon="7.480982424900856"><ele>179.0</ele><time>2026-03-28T06:47:56Z</time></trkpt><trkpt lat="48.40762017720615" lon="7.480873521520928"><ele>179.0</ele><time>2026-03-28T06:47:57Z</time></trkpt><trkpt lat="48.40735987931482" lon="7.480761637524993"><ele>179.0</ele><time>2026-03-28T06:47:58Z</time></trkpt><trkpt lat="48.40709702257839" lon="7.480652884087157"><ele>177.5</ele><time>2026-03-28T06:47:59Z</time></trkpt><trkpt lat="48.40683770434737" lon="7.480536193297417"><ele>176.0</ele><time>2026-03-28T06:48:00Z</time></trkpt><trkpt lat="48.406579935826365" lon="7.480413309290817"><ele>174.5</ele><time>2026-03-28T06:48:01Z</time></trkpt><trkpt lat="48.40632159923126" lon="7.480291697358706"><ele>173.0</ele><time>2026-03-28T06:48:02Z</time></trkpt><trkpt lat="48.406065051557256" lon="7.480162699381662"><ele>173.0</ele><time>2026-03-28T06:48:03Z</time></trkpt><trkpt lat="48.405808094235006" lon="7.480031016632837"><ele>173.0</ele><time>2026-03-28T06:48:04Z</time></trkpt><trkpt lat="48.40555135823501" lon="7.479896897953178"><ele>172.0</ele><time>2026-03-28T06:48:05Z</time></trkpt><trkpt lat="48.40529535661603" lon="7.479758613300457"><ele>171.0</ele><time>2026-03-28T06:48:06Z</time></trkpt><trkpt lat="48.405040012218336" lon="7.479617153252245"><ele>171.5</ele><time>2026-03-28T06:48:07Z</time></trkpt><trkpt lat="48.404784186537206" lon="7.4794752827028175"><ele>172.0</ele><time>2026-03-28T06:48:08Z</time></trkpt><trkpt lat="48.40453088848549" lon="7.4793334395619455"><ele>172.0</ele><time>2026-03-28T06:48:09Z</time></trkpt><trkpt lat="48.404275163427" lon="7.479184553622676"><ele>172.0</ele><time>2026-03-28T06:48:10Z</time></trkpt><trkpt lat="48.4040198069173" lon="7.479037784857149"><ele>171.5</ele><time>2026-03-28T06:48:11Z</time></trkpt><trkpt lat="48.40376973999758" lon="7.478888676843136"><ele>171.0</ele><time>2026-03-28T06:48:12Z</time></trkpt><trkpt lat="48.40351817183273" lon="7.4787426023957675"><ele>171.0</ele><time>2026-03-28T06:48:13Z</time></trkpt><trkpt lat="48.403267365984824" lon="7.478591052230657"><ele>171.0</ele><time>2026-03-28T06:48:14Z</time></trkpt><trkpt lat="48.40302004453726" lon="7.478443696288836"><ele>170.5</ele><time>2026-03-28T06:48:15Z</time></trkpt><trkpt lat="48.402770694519425" lon="7.478291502954959"><ele>170.0</ele><time>2026-03-28T06:48:16Z</time></trkpt><trkpt lat="48.40252428323311" lon="7.478143176029484"><ele>170.0</ele><time>2026-03-28T06:48:17Z</time></trkpt><trkpt lat="48.40227705654845" lon="7.477996709369735"><ele>170.0</ele><time>2026-03-28T06:48:18Z</time></trkpt><trkpt lat="48.40202970619421" lon="7.47785243859831"><ele>170.5</ele><time>2026-03-28T06:48:19Z</time></trkpt><trkpt lat="48.401783338290414" lon="7.477706493719451"><ele>171.0</ele><time>2026-03-28T06:48:20Z</time></trkpt><trkpt lat="48.40153473030707" lon="7.477567590320664"><ele>170.0</ele><time>2026-03-28T06:48:21Z</time></trkpt><trkpt lat="48.40128595489574" lon="7.477426499287005"><ele>169.0</ele><time>2026-03-28T06:48:22Z</time></trkpt><trkpt lat="48.40103294192798" lon="7.477291510658952"><ele>169.0</ele><time>2026-03-28T06:48:23Z</time></trkpt><trkpt lat="48.40077997149576" lon="7.477156714821348"><ele>169.0</ele><time>2026-03-28T06:48:24Z</time></trkpt><trkpt lat="48.40053046197976" lon="7.477029803244439"><ele>170.5</ele><time>2026-03-28T06:48:25Z</time></trkpt><trkpt lat="48.40027741204566" lon="7.476909641816586"><ele>172.0</ele><time>2026-03-28T06:48:26Z</time></trkpt><trkpt lat="48.40002447570873" lon="7.476792507795359"><ele>172.0</ele><time>2026-03-28T06:48:27Z</time></trkpt><trkpt lat="48.399772838979615" lon="7.476675521071702"><ele>172.0</ele><time>2026-03-28T06:48:28Z</time></trkpt><trkpt lat="48.39951730975968" lon="7.476562993195547"><ele>172.0</ele><time>2026-03-28T06:48:29Z</time></trkpt><trkpt lat="48.39925915349678" lon="7.476454382208843"><ele>172.0</ele><time>2026-03-28T06:48:30Z</time></trkpt><trkpt lat="48.3990164343807" lon="7.476282719505786"><ele>174.5</ele><time>2026-03-28T06:48:31Z</time></trkpt><trkpt lat="48.39873840531078" lon="7.476253763186988"><ele>177.0</ele><time>2026-03-28T06:48:32Z</time></trkpt><trkpt lat="48.39847527818659" lon="7.476167389380266"><ele>177.0</ele><time>2026-03-28T06:48:33Z</time></trkpt><trkpt lat="48.39820575468522" lon="7.476085169828797"><ele>177.0</ele><time>2026-03-28T06:48:34Z</time></trkpt><trkpt lat="48.397936431138945" lon="7.4760121971508875"><ele>178.0</ele><time>2026-03-28T06:48:35Z</time></trkpt><trkpt lat="48.3976629544229" lon="7.47594728721989"><ele>179.0</ele><time>2026-03-28T06:48:36Z</time></trkpt><trkpt lat="48.39739148909512" lon="7.4758936378174266"><ele>179.5</ele><time>2026-03-28T06:48:37Z</time></trkpt><trkpt lat="48.39712003569876" lon="7.475838092016485"><ele>180.0</ele><time>2026-03-28T06:48:38Z</time></trkpt><trkpt lat="48.39685097811719" lon="7.475791544524187"><ele>180.0</ele><time>2026-03-28T06:48:39Z</time></trkpt><trkpt lat="48.396578553328155" lon="7.4757534895053945"><ele>180.0</ele><time>2026-03-28T06:48:40Z</time></trkpt><trkpt lat="48.39630956703171" lon="7.475720479702548"><ele>181.0</ele><time>2026-03-28T06:48:41Z</time></trkpt><trkpt lat="48.39603762404375" lon="7.475695145119136"><ele>182.0</ele><time>2026-03-28T06:48:42Z</time></trkpt><trkpt lat="48.39576785957162" lon="7.475678301699847"><ele>182.5</ele><time>2026-03-28T06:48:43Z</time></trkpt><trkpt lat="48.39549618948562" lon="7.47566560261255"><ele>183.0</ele><time>2026-03-28T06:48:44Z</time></trkpt><trkpt lat="48.395223587962704" lon="7.475658820495135"><ele>183.0</ele><time>2026-03-28T06:48:45Z</time></trkpt><trkpt lat="48.394949566386444" lon="7.4756593566133125"><ele>183.0</ele><time>2026-03-28T06:48:46Z</time></trkpt><trkpt lat="48.394675701645" lon="7.47566541678681"><ele>182.0</ele><time>2026-03-28T06:48:47Z</time></trkpt><trkpt lat="48.39440236593895" lon="7.4756707839069305"><ele>181.0</ele><time>2026-03-28T06:48:48Z</time></trkpt><trkpt lat="48.39412811814432" lon="7.475686836864583"><ele>181.0</ele><time>2026-03-28T06:48:49Z</time></trkpt><trkpt lat="48.39385570864004" lon="7.475708027847822"><ele>181.0</ele><time>2026-03-28T06:48:50Z</time></trkpt><trkpt lat="48.39357714482944" lon="7.4757343232031"><ele>182.0</ele><time>2026-03-28T06:48:51Z</time></trkpt><trkpt lat="48.393301768422305" lon="7.475766781375526"><ele>183.0</ele><time>2026-03-28T06:48:52Z</time></trkpt><trkpt lat="48.39302565993491" lon="7.475804915072055"><ele>182.5</ele><time>2026-03-28T06:48:53Z</time></trkpt><trkpt lat="48.39275493626911" lon="7.475850093917495"><ele>182.0</ele><time>2026-03-28T06:48:54Z</time></trkpt><trkpt lat="48.392483136904" lon="7.475902206942217"><ele>182.0</ele><time>2026-03-28T06:48:55Z</time></trkpt><trkpt lat="48.39221437753911" lon="7.47595891528283"><ele>182.0</ele><time>2026-03-28T06:48:56Z</time></trkpt><trkpt lat="48.391944970784344" lon="7.476020688677606"><ele>181.5</ele><time>2026-03-28T06:48:57Z</time></trkpt><trkpt lat="48.39167819322701" lon="7.4760903679515405"><ele>181.0</ele><time>2026-03-28T06:48:58Z</time></trkpt><trkpt lat="48.39141076757143" lon="7.476161385853495"><ele>179.5</ele><time>2026-03-28T06:48:59Z</time></trkpt><trkpt lat="48.39114339945212" lon="7.476234134832755"><ele>178.0</ele><time>2026-03-28T06:49:00Z</time></trkpt><trkpt lat="48.390875238936296" lon="7.476307857558433"><ele>177.5</ele><time>2026-03-28T06:49:01Z</time></trkpt><trkpt lat="48.39060632706881" lon="7.476381709721975"><ele>177.0</ele><time>2026-03-28T06:49:02Z</time></trkpt><trkpt lat="48.390338853205826" lon="7.476456620076709"><ele>175.5</ele><time>2026-03-28T06:49:03Z</time></trkpt><trkpt lat="48.39006874579456" lon="7.476532848150216"><ele>174.0</ele><time>2026-03-28T06:49:04Z</time></trkpt><trkpt lat="48.38979952948485" lon="7.476607154488157"><ele>174.0</ele><time>2026-03-28T06:49:05Z</time></trkpt><trkpt lat="48.38952910576741" lon="7.476680839327919"><ele>174.0</ele><time>2026-03-28T06:49:06Z</time></trkpt><trkpt lat="48.38926047957889" lon="7.476752541033981"><ele>174.0</ele><time>2026-03-28T06:49:07Z</time></trkpt><trkpt lat="48.388989181967766" lon="7.476824812263815"><ele>174.0</ele><time>2026-03-28T06:49:08Z</time></trkpt><trkpt lat="48.38872065672203" lon="7.476897816449087"><ele>174.0</ele><time>2026-03-28T06:49:09Z</time></trkpt><trkpt lat="48.38845110735738" lon="7.476972738335849"><ele>174.0</ele><time>2026-03-28T06:49:10Z</time></trkpt><trkpt lat="48.388179855092005" lon="7.4770436819596995"><ele>174.0</ele><time>2026-03-28T06:49:11Z</time></trkpt><trkpt lat="48.38790977186241" lon="7.477118268977305"><ele>174.0</ele><time>2026-03-28T06:49:12Z</time></trkpt><trkpt lat="48.387637838630084" lon="7.477191498391906"><ele>174.0</ele><time>2026-03-28T06:49:13Z</time></trkpt><trkpt lat="48.38736758591313" lon="7.477265000128527"><ele>174.0</ele><time>2026-03-28T06:49:14Z</time></trkpt><trkpt lat="48.38709960075137" lon="7.477338143340416"><ele>174.0</ele><time>2026-03-28T06:49:15Z</time></trkpt><trkpt lat="48.386827927465006" lon="7.477411526538979"><ele>174.0</ele><time>2026-03-28T06:49:16Z</time></trkpt><trkpt lat="48.38655682445646" lon="7.477484404953993"><ele>173.5</ele><time>2026-03-28T06:49:17Z</time></trkpt><trkpt lat="48.3862858919607" lon="7.4775585211542905"><ele>173.0</ele><time>2026-03-28T06:49:18Z</time></trkpt><trkpt lat="48.38601572506005" lon="7.477633869681545"><ele>173.0</ele><time>2026-03-28T06:49:19Z</time></trkpt><trkpt lat="48.385743648296184" lon="7.47770721683508"><ele>173.0</ele><time>2026-03-28T06:49:20Z</time></trkpt><trkpt lat="48.38547420444213" lon="7.477780271623382"><ele>172.5</ele><time>2026-03-28T06:49:21Z</time></trkpt><trkpt lat="48.38520362900886" lon="7.4778506637221405"><ele>172.0</ele><time>2026-03-28T06:49:22Z</time></trkpt><trkpt lat="48.38493192159607" lon="7.477921099000251"><ele>172.5</ele><time>2026-03-28T06:49:23Z</time></trkpt><trkpt lat="48.38466258446477" lon="7.477993109543895"><ele>173.0</ele><time>2026-03-28T06:49:24Z</time></trkpt><trkpt lat="48.38439337715195" lon="7.478066384421425"><ele>173.0</ele><time>2026-03-28T06:49:25Z</time></trkpt><trkpt lat="48.3841253492312" lon="7.478138828278039"><ele>173.0</ele><time>2026-03-28T06:49:26Z</time></trkpt><trkpt lat="48.383858228671194" lon="7.478212414286612"><ele>172.5</ele><time>2026-03-28T06:49:27Z</time></trkpt><trkpt lat="48.383588649315115" lon="7.478286292514281"><ele>172.0</ele><time>2026-03-28T06:49:28Z</time></trkpt><trkpt lat="48.38332060232268" lon="7.478357553605528"><ele>172.0</ele><time>2026-03-28T06:49:29Z</time></trkpt><trkpt lat="48.38305144300988" lon="7.478427617686101"><ele>172.0</ele><time>2026-03-28T06:49:30Z</time></trkpt><trkpt lat="48.38278412254041" lon="7.478499499059854"><ele>172.5</ele><time>2026-03-28T06:49:31Z</time></trkpt><trkpt lat="48.38251819328041" lon="7.478574720231501"><ele>173.0</ele><time>2026-03-28T06:49:32Z</time></trkpt><trkpt lat="48.38225230939763" lon="7.478645058100821"><ele>173.0</ele><time>2026-03-28T06:49:33Z</time></trkpt><trkpt lat="48.3819872563237" lon="7.4787183405705795"><ele>173.0</ele><time>2026-03-28T06:49:34Z</time></trkpt><trkpt lat="48.38172084984226" lon="7.478788192325227"><ele>173.0</ele><time>2026-03-28T06:49:35Z</time></trkpt><trkpt lat="48.38145441757738" lon="7.478860282708709"><ele>173.0</ele><time>2026-03-28T06:49:36Z</time></trkpt><trkpt lat="48.3811884123734" lon="7.478930375451482"><ele>173.0</ele><time>2026-03-28T06:49:37Z</time></trkpt><trkpt lat="48.38092368406635" lon="7.479002660151407"><ele>173.0</ele><time>2026-03-28T06:49:38Z</time></trkpt><trkpt lat="48.38065555399262" lon="7.479072640267797"><ele>173.0</ele><time>2026-03-28T06:49:39Z</time></trkpt><trkpt lat="48.380388557006135" lon="7.4791442401675345"><ele>173.0</ele><time>2026-03-28T06:49:40Z</time></trkpt><trkpt lat="48.38012404760773" lon="7.479217478980883"><ele>173.0</ele><time>2026-03-28T06:49:41Z</time></trkpt><trkpt lat="48.37985823669696" lon="7.479291388271432"><ele>173.0</ele><time>2026-03-28T06:49:42Z</time></trkpt><trkpt lat="48.37959308941905" lon="7.479366982467122"><ele>171.0</ele><time>2026-03-28T06:49:43Z</time></trkpt><trkpt lat="48.37932557716248" lon="7.479439632394929"><ele>169.0</ele><time>2026-03-28T06:49:44Z</time></trkpt><trkpt lat="48.37906011731728" lon="7.479517205967037"><ele>169.0</ele><time>2026-03-28T06:49:45Z</time></trkpt><trkpt lat="48.37879408219626" lon="7.479596393433891"><ele>169.0</ele><time>2026-03-28T06:49:46Z</time></trkpt><trkpt lat="48.378523232629874" lon="7.4796775776799995"><ele>169.0</ele><time>2026-03-28T06:49:47Z</time></trkpt><trkpt lat="48.378257136065656" lon="7.47975421611272"><ele>169.0</ele><time>2026-03-28T06:49:48Z</time></trkpt><trkpt lat="48.3779947492584" lon="7.479831580970957"><ele>169.5</ele><time>2026-03-28T06:49:49Z</time></trkpt><trkpt lat="48.37773145643052" lon="7.479906242597288"><ele>170.0</ele><time>2026-03-28T06:49:50Z</time></trkpt><trkpt lat="48.37747405402834" lon="7.479983733896508"><ele>170.0</ele><time>2026-03-28T06:49:51Z</time></trkpt><trkpt lat="48.37721868853494" lon="7.48005623383326"><ele>170.0</ele><time>2026-03-28T06:49:52Z</time></trkpt><trkpt lat="48.3769677368543" lon="7.480130652685628"><ele>169.5</ele><time>2026-03-28T06:49:53Z</time></trkpt><trkpt lat="48.376714547984605" lon="7.480204277723641"><ele>169.0</ele><time>2026-03-28T06:49:54Z</time></trkpt><trkpt lat="48.37646960713014" lon="7.480276993060321"><ele>168.0</ele><time>2026-03-28T06:49:55Z</time></trkpt><trkpt lat="48.37623020161309" lon="7.480353240740637"><ele>167.0</ele><time>2026-03-28T06:49:56Z</time></trkpt><trkpt lat="48.37599317611153" lon="7.480430069788346"><ele>168.0</ele><time>2026-03-28T06:49:57Z</time></trkpt><trkpt lat="48.37575907205274" lon="7.4805055061681855"><ele>169.0</ele><time>2026-03-28T06:49:58Z</time></trkpt><trkpt lat="48.37552765618102" lon="7.480586063537835"><ele>169.0</ele><time>2026-03-28T06:49:59Z</time></trkpt><trkpt lat="48.37529752387215" lon="7.48066923516287"><ele>169.0</ele><time>2026-03-28T06:50:00Z</time></trkpt><trkpt lat="48.37506811425508" lon="7.4807605277571065"><ele>169.0</ele><time>2026-03-28T06:50:01Z</time></trkpt><trkpt lat="48.37483390935448" lon="7.480853175878267"><ele>169.0</ele><time>2026-03-28T06:50:02Z</time></trkpt><trkpt lat="48.37460012957896" lon="7.480956084165906"><ele>169.0</ele><time>2026-03-28T06:50:03Z</time></trkpt><trkpt lat="48.374366566344236" lon="7.481064255791538"><ele>169.0</ele><time>2026-03-28T06:50:04Z</time></trkpt><trkpt lat="48.37413575012193" lon="7.4811758784881"><ele>169.5</ele><time>2026-03-28T06:50:05Z</time></trkpt><trkpt lat="48.37390897695154" lon="7.481291935527305"><ele>170.0</ele><time>2026-03-28T06:50:06Z</time></trkpt><trkpt lat="48.373677218433805" lon="7.481411109466441"><ele>170.0</ele><time>2026-03-28T06:50:07Z</time></trkpt><trkpt lat="48.3734467930095" lon="7.48153999634166"><ele>170.0</ele><time>2026-03-28T06:50:08Z</time></trkpt><trkpt lat="48.37321640289316" lon="7.481670474284464"><ele>169.5</ele><time>2026-03-28T06:50:09Z</time></trkpt><trkpt lat="48.37298237823884" lon="7.481809515338889"><ele>169.0</ele><time>2026-03-28T06:50:10Z</time></trkpt><trkpt lat="48.37275036574316" lon="7.481956460608582"><ele>168.0</ele><time>2026-03-28T06:50:11Z</time></trkpt><trkpt lat="48.372516968886586" lon="7.482102960239513"><ele>167.0</ele><time>2026-03-28T06:50:12Z</time></trkpt><trkpt lat="48.372281059511955" lon="7.482257562858055"><ele>167.5</ele><time>2026-03-28T06:50:13Z</time></trkpt><trkpt lat="48.37205071219637" lon="7.4824201877431245"><ele>168.0</ele><time>2026-03-28T06:50:14Z</time></trkpt><trkpt lat="48.37181864210905" lon="7.482586367015588"><ele>168.0</ele><time>2026-03-28T06:50:15Z</time></trkpt><trkpt lat="48.37158622881085" lon="7.4827589221219375"><ele>168.0</ele><time>2026-03-28T06:50:16Z</time></trkpt><trkpt lat="48.37135364545323" lon="7.482936738204772"><ele>168.0</ele><time>2026-03-28T06:50:17Z</time></trkpt><trkpt lat="48.37112249372019" lon="7.4831209806257215"><ele>168.0</ele><time>2026-03-28T06:50:18Z</time></trkpt><trkpt lat="48.37089325803508" lon="7.48331165479072"><ele>168.0</ele><time>2026-03-28T06:50:19Z</time></trkpt><trkpt lat="48.370667902133675" lon="7.4835072213755245"><ele>168.0</ele><time>2026-03-28T06:50:20Z</time></trkpt><trkpt lat="48.37044378633871" lon="7.4837099900468065"><ele>167.5</ele><time>2026-03-28T06:50:21Z</time></trkpt><trkpt lat="48.3702182119053" lon="7.4839184605212585"><ele>167.0</ele><time>2026-03-28T06:50:22Z</time></trkpt><trkpt lat="48.36999528549155" lon="7.484131861490522"><ele>167.0</ele><time>2026-03-28T06:50:23Z</time></trkpt><trkpt lat="48.36977267879735" lon="7.484352104983526"><ele>167.0</ele><time>2026-03-28T06:50:24Z</time></trkpt><trkpt lat="48.36955107492649" lon="7.484577462746325"><ele>167.0</ele><time>2026-03-28T06:50:25Z</time></trkpt><trkpt lat="48.36933158930556" lon="7.484811398161068"><ele>167.0</ele><time>2026-03-28T06:50:26Z</time></trkpt><trkpt lat="48.36911292572254" lon="7.485047219851771"><ele>167.0</ele><time>2026-03-28T06:50:27Z</time></trkpt><trkpt lat="48.368896038444305" lon="7.485281080400836"><ele>167.0</ele><time>2026-03-28T06:50:28Z</time></trkpt><trkpt lat="48.368681286313496" lon="7.485513617502806"><ele>167.0</ele><time>2026-03-28T06:50:29Z</time></trkpt><trkpt lat="48.36846502228756" lon="7.4857539083371245"><ele>167.0</ele><time>2026-03-28T06:50:30Z</time></trkpt><trkpt lat="48.368257444733295" lon="7.486000756187054"><ele>167.0</ele><time>2026-03-28T06:50:31Z</time></trkpt><trkpt lat="48.36805914558633" lon="7.4862568668515355"><ele>167.0</ele><time>2026-03-28T06:50:32Z</time></trkpt><trkpt lat="48.36786349233516" lon="7.486515913332823"><ele>167.5</ele><time>2026-03-28T06:50:33Z</time></trkpt><trkpt lat="48.36766816964937" lon="7.486778769402705"><ele>168.0</ele><time>2026-03-28T06:50:34Z</time></trkpt><trkpt lat="48.367473989867" lon="7.487045033721247"><ele>167.0</ele><time>2026-03-28T06:50:35Z</time></trkpt><trkpt lat="48.3672854574307" lon="7.4873212563964735"><ele>166.0</ele><time>2026-03-28T06:50:36Z</time></trkpt><trkpt lat="48.36709777606989" lon="7.487597540935583"><ele>165.0</ele><time>2026-03-28T06:50:37Z</time></trkpt><trkpt lat="48.366911959238934" lon="7.487873845113714"><ele>164.0</ele><time>2026-03-28T06:50:38Z</time></trkpt><trkpt lat="48.36672812883375" lon="7.488151623106863"><ele>163.5</ele><time>2026-03-28T06:50:39Z</time></trkpt><trkpt lat="48.36654469805129" lon="7.4884337479054945"><ele>163.0</ele><time>2026-03-28T06:50:40Z</time></trkpt><trkpt lat="48.36636556380613" lon="7.488716345228044"><ele>163.5</ele><time>2026-03-28T06:50:41Z</time></trkpt><trkpt lat="48.36618554545509" lon="7.488994862489996"><ele>164.0</ele><time>2026-03-28T06:50:42Z</time></trkpt><trkpt lat="48.366007035879804" lon="7.489274638764952"><ele>164.0</ele><time>2026-03-28T06:50:43Z</time></trkpt><trkpt lat="48.3658305164444" lon="7.489553005735218"><ele>164.0</ele><time>2026-03-28T06:50:44Z</time></trkpt><trkpt lat="48.36565318611947" lon="7.489829612657876"><ele>163.5</ele><time>2026-03-28T06:50:45Z</time></trkpt><trkpt lat="48.36547672440311" lon="7.490105409203997"><ele>163.0</ele><time>2026-03-28T06:50:46Z</time></trkpt><trkpt lat="48.36529772259272" lon="7.490383992929463"><ele>163.0</ele><time>2026-03-28T06:50:47Z</time></trkpt><trkpt lat="48.36511508262103" lon="7.490662810623128"><ele>163.0</ele><time>2026-03-28T06:50:48Z</time></trkpt><trkpt lat="48.364930000738525" lon="7.490939159997078"><ele>163.0</ele><time>2026-03-28T06:50:49Z</time></trkpt><trkpt lat="48.3647393626273" lon="7.491221544152939"><ele>163.0</ele><time>2026-03-28T06:50:50Z</time></trkpt><trkpt lat="48.36454647805675" lon="7.491497243089464"><ele>162.0</ele><time>2026-03-28T06:50:51Z</time></trkpt><trkpt lat="48.36435097224188" lon="7.491778050983229"><ele>161.0</ele><time>2026-03-28T06:50:52Z</time></trkpt><trkpt lat="48.36415192708272" lon="7.4920573595869895"><ele>161.0</ele><time>2026-03-28T06:50:53Z</time></trkpt><trkpt lat="48.36395381325854" lon="7.492333383537294"><ele>161.0</ele><time>2026-03-28T06:50:54Z</time></trkpt><trkpt lat="48.36375678961962" lon="7.492608825210673"><ele>161.0</ele><time>2026-03-28T06:50:55Z</time></trkpt><trkpt lat="48.36354545875966" lon="7.492884341401851"><ele>161.0</ele><time>2026-03-28T06:50:56Z</time></trkpt><trkpt lat="48.363342769920195" lon="7.493153411984331"><ele>161.0</ele><time>2026-03-28T06:50:57Z</time></trkpt><trkpt lat="48.36313360195264" lon="7.4934212608425765"><ele>161.0</ele><time>2026-03-28T06:50:58Z</time></trkpt><trkpt lat="48.36291828699281" lon="7.493682665861201"><ele>161.0</ele><time>2026-03-28T06:50:59Z</time></trkpt><trkpt lat="48.36270232344229" lon="7.49394021351323"><ele>161.0</ele><time>2026-03-28T06:51:00Z</time></trkpt><trkpt lat="48.362482011992576" lon="7.494198561395998"><ele>161.0</ele><time>2026-03-28T06:51:01Z</time></trkpt><trkpt lat="48.362259679166044" lon="7.494451032787589"><ele>161.0</ele><time>2026-03-28T06:51:02Z</time></trkpt><trkpt lat="48.362035424433614" lon="7.494697284746522"><ele>161.5</ele><time>2026-03-28T06:51:03Z</time></trkpt><trkpt lat="48.361810795422485" lon="7.494944529008018"><ele>162.0</ele><time>2026-03-28T06:51:04Z</time></trkpt><trkpt lat="48.36158270051292" lon="7.495189190368099"><ele>161.0</ele><time>2026-03-28T06:51:05Z</time></trkpt><trkpt lat="48.361351793525394" lon="7.495431868572561"><ele>160.0</ele><time>2026-03-28T06:51:06Z</time></trkpt><trkpt lat="48.36111565883138" lon="7.4956670852056115"><ele>160.0</ele><time>2026-03-28T06:51:07Z</time></trkpt><trkpt lat="48.36087657954732" lon="7.495902423246054"><ele>160.0</ele><time>2026-03-28T06:51:08Z</time></trkpt><trkpt lat="48.36063508088442" lon="7.4961340354687085"><ele>159.5</ele><time>2026-03-28T06:51:09Z</time></trkpt><trkpt lat="48.36039254347336" lon="7.496362471127107"><ele>159.0</ele><time>2026-03-28T06:51:10Z</time></trkpt><trkpt lat="48.36014989707949" lon="7.496582437032488"><ele>159.0</ele><time>2026-03-28T06:51:11Z</time></trkpt><trkpt lat="48.359903328955305" lon="7.496799864401517"><ele>159.0</ele><time>2026-03-28T06:51:12Z</time></trkpt><trkpt lat="48.35965563553518" lon="7.497007866761079"><ele>159.0</ele><time>2026-03-28T06:51:13Z</time></trkpt><trkpt lat="48.35940636470048" lon="7.497214638558778"><ele>159.0</ele><time>2026-03-28T06:51:14Z</time></trkpt><trkpt lat="48.359153609130324" lon="7.497417825049205"><ele>159.0</ele><time>2026-03-28T06:51:15Z</time></trkpt><trkpt lat="48.358900091894135" lon="7.497613262803323"><ele>159.0</ele><time>2026-03-28T06:51:16Z</time></trkpt><trkpt lat="48.35864496057669" lon="7.497802069907039"><ele>159.0</ele><time>2026-03-28T06:51:17Z</time></trkpt><trkpt lat="48.3583918032793" lon="7.49798938805274"><ele>159.0</ele><time>2026-03-28T06:51:18Z</time></trkpt><trkpt lat="48.35813621789263" lon="7.498170833762481"><ele>158.0</ele><time>2026-03-28T06:51:19Z</time></trkpt><trkpt lat="48.35788115042401" lon="7.49834469500019"><ele>157.0</ele><time>2026-03-28T06:51:20Z</time></trkpt><trkpt lat="48.357624443153206" lon="7.498512432124012"><ele>157.0</ele><time>2026-03-28T06:51:21Z</time></trkpt><trkpt lat="48.35736820298248" lon="7.49867606621654"><ele>157.0</ele><time>2026-03-28T06:51:22Z</time></trkpt><trkpt lat="48.357107841487924" lon="7.498836721368148"><ele>158.0</ele><time>2026-03-28T06:51:23Z</time></trkpt><trkpt lat="48.35684704367054" lon="7.498989474953097"><ele>159.0</ele><time>2026-03-28T06:51:24Z</time></trkpt><trkpt lat="48.35658721156605" lon="7.499135767391211"><ele>158.5</ele><time>2026-03-28T06:51:25Z</time></trkpt><trkpt lat="48.35632877339713" lon="7.499277829698"><ele>158.0</ele><time>2026-03-28T06:51:26Z</time></trkpt><trkpt lat="48.35606956043535" lon="7.49941778887875"><ele>158.0</ele><time>2026-03-28T06:51:27Z</time></trkpt><trkpt lat="48.355812092530954" lon="7.499554568987244"><ele>158.0</ele><time>2026-03-28T06:51:28Z</time></trkpt><trkpt lat="48.35555208068699" lon="7.499686171335377"><ele>159.0</ele><time>2026-03-28T06:51:29Z</time></trkpt><trkpt lat="48.35529419759234" lon="7.499816908023825"><ele>160.0</ele><time>2026-03-28T06:51:30Z</time></trkpt><trkpt lat="48.35503159109057" lon="7.499938521989253"><ele>160.0</ele><time>2026-03-28T06:51:31Z</time></trkpt><trkpt lat="48.35477399849091" lon="7.5000568003615795"><ele>160.0</ele><time>2026-03-28T06:51:32Z</time></trkpt><trkpt lat="48.35451542044701" lon="7.500168495389615"><ele>159.0</ele><time>2026-03-28T06:51:33Z</time></trkpt><trkpt lat="48.35425611202162" lon="7.500280570327417"><ele>158.0</ele><time>2026-03-28T06:51:34Z</time></trkpt><trkpt lat="48.35399845749854" lon="7.500386557221826"><ele>157.5</ele><time>2026-03-28T06:51:35Z</time></trkpt><trkpt lat="48.353739307163146" lon="7.500488630978202"><ele>157.0</ele><time>2026-03-28T06:51:36Z</time></trkpt><trkpt lat="48.35347812054999" lon="7.50058560783179"><ele>157.0</ele><time>2026-03-28T06:51:37Z</time></trkpt><trkpt lat="48.35321889556579" lon="7.500677080860119"><ele>157.0</ele><time>2026-03-28T06:51:38Z</time></trkpt><trkpt lat="48.352957693342006" lon="7.50076618592306"><ele>157.5</ele><time>2026-03-28T06:51:39Z</time></trkpt><trkpt lat="48.35269979370421" lon="7.500848509995085"><ele>158.0</ele><time>2026-03-28T06:51:40Z</time></trkpt><trkpt lat="48.352442472215735" lon="7.500926283181832"><ele>159.0</ele><time>2026-03-28T06:51:41Z</time></trkpt><trkpt lat="48.352186226540745" lon="7.5010037715859355"><ele>160.0</ele><time>2026-03-28T06:51:42Z</time></trkpt><trkpt lat="48.35192693331545" lon="7.501074797406517"><ele>160.0</ele><time>2026-03-28T06:51:43Z</time></trkpt><trkpt lat="48.35166873253025" lon="7.501140292327887"><ele>160.0</ele><time>2026-03-28T06:51:44Z</time></trkpt><trkpt lat="48.351406703025596" lon="7.501202079946751"><ele>159.0</ele><time>2026-03-28T06:51:45Z</time></trkpt><trkpt lat="48.35114402232763" lon="7.501259314505724"><ele>158.0</ele><time>2026-03-28T06:51:46Z</time></trkpt><trkpt lat="48.35088016028278" lon="7.501315083358612"><ele>158.0</ele><time>2026-03-28T06:51:47Z</time></trkpt><trkpt lat="48.350614532057406" lon="7.5013648310080585"><ele>158.0</ele><time>2026-03-28T06:51:48Z</time></trkpt><trkpt lat="48.35034892941632" lon="7.501409397782449"><ele>158.5</ele><time>2026-03-28T06:51:49Z</time></trkpt><trkpt lat="48.350080105158106" lon="7.501445108261565"><ele>159.0</ele><time>2026-03-28T06:51:50Z</time></trkpt><trkpt lat="48.34981383775599" lon="7.50147768117529"><ele>159.0</ele><time>2026-03-28T06:51:51Z</time></trkpt><trkpt lat="48.34954750927584" lon="7.50150756901655"><ele>159.0</ele><time>2026-03-28T06:51:52Z</time></trkpt><trkpt lat="48.34928033506473" lon="7.501535069701001"><ele>159.0</ele><time>2026-03-28T06:51:53Z</time></trkpt><trkpt lat="48.34900870324497" lon="7.501558586960716"><ele>159.0</ele><time>2026-03-28T06:51:54Z</time></trkpt><trkpt lat="48.348740809444024" lon="7.501578509067652"><ele>158.5</ele><time>2026-03-28T06:51:55Z</time></trkpt><trkpt lat="48.34847392737364" lon="7.501590263985041"><ele>158.0</ele><time>2026-03-28T06:51:56Z</time></trkpt><trkpt lat="48.34820905914642" lon="7.501598386281155"><ele>159.0</ele><time>2026-03-28T06:51:57Z</time></trkpt><trkpt lat="48.347943806624336" lon="7.501603292135327"><ele>160.0</ele><time>2026-03-28T06:51:58Z</time></trkpt><trkpt lat="48.34767387753466" lon="7.501603496845993"><ele>160.0</ele><time>2026-03-28T06:51:59Z</time></trkpt><trkpt lat="48.34740667379148" lon="7.501598133532306"><ele>160.0</ele><time>2026-03-28T06:52:00Z</time></trkpt><trkpt lat="48.3471376529318" lon="7.501590059031971"><ele>161.0</ele><time>2026-03-28T06:52:01Z</time></trkpt><trkpt lat="48.346869575655575" lon="7.501574784067912"><ele>162.0</ele><time>2026-03-28T06:52:02Z</time></trkpt><trkpt lat="48.34660067878632" lon="7.501557509158013"><ele>162.0</ele><time>2026-03-28T06:52:03Z</time></trkpt><trkpt lat="48.346331492360626" lon="7.5015363082488955"><ele>162.0</ele><time>2026-03-28T06:52:04Z</time></trkpt><trkpt lat="48.346063988718555" lon="7.50150977430413"><ele>162.0</ele><time>2026-03-28T06:52:05Z</time></trkpt><trkpt lat="48.34579985813191" lon="7.501479440693013"><ele>162.0</ele><time>2026-03-28T06:52:06Z</time></trkpt><trkpt lat="48.34553180771243" lon="7.501445940738754"><ele>162.0</ele><time>2026-03-28T06:52:07Z</time></trkpt><trkpt lat="48.34526512284707" lon="7.501407148607699"><ele>162.0</ele><time>2026-03-28T06:52:08Z</time></trkpt><trkpt lat="48.34499853886701" lon="7.501362324963022"><ele>162.0</ele><time>2026-03-28T06:52:09Z</time></trkpt><trkpt lat="48.34473149511541" lon="7.501314276031827"><ele>162.0</ele><time>2026-03-28T06:52:10Z</time></trkpt><trkpt lat="48.34446696649893" lon="7.5012629661167525"><ele>161.0</ele><time>2026-03-28T06:52:11Z</time></trkpt><trkpt lat="48.34420325398814" lon="7.501203236878559"><ele>160.0</ele><time>2026-03-28T06:52:12Z</time></trkpt><trkpt lat="48.34393864485749" lon="7.50114288642367"><ele>161.0</ele><time>2026-03-28T06:52:13Z</time></trkpt><trkpt lat="48.34367277078289" lon="7.501084578176614"><ele>162.0</ele><time>2026-03-28T06:52:14Z</time></trkpt><trkpt lat="48.343410805105286" lon="7.501030168827834"><ele>162.0</ele><time>2026-03-28T06:52:15Z</time></trkpt><trkpt lat="48.34314726221607" lon="7.500964949951071"><ele>162.0</ele><time>2026-03-28T06:52:16Z</time></trkpt><trkpt lat="48.342885106383015" lon="7.500905627961927"><ele>161.0</ele><time>2026-03-28T06:52:17Z</time></trkpt><trkpt lat="48.34262136167842" lon="7.5008424994806475"><ele>160.0</ele><time>2026-03-28T06:52:18Z</time></trkpt><trkpt lat="48.34235707025224" lon="7.500780762427071"><ele>158.5</ele><time>2026-03-28T06:52:19Z</time></trkpt><trkpt lat="48.342094979700086" lon="7.500720410189303"><ele>157.0</ele><time>2026-03-28T06:52:20Z</time></trkpt><trkpt lat="48.341831820022776" lon="7.500653545442163"><ele>157.0</ele><time>2026-03-28T06:52:21Z</time></trkpt><trkpt lat="48.34156583182407" lon="7.500589389859035"><ele>157.0</ele><time>2026-03-28T06:52:22Z</time></trkpt><trkpt lat="48.34130269273266" lon="7.500529705374203"><ele>158.0</ele><time>2026-03-28T06:52:23Z</time></trkpt><trkpt lat="48.3410419994988" lon="7.500468978719094"><ele>159.0</ele><time>2026-03-28T06:52:24Z</time></trkpt><trkpt lat="48.34077786055847" lon="7.500409049366845"><ele>160.5</ele><time>2026-03-28T06:52:25Z</time></trkpt><trkpt lat="48.34051463409949" lon="7.500349660206267"><ele>162.0</ele><time>2026-03-28T06:52:26Z</time></trkpt><trkpt lat="48.34025188052375" lon="7.500290527918143"><ele>162.0</ele><time>2026-03-28T06:52:27Z</time></trkpt><trkpt lat="48.33998948830208" lon="7.500230138894872"><ele>162.0</ele><time>2026-03-28T06:52:28Z</time></trkpt><trkpt lat="48.339725798513435" lon="7.50017089846562"><ele>162.5</ele><time>2026-03-28T06:52:29Z</time></trkpt><trkpt lat="48.33946392658198" lon="7.500111333015851"><ele>163.0</ele><time>2026-03-28T06:52:30Z</time></trkpt><trkpt lat="48.33919974133449" lon="7.500051091362667"><ele>163.0</ele><time>2026-03-28T06:52:31Z</time></trkpt><trkpt lat="48.33893724724092" lon="7.49999003735191"><ele>163.0</ele><time>2026-03-28T06:52:32Z</time></trkpt><trkpt lat="48.33867600550755" lon="7.499928834220289"><ele>162.0</ele><time>2026-03-28T06:52:33Z</time></trkpt><trkpt lat="48.338415243556646" lon="7.499866938336869"><ele>161.0</ele><time>2026-03-28T06:52:34Z</time></trkpt><trkpt lat="48.338153342890585" lon="7.499806429334602"><ele>161.5</ele><time>2026-03-28T06:52:35Z</time></trkpt><trkpt lat="48.33789021848269" lon="7.499743712219123"><ele>162.0</ele><time>2026-03-28T06:52:36Z</time></trkpt><trkpt lat="48.33762627595666" lon="7.499681838565233"><ele>162.0</ele><time>2026-03-28T06:52:37Z</time></trkpt><trkpt lat="48.33736354687005" lon="7.49962131245543"><ele>162.0</ele><time>2026-03-28T06:52:38Z</time></trkpt><trkpt lat="48.33710159361938" lon="7.499562416145167"><ele>160.5</ele><time>2026-03-28T06:52:39Z</time></trkpt><trkpt lat="48.33683798817954" lon="7.499503280206543"><ele>159.0</ele><time>2026-03-28T06:52:40Z</time></trkpt><trkpt lat="48.33657436873639" lon="7.49944163016528"><ele>159.5</ele><time>2026-03-28T06:52:41Z</time></trkpt><trkpt lat="48.33631052679906" lon="7.499379924216598"><ele>160.0</ele><time>2026-03-28T06:52:42Z</time></trkpt><trkpt lat="48.33604614704734" lon="7.4993186323691585"><ele>160.0</ele><time>2026-03-28T06:52:43Z</time></trkpt><trkpt lat="48.33578275934056" lon="7.499256954464756"><ele>160.0</ele><time>2026-03-28T06:52:44Z</time></trkpt><trkpt lat="48.3355192668994" lon="7.499196127584275"><ele>161.0</ele><time>2026-03-28T06:52:45Z</time></trkpt><trkpt lat="48.33525468605242" lon="7.499134398872736"><ele>162.0</ele><time>2026-03-28T06:52:46Z</time></trkpt><trkpt lat="48.33499162186406" lon="7.499073600961277"><ele>162.0</ele><time>2026-03-28T06:52:47Z</time></trkpt><trkpt lat="48.334729363959866" lon="7.499010191932648"><ele>162.0</ele><time>2026-03-28T06:52:48Z</time></trkpt><trkpt lat="48.33446540746294" lon="7.498948592958339"><ele>162.5</ele><time>2026-03-28T06:52:49Z</time></trkpt><trkpt lat="48.33420236984022" lon="7.49888648523691"><ele>163.0</ele><time>2026-03-28T06:52:50Z</time></trkpt><trkpt lat="48.333939528544484" lon="7.498825315083698"><ele>162.5</ele><time>2026-03-28T06:52:51Z</time></trkpt><trkpt lat="48.33367531623384" lon="7.498764092693676"><ele>162.0</ele><time>2026-03-28T06:52:52Z</time></trkpt><trkpt lat="48.33340971654945" lon="7.498702873486923"><ele>162.0</ele><time>2026-03-28T06:52:53Z</time></trkpt><trkpt lat="48.333145833219355" lon="7.498642485706284"><ele>162.0</ele><time>2026-03-28T06:52:54Z</time></trkpt><trkpt lat="48.33288225746605" lon="7.498577484132627"><ele>163.5</ele><time>2026-03-28T06:52:55Z</time></trkpt><trkpt lat="48.33262064973637" lon="7.498510090734239"><ele>165.0</ele><time>2026-03-28T06:52:56Z</time></trkpt><trkpt lat="48.332357042759114" lon="7.498439562551102"><ele>165.0</ele><time>2026-03-28T06:52:57Z</time></trkpt><trkpt lat="48.33209589175192" lon="7.498368486140975"><ele>165.0</ele><time>2026-03-28T06:52:58Z</time></trkpt><trkpt lat="48.33183506952848" lon="7.49829004093957"><ele>165.0</ele><time>2026-03-28T06:52:59Z</time></trkpt><trkpt lat="48.331572395627106" lon="7.498211981445344"><ele>165.0</ele><time>2026-03-28T06:53:00Z</time></trkpt><trkpt lat="48.331310061345945" lon="7.498124815132975"><ele>164.0</ele><time>2026-03-28T06:53:01Z</time></trkpt><trkpt lat="48.33105141188622" lon="7.498031129075206"><ele>163.0</ele><time>2026-03-28T06:53:02Z</time></trkpt><trkpt lat="48.330791193218644" lon="7.497931073748858"><ele>165.5</ele><time>2026-03-28T06:53:03Z</time></trkpt><trkpt lat="48.33053172066387" lon="7.497823040276257"><ele>168.0</ele><time>2026-03-28T06:53:04Z</time></trkpt><trkpt lat="48.33027213433594" lon="7.497708001994845"><ele>168.0</ele><time>2026-03-28T06:53:05Z</time></trkpt><trkpt lat="48.33001593978719" lon="7.497587217682431"><ele>168.0</ele><time>2026-03-28T06:53:06Z</time></trkpt><trkpt lat="48.32976014213671" lon="7.497462296360714"><ele>166.5</ele><time>2026-03-28T06:53:07Z</time></trkpt><trkpt lat="48.3295051902455" lon="7.497334096473489"><ele>165.0</ele><time>2026-03-28T06:53:08Z</time></trkpt><trkpt lat="48.32925302844258" lon="7.497199080674137"><ele>166.0</ele><time>2026-03-28T06:53:09Z</time></trkpt><trkpt lat="48.32900453678584" lon="7.497058153820495"><ele>167.0</ele><time>2026-03-28T06:53:10Z</time></trkpt><trkpt lat="48.32875688659373" lon="7.496913011326695"><ele>167.0</ele><time>2026-03-28T06:53:11Z</time></trkpt><trkpt lat="48.328509787536795" lon="7.496758878979199"><ele>167.0</ele><time>2026-03-28T06:53:12Z</time></trkpt><trkpt lat="48.3282638214197" lon="7.496598704303864"><ele>166.0</ele><time>2026-03-28T06:53:13Z</time></trkpt><trkpt lat="48.32801787094644" lon="7.496436384429628"><ele>165.0</ele><time>2026-03-28T06:53:14Z</time></trkpt><trkpt lat="48.327778260548605" lon="7.496266383515708"><ele>165.0</ele><time>2026-03-28T06:53:15Z</time></trkpt><trkpt lat="48.32753545176951" lon="7.4960932803356775"><ele>165.0</ele><time>2026-03-28T06:53:16Z</time></trkpt><trkpt lat="48.32729887383176" lon="7.4959167379292815"><ele>164.0</ele><time>2026-03-28T06:53:17Z</time></trkpt><trkpt lat="48.327063220179944" lon="7.495730648908866"><ele>163.0</ele><time>2026-03-28T06:53:18Z</time></trkpt><trkpt lat="48.32682755713295" lon="7.49553922329114"><ele>162.5</ele><time>2026-03-28T06:53:19Z</time></trkpt><trkpt lat="48.32659581571125" lon="7.495342548442803"><ele>162.0</ele><time>2026-03-28T06:53:20Z</time></trkpt><trkpt lat="48.32636602226088" lon="7.495142052299697"><ele>162.0</ele><time>2026-03-28T06:53:21Z</time></trkpt><trkpt lat="48.326138822338315" lon="7.494935909222097"><ele>162.0</ele><time>2026-03-28T06:53:22Z</time></trkpt><trkpt lat="48.325911216402815" lon="7.4947245426916105"><ele>162.0</ele><time>2026-03-28T06:53:23Z</time></trkpt><trkpt lat="48.32568629126861" lon="7.494508617117347"><ele>162.0</ele><time>2026-03-28T06:53:24Z</time></trkpt><trkpt lat="48.325464568290045" lon="7.494289636818543"><ele>162.0</ele><time>2026-03-28T06:53:25Z</time></trkpt><trkpt lat="48.32524555858179" lon="7.494060157926376"><ele>162.0</ele><time>2026-03-28T06:53:26Z</time></trkpt><trkpt lat="48.32502857051135" lon="7.49382730262799"><ele>162.5</ele><time>2026-03-28T06:53:27Z</time></trkpt><trkpt lat="48.3248107568426" lon="7.493592946555481"><ele>163.0</ele><time>2026-03-28T06:53:28Z</time></trkpt><trkpt lat="48.32459540012316" lon="7.49335204862058"><ele>163.0</ele><time>2026-03-28T06:53:29Z</time></trkpt><trkpt lat="48.32438104239212" lon="7.493107615712918"><ele>163.0</ele><time>2026-03-28T06:53:30Z</time></trkpt><trkpt lat="48.32417179808759" lon="7.492856226201429"><ele>163.0</ele><time>2026-03-28T06:53:31Z</time></trkpt><trkpt lat="48.32396295850464" lon="7.492598162551575"><ele>163.0</ele><time>2026-03-28T06:53:32Z</time></trkpt><trkpt lat="48.32375515498028" lon="7.492338100382592"><ele>163.5</ele><time>2026-03-28T06:53:33Z</time></trkpt><trkpt lat="48.323551538191204" lon="7.4920717698282555"><ele>164.0</ele><time>2026-03-28T06:53:34Z</time></trkpt><trkpt lat="48.323348714923775" lon="7.491798493130875"><ele>164.0</ele><time>2026-03-28T06:53:35Z</time></trkpt><trkpt lat="48.323151556714876" lon="7.491520820119867"><ele>164.0</ele><time>2026-03-28T06:53:36Z</time></trkpt><trkpt lat="48.32295803259608" lon="7.491238058235088"><ele>164.0</ele><time>2026-03-28T06:53:37Z</time></trkpt><trkpt lat="48.32276540240864" lon="7.490950239245353"><ele>164.0</ele><time>2026-03-28T06:53:38Z</time></trkpt><trkpt lat="48.32257424926222" lon="7.490659272946466"><ele>164.0</ele><time>2026-03-28T06:53:39Z</time></trkpt><trkpt lat="48.32238597357011" lon="7.490362158656317"><ele>164.0</ele><time>2026-03-28T06:53:40Z</time></trkpt><trkpt lat="48.32219913334518" lon="7.490063231532439"><ele>164.0</ele><time>2026-03-28T06:53:41Z</time></trkpt><trkpt lat="48.32201456783923" lon="7.4897613807364145"><ele>164.0</ele><time>2026-03-28T06:53:42Z</time></trkpt><trkpt lat="48.32183144430133" lon="7.489453189615979"><ele>164.5</ele><time>2026-03-28T06:53:43Z</time></trkpt><trkpt lat="48.32165711775448" lon="7.489141008976919"><ele>165.0</ele><time>2026-03-28T06:53:44Z</time></trkpt><trkpt lat="48.32148066994036" lon="7.488829107941142"><ele>163.5</ele><time>2026-03-28T06:53:45Z</time></trkpt><trkpt lat="48.32130614615672" lon="7.488514233049996"><ele>162.0</ele><time>2026-03-28T06:53:46Z</time></trkpt><trkpt lat="48.32113534133498" lon="7.488196378447366"><ele>162.5</ele><time>2026-03-28T06:53:47Z</time></trkpt><trkpt lat="48.3209641416154" lon="7.487879626117192"><ele>163.0</ele><time>2026-03-28T06:53:48Z</time></trkpt><trkpt lat="48.32079275765594" lon="7.48756434778275"><ele>163.0</ele><time>2026-03-28T06:53:49Z</time></trkpt><trkpt lat="48.320621655881226" lon="7.487251285523704"><ele>163.0</ele><time>2026-03-28T06:53:50Z</time></trkpt><trkpt lat="48.320449689876426" lon="7.486936844084913"><ele>164.0</ele><time>2026-03-28T06:53:51Z</time></trkpt><trkpt lat="48.32027703630373" lon="7.4866249725639955"><ele>165.0</ele><time>2026-03-28T06:53:52Z</time></trkpt><trkpt lat="48.32009764979477" lon="7.486317715919544"><ele>165.0</ele><time>2026-03-28T06:53:53Z</time></trkpt><trkpt lat="48.31992114720768" lon="7.486014447214051"><ele>165.0</ele><time>2026-03-28T06:53:54Z</time></trkpt><trkpt lat="48.31974094598992" lon="7.485713078014506"><ele>163.0</ele><time>2026-03-28T06:53:55Z</time></trkpt><trkpt lat="48.31956268020693" lon="7.485407775473703"><ele>161.0</ele><time>2026-03-28T06:53:56Z</time></trkpt><trkpt lat="48.31937904275061" lon="7.485106459971191"><ele>161.0</ele><time>2026-03-28T06:53:57Z</time></trkpt><trkpt lat="48.31919184535692" lon="7.48481586503337"><ele>161.0</ele><time>2026-03-28T06:53:58Z</time></trkpt><trkpt lat="48.319000519234514" lon="7.484528053390921"><ele>162.5</ele><time>2026-03-28T06:53:59Z</time></trkpt><trkpt lat="48.31880566006994" lon="7.484248954125557"><ele>164.0</ele><time>2026-03-28T06:54:00Z</time></trkpt><trkpt lat="48.31860291042817" lon="7.483974775338716"><ele>163.5</ele><time>2026-03-28T06:54:01Z</time></trkpt><trkpt lat="48.318401675233375" lon="7.483708337210837"><ele>163.0</ele><time>2026-03-28T06:54:02Z</time></trkpt><trkpt lat="48.31819980605562" lon="7.483444106205392"><ele>163.0</ele><time>2026-03-28T06:54:03Z</time></trkpt><trkpt lat="48.31799329602743" lon="7.48318336937238"><ele>163.0</ele><time>2026-03-28T06:54:04Z</time></trkpt><trkpt lat="48.317786063315864" lon="7.482922268445293"><ele>163.0</ele><time>2026-03-28T06:54:05Z</time></trkpt><trkpt lat="48.31757422485534" lon="7.482673192699394"><ele>163.0</ele><time>2026-03-28T06:54:06Z</time></trkpt><trkpt lat="48.31736078699907" lon="7.482425645620766"><ele>163.0</ele><time>2026-03-28T06:54:07Z</time></trkpt><trkpt lat="48.3171479120944" lon="7.482182480424974"><ele>163.0</ele><time>2026-03-28T06:54:08Z</time></trkpt><trkpt lat="48.31693293177525" lon="7.481940108180996"><ele>163.0</ele><time>2026-03-28T06:54:09Z</time></trkpt><trkpt lat="48.316716046834124" lon="7.481707132275794"><ele>163.0</ele><time>2026-03-28T06:54:10Z</time></trkpt><trkpt lat="48.31649360118457" lon="7.481475041709873"><ele>163.0</ele><time>2026-03-28T06:54:11Z</time></trkpt><trkpt lat="48.31627117487304" lon="7.481252613052012"><ele>163.0</ele><time>2026-03-28T06:54:12Z</time></trkpt><trkpt lat="48.31604353250765" lon="7.481035306338395"><ele>163.0</ele><time>2026-03-28T06:54:13Z</time></trkpt><trkpt lat="48.31581425518042" lon="7.480822179060221"><ele>163.0</ele><time>2026-03-28T06:54:14Z</time></trkpt><trkpt lat="48.31558319130455" lon="7.48061742921896"><ele>163.5</ele><time>2026-03-28T06:54:15Z</time></trkpt><trkpt lat="48.315351805659915" lon="7.4804191840793095"><ele>164.0</ele><time>2026-03-28T06:54:16Z</time></trkpt><trkpt lat="48.31511537278163" lon="7.480223192040638"><ele>164.0</ele><time>2026-03-28T06:54:17Z</time></trkpt><trkpt lat="48.31487877097942" lon="7.480034172017526"><ele>164.0</ele><time>2026-03-28T06:54:18Z</time></trkpt><trkpt lat="48.31463690086882" lon="7.479851384927037"><ele>164.0</ele><time>2026-03-28T06:54:19Z</time></trkpt><trkpt lat="48.314395353805914" lon="7.479674480440815"><ele>164.0</ele><time>2026-03-28T06:54:20Z</time></trkpt><trkpt lat="48.31415301678397" lon="7.479503775804948"><ele>164.0</ele><time>2026-03-28T06:54:21Z</time></trkpt><trkpt lat="48.313908171379275" lon="7.479339453448284"><ele>164.0</ele><time>2026-03-28T06:54:22Z</time></trkpt><trkpt lat="48.313660967758594" lon="7.479182666887737"><ele>164.0</ele><time>2026-03-28T06:54:23Z</time></trkpt><trkpt lat="48.31341016397678" lon="7.479028869311467"><ele>164.0</ele><time>2026-03-28T06:54:24Z</time></trkpt><trkpt lat="48.313165876502275" lon="7.478878300278893"><ele>166.0</ele><time>2026-03-28T06:54:25Z</time></trkpt><trkpt lat="48.31292031781908" lon="7.478729475970707"><ele>168.0</ele><time>2026-03-28T06:54:26Z</time></trkpt><trkpt lat="48.31267614192179" lon="7.47858083179174"><ele>168.0</ele><time>2026-03-28T06:54:27Z</time></trkpt><trkpt lat="48.312433599687374" lon="7.478433857582981"><ele>168.0</ele><time>2026-03-28T06:54:28Z</time></trkpt><trkpt lat="48.312195116495985" lon="7.478286371013567"><ele>165.5</ele><time>2026-03-28T06:54:29Z</time></trkpt><trkpt lat="48.311952467218894" lon="7.4781417409714965"><ele>163.0</ele><time>2026-03-28T06:54:30Z</time></trkpt><trkpt lat="48.31171662460299" lon="7.477993588849559"><ele>163.0</ele><time>2026-03-28T06:54:31Z</time></trkpt><trkpt lat="48.311481790953216" lon="7.477848131150048"><ele>163.0</ele><time>2026-03-28T06:54:32Z</time></trkpt><trkpt lat="48.3112472342356" lon="7.477697933296633"><ele>163.5</ele><time>2026-03-28T06:54:33Z</time></trkpt><trkpt lat="48.31101227033848" lon="7.477551626395413"><ele>164.0</ele><time>2026-03-28T06:54:34Z</time></trkpt><trkpt lat="48.310776651488474" lon="7.477404657768892"><ele>165.0</ele><time>2026-03-28T06:54:35Z</time></trkpt><trkpt lat="48.310542663135784" lon="7.477258351759402"><ele>166.0</ele><time>2026-03-28T06:54:36Z</time></trkpt><trkpt lat="48.31031455150678" lon="7.477111510911602"><ele>165.5</ele><time>2026-03-28T06:54:37Z</time></trkpt><trkpt lat="48.31008692504822" lon="7.476964415038249"><ele>165.0</ele><time>2026-03-28T06:54:38Z</time></trkpt><trkpt lat="48.309851845854844" lon="7.476820450227872"><ele>165.0</ele><time>2026-03-28T06:54:39Z</time></trkpt><trkpt lat="48.30961817224773" lon="7.476675952994213"><ele>165.0</ele><time>2026-03-28T06:54:40Z</time></trkpt><trkpt lat="48.309389175029224" lon="7.4765328933783834"><ele>165.0</ele><time>2026-03-28T06:54:41Z</time></trkpt><trkpt lat="48.309156947942895" lon="7.476389961388317"><ele>165.0</ele><time>2026-03-28T06:54:42Z</time></trkpt><trkpt lat="48.30892702631664" lon="7.4762456373160315"><ele>165.5</ele><time>2026-03-28T06:54:43Z</time></trkpt><trkpt lat="48.308690153850655" lon="7.476104584383513"><ele>166.0</ele><time>2026-03-28T06:54:44Z</time></trkpt><trkpt lat="48.308459621194466" lon="7.475957892638797"><ele>166.0</ele><time>2026-03-28T06:54:45Z</time></trkpt><trkpt lat="48.308226781910356" lon="7.475815385208197"><ele>166.0</ele><time>2026-03-28T06:54:46Z</time></trkpt><trkpt lat="48.307997372317715" lon="7.475670560428123"><ele>166.0</ele><time>2026-03-28T06:54:47Z</time></trkpt><trkpt lat="48.30776519425935" lon="7.475527054348383"><ele>166.0</ele><time>2026-03-28T06:54:48Z</time></trkpt><trkpt lat="48.3075363564347" lon="7.475384422795458"><ele>166.0</ele><time>2026-03-28T06:54:49Z</time></trkpt><trkpt lat="48.30730493569668" lon="7.475241139774364"><ele>166.0</ele><time>2026-03-28T06:54:50Z</time></trkpt><trkpt lat="48.30707539951325" lon="7.4750970663811716"><ele>166.0</ele><time>2026-03-28T06:54:51Z</time></trkpt><trkpt lat="48.30684475537041" lon="7.4749493904983195"><ele>166.0</ele><time>2026-03-28T06:54:52Z</time></trkpt><trkpt lat="48.30661198762925" lon="7.474805995332124"><ele>166.0</ele><time>2026-03-28T06:54:53Z</time></trkpt><trkpt lat="48.306381008798404" lon="7.474662217707189"><ele>166.0</ele><time>2026-03-28T06:54:54Z</time></trkpt><trkpt lat="48.30614953689794" lon="7.474519302554153"><ele>165.5</ele><time>2026-03-28T06:54:55Z</time></trkpt><trkpt lat="48.30591832629415" lon="7.474377592784236"><ele>165.0</ele><time>2026-03-28T06:54:56Z</time></trkpt><trkpt lat="48.30568857582993" lon="7.474234661763183"><ele>165.5</ele><time>2026-03-28T06:54:57Z</time></trkpt><trkpt lat="48.3054583239337" lon="7.474090790330346"><ele>166.0</ele><time>2026-03-28T06:54:58Z</time></trkpt><trkpt lat="48.30522886577441" lon="7.473946546621183"><ele>166.0</ele><time>2026-03-28T06:54:59Z</time></trkpt><trkpt lat="48.30499611042501" lon="7.4738039452865115"><ele>166.0</ele><time>2026-03-28T06:55:00Z</time></trkpt><trkpt lat="48.30476538707737" lon="7.473659012041649"><ele>165.5</ele><time>2026-03-28T06:55:01Z</time></trkpt><trkpt lat="48.30453620626311" lon="7.473515524007631"><ele>165.0</ele><time>2026-03-28T06:55:02Z</time></trkpt><trkpt lat="48.304306533601945" lon="7.473370774373264"><ele>165.0</ele><time>2026-03-28T06:55:03Z</time></trkpt><trkpt lat="48.304073185475396" lon="7.473226225228154"><ele>165.0</ele><time>2026-03-28T06:55:04Z</time></trkpt><trkpt lat="48.30384157220064" lon="7.4730813167199175"><ele>165.0</ele><time>2026-03-28T06:55:05Z</time></trkpt><trkpt lat="48.30360897746905" lon="7.472934806926719"><ele>165.0</ele><time>2026-03-28T06:55:06Z</time></trkpt><trkpt lat="48.30337866432728" lon="7.472785820532037"><ele>165.0</ele><time>2026-03-28T06:55:07Z</time></trkpt><trkpt lat="48.303148484300195" lon="7.472643649411636"><ele>165.0</ele><time>2026-03-28T06:55:08Z</time></trkpt><trkpt lat="48.30291586779704" lon="7.472495351166048"><ele>166.0</ele><time>2026-03-28T06:55:09Z</time></trkpt><trkpt lat="48.30268328693255" lon="7.4723474041439015"><ele>167.0</ele><time>2026-03-28T06:55:10Z</time></trkpt><trkpt lat="48.30245265701082" lon="7.472202561075406"><ele>166.5</ele><time>2026-03-28T06:55:11Z</time></trkpt><trkpt lat="48.302219233137684" lon="7.472058945229569"><ele>166.0</ele><time>2026-03-28T06:55:12Z</time></trkpt><trkpt lat="48.30198805563476" lon="7.4719132086301245"><ele>166.0</ele><time>2026-03-28T06:55:13Z</time></trkpt><trkpt lat="48.301753826724955" lon="7.471767328709364"><ele>166.0</ele><time>2026-03-28T06:55:14Z</time></trkpt><trkpt lat="48.30152013726303" lon="7.471621851887784"><ele>167.0</ele><time>2026-03-28T06:55:15Z</time></trkpt><trkpt lat="48.30128569002661" lon="7.471474427778184"><ele>168.0</ele><time>2026-03-28T06:55:16Z</time></trkpt><trkpt lat="48.30105180892957" lon="7.471324395977807"><ele>167.5</ele><time>2026-03-28T06:55:17Z</time></trkpt><trkpt lat="48.30081846680839" lon="7.471169387362974"><ele>167.0</ele><time>2026-03-28T06:55:18Z</time></trkpt><trkpt lat="48.300578418015135" lon="7.471014014413973"><ele>167.0</ele><time>2026-03-28T06:55:19Z</time></trkpt><trkpt lat="48.300337679924446" lon="7.47085842786125"><ele>167.0</ele><time>2026-03-28T06:55:20Z</time></trkpt><trkpt lat="48.300096705917774" lon="7.470700542674968"><ele>167.0</ele><time>2026-03-28T06:55:21Z</time></trkpt><trkpt lat="48.299855749047715" lon="7.470538697834314"><ele>167.0</ele><time>2026-03-28T06:55:22Z</time></trkpt><trkpt lat="48.29961321726411" lon="7.470381125775851"><ele>167.0</ele><time>2026-03-28T06:55:23Z</time></trkpt><trkpt lat="48.29937237316992" lon="7.4702195837564815"><ele>167.0</ele><time>2026-03-28T06:55:24Z</time></trkpt><trkpt lat="48.299131818379806" lon="7.470052807161231"><ele>167.5</ele><time>2026-03-28T06:55:25Z</time></trkpt><trkpt lat="48.29888961720614" lon="7.469881857100039"><ele>168.0</ele><time>2026-03-28T06:55:26Z</time></trkpt><trkpt lat="48.298643582025974" lon="7.469707917826308"><ele>168.0</ele><time>2026-03-28T06:55:27Z</time></trkpt><trkpt lat="48.29840028931711" lon="7.469536879667077"><ele>168.0</ele><time>2026-03-28T06:55:28Z</time></trkpt><trkpt lat="48.2981547347372" lon="7.469363711554285"><ele>168.0</ele><time>2026-03-28T06:55:29Z</time></trkpt><trkpt lat="48.2979090343711" lon="7.469188568526522"><ele>168.0</ele><time>2026-03-28T06:55:30Z</time></trkpt><trkpt lat="48.297662696887905" lon="7.469011439725802"><ele>168.0</ele><time>2026-03-28T06:55:31Z</time></trkpt><trkpt lat="48.29741781844764" lon="7.468830730923021"><ele>168.0</ele><time>2026-03-28T06:55:32Z</time></trkpt><trkpt lat="48.29717813422321" lon="7.46864990110119"><ele>168.0</ele><time>2026-03-28T06:55:33Z</time></trkpt><trkpt lat="48.29693503149553" lon="7.4684686958437805"><ele>168.0</ele><time>2026-03-28T06:55:34Z</time></trkpt><trkpt lat="48.29669380367774" lon="7.468285963725479"><ele>168.0</ele><time>2026-03-28T06:55:35Z</time></trkpt><trkpt lat="48.296450742327835" lon="7.468101037658252"><ele>168.0</ele><time>2026-03-28T06:55:36Z</time></trkpt><trkpt lat="48.29620821107376" lon="7.4679138708661785"><ele>169.0</ele><time>2026-03-28T06:55:37Z</time></trkpt><trkpt lat="48.29596193428942" lon="7.467725632966174"><ele>170.0</ele><time>2026-03-28T06:55:38Z</time></trkpt><trkpt lat="48.29572154833193" lon="7.467535639894393"><ele>168.5</ele><time>2026-03-28T06:55:39Z</time></trkpt><trkpt lat="48.2954807606276" lon="7.467343461789663"><ele>167.0</ele><time>2026-03-28T06:55:40Z</time></trkpt><trkpt lat="48.29523893520984" lon="7.467150435367185"><ele>167.0</ele><time>2026-03-28T06:55:41Z</time></trkpt><trkpt lat="48.294999882240674" lon="7.466957871361878"><ele>167.0</ele><time>2026-03-28T06:55:42Z</time></trkpt><trkpt lat="48.294762477525566" lon="7.466761878002896"><ele>168.0</ele><time>2026-03-28T06:55:43Z</time></trkpt><trkpt lat="48.294524462818295" lon="7.466562674336916"><ele>169.0</ele><time>2026-03-28T06:55:44Z</time></trkpt><trkpt lat="48.294288488854576" lon="7.466362187311597"><ele>169.0</ele><time>2026-03-28T06:55:45Z</time></trkpt><trkpt lat="48.29405283464946" lon="7.466157785725368"><ele>169.0</ele><time>2026-03-28T06:55:46Z</time></trkpt><trkpt lat="48.293819458625336" lon="7.4659506623401315"><ele>168.5</ele><time>2026-03-28T06:55:47Z</time></trkpt><trkpt lat="48.29358550698853" lon="7.4657414113915905"><ele>168.0</ele><time>2026-03-28T06:55:48Z</time></trkpt><trkpt lat="48.29335321041812" lon="7.465530724725685"><ele>168.0</ele><time>2026-03-28T06:55:49Z</time></trkpt><trkpt lat="48.29311949942967" lon="7.4653181469014696"><ele>168.0</ele><time>2026-03-28T06:55:50Z</time></trkpt><trkpt lat="48.29288916535968" lon="7.465101635338012"><ele>168.0</ele><time>2026-03-28T06:55:51Z</time></trkpt><trkpt lat="48.292655780654755" lon="7.4648867412138555"><ele>168.0</ele><time>2026-03-28T06:55:52Z</time></trkpt><trkpt lat="48.29242898129408" lon="7.464666463934362"><ele>168.0</ele><time>2026-03-28T06:55:53Z</time></trkpt><trkpt lat="48.2922060666688" lon="7.4644414011309745"><ele>168.0</ele><time>2026-03-28T06:55:54Z</time></trkpt><trkpt lat="48.29198904787959" lon="7.46420908345469"><ele>168.0</ele><time>2026-03-28T06:55:55Z</time></trkpt><trkpt lat="48.29176610289609" lon="7.463976140341379"><ele>168.0</ele><time>2026-03-28T06:55:56Z</time></trkpt><trkpt lat="48.29154492201379" lon="7.463736495133206"><ele>168.0</ele><time>2026-03-28T06:55:57Z</time></trkpt><trkpt lat="48.29131575322979" lon="7.463501776916424"><ele>168.0</ele><time>2026-03-28T06:55:58Z</time></trkpt><trkpt lat="48.2910925194656" lon="7.463264969056506"><ele>168.0</ele><time>2026-03-28T06:55:59Z</time></trkpt><trkpt lat="48.29087365171635" lon="7.463024193143968"><ele>168.0</ele><time>2026-03-28T06:56:00Z</time></trkpt><trkpt lat="48.290652143554816" lon="7.46278255825539"><ele>168.5</ele><time>2026-03-28T06:56:01Z</time></trkpt><trkpt lat="48.29043098145852" lon="7.462539919140257"><ele>169.0</ele><time>2026-03-28T06:56:02Z</time></trkpt><trkpt lat="48.29020746622335" lon="7.462295582456068"><ele>169.5</ele><time>2026-03-28T06:56:03Z</time></trkpt><trkpt lat="48.28998988501053" lon="7.462048059691423"><ele>170.0</ele><time>2026-03-28T06:56:04Z</time></trkpt><trkpt lat="48.28977321466305" lon="7.461800994353014"><ele>170.0</ele><time>2026-03-28T06:56:05Z</time></trkpt><trkpt lat="48.289554056882885" lon="7.461552758240123"><ele>170.0</ele><time>2026-03-28T06:56:06Z</time></trkpt><trkpt lat="48.289340176065686" lon="7.4612999016712"><ele>169.5</ele><time>2026-03-28T06:56:07Z</time></trkpt><trkpt lat="48.28912462735538" lon="7.461047694433462"><ele>169.0</ele><time>2026-03-28T06:56:08Z</time></trkpt><trkpt lat="48.28891091413311" lon="7.460791013387754"><ele>169.0</ele><time>2026-03-28T06:56:09Z</time></trkpt><trkpt lat="48.28869692044891" lon="7.46053177838433"><ele>169.0</ele><time>2026-03-28T06:56:10Z</time></trkpt><trkpt lat="48.28848275868236" lon="7.460270292300468"><ele>169.0</ele><time>2026-03-28T06:56:11Z</time></trkpt><trkpt lat="48.28827315776762" lon="7.4600108301509005"><ele>169.0</ele><time>2026-03-28T06:56:12Z</time></trkpt><trkpt lat="48.288063921250604" lon="7.459749113633992"><ele>170.0</ele><time>2026-03-28T06:56:13Z</time></trkpt><trkpt lat="48.287858666207214" lon="7.459493448440391"><ele>171.0</ele><time>2026-03-28T06:56:14Z</time></trkpt><trkpt lat="48.287651272688265" lon="7.459235995237189"><ele>171.0</ele><time>2026-03-28T06:56:15Z</time></trkpt><trkpt lat="48.28744891987646" lon="7.458975083080313"><ele>171.0</ele><time>2026-03-28T06:56:16Z</time></trkpt><trkpt lat="48.287244399796315" lon="7.4587134825470915"><ele>172.0</ele><time>2026-03-28T06:56:17Z</time></trkpt><trkpt lat="48.28704214708524" lon="7.458449183735444"><ele>173.0</ele><time>2026-03-28T06:56:18Z</time></trkpt><trkpt lat="48.28684278338345" lon="7.458178516461935"><ele>174.0</ele><time>2026-03-28T06:56:19Z</time></trkpt><trkpt lat="48.286647762885124" lon="7.457906710043914"><ele>175.0</ele><time>2026-03-28T06:56:20Z</time></trkpt><trkpt lat="48.2864519272809" lon="7.457628505995421"><ele>174.0</ele><time>2026-03-28T06:56:21Z</time></trkpt><trkpt lat="48.286260189132534" lon="7.457351470708376"><ele>173.0</ele><time>2026-03-28T06:56:22Z</time></trkpt><trkpt lat="48.286065386461374" lon="7.45707194174087"><ele>172.5</ele><time>2026-03-28T06:56:23Z</time></trkpt><trkpt lat="48.28586952802972" lon="7.456793178350814"><ele>172.0</ele><time>2026-03-28T06:56:24Z</time></trkpt><trkpt lat="48.28567440593322" lon="7.456508592451179"><ele>171.5</ele><time>2026-03-28T06:56:25Z</time></trkpt><trkpt lat="48.2854859288906" lon="7.456221351389305"><ele>171.0</ele><time>2026-03-28T06:56:26Z</time></trkpt><trkpt lat="48.28529782402088" lon="7.455933955085275"><ele>171.0</ele><time>2026-03-28T06:56:27Z</time></trkpt><trkpt lat="48.28511135462175" lon="7.455647489245938"><ele>171.0</ele><time>2026-03-28T06:56:28Z</time></trkpt><trkpt lat="48.28492556374026" lon="7.455359725391877"><ele>172.5</ele><time>2026-03-28T06:56:29Z</time></trkpt><trkpt lat="48.28473885397537" lon="7.455071129309743"><ele>174.0</ele><time>2026-03-28T06:56:30Z</time></trkpt><trkpt lat="48.28455917405253" lon="7.454780060373832"><ele>173.0</ele><time>2026-03-28T06:56:31Z</time></trkpt><trkpt lat="48.28437894394859" lon="7.454486018798511"><ele>172.0</ele><time>2026-03-28T06:56:32Z</time></trkpt><trkpt lat="48.28419869285076" lon="7.454190971964562"><ele>172.0</ele><time>2026-03-28T06:56:33Z</time></trkpt><trkpt lat="48.28401953439076" lon="7.453892306581435"><ele>172.0</ele><time>2026-03-28T06:56:34Z</time></trkpt><trkpt lat="48.283840400289634" lon="7.453595436187805"><ele>173.5</ele><time>2026-03-28T06:56:35Z</time></trkpt><trkpt lat="48.283666189096586" lon="7.453295523535975"><ele>175.0</ele><time>2026-03-28T06:56:36Z</time></trkpt><trkpt lat="48.28349241757566" lon="7.452991256914036"><ele>174.5</ele><time>2026-03-28T06:56:37Z</time></trkpt><trkpt lat="48.28332491593672" lon="7.452679284872197"><ele>174.0</ele><time>2026-03-28T06:56:38Z</time></trkpt><trkpt lat="48.28315437771666" lon="7.4523699719993255"><ele>174.0</ele><time>2026-03-28T06:56:39Z</time></trkpt><trkpt lat="48.28298598105038" lon="7.452054915737606"><ele>174.0</ele><time>2026-03-28T06:56:40Z</time></trkpt><trkpt lat="48.28281747518342" lon="7.4517427080426755"><ele>174.0</ele><time>2026-03-28T06:56:41Z</time></trkpt><trkpt lat="48.28265175909269" lon="7.451430774935907"><ele>174.0</ele><time>2026-03-28T06:56:42Z</time></trkpt><trkpt lat="48.28248843364158" lon="7.45111664260792"><ele>174.0</ele><time>2026-03-28T06:56:43Z</time></trkpt><trkpt lat="48.28232523017278" lon="7.450794197078497"><ele>174.0</ele><time>2026-03-28T06:56:44Z</time></trkpt><trkpt lat="48.28216383669593" lon="7.450473869447185"><ele>174.0</ele><time>2026-03-28T06:56:45Z</time></trkpt><trkpt lat="48.28200432323987" lon="7.450156777609735"><ele>174.0</ele><time>2026-03-28T06:56:46Z</time></trkpt><trkpt lat="48.281846905092436" lon="7.449835791754607"><ele>175.0</ele><time>2026-03-28T06:56:47Z</time></trkpt><trkpt lat="48.281687037728965" lon="7.449513173769912"><ele>176.0</ele><time>2026-03-28T06:56:48Z</time></trkpt><trkpt lat="48.281533297005836" lon="7.44919089742888"><ele>175.5</ele><time>2026-03-28T06:56:49Z</time></trkpt><trkpt lat="48.281377326210716" lon="7.448866297744791"><ele>175.0</ele><time>2026-03-28T06:56:50Z</time></trkpt><trkpt lat="48.281220056801445" lon="7.448541520600547"><ele>175.0</ele><time>2026-03-28T06:56:51Z</time></trkpt><trkpt lat="48.28106720876836" lon="7.448215811195709"><ele>175.0</ele><time>2026-03-28T06:56:52Z</time></trkpt><trkpt lat="48.28091374147282" lon="7.447886241727465"><ele>175.5</ele><time>2026-03-28T06:56:53Z</time></trkpt><trkpt lat="48.28076625345502" lon="7.447554418410599"><ele>176.0</ele><time>2026-03-28T06:56:54Z</time></trkpt><trkpt lat="48.280617254193345" lon="7.447222492536179"><ele>176.0</ele><time>2026-03-28T06:56:55Z</time></trkpt><trkpt lat="48.28047034933339" lon="7.44688889641373"><ele>176.0</ele><time>2026-03-28T06:56:56Z</time></trkpt><trkpt lat="48.28032249625604" lon="7.446554548444591"><ele>176.0</ele><time>2026-03-28T06:56:57Z</time></trkpt><trkpt lat="48.280181719563615" lon="7.446216184849852"><ele>176.0</ele><time>2026-03-28T06:56:58Z</time></trkpt><trkpt lat="48.28004103055178" lon="7.445871691178617"><ele>176.0</ele><time>2026-03-28T06:56:59Z</time></trkpt><trkpt lat="48.27990445317499" lon="7.4455275148602516"><ele>176.0</ele><time>2026-03-28T06:57:00Z</time></trkpt><trkpt lat="48.279771464406686" lon="7.445178557071049"><ele>176.0</ele><time>2026-03-28T06:57:01Z</time></trkpt><trkpt lat="48.27963994394903" lon="7.444828091754138"><ele>176.0</ele><time>2026-03-28T06:57:02Z</time></trkpt><trkpt lat="48.27950321260877" lon="7.444479698496636"><ele>176.0</ele><time>2026-03-28T06:57:03Z</time></trkpt><trkpt lat="48.279362229498105" lon="7.444131528736312"><ele>176.0</ele><time>2026-03-28T06:57:04Z</time></trkpt><trkpt lat="48.279225412537656" lon="7.4437793025490855"><ele>176.0</ele><time>2026-03-28T06:57:05Z</time></trkpt><trkpt lat="48.27908974547863" lon="7.443433418335561"><ele>176.0</ele><time>2026-03-28T06:57:06Z</time></trkpt><trkpt lat="48.278952466813934" lon="7.443081509971104"><ele>176.0</ele><time>2026-03-28T06:57:07Z</time></trkpt><trkpt lat="48.27881524420632" lon="7.442728262642066"><ele>176.0</ele><time>2026-03-28T06:57:08Z</time></trkpt><trkpt lat="48.27867642013309" lon="7.4423760808703365"><ele>176.5</ele><time>2026-03-28T06:57:09Z</time></trkpt><trkpt lat="48.2785337307697" lon="7.442032077500125"><ele>177.0</ele><time>2026-03-28T06:57:10Z</time></trkpt><trkpt lat="48.27839489731015" lon="7.44168303124555"><ele>177.0</ele><time>2026-03-28T06:57:11Z</time></trkpt><trkpt lat="48.27825663476656" lon="7.441337333355451"><ele>177.0</ele><time>2026-03-28T06:57:12Z</time></trkpt><trkpt lat="48.27811646064745" lon="7.440990972384031"><ele>177.0</ele><time>2026-03-28T06:57:13Z</time></trkpt><trkpt lat="48.27797848833611" lon="7.44064372915533"><ele>177.0</ele><time>2026-03-28T06:57:14Z</time></trkpt><trkpt lat="48.27783578601934" lon="7.440300827911147"><ele>177.0</ele><time>2026-03-28T06:57:15Z</time></trkpt><trkpt lat="48.277691470977494" lon="7.439956508952232"><ele>177.0</ele><time>2026-03-28T06:57:16Z</time></trkpt><trkpt lat="48.27754330937598" lon="7.439618302935175"><ele>177.5</ele><time>2026-03-28T06:57:17Z</time></trkpt><trkpt lat="48.27739789011822" lon="7.4392782494374865"><ele>178.0</ele><time>2026-03-28T06:57:18Z</time></trkpt><trkpt lat="48.27725301174994" lon="7.438941750345387"><ele>179.5</ele><time>2026-03-28T06:57:19Z</time></trkpt><trkpt lat="48.27710273546772" lon="7.438606476291481"><ele>181.0</ele><time>2026-03-28T06:57:20Z</time></trkpt><trkpt lat="48.27695429576598" lon="7.4382726641199115"><ele>181.5</ele><time>2026-03-28T06:57:21Z</time></trkpt><trkpt lat="48.27680512786964" lon="7.437938069332662"><ele>182.0</ele><time>2026-03-28T06:57:22Z</time></trkpt><trkpt lat="48.27665479305744" lon="7.437602015520488"><ele>182.0</ele><time>2026-03-28T06:57:23Z</time></trkpt><trkpt lat="48.276503903286645" lon="7.437270011345293"><ele>182.0</ele><time>2026-03-28T06:57:24Z</time></trkpt><trkpt lat="48.276351324570086" lon="7.436936753845934"><ele>181.0</ele><time>2026-03-28T06:57:25Z</time></trkpt><trkpt lat="48.27619661417905" lon="7.436603766319502"><ele>180.0</ele><time>2026-03-28T06:57:26Z</time></trkpt><trkpt lat="48.276037701760416" lon="7.436273517303883"><ele>180.0</ele><time>2026-03-28T06:57:27Z</time></trkpt><trkpt lat="48.275879366162705" lon="7.435943651021176"><ele>180.0</ele><time>2026-03-28T06:57:28Z</time></trkpt><trkpt lat="48.27571767808004" lon="7.435615102311414"><ele>179.5</ele><time>2026-03-28T06:57:29Z</time></trkpt><trkpt lat="48.275552148617166" lon="7.435290636275171"><ele>179.0</ele><time>2026-03-28T06:57:30Z</time></trkpt><trkpt lat="48.27538903901943" lon="7.434969589872764"><ele>179.0</ele><time>2026-03-28T06:57:31Z</time></trkpt><trkpt lat="48.27521964956159" lon="7.434649907819178"><ele>179.0</ele><time>2026-03-28T06:57:32Z</time></trkpt><trkpt lat="48.27504647687871" lon="7.434331244917788"><ele>180.0</ele><time>2026-03-28T06:57:33Z</time></trkpt><trkpt lat="48.27487370861407" lon="7.434014027666049"><ele>181.0</ele><time>2026-03-28T06:57:34Z</time></trkpt><trkpt lat="48.27470438306474" lon="7.43369727843367"><ele>181.5</ele><time>2026-03-28T06:57:35Z</time></trkpt><trkpt lat="48.27452961715503" lon="7.433376237472808"><ele>182.0</ele><time>2026-03-28T06:57:36Z</time></trkpt><trkpt lat="48.27435795333544" lon="7.433059933217423"><ele>181.5</ele><time>2026-03-28T06:57:37Z</time></trkpt><trkpt lat="48.27418195069826" lon="7.432746376280252"><ele>181.0</ele><time>2026-03-28T06:57:38Z</time></trkpt><trkpt lat="48.274006573733736" lon="7.432432297970618"><ele>180.5</ele><time>2026-03-28T06:57:39Z</time></trkpt><trkpt lat="48.273826200098725" lon="7.432124396433019"><ele>180.0</ele><time>2026-03-28T06:57:40Z</time></trkpt><trkpt lat="48.27364326248354" lon="7.431817869390225"><ele>180.0</ele><time>2026-03-28T06:57:41Z</time></trkpt><trkpt lat="48.27346247183681" lon="7.431508438234999"><ele>180.0</ele><time>2026-03-28T06:57:42Z</time></trkpt><trkpt lat="48.27328240710774" lon="7.431199413425634"><ele>179.5</ele><time>2026-03-28T06:57:43Z</time></trkpt><trkpt lat="48.273102270128206" lon="7.43089154223204"><ele>179.0</ele><time>2026-03-28T06:57:44Z</time></trkpt><trkpt lat="48.27291676284878" lon="7.430586971437744"><ele>179.0</ele><time>2026-03-28T06:57:45Z</time></trkpt><trkpt lat="48.272726571334786" lon="7.430287625848519"><ele>179.0</ele><time>2026-03-28T06:57:46Z</time></trkpt><trkpt lat="48.27253679418908" lon="7.429994644808978"><ele>179.0</ele><time>2026-03-28T06:57:47Z</time></trkpt><trkpt lat="48.272345524455005" lon="7.429702498237102"><ele>179.0</ele><time>2026-03-28T06:57:48Z</time></trkpt><trkpt lat="48.27215595923191" lon="7.429411838656174"><ele>179.5</ele><time>2026-03-28T06:57:49Z</time></trkpt><trkpt lat="48.27196315527096" lon="7.429120184290508"><ele>180.0</ele><time>2026-03-28T06:57:50Z</time></trkpt><trkpt lat="48.27176954219956" lon="7.428827210478151"><ele>179.5</ele><time>2026-03-28T06:57:51Z</time></trkpt><trkpt lat="48.271578249891874" lon="7.428544700795956"><ele>179.0</ele><time>2026-03-28T06:57:52Z</time></trkpt><trkpt lat="48.271384549446815" lon="7.428258023962646"><ele>177.0</ele><time>2026-03-28T06:57:53Z</time></trkpt><trkpt lat="48.27118837057441" lon="7.427974435225078"><ele>175.0</ele><time>2026-03-28T06:57:54Z</time></trkpt><trkpt lat="48.27099241518231" lon="7.427695080074315"><ele>175.0</ele><time>2026-03-28T06:57:55Z</time></trkpt><trkpt lat="48.27079277860035" lon="7.4274133339034565"><ele>175.0</ele><time>2026-03-28T06:57:56Z</time></trkpt><trkpt lat="48.2705963354212" lon="7.427138744161746"><ele>176.5</ele><time>2026-03-28T06:57:57Z</time></trkpt><trkpt lat="48.27040127891153" lon="7.426871606232827"><ele>178.0</ele><time>2026-03-28T06:57:58Z</time></trkpt><trkpt lat="48.270195816118765" lon="7.426607152035266"><ele>178.0</ele><time>2026-03-28T06:57:59Z</time></trkpt><trkpt lat="48.269993111325306" lon="7.4263448388344475"><ele>178.0</ele><time>2026-03-28T06:58:00Z</time></trkpt><trkpt lat="48.26978971793412" lon="7.4260859775346715"><ele>179.0</ele><time>2026-03-28T06:58:01Z</time></trkpt><trkpt lat="48.26957966687266" lon="7.425829789154451"><ele>180.0</ele><time>2026-03-28T06:58:02Z</time></trkpt><trkpt lat="48.26937296507842" lon="7.425574812103076"><ele>179.5</ele><time>2026-03-28T06:58:03Z</time></trkpt><trkpt lat="48.269168049626536" lon="7.4253199575284965"><ele>179.0</ele><time>2026-03-28T06:58:04Z</time></trkpt><trkpt lat="48.26896330277783" lon="7.425066680783684"><ele>179.0</ele><time>2026-03-28T06:58:05Z</time></trkpt><trkpt lat="48.2687583956318" lon="7.424813602624819"><ele>179.0</ele><time>2026-03-28T06:58:06Z</time></trkpt><trkpt lat="48.268553343487056" lon="7.424562457091001"><ele>179.5</ele><time>2026-03-28T06:58:07Z</time></trkpt><trkpt lat="48.26834660415089" lon="7.424313514513061"><ele>180.0</ele><time>2026-03-28T06:58:08Z</time></trkpt><trkpt lat="48.26813918440133" lon="7.424065022826206"><ele>179.5</ele><time>2026-03-28T06:58:09Z</time></trkpt><trkpt lat="48.267926745777665" lon="7.423821088603651"><ele>179.0</ele><time>2026-03-28T06:58:10Z</time></trkpt><trkpt lat="48.267714730060064" lon="7.423571937416256"><ele>179.0</ele><time>2026-03-28T06:58:11Z</time></trkpt><trkpt lat="48.26750334153985" lon="7.42333013823357"><ele>179.0</ele><time>2026-03-28T06:58:12Z</time></trkpt><trkpt lat="48.26728998995169" lon="7.423091941474753"><ele>178.5</ele><time>2026-03-28T06:58:13Z</time></trkpt><trkpt lat="48.267076210383344" lon="7.422851543148657"><ele>178.0</ele><time>2026-03-28T06:58:14Z</time></trkpt><trkpt lat="48.26686638818292" lon="7.422614009634126"><ele>178.0</ele><time>2026-03-28T06:58:15Z</time></trkpt><trkpt lat="48.26665210305472" lon="7.422378381849543"><ele>178.0</ele><time>2026-03-28T06:58:16Z</time></trkpt><trkpt lat="48.26643701820475" lon="7.422146631576599"><ele>176.0</ele><time>2026-03-28T06:58:17Z</time></trkpt><trkpt lat="48.26621876539681" lon="7.421913968791215"><ele>174.0</ele><time>2026-03-28T06:58:18Z</time></trkpt><trkpt lat="48.266002955285835" lon="7.421686138043001"><ele>174.0</ele><time>2026-03-28T06:58:19Z</time></trkpt><trkpt lat="48.265789625240394" lon="7.421460649555423"><ele>174.0</ele><time>2026-03-28T06:58:20Z</time></trkpt><trkpt lat="48.26557109371985" lon="7.421225551323208"><ele>173.5</ele><time>2026-03-28T06:58:21Z</time></trkpt><trkpt lat="48.265347973122516" lon="7.420993252134207"><ele>173.0</ele><time>2026-03-28T06:58:22Z</time></trkpt><trkpt lat="48.265126585391144" lon="7.420763696594594"><ele>173.0</ele><time>2026-03-28T06:58:23Z</time></trkpt><trkpt lat="48.26490431295512" lon="7.4205372681625725"><ele>173.0</ele><time>2026-03-28T06:58:24Z</time></trkpt><trkpt lat="48.26467899656685" lon="7.4203145158116355"><ele>174.5</ele><time>2026-03-28T06:58:25Z</time></trkpt><trkpt lat="48.26445279072189" lon="7.420096217673216"><ele>176.0</ele><time>2026-03-28T06:58:26Z</time></trkpt><trkpt lat="48.26422235500396" lon="7.419880472221153"><ele>176.0</ele><time>2026-03-28T06:58:27Z</time></trkpt><trkpt lat="48.263992301045484" lon="7.419665536416296"><ele>176.0</ele><time>2026-03-28T06:58:28Z</time></trkpt><trkpt lat="48.263757594764165" lon="7.419457259032472"><ele>175.0</ele><time>2026-03-28T06:58:29Z</time></trkpt><trkpt lat="48.26352323535449" lon="7.419248359808545"><ele>174.0</ele><time>2026-03-28T06:58:30Z</time></trkpt><trkpt lat="48.263286775452" lon="7.419045388931067"><ele>174.0</ele><time>2026-03-28T06:58:31Z</time></trkpt><trkpt lat="48.26304833081037" lon="7.418843909393255"><ele>174.0</ele><time>2026-03-28T06:58:32Z</time></trkpt><trkpt lat="48.26281445373605" lon="7.418640350499257"><ele>173.5</ele><time>2026-03-28T06:58:33Z</time></trkpt><trkpt lat="48.26257319614203" lon="7.418441917594581"><ele>173.0</ele><time>2026-03-28T06:58:34Z</time></trkpt><trkpt lat="48.26233032250839" lon="7.418248660979654"><ele>172.5</ele><time>2026-03-28T06:58:35Z</time></trkpt><trkpt lat="48.26209088342925" lon="7.418055579289391"><ele>172.0</ele><time>2026-03-28T06:58:36Z</time></trkpt><trkpt lat="48.26184750687641" lon="7.417865778709451"><ele>172.5</ele><time>2026-03-28T06:58:37Z</time></trkpt><trkpt lat="48.261604041426295" lon="7.417674353388354"><ele>173.0</ele><time>2026-03-28T06:58:38Z</time></trkpt><trkpt lat="48.26135707047639" lon="7.417490234925374"><ele>173.0</ele><time>2026-03-28T06:58:39Z</time></trkpt><trkpt lat="48.261106427921796" lon="7.417311171900881"><ele>173.0</ele><time>2026-03-28T06:58:40Z</time></trkpt><trkpt lat="48.26086349755375" lon="7.417127322814234"><ele>173.0</ele><time>2026-03-28T06:58:41Z</time></trkpt><trkpt lat="48.26061680156448" lon="7.416947580224711"><ele>173.0</ele><time>2026-03-28T06:58:42Z</time></trkpt><trkpt lat="48.26036721811547" lon="7.41676988292737"><ele>172.0</ele><time>2026-03-28T06:58:43Z</time></trkpt><trkpt lat="48.260116866012964" lon="7.416599602791884"><ele>171.0</ele><time>2026-03-28T06:58:44Z</time></trkpt><trkpt lat="48.25986934316872" lon="7.416425249046232"><ele>171.5</ele><time>2026-03-28T06:58:45Z</time></trkpt><trkpt lat="48.25962026305527" lon="7.416259048554529"><ele>172.0</ele><time>2026-03-28T06:58:46Z</time></trkpt><trkpt lat="48.25937716052065" lon="7.41609152818592"><ele>172.0</ele><time>2026-03-28T06:58:47Z</time></trkpt><trkpt lat="48.25913340452668" lon="7.415925921294438"><ele>172.0</ele><time>2026-03-28T06:58:48Z</time></trkpt><trkpt lat="48.25888889554806" lon="7.415765986636665"><ele>172.5</ele><time>2026-03-28T06:58:49Z</time></trkpt><trkpt lat="48.25864511688328" lon="7.415607414685801"><ele>173.0</ele><time>2026-03-28T06:58:50Z</time></trkpt><trkpt lat="48.25839567440369" lon="7.415449620536486"><ele>174.5</ele><time>2026-03-28T06:58:51Z</time></trkpt><trkpt lat="48.258148357209144" lon="7.415294446753523"><ele>176.0</ele><time>2026-03-28T06:58:52Z</time></trkpt><trkpt lat="48.25790005201703" lon="7.415141304009753"><ele>176.5</ele><time>2026-03-28T06:58:53Z</time></trkpt><trkpt lat="48.25765076085984" lon="7.414987610323616"><ele>177.0</ele><time>2026-03-28T06:58:54Z</time></trkpt><trkpt lat="48.25739885237304" lon="7.414836975049548"><ele>177.0</ele><time>2026-03-28T06:58:55Z</time></trkpt><trkpt lat="48.25715022675942" lon="7.414686447066466"><ele>177.0</ele><time>2026-03-28T06:58:56Z</time></trkpt><trkpt lat="48.25689882686697" lon="7.4145356309902795"><ele>176.5</ele><time>2026-03-28T06:58:57Z</time></trkpt><trkpt lat="48.25664853532687" lon="7.414385598693699"><ele>176.0</ele><time>2026-03-28T06:58:58Z</time></trkpt><trkpt lat="48.256404036486536" lon="7.414242149712801"><ele>176.0</ele><time>2026-03-28T06:58:59Z</time></trkpt><trkpt lat="48.25615728021899" lon="7.414098089021588"><ele>176.0</ele><time>2026-03-28T06:59:00Z</time></trkpt><trkpt lat="48.255908767304376" lon="7.413959242737329"><ele>176.0</ele><time>2026-03-28T06:59:01Z</time></trkpt><trkpt lat="48.25565906851009" lon="7.413822475619928"><ele>176.0</ele><time>2026-03-28T06:59:02Z</time></trkpt><trkpt lat="48.255405522023004" lon="7.413686522499669"><ele>176.0</ele><time>2026-03-28T06:59:03Z</time></trkpt><trkpt lat="48.255152481581966" lon="7.413549967023881"><ele>176.0</ele><time>2026-03-28T06:59:04Z</time></trkpt><trkpt lat="48.2548976715387" lon="7.413413346021153"><ele>176.5</ele><time>2026-03-28T06:59:05Z</time></trkpt><trkpt lat="48.25463855590927" lon="7.413274114855684"><ele>177.0</ele><time>2026-03-28T06:59:06Z</time></trkpt><trkpt lat="48.25438686951494" lon="7.413134805755006"><ele>177.0</ele><time>2026-03-28T06:59:07Z</time></trkpt><trkpt lat="48.254132481247275" lon="7.412998251480054"><ele>177.0</ele><time>2026-03-28T06:59:08Z</time></trkpt><trkpt lat="48.253880669412375" lon="7.4128629313088155"><ele>177.0</ele><time>2026-03-28T06:59:09Z</time></trkpt><trkpt lat="48.25362791957745" lon="7.412729577941921"><ele>177.0</ele><time>2026-03-28T06:59:10Z</time></trkpt><trkpt lat="48.253373795502156" lon="7.412600466166755"><ele>177.0</ele><time>2026-03-28T06:59:11Z</time></trkpt><trkpt lat="48.25311856657444" lon="7.4124713191427665"><ele>177.0</ele><time>2026-03-28T06:59:12Z</time></trkpt><trkpt lat="48.25286445388034" lon="7.412346365216529"><ele>177.0</ele><time>2026-03-28T06:59:13Z</time></trkpt><trkpt lat="48.252608654402614" lon="7.4122194442828615"><ele>177.0</ele><time>2026-03-28T06:59:14Z</time></trkpt><trkpt lat="48.252353622189496" lon="7.412095244434151"><ele>177.5</ele><time>2026-03-28T06:59:15Z</time></trkpt><trkpt lat="48.25209784146714" lon="7.41197358307321"><ele>178.0</ele><time>2026-03-28T06:59:16Z</time></trkpt><trkpt lat="48.25183931658216" lon="7.411853228204231"><ele>178.0</ele><time>2026-03-28T06:59:17Z</time></trkpt><trkpt lat="48.25158226429944" lon="7.411734268888793"><ele>178.0</ele><time>2026-03-28T06:59:18Z</time></trkpt><trkpt lat="48.25132768386858" lon="7.4116169995565455"><ele>177.5</ele><time>2026-03-28T06:59:19Z</time></trkpt><trkpt lat="48.251067891302405" lon="7.411504214776532"><ele>177.0</ele><time>2026-03-28T06:59:20Z</time></trkpt><trkpt lat="48.25081210241043" lon="7.4113931729267675"><ele>176.5</ele><time>2026-03-28T06:59:21Z</time></trkpt><trkpt lat="48.25055440644052" lon="7.4112837891036145"><ele>176.0</ele><time>2026-03-28T06:59:22Z</time></trkpt><trkpt lat="48.25029789047941" lon="7.411174578859151"><ele>176.0</ele><time>2026-03-28T06:59:23Z</time></trkpt><trkpt lat="48.250038269019036" lon="7.411069488197932"><ele>176.0</ele><time>2026-03-28T06:59:24Z</time></trkpt><trkpt lat="48.24978177713832" lon="7.410967317122859"><ele>176.5</ele><time>2026-03-28T06:59:25Z</time></trkpt><trkpt lat="48.24952097287632" lon="7.4108689650569755"><ele>177.0</ele><time>2026-03-28T06:59:26Z</time></trkpt><trkpt lat="48.24925972161211" lon="7.4107692948321935"><ele>177.0</ele><time>2026-03-28T06:59:27Z</time></trkpt><trkpt lat="48.24899971867861" lon="7.410672213467051"><ele>177.0</ele><time>2026-03-28T06:59:28Z</time></trkpt><trkpt lat="48.24873866801778" lon="7.410575035359618"><ele>177.0</ele><time>2026-03-28T06:59:29Z</time></trkpt><trkpt lat="48.24847875935751" lon="7.410478680330032"><ele>177.0</ele><time>2026-03-28T06:59:30Z</time></trkpt><trkpt lat="48.248216347312024" lon="7.410386639806968"><ele>176.5</ele><time>2026-03-28T06:59:31Z</time></trkpt><trkpt lat="48.2479548221092" lon="7.410299857687941"><ele>176.0</ele><time>2026-03-28T06:59:32Z</time></trkpt><trkpt lat="48.247693285073" lon="7.4102077429690745"><ele>176.0</ele><time>2026-03-28T06:59:33Z</time></trkpt><trkpt lat="48.24743106036404" lon="7.410119787055677"><ele>176.0</ele><time>2026-03-28T06:59:34Z</time></trkpt><trkpt lat="48.247167227081626" lon="7.410033490966127"><ele>176.0</ele><time>2026-03-28T06:59:35Z</time></trkpt><trkpt lat="48.24690435470977" lon="7.409952006586162"><ele>176.0</ele><time>2026-03-28T06:59:36Z</time></trkpt><trkpt lat="48.2466403383743" lon="7.409870675367903"><ele>175.5</ele><time>2026-03-28T06:59:37Z</time></trkpt><trkpt lat="48.246376201024795" lon="7.409789636144777"><ele>175.0</ele><time>2026-03-28T06:59:38Z</time></trkpt><trkpt lat="48.246112759971844" lon="7.409714449791737"><ele>175.0</ele><time>2026-03-28T06:59:39Z</time></trkpt><trkpt lat="48.24584867236461" lon="7.409639268730326"><ele>175.0</ele><time>2026-03-28T06:59:40Z</time></trkpt><trkpt lat="48.245583997142944" lon="7.409568747896255"><ele>175.0</ele><time>2026-03-28T06:59:41Z</time></trkpt><trkpt lat="48.24532112318944" lon="7.409498304950826"><ele>175.0</ele><time>2026-03-28T06:59:42Z</time></trkpt><trkpt lat="48.24505216263743" lon="7.409431383586647"><ele>175.5</ele><time>2026-03-28T06:59:43Z</time></trkpt><trkpt lat="48.24478731621689" lon="7.409362878043005"><ele>176.0</ele><time>2026-03-28T06:59:44Z</time></trkpt><trkpt lat="48.24452148375704" lon="7.409290384117777"><ele>176.0</ele><time>2026-03-28T06:59:45Z</time></trkpt><trkpt lat="48.24425541505645" lon="7.409221578946029"><ele>176.0</ele><time>2026-03-28T06:59:46Z</time></trkpt><trkpt lat="48.24398709886708" lon="7.409157695300063"><ele>176.5</ele><time>2026-03-28T06:59:47Z</time></trkpt><trkpt lat="48.24371976734374" lon="7.40908606316882"><ele>177.0</ele><time>2026-03-28T06:59:48Z</time></trkpt><trkpt lat="48.24345007885956" lon="7.409016434838556"><ele>177.0</ele><time>2026-03-28T06:59:49Z</time></trkpt><trkpt lat="48.2431792750835" lon="7.40895299323698"><ele>177.0</ele><time>2026-03-28T06:59:50Z</time></trkpt><trkpt lat="48.24290829811282" lon="7.408899536332055"><ele>177.0</ele><time>2026-03-28T06:59:51Z</time></trkpt><trkpt lat="48.24263762461516" lon="7.4088377049914715"><ele>177.0</ele><time>2026-03-28T06:59:52Z</time></trkpt><trkpt lat="48.24236536667438" lon="7.408783582484692"><ele>176.5</ele><time>2026-03-28T06:59:53Z</time></trkpt><trkpt lat="48.24209189925307" lon="7.408730871359635"><ele>176.0</ele><time>2026-03-28T06:59:54Z</time></trkpt><trkpt lat="48.24182089622785" lon="7.408676932553375"><ele>176.0</ele><time>2026-03-28T06:59:55Z</time></trkpt><trkpt lat="48.24155102067126" lon="7.408627726934728"><ele>176.0</ele><time>2026-03-28T06:59:56Z</time></trkpt><trkpt lat="48.241278341939676" lon="7.408575454003978"><ele>176.0</ele><time>2026-03-28T06:59:57Z</time></trkpt><trkpt lat="48.2410070645063" lon="7.408525820740801"><ele>176.0</ele><time>2026-03-28T06:59:58Z</time></trkpt><trkpt lat="48.24073616476511" lon="7.408474186715326"><ele>176.0</ele><time>2026-03-28T06:59:59Z</time></trkpt><trkpt lat="48.24046327059191" lon="7.408423175010971"><ele>176.0</ele><time>2026-03-28T07:00:00Z</time></trkpt><trkpt lat="48.240191484622905" lon="7.408372696179036"><ele>176.0</ele><time>2026-03-28T07:00:01Z</time></trkpt><trkpt lat="48.23991877230636" lon="7.408323436798134"><ele>176.0</ele><time>2026-03-28T07:00:02Z</time></trkpt><trkpt lat="48.239647437832424" lon="7.408275218872151"><ele>175.5</ele><time>2026-03-28T07:00:03Z</time></trkpt><trkpt lat="48.23937549152208" lon="7.40822855620615"><ele>175.0</ele><time>2026-03-28T07:00:04Z</time></trkpt><trkpt lat="48.23910291644561" lon="7.40818312707902"><ele>174.5</ele><time>2026-03-28T07:00:05Z</time></trkpt><trkpt lat="48.23882952362622" lon="7.408137757454981"><ele>174.0</ele><time>2026-03-28T07:00:06Z</time></trkpt><trkpt lat="48.23855696260541" lon="7.408092898328514"><ele>174.0</ele><time>2026-03-28T07:00:07Z</time></trkpt><trkpt lat="48.238282211501215" lon="7.408046468344474"><ele>174.0</ele><time>2026-03-28T07:00:08Z</time></trkpt><trkpt lat="48.238009297327444" lon="7.408004980260517"><ele>173.5</ele><time>2026-03-28T07:00:09Z</time></trkpt><trkpt lat="48.237735510266994" lon="7.407963498138274"><ele>173.0</ele><time>2026-03-28T07:00:10Z</time></trkpt><trkpt lat="48.237461943002856" lon="7.407919777964346"><ele>173.5</ele><time>2026-03-28T07:00:11Z</time></trkpt><trkpt lat="48.237188956079684" lon="7.407873388040532"><ele>174.0</ele><time>2026-03-28T07:00:12Z</time></trkpt><trkpt lat="48.236915115790886" lon="7.40782663006507"><ele>174.0</ele><time>2026-03-28T07:00:13Z</time></trkpt><trkpt lat="48.23664072789626" lon="7.407780193747652"><ele>174.0</ele><time>2026-03-28T07:00:14Z</time></trkpt><trkpt lat="48.23636785915609" lon="7.4077368091051605"><ele>173.5</ele><time>2026-03-28T07:00:15Z</time></trkpt><trkpt lat="48.236096999651075" lon="7.407693805603085"><ele>173.0</ele><time>2026-03-28T07:00:16Z</time></trkpt><trkpt lat="48.235826252593846" lon="7.40765041870394"><ele>173.0</ele><time>2026-03-28T07:00:17Z</time></trkpt><trkpt lat="48.23555523747365" lon="7.407606395786359"><ele>173.0</ele><time>2026-03-28T07:00:18Z</time></trkpt><trkpt lat="48.23528486327965" lon="7.407560644570386"><ele>173.0</ele><time>2026-03-28T07:00:19Z</time></trkpt><trkpt lat="48.235014477324675" lon="7.4075153973209416"><ele>173.0</ele><time>2026-03-28T07:00:20Z</time></trkpt><trkpt lat="48.23474300858506" lon="7.407470735285001"><ele>174.0</ele><time>2026-03-28T07:00:21Z</time></trkpt><trkpt lat="48.23447199449979" lon="7.40742643097753"><ele>175.0</ele><time>2026-03-28T07:00:22Z</time></trkpt><trkpt lat="48.234203484419886" lon="7.407379031354176"><ele>175.0</ele><time>2026-03-28T07:00:23Z</time></trkpt><trkpt lat="48.23393461166355" lon="7.407331859853394"><ele>175.0</ele><time>2026-03-28T07:00:24Z</time></trkpt><trkpt lat="48.23366621603493" lon="7.407283974102305"><ele>175.0</ele><time>2026-03-28T07:00:25Z</time></trkpt><trkpt lat="48.233395543679784" lon="7.4072381986103855"><ele>175.0</ele><time>2026-03-28T07:00:26Z</time></trkpt><trkpt lat="48.23312688228472" lon="7.407191019973182"><ele>175.0</ele><time>2026-03-28T07:00:27Z</time></trkpt><trkpt lat="48.23285664470591" lon="7.4071453382805466"><ele>175.0</ele><time>2026-03-28T07:00:28Z</time></trkpt><trkpt lat="48.23258800020863" lon="7.40709104407775"><ele>175.0</ele><time>2026-03-28T07:00:29Z</time></trkpt><trkpt lat="48.2323195779254" lon="7.40703900781732"><ele>175.0</ele><time>2026-03-28T07:00:30Z</time></trkpt><trkpt lat="48.232051516635046" lon="7.406981967337056"><ele>174.0</ele><time>2026-03-28T07:00:31Z</time></trkpt><trkpt lat="48.23178423753515" lon="7.406925837449215"><ele>173.0</ele><time>2026-03-28T07:00:32Z</time></trkpt><trkpt lat="48.23151409819841" lon="7.406868908045295"><ele>173.0</ele><time>2026-03-28T07:00:33Z</time></trkpt><trkpt lat="48.231248585739166" lon="7.406812461423903"><ele>173.0</ele><time>2026-03-28T07:00:34Z</time></trkpt><trkpt lat="48.23097962245867" lon="7.40675620491007"><ele>173.0</ele><time>2026-03-28T07:00:35Z</time></trkpt><trkpt lat="48.23071420434206" lon="7.40670063543279"><ele>173.0</ele><time>2026-03-28T07:00:36Z</time></trkpt><trkpt lat="48.23044727227768" lon="7.406648970897911"><ele>173.5</ele><time>2026-03-28T07:00:37Z</time></trkpt><trkpt lat="48.230179889334075" lon="7.406598123862984"><ele>174.0</ele><time>2026-03-28T07:00:38Z</time></trkpt><trkpt lat="48.22991549184297" lon="7.406548286086172"><ele>174.0</ele><time>2026-03-28T07:00:39Z</time></trkpt><trkpt lat="48.229650600191654" lon="7.40649706740368"><ele>174.0</ele><time>2026-03-28T07:00:40Z</time></trkpt><trkpt lat="48.229381558802594" lon="7.4064423075586845"><ele>174.0</ele><time>2026-03-28T07:00:41Z</time></trkpt><trkpt lat="48.22911814854011" lon="7.406384730763451"><ele>174.0</ele><time>2026-03-28T07:00:42Z</time></trkpt><trkpt lat="48.22885590695213" lon="7.406323762118627"><ele>174.0</ele><time>2026-03-28T07:00:43Z</time></trkpt><trkpt lat="48.228592006899554" lon="7.4062650193411415"><ele>174.0</ele><time>2026-03-28T07:00:44Z</time></trkpt><trkpt lat="48.22832933977879" lon="7.40620018021297"><ele>174.0</ele><time>2026-03-28T07:00:45Z</time></trkpt><trkpt lat="48.22807044382323" lon="7.406133242426948"><ele>174.0</ele><time>2026-03-28T07:00:46Z</time></trkpt><trkpt lat="48.227809735163184" lon="7.406066963823788"><ele>174.0</ele><time>2026-03-28T07:00:47Z</time></trkpt><trkpt lat="48.22755106841701" lon="7.405995870208484"><ele>174.0</ele><time>2026-03-28T07:00:48Z</time></trkpt><trkpt lat="48.227291278998855" lon="7.4059239205916345"><ele>174.0</ele><time>2026-03-28T07:00:49Z</time></trkpt><trkpt lat="48.22703019534918" lon="7.405849302645616"><ele>174.0</ele><time>2026-03-28T07:00:50Z</time></trkpt><trkpt lat="48.22677317659815" lon="7.405773622771466"><ele>174.0</ele><time>2026-03-28T07:00:51Z</time></trkpt><trkpt lat="48.226512819441865" lon="7.405692532077714"><ele>174.0</ele><time>2026-03-28T07:00:52Z</time></trkpt><trkpt lat="48.22625259865373" lon="7.405608491367566"><ele>174.5</ele><time>2026-03-28T07:00:53Z</time></trkpt><trkpt lat="48.22599256506389" lon="7.4055240164871785"><ele>175.0</ele><time>2026-03-28T07:00:54Z</time></trkpt><trkpt lat="48.22572678693929" lon="7.405440280620231"><ele>174.5</ele><time>2026-03-28T07:00:55Z</time></trkpt><trkpt lat="48.22546533213445" lon="7.4053541395662625"><ele>174.0</ele><time>2026-03-28T07:00:56Z</time></trkpt><trkpt lat="48.2252037396617" lon="7.40525806045487"><ele>174.0</ele><time>2026-03-28T07:00:57Z</time></trkpt><trkpt lat="48.22493889813099" lon="7.405161678137002"><ele>174.0</ele><time>2026-03-28T07:00:58Z</time></trkpt><trkpt lat="48.224678482217435" lon="7.405061510735713"><ele>175.5</ele><time>2026-03-28T07:00:59Z</time></trkpt><trkpt lat="48.224419503684196" lon="7.4049636623070585"><ele>177.0</ele><time>2026-03-28T07:01:00Z</time></trkpt><trkpt lat="48.22416332487124" lon="7.404868460367647"><ele>177.0</ele><time>2026-03-28T07:01:01Z</time></trkpt><trkpt lat="48.22390687020179" lon="7.404770717428568"><ele>177.0</ele><time>2026-03-28T07:01:02Z</time></trkpt><trkpt lat="48.223651685559524" lon="7.404675864178254"><ele>177.0</ele><time>2026-03-28T07:01:03Z</time></trkpt><trkpt lat="48.22339561795556" lon="7.404579153663404"><ele>177.0</ele><time>2026-03-28T07:01:04Z</time></trkpt><trkpt lat="48.223141335050144" lon="7.404476959113583"><ele>177.0</ele><time>2026-03-28T07:01:05Z</time></trkpt><trkpt lat="48.22288867205284" lon="7.404372384222554"><ele>177.0</ele><time>2026-03-28T07:01:06Z</time></trkpt><trkpt lat="48.22263448240791" lon="7.404266561569191"><ele>177.0</ele><time>2026-03-28T07:01:07Z</time></trkpt><trkpt lat="48.22237905480895" lon="7.404161348841196"><ele>177.0</ele><time>2026-03-28T07:01:08Z</time></trkpt><trkpt lat="48.222122252418686" lon="7.40405396191729"><ele>177.0</ele><time>2026-03-28T07:01:09Z</time></trkpt><trkpt lat="48.221867978023504" lon="7.403946605103341"><ele>177.0</ele><time>2026-03-28T07:01:10Z</time></trkpt><trkpt lat="48.221613439378125" lon="7.403833713494221"><ele>177.5</ele><time>2026-03-28T07:01:11Z</time></trkpt><trkpt lat="48.22136068509985" lon="7.403718779171721"><ele>178.0</ele><time>2026-03-28T07:01:12Z</time></trkpt><trkpt lat="48.22110744282702" lon="7.403602777095276"><ele>178.0</ele><time>2026-03-28T07:01:13Z</time></trkpt><trkpt lat="48.220855542946" lon="7.4034863225029826"><ele>178.0</ele><time>2026-03-28T07:01:14Z</time></trkpt><trkpt lat="48.22060093155976" lon="7.403362409780461"><ele>179.0</ele><time>2026-03-28T07:01:15Z</time></trkpt><trkpt lat="48.22034833523435" lon="7.403239271984954"><ele>180.0</ele><time>2026-03-28T07:01:16Z</time></trkpt><trkpt lat="48.220096800759364" lon="7.403116467899639"><ele>180.0</ele><time>2026-03-28T07:01:17Z</time></trkpt><trkpt lat="48.219844772042876" lon="7.402990041942934"><ele>180.0</ele><time>2026-03-28T07:01:18Z</time></trkpt><trkpt lat="48.21959456864091" lon="7.402863183832428"><ele>180.0</ele><time>2026-03-28T07:01:19Z</time></trkpt><trkpt lat="48.21934358336002" lon="7.402733121996734"><ele>180.0</ele><time>2026-03-28T07:01:20Z</time></trkpt><trkpt lat="48.219093568608514" lon="7.402602524336515"><ele>180.0</ele><time>2026-03-28T07:01:21Z</time></trkpt><trkpt lat="48.21884873197209" lon="7.402471198217034"><ele>180.0</ele><time>2026-03-28T07:01:22Z</time></trkpt><trkpt lat="48.21859781935835" lon="7.4023445773422605"><ele>180.0</ele><time>2026-03-28T07:01:23Z</time></trkpt><trkpt lat="48.21834723283228" lon="7.402213341500247"><ele>180.0</ele><time>2026-03-28T07:01:24Z</time></trkpt><trkpt lat="48.218095800965216" lon="7.402074288251777"><ele>179.0</ele><time>2026-03-28T07:01:25Z</time></trkpt><trkpt lat="48.217848566908174" lon="7.401937429465485"><ele>178.0</ele><time>2026-03-28T07:01:26Z</time></trkpt><trkpt lat="48.217593197815" lon="7.401812965864401"><ele>178.0</ele><time>2026-03-28T07:01:27Z</time></trkpt><trkpt lat="48.2173355750092" lon="7.4016947094660654"><ele>178.0</ele><time>2026-03-28T07:01:28Z</time></trkpt><trkpt lat="48.21708262296056" lon="7.401600853668769"><ele>178.5</ele><time>2026-03-28T07:01:29Z</time></trkpt><trkpt lat="48.2168292227067" lon="7.401518333923025"><ele>179.0</ele><time>2026-03-28T07:01:30Z</time></trkpt><trkpt lat="48.216575367834906" lon="7.401440757628334"><ele>178.5</ele><time>2026-03-28T07:01:31Z</time></trkpt><trkpt lat="48.2163194250272" lon="7.401378132419894"><ele>178.0</ele><time>2026-03-28T07:01:32Z</time></trkpt><trkpt lat="48.21606158761509" lon="7.401324653447392"><ele>178.0</ele><time>2026-03-28T07:01:33Z</time></trkpt><trkpt lat="48.21580018236815" lon="7.401291117629743"><ele>178.0</ele><time>2026-03-28T07:01:34Z</time></trkpt><trkpt lat="48.2155351923472" lon="7.401276297319089"><ele>178.5</ele><time>2026-03-28T07:01:35Z</time></trkpt><trkpt lat="48.21527194275484" lon="7.401280384292175"><ele>179.0</ele><time>2026-03-28T07:01:36Z</time></trkpt><trkpt lat="48.21500876403931" lon="7.4013037761259355"><ele>178.5</ele><time>2026-03-28T07:01:37Z</time></trkpt><trkpt lat="48.21475172130511" lon="7.401349820666462"><ele>178.0</ele><time>2026-03-28T07:01:38Z</time></trkpt><trkpt lat="48.21449179463718" lon="7.401405412557432"><ele>178.0</ele><time>2026-03-28T07:01:39Z</time></trkpt><trkpt lat="48.214231547685664" lon="7.401465995341274"><ele>178.0</ele><time>2026-03-28T07:01:40Z</time></trkpt><trkpt lat="48.213970287265475" lon="7.401527120340193"><ele>177.5</ele><time>2026-03-28T07:01:41Z</time></trkpt><trkpt lat="48.21370783281603" lon="7.4015940205533886"><ele>177.0</ele><time>2026-03-28T07:01:42Z</time></trkpt><trkpt lat="48.21344604071206" lon="7.40165770059366"><ele>177.0</ele><time>2026-03-28T07:01:43Z</time></trkpt><trkpt lat="48.21318573035997" lon="7.401706496892557"><ele>177.0</ele><time>2026-03-28T07:01:44Z</time></trkpt><trkpt lat="48.21292103472994" lon="7.401741540689459"><ele>176.5</ele><time>2026-03-28T07:01:45Z</time></trkpt><trkpt lat="48.21265890228533" lon="7.401754544371853"><ele>176.0</ele><time>2026-03-28T07:01:46Z</time></trkpt><trkpt lat="48.212398308817136" lon="7.401751633248477"><ele>176.0</ele><time>2026-03-28T07:01:47Z</time></trkpt><trkpt lat="48.212139187352385" lon="7.401735310509048"><ele>176.0</ele><time>2026-03-28T07:01:48Z</time></trkpt><trkpt lat="48.21188078675945" lon="7.4017033034501125"><ele>176.0</ele><time>2026-03-28T07:01:49Z</time></trkpt><trkpt lat="48.21162955479376" lon="7.401651322310962"><ele>176.0</ele><time>2026-03-28T07:01:50Z</time></trkpt><trkpt lat="48.21137906078046" lon="7.401599275432306"><ele>176.5</ele><time>2026-03-28T07:01:51Z</time></trkpt><trkpt lat="48.211127939151616" lon="7.4015446683918515"><ele>177.0</ele><time>2026-03-28T07:01:52Z</time></trkpt><trkpt lat="48.21087275303808" lon="7.401492280936249"><ele>177.0</ele><time>2026-03-28T07:01:53Z</time></trkpt><trkpt lat="48.210618708842844" lon="7.401438067641071"><ele>177.0</ele><time>2026-03-28T07:01:54Z</time></trkpt><trkpt lat="48.21036389255734" lon="7.401390485844845"><ele>177.0</ele><time>2026-03-28T07:01:55Z</time></trkpt><trkpt lat="48.210106357977246" lon="7.401340906000337"><ele>177.0</ele><time>2026-03-28T07:01:56Z</time></trkpt><trkpt lat="48.20984699895414" lon="7.401288531183599"><ele>175.5</ele><time>2026-03-28T07:01:57Z</time></trkpt><trkpt lat="48.2095866464937" lon="7.401238030329642"><ele>174.0</ele><time>2026-03-28T07:01:58Z</time></trkpt><trkpt lat="48.2093250446544" lon="7.401185369557379"><ele>174.0</ele><time>2026-03-28T07:01:59Z</time></trkpt><trkpt lat="48.20906416909332" lon="7.40113578935698"><ele>174.0</ele><time>2026-03-28T07:02:00Z</time></trkpt><trkpt lat="48.208802168968376" lon="7.401085963005573"><ele>175.0</ele><time>2026-03-28T07:02:01Z</time></trkpt><trkpt lat="48.20853774049813" lon="7.40103396664977"><ele>176.0</ele><time>2026-03-28T07:02:02Z</time></trkpt><trkpt lat="48.208280991567996" lon="7.400975340818277"><ele>175.0</ele><time>2026-03-28T07:02:03Z</time></trkpt><trkpt lat="48.20802808269442" lon="7.40089999340388"><ele>174.0</ele><time>2026-03-28T07:02:04Z</time></trkpt><trkpt lat="48.2077777179216" lon="7.40080593556076"><ele>174.0</ele><time>2026-03-28T07:02:05Z</time></trkpt><trkpt lat="48.20752633609477" lon="7.400703878595054"><ele>174.0</ele><time>2026-03-28T07:02:06Z</time></trkpt><trkpt lat="48.20727424629964" lon="7.4005973416895605"><ele>174.0</ele><time>2026-03-28T07:02:07Z</time></trkpt><trkpt lat="48.207020497852916" lon="7.400493685423126"><ele>174.0</ele><time>2026-03-28T07:02:08Z</time></trkpt><trkpt lat="48.206766645124326" lon="7.40038851584978"><ele>174.0</ele><time>2026-03-28T07:02:09Z</time></trkpt><trkpt lat="48.20651107651549" lon="7.400279338734478"><ele>174.0</ele><time>2026-03-28T07:02:10Z</time></trkpt><trkpt lat="48.20625614673195" lon="7.400173927301653"><ele>173.5</ele><time>2026-03-28T07:02:11Z</time></trkpt><trkpt lat="48.206004285521544" lon="7.4000632006894955"><ele>173.0</ele><time>2026-03-28T07:02:12Z</time></trkpt><trkpt lat="48.205752346795286" lon="7.399952444969714"><ele>173.0</ele><time>2026-03-28T07:02:13Z</time></trkpt><trkpt lat="48.20550035819801" lon="7.399841822978964"><ele>173.0</ele><time>2026-03-28T07:02:14Z</time></trkpt><trkpt lat="48.20525056813062" lon="7.39972753675954"><ele>174.0</ele><time>2026-03-28T07:02:15Z</time></trkpt><trkpt lat="48.20499875538902" lon="7.399612335299675"><ele>175.0</ele><time>2026-03-28T07:02:16Z</time></trkpt><trkpt lat="48.20474770527553" lon="7.39949757841372"><ele>175.5</ele><time>2026-03-28T07:02:17Z</time></trkpt><trkpt lat="48.20449619850973" lon="7.39938339480441"><ele>176.0</ele><time>2026-03-28T07:02:18Z</time></trkpt><trkpt lat="48.20424426676558" lon="7.399271315967543"><ele>174.5</ele><time>2026-03-28T07:02:19Z</time></trkpt><trkpt lat="48.2039940100264" lon="7.399158100256393"><ele>173.0</ele><time>2026-03-28T07:02:20Z</time></trkpt><trkpt lat="48.20374368054858" lon="7.399046861890768"><ele>173.0</ele><time>2026-03-28T07:02:21Z</time></trkpt><trkpt lat="48.20349749538703" lon="7.398932625694313"><ele>173.0</ele><time>2026-03-28T07:02:22Z</time></trkpt><trkpt lat="48.20325039941258" lon="7.398821296754874"><ele>174.5</ele><time>2026-03-28T07:02:23Z</time></trkpt><trkpt lat="48.20300151891237" lon="7.398706794798021"><ele>176.0</ele><time>2026-03-28T07:02:24Z</time></trkpt><trkpt lat="48.20275525268606" lon="7.3985904281384665"><ele>176.0</ele><time>2026-03-28T07:02:25Z</time></trkpt><trkpt lat="48.202509304147384" lon="7.3984754048160015"><ele>176.0</ele><time>2026-03-28T07:02:26Z</time></trkpt><trkpt lat="48.202260051857806" lon="7.398361780876431"><ele>175.5</ele><time>2026-03-28T07:02:27Z</time></trkpt><trkpt lat="48.20200915445279" lon="7.3982433202445375"><ele>175.0</ele><time>2026-03-28T07:02:28Z</time></trkpt><trkpt lat="48.20175741693771" lon="7.398124867524988"><ele>175.0</ele><time>2026-03-28T07:02:29Z</time></trkpt><trkpt lat="48.20150118574344" lon="7.398009018059403"><ele>175.0</ele><time>2026-03-28T07:02:30Z</time></trkpt><trkpt lat="48.201244238697804" lon="7.397898912171207"><ele>175.5</ele><time>2026-03-28T07:02:31Z</time></trkpt><trkpt lat="48.20098470371256" lon="7.397794764722537"><ele>176.0</ele><time>2026-03-28T07:02:32Z</time></trkpt><trkpt lat="48.200723748117824" lon="7.397701932722043"><ele>174.5</ele><time>2026-03-28T07:02:33Z</time></trkpt><trkpt lat="48.20045690398675" lon="7.397621783612619"><ele>173.0</ele><time>2026-03-28T07:02:34Z</time></trkpt><trkpt lat="48.20018654201951" lon="7.397550817691526"><ele>173.0</ele><time>2026-03-28T07:02:35Z</time></trkpt><trkpt lat="48.19992017574308" lon="7.397497504974439"><ele>173.0</ele><time>2026-03-28T07:02:36Z</time></trkpt><trkpt lat="48.19964718422867" lon="7.397449217346342"><ele>173.0</ele><time>2026-03-28T07:02:37Z</time></trkpt><trkpt lat="48.19937808196174" lon="7.397401126150639"><ele>173.0</ele><time>2026-03-28T07:02:38Z</time></trkpt><trkpt lat="48.19910911851813" lon="7.397352237697494"><ele>173.5</ele><time>2026-03-28T07:02:39Z</time></trkpt><trkpt lat="48.1988370930199" lon="7.397304774836449"><ele>174.0</ele><time>2026-03-28T07:02:40Z</time></trkpt><trkpt lat="48.19856459289182" lon="7.3972540874598565"><ele>174.0</ele><time>2026-03-28T07:02:41Z</time></trkpt><trkpt lat="48.198293322345094" lon="7.397205294137918"><ele>174.0</ele><time>2026-03-28T07:02:42Z</time></trkpt><trkpt lat="48.19802211543564" lon="7.397157218071774"><ele>174.5</ele><time>2026-03-28T07:02:43Z</time></trkpt><trkpt lat="48.19775257074466" lon="7.397108504069127"><ele>175.0</ele><time>2026-03-28T07:02:44Z</time></trkpt><trkpt lat="48.197483981500156" lon="7.397055922952068"><ele>174.5</ele><time>2026-03-28T07:02:45Z</time></trkpt><trkpt lat="48.197212953089334" lon="7.397005094195555"><ele>174.0</ele><time>2026-03-28T07:02:46Z</time></trkpt><trkpt lat="48.19694696572546" lon="7.396952456107085"><ele>174.0</ele><time>2026-03-28T07:02:47Z</time></trkpt><trkpt lat="48.19667961467907" lon="7.3968966625083485"><ele>174.0</ele><time>2026-03-28T07:02:48Z</time></trkpt><trkpt lat="48.19641196842793" lon="7.3968345056814675"><ele>174.0</ele><time>2026-03-28T07:02:49Z</time></trkpt><trkpt lat="48.19614787883166" lon="7.396755247129067"><ele>174.0</ele><time>2026-03-28T07:02:50Z</time></trkpt><trkpt lat="48.19588452450195" lon="7.3966646504511"><ele>174.5</ele><time>2026-03-28T07:02:51Z</time></trkpt><trkpt lat="48.19562265078936" lon="7.39655894100495"><ele>175.0</ele><time>2026-03-28T07:02:52Z</time></trkpt><trkpt lat="48.195361476095" lon="7.396442440005161"><ele>175.0</ele><time>2026-03-28T07:02:53Z</time></trkpt><trkpt lat="48.19510481335637" lon="7.39631743662424"><ele>175.0</ele><time>2026-03-28T07:02:54Z</time></trkpt><trkpt lat="48.19485099323482" lon="7.396179854036874"><ele>175.0</ele><time>2026-03-28T07:02:55Z</time></trkpt><trkpt lat="48.19459954405441" lon="7.396033425448114"><ele>175.0</ele><time>2026-03-28T07:02:56Z</time></trkpt><trkpt lat="48.19434676328743" lon="7.395883279065647"><ele>175.0</ele><time>2026-03-28T07:02:57Z</time></trkpt><trkpt lat="48.194096900403714" lon="7.3957319737606575"><ele>175.0</ele><time>2026-03-28T07:02:58Z</time></trkpt><trkpt lat="48.193840321718184" lon="7.395575861470959"><ele>175.0</ele><time>2026-03-28T07:02:59Z</time></trkpt><trkpt lat="48.19358844172115" lon="7.395424195111239"><ele>175.0</ele><time>2026-03-28T07:03:00Z</time></trkpt><trkpt lat="48.19333260450499" lon="7.395267791370562"><ele>176.0</ele><time>2026-03-28T07:03:01Z</time></trkpt><trkpt lat="48.19307869163344" lon="7.395109538679373"><ele>177.0</ele><time>2026-03-28T07:03:02Z</time></trkpt><trkpt lat="48.19282480562604" lon="7.394953466954207"><ele>177.0</ele><time>2026-03-28T07:03:03Z</time></trkpt><trkpt lat="48.19256957763027" lon="7.394799583551005"><ele>177.0</ele><time>2026-03-28T07:03:04Z</time></trkpt><trkpt lat="48.192317090734775" lon="7.394646459178437"><ele>177.0</ele><time>2026-03-28T07:03:05Z</time></trkpt><trkpt lat="48.19206440838892" lon="7.394491055361521"><ele>177.0</ele><time>2026-03-28T07:03:06Z</time></trkpt><trkpt lat="48.19181472318909" lon="7.394336705745639"><ele>177.0</ele><time>2026-03-28T07:03:07Z</time></trkpt><trkpt lat="48.191563926928666" lon="7.394181985241806"><ele>177.0</ele><time>2026-03-28T07:03:08Z</time></trkpt><trkpt lat="48.191314173127736" lon="7.394025490878762"><ele>177.0</ele><time>2026-03-28T07:03:09Z</time></trkpt><trkpt lat="48.191061897069794" lon="7.393873699855522"><ele>177.0</ele><time>2026-03-28T07:03:10Z</time></trkpt><trkpt lat="48.190810925164996" lon="7.3937198900290175"><ele>176.5</ele><time>2026-03-28T07:03:11Z</time></trkpt><trkpt lat="48.19055886720645" lon="7.393563180988198"><ele>176.0</ele><time>2026-03-28T07:03:12Z</time></trkpt><trkpt lat="48.19030857039093" lon="7.393409793014831"><ele>176.0</ele><time>2026-03-28T07:03:13Z</time></trkpt><trkpt lat="48.19006210660481" lon="7.393260959001909"><ele>176.0</ele><time>2026-03-28T07:03:14Z</time></trkpt><trkpt lat="48.18981265931496" lon="7.393106303093085"><ele>176.0</ele><time>2026-03-28T07:03:15Z</time></trkpt><trkpt lat="48.189561967309864" lon="7.392953561278665"><ele>176.0</ele><time>2026-03-28T07:03:16Z</time></trkpt><trkpt lat="48.189311476094666" lon="7.392791425668137"><ele>176.0</ele><time>2026-03-28T07:03:17Z</time></trkpt><trkpt lat="48.189062155666925" lon="7.392633575996775"><ele>176.0</ele><time>2026-03-28T07:03:18Z</time></trkpt><trkpt lat="48.188809816982356" lon="7.3924783068061375"><ele>176.5</ele><time>2026-03-28T07:03:19Z</time></trkpt><trkpt lat="48.18855299770167" lon="7.3923226460249785"><ele>177.0</ele><time>2026-03-28T07:03:20Z</time></trkpt><trkpt lat="48.18830058444426" lon="7.3921657366684705"><ele>177.0</ele><time>2026-03-28T07:03:21Z</time></trkpt><trkpt lat="48.188052236292656" lon="7.392010963594288"><ele>177.0</ele><time>2026-03-28T07:03:22Z</time></trkpt><trkpt lat="48.187803333603334" lon="7.391855712494084"><ele>177.0</ele><time>2026-03-28T07:03:23Z</time></trkpt><trkpt lat="48.18755560457239" lon="7.391693496381316"><ele>177.0</ele><time>2026-03-28T07:03:24Z</time></trkpt><trkpt lat="48.187315233001584" lon="7.391512121394699"><ele>177.5</ele><time>2026-03-28T07:03:25Z</time></trkpt><trkpt lat="48.18708363298618" lon="7.391313864018211"><ele>178.0</ele><time>2026-03-28T07:03:26Z</time></trkpt><trkpt lat="48.18686169326946" lon="7.39108852352604"><ele>178.0</ele><time>2026-03-28T07:03:27Z</time></trkpt><trkpt lat="48.18664776603366" lon="7.390844443407216"><ele>178.0</ele><time>2026-03-28T07:03:28Z</time></trkpt><trkpt lat="48.18644229909808" lon="7.39058482346428"><ele>178.5</ele><time>2026-03-28T07:03:29Z</time></trkpt><trkpt lat="48.18624362369174" lon="7.390309852513961"><ele>179.0</ele><time>2026-03-28T07:03:30Z</time></trkpt><trkpt lat="48.186055732594305" lon="7.390016934491286"><ele>179.0</ele><time>2026-03-28T07:03:31Z</time></trkpt><trkpt lat="48.1858744152304" lon="7.389713087960622"><ele>179.0</ele><time>2026-03-28T07:03:32Z</time></trkpt><trkpt lat="48.18569803458496" lon="7.389400283702245"><ele>178.5</ele><time>2026-03-28T07:03:33Z</time></trkpt><trkpt lat="48.18552399846605" lon="7.389089051072843"><ele>178.0</ele><time>2026-03-28T07:03:34Z</time></trkpt><trkpt lat="48.18534373157022" lon="7.388783153630506"><ele>178.0</ele><time>2026-03-28T07:03:35Z</time></trkpt><trkpt lat="48.18516064741814" lon="7.388486213679772"><ele>178.0</ele><time>2026-03-28T07:03:36Z</time></trkpt><trkpt lat="48.18496599301327" lon="7.388197560259276"><ele>178.0</ele><time>2026-03-28T07:03:37Z</time></trkpt><trkpt lat="48.18476458182177" lon="7.387922137798402"><ele>178.0</ele><time>2026-03-28T07:03:38Z</time></trkpt><trkpt lat="48.18455879780421" lon="7.38766085467494"><ele>178.0</ele><time>2026-03-28T07:03:39Z</time></trkpt><trkpt lat="48.184347680136696" lon="7.387408521378503"><ele>178.0</ele><time>2026-03-28T07:03:40Z</time></trkpt><trkpt lat="48.184128050985144" lon="7.3871730628659344"><ele>178.5</ele><time>2026-03-28T07:03:41Z</time></trkpt><trkpt lat="48.1839005140604" lon="7.386953124385261"><ele>179.0</ele><time>2026-03-28T07:03:42Z</time></trkpt><trkpt lat="48.183667721802934" lon="7.386741141838186"><ele>179.0</ele><time>2026-03-28T07:03:43Z</time></trkpt><trkpt lat="48.183428245778494" lon="7.386544861574325"><ele>179.0</ele><time>2026-03-28T07:03:44Z</time></trkpt><trkpt lat="48.18318592808019" lon="7.38635615358875"><ele>178.5</ele><time>2026-03-28T07:03:45Z</time></trkpt><trkpt lat="48.1829445087675" lon="7.386177145170127"><ele>178.0</ele><time>2026-03-28T07:03:46Z</time></trkpt><trkpt lat="48.182699047267384" lon="7.385995209241495"><ele>178.0</ele><time>2026-03-28T07:03:47Z</time></trkpt><trkpt lat="48.18245345035998" lon="7.385814821830711"><ele>178.0</ele><time>2026-03-28T07:03:48Z</time></trkpt><trkpt lat="48.18221040976609" lon="7.385629856954132"><ele>179.5</ele><time>2026-03-28T07:03:49Z</time></trkpt><trkpt lat="48.18196289497467" lon="7.385445645334506"><ele>181.0</ele><time>2026-03-28T07:03:50Z</time></trkpt><trkpt lat="48.18171782092611" lon="7.3852599689377145"><ele>180.0</ele><time>2026-03-28T07:03:51Z</time></trkpt><trkpt lat="48.181472664096056" lon="7.385073558628257"><ele>179.0</ele><time>2026-03-28T07:03:52Z</time></trkpt><trkpt lat="48.18123008761348" lon="7.384884219446977"><ele>179.0</ele><time>2026-03-28T07:03:53Z</time></trkpt><trkpt lat="48.180986755561705" lon="7.384687609955134"><ele>179.0</ele><time>2026-03-28T07:03:54Z</time></trkpt><trkpt lat="48.1807451409214" lon="7.3844909925194315"><ele>178.5</ele><time>2026-03-28T07:03:55Z</time></trkpt><trkpt lat="48.18050976916112" lon="7.384279129753507"><ele>178.0</ele><time>2026-03-28T07:03:56Z</time></trkpt><trkpt lat="48.18027709166765" lon="7.384062427500575"><ele>177.5</ele><time>2026-03-28T07:03:57Z</time></trkpt><trkpt lat="48.18004889082395" lon="7.3838406613154355"><ele>177.0</ele><time>2026-03-28T07:03:58Z</time></trkpt><trkpt lat="48.17982097393357" lon="7.38361462658284"><ele>177.0</ele><time>2026-03-28T07:03:59Z</time></trkpt><trkpt lat="48.179596101782835" lon="7.383382129629389"><ele>177.0</ele><time>2026-03-28T07:04:00Z</time></trkpt><trkpt lat="48.179370941079" lon="7.383147195689207"><ele>177.5</ele><time>2026-03-28T07:04:01Z</time></trkpt><trkpt lat="48.179149434721495" lon="7.382904639269595"><ele>178.0</ele><time>2026-03-28T07:04:02Z</time></trkpt><trkpt lat="48.17893062725439" lon="7.38265598089142"><ele>178.0</ele><time>2026-03-28T07:04:03Z</time></trkpt><trkpt lat="48.178717150832995" lon="7.382400961427208"><ele>178.0</ele><time>2026-03-28T07:04:04Z</time></trkpt><trkpt lat="48.17850948797549" lon="7.382142286055825"><ele>178.0</ele><time>2026-03-28T07:04:05Z</time></trkpt><trkpt lat="48.178299963523195" lon="7.381879929981277"><ele>178.0</ele><time>2026-03-28T07:04:06Z</time></trkpt><trkpt lat="48.178089805824" lon="7.381619150447834"><ele>178.0</ele><time>2026-03-28T07:04:07Z</time></trkpt><trkpt lat="48.177880340165835" lon="7.381359738927375"><ele>178.0</ele><time>2026-03-28T07:04:08Z</time></trkpt><trkpt lat="48.17767298653967" lon="7.381097456284243"><ele>178.0</ele><time>2026-03-28T07:04:09Z</time></trkpt><trkpt lat="48.17746029964213" lon="7.380841338591513"><ele>178.0</ele><time>2026-03-28T07:04:10Z</time></trkpt><trkpt lat="48.17724947178258" lon="7.380583633555378"><ele>178.0</ele><time>2026-03-28T07:04:11Z</time></trkpt><trkpt lat="48.177038018642385" lon="7.380328999961125"><ele>178.0</ele><time>2026-03-28T07:04:12Z</time></trkpt><trkpt lat="48.17682468833901" lon="7.38008091801422"><ele>178.0</ele><time>2026-03-28T07:04:13Z</time></trkpt><trkpt lat="48.17660502529408" lon="7.379845709266399"><ele>178.0</ele><time>2026-03-28T07:04:14Z</time></trkpt><trkpt lat="48.17638079832374" lon="7.379622495900255"><ele>178.5</ele><time>2026-03-28T07:04:15Z</time></trkpt><trkpt lat="48.17615051191019" lon="7.379407335689506"><ele>179.0</ele><time>2026-03-28T07:04:16Z</time></trkpt><trkpt lat="48.17591711920496" lon="7.3792047568341355"><ele>178.5</ele><time>2026-03-28T07:04:17Z</time></trkpt><trkpt lat="48.17568139594864" lon="7.3790108942001735"><ele>178.0</ele><time>2026-03-28T07:04:18Z</time></trkpt><trkpt lat="48.175442298616254" lon="7.378824033085445"><ele>178.0</ele><time>2026-03-28T07:04:19Z</time></trkpt><trkpt lat="48.1751973307355" lon="7.3786431174755895"><ele>178.0</ele><time>2026-03-28T07:04:20Z</time></trkpt><trkpt lat="48.17495102473525" lon="7.378464752819388"><ele>178.0</ele><time>2026-03-28T07:04:21Z</time></trkpt><trkpt lat="48.17470059441135" lon="7.378292147397921"><ele>178.0</ele><time>2026-03-28T07:04:22Z</time></trkpt><trkpt lat="48.1744526787304" lon="7.378120292659083"><ele>177.0</ele><time>2026-03-28T07:04:23Z</time></trkpt><trkpt lat="48.17420392845474" lon="7.377947570016221"><ele>176.0</ele><time>2026-03-28T07:04:24Z</time></trkpt><trkpt lat="48.17395523578481" lon="7.377773328215445"><ele>176.0</ele><time>2026-03-28T07:04:25Z</time></trkpt><trkpt lat="48.17371008559644" lon="7.377593634868142"><ele>176.0</ele><time>2026-03-28T07:04:26Z</time></trkpt><trkpt lat="48.17346690028125" lon="7.377406682865164"><ele>176.0</ele><time>2026-03-28T07:04:27Z</time></trkpt><trkpt lat="48.173224989903915" lon="7.377211165950637"><ele>176.0</ele><time>2026-03-28T07:04:28Z</time></trkpt><trkpt lat="48.17298681346292" lon="7.377005545814592"><ele>177.0</ele><time>2026-03-28T07:04:29Z</time></trkpt><trkpt lat="48.17274716986342" lon="7.376801325812291"><ele>178.0</ele><time>2026-03-28T07:04:30Z</time></trkpt><trkpt lat="48.17251119712236" lon="7.37660748896314"><ele>177.5</ele><time>2026-03-28T07:04:31Z</time></trkpt><trkpt lat="48.17227311154898" lon="7.376418975242865"><ele>177.0</ele><time>2026-03-28T07:04:32Z</time></trkpt><trkpt lat="48.17203076707988" lon="7.3762453869614335"><ele>176.5</ele><time>2026-03-28T07:04:33Z</time></trkpt><trkpt lat="48.17177896289022" lon="7.376079888207391"><ele>176.0</ele><time>2026-03-28T07:04:34Z</time></trkpt><trkpt lat="48.17152844525515" lon="7.375922872740534"><ele>177.0</ele><time>2026-03-28T07:04:35Z</time></trkpt><trkpt lat="48.17127271502735" lon="7.375774925601288"><ele>178.0</ele><time>2026-03-28T07:04:36Z</time></trkpt><trkpt lat="48.171009723241255" lon="7.375642156327958"><ele>178.0</ele><time>2026-03-28T07:04:37Z</time></trkpt><trkpt lat="48.170752443153134" lon="7.37552104711296"><ele>178.0</ele><time>2026-03-28T07:04:38Z</time></trkpt><trkpt lat="48.17049083267616" lon="7.375410112356915"><ele>178.5</ele><time>2026-03-28T07:04:39Z</time></trkpt><trkpt lat="48.17022899939834" lon="7.375306307331809"><ele>179.0</ele><time>2026-03-28T07:04:40Z</time></trkpt><trkpt lat="48.169962061503355" lon="7.375213968059747"><ele>178.0</ele><time>2026-03-28T07:04:41Z</time></trkpt><trkpt lat="48.16969504596158" lon="7.375132192316289"><ele>177.0</ele><time>2026-03-28T07:04:42Z</time></trkpt><trkpt lat="48.16942458561472" lon="7.375068665952156"><ele>177.0</ele><time>2026-03-28T07:04:43Z</time></trkpt><trkpt lat="48.16915439753803" lon="7.375012736552728"><ele>177.0</ele><time>2026-03-28T07:04:44Z</time></trkpt><trkpt lat="48.16888269970942" lon="7.374967713473971"><ele>177.0</ele><time>2026-03-28T07:04:45Z</time></trkpt><trkpt lat="48.16860887438472" lon="7.374938650057233"><ele>177.0</ele><time>2026-03-28T07:04:46Z</time></trkpt><trkpt lat="48.16833614451409" lon="7.374923974093895"><ele>177.0</ele><time>2026-03-28T07:04:47Z</time></trkpt><trkpt lat="48.16806123494287" lon="7.374918292527397"><ele>177.0</ele><time>2026-03-28T07:04:48Z</time></trkpt><trkpt lat="48.16778483175719" lon="7.374917101010897"><ele>177.0</ele><time>2026-03-28T07:04:49Z</time></trkpt><trkpt lat="48.16751334622375" lon="7.374933194788127"><ele>177.0</ele><time>2026-03-28T07:04:50Z</time></trkpt><trkpt lat="48.16724286667627" lon="7.374960062700771"><ele>177.0</ele><time>2026-03-28T07:04:51Z</time></trkpt><trkpt lat="48.16697190957533" lon="7.375001815655419"><ele>177.0</ele><time>2026-03-28T07:04:52Z</time></trkpt><trkpt lat="48.16670344952376" lon="7.375050830194998"><ele>178.5</ele><time>2026-03-28T07:04:53Z</time></trkpt><trkpt lat="48.16643844452279" lon="7.375114358632937"><ele>180.0</ele><time>2026-03-28T07:04:54Z</time></trkpt><trkpt lat="48.16617270789318" lon="7.375188796705329"><ele>180.0</ele><time>2026-03-28T07:04:55Z</time></trkpt><trkpt lat="48.16590727106715" lon="7.37527498826694"><ele>180.0</ele><time>2026-03-28T07:04:56Z</time></trkpt><trkpt lat="48.165644671677775" lon="7.375373488554635"><ele>180.0</ele><time>2026-03-28T07:04:57Z</time></trkpt><trkpt lat="48.16538209169229" lon="7.375478844277981"><ele>180.0</ele><time>2026-03-28T07:04:58Z</time></trkpt><trkpt lat="48.16512289046539" lon="7.3755963477168125"><ele>180.0</ele><time>2026-03-28T07:04:59Z</time></trkpt><trkpt lat="48.16486635410936" lon="7.375725825086702"><ele>180.0</ele><time>2026-03-28T07:05:00Z</time></trkpt><trkpt lat="48.164610232833155" lon="7.375862731081733"><ele>180.5</ele><time>2026-03-28T07:05:01Z</time></trkpt><trkpt lat="48.16435745392695" lon="7.376013442531635"><ele>181.0</ele><time>2026-03-28T07:05:02Z</time></trkpt><trkpt lat="48.164106181311055" lon="7.376177673310131"><ele>181.0</ele><time>2026-03-28T07:05:03Z</time></trkpt><trkpt lat="48.16385966166567" lon="7.3763530116023786"><ele>181.0</ele><time>2026-03-28T07:05:04Z</time></trkpt><trkpt lat="48.16361712965336" lon="7.37654254342031"><ele>180.5</ele><time>2026-03-28T07:05:05Z</time></trkpt><trkpt lat="48.16337910991798" lon="7.3767380264352465"><ele>180.0</ele><time>2026-03-28T07:05:06Z</time></trkpt><trkpt lat="48.163143148635605" lon="7.376937430475067"><ele>179.5</ele><time>2026-03-28T07:05:07Z</time></trkpt><trkpt lat="48.16290453110717" lon="7.377137853510021"><ele>179.0</ele><time>2026-03-28T07:05:08Z</time></trkpt><trkpt lat="48.162668299731564" lon="7.377338832983783"><ele>179.0</ele><time>2026-03-28T07:05:09Z</time></trkpt><trkpt lat="48.16243086824406" lon="7.3775339992702476"><ele>179.0</ele><time>2026-03-28T07:05:10Z</time></trkpt><trkpt lat="48.16219203245635" lon="7.377723950422384"><ele>179.0</ele><time>2026-03-28T07:05:11Z</time></trkpt><trkpt lat="48.161948362771355" lon="7.377910806315799"><ele>179.0</ele><time>2026-03-28T07:05:12Z</time></trkpt><trkpt lat="48.16170100707493" lon="7.378080408955507"><ele>182.5</ele><time>2026-03-28T07:05:13Z</time></trkpt><trkpt lat="48.161451487018994" lon="7.378235024821925"><ele>186.0</ele><time>2026-03-28T07:05:14Z</time></trkpt><trkpt lat="48.16119848596668" lon="7.378374937992873"><ele>186.0</ele><time>2026-03-28T07:05:15Z</time></trkpt><trkpt lat="48.16094463739224" lon="7.378495605550705"><ele>186.0</ele><time>2026-03-28T07:05:16Z</time></trkpt><trkpt lat="48.160688153221656" lon="7.378604827107525"><ele>185.0</ele><time>2026-03-28T07:05:17Z</time></trkpt><trkpt lat="48.16043033200369" lon="7.378702908220185"><ele>184.0</ele><time>2026-03-28T07:05:18Z</time></trkpt><trkpt lat="48.16017569101433" lon="7.378783563804873"><ele>183.5</ele><time>2026-03-28T07:05:19Z</time></trkpt><trkpt lat="48.15991843117807" lon="7.378851333249449"><ele>183.0</ele><time>2026-03-28T07:05:20Z</time></trkpt><trkpt lat="48.15965610468004" lon="7.378908819045293"><ele>180.5</ele><time>2026-03-28T07:05:21Z</time></trkpt><trkpt lat="48.15939159607635" lon="7.378947197789477"><ele>178.0</ele><time>2026-03-28T07:05:22Z</time></trkpt><trkpt lat="48.15912288414826" lon="7.378966946667269"><ele>178.0</ele><time>2026-03-28T07:05:23Z</time></trkpt><trkpt lat="48.15885402043574" lon="7.378968149006612"><ele>178.0</ele><time>2026-03-28T07:05:24Z</time></trkpt><trkpt lat="48.15858407958194" lon="7.3789515110970685"><ele>178.0</ele><time>2026-03-28T07:05:25Z</time></trkpt><trkpt lat="48.15831389040662" lon="7.378919069151395"><ele>178.0</ele><time>2026-03-28T07:05:26Z</time></trkpt><trkpt lat="48.15804730024838" lon="7.378868388211767"><ele>177.0</ele><time>2026-03-28T07:05:27Z</time></trkpt><trkpt lat="48.15778339472675" lon="7.378801731611854"><ele>176.0</ele><time>2026-03-28T07:05:28Z</time></trkpt><trkpt lat="48.157522442316605" lon="7.378724409502653"><ele>176.0</ele><time>2026-03-28T07:05:29Z</time></trkpt><trkpt lat="48.15726220597442" lon="7.37862480712121"><ele>176.0</ele><time>2026-03-28T07:05:30Z</time></trkpt><trkpt lat="48.15700625452728" lon="7.378505499758991"><ele>176.0</ele><time>2026-03-28T07:05:31Z</time></trkpt><trkpt lat="48.15675624776263" lon="7.378377607428642"><ele>176.0</ele><time>2026-03-28T07:05:32Z</time></trkpt><trkpt lat="48.15650974857564" lon="7.3782327821713904"><ele>176.5</ele><time>2026-03-28T07:05:33Z</time></trkpt><trkpt lat="48.15626477000563" lon="7.378070551936707"><ele>177.0</ele><time>2026-03-28T07:05:34Z</time></trkpt><trkpt lat="48.156025015372165" lon="7.3778967258742805"><ele>177.0</ele><time>2026-03-28T07:05:35Z</time></trkpt><trkpt lat="48.15579260895871" lon="7.37770962306481"><ele>177.0</ele><time>2026-03-28T07:05:36Z</time></trkpt><trkpt lat="48.15556510116365" lon="7.377508048882587"><ele>177.5</ele><time>2026-03-28T07:05:37Z</time></trkpt><trkpt lat="48.155342162326164" lon="7.377290481605027"><ele>178.0</ele><time>2026-03-28T07:05:38Z</time></trkpt><trkpt lat="48.15512558139766" lon="7.377061040184296"><ele>178.0</ele><time>2026-03-28T07:05:39Z</time></trkpt><trkpt lat="48.15491593931954" lon="7.3768193460075855"><ele>178.0</ele><time>2026-03-28T07:05:40Z</time></trkpt><trkpt lat="48.154710638216436" lon="7.376562408151566"><ele>178.5</ele><time>2026-03-28T07:05:41Z</time></trkpt><trkpt lat="48.15451381662623" lon="7.376291706420975"><ele>179.0</ele><time>2026-03-28T07:05:42Z</time></trkpt><trkpt lat="48.154323152910365" lon="7.376009413421282"><ele>179.0</ele><time>2026-03-28T07:05:43Z</time></trkpt><trkpt lat="48.15413979236444" lon="7.375713549826129"><ele>179.0</ele><time>2026-03-28T07:05:44Z</time></trkpt><trkpt lat="48.15396879456562" lon="7.375402614168093"><ele>178.5</ele><time>2026-03-28T07:05:45Z</time></trkpt><trkpt lat="48.15381036063941" lon="7.375078756354051"><ele>178.0</ele><time>2026-03-28T07:05:46Z</time></trkpt><trkpt lat="48.1536583624092" lon="7.374746478095346"><ele>178.5</ele><time>2026-03-28T07:05:47Z</time></trkpt><trkpt lat="48.15351102668128" lon="7.374407954291299"><ele>179.0</ele><time>2026-03-28T07:05:48Z</time></trkpt><trkpt lat="48.153369286154735" lon="7.374067185635729"><ele>179.0</ele><time>2026-03-28T07:05:49Z</time></trkpt><trkpt lat="48.15322120325489" lon="7.373726122359992"><ele>179.0</ele><time>2026-03-28T07:05:50Z</time></trkpt><trkpt lat="48.15307329874358" lon="7.373388894967988"><ele>179.0</ele><time>2026-03-28T07:05:51Z</time></trkpt><trkpt lat="48.15291698196508" lon="7.373064750346734"><ele>179.0</ele><time>2026-03-28T07:05:52Z</time></trkpt><trkpt lat="48.15275230723927" lon="7.372748083991978"><ele>179.0</ele><time>2026-03-28T07:05:53Z</time></trkpt><trkpt lat="48.152579708308124" lon="7.372438594254472"><ele>179.0</ele><time>2026-03-28T07:05:54Z</time></trkpt><trkpt lat="48.15239647275679" lon="7.3721457404789295"><ele>178.5</ele><time>2026-03-28T07:05:55Z</time></trkpt><trkpt lat="48.15220279719883" lon="7.371864604094731"><ele>178.0</ele><time>2026-03-28T07:05:56Z</time></trkpt><trkpt lat="48.15199822587825" lon="7.371598985661465"><ele>178.0</ele><time>2026-03-28T07:05:57Z</time></trkpt><trkpt lat="48.15179137887824" lon="7.371341344396249"><ele>178.0</ele><time>2026-03-28T07:05:58Z</time></trkpt><trkpt lat="48.15157540000157" lon="7.371096684848996"><ele>178.5</ele><time>2026-03-28T07:05:59Z</time></trkpt><trkpt lat="48.151353710836815" lon="7.370870048079398"><ele>179.0</ele><time>2026-03-28T07:06:00Z</time></trkpt><trkpt lat="48.1511274337862" lon="7.37065823129494"><ele>179.0</ele><time>2026-03-28T07:06:01Z</time></trkpt><trkpt lat="48.15089345781848" lon="7.370462387124509"><ele>179.0</ele><time>2026-03-28T07:06:02Z</time></trkpt><trkpt lat="48.150654283115884" lon="7.370281736485625"><ele>179.0</ele><time>2026-03-28T07:06:03Z</time></trkpt><trkpt lat="48.150412982633036" lon="7.370119224029655"><ele>179.0</ele><time>2026-03-28T07:06:04Z</time></trkpt><trkpt lat="48.1501660968522" lon="7.369972522936785"><ele>179.0</ele><time>2026-03-28T07:06:05Z</time></trkpt><trkpt lat="48.14992384341168" lon="7.369838959247068"><ele>179.0</ele><time>2026-03-28T07:06:06Z</time></trkpt><trkpt lat="48.14967153049221" lon="7.369724496196848"><ele>179.0</ele><time>2026-03-28T07:06:07Z</time></trkpt><trkpt lat="48.14942197703557" lon="7.3696244815882554"><ele>179.0</ele><time>2026-03-28T07:06:08Z</time></trkpt><trkpt lat="48.14916998514252" lon="7.369534682174373"><ele>179.0</ele><time>2026-03-28T07:06:09Z</time></trkpt><trkpt lat="48.14892103871359" lon="7.369451503385537"><ele>179.0</ele><time>2026-03-28T07:06:10Z</time></trkpt><trkpt lat="48.1486681388169" lon="7.369366661442115"><ele>179.0</ele><time>2026-03-28T07:06:11Z</time></trkpt><trkpt lat="48.14841741135826" lon="7.369288986922375"><ele>179.0</ele><time>2026-03-28T07:06:12Z</time></trkpt><trkpt lat="48.148167711234564" lon="7.369212225792443"><ele>179.0</ele><time>2026-03-28T07:06:13Z</time></trkpt><trkpt lat="48.147920624957216" lon="7.369138306197207"><ele>179.0</ele><time>2026-03-28T07:06:14Z</time></trkpt><trkpt lat="48.14767556744341" lon="7.369063636731736"><ele>179.0</ele><time>2026-03-28T07:06:15Z</time></trkpt><trkpt lat="48.14742742903243" lon="7.368990659628136"><ele>179.0</ele><time>2026-03-28T07:06:16Z</time></trkpt><trkpt lat="48.14717549262785" lon="7.3689185521618805"><ele>179.5</ele><time>2026-03-28T07:06:17Z</time></trkpt><trkpt lat="48.146920116171955" lon="7.3688425715932695"><ele>180.0</ele><time>2026-03-28T07:06:18Z</time></trkpt><trkpt lat="48.14666260106164" lon="7.368760370038851"><ele>181.0</ele><time>2026-03-28T07:06:19Z</time></trkpt><trkpt lat="48.14640251825289" lon="7.368676276260934"><ele>182.0</ele><time>2026-03-28T07:06:20Z</time></trkpt><trkpt lat="48.146142749315324" lon="7.368589428499884"><ele>182.0</ele><time>2026-03-28T07:06:21Z</time></trkpt><trkpt lat="48.145883391408034" lon="7.368505884236276"><ele>182.0</ele><time>2026-03-28T07:06:22Z</time></trkpt><trkpt lat="48.1456222385355" lon="7.368416400325934"><ele>182.0</ele><time>2026-03-28T07:06:23Z</time></trkpt><trkpt lat="48.14536009494888" lon="7.368329781063974"><ele>182.0</ele><time>2026-03-28T07:06:24Z</time></trkpt><trkpt lat="48.14509702441733" lon="7.3682415992281785"><ele>180.5</ele><time>2026-03-28T07:06:25Z</time></trkpt><trkpt lat="48.14483444714506" lon="7.368151999774622"><ele>179.0</ele><time>2026-03-28T07:06:26Z</time></trkpt><trkpt lat="48.14456895929003" lon="7.36806095730306"><ele>180.0</ele><time>2026-03-28T07:06:27Z</time></trkpt><trkpt lat="48.14430674783347" lon="7.367965309090452"><ele>181.0</ele><time>2026-03-28T07:06:28Z</time></trkpt><trkpt lat="48.14404810168169" lon="7.367872969942342"><ele>180.5</ele><time>2026-03-28T07:06:29Z</time></trkpt><trkpt lat="48.14378506612782" lon="7.36778093900456"><ele>180.0</ele><time>2026-03-28T07:06:30Z</time></trkpt><trkpt lat="48.143522168624116" lon="7.367690023372378"><ele>180.0</ele><time>2026-03-28T07:06:31Z</time></trkpt><trkpt lat="48.1432591142271" lon="7.367596286210661"><ele>180.0</ele><time>2026-03-28T07:06:32Z</time></trkpt><trkpt lat="48.14299816726166" lon="7.367485986530667"><ele>179.5</ele><time>2026-03-28T07:06:33Z</time></trkpt><trkpt lat="48.14274285978341" lon="7.367361941901887"><ele>179.0</ele><time>2026-03-28T07:06:34Z</time></trkpt><trkpt lat="48.142491167185256" lon="7.367220864353072"><ele>179.0</ele><time>2026-03-28T07:06:35Z</time></trkpt><trkpt lat="48.14224326736669" lon="7.367063079894801"><ele>179.0</ele><time>2026-03-28T07:06:36Z</time></trkpt><trkpt lat="48.14199847679414" lon="7.3668935196647904"><ele>179.0</ele><time>2026-03-28T07:06:37Z</time></trkpt><trkpt lat="48.14175883766922" lon="7.366709007568171"><ele>179.0</ele><time>2026-03-28T07:06:38Z</time></trkpt><trkpt lat="48.14152536414259" lon="7.36651556706534"><ele>180.0</ele><time>2026-03-28T07:06:39Z</time></trkpt><trkpt lat="48.14129193375891" lon="7.366321513471735"><ele>181.0</ele><time>2026-03-28T07:06:40Z</time></trkpt><trkpt lat="48.14105966423596" lon="7.3661230168412075"><ele>181.0</ele><time>2026-03-28T07:06:41Z</time></trkpt><trkpt lat="48.14082607871633" lon="7.365931185255303"><ele>181.0</ele><time>2026-03-28T07:06:42Z</time></trkpt><trkpt lat="48.14058023005018" lon="7.36575699108332"><ele>181.5</ele><time>2026-03-28T07:06:43Z</time></trkpt><trkpt lat="48.140336518001035" lon="7.3655948259508435"><ele>182.0</ele><time>2026-03-28T07:06:44Z</time></trkpt><trkpt lat="48.14008973714888" lon="7.365454811956242"><ele>185.5</ele><time>2026-03-28T07:06:45Z</time></trkpt><trkpt lat="48.13983570134607" lon="7.36533079624167"><ele>189.0</ele><time>2026-03-28T07:06:46Z</time></trkpt><trkpt lat="48.139578215660066" lon="7.365221853573468"><ele>189.0</ele><time>2026-03-28T07:06:47Z</time></trkpt><trkpt lat="48.13931842213395" lon="7.365123507088321"><ele>189.0</ele><time>2026-03-28T07:06:48Z</time></trkpt><trkpt lat="48.139057255924826" lon="7.365043047221859"><ele>188.0</ele><time>2026-03-28T07:06:49Z</time></trkpt><trkpt lat="48.13879614453577" lon="7.364971866569342"><ele>187.0</ele><time>2026-03-28T07:06:50Z</time></trkpt><trkpt lat="48.13853075910452" lon="7.364903682576578"><ele>187.0</ele><time>2026-03-28T07:06:51Z</time></trkpt><trkpt lat="48.13826839044849" lon="7.364847019300621"><ele>187.0</ele><time>2026-03-28T07:06:52Z</time></trkpt><trkpt lat="48.13800490484427" lon="7.3647900026825015"><ele>187.0</ele><time>2026-03-28T07:06:53Z</time></trkpt><trkpt lat="48.137742041043474" lon="7.364734076086521"><ele>187.0</ele><time>2026-03-28T07:06:54Z</time></trkpt><trkpt lat="48.13747950250249" lon="7.3646757429961625"><ele>186.0</ele><time>2026-03-28T07:06:55Z</time></trkpt><trkpt lat="48.1372060659361" lon="7.364644067816652"><ele>185.0</ele><time>2026-03-28T07:06:56Z</time></trkpt><trkpt lat="48.13694017455136" lon="7.364626184177817"><ele>185.0</ele><time>2026-03-28T07:06:57Z</time></trkpt><trkpt lat="48.136670541305655" lon="7.3646188737862115"><ele>185.0</ele><time>2026-03-28T07:06:58Z</time></trkpt><trkpt lat="48.13640286583776" lon="7.364633035027537"><ele>185.0</ele><time>2026-03-28T07:06:59Z</time></trkpt><trkpt lat="48.1361333836083" lon="7.364658529283506"><ele>185.0</ele><time>2026-03-28T07:07:00Z</time></trkpt><trkpt lat="48.13586694222238" lon="7.364702874400575"><ele>185.0</ele><time>2026-03-28T07:07:01Z</time></trkpt><trkpt lat="48.13560402493735" lon="7.364763319176883"><ele>185.0</ele><time>2026-03-28T07:07:02Z</time></trkpt><trkpt lat="48.13533981257316" lon="7.364834110811443"><ele>185.0</ele><time>2026-03-28T07:07:03Z</time></trkpt><trkpt lat="48.13507449967136" lon="7.364913880070185"><ele>185.0</ele><time>2026-03-28T07:07:04Z</time></trkpt><trkpt lat="48.13481284488123" lon="7.364999107517524"><ele>185.5</ele><time>2026-03-28T07:07:05Z</time></trkpt><trkpt lat="48.13454771050636" lon="7.3650922639816665"><ele>186.0</ele><time>2026-03-28T07:07:06Z</time></trkpt><trkpt lat="48.1342814756868" lon="7.365180378854003"><ele>187.5</ele><time>2026-03-28T07:07:07Z</time></trkpt><trkpt lat="48.13402311168044" lon="7.365262770692934"><ele>189.0</ele><time>2026-03-28T07:07:08Z</time></trkpt><trkpt lat="48.13375945739777" lon="7.365346876889934"><ele>189.0</ele><time>2026-03-28T07:07:09Z</time></trkpt><trkpt lat="48.133494036699275" lon="7.36543673189852"><ele>189.0</ele><time>2026-03-28T07:07:10Z</time></trkpt><trkpt lat="48.13322937288009" lon="7.365523666859584"><ele>187.5</ele><time>2026-03-28T07:07:11Z</time></trkpt><trkpt lat="48.132964074775835" lon="7.36560599355405"><ele>186.0</ele><time>2026-03-28T07:07:12Z</time></trkpt><trkpt lat="48.13270016885754" lon="7.365682493174137"><ele>186.0</ele><time>2026-03-28T07:07:13Z</time></trkpt><trkpt lat="48.13243453793623" lon="7.365756409158842"><ele>186.0</ele><time>2026-03-28T07:07:14Z</time></trkpt><trkpt lat="48.13216647458257" lon="7.365814191120682"><ele>185.0</ele><time>2026-03-28T07:07:15Z</time></trkpt><trkpt lat="48.13189932429714" lon="7.365854496944944"><ele>184.0</ele><time>2026-03-28T07:07:16Z</time></trkpt><trkpt lat="48.131629022441956" lon="7.36588100190053"><ele>183.0</ele><time>2026-03-28T07:07:17Z</time></trkpt><trkpt lat="48.13135613044639" lon="7.365891111989961"><ele>182.0</ele><time>2026-03-28T07:07:18Z</time></trkpt><trkpt lat="48.13108403105495" lon="7.365885887711075"><ele>182.0</ele><time>2026-03-28T07:07:19Z</time></trkpt><trkpt lat="48.130810370407225" lon="7.365867974592743"><ele>182.0</ele><time>2026-03-28T07:07:20Z</time></trkpt><trkpt lat="48.130539267672816" lon="7.365840513342733"><ele>181.5</ele><time>2026-03-28T07:07:21Z</time></trkpt><trkpt lat="48.13026908807317" lon="7.365808999488599"><ele>181.0</ele><time>2026-03-28T07:07:22Z</time></trkpt><trkpt lat="48.13000346503043" lon="7.365775920562297"><ele>181.0</ele><time>2026-03-28T07:07:23Z</time></trkpt><trkpt lat="48.129731887902174" lon="7.365737959294676"><ele>181.0</ele><time>2026-03-28T07:07:24Z</time></trkpt><trkpt lat="48.12946387584847" lon="7.365700618184671"><ele>181.0</ele><time>2026-03-28T07:07:25Z</time></trkpt><trkpt lat="48.12920029621689" lon="7.36566606698178"><ele>181.0</ele><time>2026-03-28T07:07:26Z</time></trkpt><trkpt lat="48.128932838849686" lon="7.365630525867551"><ele>182.5</ele><time>2026-03-28T07:07:27Z</time></trkpt><trkpt lat="48.128671438726506" lon="7.3655924697838255"><ele>184.0</ele><time>2026-03-28T07:07:28Z</time></trkpt><trkpt lat="48.1284144356439" lon="7.3655574413041105"><ele>183.5</ele><time>2026-03-28T07:07:29Z</time></trkpt><trkpt lat="48.12815532776121" lon="7.365517937327847"><ele>183.0</ele><time>2026-03-28T07:07:30Z</time></trkpt><trkpt lat="48.12790173159153" lon="7.3654772879616255"><ele>183.0</ele><time>2026-03-28T07:07:31Z</time></trkpt><trkpt lat="48.1276487002787" lon="7.365434309628512"><ele>183.0</ele><time>2026-03-28T07:07:32Z</time></trkpt><trkpt lat="48.127395975167325" lon="7.365385491661056"><ele>183.5</ele><time>2026-03-28T07:07:33Z</time></trkpt><trkpt lat="48.12714408707627" lon="7.36533577300913"><ele>184.0</ele><time>2026-03-28T07:07:34Z</time></trkpt><trkpt lat="48.12689894402484" lon="7.3652891958648015"><ele>184.0</ele><time>2026-03-28T07:07:35Z</time></trkpt><trkpt lat="48.12665133096387" lon="7.365247406759385"><ele>184.0</ele><time>2026-03-28T07:07:36Z</time></trkpt><trkpt lat="48.12640902174041" lon="7.3652111225115595"><ele>184.5</ele><time>2026-03-28T07:07:37Z</time></trkpt><trkpt lat="48.126165536505795" lon="7.365174729400205"><ele>185.0</ele><time>2026-03-28T07:07:38Z</time></trkpt><trkpt lat="48.125924574183706" lon="7.365143658887146"><ele>184.5</ele><time>2026-03-28T07:07:39Z</time></trkpt><trkpt lat="48.12568488544245" lon="7.365113448493724"><ele>184.0</ele><time>2026-03-28T07:07:40Z</time></trkpt><trkpt lat="48.12544564156094" lon="7.365077166849321"><ele>184.0</ele><time>2026-03-28T07:07:41Z</time></trkpt><trkpt lat="48.12520840718423" lon="7.3650429044804"><ele>184.0</ele><time>2026-03-28T07:07:42Z</time></trkpt><trkpt lat="48.12497450408249" lon="7.365012148475431"><ele>184.5</ele><time>2026-03-28T07:07:43Z</time></trkpt><trkpt lat="48.124739395306214" lon="7.364983752215265"><ele>185.0</ele><time>2026-03-28T07:07:44Z</time></trkpt><trkpt lat="48.124507681347175" lon="7.364959573168669"><ele>185.0</ele><time>2026-03-28T07:07:45Z</time></trkpt><trkpt lat="48.12427430862753" lon="7.364946413323419"><ele>185.0</ele><time>2026-03-28T07:07:46Z</time></trkpt><trkpt lat="48.124044737745535" lon="7.364944353540312"><ele>184.0</ele><time>2026-03-28T07:07:47Z</time></trkpt><trkpt lat="48.12381279691933" lon="7.3649587819644395"><ele>183.0</ele><time>2026-03-28T07:07:48Z</time></trkpt><trkpt lat="48.12357612930861" lon="7.364991300060719"><ele>183.0</ele><time>2026-03-28T07:07:49Z</time></trkpt><trkpt lat="48.12333784906727" lon="7.3650416983454745"><ele>183.0</ele><time>2026-03-28T07:07:50Z</time></trkpt><trkpt lat="48.123093109399036" lon="7.365106797164004"><ele>182.5</ele><time>2026-03-28T07:07:51Z</time></trkpt><trkpt lat="48.12284710555023" lon="7.3651798887527775"><ele>182.0</ele><time>2026-03-28T07:07:52Z</time></trkpt><trkpt lat="48.12259821583731" lon="7.365271025471279"><ele>182.0</ele><time>2026-03-28T07:07:53Z</time></trkpt><trkpt lat="48.12234886515694" lon="7.365379900809396"><ele>182.0</ele><time>2026-03-28T07:07:54Z</time></trkpt><trkpt lat="48.12210174389144" lon="7.365504727377937"><ele>182.0</ele><time>2026-03-28T07:07:55Z</time></trkpt><trkpt lat="48.12185321977127" lon="7.365641804905164"><ele>182.0</ele><time>2026-03-28T07:07:56Z</time></trkpt><trkpt lat="48.1216086056277" lon="7.365793860176745"><ele>182.0</ele><time>2026-03-28T07:07:57Z</time></trkpt><trkpt lat="48.12136318765204" lon="7.365959240434081"><ele>182.0</ele><time>2026-03-28T07:07:58Z</time></trkpt><trkpt lat="48.12112556263314" lon="7.366143548944839"><ele>182.0</ele><time>2026-03-28T07:07:59Z</time></trkpt><trkpt lat="48.12089309667285" lon="7.366341855350043"><ele>182.0</ele><time>2026-03-28T07:08:00Z</time></trkpt><trkpt lat="48.1206696130863" lon="7.366559135412999"><ele>184.0</ele><time>2026-03-28T07:08:01Z</time></trkpt><trkpt lat="48.12045040087982" lon="7.366784252741597"><ele>186.0</ele><time>2026-03-28T07:08:02Z</time></trkpt><trkpt lat="48.12023682775178" lon="7.367030510110286"><ele>186.0</ele><time>2026-03-28T07:08:03Z</time></trkpt><trkpt lat="48.12002895929143" lon="7.367287539016856"><ele>186.0</ele><time>2026-03-28T07:08:04Z</time></trkpt><trkpt lat="48.11983108502032" lon="7.367556147173636"><ele>185.0</ele><time>2026-03-28T07:08:05Z</time></trkpt><trkpt lat="48.11964049420992" lon="7.367839448677001"><ele>184.0</ele><time>2026-03-28T07:08:06Z</time></trkpt><trkpt lat="48.11946061308261" lon="7.368136147664611"><ele>184.0</ele><time>2026-03-28T07:08:07Z</time></trkpt><trkpt lat="48.11929071546735" lon="7.368443525927382"><ele>184.0</ele><time>2026-03-28T07:08:08Z</time></trkpt><trkpt lat="48.119127001394084" lon="7.36876320559024"><ele>183.0</ele><time>2026-03-28T07:08:09Z</time></trkpt><trkpt lat="48.11896990559935" lon="7.369094297476128"><ele>182.0</ele><time>2026-03-28T07:08:10Z</time></trkpt><trkpt lat="48.11882371254227" lon="7.369434025901206"><ele>182.0</ele><time>2026-03-28T07:08:11Z</time></trkpt><trkpt lat="48.11868837703859" lon="7.36977518292154"><ele>182.0</ele><time>2026-03-28T07:08:12Z</time></trkpt><trkpt lat="48.11855948462086" lon="7.370136151211471"><ele>182.0</ele><time>2026-03-28T07:08:13Z</time></trkpt><trkpt lat="48.118442239543434" lon="7.370499200381671"><ele>182.0</ele><time>2026-03-28T07:08:14Z</time></trkpt><trkpt lat="48.118324500368146" lon="7.370863852117971"><ele>181.0</ele><time>2026-03-28T07:08:15Z</time></trkpt><trkpt lat="48.11821395571725" lon="7.371232242865418"><ele>180.0</ele><time>2026-03-28T07:08:16Z</time></trkpt><trkpt lat="48.1181061268555" lon="7.371604005250338"><ele>180.0</ele><time>2026-03-28T07:08:17Z</time></trkpt><trkpt lat="48.117998392403685" lon="7.3719741022385765"><ele>180.0</ele><time>2026-03-28T07:08:18Z</time></trkpt><trkpt lat="48.11789231455163" lon="7.372344610338297"><ele>181.0</ele><time>2026-03-28T07:08:19Z</time></trkpt><trkpt lat="48.117785275977496" lon="7.372715023858327"><ele>182.0</ele><time>2026-03-28T07:08:20Z</time></trkpt><trkpt lat="48.11768034610738" lon="7.37308647086592"><ele>182.5</ele><time>2026-03-28T07:08:21Z</time></trkpt><trkpt lat="48.117572184314035" lon="7.3734555638386965"><ele>183.0</ele><time>2026-03-28T07:08:22Z</time></trkpt><trkpt lat="48.11746080160395" lon="7.373823361762291"><ele>181.5</ele><time>2026-03-28T07:08:23Z</time></trkpt><trkpt lat="48.11734776480108" lon="7.3741870306965485"><ele>180.0</ele><time>2026-03-28T07:08:24Z</time></trkpt><trkpt lat="48.11723644990325" lon="7.374553780367575"><ele>181.0</ele><time>2026-03-28T07:08:25Z</time></trkpt><trkpt lat="48.11711641097526" lon="7.374913911898394"><ele>182.0</ele><time>2026-03-28T07:08:26Z</time></trkpt><trkpt lat="48.116990658390435" lon="7.37526920297649"><ele>182.0</ele><time>2026-03-28T07:08:27Z</time></trkpt><trkpt lat="48.11686400462216" lon="7.375624049994674"><ele>182.0</ele><time>2026-03-28T07:08:28Z</time></trkpt><trkpt lat="48.11672861262317" lon="7.375972347159287"><ele>182.0</ele><time>2026-03-28T07:08:29Z</time></trkpt><trkpt lat="48.11659232478009" lon="7.376320662793011"><ele>182.0</ele><time>2026-03-28T07:08:30Z</time></trkpt><trkpt lat="48.11644801657338" lon="7.376661048867418"><ele>181.5</ele><time>2026-03-28T07:08:31Z</time></trkpt><trkpt lat="48.116297230426596" lon="7.376992263752011"><ele>181.0</ele><time>2026-03-28T07:08:32Z</time></trkpt><trkpt lat="48.11614315306584" lon="7.377322513055796"><ele>181.0</ele><time>2026-03-28T07:08:33Z</time></trkpt><trkpt lat="48.11598201594385" lon="7.377647414677036"><ele>181.0</ele><time>2026-03-28T07:08:34Z</time></trkpt><trkpt lat="48.11581556402118" lon="7.377963456947699"><ele>181.5</ele><time>2026-03-28T07:08:35Z</time></trkpt><trkpt lat="48.115642793929275" lon="7.378274385299596"><ele>182.0</ele><time>2026-03-28T07:08:36Z</time></trkpt><trkpt lat="48.115460980740785" lon="7.378575221781929"><ele>182.0</ele><time>2026-03-28T07:08:37Z</time></trkpt><trkpt lat="48.11527587343742" lon="7.378864835381941"><ele>182.0</ele><time>2026-03-28T07:08:38Z</time></trkpt><trkpt lat="48.11507997336012" lon="7.379141480129575"><ele>182.0</ele><time>2026-03-28T07:08:39Z</time></trkpt><trkpt lat="48.114878946013064" lon="7.379413718245752"><ele>182.0</ele><time>2026-03-28T07:08:40Z</time></trkpt><trkpt lat="48.114672552663386" lon="7.3796757166467"><ele>181.5</ele><time>2026-03-28T07:08:41Z</time></trkpt><trkpt lat="48.11446373195599" lon="7.379932570254475"><ele>181.0</ele><time>2026-03-28T07:08:42Z</time></trkpt><trkpt lat="48.11424921883319" lon="7.380178571274177"><ele>181.0</ele><time>2026-03-28T07:08:43Z</time></trkpt><trkpt lat="48.114031429583186" lon="7.38041691654415"><ele>181.0</ele><time>2026-03-28T07:08:44Z</time></trkpt><trkpt lat="48.113813475079425" lon="7.380642492966414"><ele>181.0</ele><time>2026-03-28T07:08:45Z</time></trkpt><trkpt lat="48.113590178728494" lon="7.38085636586309"><ele>181.0</ele><time>2026-03-28T07:08:46Z</time></trkpt><trkpt lat="48.11336150506334" lon="7.38105908721393"><ele>180.5</ele><time>2026-03-28T07:08:47Z</time></trkpt><trkpt lat="48.11312797343888" lon="7.381251276565779"><ele>180.0</ele><time>2026-03-28T07:08:48Z</time></trkpt><trkpt lat="48.11289238846894" lon="7.381435108452882"><ele>180.0</ele><time>2026-03-28T07:08:49Z</time></trkpt><trkpt lat="48.11265452487106" lon="7.381612566127192"><ele>180.0</ele><time>2026-03-28T07:08:50Z</time></trkpt><trkpt lat="48.112415823036926" lon="7.381779629405847"><ele>180.5</ele><time>2026-03-28T07:08:51Z</time></trkpt><trkpt lat="48.11217107675861" lon="7.381938592606608"><ele>181.0</ele><time>2026-03-28T07:08:52Z</time></trkpt><trkpt lat="48.111924683178046" lon="7.382084522102871"><ele>181.5</ele><time>2026-03-28T07:08:53Z</time></trkpt><trkpt lat="48.11167514120623" lon="7.382216867154245"><ele>182.0</ele><time>2026-03-28T07:08:54Z</time></trkpt><trkpt lat="48.11142052996815" lon="7.382336410079159"><ele>182.0</ele><time>2026-03-28T07:08:55Z</time></trkpt><trkpt lat="48.11116152929754" lon="7.38244363025722"><ele>182.0</ele><time>2026-03-28T07:08:56Z</time></trkpt><trkpt lat="48.11090364151272" lon="7.382537399648793"><ele>183.0</ele><time>2026-03-28T07:08:57Z</time></trkpt><trkpt lat="48.11064210539112" lon="7.3826203178567"><ele>184.0</ele><time>2026-03-28T07:08:58Z</time></trkpt><trkpt lat="48.11037934540613" lon="7.38269137249654"><ele>184.0</ele><time>2026-03-28T07:08:59Z</time></trkpt><trkpt lat="48.110114974119234" lon="7.382749793394022"><ele>184.0</ele><time>2026-03-28T07:09:00Z</time></trkpt><trkpt lat="48.10984975497623" lon="7.382796502268175"><ele>184.0</ele><time>2026-03-28T07:09:01Z</time></trkpt><trkpt lat="48.109583712933265" lon="7.382831900088849"><ele>184.0</ele><time>2026-03-28T07:09:02Z</time></trkpt><trkpt lat="48.10931550994991" lon="7.38285454067228"><ele>182.5</ele><time>2026-03-28T07:09:03Z</time></trkpt><trkpt lat="48.109047481638704" lon="7.382870213255945"><ele>181.0</ele><time>2026-03-28T07:09:04Z</time></trkpt><trkpt lat="48.108777873511926" lon="7.382872250060559"><ele>181.0</ele><time>2026-03-28T07:09:05Z</time></trkpt><trkpt lat="48.1085094079773" lon="7.382867816012779"><ele>181.0</ele><time>2026-03-28T07:09:06Z</time></trkpt><trkpt lat="48.108238062755944" lon="7.382855368549046"><ele>181.5</ele><time>2026-03-28T07:09:07Z</time></trkpt><trkpt lat="48.10796826195677" lon="7.382836993372987"><ele>182.0</ele><time>2026-03-28T07:09:08Z</time></trkpt><trkpt lat="48.10770186972849" lon="7.3828194437908055"><ele>182.0</ele><time>2026-03-28T07:09:09Z</time></trkpt><trkpt lat="48.107435167008056" lon="7.382797598254909"><ele>182.0</ele><time>2026-03-28T07:09:10Z</time></trkpt><trkpt lat="48.107167112645136" lon="7.382767832247274"><ele>182.5</ele><time>2026-03-28T07:09:11Z</time></trkpt><trkpt lat="48.106898993372205" lon="7.3827448822827755"><ele>183.0</ele><time>2026-03-28T07:09:12Z</time></trkpt><trkpt lat="48.10663107192306" lon="7.38272175171561"><ele>182.5</ele><time>2026-03-28T07:09:13Z</time></trkpt><trkpt lat="48.10636226882793" lon="7.382695410326845"><ele>182.0</ele><time>2026-03-28T07:09:14Z</time></trkpt><trkpt lat="48.10609290001739" lon="7.382674926862982"><ele>182.0</ele><time>2026-03-28T07:09:15Z</time></trkpt><trkpt lat="48.105821980017154" lon="7.382652694734063"><ele>182.0</ele><time>2026-03-28T07:09:16Z</time></trkpt><trkpt lat="48.10555437845414" lon="7.382629810741468"><ele>183.0</ele><time>2026-03-28T07:09:17Z</time></trkpt><trkpt lat="48.10528701171677" lon="7.382603788281465"><ele>184.0</ele><time>2026-03-28T07:09:18Z</time></trkpt><trkpt lat="48.10501903729976" lon="7.382579542409341"><ele>182.5</ele><time>2026-03-28T07:09:19Z</time></trkpt><trkpt lat="48.1047511116515" lon="7.382554638417101"><ele>181.0</ele><time>2026-03-28T07:09:20Z</time></trkpt><trkpt lat="48.104483171060274" lon="7.382529605041091"><ele>181.0</ele><time>2026-03-28T07:09:21Z</time></trkpt><trkpt lat="48.10421375687355" lon="7.382506929575951"><ele>181.0</ele><time>2026-03-28T07:09:22Z</time></trkpt><trkpt lat="48.10394351377332" lon="7.382477078534445"><ele>183.5</ele><time>2026-03-28T07:09:23Z</time></trkpt><trkpt lat="48.10367803623406" lon="7.382448051830954"><ele>186.0</ele><time>2026-03-28T07:09:24Z</time></trkpt><trkpt lat="48.103413234724975" lon="7.382413926658856"><ele>189.0</ele><time>2026-03-28T07:09:25Z</time></trkpt><trkpt lat="48.10314827915501" lon="7.382379105830846"><ele>192.0</ele><time>2026-03-28T07:09:26Z</time></trkpt><trkpt lat="48.10287805273356" lon="7.382349265780442"><ele>192.0</ele><time>2026-03-28T07:09:27Z</time></trkpt><trkpt lat="48.10260870658853" lon="7.382319507655839"><ele>192.0</ele><time>2026-03-28T07:09:28Z</time></trkpt><trkpt lat="48.102338714575545" lon="7.382298002777868"><ele>189.0</ele><time>2026-03-28T07:09:29Z</time></trkpt><trkpt lat="48.102069527790164" lon="7.382282200996413"><ele>186.0</ele><time>2026-03-28T07:09:30Z</time></trkpt><trkpt lat="48.101797583913644" lon="7.382269162066347"><ele>184.5</ele><time>2026-03-28T07:09:31Z</time></trkpt><trkpt lat="48.10153035363487" lon="7.3822597835834385"><ele>183.0</ele><time>2026-03-28T07:09:32Z</time></trkpt><trkpt lat="48.10126241791937" lon="7.382248920895178"><ele>183.0</ele><time>2026-03-28T07:09:33Z</time></trkpt><trkpt lat="48.100986644784285" lon="7.382235798427552"><ele>183.0</ele><time>2026-03-28T07:09:34Z</time></trkpt><trkpt lat="48.100717623684815" lon="7.382226370601336"><ele>183.5</ele><time>2026-03-28T07:09:35Z</time></trkpt><trkpt lat="48.10044767185575" lon="7.382219476663849"><ele>184.0</ele><time>2026-03-28T07:09:36Z</time></trkpt><trkpt lat="48.1001779727185" lon="7.382214016984546"><ele>185.0</ele><time>2026-03-28T07:09:37Z</time></trkpt><trkpt lat="48.09990850708844" lon="7.382209060352122"><ele>186.0</ele><time>2026-03-28T07:09:38Z</time></trkpt><trkpt lat="48.09963887496271" lon="7.382206549166757"><ele>186.0</ele><time>2026-03-28T07:09:39Z</time></trkpt><trkpt lat="48.09936730004563" lon="7.382199423041192"><ele>186.0</ele><time>2026-03-28T07:09:40Z</time></trkpt><trkpt lat="48.09909849979668" lon="7.382199802461528"><ele>185.0</ele><time>2026-03-28T07:09:41Z</time></trkpt><trkpt lat="48.098827554915324" lon="7.382197697738613"><ele>184.0</ele><time>2026-03-28T07:09:42Z</time></trkpt><trkpt lat="48.09855613291184" lon="7.38220048057796"><ele>184.0</ele><time>2026-03-28T07:09:43Z</time></trkpt><trkpt lat="48.09828442609861" lon="7.382203418443608"><ele>184.0</ele><time>2026-03-28T07:09:44Z</time></trkpt><trkpt lat="48.09801601283407" lon="7.3822051929557775"><ele>184.5</ele><time>2026-03-28T07:09:45Z</time></trkpt><trkpt lat="48.09774847176567" lon="7.382208075931106"><ele>185.0</ele><time>2026-03-28T07:09:46Z</time></trkpt><trkpt lat="48.097478189481535" lon="7.382212918269381"><ele>185.5</ele><time>2026-03-28T07:09:47Z</time></trkpt><trkpt lat="48.09720930029655" lon="7.382217737924641"><ele>186.0</ele><time>2026-03-28T07:09:48Z</time></trkpt><trkpt lat="48.09693957931216" lon="7.382224805931569"><ele>186.0</ele><time>2026-03-28T07:09:49Z</time></trkpt><trkpt lat="48.09667261953283" lon="7.382236492590252"><ele>186.0</ele><time>2026-03-28T07:09:50Z</time></trkpt><trkpt lat="48.09639569340739" lon="7.382250291746349"><ele>185.5</ele><time>2026-03-28T07:09:51Z</time></trkpt><trkpt lat="48.0961231567229" lon="7.382259245790691"><ele>185.0</ele><time>2026-03-28T07:09:52Z</time></trkpt><trkpt lat="48.0958573128549" lon="7.3822662688618435"><ele>185.0</ele><time>2026-03-28T07:09:53Z</time></trkpt><trkpt lat="48.09559023861557" lon="7.382279057711525"><ele>185.0</ele><time>2026-03-28T07:09:54Z</time></trkpt><trkpt lat="48.09532000410383" lon="7.382291860019996"><ele>185.0</ele><time>2026-03-28T07:09:55Z</time></trkpt><trkpt lat="48.095050595416986" lon="7.382307649046654"><ele>185.0</ele><time>2026-03-28T07:09:56Z</time></trkpt><trkpt lat="48.09478250481507" lon="7.382321980645311"><ele>184.0</ele><time>2026-03-28T07:09:57Z</time></trkpt><trkpt lat="48.094514908774094" lon="7.382338269288531"><ele>183.0</ele><time>2026-03-28T07:09:58Z</time></trkpt><trkpt lat="48.094245092097715" lon="7.382358376606749"><ele>184.0</ele><time>2026-03-28T07:09:59Z</time></trkpt><trkpt lat="48.09397357586593" lon="7.382379916827095"><ele>185.0</ele><time>2026-03-28T07:10:00Z</time></trkpt><trkpt lat="48.09370366052557" lon="7.38240459120064"><ele>185.0</ele><time>2026-03-28T07:10:01Z</time></trkpt><trkpt lat="48.093433038487326" lon="7.38242501776967"><ele>185.0</ele><time>2026-03-28T07:10:02Z</time></trkpt><trkpt lat="48.09316397814685" lon="7.382448540824577"><ele>186.0</ele><time>2026-03-28T07:10:03Z</time></trkpt><trkpt lat="48.09289387958414" lon="7.382472095442792"><ele>187.0</ele><time>2026-03-28T07:10:04Z</time></trkpt><trkpt lat="48.09262300829511" lon="7.382497810015727"><ele>187.0</ele><time>2026-03-28T07:10:05Z</time></trkpt><trkpt lat="48.09235382663066" lon="7.382524929091054"><ele>187.0</ele><time>2026-03-28T07:10:06Z</time></trkpt><trkpt lat="48.09208324997941" lon="7.382552676167859"><ele>187.0</ele><time>2026-03-28T07:10:07Z</time></trkpt><trkpt lat="48.09181471928505" lon="7.382582585441169"><ele>187.0</ele><time>2026-03-28T07:10:08Z</time></trkpt><trkpt lat="48.09154435353927" lon="7.382612335203525"><ele>186.0</ele><time>2026-03-28T07:10:09Z</time></trkpt><trkpt lat="48.091275116147465" lon="7.382644373908838"><ele>185.0</ele><time>2026-03-28T07:10:10Z</time></trkpt><trkpt lat="48.09100440172083" lon="7.382677426817847"><ele>184.5</ele><time>2026-03-28T07:10:11Z</time></trkpt><trkpt lat="48.0907364496264" lon="7.382710795597237"><ele>184.0</ele><time>2026-03-28T07:10:12Z</time></trkpt><trkpt lat="48.09046917679999" lon="7.382744961935648"><ele>184.0</ele><time>2026-03-28T07:10:13Z</time></trkpt><trkpt lat="48.090200100165" lon="7.3827788888459"><ele>184.0</ele><time>2026-03-28T07:10:14Z</time></trkpt><trkpt lat="48.08993091334177" lon="7.382817183168439"><ele>184.0</ele><time>2026-03-28T07:10:15Z</time></trkpt><trkpt lat="48.08966349493042" lon="7.382857741174977"><ele>184.0</ele><time>2026-03-28T07:10:16Z</time></trkpt><trkpt lat="48.0893950637493" lon="7.382901128788767"><ele>184.0</ele><time>2026-03-28T07:10:17Z</time></trkpt><trkpt lat="48.08912623016072" lon="7.382942107814577"><ele>184.0</ele><time>2026-03-28T07:10:18Z</time></trkpt><trkpt lat="48.08885825064314" lon="7.382982678153915"><ele>185.0</ele><time>2026-03-28T07:10:19Z</time></trkpt><trkpt lat="48.08859119505215" lon="7.383027609052689"><ele>186.0</ele><time>2026-03-28T07:10:20Z</time></trkpt><trkpt lat="48.08831980042991" lon="7.383070067447877"><ele>186.5</ele><time>2026-03-28T07:10:21Z</time></trkpt><trkpt lat="48.088050808377595" lon="7.383116794517724"><ele>187.0</ele><time>2026-03-28T07:10:22Z</time></trkpt><trkpt lat="48.0877798477911" lon="7.38316268571191"><ele>187.0</ele><time>2026-03-28T07:10:23Z</time></trkpt><trkpt lat="48.08750727668997" lon="7.3832049641858335"><ele>187.0</ele><time>2026-03-28T07:10:24Z</time></trkpt><trkpt lat="48.08724124577562" lon="7.383253542824335"><ele>186.0</ele><time>2026-03-28T07:10:25Z</time></trkpt><trkpt lat="48.08697352751257" lon="7.383301507433146"><ele>185.0</ele><time>2026-03-28T07:10:26Z</time></trkpt><trkpt lat="48.08670527108277" lon="7.383349823422286"><ele>186.0</ele><time>2026-03-28T07:10:27Z</time></trkpt><trkpt lat="48.08643849375431" lon="7.3834012847363075"><ele>187.0</ele><time>2026-03-28T07:10:28Z</time></trkpt><trkpt lat="48.08616914615439" lon="7.383449924483089"><ele>187.0</ele><time>2026-03-28T07:10:29Z</time></trkpt><trkpt lat="48.08590188277652" lon="7.383494831265319"><ele>187.0</ele><time>2026-03-28T07:10:30Z</time></trkpt><trkpt lat="48.08563281569518" lon="7.383536986947173"><ele>185.5</ele><time>2026-03-28T07:10:31Z</time></trkpt><trkpt lat="48.08536122053715" lon="7.3835867295984485"><ele>184.0</ele><time>2026-03-28T07:10:32Z</time></trkpt><trkpt lat="48.08509179762434" lon="7.383633326777933"><ele>186.5</ele><time>2026-03-28T07:10:33Z</time></trkpt><trkpt lat="48.08482192106544" lon="7.383677800809944"><ele>189.0</ele><time>2026-03-28T07:10:34Z</time></trkpt><trkpt lat="48.084552245078456" lon="7.383726796450723"><ele>189.0</ele><time>2026-03-28T07:10:35Z</time></trkpt><trkpt lat="48.084285891628795" lon="7.383779076617915"><ele>189.0</ele><time>2026-03-28T07:10:36Z</time></trkpt><trkpt lat="48.08401148302876" lon="7.383828611682128"><ele>187.0</ele><time>2026-03-28T07:10:37Z</time></trkpt><trkpt lat="48.08374145578828" lon="7.383879813020078"><ele>185.0</ele><time>2026-03-28T07:10:38Z</time></trkpt><trkpt lat="48.08347079639838" lon="7.383930202137051"><ele>185.5</ele><time>2026-03-28T07:10:39Z</time></trkpt><trkpt lat="48.0831986391436" lon="7.383981409393832"><ele>186.0</ele><time>2026-03-28T07:10:40Z</time></trkpt><trkpt lat="48.08292656130271" lon="7.384029355744381"><ele>186.0</ele><time>2026-03-28T07:10:41Z</time></trkpt><trkpt lat="48.08265521672071" lon="7.384076442414153"><ele>186.0</ele><time>2026-03-28T07:10:42Z</time></trkpt><trkpt lat="48.0823806733868" lon="7.384124644341752"><ele>186.0</ele><time>2026-03-28T07:10:43Z</time></trkpt><trkpt lat="48.08210770258874" lon="7.384172450630888"><ele>186.0</ele><time>2026-03-28T07:10:44Z</time></trkpt><trkpt lat="48.08183627024246" lon="7.384222398652633"><ele>186.0</ele><time>2026-03-28T07:10:45Z</time></trkpt><trkpt lat="48.08156566957885" lon="7.384273389857903"><ele>186.0</ele><time>2026-03-28T07:10:46Z</time></trkpt><trkpt lat="48.08129889563076" lon="7.384325294746377"><ele>186.0</ele><time>2026-03-28T07:10:47Z</time></trkpt><trkpt lat="48.081031679092014" lon="7.384376839882424"><ele>186.0</ele><time>2026-03-28T07:10:48Z</time></trkpt><trkpt lat="48.08076376554754" lon="7.384429398161636"><ele>184.5</ele><time>2026-03-28T07:10:49Z</time></trkpt><trkpt lat="48.08049566945809" lon="7.384479688819937"><ele>183.0</ele><time>2026-03-28T07:10:50Z</time></trkpt><trkpt lat="48.08022739347476" lon="7.384526267897775"><ele>183.0</ele><time>2026-03-28T07:10:51Z</time></trkpt><trkpt lat="48.07996137113541" lon="7.384568539306353"><ele>183.0</ele><time>2026-03-28T07:10:52Z</time></trkpt><trkpt lat="48.07969669864803" lon="7.384611130018669"><ele>183.0</ele><time>2026-03-28T07:10:53Z</time></trkpt><trkpt lat="48.079431536863574" lon="7.384655677005666"><ele>183.0</ele><time>2026-03-28T07:10:54Z</time></trkpt><trkpt lat="48.079168481223384" lon="7.384700000960245"><ele>184.5</ele><time>2026-03-28T07:10:55Z</time></trkpt><trkpt lat="48.07890465369314" lon="7.384747749882467"><ele>186.0</ele><time>2026-03-28T07:10:56Z</time></trkpt><trkpt lat="48.078634464372136" lon="7.384793866319088"><ele>186.0</ele><time>2026-03-28T07:10:57Z</time></trkpt><trkpt lat="48.078369169673216" lon="7.384839359433538"><ele>186.0</ele><time>2026-03-28T07:10:58Z</time></trkpt><trkpt lat="48.07810252126887" lon="7.384880851771234"><ele>186.5</ele><time>2026-03-28T07:10:59Z</time></trkpt><trkpt lat="48.07783704093096" lon="7.384924439644067"><ele>187.0</ele><time>2026-03-28T07:11:00Z</time></trkpt><trkpt lat="48.077570445470236" lon="7.384969130160579"><ele>188.0</ele><time>2026-03-28T07:11:01Z</time></trkpt><trkpt lat="48.07730256641775" lon="7.385012219027338"><ele>189.0</ele><time>2026-03-28T07:11:02Z</time></trkpt><trkpt lat="48.07703903232542" lon="7.385052887481712"><ele>189.0</ele><time>2026-03-28T07:11:03Z</time></trkpt><trkpt lat="48.076769668673144" lon="7.385091894015499"><ele>189.0</ele><time>2026-03-28T07:11:04Z</time></trkpt><trkpt lat="48.07650148393099" lon="7.385131559307886"><ele>188.5</ele><time>2026-03-28T07:11:05Z</time></trkpt><trkpt lat="48.07623069134782" lon="7.385166151259288"><ele>188.0</ele><time>2026-03-28T07:11:06Z</time></trkpt><trkpt lat="48.07596248092079" lon="7.385198561260157"><ele>187.0</ele><time>2026-03-28T07:11:07Z</time></trkpt><trkpt lat="48.07569091623047" lon="7.385225663153128"><ele>186.0</ele><time>2026-03-28T07:11:08Z</time></trkpt><trkpt lat="48.07541834405519" lon="7.385247974789713"><ele>186.0</ele><time>2026-03-28T07:11:09Z</time></trkpt><trkpt lat="48.075145852467486" lon="7.385267400407741"><ele>186.0</ele><time>2026-03-28T07:11:10Z</time></trkpt><trkpt lat="48.07487461336297" lon="7.385283691929378"><ele>186.5</ele><time>2026-03-28T07:11:11Z</time></trkpt><trkpt lat="48.07460117318752" lon="7.385296678974226"><ele>187.0</ele><time>2026-03-28T07:11:12Z</time></trkpt><trkpt lat="48.07432531775423" lon="7.3853057745538715"><ele>186.5</ele><time>2026-03-28T07:11:13Z</time></trkpt><trkpt lat="48.07405299669863" lon="7.385310815131586"><ele>186.0</ele><time>2026-03-28T07:11:14Z</time></trkpt><trkpt lat="48.07378260662427" lon="7.385311431329859"><ele>186.0</ele><time>2026-03-28T07:11:15Z</time></trkpt><trkpt lat="48.07350621417161" lon="7.385308570731748"><ele>186.0</ele><time>2026-03-28T07:11:16Z</time></trkpt><trkpt lat="48.073230758153166" lon="7.385301396809875"><ele>185.5</ele><time>2026-03-28T07:11:17Z</time></trkpt><trkpt lat="48.0729562097349" lon="7.385287780272382"><ele>185.0</ele><time>2026-03-28T07:11:18Z</time></trkpt><trkpt lat="48.07268539628486" lon="7.385273121291189"><ele>185.0</ele><time>2026-03-28T07:11:19Z</time></trkpt><trkpt lat="48.072412139919514" lon="7.385252336961793"><ele>185.0</ele><time>2026-03-28T07:11:20Z</time></trkpt><trkpt lat="48.07214309461596" lon="7.3852293206943145"><ele>185.0</ele><time>2026-03-28T07:11:21Z</time></trkpt><trkpt lat="48.07187111276068" lon="7.385200829483804"><ele>185.0</ele><time>2026-03-28T07:11:22Z</time></trkpt><trkpt lat="48.07159932690149" lon="7.385165338967126"><ele>185.0</ele><time>2026-03-28T07:11:23Z</time></trkpt><trkpt lat="48.071331759747686" lon="7.385127761104698"><ele>185.0</ele><time>2026-03-28T07:11:24Z</time></trkpt><trkpt lat="48.0710596488361" lon="7.385085770382135"><ele>185.0</ele><time>2026-03-28T07:11:25Z</time></trkpt><trkpt lat="48.0707913489978" lon="7.385039884469647"><ele>185.0</ele><time>2026-03-28T07:11:26Z</time></trkpt><trkpt lat="48.07052013846402" lon="7.38498593426213"><ele>184.0</ele><time>2026-03-28T07:11:27Z</time></trkpt><trkpt lat="48.07024868011523" lon="7.38493288485911"><ele>183.0</ele><time>2026-03-28T07:11:28Z</time></trkpt><trkpt lat="48.06997756845876" lon="7.3848762481114685"><ele>183.0</ele><time>2026-03-28T07:11:29Z</time></trkpt><trkpt lat="48.06971032785408" lon="7.384816991675174"><ele>183.0</ele><time>2026-03-28T07:11:30Z</time></trkpt><trkpt lat="48.069441312525775" lon="7.384751924625072"><ele>183.0</ele><time>2026-03-28T07:11:31Z</time></trkpt><trkpt lat="48.06917770525931" lon="7.384682666265918"><ele>183.0</ele><time>2026-03-28T07:11:32Z</time></trkpt><trkpt lat="48.06891293132629" lon="7.384609019027934"><ele>186.0</ele><time>2026-03-28T07:11:33Z</time></trkpt><trkpt lat="48.068646896524314" lon="7.384530611105114"><ele>189.0</ele><time>2026-03-28T07:11:34Z</time></trkpt><trkpt lat="48.06837895367622" lon="7.384449698275884"><ele>187.5</ele><time>2026-03-28T07:11:35Z</time></trkpt><trkpt lat="48.068113785268125" lon="7.384364967109667"><ele>186.0</ele><time>2026-03-28T07:11:36Z</time></trkpt><trkpt lat="48.06784936474125" lon="7.384275366268764"><ele>186.0</ele><time>2026-03-28T07:11:37Z</time></trkpt><trkpt lat="48.06758444128101" lon="7.3841786174524495"><ele>186.0</ele><time>2026-03-28T07:11:38Z</time></trkpt><trkpt lat="48.0673224898012" lon="7.384078839599505"><ele>184.5</ele><time>2026-03-28T07:11:39Z</time></trkpt><trkpt lat="48.06706169792028" lon="7.383974915980449"><ele>183.0</ele><time>2026-03-28T07:11:40Z</time></trkpt><trkpt lat="48.06680094427258" lon="7.383871282071468"><ele>183.0</ele><time>2026-03-28T07:11:41Z</time></trkpt><trkpt lat="48.06654077007332" lon="7.383762984904877"><ele>183.0</ele><time>2026-03-28T07:11:42Z</time></trkpt><trkpt lat="48.06628098899241" lon="7.383653013430189"><ele>183.0</ele><time>2026-03-28T07:11:43Z</time></trkpt><trkpt lat="48.06602409421114" lon="7.383539543085767"><ele>183.0</ele><time>2026-03-28T07:11:44Z</time></trkpt><trkpt lat="48.06576928423501" lon="7.3834198159899085"><ele>184.0</ele><time>2026-03-28T07:11:45Z</time></trkpt><trkpt lat="48.065514745293285" lon="7.38329642837207"><ele>185.0</ele><time>2026-03-28T07:11:46Z</time></trkpt><trkpt lat="48.06526058896581" lon="7.383167964086764"><ele>185.0</ele><time>2026-03-28T07:11:47Z</time></trkpt><trkpt lat="48.065007175323636" lon="7.383036112421236"><ele>185.0</ele><time>2026-03-28T07:11:48Z</time></trkpt><trkpt lat="48.064755167812876" lon="7.382904476113642"><ele>187.0</ele><time>2026-03-28T07:11:49Z</time></trkpt><trkpt lat="48.064506145594436" lon="7.382766910236365"><ele>189.0</ele><time>2026-03-28T07:11:50Z</time></trkpt><trkpt lat="48.06425594970049" lon="7.382626146875047"><ele>190.0</ele><time>2026-03-28T07:11:51Z</time></trkpt><trkpt lat="48.064007665643935" lon="7.38248364166008"><ele>191.0</ele><time>2026-03-28T07:11:52Z</time></trkpt><trkpt lat="48.063759257538386" lon="7.38233747069335"><ele>191.0</ele><time>2026-03-28T07:11:53Z</time></trkpt><trkpt lat="48.063511914581696" lon="7.382182284524015"><ele>191.0</ele><time>2026-03-28T07:11:54Z</time></trkpt><trkpt lat="48.063268524743044" lon="7.382025076441231"><ele>191.5</ele><time>2026-03-28T07:11:55Z</time></trkpt><trkpt lat="48.06302359175983" lon="7.381868635034689"><ele>192.0</ele><time>2026-03-28T07:11:56Z</time></trkpt><trkpt lat="48.06277910182686" lon="7.381709999671426"><ele>192.0</ele><time>2026-03-28T07:11:57Z</time></trkpt><trkpt lat="48.06253312555958" lon="7.381542410305891"><ele>192.0</ele><time>2026-03-28T07:11:58Z</time></trkpt><trkpt lat="48.062292459011594" lon="7.381372379657423"><ele>190.5</ele><time>2026-03-28T07:11:59Z</time></trkpt><trkpt lat="48.062048837286795" lon="7.381195095916442"><ele>189.0</ele><time>2026-03-28T07:12:00Z</time></trkpt><trkpt lat="48.061811805947926" lon="7.3810182517432095"><ele>188.5</ele><time>2026-03-28T07:12:01Z</time></trkpt><trkpt lat="48.06157625677205" lon="7.380837788966927"><ele>188.0</ele><time>2026-03-28T07:12:02Z</time></trkpt><trkpt lat="48.06133945766069" lon="7.380658340457346"><ele>189.0</ele><time>2026-03-28T07:12:03Z</time></trkpt><trkpt lat="48.06110249602774" lon="7.380470877178507"><ele>190.0</ele><time>2026-03-28T07:12:04Z</time></trkpt><trkpt lat="48.06086476964691" lon="7.380278445243064"><ele>188.0</ele><time>2026-03-28T07:12:05Z</time></trkpt><trkpt lat="48.06063166471736" lon="7.3800891705324325"><ele>186.0</ele><time>2026-03-28T07:12:06Z</time></trkpt><trkpt lat="48.06039928743593" lon="7.3798943883692"><ele>186.0</ele><time>2026-03-28T07:12:07Z</time></trkpt><trkpt lat="48.06016855827587" lon="7.379699582065324"><ele>186.0</ele><time>2026-03-28T07:12:08Z</time></trkpt><trkpt lat="48.05993891511593" lon="7.379502275380118"><ele>189.0</ele><time>2026-03-28T07:12:09Z</time></trkpt><trkpt lat="48.05971075228572" lon="7.379305161987577"><ele>192.0</ele><time>2026-03-28T07:12:10Z</time></trkpt><trkpt lat="48.05948186469816" lon="7.3791046486630485"><ele>192.0</ele><time>2026-03-28T07:12:11Z</time></trkpt><trkpt lat="48.05925030588578" lon="7.378904352429735"><ele>192.0</ele><time>2026-03-28T07:12:12Z</time></trkpt><trkpt lat="48.059023268522324" lon="7.378704967218811"><ele>191.0</ele><time>2026-03-28T07:12:13Z</time></trkpt><trkpt lat="48.058797695866666" lon="7.378504952077134"><ele>190.0</ele><time>2026-03-28T07:12:14Z</time></trkpt><trkpt lat="48.058570727177546" lon="7.378301959776849"><ele>190.0</ele><time>2026-03-28T07:12:15Z</time></trkpt><trkpt lat="48.058342705905424" lon="7.378097577969878"><ele>190.0</ele><time>2026-03-28T07:12:16Z</time></trkpt><trkpt lat="48.05811728432019" lon="7.377896056340182"><ele>189.5</ele><time>2026-03-28T07:12:17Z</time></trkpt><trkpt lat="48.05788863403675" lon="7.377688747024021"><ele>189.0</ele><time>2026-03-28T07:12:18Z</time></trkpt><trkpt lat="48.05766213973898" lon="7.377482425488506"><ele>190.5</ele><time>2026-03-28T07:12:19Z</time></trkpt><trkpt lat="48.057433303692896" lon="7.377276436081898"><ele>192.0</ele><time>2026-03-28T07:12:20Z</time></trkpt><trkpt lat="48.057203452632606" lon="7.377069397032089"><ele>192.0</ele><time>2026-03-28T07:12:21Z</time></trkpt><trkpt lat="48.0569738550498" lon="7.376863826579954"><ele>192.0</ele><time>2026-03-28T07:12:22Z</time></trkpt><trkpt lat="48.056743793856825" lon="7.376656053489918"><ele>193.0</ele><time>2026-03-28T07:12:23Z</time></trkpt><trkpt lat="48.05651382735788" lon="7.376452920654058"><ele>194.0</ele><time>2026-03-28T07:12:24Z</time></trkpt><trkpt lat="48.05628450111681" lon="7.376245487140147"><ele>194.0</ele><time>2026-03-28T07:12:25Z</time></trkpt><trkpt lat="48.056054621242865" lon="7.376040666398645"><ele>194.0</ele><time>2026-03-28T07:12:26Z</time></trkpt><trkpt lat="48.05582028540344" lon="7.375834458894538"><ele>193.5</ele><time>2026-03-28T07:12:27Z</time></trkpt><trkpt lat="48.05558740064792" lon="7.3756312302476505"><ele>193.0</ele><time>2026-03-28T07:12:28Z</time></trkpt><trkpt lat="48.05535352212233" lon="7.375429751783847"><ele>193.0</ele><time>2026-03-28T07:12:29Z</time></trkpt><trkpt lat="48.055118727458456" lon="7.3752277565455175"><ele>193.0</ele><time>2026-03-28T07:12:30Z</time></trkpt><trkpt lat="48.05488130685284" lon="7.375029684834112"><ele>192.5</ele><time>2026-03-28T07:12:31Z</time></trkpt><trkpt lat="48.054644962961184" lon="7.374835390296323"><ele>192.0</ele><time>2026-03-28T07:12:32Z</time></trkpt><trkpt lat="48.05440473301425" lon="7.37464595761994"><ele>192.0</ele><time>2026-03-28T07:12:33Z</time></trkpt><trkpt lat="48.05416843004208" lon="7.374450408830164"><ele>192.0</ele><time>2026-03-28T07:12:34Z</time></trkpt><trkpt lat="48.05392751217386" lon="7.374258342775336"><ele>193.0</ele><time>2026-03-28T07:12:35Z</time></trkpt><trkpt lat="48.05368491115911" lon="7.374066728530762"><ele>194.0</ele><time>2026-03-28T07:12:36Z</time></trkpt><trkpt lat="48.053440553795014" lon="7.37388131589247"><ele>192.5</ele><time>2026-03-28T07:12:37Z</time></trkpt><trkpt lat="48.05319425072265" lon="7.373698856436914"><ele>191.0</ele><time>2026-03-28T07:12:38Z</time></trkpt><trkpt lat="48.05294872353765" lon="7.373521016099159"><ele>191.0</ele><time>2026-03-28T07:12:39Z</time></trkpt><trkpt lat="48.05269978909725" lon="7.373346167236036"><ele>191.0</ele><time>2026-03-28T07:12:40Z</time></trkpt><trkpt lat="48.0524540411266" lon="7.373174591651342"><ele>192.0</ele><time>2026-03-28T07:12:41Z</time></trkpt><trkpt lat="48.05220267854216" lon="7.373001783866655"><ele>193.0</ele><time>2026-03-28T07:12:42Z</time></trkpt><trkpt lat="48.0519529271595" lon="7.372835626605807"><ele>193.0</ele><time>2026-03-28T07:12:43Z</time></trkpt><trkpt lat="48.051700449434975" lon="7.372676268100098"><ele>193.0</ele><time>2026-03-28T07:12:44Z</time></trkpt><trkpt lat="48.05145024278752" lon="7.372518961689094"><ele>192.5</ele><time>2026-03-28T07:12:45Z</time></trkpt><trkpt lat="48.051196629897056" lon="7.372364203911993"><ele>192.0</ele><time>2026-03-28T07:12:46Z</time></trkpt><trkpt lat="48.05094145983032" lon="7.372217602447152"><ele>192.0</ele><time>2026-03-28T07:12:47Z</time></trkpt><trkpt lat="48.050684554807646" lon="7.372078603307143"><ele>192.0</ele><time>2026-03-28T07:12:48Z</time></trkpt><trkpt lat="48.05042934075329" lon="7.371940402280876"><ele>192.0</ele><time>2026-03-28T07:12:49Z</time></trkpt><trkpt lat="48.05017221514402" lon="7.371808599848667"><ele>192.0</ele><time>2026-03-28T07:12:50Z</time></trkpt><trkpt lat="48.04991211612864" lon="7.3716796551384585"><ele>190.5</ele><time>2026-03-28T07:12:51Z</time></trkpt><trkpt lat="48.049650791333654" lon="7.371556446487417"><ele>189.0</ele><time>2026-03-28T07:12:52Z</time></trkpt><trkpt lat="48.04938834078927" lon="7.3714402650895305"><ele>190.5</ele><time>2026-03-28T07:12:53Z</time></trkpt><trkpt lat="48.0491245010425" lon="7.371331128510321"><ele>192.0</ele><time>2026-03-28T07:12:54Z</time></trkpt><trkpt lat="48.04886042798057" lon="7.371225748811316"><ele>192.0</ele><time>2026-03-28T07:12:55Z</time></trkpt><trkpt lat="48.048596732428805" lon="7.3711308796525765"><ele>192.0</ele><time>2026-03-28T07:12:56Z</time></trkpt><trkpt lat="48.048331696537936" lon="7.371041747279512"><ele>190.5</ele><time>2026-03-28T07:12:57Z</time></trkpt><trkpt lat="48.04806676133184" lon="7.370955818440087"><ele>189.0</ele><time>2026-03-28T07:12:58Z</time></trkpt><trkpt lat="48.04780049775293" lon="7.370875800982388"><ele>189.0</ele><time>2026-03-28T07:12:59Z</time></trkpt><trkpt lat="48.04753070691978" lon="7.370802458596659"><ele>189.0</ele><time>2026-03-28T07:13:00Z</time></trkpt><trkpt lat="48.04726380513744" lon="7.370732207477008"><ele>189.5</ele><time>2026-03-28T07:13:01Z</time></trkpt><trkpt lat="48.04699579290448" lon="7.370665799504879"><ele>190.0</ele><time>2026-03-28T07:13:02Z</time></trkpt><trkpt lat="48.04672809485809" lon="7.370607340140543"><ele>190.0</ele><time>2026-03-28T07:13:03Z</time></trkpt><trkpt lat="48.04645887972425" lon="7.370556621504476"><ele>190.0</ele><time>2026-03-28T07:13:04Z</time></trkpt><trkpt lat="48.046186579798395" lon="7.370510502406489"><ele>190.0</ele><time>2026-03-28T07:13:05Z</time></trkpt><trkpt lat="48.045914357886595" lon="7.370471646824278"><ele>190.0</ele><time>2026-03-28T07:13:06Z</time></trkpt><trkpt lat="48.04564640539813" lon="7.370439814928424"><ele>190.0</ele><time>2026-03-28T07:13:07Z</time></trkpt><trkpt lat="48.045376438261414" lon="7.370414839102799"><ele>190.0</ele><time>2026-03-28T07:13:08Z</time></trkpt><trkpt lat="48.04510712409261" lon="7.37039606104636"><ele>190.5</ele><time>2026-03-28T07:13:09Z</time></trkpt><trkpt lat="48.044838246741975" lon="7.370382369432888"><ele>191.0</ele><time>2026-03-28T07:13:10Z</time></trkpt><trkpt lat="48.04457129529366" lon="7.3703766428476225"><ele>191.0</ele><time>2026-03-28T07:13:11Z</time></trkpt><trkpt lat="48.044308827480585" lon="7.370380547847281"><ele>191.0</ele><time>2026-03-28T07:13:12Z</time></trkpt><trkpt lat="48.04404339081578" lon="7.370386107459317"><ele>190.5</ele><time>2026-03-28T07:13:13Z</time></trkpt><trkpt lat="48.04377541073123" lon="7.370396326894187"><ele>190.0</ele><time>2026-03-28T07:13:14Z</time></trkpt><trkpt lat="48.04350914083317" lon="7.370411724087361"><ele>189.0</ele><time>2026-03-28T07:13:15Z</time></trkpt><trkpt lat="48.04324498170587" lon="7.370435224365091"><ele>188.0</ele><time>2026-03-28T07:13:16Z</time></trkpt><trkpt lat="48.04298330273438" lon="7.370459761855767"><ele>188.0</ele><time>2026-03-28T07:13:17Z</time></trkpt><trkpt lat="48.04272043318765" lon="7.370487189862804"><ele>188.0</ele><time>2026-03-28T07:13:18Z</time></trkpt><trkpt lat="48.04245735741726" lon="7.370518475013251"><ele>188.5</ele><time>2026-03-28T07:13:19Z</time></trkpt><trkpt lat="48.042192519303946" lon="7.3705512317748605"><ele>189.0</ele><time>2026-03-28T07:13:20Z</time></trkpt><trkpt lat="48.04192933750027" lon="7.370583002489077"><ele>189.0</ele><time>2026-03-28T07:13:21Z</time></trkpt><trkpt lat="48.041665825289655" lon="7.370612110146866"><ele>189.0</ele><time>2026-03-28T07:13:22Z</time></trkpt><trkpt lat="48.041400616304905" lon="7.370638151584864"><ele>190.5</ele><time>2026-03-28T07:13:23Z</time></trkpt><trkpt lat="48.04113778280292" lon="7.370670087902037"><ele>192.0</ele><time>2026-03-28T07:13:24Z</time></trkpt><trkpt lat="48.040873297977505" lon="7.370697539160937"><ele>191.5</ele><time>2026-03-28T07:13:25Z</time></trkpt><trkpt lat="48.04060801352517" lon="7.370718767330279"><ele>191.0</ele><time>2026-03-28T07:13:26Z</time></trkpt><trkpt lat="48.04033999680455" lon="7.370742506238728"><ele>191.0</ele><time>2026-03-28T07:13:27Z</time></trkpt><trkpt lat="48.04007260038786" lon="7.370765667945895"><ele>191.0</ele><time>2026-03-28T07:13:28Z</time></trkpt><trkpt lat="48.039806877188646" lon="7.370781229024079"><ele>191.5</ele><time>2026-03-28T07:13:29Z</time></trkpt><trkpt lat="48.03953769691625" lon="7.370797860850575"><ele>192.0</ele><time>2026-03-28T07:13:30Z</time></trkpt><trkpt lat="48.03926883859646" lon="7.370810999335934"><ele>192.5</ele><time>2026-03-28T07:13:31Z</time></trkpt><trkpt lat="48.039000028529514" lon="7.370832368719882"><ele>193.0</ele><time>2026-03-28T07:13:32Z</time></trkpt><trkpt lat="48.038728756709595" lon="7.370858057729669"><ele>193.0</ele><time>2026-03-28T07:13:33Z</time></trkpt><trkpt lat="48.03846026091069" lon="7.370884445063126"><ele>193.0</ele><time>2026-03-28T07:13:34Z</time></trkpt><trkpt lat="48.038191948723366" lon="7.370910644903179"><ele>191.0</ele><time>2026-03-28T07:13:35Z</time></trkpt><trkpt lat="48.037923851663976" lon="7.3709407752317055"><ele>189.0</ele><time>2026-03-28T07:13:36Z</time></trkpt><trkpt lat="48.037653605160095" lon="7.370966219216132"><ele>190.5</ele><time>2026-03-28T07:13:37Z</time></trkpt><trkpt lat="48.037383754550206" lon="7.37099368516337"><ele>192.0</ele><time>2026-03-28T07:13:38Z</time></trkpt><trkpt lat="48.03711388206367" lon="7.371020748219528"><ele>192.0</ele><time>2026-03-28T07:13:39Z</time></trkpt><trkpt lat="48.036843546358924" lon="7.371048806171229"><ele>192.0</ele><time>2026-03-28T07:13:40Z</time></trkpt><trkpt lat="48.03657207998302" lon="7.371077514261252"><ele>194.5</ele><time>2026-03-28T07:13:41Z</time></trkpt><trkpt lat="48.03630133483898" lon="7.37110365236243"><ele>197.0</ele><time>2026-03-28T07:13:42Z</time></trkpt><trkpt lat="48.03602970405386" lon="7.37112839473271"><ele>196.0</ele><time>2026-03-28T07:13:43Z</time></trkpt><trkpt lat="48.03575841856297" lon="7.37115828127943"><ele>195.0</ele><time>2026-03-28T07:13:44Z</time></trkpt><trkpt lat="48.03548942435649" lon="7.371185780888971"><ele>195.0</ele><time>2026-03-28T07:13:45Z</time></trkpt><trkpt lat="48.03521877826913" lon="7.371214574310493"><ele>195.0</ele><time>2026-03-28T07:13:46Z</time></trkpt><trkpt lat="48.0349484486509" lon="7.371240660951054"><ele>195.0</ele><time>2026-03-28T07:13:47Z</time></trkpt><trkpt lat="48.03467598887956" lon="7.37127143825757"><ele>195.0</ele><time>2026-03-28T07:13:48Z</time></trkpt><trkpt lat="48.034403206925184" lon="7.371307628956979"><ele>194.5</ele><time>2026-03-28T07:13:49Z</time></trkpt><trkpt lat="48.03412850435786" lon="7.371345089325762"><ele>194.0</ele><time>2026-03-28T07:13:50Z</time></trkpt><trkpt lat="48.03385258524348" lon="7.371380929256885"><ele>193.5</ele><time>2026-03-28T07:13:51Z</time></trkpt><trkpt lat="48.03357559778654" lon="7.371412652458458"><ele>193.0</ele><time>2026-03-28T07:13:52Z</time></trkpt><trkpt lat="48.03329930369955" lon="7.37144547776444"><ele>193.0</ele><time>2026-03-28T07:13:53Z</time></trkpt><trkpt lat="48.03302058392295" lon="7.37147834561814"><ele>193.0</ele><time>2026-03-28T07:13:54Z</time></trkpt><trkpt lat="48.03274135613495" lon="7.371510532611406"><ele>193.5</ele><time>2026-03-28T07:13:55Z</time></trkpt><trkpt lat="48.032461403773375" lon="7.371541877997374"><ele>194.0</ele><time>2026-03-28T07:13:56Z</time></trkpt><trkpt lat="48.03218092725171" lon="7.371573525743339"><ele>194.0</ele><time>2026-03-28T07:13:57Z</time></trkpt><trkpt lat="48.03189931792219" lon="7.371603259594127"><ele>194.0</ele><time>2026-03-28T07:13:58Z</time></trkpt><trkpt lat="48.03161791552686" lon="7.37163502742842"><ele>194.0</ele><time>2026-03-28T07:13:59Z</time></trkpt><trkpt lat="48.031337096772674" lon="7.371666435190943"><ele>194.0</ele><time>2026-03-28T07:14:00Z</time></trkpt><trkpt lat="48.03105691338622" lon="7.371697265561385"><ele>193.5</ele><time>2026-03-28T07:14:01Z</time></trkpt><trkpt lat="48.030777931392585" lon="7.3717244817017304"><ele>193.0</ele><time>2026-03-28T07:14:02Z</time></trkpt><trkpt lat="48.030498101022886" lon="7.371755984911638"><ele>193.0</ele><time>2026-03-28T07:14:03Z</time></trkpt><trkpt lat="48.030222609088014" lon="7.3717890068711425"><ele>193.0</ele><time>2026-03-28T07:14:04Z</time></trkpt><trkpt lat="48.02994706816777" lon="7.371820923434535"><ele>192.0</ele><time>2026-03-28T07:14:05Z</time></trkpt><trkpt lat="48.02967413425338" lon="7.371851536777161"><ele>191.0</ele><time>2026-03-28T07:14:06Z</time></trkpt><trkpt lat="48.029400434185845" lon="7.371879375909977"><ele>190.0</ele><time>2026-03-28T07:14:07Z</time></trkpt><trkpt lat="48.029124560289006" lon="7.371906506491035"><ele>189.0</ele><time>2026-03-28T07:14:08Z</time></trkpt><trkpt lat="48.028849965799196" lon="7.371934868463506"><ele>189.0</ele><time>2026-03-28T07:14:09Z</time></trkpt><trkpt lat="48.02857551055145" lon="7.3719626880326565"><ele>189.0</ele><time>2026-03-28T07:14:10Z</time></trkpt><trkpt lat="48.028305033347095" lon="7.371995477691591"><ele>189.5</ele><time>2026-03-28T07:14:11Z</time></trkpt><trkpt lat="48.02803465466846" lon="7.372026082865751"><ele>190.0</ele><time>2026-03-28T07:14:12Z</time></trkpt><trkpt lat="48.02776682670517" lon="7.372058559822188"><ele>190.0</ele><time>2026-03-28T07:14:13Z</time></trkpt><trkpt lat="48.02749997944907" lon="7.37209402600419"><ele>190.0</ele><time>2026-03-28T07:14:14Z</time></trkpt><trkpt lat="48.02723421685471" lon="7.372130159827786"><ele>189.5</ele><time>2026-03-28T07:14:15Z</time></trkpt><trkpt lat="48.026972791438354" lon="7.37216807325799"><ele>189.0</ele><time>2026-03-28T07:14:16Z</time></trkpt><trkpt lat="48.026707954455325" lon="7.372207190145324"><ele>189.5</ele><time>2026-03-28T07:14:17Z</time></trkpt><trkpt lat="48.02644250058762" lon="7.372250790577076"><ele>190.0</ele><time>2026-03-28T07:14:18Z</time></trkpt><trkpt lat="48.02617418555162" lon="7.372294227962051"><ele>190.0</ele><time>2026-03-28T07:14:19Z</time></trkpt><trkpt lat="48.02590614911577" lon="7.372335523860026"><ele>190.0</ele><time>2026-03-28T07:14:20Z</time></trkpt><trkpt lat="48.02563536301814" lon="7.372376086929111"><ele>191.0</ele><time>2026-03-28T07:14:21Z</time></trkpt><trkpt lat="48.02536466568584" lon="7.3724140874739605"><ele>192.0</ele><time>2026-03-28T07:14:22Z</time></trkpt><trkpt lat="48.02509538437743" lon="7.372459459592953"><ele>191.0</ele><time>2026-03-28T07:14:23Z</time></trkpt><trkpt lat="48.02482436320924" lon="7.372505165030715"><ele>190.0</ele><time>2026-03-28T07:14:24Z</time></trkpt><trkpt lat="48.024552860766164" lon="7.372553219790155"><ele>190.0</ele><time>2026-03-28T07:14:25Z</time></trkpt><trkpt lat="48.024282078190204" lon="7.37260265601023"><ele>190.0</ele><time>2026-03-28T07:14:26Z</time></trkpt><trkpt lat="48.02400792461989" lon="7.3726506139040735"><ele>189.5</ele><time>2026-03-28T07:14:27Z</time></trkpt><trkpt lat="48.02373278464718" lon="7.372701186216066"><ele>189.0</ele><time>2026-03-28T07:14:28Z</time></trkpt><trkpt lat="48.023456237428285" lon="7.372753615590899"><ele>189.0</ele><time>2026-03-28T07:14:29Z</time></trkpt><trkpt lat="48.023179416390676" lon="7.372808540453308"><ele>189.0</ele><time>2026-03-28T07:14:30Z</time></trkpt><trkpt lat="48.02290210000631" lon="7.372864757918651"><ele>189.0</ele><time>2026-03-28T07:14:31Z</time></trkpt><trkpt lat="48.022625807913315" lon="7.372925662898958"><ele>189.0</ele><time>2026-03-28T07:14:32Z</time></trkpt><trkpt lat="48.02234779771788" lon="7.372986626852959"><ele>189.5</ele><time>2026-03-28T07:14:33Z</time></trkpt><trkpt lat="48.0220721092598" lon="7.3730507133882375"><ele>190.0</ele><time>2026-03-28T07:14:34Z</time></trkpt><trkpt lat="48.02179469591765" lon="7.373111364270171"><ele>190.0</ele><time>2026-03-28T07:14:35Z</time></trkpt><trkpt lat="48.02151761008604" lon="7.37317510300667"><ele>190.0</ele><time>2026-03-28T07:14:36Z</time></trkpt><trkpt lat="48.021240042071796" lon="7.373240956796754"><ele>190.0</ele><time>2026-03-28T07:14:37Z</time></trkpt><trkpt lat="48.02096360178634" lon="7.37330747717974"><ele>190.0</ele><time>2026-03-28T07:14:38Z</time></trkpt><trkpt lat="48.02068755036184" lon="7.37337674429476"><ele>190.0</ele><time>2026-03-28T07:14:39Z</time></trkpt><trkpt lat="48.020413503547644" lon="7.373444243358142"><ele>190.0</ele><time>2026-03-28T07:14:40Z</time></trkpt><trkpt lat="48.02013891796366" lon="7.373513298098657"><ele>190.0</ele><time>2026-03-28T07:14:41Z</time></trkpt><trkpt lat="48.01986480843669" lon="7.373578857505009"><ele>190.0</ele><time>2026-03-28T07:14:42Z</time></trkpt><trkpt lat="48.01959081671983" lon="7.373644436247794"><ele>190.0</ele><time>2026-03-28T07:14:43Z</time></trkpt><trkpt lat="48.01931809088006" lon="7.373708040044729"><ele>190.0</ele><time>2026-03-28T07:14:44Z</time></trkpt><trkpt lat="48.019048315280386" lon="7.373771370230117"><ele>190.0</ele><time>2026-03-28T07:14:45Z</time></trkpt><trkpt lat="48.01877988211263" lon="7.3738377165706"><ele>190.0</ele><time>2026-03-28T07:14:46Z</time></trkpt><trkpt lat="48.018508387722505" lon="7.37390642657987"><ele>191.0</ele><time>2026-03-28T07:14:47Z</time></trkpt><trkpt lat="48.0182399243658" lon="7.373977439996111"><ele>192.0</ele><time>2026-03-28T07:14:48Z</time></trkpt><trkpt lat="48.01797375808918" lon="7.374055450150846"><ele>192.0</ele><time>2026-03-28T07:14:49Z</time></trkpt><trkpt lat="48.01770967624885" lon="7.374134026356391"><ele>192.0</ele><time>2026-03-28T07:14:50Z</time></trkpt><trkpt lat="48.01744556607386" lon="7.374212365118356"><ele>192.0</ele><time>2026-03-28T07:14:51Z</time></trkpt><trkpt lat="48.01718439350487" lon="7.374291652916864"><ele>192.0</ele><time>2026-03-28T07:14:52Z</time></trkpt><trkpt lat="48.016920445960345" lon="7.374372034517181"><ele>192.0</ele><time>2026-03-28T07:14:53Z</time></trkpt><trkpt lat="48.01665903437593" lon="7.374453377176453"><ele>192.0</ele><time>2026-03-28T07:14:54Z</time></trkpt><trkpt lat="48.0163951586138" lon="7.374530005723559"><ele>192.0</ele><time>2026-03-28T07:14:55Z</time></trkpt><trkpt lat="48.01613312887447" lon="7.374607618227002"><ele>192.0</ele><time>2026-03-28T07:14:56Z</time></trkpt><trkpt lat="48.01587080065499" lon="7.374686188098859"><ele>192.0</ele><time>2026-03-28T07:14:57Z</time></trkpt><trkpt lat="48.015611333519516" lon="7.374764604992462"><ele>192.0</ele><time>2026-03-28T07:14:58Z</time></trkpt><trkpt lat="48.015348523422176" lon="7.374843357241837"><ele>192.0</ele><time>2026-03-28T07:14:59Z</time></trkpt><trkpt lat="48.01508785347461" lon="7.374921280423546"><ele>192.0</ele><time>2026-03-28T07:15:00Z</time></trkpt><trkpt lat="48.014826289757046" lon="7.374998568045138"><ele>192.0</ele><time>2026-03-28T07:15:01Z</time></trkpt><trkpt lat="48.01456484678312" lon="7.375078599709062"><ele>192.0</ele><time>2026-03-28T07:15:02Z</time></trkpt><trkpt lat="48.0143026157403" lon="7.3751551174593395"><ele>191.0</ele><time>2026-03-28T07:15:03Z</time></trkpt><trkpt lat="48.01404090121026" lon="7.375236050505997"><ele>190.0</ele><time>2026-03-28T07:15:04Z</time></trkpt><trkpt lat="48.013778013711494" lon="7.375314359369337"><ele>190.0</ele><time>2026-03-28T07:15:05Z</time></trkpt><trkpt lat="48.01351594396014" lon="7.375392720259718"><ele>190.0</ele><time>2026-03-28T07:15:06Z</time></trkpt><trkpt lat="48.0132547743636" lon="7.375470901355081"><ele>191.0</ele><time>2026-03-28T07:15:07Z</time></trkpt><trkpt lat="48.012992616061645" lon="7.37554960581481"><ele>192.0</ele><time>2026-03-28T07:15:08Z</time></trkpt><trkpt lat="48.01273159355427" lon="7.375638193230926"><ele>191.0</ele><time>2026-03-28T07:15:09Z</time></trkpt><trkpt lat="48.01246562234832" lon="7.375728053976277"><ele>190.0</ele><time>2026-03-28T07:15:10Z</time></trkpt><trkpt lat="48.01219712948094" lon="7.375824268714247"><ele>190.0</ele><time>2026-03-28T07:15:11Z</time></trkpt><trkpt lat="48.011924278094504" lon="7.3759129109560515"><ele>190.0</ele><time>2026-03-28T07:15:12Z</time></trkpt><trkpt lat="48.01165031122485" lon="7.37600066560616"><ele>189.5</ele><time>2026-03-28T07:15:13Z</time></trkpt><trkpt lat="48.011374608728005" lon="7.376086156454105"><ele>189.0</ele><time>2026-03-28T07:15:14Z</time></trkpt><trkpt lat="48.01109586486213" lon="7.376169324222473"><ele>189.5</ele><time>2026-03-28T07:15:15Z</time></trkpt><trkpt lat="48.01081823633462" lon="7.376255894927697"><ele>190.0</ele><time>2026-03-28T07:15:16Z</time></trkpt><trkpt lat="48.010537647654964" lon="7.376333425292495"><ele>191.0</ele><time>2026-03-28T07:15:17Z</time></trkpt><trkpt lat="48.01025931369485" lon="7.376409811782238"><ele>192.0</ele><time>2026-03-28T07:15:18Z</time></trkpt><trkpt lat="48.00997954838895" lon="7.376487181993754"><ele>192.5</ele><time>2026-03-28T07:15:19Z</time></trkpt><trkpt lat="48.009700529199435" lon="7.376558354407203"><ele>193.0</ele><time>2026-03-28T07:15:20Z</time></trkpt><trkpt lat="48.00941865336103" lon="7.376627192040961"><ele>192.5</ele><time>2026-03-28T07:15:21Z</time></trkpt><trkpt lat="48.00914078778336" lon="7.37670437370571"><ele>192.0</ele><time>2026-03-28T07:15:22Z</time></trkpt><trkpt lat="48.00885969234275" lon="7.376785617358398"><ele>192.0</ele><time>2026-03-28T07:15:23Z</time></trkpt><trkpt lat="48.00858109139365" lon="7.376867683744756"><ele>192.0</ele><time>2026-03-28T07:15:24Z</time></trkpt><trkpt lat="48.008308984442586" lon="7.376951609747332"><ele>191.5</ele><time>2026-03-28T07:15:25Z</time></trkpt><trkpt lat="48.00803859466722" lon="7.37703010552698"><ele>191.0</ele><time>2026-03-28T07:15:26Z</time></trkpt><trkpt lat="48.00776776046642" lon="7.377114425457574"><ele>191.0</ele><time>2026-03-28T07:15:27Z</time></trkpt><trkpt lat="48.00749716094561" lon="7.377194860463888"><ele>191.0</ele><time>2026-03-28T07:15:28Z</time></trkpt><trkpt lat="48.00722363381642" lon="7.377274432203286"><ele>191.5</ele><time>2026-03-28T07:15:29Z</time></trkpt><trkpt lat="48.006952514140565" lon="7.377353312907184"><ele>192.0</ele><time>2026-03-28T07:15:30Z</time></trkpt><trkpt lat="48.006682142350755" lon="7.3774368392079275"><ele>192.5</ele><time>2026-03-28T07:15:31Z</time></trkpt><trkpt lat="48.00640841091793" lon="7.377514497300536"><ele>193.0</ele><time>2026-03-28T07:15:32Z</time></trkpt><trkpt lat="48.00613651323451" lon="7.377591952332666"><ele>193.0</ele><time>2026-03-28T07:15:33Z</time></trkpt><trkpt lat="48.00586461600223" lon="7.377671918343705"><ele>193.0</ele><time>2026-03-28T07:15:34Z</time></trkpt><trkpt lat="48.00559251878426" lon="7.377752094563401"><ele>193.0</ele><time>2026-03-28T07:15:35Z</time></trkpt><trkpt lat="48.00532264964726" lon="7.377833099313932"><ele>193.0</ele><time>2026-03-28T07:15:36Z</time></trkpt><trkpt lat="48.005054641333004" lon="7.377913189735589"><ele>193.0</ele><time>2026-03-28T07:15:37Z</time></trkpt><trkpt lat="48.004789270413234" lon="7.377990801562075"><ele>193.0</ele><time>2026-03-28T07:15:38Z</time></trkpt><trkpt lat="48.0045238806416" lon="7.378071297445943"><ele>193.0</ele><time>2026-03-28T07:15:39Z</time></trkpt><trkpt lat="48.00426055348468" lon="7.378150328852954"><ele>193.0</ele><time>2026-03-28T07:15:40Z</time></trkpt><trkpt lat="48.00399752754318" lon="7.378231556033913"><ele>193.0</ele><time>2026-03-28T07:15:41Z</time></trkpt><trkpt lat="48.003732375004056" lon="7.378310869633102"><ele>193.0</ele><time>2026-03-28T07:15:42Z</time></trkpt><trkpt lat="48.003470505558404" lon="7.378390627843794"><ele>193.0</ele><time>2026-03-28T07:15:43Z</time></trkpt><trkpt lat="48.003209374691515" lon="7.378470271152954"><ele>193.0</ele><time>2026-03-28T07:15:44Z</time></trkpt><trkpt lat="48.00294742891442" lon="7.378553082098762"><ele>193.0</ele><time>2026-03-28T07:15:45Z</time></trkpt><trkpt lat="48.00268574898538" lon="7.378633309675523"><ele>193.0</ele><time>2026-03-28T07:15:46Z</time></trkpt><trkpt lat="48.00242441718224" lon="7.378714919438801"><ele>193.5</ele><time>2026-03-28T07:15:47Z</time></trkpt><trkpt lat="48.002163725767666" lon="7.378793497087174"><ele>194.0</ele><time>2026-03-28T07:15:48Z</time></trkpt><trkpt lat="48.001900464116964" lon="7.378869877320435"><ele>194.5</ele><time>2026-03-28T07:15:49Z</time></trkpt><trkpt lat="48.001636203141636" lon="7.378946334894192"><ele>195.0</ele><time>2026-03-28T07:15:50Z</time></trkpt><trkpt lat="48.00137881228636" lon="7.379022849026636"><ele>195.0</ele><time>2026-03-28T07:15:51Z</time></trkpt><trkpt lat="48.00111745390341" lon="7.379093869853146"><ele>195.0</ele><time>2026-03-28T07:15:52Z</time></trkpt><trkpt lat="48.00085259404969" lon="7.379160765648885"><ele>195.5</ele><time>2026-03-28T07:15:53Z</time></trkpt><trkpt lat="48.00059208322253" lon="7.379223811629427"><ele>196.0</ele><time>2026-03-28T07:15:54Z</time></trkpt><trkpt lat="48.00032854081245" lon="7.379284144968754"><ele>196.0</ele><time>2026-03-28T07:15:55Z</time></trkpt><trkpt lat="48.000064769970834" lon="7.37933753989081"><ele>196.0</ele><time>2026-03-28T07:15:56Z</time></trkpt><trkpt lat="47.999800902322136" lon="7.379383680559112"><ele>196.0</ele><time>2026-03-28T07:15:57Z</time></trkpt><trkpt lat="47.99953278044446" lon="7.3794174582669765"><ele>196.0</ele><time>2026-03-28T07:15:58Z</time></trkpt><trkpt lat="47.999264610971935" lon="7.37945300418461"><ele>195.0</ele><time>2026-03-28T07:15:59Z</time></trkpt><trkpt lat="47.99899683505803" lon="7.3794802306413585"><ele>194.0</ele><time>2026-03-28T07:16:00Z</time></trkpt><trkpt lat="47.998730540954185" lon="7.3795033969619315"><ele>194.0</ele><time>2026-03-28T07:16:01Z</time></trkpt><trkpt lat="47.998460855692684" lon="7.37952080954681"><ele>194.0</ele><time>2026-03-28T07:16:02Z</time></trkpt><trkpt lat="47.99819345612578" lon="7.37953273223921"><ele>194.0</ele><time>2026-03-28T07:16:03Z</time></trkpt><trkpt lat="47.99792549546556" lon="7.37953793601111"><ele>194.0</ele><time>2026-03-28T07:16:04Z</time></trkpt><trkpt lat="47.99765748228125" lon="7.379540809013578"><ele>194.0</ele><time>2026-03-28T07:16:05Z</time></trkpt><trkpt lat="47.997390687345785" lon="7.379539169378142"><ele>194.0</ele><time>2026-03-28T07:16:06Z</time></trkpt><trkpt lat="47.9971230659077" lon="7.379525597530427"><ele>194.0</ele><time>2026-03-28T07:16:07Z</time></trkpt><trkpt lat="47.9968548199559" lon="7.37951306168884"><ele>194.0</ele><time>2026-03-28T07:16:08Z</time></trkpt><trkpt lat="47.9965896654881" lon="7.379494619781463"><ele>194.0</ele><time>2026-03-28T07:16:09Z</time></trkpt><trkpt lat="47.9963218970453" lon="7.379466057145407"><ele>194.0</ele><time>2026-03-28T07:16:10Z</time></trkpt><trkpt lat="47.99605552318" lon="7.37943298460978"><ele>194.5</ele><time>2026-03-28T07:16:11Z</time></trkpt><trkpt lat="47.995789720497285" lon="7.379389603104873"><ele>195.0</ele><time>2026-03-28T07:16:12Z</time></trkpt><trkpt lat="47.99552278345951" lon="7.379342518356315"><ele>195.0</ele><time>2026-03-28T07:16:13Z</time></trkpt><trkpt lat="47.99525553574702" lon="7.379290193115386"><ele>195.0</ele><time>2026-03-28T07:16:14Z</time></trkpt><trkpt lat="47.9949905438313" lon="7.379232620750266"><ele>194.5</ele><time>2026-03-28T07:16:15Z</time></trkpt><trkpt lat="47.994725276663885" lon="7.379172613533241"><ele>194.0</ele><time>2026-03-28T07:16:16Z</time></trkpt><trkpt lat="47.994459969563934" lon="7.379102752741312"><ele>194.0</ele><time>2026-03-28T07:16:17Z</time></trkpt><trkpt lat="47.99419769129677" lon="7.3790279287167"><ele>194.0</ele><time>2026-03-28T07:16:18Z</time></trkpt><trkpt lat="47.993937128894764" lon="7.378951858174275"><ele>194.5</ele><time>2026-03-28T07:16:19Z</time></trkpt><trkpt lat="47.99367656139003" lon="7.378874043721784"><ele>195.0</ele><time>2026-03-28T07:16:20Z</time></trkpt><trkpt lat="47.99341966446941" lon="7.378793349406686"><ele>195.5</ele><time>2026-03-28T07:16:21Z</time></trkpt><trkpt lat="47.99316412140382" lon="7.378713658582584"><ele>196.0</ele><time>2026-03-28T07:16:22Z</time></trkpt><trkpt lat="47.9929127207646" lon="7.378632771198229"><ele>196.0</ele><time>2026-03-28T07:16:23Z</time></trkpt><trkpt lat="47.9926600435449" lon="7.378551182960074"><ele>196.0</ele><time>2026-03-28T07:16:24Z</time></trkpt><trkpt lat="47.992403291025454" lon="7.37847152786437"><ele>196.0</ele><time>2026-03-28T07:16:25Z</time></trkpt><trkpt lat="47.99214353804443" lon="7.37839029332282"><ele>196.0</ele><time>2026-03-28T07:16:26Z</time></trkpt><trkpt lat="47.99188581708755" lon="7.378306016020358"><ele>196.0</ele><time>2026-03-28T07:16:27Z</time></trkpt><trkpt lat="47.99162673191516" lon="7.378222606409152"><ele>196.0</ele><time>2026-03-28T07:16:28Z</time></trkpt><trkpt lat="47.99136755797429" lon="7.378139301559065"><ele>196.0</ele><time>2026-03-28T07:16:29Z</time></trkpt><trkpt lat="47.99110961056536" lon="7.378059885180993"><ele>196.0</ele><time>2026-03-28T07:16:30Z</time></trkpt><trkpt lat="47.9908546485662" lon="7.377978783823202"><ele>196.5</ele><time>2026-03-28T07:16:31Z</time></trkpt><trkpt lat="47.99059502770639" lon="7.377899806789041"><ele>197.0</ele><time>2026-03-28T07:16:32Z</time></trkpt><trkpt lat="47.99034226102311" lon="7.377818263638318"><ele>197.0</ele><time>2026-03-28T07:16:33Z</time></trkpt><trkpt lat="47.99009051492115" lon="7.377735294325754"><ele>197.0</ele><time>2026-03-28T07:16:34Z</time></trkpt><trkpt lat="47.9898340300014" lon="7.3776542404165495"><ele>196.5</ele><time>2026-03-28T07:16:35Z</time></trkpt><trkpt lat="47.98957465262347" lon="7.377571964556948"><ele>196.0</ele><time>2026-03-28T07:16:36Z</time></trkpt><trkpt lat="47.98931628172657" lon="7.377489820809068"><ele>196.0</ele><time>2026-03-28T07:16:37Z</time></trkpt><trkpt lat="47.98905826811101" lon="7.377409037769135"><ele>196.0</ele><time>2026-03-28T07:16:38Z</time></trkpt><trkpt lat="47.98879451919956" lon="7.377333969381828"><ele>196.0</ele><time>2026-03-28T07:16:39Z</time></trkpt><trkpt lat="47.98853218343381" lon="7.377257739834991"><ele>196.0</ele><time>2026-03-28T07:16:40Z</time></trkpt><trkpt lat="47.988267188340394" lon="7.377183851446121"><ele>195.5</ele><time>2026-03-28T07:16:41Z</time></trkpt><trkpt lat="47.98800039332515" lon="7.377109193831032"><ele>195.0</ele><time>2026-03-28T07:16:42Z</time></trkpt><trkpt lat="47.98773662284957" lon="7.37703147740379"><ele>195.0</ele><time>2026-03-28T07:16:43Z</time></trkpt><trkpt lat="47.98747324203412" lon="7.376952036354616"><ele>195.0</ele><time>2026-03-28T07:16:44Z</time></trkpt><trkpt lat="47.987209673659414" lon="7.376872023683022"><ele>195.0</ele><time>2026-03-28T07:16:45Z</time></trkpt><trkpt lat="47.986943897778495" lon="7.376792809775944"><ele>195.0</ele><time>2026-03-28T07:16:46Z</time></trkpt><trkpt lat="47.98668009054815" lon="7.376711167516504"><ele>195.5</ele><time>2026-03-28T07:16:47Z</time></trkpt><trkpt lat="47.98641793558798" lon="7.376630511254933"><ele>196.0</ele><time>2026-03-28T07:16:48Z</time></trkpt><trkpt lat="47.9861557576646" lon="7.376550199804355"><ele>196.0</ele><time>2026-03-28T07:16:49Z</time></trkpt><trkpt lat="47.98589313154152" lon="7.376467748483777"><ele>196.0</ele><time>2026-03-28T07:16:50Z</time></trkpt><trkpt lat="47.9856300541703" lon="7.376383206366309"><ele>196.0</ele><time>2026-03-28T07:16:51Z</time></trkpt><trkpt lat="47.98536738412" lon="7.376299926065726"><ele>196.0</ele><time>2026-03-28T07:16:52Z</time></trkpt><trkpt lat="47.98510428460103" lon="7.3762199233581915"><ele>196.0</ele><time>2026-03-28T07:16:53Z</time></trkpt><trkpt lat="47.984842986006605" lon="7.376136487813189"><ele>196.0</ele><time>2026-03-28T07:16:54Z</time></trkpt><trkpt lat="47.98458220224141" lon="7.376052846153143"><ele>196.0</ele><time>2026-03-28T07:16:55Z</time></trkpt><trkpt lat="47.98431959282454" lon="7.375971778092145"><ele>196.0</ele><time>2026-03-28T07:16:56Z</time></trkpt><trkpt lat="47.98405809744353" lon="7.375892962637535"><ele>196.5</ele><time>2026-03-28T07:16:57Z</time></trkpt><trkpt lat="47.98379395262972" lon="7.3758114220565405"><ele>197.0</ele><time>2026-03-28T07:16:58Z</time></trkpt><trkpt lat="47.98353415508322" lon="7.375728403896364"><ele>197.0</ele><time>2026-03-28T07:16:59Z</time></trkpt><trkpt lat="47.98327179752565" lon="7.375647767864409"><ele>197.0</ele><time>2026-03-28T07:17:00Z</time></trkpt><trkpt lat="47.983011158485944" lon="7.375562019521277"><ele>197.0</ele><time>2026-03-28T07:17:01Z</time></trkpt><trkpt lat="47.98274898978227" lon="7.375478728472817"><ele>197.0</ele><time>2026-03-28T07:17:02Z</time></trkpt><trkpt lat="47.982487098693966" lon="7.375398342974723"><ele>197.0</ele><time>2026-03-28T07:17:03Z</time></trkpt><trkpt lat="47.98222684033058" lon="7.3753126790178944"><ele>197.0</ele><time>2026-03-28T07:17:04Z</time></trkpt><trkpt lat="47.981968330828366" lon="7.375217146210425"><ele>197.0</ele><time>2026-03-28T07:17:05Z</time></trkpt><trkpt lat="47.981708756010875" lon="7.375128082495306"><ele>197.0</ele><time>2026-03-28T07:17:06Z</time></trkpt><trkpt lat="47.981448643219224" lon="7.375033878588357"><ele>197.0</ele><time>2026-03-28T07:17:07Z</time></trkpt><trkpt lat="47.98118672148177" lon="7.374943508897786"><ele>197.0</ele><time>2026-03-28T07:17:08Z</time></trkpt><trkpt lat="47.9809240601892" lon="7.3748571955269"><ele>197.0</ele><time>2026-03-28T07:17:09Z</time></trkpt><trkpt lat="47.98065730001344" lon="7.374772006922322"><ele>197.0</ele><time>2026-03-28T07:17:10Z</time></trkpt><trkpt lat="47.980391101902576" lon="7.374686980332295"><ele>197.0</ele><time>2026-03-28T07:17:11Z</time></trkpt><trkpt lat="47.98012586795167" lon="7.374600061364121"><ele>197.0</ele><time>2026-03-28T07:17:12Z</time></trkpt><trkpt lat="47.97986028397547" lon="7.374514642443914"><ele>196.5</ele><time>2026-03-28T07:17:13Z</time></trkpt><trkpt lat="47.979594437822755" lon="7.374429246387762"><ele>196.0</ele><time>2026-03-28T07:17:14Z</time></trkpt><trkpt lat="47.97932595621993" lon="7.374351442978892"><ele>196.5</ele><time>2026-03-28T07:17:15Z</time></trkpt><trkpt lat="47.97906092135331" lon="7.374265479310753"><ele>197.0</ele><time>2026-03-28T07:17:16Z</time></trkpt><trkpt lat="47.978791706353796" lon="7.374181404167427"><ele>197.0</ele><time>2026-03-28T07:17:17Z</time></trkpt><trkpt lat="47.97852597226666" lon="7.374101868272669"><ele>197.0</ele><time>2026-03-28T07:17:18Z</time></trkpt><trkpt lat="47.97826126729853" lon="7.3740200831969585"><ele>197.5</ele><time>2026-03-28T07:17:19Z</time></trkpt><trkpt lat="47.977995654083806" lon="7.373932800405361"><ele>198.0</ele><time>2026-03-28T07:17:20Z</time></trkpt><trkpt lat="47.97773239222921" lon="7.373838957355231"><ele>198.5</ele><time>2026-03-28T07:17:21Z</time></trkpt><trkpt lat="47.97746360807745" lon="7.373752103071478"><ele>199.0</ele><time>2026-03-28T07:17:22Z</time></trkpt><trkpt lat="47.97719468375914" lon="7.373666199190258"><ele>199.0</ele><time>2026-03-28T07:17:23Z</time></trkpt><trkpt lat="47.9769229115123" lon="7.373583286492167"><ele>199.0</ele><time>2026-03-28T07:17:24Z</time></trkpt><trkpt lat="47.97665408894151" lon="7.373495772068769"><ele>198.5</ele><time>2026-03-28T07:17:25Z</time></trkpt><trkpt lat="47.97638478847589" lon="7.3734088098786446"><ele>198.0</ele><time>2026-03-28T07:17:26Z</time></trkpt><trkpt lat="47.97611505206661" lon="7.37332080749955"><ele>198.0</ele><time>2026-03-28T07:17:27Z</time></trkpt><trkpt lat="47.97584793407221" lon="7.373234669785326"><ele>198.0</ele><time>2026-03-28T07:17:28Z</time></trkpt><trkpt lat="47.9755805258718" lon="7.373151960346294"><ele>198.0</ele><time>2026-03-28T07:17:29Z</time></trkpt><trkpt lat="47.975313054299924" lon="7.3730669993554505"><ele>198.0</ele><time>2026-03-28T07:17:30Z</time></trkpt><trkpt lat="47.975046181766196" lon="7.372982055201529"><ele>198.5</ele><time>2026-03-28T07:17:31Z</time></trkpt><trkpt lat="47.97477757878851" lon="7.37289851055171"><ele>199.0</ele><time>2026-03-28T07:17:32Z</time></trkpt><trkpt lat="47.974510527448295" lon="7.37281494422539"><ele>199.0</ele><time>2026-03-28T07:17:33Z</time></trkpt><trkpt lat="47.974242057138106" lon="7.372732253969555"><ele>199.0</ele><time>2026-03-28T07:17:34Z</time></trkpt><trkpt lat="47.97397456678787" lon="7.372646636755566"><ele>198.5</ele><time>2026-03-28T07:17:35Z</time></trkpt><trkpt lat="47.97370706102189" lon="7.372561093697626"><ele>198.0</ele><time>2026-03-28T07:17:36Z</time></trkpt><trkpt lat="47.973440089027065" lon="7.372476604048908"><ele>198.0</ele><time>2026-03-28T07:17:37Z</time></trkpt><trkpt lat="47.973171851471506" lon="7.372392188407973"><ele>198.0</ele><time>2026-03-28T07:17:38Z</time></trkpt><trkpt lat="47.97290257593798" lon="7.3723089230053755"><ele>198.0</ele><time>2026-03-28T07:17:39Z</time></trkpt><trkpt lat="47.972634899106666" lon="7.372222933401403"><ele>198.0</ele><time>2026-03-28T07:17:40Z</time></trkpt><trkpt lat="47.97236722291498" lon="7.372139594459777"><ele>199.0</ele><time>2026-03-28T07:17:41Z</time></trkpt><trkpt lat="47.97210127829869" lon="7.372056555428824"><ele>200.0</ele><time>2026-03-28T07:17:42Z</time></trkpt><trkpt lat="47.9718340802305" lon="7.371971075027886"><ele>199.5</ele><time>2026-03-28T07:17:43Z</time></trkpt><trkpt lat="47.971567092943936" lon="7.371884698482423"><ele>199.0</ele><time>2026-03-28T07:17:44Z</time></trkpt><trkpt lat="47.97129818546664" lon="7.371799796468487"><ele>199.0</ele><time>2026-03-28T07:17:45Z</time></trkpt><trkpt lat="47.97102918956447" lon="7.371714438867076"><ele>199.0</ele><time>2026-03-28T07:17:46Z</time></trkpt><trkpt lat="47.97075986094575" lon="7.37162922024019"><ele>198.5</ele><time>2026-03-28T07:17:47Z</time></trkpt><trkpt lat="47.970492298668304" lon="7.371545109269683"><ele>198.0</ele><time>2026-03-28T07:17:48Z</time></trkpt><trkpt lat="47.97022681979336" lon="7.371460828078687"><ele>198.5</ele><time>2026-03-28T07:17:49Z</time></trkpt><trkpt lat="47.96996187615781" lon="7.371378416527139"><ele>199.0</ele><time>2026-03-28T07:17:50Z</time></trkpt><trkpt lat="47.969696185588184" lon="7.371295384167423"><ele>199.0</ele><time>2026-03-28T07:17:51Z</time></trkpt><trkpt lat="47.96943022427142" lon="7.371210146757384"><ele>199.0</ele><time>2026-03-28T07:17:52Z</time></trkpt><trkpt lat="47.96916446584736" lon="7.371125995714712"><ele>199.0</ele><time>2026-03-28T07:17:53Z</time></trkpt><trkpt lat="47.968898072349255" lon="7.371042474644013"><ele>199.0</ele><time>2026-03-28T07:17:54Z</time></trkpt><trkpt lat="47.96863337363526" lon="7.370955413251815"><ele>199.0</ele><time>2026-03-28T07:17:55Z</time></trkpt><trkpt lat="47.96836646115687" lon="7.37087360187905"><ele>199.0</ele><time>2026-03-28T07:17:56Z</time></trkpt><trkpt lat="47.968102788430706" lon="7.370789092848024"><ele>199.0</ele><time>2026-03-28T07:17:57Z</time></trkpt><trkpt lat="47.967838953700486" lon="7.370704624515555"><ele>199.0</ele><time>2026-03-28T07:17:58Z</time></trkpt><trkpt lat="47.96757337232394" lon="7.370622833229283"><ele>199.0</ele><time>2026-03-28T07:17:59Z</time></trkpt><trkpt lat="47.9673073322556" lon="7.370539813365303"><ele>199.0</ele><time>2026-03-28T07:18:00Z</time></trkpt><trkpt lat="47.9670395028218" lon="7.3704582540795895"><ele>199.0</ele><time>2026-03-28T07:18:01Z</time></trkpt><trkpt lat="47.9667736968317" lon="7.3703735490586775"><ele>199.0</ele><time>2026-03-28T07:18:02Z</time></trkpt><trkpt lat="47.96650616761789" lon="7.370290813727199"><ele>199.5</ele><time>2026-03-28T07:18:03Z</time></trkpt><trkpt lat="47.96624020003725" lon="7.370209721909707"><ele>200.0</ele><time>2026-03-28T07:18:04Z</time></trkpt><trkpt lat="47.96597505572991" lon="7.370130166057757"><ele>200.0</ele><time>2026-03-28T07:18:05Z</time></trkpt><trkpt lat="47.96570753064394" lon="7.370053345518007"><ele>200.0</ele><time>2026-03-28T07:18:06Z</time></trkpt><trkpt lat="47.96544154439679" lon="7.369974863557869"><ele>200.0</ele><time>2026-03-28T07:18:07Z</time></trkpt><trkpt lat="47.96517286422641" lon="7.369901198636353"><ele>200.0</ele><time>2026-03-28T07:18:08Z</time></trkpt><trkpt lat="47.964906239211395" lon="7.369825492488028"><ele>200.0</ele><time>2026-03-28T07:18:09Z</time></trkpt><trkpt lat="47.96464031148758" lon="7.369745650953524"><ele>200.0</ele><time>2026-03-28T07:18:10Z</time></trkpt><trkpt lat="47.9643727457581" lon="7.369663481727875"><ele>200.5</ele><time>2026-03-28T07:18:11Z</time></trkpt><trkpt lat="47.964106115914966" lon="7.369580855930184"><ele>201.0</ele><time>2026-03-28T07:18:12Z</time></trkpt><trkpt lat="47.963844643782245" lon="7.369500174788047"><ele>201.0</ele><time>2026-03-28T07:18:13Z</time></trkpt><trkpt lat="47.963583730963485" lon="7.369418646395051"><ele>201.0</ele><time>2026-03-28T07:18:14Z</time></trkpt><trkpt lat="47.96332366326365" lon="7.369337569342484"><ele>201.0</ele><time>2026-03-28T07:18:15Z</time></trkpt><trkpt lat="47.96306170380883" lon="7.369257706233079"><ele>201.0</ele><time>2026-03-28T07:18:16Z</time></trkpt><trkpt lat="47.96280056048788" lon="7.3691749376626765"><ele>201.0</ele><time>2026-03-28T07:18:17Z</time></trkpt><trkpt lat="47.96253908749215" lon="7.369097137145799"><ele>201.0</ele><time>2026-03-28T07:18:18Z</time></trkpt><trkpt lat="47.9622761723182" lon="7.369010831642052"><ele>200.5</ele><time>2026-03-28T07:18:19Z</time></trkpt><trkpt lat="47.96201261625797" lon="7.368924049975353"><ele>200.0</ele><time>2026-03-28T07:18:20Z</time></trkpt><trkpt lat="47.96174921223979" lon="7.368838177022769"><ele>200.5</ele><time>2026-03-28T07:18:21Z</time></trkpt><trkpt lat="47.961484741015035" lon="7.368755228247717"><ele>201.0</ele><time>2026-03-28T07:18:22Z</time></trkpt><trkpt lat="47.96122059778659" lon="7.36867113093001"><ele>201.0</ele><time>2026-03-28T07:18:23Z</time></trkpt><trkpt lat="47.960956560928636" lon="7.368587715604098"><ele>201.0</ele><time>2026-03-28T07:18:24Z</time></trkpt><trkpt lat="47.96069312674972" lon="7.368504617192819"><ele>201.5</ele><time>2026-03-28T07:18:25Z</time></trkpt><trkpt lat="47.96042997019786" lon="7.368420886973423"><ele>202.0</ele><time>2026-03-28T07:18:26Z</time></trkpt><trkpt lat="47.96016290279653" lon="7.368338724106372"><ele>201.0</ele><time>2026-03-28T07:18:27Z</time></trkpt><trkpt lat="47.95989753310923" lon="7.368252273255023"><ele>200.0</ele><time>2026-03-28T07:18:28Z</time></trkpt><trkpt lat="47.95963412988103" lon="7.3681707716805"><ele>200.0</ele><time>2026-03-28T07:18:29Z</time></trkpt><trkpt lat="47.95936858367698" lon="7.3680878404344785"><ele>200.0</ele><time>2026-03-28T07:18:30Z</time></trkpt><trkpt lat="47.95910471641694" lon="7.368005113997157"><ele>200.5</ele><time>2026-03-28T07:18:31Z</time></trkpt><trkpt lat="47.9588440099691" lon="7.367920784805706"><ele>201.0</ele><time>2026-03-28T07:18:32Z</time></trkpt><trkpt lat="47.95858125697745" lon="7.367841835417833"><ele>201.5</ele><time>2026-03-28T07:18:33Z</time></trkpt><trkpt lat="47.95831997569499" lon="7.367757241535372"><ele>202.0</ele><time>2026-03-28T07:18:34Z</time></trkpt><trkpt lat="47.95805988331515" lon="7.367675099146308"><ele>202.0</ele><time>2026-03-28T07:18:35Z</time></trkpt><trkpt lat="47.95780119130334" lon="7.367591845615422"><ele>202.0</ele><time>2026-03-28T07:18:36Z</time></trkpt><trkpt lat="47.95754212627864" lon="7.3675097493338235"><ele>202.0</ele><time>2026-03-28T07:18:37Z</time></trkpt><trkpt lat="47.957281409075115" lon="7.367427253805273"><ele>202.0</ele><time>2026-03-28T07:18:38Z</time></trkpt><trkpt lat="47.95701988944629" lon="7.3673489425753385"><ele>202.0</ele><time>2026-03-28T07:18:39Z</time></trkpt><trkpt lat="47.956756035558634" lon="7.367269544818432"><ele>202.0</ele><time>2026-03-28T07:18:40Z</time></trkpt><trkpt lat="47.956491620305684" lon="7.367186960546402"><ele>201.5</ele><time>2026-03-28T07:18:41Z</time></trkpt><trkpt lat="47.956226775639195" lon="7.367104430005887"><ele>201.0</ele><time>2026-03-28T07:18:42Z</time></trkpt><trkpt lat="47.95595919019184" lon="7.367020410849996"><ele>201.5</ele><time>2026-03-28T07:18:43Z</time></trkpt><trkpt lat="47.955691611832115" lon="7.366937740038191"><ele>202.0</ele><time>2026-03-28T07:18:44Z</time></trkpt><trkpt lat="47.95542227300761" lon="7.366853627023577"><ele>202.0</ele><time>2026-03-28T07:18:45Z</time></trkpt><trkpt lat="47.95515464605289" lon="7.366768317559725"><ele>202.0</ele><time>2026-03-28T07:18:46Z</time></trkpt><trkpt lat="47.95488342935486" lon="7.366689381200433"><ele>202.0</ele><time>2026-03-28T07:18:47Z</time></trkpt><trkpt lat="47.954612386972244" lon="7.366604587768318"><ele>202.0</ele><time>2026-03-28T07:18:48Z</time></trkpt><trkpt lat="47.95434030759384" lon="7.366519875558591"><ele>202.0</ele><time>2026-03-28T07:18:49Z</time></trkpt><trkpt lat="47.95406797613557" lon="7.36643540532176"><ele>202.0</ele><time>2026-03-28T07:18:50Z</time></trkpt><trkpt lat="47.95379859683975" lon="7.366344371162722"><ele>202.0</ele><time>2026-03-28T07:18:51Z</time></trkpt><trkpt lat="47.95352689170245" lon="7.366260205008383"><ele>202.0</ele><time>2026-03-28T07:18:52Z</time></trkpt><trkpt lat="47.95325715076106" lon="7.366170733517974"><ele>201.5</ele><time>2026-03-28T07:18:53Z</time></trkpt><trkpt lat="47.95298568882836" lon="7.366085383294893"><ele>201.0</ele><time>2026-03-28T07:18:54Z</time></trkpt><trkpt lat="47.95271562969942" lon="7.36599970627659"><ele>201.5</ele><time>2026-03-28T07:18:55Z</time></trkpt><trkpt lat="47.95244529092808" lon="7.36591042620057"><ele>202.0</ele><time>2026-03-28T07:18:56Z</time></trkpt><trkpt lat="47.95217514933566" lon="7.365822454259128"><ele>202.0</ele><time>2026-03-28T07:18:57Z</time></trkpt><trkpt lat="47.951903519429095" lon="7.365732203660251"><ele>202.0</ele><time>2026-03-28T07:18:58Z</time></trkpt><trkpt lat="47.95163089530604" lon="7.365645738508329"><ele>202.0</ele><time>2026-03-28T07:18:59Z</time></trkpt><trkpt lat="47.95135321842984" lon="7.3655543168750395"><ele>202.0</ele><time>2026-03-28T07:19:00Z</time></trkpt><trkpt lat="47.95107353401785" lon="7.365460623721737"><ele>202.0</ele><time>2026-03-28T07:19:01Z</time></trkpt><trkpt lat="47.95079225366219" lon="7.365370354490493"><ele>202.0</ele><time>2026-03-28T07:19:02Z</time></trkpt><trkpt lat="47.950509689855146" lon="7.365282187111843"><ele>202.0</ele><time>2026-03-28T07:19:03Z</time></trkpt><trkpt lat="47.95022736197181" lon="7.365193922245747"><ele>202.0</ele><time>2026-03-28T07:19:04Z</time></trkpt><trkpt lat="47.94994552172971" lon="7.365104952929452"><ele>201.5</ele><time>2026-03-28T07:19:05Z</time></trkpt><trkpt lat="47.94966409114575" lon="7.365016744829431"><ele>201.0</ele><time>2026-03-28T07:19:06Z</time></trkpt><trkpt lat="47.949381963047024" lon="7.364927822471874"><ele>201.5</ele><time>2026-03-28T07:19:07Z</time></trkpt><trkpt lat="47.94910125553868" lon="7.364838656405089"><ele>202.0</ele><time>2026-03-28T07:19:08Z</time></trkpt><trkpt lat="47.94881860966925" lon="7.3647499745882845"><ele>202.0</ele><time>2026-03-28T07:19:09Z</time></trkpt><trkpt lat="47.94853739807376" lon="7.3646634164363505"><ele>202.0</ele><time>2026-03-28T07:19:10Z</time></trkpt><trkpt lat="47.94825602514874" lon="7.364577174102832"><ele>202.0</ele><time>2026-03-28T07:19:11Z</time></trkpt><trkpt lat="47.94797420398716" lon="7.364489250211443"><ele>202.0</ele><time>2026-03-28T07:19:12Z</time></trkpt><trkpt lat="47.947692792359504" lon="7.3644048770148895"><ele>201.5</ele><time>2026-03-28T07:19:13Z</time></trkpt><trkpt lat="47.94741258992116" lon="7.364315588038585"><ele>201.0</ele><time>2026-03-28T07:19:14Z</time></trkpt><trkpt lat="47.9471328852788" lon="7.364226496961619"><ele>201.0</ele><time>2026-03-28T07:19:15Z</time></trkpt><trkpt lat="47.946855220858005" lon="7.364127332541103"><ele>201.0</ele><time>2026-03-28T07:19:16Z</time></trkpt><trkpt lat="47.94658064738891" lon="7.364022215944958"><ele>201.5</ele><time>2026-03-28T07:19:17Z</time></trkpt><trkpt lat="47.9463113441904" lon="7.363919557553971"><ele>202.0</ele><time>2026-03-28T07:19:18Z</time></trkpt><trkpt lat="47.94604357352077" lon="7.36382480858763"><ele>203.0</ele><time>2026-03-28T07:19:19Z</time></trkpt><trkpt lat="47.945777306511324" lon="7.363732873625605"><ele>204.0</ele><time>2026-03-28T07:19:20Z</time></trkpt><trkpt lat="47.94551112169676" lon="7.3636423571908995"><ele>204.0</ele><time>2026-03-28T07:19:21Z</time></trkpt><trkpt lat="47.945245147630374" lon="7.363555518411792"><ele>204.0</ele><time>2026-03-28T07:19:22Z</time></trkpt><trkpt lat="47.94497954583343" lon="7.363474433315058"><ele>203.5</ele><time>2026-03-28T07:19:23Z</time></trkpt><trkpt lat="47.944714017746286" lon="7.363392028964776"><ele>203.0</ele><time>2026-03-28T07:19:24Z</time></trkpt><trkpt lat="47.944450934707085" lon="7.363310373030775"><ele>202.5</ele><time>2026-03-28T07:19:25Z</time></trkpt><trkpt lat="47.94418811929057" lon="7.363227078957197"><ele>202.0</ele><time>2026-03-28T07:19:26Z</time></trkpt><trkpt lat="47.94392654968425" lon="7.363146399067556"><ele>202.0</ele><time>2026-03-28T07:19:27Z</time></trkpt><trkpt lat="47.94366519798398" lon="7.363068520864557"><ele>202.0</ele><time>2026-03-28T07:19:28Z</time></trkpt><trkpt lat="47.94340554112525" lon="7.36298706044931"><ele>202.5</ele><time>2026-03-28T07:19:29Z</time></trkpt><trkpt lat="47.943144275740295" lon="7.362908870861929"><ele>203.0</ele><time>2026-03-28T07:19:30Z</time></trkpt><trkpt lat="47.94288448734642" lon="7.362832582359833"><ele>203.0</ele><time>2026-03-28T07:19:31Z</time></trkpt><trkpt lat="47.94262114007605" lon="7.362757778846777"><ele>203.0</ele><time>2026-03-28T07:19:32Z</time></trkpt><trkpt lat="47.942357708433406" lon="7.362678477022254"><ele>203.0</ele><time>2026-03-28T07:19:33Z</time></trkpt><trkpt lat="47.94209415596535" lon="7.362599186333129"><ele>203.0</ele><time>2026-03-28T07:19:34Z</time></trkpt><trkpt lat="47.94183005659494" lon="7.362518692053273"><ele>203.5</ele><time>2026-03-28T07:19:35Z</time></trkpt><trkpt lat="47.941567770374164" lon="7.362438703415455"><ele>204.0</ele><time>2026-03-28T07:19:36Z</time></trkpt><trkpt lat="47.94130368191726" lon="7.362357624848836"><ele>204.0</ele><time>2026-03-28T07:19:37Z</time></trkpt><trkpt lat="47.94103931313565" lon="7.362276076824501"><ele>204.0</ele><time>2026-03-28T07:19:38Z</time></trkpt><trkpt lat="47.94077609131317" lon="7.362191817225171"><ele>203.5</ele><time>2026-03-28T07:19:39Z</time></trkpt><trkpt lat="47.940512381451136" lon="7.36210842865638"><ele>203.0</ele><time>2026-03-28T07:19:40Z</time></trkpt><trkpt lat="47.94024755050697" lon="7.362023489660482"><ele>202.5</ele><time>2026-03-28T07:19:41Z</time></trkpt><trkpt lat="47.939981847050454" lon="7.361940259068333"><ele>202.0</ele><time>2026-03-28T07:19:42Z</time></trkpt><trkpt lat="47.93971801003902" lon="7.361858232770495"><ele>202.0</ele><time>2026-03-28T07:19:43Z</time></trkpt><trkpt lat="47.9394547655181" lon="7.361776949284897"><ele>202.0</ele><time>2026-03-28T07:19:44Z</time></trkpt><trkpt lat="47.939190102973974" lon="7.361695200355312"><ele>203.0</ele><time>2026-03-28T07:19:45Z</time></trkpt><trkpt lat="47.93892447772631" lon="7.361610007560692"><ele>204.0</ele><time>2026-03-28T07:19:46Z</time></trkpt><trkpt lat="47.9386585295337" lon="7.361526368000266"><ele>204.0</ele><time>2026-03-28T07:19:47Z</time></trkpt><trkpt lat="47.93839208599841" lon="7.361439695692523"><ele>204.0</ele><time>2026-03-28T07:19:48Z</time></trkpt><trkpt lat="47.93812640004271" lon="7.361353679817882"><ele>204.0</ele><time>2026-03-28T07:19:49Z</time></trkpt><trkpt lat="47.93786141600024" lon="7.361268951646581"><ele>204.0</ele><time>2026-03-28T07:19:50Z</time></trkpt><trkpt lat="47.93759445968339" lon="7.361187840605596"><ele>204.5</ele><time>2026-03-28T07:19:51Z</time></trkpt><trkpt lat="47.93732635878312" lon="7.361107306133754"><ele>205.0</ele><time>2026-03-28T07:19:52Z</time></trkpt><trkpt lat="47.93705902554679" lon="7.361026602524372"><ele>205.0</ele><time>2026-03-28T07:19:53Z</time></trkpt><trkpt lat="47.93678990276367" lon="7.360947066441034"><ele>205.0</ele><time>2026-03-28T07:19:54Z</time></trkpt><trkpt lat="47.936520896042566" lon="7.3608681544486"><ele>204.0</ele><time>2026-03-28T07:19:55Z</time></trkpt><trkpt lat="47.93625355507232" lon="7.360787666550366"><ele>203.0</ele><time>2026-03-28T07:19:56Z</time></trkpt><trkpt lat="47.93598589740963" lon="7.3607083838690635"><ele>203.5</ele><time>2026-03-28T07:19:57Z</time></trkpt><trkpt lat="47.93571823341061" lon="7.360625708065795"><ele>204.0</ele><time>2026-03-28T07:19:58Z</time></trkpt><trkpt lat="47.935454824138446" lon="7.360546896676126"><ele>204.5</ele><time>2026-03-28T07:19:59Z</time></trkpt><trkpt lat="47.935188413562415" lon="7.360468750878022"><ele>205.0</ele><time>2026-03-28T07:20:00Z</time></trkpt><trkpt lat="47.934921240153635" lon="7.3603927036724235"><ele>205.0</ele><time>2026-03-28T07:20:01Z</time></trkpt><trkpt lat="47.93465527126465" lon="7.36032248879047"><ele>205.0</ele><time>2026-03-28T07:20:02Z</time></trkpt><trkpt lat="47.93439089295997" lon="7.360255244712997"><ele>205.0</ele><time>2026-03-28T07:20:03Z</time></trkpt><trkpt lat="47.93412398501799" lon="7.360189077693493"><ele>205.0</ele><time>2026-03-28T07:20:04Z</time></trkpt><trkpt lat="47.93385833867632" lon="7.360125628986438"><ele>205.0</ele><time>2026-03-28T07:20:05Z</time></trkpt><trkpt lat="47.93359205785607" lon="7.360066712381621"><ele>205.0</ele><time>2026-03-28T07:20:06Z</time></trkpt><trkpt lat="47.93332592134773" lon="7.360011714017681"><ele>205.0</ele><time>2026-03-28T07:20:07Z</time></trkpt><trkpt lat="47.93305671932276" lon="7.359954997768506"><ele>205.0</ele><time>2026-03-28T07:20:08Z</time></trkpt><trkpt lat="47.932789673890795" lon="7.359904178718142"><ele>204.5</ele><time>2026-03-28T07:20:09Z</time></trkpt><trkpt lat="47.93252188077022" lon="7.359856745056654"><ele>204.0</ele><time>2026-03-28T07:20:10Z</time></trkpt><trkpt lat="47.9322552749406" lon="7.359813173081321"><ele>204.0</ele><time>2026-03-28T07:20:11Z</time></trkpt><trkpt lat="47.93198781355137" lon="7.359773468878167"><ele>204.0</ele><time>2026-03-28T07:20:12Z</time></trkpt><trkpt lat="47.93172063416246" lon="7.359736962381012"><ele>204.0</ele><time>2026-03-28T07:20:13Z</time></trkpt><trkpt lat="47.93145339787812" lon="7.359702393879932"><ele>204.0</ele><time>2026-03-28T07:20:14Z</time></trkpt><trkpt lat="47.931186687349026" lon="7.359670916043584"><ele>204.0</ele><time>2026-03-28T07:20:15Z</time></trkpt><trkpt lat="47.93091988910515" lon="7.359645848847389"><ele>204.0</ele><time>2026-03-28T07:20:16Z</time></trkpt><trkpt lat="47.93065193612821" lon="7.359623932719657"><ele>204.5</ele><time>2026-03-28T07:20:17Z</time></trkpt><trkpt lat="47.930384129777195" lon="7.359603720553194"><ele>205.0</ele><time>2026-03-28T07:20:18Z</time></trkpt><trkpt lat="47.93011484155379" lon="7.359583405898882"><ele>206.5</ele><time>2026-03-28T07:20:19Z</time></trkpt><trkpt lat="47.92984635627785" lon="7.3595658807977005"><ele>208.0</ele><time>2026-03-28T07:20:20Z</time></trkpt><trkpt lat="47.929579489968795" lon="7.359550009411963"><ele>208.0</ele><time>2026-03-28T07:20:21Z</time></trkpt><trkpt lat="47.929311073648776" lon="7.359535456934951"><ele>208.0</ele><time>2026-03-28T07:20:22Z</time></trkpt><trkpt lat="47.92904449370853" lon="7.359526209715447"><ele>206.0</ele><time>2026-03-28T07:20:23Z</time></trkpt><trkpt lat="47.92877759651808" lon="7.35951923572779"><ele>204.0</ele><time>2026-03-28T07:20:24Z</time></trkpt><trkpt lat="47.92851047584587" lon="7.359518435583027"><ele>203.5</ele><time>2026-03-28T07:20:25Z</time></trkpt><trkpt lat="47.92824322284966" lon="7.359518961891289"><ele>203.0</ele><time>2026-03-28T07:20:26Z</time></trkpt><trkpt lat="47.92797761307272" lon="7.359519186379993"><ele>203.0</ele><time>2026-03-28T07:20:27Z</time></trkpt><trkpt lat="47.92771078559886" lon="7.359523353110308"><ele>203.0</ele><time>2026-03-28T07:20:28Z</time></trkpt><trkpt lat="47.92744392410746" lon="7.35952906215874"><ele>203.5</ele><time>2026-03-28T07:20:29Z</time></trkpt><trkpt lat="47.927178642156484" lon="7.3595434493271865"><ele>204.0</ele><time>2026-03-28T07:20:30Z</time></trkpt><trkpt lat="47.92690946802594" lon="7.3595642957706495"><ele>204.0</ele><time>2026-03-28T07:20:31Z</time></trkpt><trkpt lat="47.926638962330024" lon="7.359586888542811"><ele>204.0</ele><time>2026-03-28T07:20:32Z</time></trkpt><trkpt lat="47.92636883494047" lon="7.359610237532828"><ele>204.0</ele><time>2026-03-28T07:20:33Z</time></trkpt><trkpt lat="47.92610101418961" lon="7.359637847067152"><ele>204.0</ele><time>2026-03-28T07:20:34Z</time></trkpt><trkpt lat="47.92583371286609" lon="7.359663233530109"><ele>204.0</ele><time>2026-03-28T07:20:35Z</time></trkpt><trkpt lat="47.92556668886299" lon="7.359692670318017"><ele>204.0</ele><time>2026-03-28T07:20:36Z</time></trkpt><trkpt lat="47.925299453697335" lon="7.359725324832826"><ele>204.5</ele><time>2026-03-28T07:20:37Z</time></trkpt><trkpt lat="47.92503239980126" lon="7.359760457479927"><ele>205.0</ele><time>2026-03-28T07:20:38Z</time></trkpt><trkpt lat="47.92476315330966" lon="7.359798236161918"><ele>205.0</ele><time>2026-03-28T07:20:39Z</time></trkpt><trkpt lat="47.92449722447095" lon="7.359834961029057"><ele>205.0</ele><time>2026-03-28T07:20:40Z</time></trkpt><trkpt lat="47.92423115768759" lon="7.359879332722603"><ele>205.5</ele><time>2026-03-28T07:20:41Z</time></trkpt><trkpt lat="47.92396630671859" lon="7.3599297472914404"><ele>206.0</ele><time>2026-03-28T07:20:42Z</time></trkpt><trkpt lat="47.92369307238294" lon="7.359980835340429"><ele>206.0</ele><time>2026-03-28T07:20:43Z</time></trkpt><trkpt lat="47.92342812177304" lon="7.360038296555753"><ele>206.0</ele><time>2026-03-28T07:20:44Z</time></trkpt><trkpt lat="47.923161725266255" lon="7.360099824491325"><ele>206.0</ele><time>2026-03-28T07:20:45Z</time></trkpt><trkpt lat="47.922895492979656" lon="7.360162793097067"><ele>206.0</ele><time>2026-03-28T07:20:46Z</time></trkpt><trkpt lat="47.92263118492281" lon="7.360227026726936"><ele>205.5</ele><time>2026-03-28T07:20:47Z</time></trkpt><trkpt lat="47.92236738836972" lon="7.360295378115678"><ele>205.0</ele><time>2026-03-28T07:20:48Z</time></trkpt><trkpt lat="47.92210188066917" lon="7.360362713078146"><ele>205.0</ele><time>2026-03-28T07:20:49Z</time></trkpt><trkpt lat="47.92183796493138" lon="7.36043468490243"><ele>205.0</ele><time>2026-03-28T07:20:50Z</time></trkpt><trkpt lat="47.92157619964254" lon="7.360506446344719"><ele>204.5</ele><time>2026-03-28T07:20:51Z</time></trkpt><trkpt lat="47.92131658929081" lon="7.360584883728774"><ele>204.0</ele><time>2026-03-28T07:20:52Z</time></trkpt><trkpt lat="47.92105722765395" lon="7.36066818096187"><ele>205.0</ele><time>2026-03-28T07:20:53Z</time></trkpt><trkpt lat="47.92079694317392" lon="7.360753614034061"><ele>206.0</ele><time>2026-03-28T07:20:54Z</time></trkpt><trkpt lat="47.920539712437204" lon="7.360835897789679"><ele>206.0</ele><time>2026-03-28T07:20:55Z</time></trkpt><trkpt lat="47.9202862862037" lon="7.360918508496083"><ele>206.0</ele><time>2026-03-28T07:20:56Z</time></trkpt><trkpt lat="47.92003255654961" lon="7.361005896197473"><ele>205.0</ele><time>2026-03-28T07:20:57Z</time></trkpt><trkpt lat="47.91977746249347" lon="7.361090327494994"><ele>204.0</ele><time>2026-03-28T07:20:58Z</time></trkpt><trkpt lat="47.91952416147509" lon="7.36117457425606"><ele>204.0</ele><time>2026-03-28T07:20:59Z</time></trkpt><trkpt lat="47.91926892899756" lon="7.361263890385226"><ele>204.0</ele><time>2026-03-28T07:21:00Z</time></trkpt><trkpt lat="47.91901182909827" lon="7.361361317562966"><ele>204.5</ele><time>2026-03-28T07:21:01Z</time></trkpt><trkpt lat="47.918754668086535" lon="7.361462643296743"><ele>205.0</ele><time>2026-03-28T07:21:02Z</time></trkpt><trkpt lat="47.91849664521912" lon="7.361561642600965"><ele>205.5</ele><time>2026-03-28T07:21:03Z</time></trkpt><trkpt lat="47.91823972618934" lon="7.36166549013718"><ele>206.0</ele><time>2026-03-28T07:21:04Z</time></trkpt><trkpt lat="47.91798189524628" lon="7.361768365284067"><ele>206.0</ele><time>2026-03-28T07:21:05Z</time></trkpt><trkpt lat="47.917727531697835" lon="7.361863979716487"><ele>206.0</ele><time>2026-03-28T07:21:06Z</time></trkpt><trkpt lat="47.91747512381767" lon="7.3619514558740695"><ele>205.5</ele><time>2026-03-28T07:21:07Z</time></trkpt><trkpt lat="47.91722429438821" lon="7.362042970622821"><ele>205.0</ele><time>2026-03-28T07:21:08Z</time></trkpt><trkpt lat="47.91697126826989" lon="7.36212742113802"><ele>205.5</ele><time>2026-03-28T07:21:09Z</time></trkpt><trkpt lat="47.91672088221715" lon="7.362222965192211"><ele>206.0</ele><time>2026-03-28T07:21:10Z</time></trkpt><trkpt lat="47.916466868332854" lon="7.362314786720699"><ele>206.0</ele><time>2026-03-28T07:21:11Z</time></trkpt><trkpt lat="47.91620956618807" lon="7.362406051034049"><ele>206.0</ele><time>2026-03-28T07:21:12Z</time></trkpt><trkpt lat="47.915951743380184" lon="7.3625031141382955"><ele>206.5</ele><time>2026-03-28T07:21:13Z</time></trkpt><trkpt lat="47.91569044732969" lon="7.362595331525189"><ele>207.0</ele><time>2026-03-28T07:21:14Z</time></trkpt><trkpt lat="47.915430683102166" lon="7.362691801581382"><ele>207.0</ele><time>2026-03-28T07:21:15Z</time></trkpt><trkpt lat="47.915167905764854" lon="7.362791454825326"><ele>207.0</ele><time>2026-03-28T07:21:16Z</time></trkpt><trkpt lat="47.91490777309015" lon="7.362891301231986"><ele>206.0</ele><time>2026-03-28T07:21:17Z</time></trkpt><trkpt lat="47.9146436844111" lon="7.362995696377831"><ele>205.0</ele><time>2026-03-28T07:21:18Z</time></trkpt><trkpt lat="47.91438031408979" lon="7.363104268591532"><ele>205.0</ele><time>2026-03-28T07:21:19Z</time></trkpt><trkpt lat="47.914116000411376" lon="7.363218622764283"><ele>205.0</ele><time>2026-03-28T07:21:20Z</time></trkpt><trkpt lat="47.91384859486954" lon="7.363333888767078"><ele>205.0</ele><time>2026-03-28T07:21:21Z</time></trkpt><trkpt lat="47.913583793086346" lon="7.36344727707838"><ele>205.0</ele><time>2026-03-28T07:21:22Z</time></trkpt><trkpt lat="47.913317622746796" lon="7.363562184286631"><ele>205.5</ele><time>2026-03-28T07:21:23Z</time></trkpt><trkpt lat="47.91305163144571" lon="7.363680985918144"><ele>206.0</ele><time>2026-03-28T07:21:24Z</time></trkpt><trkpt lat="47.91278574224857" lon="7.363795456215853"><ele>206.0</ele><time>2026-03-28T07:21:25Z</time></trkpt><trkpt lat="47.912517960227085" lon="7.363912630726692"><ele>206.0</ele><time>2026-03-28T07:21:26Z</time></trkpt><trkpt lat="47.912248401406366" lon="7.364028695733066"><ele>206.0</ele><time>2026-03-28T07:21:27Z</time></trkpt><trkpt lat="47.91198302681136" lon="7.36414536706405"><ele>206.0</ele><time>2026-03-28T07:21:28Z</time></trkpt><trkpt lat="47.911713356370356" lon="7.364260525837785"><ele>206.0</ele><time>2026-03-28T07:21:29Z</time></trkpt><trkpt lat="47.91144551753611" lon="7.364383740830238"><ele>206.0</ele><time>2026-03-28T07:21:30Z</time></trkpt><trkpt lat="47.911178254107675" lon="7.364510280770262"><ele>206.0</ele><time>2026-03-28T07:21:31Z</time></trkpt><trkpt lat="47.91091353663771" lon="7.364638397025463"><ele>206.0</ele><time>2026-03-28T07:21:32Z</time></trkpt><trkpt lat="47.91064670075702" lon="7.3647668730657125"><ele>206.5</ele><time>2026-03-28T07:21:33Z</time></trkpt><trkpt lat="47.91037942407158" lon="7.364896064249329"><ele>207.0</ele><time>2026-03-28T07:21:34Z</time></trkpt><trkpt lat="47.91011030511277" lon="7.365031420599065"><ele>207.5</ele><time>2026-03-28T07:21:35Z</time></trkpt><trkpt lat="47.90984323141253" lon="7.3651651420850595"><ele>208.0</ele><time>2026-03-28T07:21:36Z</time></trkpt><trkpt lat="47.90957387256274" lon="7.365299076940357"><ele>208.0</ele><time>2026-03-28T07:21:37Z</time></trkpt><trkpt lat="47.90930409468751" lon="7.365429034569823"><ele>208.0</ele><time>2026-03-28T07:21:38Z</time></trkpt><trkpt lat="47.90903443385242" lon="7.365560399342301"><ele>208.5</ele><time>2026-03-28T07:21:39Z</time></trkpt><trkpt lat="47.90876615533306" lon="7.365692845929704"><ele>209.0</ele><time>2026-03-28T07:21:40Z</time></trkpt><trkpt lat="47.90849985151615" lon="7.365826016141044"><ele>207.5</ele><time>2026-03-28T07:21:41Z</time></trkpt><trkpt lat="47.90823313352269" lon="7.365959707210785"><ele>206.0</ele><time>2026-03-28T07:21:42Z</time></trkpt><trkpt lat="47.90796843600852" lon="7.366098936742998"><ele>206.0</ele><time>2026-03-28T07:21:43Z</time></trkpt><trkpt lat="47.907702491493176" lon="7.366240329862018"><ele>206.0</ele><time>2026-03-28T07:21:44Z</time></trkpt><trkpt lat="47.9074378514063" lon="7.366380865753795"><ele>206.5</ele><time>2026-03-28T07:21:45Z</time></trkpt><trkpt lat="47.907173615829116" lon="7.366524904014907"><ele>207.0</ele><time>2026-03-28T07:21:46Z</time></trkpt><trkpt lat="47.906911253002626" lon="7.366672853944576"><ele>207.0</ele><time>2026-03-28T07:21:47Z</time></trkpt><trkpt lat="47.906647727416335" lon="7.3668188214601"><ele>207.0</ele><time>2026-03-28T07:21:48Z</time></trkpt><trkpt lat="47.90638363413556" lon="7.366965799391113"><ele>207.0</ele><time>2026-03-28T07:21:49Z</time></trkpt><trkpt lat="47.90611776576513" lon="7.367108878847748"><ele>207.0</ele><time>2026-03-28T07:21:50Z</time></trkpt><trkpt lat="47.90585335679681" lon="7.367255726109282"><ele>206.0</ele><time>2026-03-28T07:21:51Z</time></trkpt><trkpt lat="47.90559093367794" lon="7.367401140540184"><ele>205.0</ele><time>2026-03-28T07:21:52Z</time></trkpt><trkpt lat="47.90532865339099" lon="7.36754939748589"><ele>206.0</ele><time>2026-03-28T07:21:53Z</time></trkpt><trkpt lat="47.905062178333615" lon="7.3676945813107"><ele>207.0</ele><time>2026-03-28T07:21:54Z</time></trkpt><trkpt lat="47.90479962849576" lon="7.367835222091449"><ele>207.0</ele><time>2026-03-28T07:21:55Z</time></trkpt><trkpt lat="47.904536838822125" lon="7.367968589085657"><ele>207.0</ele><time>2026-03-28T07:21:56Z</time></trkpt><trkpt lat="47.9042749617739" lon="7.368104746368994"><ele>207.0</ele><time>2026-03-28T07:21:57Z</time></trkpt><trkpt lat="47.90401291571115" lon="7.368246292870363"><ele>207.0</ele><time>2026-03-28T07:21:58Z</time></trkpt><trkpt lat="47.90375262578919" lon="7.3683882752869"><ele>207.0</ele><time>2026-03-28T07:21:59Z</time></trkpt><trkpt lat="47.9034965595905" lon="7.368535259169392"><ele>207.0</ele><time>2026-03-28T07:22:00Z</time></trkpt><trkpt lat="47.90324248746191" lon="7.368682071760224"><ele>207.5</ele><time>2026-03-28T07:22:01Z</time></trkpt><trkpt lat="47.90299270284048" lon="7.368831958170844"><ele>208.0</ele><time>2026-03-28T07:22:02Z</time></trkpt><trkpt lat="47.90274057926838" lon="7.368979479887717"><ele>209.0</ele><time>2026-03-28T07:22:03Z</time></trkpt><trkpt lat="47.902488783042465" lon="7.369132077855129"><ele>210.0</ele><time>2026-03-28T07:22:04Z</time></trkpt><trkpt lat="47.90223631349344" lon="7.369285387477074"><ele>210.0</ele><time>2026-03-28T07:22:05Z</time></trkpt><trkpt lat="47.90198806733656" lon="7.36943417734586"><ele>210.0</ele><time>2026-03-28T07:22:06Z</time></trkpt><trkpt lat="47.90173589551136" lon="7.369586318786875"><ele>209.5</ele><time>2026-03-28T07:22:07Z</time></trkpt><trkpt lat="47.901487362368364" lon="7.369731948745766"><ele>209.0</ele><time>2026-03-28T07:22:08Z</time></trkpt><trkpt lat="47.901238221525155" lon="7.369879741023399"><ele>209.0</ele><time>2026-03-28T07:22:09Z</time></trkpt><trkpt lat="47.90099041753079" lon="7.370025848342572"><ele>209.0</ele><time>2026-03-28T07:22:10Z</time></trkpt><trkpt lat="47.900740596392914" lon="7.370175660941053"><ele>209.0</ele><time>2026-03-28T07:22:11Z</time></trkpt><trkpt lat="47.9004917997771" lon="7.370331341647732"><ele>209.0</ele><time>2026-03-28T07:22:12Z</time></trkpt><trkpt lat="47.90024524807729" lon="7.370486505565369"><ele>209.5</ele><time>2026-03-28T07:22:13Z</time></trkpt><trkpt lat="47.899996415936464" lon="7.370644868048146"><ele>210.0</ele><time>2026-03-28T07:22:14Z</time></trkpt><trkpt lat="47.89975015246705" lon="7.370801584365329"><ele>210.0</ele><time>2026-03-28T07:22:15Z</time></trkpt><trkpt lat="47.899504429332694" lon="7.370962356405553"><ele>210.0</ele><time>2026-03-28T07:22:16Z</time></trkpt><trkpt lat="47.899257395451436" lon="7.371117922435726"><ele>209.5</ele><time>2026-03-28T07:22:17Z</time></trkpt><trkpt lat="47.89901032356294" lon="7.3712742266718605"><ele>209.0</ele><time>2026-03-28T07:22:18Z</time></trkpt><trkpt lat="47.898763894626086" lon="7.371428981290646"><ele>209.0</ele><time>2026-03-28T07:22:19Z</time></trkpt><trkpt lat="47.89851793732398" lon="7.371585640904028"><ele>209.0</ele><time>2026-03-28T07:22:20Z</time></trkpt><trkpt lat="47.89827047814401" lon="7.3717400069152"><ele>209.0</ele><time>2026-03-28T07:22:21Z</time></trkpt><trkpt lat="47.898025804151" lon="7.371894148393691"><ele>209.0</ele><time>2026-03-28T07:22:22Z</time></trkpt><trkpt lat="47.89777920118438" lon="7.372050310126095"><ele>209.5</ele><time>2026-03-28T07:22:23Z</time></trkpt><trkpt lat="47.897530705871084" lon="7.372202583927322"><ele>210.0</ele><time>2026-03-28T07:22:24Z</time></trkpt><trkpt lat="47.89728475388789" lon="7.372355168463785"><ele>210.0</ele><time>2026-03-28T07:22:25Z</time></trkpt><trkpt lat="47.897038443598404" lon="7.372505606130393"><ele>210.0</ele><time>2026-03-28T07:22:26Z</time></trkpt><trkpt lat="47.89678881857574" lon="7.372659582194065"><ele>210.0</ele><time>2026-03-28T07:22:27Z</time></trkpt><trkpt lat="47.89654290584435" lon="7.372814058728329"><ele>210.0</ele><time>2026-03-28T07:22:28Z</time></trkpt><trkpt lat="47.89630015449991" lon="7.372969579207639"><ele>210.0</ele><time>2026-03-28T07:22:29Z</time></trkpt><trkpt lat="47.89605617376301" lon="7.37312725500828"><ele>210.0</ele><time>2026-03-28T07:22:30Z</time></trkpt><trkpt lat="47.89581392140286" lon="7.373282992832835"><ele>210.5</ele><time>2026-03-28T07:22:31Z</time></trkpt><trkpt lat="47.89556925102007" lon="7.3734355395769535"><ele>211.0</ele><time>2026-03-28T07:22:32Z</time></trkpt><trkpt lat="47.895321238700554" lon="7.373589119158039"><ele>210.0</ele><time>2026-03-28T07:22:33Z</time></trkpt><trkpt lat="47.89507487312183" lon="7.373745734283803"><ele>209.0</ele><time>2026-03-28T07:22:34Z</time></trkpt><trkpt lat="47.89482797845985" lon="7.373900273639008"><ele>209.0</ele><time>2026-03-28T07:22:35Z</time></trkpt><trkpt lat="47.894581492619515" lon="7.374056975623753"><ele>209.0</ele><time>2026-03-28T07:22:36Z</time></trkpt><trkpt lat="47.89433798043575" lon="7.374213949967391"><ele>209.0</ele><time>2026-03-28T07:22:37Z</time></trkpt><trkpt lat="47.894091744289895" lon="7.374371011573724"><ele>209.0</ele><time>2026-03-28T07:22:38Z</time></trkpt><trkpt lat="47.89384413505618" lon="7.37452519991817"><ele>209.0</ele><time>2026-03-28T07:22:39Z</time></trkpt><trkpt lat="47.89359730971097" lon="7.374681795874655"><ele>209.0</ele><time>2026-03-28T07:22:40Z</time></trkpt><trkpt lat="47.89334803360449" lon="7.374836038359469"><ele>209.5</ele><time>2026-03-28T07:22:41Z</time></trkpt><trkpt lat="47.893100905273194" lon="7.374990567028813"><ele>210.0</ele><time>2026-03-28T07:22:42Z</time></trkpt><trkpt lat="47.892854258448736" lon="7.3751449330103"><ele>210.0</ele><time>2026-03-28T07:22:43Z</time></trkpt><trkpt lat="47.89260629838582" lon="7.375299089840463"><ele>210.0</ele><time>2026-03-28T07:22:44Z</time></trkpt><trkpt lat="47.89235631445677" lon="7.375453251139188"><ele>209.5</ele><time>2026-03-28T07:22:45Z</time></trkpt><trkpt lat="47.89210709982994" lon="7.375606235942365"><ele>209.0</ele><time>2026-03-28T07:22:46Z</time></trkpt><trkpt lat="47.89186000804372" lon="7.375763691118412"><ele>209.0</ele><time>2026-03-28T07:22:47Z</time></trkpt><trkpt lat="47.89161175932973" lon="7.375917722215876"><ele>209.0</ele><time>2026-03-28T07:22:48Z</time></trkpt><trkpt lat="47.891363253752964" lon="7.376071379332317"><ele>209.0</ele><time>2026-03-28T07:22:49Z</time></trkpt><trkpt lat="47.89111140818446" lon="7.376227764172343"><ele>209.0</ele><time>2026-03-28T07:22:50Z</time></trkpt><trkpt lat="47.890862874495234" lon="7.376382874170118"><ele>210.0</ele><time>2026-03-28T07:22:51Z</time></trkpt><trkpt lat="47.89061572153615" lon="7.37653635373084"><ele>211.0</ele><time>2026-03-28T07:22:52Z</time></trkpt><trkpt lat="47.89036677236292" lon="7.376691202326214"><ele>211.0</ele><time>2026-03-28T07:22:53Z</time></trkpt><trkpt lat="47.8901175797313" lon="7.376842233451148"><ele>211.0</ele><time>2026-03-28T07:22:54Z</time></trkpt><trkpt lat="47.889867071512995" lon="7.376996639245284"><ele>211.0</ele><time>2026-03-28T07:22:55Z</time></trkpt><trkpt lat="47.88961538459857" lon="7.377147432838929"><ele>211.0</ele><time>2026-03-28T07:22:56Z</time></trkpt><trkpt lat="47.889365653581564" lon="7.37730222497057"><ele>211.0</ele><time>2026-03-28T07:22:57Z</time></trkpt><trkpt lat="47.88911332741071" lon="7.377452318017669"><ele>211.0</ele><time>2026-03-28T07:22:58Z</time></trkpt><trkpt lat="47.88886289406983" lon="7.377604478660204"><ele>211.0</ele><time>2026-03-28T07:22:59Z</time></trkpt><trkpt lat="47.88861572911072" lon="7.3777561734410995"><ele>211.0</ele><time>2026-03-28T07:23:00Z</time></trkpt><trkpt lat="47.88836756333754" lon="7.37790660241801"><ele>211.0</ele><time>2026-03-28T07:23:01Z</time></trkpt><trkpt lat="47.88811807274984" lon="7.378055546014565"><ele>211.0</ele><time>2026-03-28T07:23:02Z</time></trkpt><trkpt lat="47.88786830076781" lon="7.37820658808587"><ele>211.0</ele><time>2026-03-28T07:23:03Z</time></trkpt><trkpt lat="47.887623207891956" lon="7.378356698470645"><ele>211.0</ele><time>2026-03-28T07:23:04Z</time></trkpt><trkpt lat="47.88737458900523" lon="7.378505898918074"><ele>210.5</ele><time>2026-03-28T07:23:05Z</time></trkpt><trkpt lat="47.887126262210316" lon="7.3786538729292275"><ele>210.0</ele><time>2026-03-28T07:23:06Z</time></trkpt><trkpt lat="47.88687880799885" lon="7.378802372775205"><ele>210.0</ele><time>2026-03-28T07:23:07Z</time></trkpt><trkpt lat="47.88663125889155" lon="7.378956732600858"><ele>210.0</ele><time>2026-03-28T07:23:08Z</time></trkpt><trkpt lat="47.886383957175894" lon="7.3791092307863755"><ele>210.0</ele><time>2026-03-28T07:23:09Z</time></trkpt><trkpt lat="47.88613347524068" lon="7.379258884152243"><ele>210.0</ele><time>2026-03-28T07:23:10Z</time></trkpt><trkpt lat="47.88588482673345" lon="7.379412468855531"><ele>210.0</ele><time>2026-03-28T07:23:11Z</time></trkpt><trkpt lat="47.885634429363996" lon="7.379566071157338"><ele>210.0</ele><time>2026-03-28T07:23:12Z</time></trkpt><trkpt lat="47.88538638689189" lon="7.3797228373388855"><ele>209.5</ele><time>2026-03-28T07:23:13Z</time></trkpt><trkpt lat="47.88513748863776" lon="7.379879875448154"><ele>209.0</ele><time>2026-03-28T07:23:14Z</time></trkpt><trkpt lat="47.884887355972964" lon="7.380033519189719"><ele>210.0</ele><time>2026-03-28T07:23:15Z</time></trkpt><trkpt lat="47.88464005939581" lon="7.380188992109354"><ele>211.0</ele><time>2026-03-28T07:23:16Z</time></trkpt><trkpt lat="47.88438934781446" lon="7.380337271799003"><ele>211.0</ele><time>2026-03-28T07:23:17Z</time></trkpt><trkpt lat="47.88414002537451" lon="7.380488714705646"><ele>211.0</ele><time>2026-03-28T07:23:18Z</time></trkpt><trkpt lat="47.883892043441776" lon="7.3806396664104605"><ele>210.5</ele><time>2026-03-28T07:23:19Z</time></trkpt><trkpt lat="47.883644594883584" lon="7.380792172946866"><ele>210.0</ele><time>2026-03-28T07:23:20Z</time></trkpt><trkpt lat="47.8833960556251" lon="7.380945171959666"><ele>211.0</ele><time>2026-03-28T07:23:21Z</time></trkpt><trkpt lat="47.88314622630488" lon="7.381096371912906"><ele>212.0</ele><time>2026-03-28T07:23:22Z</time></trkpt><trkpt lat="47.88289777852146" lon="7.381248800707773"><ele>212.5</ele><time>2026-03-28T07:23:23Z</time></trkpt><trkpt lat="47.88264867095419" lon="7.381399203879004"><ele>213.0</ele><time>2026-03-28T07:23:24Z</time></trkpt><trkpt lat="47.88240332834699" lon="7.38155003357465"><ele>212.0</ele><time>2026-03-28T07:23:25Z</time></trkpt><trkpt lat="47.88215576766478" lon="7.381696477391293"><ele>211.0</ele><time>2026-03-28T07:23:26Z</time></trkpt><trkpt lat="47.881904769122904" lon="7.381849100741939"><ele>210.5</ele><time>2026-03-28T07:23:27Z</time></trkpt><trkpt lat="47.8816568439763" lon="7.382001822193968"><ele>210.0</ele><time>2026-03-28T07:23:28Z</time></trkpt><trkpt lat="47.88141010323019" lon="7.382155242914125"><ele>210.0</ele><time>2026-03-28T07:23:29Z</time></trkpt><trkpt lat="47.88116181140615" lon="7.3823067925089205"><ele>210.0</ele><time>2026-03-28T07:23:30Z</time></trkpt><trkpt lat="47.88091532224469" lon="7.38245779881491"><ele>210.0</ele><time>2026-03-28T07:23:31Z</time></trkpt><trkpt lat="47.8806679586494" lon="7.382608305414332"><ele>210.0</ele><time>2026-03-28T07:23:32Z</time></trkpt><trkpt lat="47.880417079312004" lon="7.382757147550596"><ele>210.0</ele><time>2026-03-28T07:23:33Z</time></trkpt><trkpt lat="47.880170544216504" lon="7.382909406323684"><ele>210.0</ele><time>2026-03-28T07:23:34Z</time></trkpt><trkpt lat="47.87992586660177" lon="7.3830620019848165"><ele>210.5</ele><time>2026-03-28T07:23:35Z</time></trkpt><trkpt lat="47.879680341403024" lon="7.383213366344894"><ele>211.0</ele><time>2026-03-28T07:23:36Z</time></trkpt><trkpt lat="47.87943338393097" lon="7.383363462043442"><ele>211.0</ele><time>2026-03-28T07:23:37Z</time></trkpt><trkpt lat="47.879184792144635" lon="7.38351318614264"><ele>211.0</ele><time>2026-03-28T07:23:38Z</time></trkpt><trkpt lat="47.87893905692466" lon="7.38366289284963"><ele>211.0</ele><time>2026-03-28T07:23:39Z</time></trkpt><trkpt lat="47.8786912884638" lon="7.383813999332766"><ele>211.0</ele><time>2026-03-28T07:23:40Z</time></trkpt><trkpt lat="47.8784443653265" lon="7.383963928426563"><ele>212.0</ele><time>2026-03-28T07:23:41Z</time></trkpt><trkpt lat="47.87819816520685" lon="7.384114793521221"><ele>213.0</ele><time>2026-03-28T07:23:42Z</time></trkpt><trkpt lat="47.877952310131334" lon="7.384262905494832"><ele>213.0</ele><time>2026-03-28T07:23:43Z</time></trkpt><trkpt lat="47.87770653158797" lon="7.384414338211602"><ele>213.0</ele><time>2026-03-28T07:23:44Z</time></trkpt><trkpt lat="47.877458988343285" lon="7.384563679478122"><ele>213.5</ele><time>2026-03-28T07:23:45Z</time></trkpt><trkpt lat="47.877210125406094" lon="7.384713497455756"><ele>214.0</ele><time>2026-03-28T07:23:46Z</time></trkpt><trkpt lat="47.87696099518118" lon="7.38486275567878"><ele>215.0</ele><time>2026-03-28T07:23:47Z</time></trkpt><trkpt lat="47.87671049095115" lon="7.385009766440011"><ele>216.0</ele><time>2026-03-28T07:23:48Z</time></trkpt><trkpt lat="47.87646068390476" lon="7.385160735155303"><ele>216.0</ele><time>2026-03-28T07:23:49Z</time></trkpt><trkpt lat="47.87621027694288" lon="7.38531223173391"><ele>216.0</ele><time>2026-03-28T07:23:50Z</time></trkpt><trkpt lat="47.87596033315316" lon="7.385465173850903"><ele>216.0</ele><time>2026-03-28T07:23:51Z</time></trkpt><trkpt lat="47.87571427831777" lon="7.385615395603272"><ele>216.0</ele><time>2026-03-28T07:23:52Z</time></trkpt><trkpt lat="47.87546410386751" lon="7.3857665856752135"><ele>216.0</ele><time>2026-03-28T07:23:53Z</time></trkpt><trkpt lat="47.875214741261956" lon="7.385917971515917"><ele>216.0</ele><time>2026-03-28T07:23:54Z</time></trkpt><trkpt lat="47.87496518308836" lon="7.386070602401607"><ele>215.5</ele><time>2026-03-28T07:23:55Z</time></trkpt><trkpt lat="47.874717643074554" lon="7.3862237902243475"><ele>215.0</ele><time>2026-03-28T07:23:56Z</time></trkpt><trkpt lat="47.87447288534159" lon="7.386374567983362"><ele>214.5</ele><time>2026-03-28T07:23:57Z</time></trkpt><trkpt lat="47.874224435650234" lon="7.386517478903352"><ele>214.0</ele><time>2026-03-28T07:23:58Z</time></trkpt><trkpt lat="47.8739764831268" lon="7.386663621803034"><ele>214.0</ele><time>2026-03-28T07:23:59Z</time></trkpt><trkpt lat="47.87372770262764" lon="7.3868117106983435"><ele>214.0</ele><time>2026-03-28T07:24:00Z</time></trkpt><trkpt lat="47.87348015947861" lon="7.3869634706347185"><ele>213.0</ele><time>2026-03-28T07:24:01Z</time></trkpt><trkpt lat="47.873233885612706" lon="7.387119529719472"><ele>212.0</ele><time>2026-03-28T07:24:02Z</time></trkpt><trkpt lat="47.87298817431942" lon="7.387278985249573"><ele>211.5</ele><time>2026-03-28T07:24:03Z</time></trkpt><trkpt lat="47.87274133950059" lon="7.387433199787526"><ele>211.0</ele><time>2026-03-28T07:24:04Z</time></trkpt><trkpt lat="47.87249365404608" lon="7.387586853455194"><ele>211.0</ele><time>2026-03-28T07:24:05Z</time></trkpt><trkpt lat="47.87224358993917" lon="7.387734610458473"><ele>211.0</ele><time>2026-03-28T07:24:06Z</time></trkpt><trkpt lat="47.871993571065794" lon="7.387886247164644"><ele>212.0</ele><time>2026-03-28T07:24:07Z</time></trkpt><trkpt lat="47.871742328826386" lon="7.38803684119455"><ele>213.0</ele><time>2026-03-28T07:24:08Z</time></trkpt><trkpt lat="47.87149199679795" lon="7.388187912206934"><ele>213.0</ele><time>2026-03-28T07:24:09Z</time></trkpt><trkpt lat="47.871239373123515" lon="7.388334953976461"><ele>213.0</ele><time>2026-03-28T07:24:10Z</time></trkpt><trkpt lat="47.87098628301104" lon="7.388478981332913"><ele>213.0</ele><time>2026-03-28T07:24:11Z</time></trkpt><trkpt lat="47.87073187469606" lon="7.3886192254725165"><ele>213.0</ele><time>2026-03-28T07:24:12Z</time></trkpt><trkpt lat="47.870475675096905" lon="7.388759356875072"><ele>213.0</ele><time>2026-03-28T07:24:13Z</time></trkpt><trkpt lat="47.870219372159774" lon="7.388898546596747"><ele>213.0</ele><time>2026-03-28T07:24:14Z</time></trkpt><trkpt lat="47.86996366725108" lon="7.389037852347005"><ele>212.5</ele><time>2026-03-28T07:24:15Z</time></trkpt><trkpt lat="47.86970671629159" lon="7.3891778363519"><ele>212.0</ele><time>2026-03-28T07:24:16Z</time></trkpt><trkpt lat="47.869447682974645" lon="7.389314056450778"><ele>213.0</ele><time>2026-03-28T07:24:17Z</time></trkpt><trkpt lat="47.86918983776567" lon="7.389449004484924"><ele>214.0</ele><time>2026-03-28T07:24:18Z</time></trkpt><trkpt lat="47.868929975739114" lon="7.389581332959055"><ele>214.0</ele><time>2026-03-28T07:24:19Z</time></trkpt><trkpt lat="47.86867024712999" lon="7.389712391425351"><ele>214.0</ele><time>2026-03-28T07:24:20Z</time></trkpt><trkpt lat="47.86841100426578" lon="7.389845343772162"><ele>213.5</ele><time>2026-03-28T07:24:21Z</time></trkpt><trkpt lat="47.86814784490296" lon="7.389973942532107"><ele>213.0</ele><time>2026-03-28T07:24:22Z</time></trkpt><trkpt lat="47.867886222352006" lon="7.390099570066873"><ele>213.0</ele><time>2026-03-28T07:24:23Z</time></trkpt><trkpt lat="47.8676230530113" lon="7.390219602591653"><ele>213.0</ele><time>2026-03-28T07:24:24Z</time></trkpt><trkpt lat="47.867361401183295" lon="7.390333441853555"><ele>213.0</ele><time>2026-03-28T07:24:25Z</time></trkpt><trkpt lat="47.867098844626724" lon="7.390442846271715"><ele>213.0</ele><time>2026-03-28T07:24:26Z</time></trkpt><trkpt lat="47.86683652257679" lon="7.390550291489262"><ele>212.0</ele><time>2026-03-28T07:24:27Z</time></trkpt><trkpt lat="47.86657610245394" lon="7.390657966414549"><ele>211.0</ele><time>2026-03-28T07:24:28Z</time></trkpt><trkpt lat="47.866315638695916" lon="7.390766600442889"><ele>211.0</ele><time>2026-03-28T07:24:29Z</time></trkpt><trkpt lat="47.86605392298862" lon="7.390877255368285"><ele>211.0</ele><time>2026-03-28T07:24:30Z</time></trkpt><trkpt lat="47.86579499417895" lon="7.3909875294515155"><ele>212.5</ele><time>2026-03-28T07:24:31Z</time></trkpt><trkpt lat="47.86553417396372" lon="7.391094835063901"><ele>214.0</ele><time>2026-03-28T07:24:32Z</time></trkpt><trkpt lat="47.86527539359814" lon="7.391202828881182"><ele>214.0</ele><time>2026-03-28T07:24:33Z</time></trkpt><trkpt lat="47.86501684800164" lon="7.3913097745267"><ele>214.0</ele><time>2026-03-28T07:24:34Z</time></trkpt><trkpt lat="47.86475650358721" lon="7.391413466167198"><ele>213.5</ele><time>2026-03-28T07:24:35Z</time></trkpt><trkpt lat="47.864496918700326" lon="7.391515805390625"><ele>213.0</ele><time>2026-03-28T07:24:36Z</time></trkpt><trkpt lat="47.86423415339891" lon="7.39161661935794"><ele>212.5</ele><time>2026-03-28T07:24:37Z</time></trkpt><trkpt lat="47.8639727315776" lon="7.391715919454357"><ele>212.0</ele><time>2026-03-28T07:24:38Z</time></trkpt><trkpt lat="47.86371140953492" lon="7.391812266460218"><ele>212.0</ele><time>2026-03-28T07:24:39Z</time></trkpt><trkpt lat="47.86345022288688" lon="7.3919064883746834"><ele>212.0</ele><time>2026-03-28T07:24:40Z</time></trkpt><trkpt lat="47.86318474561313" lon="7.392000711386333"><ele>212.0</ele><time>2026-03-28T07:24:41Z</time></trkpt><trkpt lat="47.86292176377055" lon="7.392094795294255"><ele>212.0</ele><time>2026-03-28T07:24:42Z</time></trkpt><trkpt lat="47.86265754979609" lon="7.392182956288515"><ele>214.5</ele><time>2026-03-28T07:24:43Z</time></trkpt><trkpt lat="47.86239514587201" lon="7.392267602566233"><ele>217.0</ele><time>2026-03-28T07:24:44Z</time></trkpt><trkpt lat="47.86213141216087" lon="7.392350585645821"><ele>217.0</ele><time>2026-03-28T07:24:45Z</time></trkpt><trkpt lat="47.861867037913505" lon="7.392436368808531"><ele>217.0</ele><time>2026-03-28T07:24:46Z</time></trkpt><trkpt lat="47.861606091523456" lon="7.392523548753416"><ele>216.0</ele><time>2026-03-28T07:24:47Z</time></trkpt><trkpt lat="47.861341269036565" lon="7.392607484029375"><ele>215.0</ele><time>2026-03-28T07:24:48Z</time></trkpt><trkpt lat="47.86107965576118" lon="7.392691929003854"><ele>215.0</ele><time>2026-03-28T07:24:49Z</time></trkpt><trkpt lat="47.86081910004523" lon="7.392774650309348"><ele>215.0</ele><time>2026-03-28T07:24:50Z</time></trkpt><trkpt lat="47.86055624599775" lon="7.392853586155803"><ele>215.0</ele><time>2026-03-28T07:24:51Z</time></trkpt><trkpt lat="47.86029203504087" lon="7.392928848846805"><ele>215.0</ele><time>2026-03-28T07:24:52Z</time></trkpt><trkpt lat="47.86002845136972" lon="7.3930046940051515"><ele>215.0</ele><time>2026-03-28T07:24:53Z</time></trkpt><trkpt lat="47.859765319206424" lon="7.393078050108028"><ele>215.0</ele><time>2026-03-28T07:24:54Z</time></trkpt><trkpt lat="47.85949971177263" lon="7.393143929223541"><ele>214.5</ele><time>2026-03-28T07:24:55Z</time></trkpt><trkpt lat="47.85923584730076" lon="7.393209993123472"><ele>214.0</ele><time>2026-03-28T07:24:56Z</time></trkpt><trkpt lat="47.85897141477037" lon="7.393276665805465"><ele>214.0</ele><time>2026-03-28T07:24:57Z</time></trkpt><trkpt lat="47.858707401928264" lon="7.393340618410247"><ele>214.0</ele><time>2026-03-28T07:24:58Z</time></trkpt><trkpt lat="47.85844278531348" lon="7.393403727903023"><ele>215.0</ele><time>2026-03-28T07:24:59Z</time></trkpt><trkpt lat="47.85817680386108" lon="7.393466650981937"><ele>216.0</ele><time>2026-03-28T07:25:00Z</time></trkpt><trkpt lat="47.85791050826893" lon="7.393526210941043"><ele>216.0</ele><time>2026-03-28T07:25:01Z</time></trkpt><trkpt lat="47.8576461476429" lon="7.393584674595307"><ele>216.0</ele><time>2026-03-28T07:25:02Z</time></trkpt><trkpt lat="47.85738213797553" lon="7.3936389530994955"><ele>216.0</ele><time>2026-03-28T07:25:03Z</time></trkpt><trkpt lat="47.85711569460805" lon="7.3936940554903465"><ele>216.0</ele><time>2026-03-28T07:25:04Z</time></trkpt><trkpt lat="47.85685165263236" lon="7.393746032902021"><ele>216.0</ele><time>2026-03-28T07:25:05Z</time></trkpt><trkpt lat="47.85658749832462" lon="7.393800395847761"><ele>216.0</ele><time>2026-03-28T07:25:06Z</time></trkpt><trkpt lat="47.85632090139149" lon="7.393851762810393"><ele>216.5</ele><time>2026-03-28T07:25:07Z</time></trkpt><trkpt lat="47.8560547769953" lon="7.393899624823932"><ele>217.0</ele><time>2026-03-28T07:25:08Z</time></trkpt><trkpt lat="47.855788297508866" lon="7.393946790434352"><ele>217.0</ele><time>2026-03-28T07:25:09Z</time></trkpt><trkpt lat="47.855520991933616" lon="7.393991057326251"><ele>217.0</ele><time>2026-03-28T07:25:10Z</time></trkpt><trkpt lat="47.855254397468144" lon="7.394037315470014"><ele>216.5</ele><time>2026-03-28T07:25:11Z</time></trkpt><trkpt lat="47.854985403233314" lon="7.394079193976937"><ele>216.0</ele><time>2026-03-28T07:25:12Z</time></trkpt><trkpt lat="47.85471492019936" lon="7.394117365736002"><ele>216.0</ele><time>2026-03-28T07:25:13Z</time></trkpt><trkpt lat="47.85444624797915" lon="7.394156480750395"><ele>216.0</ele><time>2026-03-28T07:25:14Z</time></trkpt><trkpt lat="47.8541769485001" lon="7.394194346744309"><ele>217.0</ele><time>2026-03-28T07:25:15Z</time></trkpt><trkpt lat="47.85390719546395" lon="7.3942317118488186"><ele>218.0</ele><time>2026-03-28T07:25:16Z</time></trkpt><trkpt lat="47.85363605291826" lon="7.394262946559044"><ele>217.5</ele><time>2026-03-28T07:25:17Z</time></trkpt><trkpt lat="47.853367873267395" lon="7.39429508784648"><ele>217.0</ele><time>2026-03-28T07:25:18Z</time></trkpt><trkpt lat="47.85309804808269" lon="7.394326868754108"><ele>217.0</ele><time>2026-03-28T07:25:19Z</time></trkpt><trkpt lat="47.85282912506532" lon="7.394356190076818"><ele>217.0</ele><time>2026-03-28T07:25:20Z</time></trkpt><trkpt lat="47.85255842741548" lon="7.394380629435819"><ele>217.0</ele><time>2026-03-28T07:25:21Z</time></trkpt><trkpt lat="47.852288687570514" lon="7.394405256617732"><ele>217.0</ele><time>2026-03-28T07:25:22Z</time></trkpt><trkpt lat="47.85201964594368" lon="7.394430267491791"><ele>217.0</ele><time>2026-03-28T07:25:23Z</time></trkpt><trkpt lat="47.8517507353859" lon="7.394451502707902"><ele>217.0</ele><time>2026-03-28T07:25:24Z</time></trkpt><trkpt lat="47.851483718977924" lon="7.3944693328763575"><ele>217.0</ele><time>2026-03-28T07:25:25Z</time></trkpt><trkpt lat="47.85121626883032" lon="7.394486378610731"><ele>217.0</ele><time>2026-03-28T07:25:26Z</time></trkpt><trkpt lat="47.85094676879014" lon="7.394499606921981"><ele>217.0</ele><time>2026-03-28T07:25:27Z</time></trkpt><trkpt lat="47.85067970465536" lon="7.394516152875088"><ele>217.0</ele><time>2026-03-28T07:25:28Z</time></trkpt><trkpt lat="47.850410012124044" lon="7.394529786395917"><ele>217.0</ele><time>2026-03-28T07:25:29Z</time></trkpt><trkpt lat="47.8501400603736" lon="7.394542879976961"><ele>217.0</ele><time>2026-03-28T07:25:30Z</time></trkpt><trkpt lat="47.849869048132526" lon="7.394550823276277"><ele>217.5</ele><time>2026-03-28T07:25:31Z</time></trkpt><trkpt lat="47.8495993812843" lon="7.394560666736104"><ele>218.0</ele><time>2026-03-28T07:25:32Z</time></trkpt><trkpt lat="47.84932846445631" lon="7.39456606860614"><ele>218.5</ele><time>2026-03-28T07:25:33Z</time></trkpt><trkpt lat="47.84906089621914" lon="7.3945755800887945"><ele>219.0</ele><time>2026-03-28T07:25:34Z</time></trkpt><trkpt lat="47.84879270430739" lon="7.394581201905291"><ele>219.0</ele><time>2026-03-28T07:25:35Z</time></trkpt><trkpt lat="47.84852302239074" lon="7.394584734583572"><ele>219.0</ele><time>2026-03-28T07:25:36Z</time></trkpt><trkpt lat="47.848254744344025" lon="7.394582948326948"><ele>219.5</ele><time>2026-03-28T07:25:37Z</time></trkpt><trkpt lat="47.84798479394941" lon="7.394587050668538"><ele>220.0</ele><time>2026-03-28T07:25:38Z</time></trkpt><trkpt lat="47.84771572423832" lon="7.3945815736018075"><ele>220.0</ele><time>2026-03-28T07:25:39Z</time></trkpt><trkpt lat="47.847444610095245" lon="7.394578484309167"><ele>220.0</ele><time>2026-03-28T07:25:40Z</time></trkpt><trkpt lat="47.847177574295316" lon="7.394575744533477"><ele>220.0</ele><time>2026-03-28T07:25:41Z</time></trkpt><trkpt lat="47.84690900594972" lon="7.394574702834741"><ele>220.0</ele><time>2026-03-28T07:25:42Z</time></trkpt><trkpt lat="47.846640781367476" lon="7.394565790431919"><ele>221.0</ele><time>2026-03-28T07:25:43Z</time></trkpt><trkpt lat="47.846370853356795" lon="7.394555571907266"><ele>222.0</ele><time>2026-03-28T07:25:44Z</time></trkpt><trkpt lat="47.84610137972631" lon="7.394548491974153"><ele>222.0</ele><time>2026-03-28T07:25:45Z</time></trkpt><trkpt lat="47.84583319510102" lon="7.394541279651235"><ele>222.0</ele><time>2026-03-28T07:25:46Z</time></trkpt><trkpt lat="47.84556499046431" lon="7.394534552857052"><ele>222.0</ele><time>2026-03-28T07:25:47Z</time></trkpt><trkpt lat="47.84529582783251" lon="7.394529877833963"><ele>222.0</ele><time>2026-03-28T07:25:48Z</time></trkpt><trkpt lat="47.84502582290785" lon="7.394520892267746"><ele>220.5</ele><time>2026-03-28T07:25:49Z</time></trkpt><trkpt lat="47.84475890545744" lon="7.394510164521165"><ele>219.0</ele><time>2026-03-28T07:25:50Z</time></trkpt><trkpt lat="47.84449172400617" lon="7.394500060096803"><ele>219.0</ele><time>2026-03-28T07:25:51Z</time></trkpt><trkpt lat="47.844223593450806" lon="7.394491721043743"><ele>219.0</ele><time>2026-03-28T07:25:52Z</time></trkpt><trkpt lat="47.84395468861531" lon="7.394483767276225"><ele>219.0</ele><time>2026-03-28T07:25:53Z</time></trkpt><trkpt lat="47.84368716058864" lon="7.394478916263497"><ele>219.0</ele><time>2026-03-28T07:25:54Z</time></trkpt><trkpt lat="47.843421465033096" lon="7.394469902101149"><ele>218.5</ele><time>2026-03-28T07:25:55Z</time></trkpt><trkpt lat="47.84315465431736" lon="7.394461026902024"><ele>218.0</ele><time>2026-03-28T07:25:56Z</time></trkpt><trkpt lat="47.84288780161048" lon="7.394451810402853"><ele>219.0</ele><time>2026-03-28T07:25:57Z</time></trkpt><trkpt lat="47.842621122853934" lon="7.394445269257851"><ele>220.0</ele><time>2026-03-28T07:25:58Z</time></trkpt><trkpt lat="47.842354416890146" lon="7.394437421566034"><ele>220.0</ele><time>2026-03-28T07:25:59Z</time></trkpt><trkpt lat="47.84208829585602" lon="7.3944303101456645"><ele>220.0</ele><time>2026-03-28T07:26:00Z</time></trkpt><trkpt lat="47.841821134099504" lon="7.3944207408790605"><ele>221.0</ele><time>2026-03-28T07:26:01Z</time></trkpt><trkpt lat="47.841552795530575" lon="7.394414445609918"><ele>222.0</ele><time>2026-03-28T07:26:02Z</time></trkpt><trkpt lat="47.84128511978216" lon="7.394405042995569"><ele>222.0</ele><time>2026-03-28T07:26:03Z</time></trkpt><trkpt lat="47.84101737919398" lon="7.394395488767565"><ele>222.0</ele><time>2026-03-28T07:26:04Z</time></trkpt><trkpt lat="47.84075048857094" lon="7.394388813762625"><ele>222.5</ele><time>2026-03-28T07:26:05Z</time></trkpt><trkpt lat="47.840482730381034" lon="7.39437753860441"><ele>223.0</ele><time>2026-03-28T07:26:06Z</time></trkpt><trkpt lat="47.84021581527161" lon="7.394366510708019"><ele>221.5</ele><time>2026-03-28T07:26:07Z</time></trkpt><trkpt lat="47.83994560502917" lon="7.394355683123789"><ele>220.0</ele><time>2026-03-28T07:26:08Z</time></trkpt><trkpt lat="47.83967559712579" lon="7.394350226323898"><ele>220.0</ele><time>2026-03-28T07:26:09Z</time></trkpt><trkpt lat="47.83940658343955" lon="7.394342549210493"><ele>220.0</ele><time>2026-03-28T07:26:10Z</time></trkpt><trkpt lat="47.839136831295676" lon="7.394344636261505"><ele>220.5</ele><time>2026-03-28T07:26:11Z</time></trkpt><trkpt lat="47.8388702991565" lon="7.394341405562103"><ele>221.0</ele><time>2026-03-28T07:26:12Z</time></trkpt><trkpt lat="47.83860606385415" lon="7.394340008017876"><ele>222.0</ele><time>2026-03-28T07:26:13Z</time></trkpt><trkpt lat="47.83834279003963" lon="7.394336677109666"><ele>223.0</ele><time>2026-03-28T07:26:14Z</time></trkpt><trkpt lat="47.8380763418101" lon="7.394329673097224"><ele>223.0</ele><time>2026-03-28T07:26:15Z</time></trkpt><trkpt lat="47.837808704044456" lon="7.394331276094545"><ele>223.0</ele><time>2026-03-28T07:26:16Z</time></trkpt><trkpt lat="47.83754198663423" lon="7.394330009166064"><ele>223.0</ele><time>2026-03-28T07:26:17Z</time></trkpt><trkpt lat="47.83727745990361" lon="7.394330163258273"><ele>223.0</ele><time>2026-03-28T07:26:18Z</time></trkpt><trkpt lat="47.83701047010016" lon="7.394326973725251"><ele>222.5</ele><time>2026-03-28T07:26:19Z</time></trkpt><trkpt lat="47.83674450678336" lon="7.394322239766512"><ele>222.0</ele><time>2026-03-28T07:26:20Z</time></trkpt><trkpt lat="47.836476441682734" lon="7.394317298559511"><ele>222.0</ele><time>2026-03-28T07:26:21Z</time></trkpt><trkpt lat="47.836208222087905" lon="7.394308962616833"><ele>222.0</ele><time>2026-03-28T07:26:22Z</time></trkpt><trkpt lat="47.83593931699563" lon="7.394301187011211"><ele>221.0</ele><time>2026-03-28T07:26:23Z</time></trkpt><trkpt lat="47.835671376260706" lon="7.3942947542580795"><ele>220.0</ele><time>2026-03-28T07:26:24Z</time></trkpt><trkpt lat="47.83540207860895" lon="7.394284757825655"><ele>220.5</ele><time>2026-03-28T07:26:25Z</time></trkpt><trkpt lat="47.83513344266336" lon="7.394275929054523"><ele>221.0</ele><time>2026-03-28T07:26:26Z</time></trkpt><trkpt lat="47.83486544249639" lon="7.394266559324011"><ele>221.0</ele><time>2026-03-28T07:26:27Z</time></trkpt><trkpt lat="47.8345991355487" lon="7.394250101628032"><ele>221.0</ele><time>2026-03-28T07:26:28Z</time></trkpt><trkpt lat="47.83433101504367" lon="7.394229194830565"><ele>220.5</ele><time>2026-03-28T07:26:29Z</time></trkpt><trkpt lat="47.834064337782515" lon="7.394208285954881"><ele>220.0</ele><time>2026-03-28T07:26:30Z</time></trkpt><trkpt lat="47.833795802674416" lon="7.39418826078263"><ele>220.0</ele><time>2026-03-28T07:26:31Z</time></trkpt><trkpt lat="47.83352892519637" lon="7.394169639559934"><ele>220.0</ele><time>2026-03-28T07:26:32Z</time></trkpt><trkpt lat="47.83326211178065" lon="7.394152574538146"><ele>220.5</ele><time>2026-03-28T07:26:33Z</time></trkpt><trkpt lat="47.83299535027321" lon="7.394142417358198"><ele>221.0</ele><time>2026-03-28T07:26:34Z</time></trkpt><trkpt lat="47.8327304247285" lon="7.394134215277335"><ele>221.0</ele><time>2026-03-28T07:26:35Z</time></trkpt><trkpt lat="47.83246425916478" lon="7.394122003619372"><ele>221.0</ele><time>2026-03-28T07:26:36Z</time></trkpt><trkpt lat="47.83219884648511" lon="7.3941122059198205"><ele>221.0</ele><time>2026-03-28T07:26:37Z</time></trkpt><trkpt lat="47.83193259681396" lon="7.39409748832985"><ele>221.0</ele><time>2026-03-28T07:26:38Z</time></trkpt><trkpt lat="47.831664854456825" lon="7.394084578958601"><ele>221.5</ele><time>2026-03-28T07:26:39Z</time></trkpt><trkpt lat="47.831398049141974" lon="7.394071169673822"><ele>222.0</ele><time>2026-03-28T07:26:40Z</time></trkpt><trkpt lat="47.83112994244778" lon="7.394058769321581"><ele>222.5</ele><time>2026-03-28T07:26:41Z</time></trkpt><trkpt lat="47.830861718811555" lon="7.394045679432331"><ele>223.0</ele><time>2026-03-28T07:26:42Z</time></trkpt><trkpt lat="47.83059224552506" lon="7.394033005171269"><ele>223.0</ele><time>2026-03-28T07:26:43Z</time></trkpt><trkpt lat="47.83032383575648" lon="7.394019136304254"><ele>223.0</ele><time>2026-03-28T07:26:44Z</time></trkpt><trkpt lat="47.83005713375098" lon="7.394005681696526"><ele>223.5</ele><time>2026-03-28T07:26:45Z</time></trkpt><trkpt lat="47.829789123338436" lon="7.3939911515108"><ele>224.0</ele><time>2026-03-28T07:26:46Z</time></trkpt><trkpt lat="47.82952182529827" lon="7.393975639760525"><ele>223.0</ele><time>2026-03-28T07:26:47Z</time></trkpt><trkpt lat="47.82925362489291" lon="7.393960571856693"><ele>222.0</ele><time>2026-03-28T07:26:48Z</time></trkpt><trkpt lat="47.82898540054182" lon="7.393946678872687"><ele>222.0</ele><time>2026-03-28T07:26:49Z</time></trkpt><trkpt lat="47.82871851280016" lon="7.393930816743133"><ele>222.0</ele><time>2026-03-28T07:26:50Z</time></trkpt><trkpt lat="47.82845098937616" lon="7.393909571272973"><ele>222.5</ele><time>2026-03-28T07:26:51Z</time></trkpt><trkpt lat="47.828184173670465" lon="7.393893494562377"><ele>223.0</ele><time>2026-03-28T07:26:52Z</time></trkpt><trkpt lat="47.82791588069077" lon="7.393872301787513"><ele>223.0</ele><time>2026-03-28T07:26:53Z</time></trkpt><trkpt lat="47.82764814663603" lon="7.393851991410706"><ele>223.0</ele><time>2026-03-28T07:26:54Z</time></trkpt><trkpt lat="47.82738198902007" lon="7.393831091612056"><ele>222.5</ele><time>2026-03-28T07:26:55Z</time></trkpt><trkpt lat="47.827114540511374" lon="7.393814026974823"><ele>222.0</ele><time>2026-03-28T07:26:56Z</time></trkpt><trkpt lat="47.826847152241484" lon="7.393797107328702"><ele>221.5</ele><time>2026-03-28T07:26:57Z</time></trkpt><trkpt lat="47.82657850778864" lon="7.3937811054589"><ele>221.0</ele><time>2026-03-28T07:26:58Z</time></trkpt><trkpt lat="47.826313079288575" lon="7.393764653682697"><ele>221.0</ele><time>2026-03-28T07:26:59Z</time></trkpt><trkpt lat="47.82604570642472" lon="7.393747269254129"><ele>221.0</ele><time>2026-03-28T07:27:00Z</time></trkpt><trkpt lat="47.825777922088825" lon="7.393730159076708"><ele>221.5</ele><time>2026-03-28T07:27:01Z</time></trkpt><trkpt lat="47.825508980598535" lon="7.393712603672461"><ele>222.0</ele><time>2026-03-28T07:27:02Z</time></trkpt><trkpt lat="47.82524111173062" lon="7.393694505434547"><ele>222.5</ele><time>2026-03-28T07:27:03Z</time></trkpt><trkpt lat="47.82497417185993" lon="7.393673970311158"><ele>223.0</ele><time>2026-03-28T07:27:04Z</time></trkpt><trkpt lat="47.82470665350912" lon="7.393654446016797"><ele>223.0</ele><time>2026-03-28T07:27:05Z</time></trkpt><trkpt lat="47.82443887881623" lon="7.393634246367457"><ele>223.0</ele><time>2026-03-28T07:27:06Z</time></trkpt><trkpt lat="47.824172132443934" lon="7.393614372316119"><ele>223.0</ele><time>2026-03-28T07:27:07Z</time></trkpt><trkpt lat="47.82390403713184" lon="7.393595969508065"><ele>223.0</ele><time>2026-03-28T07:27:08Z</time></trkpt><trkpt lat="47.82363486822992" lon="7.393575127008627"><ele>222.5</ele><time>2026-03-28T07:27:09Z</time></trkpt><trkpt lat="47.82336462309725" lon="7.3935532131579125"><ele>222.0</ele><time>2026-03-28T07:27:10Z</time></trkpt><trkpt lat="47.82309726244809" lon="7.393531750912946"><ele>222.0</ele><time>2026-03-28T07:27:11Z</time></trkpt><trkpt lat="47.82282760177343" lon="7.393507942949251"><ele>222.0</ele><time>2026-03-28T07:27:12Z</time></trkpt><trkpt lat="47.82255944403686" lon="7.393487849532747"><ele>221.5</ele><time>2026-03-28T07:27:13Z</time></trkpt><trkpt lat="47.82229250235256" lon="7.393468213576424"><ele>221.0</ele><time>2026-03-28T07:27:14Z</time></trkpt><trkpt lat="47.82202471602048" lon="7.393450394913718"><ele>221.0</ele><time>2026-03-28T07:27:15Z</time></trkpt><trkpt lat="47.82175499661933" lon="7.393433512312706"><ele>221.0</ele><time>2026-03-28T07:27:16Z</time></trkpt><trkpt lat="47.82148341985228" lon="7.393415906876303"><ele>221.0</ele><time>2026-03-28T07:27:17Z</time></trkpt><trkpt lat="47.821210889400646" lon="7.393399592637603"><ele>221.0</ele><time>2026-03-28T07:27:18Z</time></trkpt><trkpt lat="47.82093697554029" lon="7.393383475025912"><ele>222.0</ele><time>2026-03-28T07:27:19Z</time></trkpt><trkpt lat="47.82066294338503" lon="7.393369057386732"><ele>223.0</ele><time>2026-03-28T07:27:20Z</time></trkpt><trkpt lat="47.820386055162714" lon="7.393347904534017"><ele>223.0</ele><time>2026-03-28T07:27:21Z</time></trkpt><trkpt lat="47.82010961373897" lon="7.393324912248787"><ele>223.0</ele><time>2026-03-28T07:27:22Z</time></trkpt><trkpt lat="47.819834447166606" lon="7.393302400457764"><ele>223.0</ele><time>2026-03-28T07:27:23Z</time></trkpt><trkpt lat="47.81955700548114" lon="7.3932788588871565"><ele>223.0</ele><time>2026-03-28T07:27:24Z</time></trkpt><trkpt lat="47.8192793827687" lon="7.3932563723849976"><ele>223.5</ele><time>2026-03-28T07:27:25Z</time></trkpt><trkpt lat="47.81900058560177" lon="7.39323302231256"><ele>224.0</ele><time>2026-03-28T07:27:26Z</time></trkpt><trkpt lat="47.818721591864815" lon="7.393208016388745"><ele>224.0</ele><time>2026-03-28T07:27:27Z</time></trkpt><trkpt lat="47.818442013118045" lon="7.39318300797838"><ele>224.0</ele><time>2026-03-28T07:27:28Z</time></trkpt><trkpt lat="47.818161974570536" lon="7.39315605022397"><ele>224.0</ele><time>2026-03-28T07:27:29Z</time></trkpt><trkpt lat="47.81788435778407" lon="7.393133072085631"><ele>224.0</ele><time>2026-03-28T07:27:30Z</time></trkpt><trkpt lat="47.81760820793418" lon="7.393107859317404"><ele>223.5</ele><time>2026-03-28T07:27:31Z</time></trkpt><trkpt lat="47.81733418793508" lon="7.3930811628899455"><ele>223.0</ele><time>2026-03-28T07:27:32Z</time></trkpt><trkpt lat="47.81706148104356" lon="7.393056124981801"><ele>222.5</ele><time>2026-03-28T07:27:33Z</time></trkpt><trkpt lat="47.816789868014524" lon="7.39302939120561"><ele>222.0</ele><time>2026-03-28T07:27:34Z</time></trkpt><trkpt lat="47.816520639031594" lon="7.393003624910065"><ele>222.0</ele><time>2026-03-28T07:27:35Z</time></trkpt><trkpt lat="47.816254168507385" lon="7.392970587167595"><ele>222.0</ele><time>2026-03-28T07:27:36Z</time></trkpt><trkpt lat="47.81598595442741" lon="7.392935369172523"><ele>222.0</ele><time>2026-03-28T07:27:37Z</time></trkpt><trkpt lat="47.81571904026989" lon="7.392896452944601"><ele>222.0</ele><time>2026-03-28T07:27:38Z</time></trkpt><trkpt lat="47.81544960781458" lon="7.392857670348266"><ele>222.0</ele><time>2026-03-28T07:27:39Z</time></trkpt><trkpt lat="47.81518082512808" lon="7.392830711660943"><ele>222.0</ele><time>2026-03-28T07:27:40Z</time></trkpt><trkpt lat="47.81491060546635" lon="7.392808532570154"><ele>222.0</ele><time>2026-03-28T07:27:41Z</time></trkpt><trkpt lat="47.81463842003276" lon="7.392783439893532"><ele>222.0</ele><time>2026-03-28T07:27:42Z</time></trkpt><trkpt lat="47.81436670089914" lon="7.392757706880041"><ele>223.0</ele><time>2026-03-28T07:27:43Z</time></trkpt><trkpt lat="47.81409301485179" lon="7.392735744816001"><ele>224.0</ele><time>2026-03-28T07:27:44Z</time></trkpt><trkpt lat="47.81381847871898" lon="7.39271438786903"><ele>224.0</ele><time>2026-03-28T07:27:45Z</time></trkpt><trkpt lat="47.813545997762716" lon="7.392689988681439"><ele>224.0</ele><time>2026-03-28T07:27:46Z</time></trkpt><trkpt lat="47.81327236804382" lon="7.392663716083735"><ele>223.5</ele><time>2026-03-28T07:27:47Z</time></trkpt><trkpt lat="47.81299887510187" lon="7.392640686316014"><ele>223.0</ele><time>2026-03-28T07:27:48Z</time></trkpt><trkpt lat="47.81272657144095" lon="7.392620502156307"><ele>223.5</ele><time>2026-03-28T07:27:49Z</time></trkpt><trkpt lat="47.81245393963849" lon="7.39259825610779"><ele>224.0</ele><time>2026-03-28T07:27:50Z</time></trkpt><trkpt lat="47.81218179548254" lon="7.392576857607399"><ele>224.0</ele><time>2026-03-28T07:27:51Z</time></trkpt><trkpt lat="47.8119106745655" lon="7.392557119581917"><ele>224.0</ele><time>2026-03-28T07:27:52Z</time></trkpt><trkpt lat="47.811638081067734" lon="7.392537600435577"><ele>224.0</ele><time>2026-03-28T07:27:53Z</time></trkpt><trkpt lat="47.811368431096795" lon="7.392520328452176"><ele>224.0</ele><time>2026-03-28T07:27:54Z</time></trkpt><trkpt lat="47.811097743642634" lon="7.392502649183729"><ele>223.5</ele><time>2026-03-28T07:27:55Z</time></trkpt><trkpt lat="47.81082764615867" lon="7.392488891020437"><ele>223.0</ele><time>2026-03-28T07:27:56Z</time></trkpt><trkpt lat="47.81055704819782" lon="7.392473709220535"><ele>223.0</ele><time>2026-03-28T07:27:57Z</time></trkpt><trkpt lat="47.810287958939234" lon="7.39246439972548"><ele>223.0</ele><time>2026-03-28T07:27:58Z</time></trkpt><trkpt lat="47.810019262736716" lon="7.392453788869919"><ele>223.0</ele><time>2026-03-28T07:27:59Z</time></trkpt><trkpt lat="47.809750520234594" lon="7.392445001664407"><ele>223.0</ele><time>2026-03-28T07:28:00Z</time></trkpt><trkpt lat="47.809481957936775" lon="7.392436334557093"><ele>223.5</ele><time>2026-03-28T07:28:01Z</time></trkpt><trkpt lat="47.80921243632947" lon="7.392428929228659"><ele>224.0</ele><time>2026-03-28T07:28:02Z</time></trkpt><trkpt lat="47.808943853415855" lon="7.39242892796464"><ele>224.0</ele><time>2026-03-28T07:28:03Z</time></trkpt><trkpt lat="47.80867479603353" lon="7.392428006443562"><ele>224.0</ele><time>2026-03-28T07:28:04Z</time></trkpt><trkpt lat="47.80840652095769" lon="7.392429208913162"><ele>223.5</ele><time>2026-03-28T07:28:05Z</time></trkpt><trkpt lat="47.80813905911317" lon="7.392429943651288"><ele>223.0</ele><time>2026-03-28T07:28:06Z</time></trkpt><trkpt lat="47.80787296396043" lon="7.392433181055501"><ele>221.5</ele><time>2026-03-28T07:28:07Z</time></trkpt><trkpt lat="47.807606451467336" lon="7.392441383706374"><ele>220.0</ele><time>2026-03-28T07:28:08Z</time></trkpt><trkpt lat="47.807339312621274" lon="7.392449998464263"><ele>220.0</ele><time>2026-03-28T07:28:09Z</time></trkpt><trkpt lat="47.80707316836918" lon="7.392461987592944"><ele>220.0</ele><time>2026-03-28T07:28:10Z</time></trkpt><trkpt lat="47.80680734827739" lon="7.39247235472925"><ele>222.0</ele><time>2026-03-28T07:28:11Z</time></trkpt><trkpt lat="47.80654021288899" lon="7.392489406809838"><ele>224.0</ele><time>2026-03-28T07:28:12Z</time></trkpt><trkpt lat="47.8062738871024" lon="7.392506329866432"><ele>224.0</ele><time>2026-03-28T07:28:13Z</time></trkpt><trkpt lat="47.80600682141273" lon="7.392527592856374"><ele>224.0</ele><time>2026-03-28T07:28:14Z</time></trkpt><trkpt lat="47.80574107044177" lon="7.392553799662489"><ele>223.5</ele><time>2026-03-28T07:28:15Z</time></trkpt><trkpt lat="47.80547556687036" lon="7.392576362255125"><ele>223.0</ele><time>2026-03-28T07:28:16Z</time></trkpt><trkpt lat="47.80521090470356" lon="7.392610376611298"><ele>224.5</ele><time>2026-03-28T07:28:17Z</time></trkpt><trkpt lat="47.804944116267684" lon="7.3926385393414344"><ele>226.0</ele><time>2026-03-28T07:28:18Z</time></trkpt><trkpt lat="47.80467704801694" lon="7.392675736558005"><ele>226.0</ele><time>2026-03-28T07:28:19Z</time></trkpt><trkpt lat="47.80441044827933" lon="7.392709384742418"><ele>226.0</ele><time>2026-03-28T07:28:20Z</time></trkpt><trkpt lat="47.804146153116235" lon="7.392742594610222"><ele>226.0</ele><time>2026-03-28T07:28:21Z</time></trkpt><trkpt lat="47.80387854414238" lon="7.392778695826369"><ele>226.0</ele><time>2026-03-28T07:28:22Z</time></trkpt><trkpt lat="47.80361174637102" lon="7.392816310813689"><ele>225.0</ele><time>2026-03-28T07:28:23Z</time></trkpt><trkpt lat="47.80334365652655" lon="7.392857378190516"><ele>224.0</ele><time>2026-03-28T07:28:24Z</time></trkpt><trkpt lat="47.80307534642092" lon="7.392899340855255"><ele>224.0</ele><time>2026-03-28T07:28:25Z</time></trkpt><trkpt lat="47.80280863050222" lon="7.392943585699173"><ele>224.0</ele><time>2026-03-28T07:28:26Z</time></trkpt><trkpt lat="47.80254069078658" lon="7.392990024084937"><ele>224.0</ele><time>2026-03-28T07:28:27Z</time></trkpt><trkpt lat="47.802273251851126" lon="7.393041987868028"><ele>224.0</ele><time>2026-03-28T07:28:28Z</time></trkpt><trkpt lat="47.80200261070199" lon="7.39309879453453"><ele>224.5</ele><time>2026-03-28T07:28:29Z</time></trkpt><trkpt lat="47.801735363706236" lon="7.393159826520571"><ele>225.0</ele><time>2026-03-28T07:28:30Z</time></trkpt><trkpt lat="47.8014688021484" lon="7.393223677391407"><ele>225.0</ele><time>2026-03-28T07:28:31Z</time></trkpt><trkpt lat="47.80120159395874" lon="7.393288758789669"><ele>225.0</ele><time>2026-03-28T07:28:32Z</time></trkpt><trkpt lat="47.80093248645676" lon="7.393355746127553"><ele>225.0</ele><time>2026-03-28T07:28:33Z</time></trkpt><trkpt lat="47.80066406320847" lon="7.393424934781109"><ele>225.0</ele><time>2026-03-28T07:28:34Z</time></trkpt><trkpt lat="47.80039704979497" lon="7.393496337105557"><ele>225.0</ele><time>2026-03-28T07:28:35Z</time></trkpt><trkpt lat="47.800128033301604" lon="7.39357112592238"><ele>225.0</ele><time>2026-03-28T07:28:36Z</time></trkpt><trkpt lat="47.79985994032852" lon="7.393646724413605"><ele>225.0</ele><time>2026-03-28T07:28:37Z</time></trkpt><trkpt lat="47.79959233482462" lon="7.3937245164061665"><ele>225.0</ele><time>2026-03-28T07:28:38Z</time></trkpt><trkpt lat="47.79932338060815" lon="7.393805943720563"><ele>225.0</ele><time>2026-03-28T07:28:39Z</time></trkpt><trkpt lat="47.799056427168644" lon="7.393886541272391"><ele>225.0</ele><time>2026-03-28T07:28:40Z</time></trkpt><trkpt lat="47.79878816965179" lon="7.39396909041545"><ele>225.0</ele><time>2026-03-28T07:28:41Z</time></trkpt><trkpt lat="47.798521709228666" lon="7.394054536414173"><ele>225.0</ele><time>2026-03-28T07:28:42Z</time></trkpt><trkpt lat="47.798255459557204" lon="7.394145984574648"><ele>224.0</ele><time>2026-03-28T07:28:43Z</time></trkpt><trkpt lat="47.79798789020629" lon="7.39423824411244"><ele>223.0</ele><time>2026-03-28T07:28:44Z</time></trkpt><trkpt lat="47.79772017731444" lon="7.394333561827894"><ele>223.5</ele><time>2026-03-28T07:28:45Z</time></trkpt><trkpt lat="47.79745468776062" lon="7.394430898062362"><ele>224.0</ele><time>2026-03-28T07:28:46Z</time></trkpt><trkpt lat="47.79718915064144" lon="7.394532500888404"><ele>224.0</ele><time>2026-03-28T07:28:47Z</time></trkpt><trkpt lat="47.79692333115563" lon="7.394634583859944"><ele>224.0</ele><time>2026-03-28T07:28:48Z</time></trkpt><trkpt lat="47.79665808638839" lon="7.394741726144067"><ele>223.5</ele><time>2026-03-28T07:28:49Z</time></trkpt><trkpt lat="47.79639235877031" lon="7.394850497960999"><ele>223.0</ele><time>2026-03-28T07:28:50Z</time></trkpt><trkpt lat="47.796128410946665" lon="7.394958413284633"><ele>224.5</ele><time>2026-03-28T07:28:51Z</time></trkpt><trkpt lat="47.79586530016322" lon="7.395070779077821"><ele>226.0</ele><time>2026-03-28T07:28:52Z</time></trkpt><trkpt lat="47.795603864978446" lon="7.395184177096006"><ele>226.0</ele><time>2026-03-28T07:28:53Z</time></trkpt><trkpt lat="47.79534157292037" lon="7.395302197562041"><ele>226.0</ele><time>2026-03-28T07:28:54Z</time></trkpt><trkpt lat="47.79508258466353" lon="7.3954215107432075"><ele>226.0</ele><time>2026-03-28T07:28:55Z</time></trkpt><trkpt lat="47.794822502968735" lon="7.395543157829207"><ele>226.0</ele><time>2026-03-28T07:28:56Z</time></trkpt><trkpt lat="47.7945621426815" lon="7.395664001370181"><ele>225.0</ele><time>2026-03-28T07:28:57Z</time></trkpt><trkpt lat="47.79430631172537" lon="7.395791053943555"><ele>224.0</ele><time>2026-03-28T07:28:58Z</time></trkpt><trkpt lat="47.7940497164063" lon="7.39591791430042"><ele>224.0</ele><time>2026-03-28T07:28:59Z</time></trkpt><trkpt lat="47.79379488285196" lon="7.396045996435872"><ele>224.0</ele><time>2026-03-28T07:29:00Z</time></trkpt><trkpt lat="47.793538516485526" lon="7.3961730875248595"><ele>223.5</ele><time>2026-03-28T07:29:01Z</time></trkpt><trkpt lat="47.79328271629896" lon="7.396298337530849"><ele>223.0</ele><time>2026-03-28T07:29:02Z</time></trkpt><trkpt lat="47.79303226053515" lon="7.396430254250684"><ele>224.0</ele><time>2026-03-28T07:29:03Z</time></trkpt><trkpt lat="47.79277962582542" lon="7.396564382168116"><ele>225.0</ele><time>2026-03-28T07:29:04Z</time></trkpt><trkpt lat="47.79252999186733" lon="7.396703497420093"><ele>225.5</ele><time>2026-03-28T07:29:05Z</time></trkpt><trkpt lat="47.79228258666249" lon="7.39684509881958"><ele>226.0</ele><time>2026-03-28T07:29:06Z</time></trkpt><trkpt lat="47.792029870007426" lon="7.396986577788516"><ele>225.5</ele><time>2026-03-28T07:29:07Z</time></trkpt><trkpt lat="47.79177985246276" lon="7.39713187062732"><ele>225.0</ele><time>2026-03-28T07:29:08Z</time></trkpt><trkpt lat="47.79153411392366" lon="7.397280376170607"><ele>225.0</ele><time>2026-03-28T07:29:09Z</time></trkpt><trkpt lat="47.79128545878884" lon="7.397429909169673"><ele>225.0</ele><time>2026-03-28T07:29:10Z</time></trkpt><trkpt lat="47.79104252162952" lon="7.397581504649794"><ele>226.0</ele><time>2026-03-28T07:29:11Z</time></trkpt><trkpt lat="47.79079971447861" lon="7.397732599125793"><ele>227.0</ele><time>2026-03-28T07:29:12Z</time></trkpt><trkpt lat="47.79055665566816" lon="7.397884604850334"><ele>226.0</ele><time>2026-03-28T07:29:13Z</time></trkpt><trkpt lat="47.790315205482905" lon="7.39803851181667"><ele>225.0</ele><time>2026-03-28T07:29:14Z</time></trkpt><trkpt lat="47.79006989903428" lon="7.398198731945201"><ele>224.0</ele><time>2026-03-28T07:29:15Z</time></trkpt><trkpt lat="47.789826419052396" lon="7.398358216852237"><ele>223.0</ele><time>2026-03-28T07:29:16Z</time></trkpt><trkpt lat="47.789582991820275" lon="7.398514431028067"><ele>223.0</ele><time>2026-03-28T07:29:17Z</time></trkpt><trkpt lat="47.78933926973697" lon="7.398675328244591"><ele>223.0</ele><time>2026-03-28T07:29:18Z</time></trkpt><trkpt lat="47.7890993057259" lon="7.398836286772802"><ele>223.5</ele><time>2026-03-28T07:29:19Z</time></trkpt><trkpt lat="47.78885908075477" lon="7.399001655180416"><ele>224.0</ele><time>2026-03-28T07:29:20Z</time></trkpt><trkpt lat="47.788614674451026" lon="7.3991679798800085"><ele>224.5</ele><time>2026-03-28T07:29:21Z</time></trkpt><trkpt lat="47.78837136258201" lon="7.399334439380083"><ele>225.0</ele><time>2026-03-28T07:29:22Z</time></trkpt><trkpt lat="47.788128637275776" lon="7.399504249225066"><ele>224.5</ele><time>2026-03-28T07:29:23Z</time></trkpt><trkpt lat="47.78788575479127" lon="7.399675647087098"><ele>224.0</ele><time>2026-03-28T07:29:24Z</time></trkpt><trkpt lat="47.78764618313664" lon="7.399845065265412"><ele>223.5</ele><time>2026-03-28T07:29:25Z</time></trkpt><trkpt lat="47.7874060091892" lon="7.40001608329832"><ele>223.0</ele><time>2026-03-28T07:29:26Z</time></trkpt><trkpt lat="47.78716632577313" lon="7.400186722565096"><ele>223.0</ele><time>2026-03-28T07:29:27Z</time></trkpt><trkpt lat="47.78692581345408" lon="7.400355783656728"><ele>223.0</ele><time>2026-03-28T07:29:28Z</time></trkpt><trkpt lat="47.786684678305235" lon="7.400527889244816"><ele>225.0</ele><time>2026-03-28T07:29:29Z</time></trkpt><trkpt lat="47.78644475786232" lon="7.40069934908476"><ele>227.0</ele><time>2026-03-28T07:29:30Z</time></trkpt><trkpt lat="47.78620498739806" lon="7.400873191699192"><ele>225.0</ele><time>2026-03-28T07:29:31Z</time></trkpt><trkpt lat="47.78596946486998" lon="7.40104946805658"><ele>223.0</ele><time>2026-03-28T07:29:32Z</time></trkpt><trkpt lat="47.78573138616407" lon="7.401222809398113"><ele>224.5</ele><time>2026-03-28T07:29:33Z</time></trkpt><trkpt lat="47.785488745481324" lon="7.401392022296516"><ele>226.0</ele><time>2026-03-28T07:29:34Z</time></trkpt><trkpt lat="47.78524713556659" lon="7.40155490876601"><ele>226.0</ele><time>2026-03-28T07:29:35Z</time></trkpt><trkpt lat="47.78499937546701" lon="7.401710372827178"><ele>226.0</ele><time>2026-03-28T07:29:36Z</time></trkpt><trkpt lat="47.784747196775804" lon="7.401842933061148"><ele>226.0</ele><time>2026-03-28T07:29:37Z</time></trkpt><trkpt lat="47.78448901740424" lon="7.401953133125599"><ele>226.0</ele><time>2026-03-28T07:29:38Z</time></trkpt><trkpt lat="47.78422824916455" lon="7.40204234252222"><ele>228.5</ele><time>2026-03-28T07:29:39Z</time></trkpt><trkpt lat="47.7839671225768" lon="7.402123866924501"><ele>231.0</ele><time>2026-03-28T07:29:40Z</time></trkpt><trkpt lat="47.783700678526884" lon="7.402193172252983"><ele>231.0</ele><time>2026-03-28T07:29:41Z</time></trkpt><trkpt lat="47.78344251161257" lon="7.402283609602426"><ele>231.0</ele><time>2026-03-28T07:29:42Z</time></trkpt><trkpt lat="47.78317295436941" lon="7.402271640763438"><ele>231.0</ele><time>2026-03-28T07:29:43Z</time></trkpt><trkpt lat="47.782905329532284" lon="7.4022776771209955"><ele>231.0</ele><time>2026-03-28T07:29:44Z</time></trkpt><trkpt lat="47.7826369616494" lon="7.402261385845659"><ele>230.5</ele><time>2026-03-28T07:29:45Z</time></trkpt><trkpt lat="47.78237000643952" lon="7.402219807064756"><ele>230.0</ele><time>2026-03-28T07:29:46Z</time></trkpt><trkpt lat="47.78210515240604" lon="7.4021509604768125"><ele>231.0</ele><time>2026-03-28T07:29:47Z</time></trkpt><trkpt lat="47.78184489217473" lon="7.402047557793489"><ele>232.0</ele><time>2026-03-28T07:29:48Z</time></trkpt><trkpt lat="47.78158475476353" lon="7.401920997232887"><ele>232.0</ele><time>2026-03-28T07:29:49Z</time></trkpt><trkpt lat="47.781333305784145" lon="7.4017693383067895"><ele>232.0</ele><time>2026-03-28T07:29:50Z</time></trkpt><trkpt lat="47.781095930773105" lon="7.401588824319125"><ele>232.0</ele><time>2026-03-28T07:29:51Z</time></trkpt><trkpt lat="47.78086709680416" lon="7.401384645998902"><ele>232.0</ele><time>2026-03-28T07:29:52Z</time></trkpt><trkpt lat="47.78064820831432" lon="7.401157801896378"><ele>232.0</ele><time>2026-03-28T07:29:53Z</time></trkpt><trkpt lat="47.780440431950545" lon="7.40091111980395"><ele>232.0</ele><time>2026-03-28T07:29:54Z</time></trkpt><trkpt lat="47.780247391632955" lon="7.400644920462445"><ele>232.0</ele><time>2026-03-28T07:29:55Z</time></trkpt><trkpt lat="47.78006549075815" lon="7.400355248797443"><ele>232.0</ele><time>2026-03-28T07:29:56Z</time></trkpt><trkpt lat="47.77989589655974" lon="7.400045961227798"><ele>232.0</ele><time>2026-03-28T07:29:57Z</time></trkpt><trkpt lat="47.779742741662666" lon="7.399718806188969"><ele>232.0</ele><time>2026-03-28T07:29:58Z</time></trkpt><trkpt lat="47.779591082003165" lon="7.399387017178566"><ele>232.0</ele><time>2026-03-28T07:29:59Z</time></trkpt><trkpt lat="47.77945151914777" lon="7.399046257820574"><ele>232.0</ele><time>2026-03-28T07:30:00Z</time></trkpt><trkpt lat="47.77931842229065" lon="7.398696669166582"><ele>229.0</ele><time>2026-03-28T07:30:01Z</time></trkpt><trkpt lat="47.77918828845444" lon="7.398344134125238"><ele>226.0</ele><time>2026-03-28T07:30:02Z</time></trkpt><trkpt lat="47.779056307679326" lon="7.397991327575953"><ele>226.0</ele><time>2026-03-28T07:30:03Z</time></trkpt><trkpt lat="47.77892420801449" lon="7.397637487478807"><ele>226.0</ele><time>2026-03-28T07:30:04Z</time></trkpt><trkpt lat="47.7787935080698" lon="7.397288424572652"><ele>227.5</ele><time>2026-03-28T07:30:05Z</time></trkpt><trkpt lat="47.77866217098596" lon="7.396938535459127"><ele>229.0</ele><time>2026-03-28T07:30:06Z</time></trkpt><trkpt lat="47.77853029074959" lon="7.396590030594774"><ele>228.5</ele><time>2026-03-28T07:30:07Z</time></trkpt><trkpt lat="47.77839900578147" lon="7.396241357491273"><ele>228.0</ele><time>2026-03-28T07:30:08Z</time></trkpt><trkpt lat="47.77826369868148" lon="7.395895907108377"><ele>228.0</ele><time>2026-03-28T07:30:09Z</time></trkpt><trkpt lat="47.77813319095236" lon="7.395548639285843"><ele>228.0</ele><time>2026-03-28T07:30:10Z</time></trkpt><trkpt lat="47.77800449610818" lon="7.39520189034556"><ele>228.0</ele><time>2026-03-28T07:30:11Z</time></trkpt><trkpt lat="47.77787848080624" lon="7.394852726136974"><ele>228.0</ele><time>2026-03-28T07:30:12Z</time></trkpt><trkpt lat="47.77775152462106" lon="7.394510893083302"><ele>228.0</ele><time>2026-03-28T07:30:13Z</time></trkpt><trkpt lat="47.7776207891629" lon="7.394161702832569"><ele>228.0</ele><time>2026-03-28T07:30:14Z</time></trkpt><trkpt lat="47.77749092425398" lon="7.393812822390776"><ele>228.0</ele><time>2026-03-28T07:30:15Z</time></trkpt><trkpt lat="47.77735892382689" lon="7.393465055951433"><ele>228.0</ele><time>2026-03-28T07:30:16Z</time></trkpt><trkpt lat="47.77722775822006" lon="7.393121415425878"><ele>228.5</ele><time>2026-03-28T07:30:17Z</time></trkpt><trkpt lat="47.77709785039653" lon="7.392777453188157"><ele>229.0</ele><time>2026-03-28T07:30:18Z</time></trkpt><trkpt lat="47.77697266649473" lon="7.3924277267095295"><ele>230.5</ele><time>2026-03-28T07:30:19Z</time></trkpt><trkpt lat="47.77684841436549" lon="7.392075301626121"><ele>232.0</ele><time>2026-03-28T07:30:20Z</time></trkpt><trkpt lat="47.776727805495796" lon="7.391724897051319"><ele>232.0</ele><time>2026-03-28T07:30:21Z</time></trkpt><trkpt lat="47.77660544531229" lon="7.391371144727567"><ele>232.0</ele><time>2026-03-28T07:30:22Z</time></trkpt><trkpt lat="47.77648345214689" lon="7.391011280744273"><ele>232.0</ele><time>2026-03-28T07:30:23Z</time></trkpt><trkpt lat="47.77635846939987" lon="7.390654178637933"><ele>232.0</ele><time>2026-03-28T07:30:24Z</time></trkpt><trkpt lat="47.77623564502439" lon="7.390298630448139"><ele>232.0</ele><time>2026-03-28T07:30:25Z</time></trkpt><trkpt lat="47.7761119094063" lon="7.389940935935015"><ele>232.0</ele><time>2026-03-28T07:30:26Z</time></trkpt><trkpt lat="47.77598946040579" lon="7.389581374142184"><ele>230.5</ele><time>2026-03-28T07:30:27Z</time></trkpt><trkpt lat="47.775861542502106" lon="7.389224795657948"><ele>229.0</ele><time>2026-03-28T07:30:28Z</time></trkpt><trkpt lat="47.77573900370648" lon="7.388863582806859"><ele>229.5</ele><time>2026-03-28T07:30:29Z</time></trkpt><trkpt lat="47.77561574388622" lon="7.3885026544355"><ele>230.0</ele><time>2026-03-28T07:30:30Z</time></trkpt><trkpt lat="47.77549453478969" lon="7.3881450061572576"><ele>230.5</ele><time>2026-03-28T07:30:31Z</time></trkpt><trkpt lat="47.77536827753214" lon="7.387782939269994"><ele>231.0</ele><time>2026-03-28T07:30:32Z</time></trkpt><trkpt lat="47.77524612413635" lon="7.387418868797935"><ele>230.0</ele><time>2026-03-28T07:30:33Z</time></trkpt><trkpt lat="47.77512211589644" lon="7.387058093414509"><ele>229.0</ele><time>2026-03-28T07:30:34Z</time></trkpt><trkpt lat="47.77499980466253" lon="7.386697374728168"><ele>228.5</ele><time>2026-03-28T07:30:35Z</time></trkpt><trkpt lat="47.77488208235843" lon="7.386335931468577"><ele>228.0</ele><time>2026-03-28T07:30:36Z</time></trkpt><trkpt lat="47.77476278618492" lon="7.38598449830086"><ele>228.0</ele><time>2026-03-28T07:30:37Z</time></trkpt><trkpt lat="47.77464291091499" lon="7.385629858404693"><ele>228.0</ele><time>2026-03-28T07:30:38Z</time></trkpt><trkpt lat="47.77452360696229" lon="7.385272246252887"><ele>228.5</ele><time>2026-03-28T07:30:39Z</time></trkpt><trkpt lat="47.77440970477866" lon="7.384914167531924"><ele>229.0</ele><time>2026-03-28T07:30:40Z</time></trkpt><trkpt lat="47.77430083610913" lon="7.384552021534827"><ele>228.0</ele><time>2026-03-28T07:30:41Z</time></trkpt><trkpt lat="47.774200414237754" lon="7.384187662973904"><ele>227.0</ele><time>2026-03-28T07:30:42Z</time></trkpt><trkpt lat="47.77409932351507" lon="7.38381892789564"><ele>227.0</ele><time>2026-03-28T07:30:43Z</time></trkpt><trkpt lat="47.77400141425149" lon="7.3834530215939"><ele>227.0</ele><time>2026-03-28T07:30:44Z</time></trkpt><trkpt lat="47.77390340125881" lon="7.383089811662256"><ele>228.0</ele><time>2026-03-28T07:30:45Z</time></trkpt><trkpt lat="47.773810695774735" lon="7.382723662698078"><ele>229.0</ele><time>2026-03-28T07:30:46Z</time></trkpt><trkpt lat="47.773721778715505" lon="7.3823556515370905"><ele>228.5</ele><time>2026-03-28T07:30:47Z</time></trkpt><trkpt lat="47.77363810060752" lon="7.381985055846272"><ele>228.0</ele><time>2026-03-28T07:30:48Z</time></trkpt><trkpt lat="47.77355576068441" lon="7.3816106410685265"><ele>229.5</ele><time>2026-03-28T07:30:49Z</time></trkpt><trkpt lat="47.77347754244272" lon="7.381237192451032"><ele>231.0</ele><time>2026-03-28T07:30:50Z</time></trkpt><trkpt lat="47.77340052885863" lon="7.380862103616544"><ele>231.0</ele><time>2026-03-28T07:30:51Z</time></trkpt><trkpt lat="47.77333057922151" lon="7.380485324010313"><ele>231.0</ele><time>2026-03-28T07:30:52Z</time></trkpt><trkpt lat="47.77325850034194" lon="7.38009939838508"><ele>231.0</ele><time>2026-03-28T07:30:53Z</time></trkpt><trkpt lat="47.773191229954236" lon="7.379717755474878"><ele>231.0</ele><time>2026-03-28T07:30:54Z</time></trkpt><trkpt lat="47.77313279588051" lon="7.379338277060065"><ele>231.0</ele><time>2026-03-28T07:30:55Z</time></trkpt><trkpt lat="47.77307283303551" lon="7.378962263685561"><ele>231.0</ele><time>2026-03-28T07:30:56Z</time></trkpt><trkpt lat="47.77301726837356" lon="7.37857945343974"><ele>231.5</ele><time>2026-03-28T07:30:57Z</time></trkpt><trkpt lat="47.77296701593916" lon="7.378197195714743"><ele>232.0</ele><time>2026-03-28T07:30:58Z</time></trkpt><trkpt lat="47.77292131020866" lon="7.377815516282382"><ele>230.5</ele><time>2026-03-28T07:30:59Z</time></trkpt><trkpt lat="47.77287673981396" lon="7.377435723304505"><ele>229.0</ele><time>2026-03-28T07:31:00Z</time></trkpt><trkpt lat="47.77283598835292" lon="7.37705421017855"><ele>229.0</ele><time>2026-03-28T07:31:01Z</time></trkpt><trkpt lat="47.77279885144105" lon="7.376672063399745"><ele>229.0</ele><time>2026-03-28T07:31:02Z</time></trkpt><trkpt lat="47.7727642998278" lon="7.376290761255262"><ele>229.5</ele><time>2026-03-28T07:31:03Z</time></trkpt><trkpt lat="47.77273514553386" lon="7.37590621197165"><ele>230.0</ele><time>2026-03-28T07:31:04Z</time></trkpt><trkpt lat="47.7727076382281" lon="7.375522357243594"><ele>230.5</ele><time>2026-03-28T07:31:05Z</time></trkpt><trkpt lat="47.77268352439975" lon="7.375134860229658"><ele>231.0</ele><time>2026-03-28T07:31:06Z</time></trkpt><trkpt lat="47.77266269377313" lon="7.374747228098504"><ele>230.0</ele><time>2026-03-28T07:31:07Z</time></trkpt><trkpt lat="47.77264619143198" lon="7.374358784785142"><ele>229.0</ele><time>2026-03-28T07:31:08Z</time></trkpt><trkpt lat="47.77263350773678" lon="7.373972456831568"><ele>230.0</ele><time>2026-03-28T07:31:09Z</time></trkpt><trkpt lat="47.772624511623455" lon="7.373584314703861"><ele>231.0</ele><time>2026-03-28T07:31:10Z</time></trkpt><trkpt lat="47.77262013179484" lon="7.373197459558655"><ele>231.5</ele><time>2026-03-28T07:31:11Z</time></trkpt><trkpt lat="47.77261754834083" lon="7.372809354678994"><ele>232.0</ele><time>2026-03-28T07:31:12Z</time></trkpt><trkpt lat="47.772617753582665" lon="7.3724231300699445"><ele>231.5</ele><time>2026-03-28T07:31:13Z</time></trkpt><trkpt lat="47.772621383969444" lon="7.372035412372869"><ele>231.0</ele><time>2026-03-28T07:31:14Z</time></trkpt><trkpt lat="47.77262771805815" lon="7.371646433132698"><ele>230.5</ele><time>2026-03-28T07:31:15Z</time></trkpt><trkpt lat="47.772633582979154" lon="7.371258500964714"><ele>230.0</ele><time>2026-03-28T07:31:16Z</time></trkpt><trkpt lat="47.77264630399208" lon="7.370867917685077"><ele>230.0</ele><time>2026-03-28T07:31:17Z</time></trkpt><trkpt lat="47.77266303919689" lon="7.370479873510361"><ele>230.0</ele><time>2026-03-28T07:31:18Z</time></trkpt><trkpt lat="47.77268131211502" lon="7.370095471099002"><ele>230.0</ele><time>2026-03-28T07:31:19Z</time></trkpt><trkpt lat="47.772707115761115" lon="7.36970509777623"><ele>230.0</ele><time>2026-03-28T07:31:20Z</time></trkpt><trkpt lat="47.772737649850896" lon="7.369317076231632"><ele>230.0</ele><time>2026-03-28T07:31:21Z</time></trkpt><trkpt lat="47.772770165038146" lon="7.368928396318267"><ele>230.0</ele><time>2026-03-28T07:31:22Z</time></trkpt><trkpt lat="47.77280317340187" lon="7.368542650182209"><ele>230.0</ele><time>2026-03-28T07:31:23Z</time></trkpt><trkpt lat="47.772840832484725" lon="7.368158999278428"><ele>230.0</ele><time>2026-03-28T07:31:24Z</time></trkpt><trkpt lat="47.7728840286727" lon="7.367773325073026"><ele>230.0</ele><time>2026-03-28T07:31:25Z</time></trkpt><trkpt lat="47.772926373958285" lon="7.3673880264219465"><ele>230.0</ele><time>2026-03-28T07:31:26Z</time></trkpt><trkpt lat="47.772975218852814" lon="7.36700584049419"><ele>231.5</ele><time>2026-03-28T07:31:27Z</time></trkpt><trkpt lat="47.77302787426415" lon="7.366622331505989"><ele>233.0</ele><time>2026-03-28T07:31:28Z</time></trkpt><trkpt lat="47.77308354366398" lon="7.366241715896088"><ele>233.0</ele><time>2026-03-28T07:31:29Z</time></trkpt><trkpt lat="47.77313968436118" lon="7.365862041240734"><ele>233.0</ele><time>2026-03-28T07:31:30Z</time></trkpt><trkpt lat="47.77319998835971" lon="7.365482577657024"><ele>233.5</ele><time>2026-03-28T07:31:31Z</time></trkpt><trkpt lat="47.77326131088215" lon="7.3651062365744"><ele>234.0</ele><time>2026-03-28T07:31:32Z</time></trkpt><trkpt lat="47.77332688652208" lon="7.364730993493156"><ele>235.0</ele><time>2026-03-28T07:31:33Z</time></trkpt><trkpt lat="47.77339272245357" lon="7.364365073721554"><ele>236.0</ele><time>2026-03-28T07:31:34Z</time></trkpt><trkpt lat="47.77345887998388" lon="7.363998995732054"><ele>235.5</ele><time>2026-03-28T07:31:35Z</time></trkpt><trkpt lat="47.773521666703324" lon="7.363636833106921"><ele>235.0</ele><time>2026-03-28T07:31:36Z</time></trkpt><trkpt lat="47.773587861422165" lon="7.363276233837673"><ele>233.5</ele><time>2026-03-28T07:31:37Z</time></trkpt><trkpt lat="47.77365029747334" lon="7.362916920664648"><ele>232.0</ele><time>2026-03-28T07:31:38Z</time></trkpt><trkpt lat="47.773712598111175" lon="7.3625502013635815"><ele>233.0</ele><time>2026-03-28T07:31:39Z</time></trkpt><trkpt lat="47.77376845052934" lon="7.362177738421737"><ele>234.0</ele><time>2026-03-28T07:31:40Z</time></trkpt><trkpt lat="47.773823608180855" lon="7.361804965600536"><ele>234.0</ele><time>2026-03-28T07:31:41Z</time></trkpt><trkpt lat="47.77387802652109" lon="7.361425414900922"><ele>234.0</ele><time>2026-03-28T07:31:42Z</time></trkpt><trkpt lat="47.773932471152136" lon="7.361048573216773"><ele>234.0</ele><time>2026-03-28T07:31:43Z</time></trkpt><trkpt lat="47.773992149476605" lon="7.360663666116252"><ele>234.0</ele><time>2026-03-28T07:31:44Z</time></trkpt><trkpt lat="47.77404382096547" lon="7.360280439422616"><ele>234.0</ele><time>2026-03-28T07:31:45Z</time></trkpt><trkpt lat="47.77409215917198" lon="7.35989310071131"><ele>234.0</ele><time>2026-03-28T07:31:46Z</time></trkpt><trkpt lat="47.77413558181443" lon="7.3595023247689095"><ele>233.5</ele><time>2026-03-28T07:31:47Z</time></trkpt><trkpt lat="47.7741725281714" lon="7.359110816454256"><ele>233.0</ele><time>2026-03-28T07:31:48Z</time></trkpt><trkpt lat="47.77420646890873" lon="7.358716227867937"><ele>233.0</ele><time>2026-03-28T07:31:49Z</time></trkpt><trkpt lat="47.774237103734215" lon="7.358319792746696"><ele>233.0</ele><time>2026-03-28T07:31:50Z</time></trkpt><trkpt lat="47.77426128084778" lon="7.357921937448495"><ele>233.5</ele><time>2026-03-28T07:31:51Z</time></trkpt><trkpt lat="47.77428147847102" lon="7.357525453319135"><ele>234.0</ele><time>2026-03-28T07:31:52Z</time></trkpt><trkpt lat="47.774296201912364" lon="7.357125550030453"><ele>234.0</ele><time>2026-03-28T07:31:53Z</time></trkpt><trkpt lat="47.77430568699119" lon="7.356727905362972"><ele>234.0</ele><time>2026-03-28T07:31:54Z</time></trkpt><trkpt lat="47.77430785866238" lon="7.356330944355723"><ele>232.0</ele><time>2026-03-28T07:31:55Z</time></trkpt><trkpt lat="47.774303631249005" lon="7.355935007849638"><ele>230.0</ele><time>2026-03-28T07:31:56Z</time></trkpt><trkpt lat="47.77429743796026" lon="7.355537895026656"><ele>231.5</ele><time>2026-03-28T07:31:57Z</time></trkpt><trkpt lat="47.7742842809063" lon="7.355141411732373"><ele>233.0</ele><time>2026-03-28T07:31:58Z</time></trkpt><trkpt lat="47.77426998786671" lon="7.354746073622799"><ele>233.5</ele><time>2026-03-28T07:31:59Z</time></trkpt><trkpt lat="47.7742503846663" lon="7.35435421159727"><ele>234.0</ele><time>2026-03-28T07:32:00Z</time></trkpt><trkpt lat="47.77422959171479" lon="7.353962212065772"><ele>232.5</ele><time>2026-03-28T07:32:01Z</time></trkpt><trkpt lat="47.77420730879714" lon="7.353569637333693"><ele>231.0</ele><time>2026-03-28T07:32:02Z</time></trkpt><trkpt lat="47.77418178063524" lon="7.353175432589924"><ele>231.0</ele><time>2026-03-28T07:32:03Z</time></trkpt><trkpt lat="47.77414601471634" lon="7.352786936290182"><ele>231.0</ele><time>2026-03-28T07:32:04Z</time></trkpt><trkpt lat="47.774107252905" lon="7.35239546295035"><ele>231.5</ele><time>2026-03-28T07:32:05Z</time></trkpt><trkpt lat="47.774058389282075" lon="7.352012285104321"><ele>232.0</ele><time>2026-03-28T07:32:06Z</time></trkpt><trkpt lat="47.77400309843938" lon="7.35162820050746"><ele>232.0</ele><time>2026-03-28T07:32:07Z</time></trkpt><trkpt lat="47.77394262296458" lon="7.3512452775255515"><ele>232.0</ele><time>2026-03-28T07:32:08Z</time></trkpt><trkpt lat="47.773879414032" lon="7.350864365086462"><ele>231.5</ele><time>2026-03-28T07:32:09Z</time></trkpt><trkpt lat="47.77381101114709" lon="7.350484364258129"><ele>231.0</ele><time>2026-03-28T07:32:10Z</time></trkpt><trkpt lat="47.77373890193576" lon="7.350107620638227"><ele>231.0</ele><time>2026-03-28T07:32:11Z</time></trkpt><trkpt lat="47.77366295299967" lon="7.349735682512617"><ele>231.0</ele><time>2026-03-28T07:32:12Z</time></trkpt><trkpt lat="47.773580303202515" lon="7.349364858672181"><ele>231.5</ele><time>2026-03-28T07:32:13Z</time></trkpt><trkpt lat="47.77349339925395" lon="7.3489971189940455"><ele>232.0</ele><time>2026-03-28T07:32:14Z</time></trkpt><trkpt lat="47.773402815018656" lon="7.348633294103526"><ele>232.0</ele><time>2026-03-28T07:32:15Z</time></trkpt><trkpt lat="47.77330835978614" lon="7.34826913582691"><ele>232.0</ele><time>2026-03-28T07:32:16Z</time></trkpt><trkpt lat="47.773209610927466" lon="7.3479077772808346"><ele>232.0</ele><time>2026-03-28T07:32:17Z</time></trkpt><trkpt lat="47.77310585044876" lon="7.347550891886258"><ele>232.0</ele><time>2026-03-28T07:32:18Z</time></trkpt><trkpt lat="47.772996156519945" lon="7.347200901138247"><ele>232.0</ele><time>2026-03-28T07:32:19Z</time></trkpt><trkpt lat="47.77288490210738" lon="7.3468562423272346"><ele>232.0</ele><time>2026-03-28T07:32:20Z</time></trkpt><trkpt lat="47.7727668523469" lon="7.346514359023312"><ele>232.5</ele><time>2026-03-28T07:32:21Z</time></trkpt><trkpt lat="47.77264909661448" lon="7.346176443967106"><ele>233.0</ele><time>2026-03-28T07:32:22Z</time></trkpt><trkpt lat="47.77252401491977" lon="7.345828917621442"><ele>234.0</ele><time>2026-03-28T07:32:23Z</time></trkpt><trkpt lat="47.772398472706996" lon="7.345501848162418"><ele>235.0</ele><time>2026-03-28T07:32:24Z</time></trkpt><trkpt lat="47.772272443235885" lon="7.345179149177125"><ele>235.0</ele><time>2026-03-28T07:32:25Z</time></trkpt><trkpt lat="47.7721459989255" lon="7.344857903862183"><ele>235.0</ele><time>2026-03-28T07:32:26Z</time></trkpt><trkpt lat="47.77201010675466" lon="7.344546993975619"><ele>234.5</ele><time>2026-03-28T07:32:27Z</time></trkpt><trkpt lat="47.771869594367296" lon="7.34424179809882"><ele>234.0</ele><time>2026-03-28T07:32:28Z</time></trkpt><trkpt lat="47.771728641857926" lon="7.34393543558668"><ele>233.5</ele><time>2026-03-28T07:32:29Z</time></trkpt><trkpt lat="47.77158129510517" lon="7.3436309744723625"><ele>233.0</ele><time>2026-03-28T07:32:30Z</time></trkpt><trkpt lat="47.77143078111793" lon="7.343320842781229"><ele>233.0</ele><time>2026-03-28T07:32:31Z</time></trkpt><trkpt lat="47.77127499243711" lon="7.343014675359889"><ele>233.0</ele><time>2026-03-28T07:32:32Z</time></trkpt><trkpt lat="47.77111577416917" lon="7.3427133627458225"><ele>233.5</ele><time>2026-03-28T07:32:33Z</time></trkpt><trkpt lat="47.77094994672217" lon="7.342414879589462"><ele>234.0</ele><time>2026-03-28T07:32:34Z</time></trkpt><trkpt lat="47.77077991555397" lon="7.34211955379093"><ele>234.0</ele><time>2026-03-28T07:32:35Z</time></trkpt><trkpt lat="47.770604633163536" lon="7.341825925941742"><ele>234.0</ele><time>2026-03-28T07:32:36Z</time></trkpt><trkpt lat="47.770429424966466" lon="7.341534779500496"><ele>234.5</ele><time>2026-03-28T07:32:37Z</time></trkpt><trkpt lat="47.770249291543216" lon="7.341247119785402"><ele>235.0</ele><time>2026-03-28T07:32:38Z</time></trkpt><trkpt lat="47.77006415246185" lon="7.34096140543119"><ele>235.5</ele><time>2026-03-28T07:32:39Z</time></trkpt><trkpt lat="47.76988275841364" lon="7.340672911942771"><ele>236.0</ele><time>2026-03-28T07:32:40Z</time></trkpt><trkpt lat="47.76969610188" lon="7.340390182533599"><ele>236.5</ele><time>2026-03-28T07:32:41Z</time></trkpt><trkpt lat="47.76950898692092" lon="7.340100975429315"><ele>237.0</ele><time>2026-03-28T07:32:42Z</time></trkpt><trkpt lat="47.76932249117304" lon="7.339813614972642"><ele>235.5</ele><time>2026-03-28T07:32:43Z</time></trkpt><trkpt lat="47.76913615184915" lon="7.339521611886669"><ele>234.0</ele><time>2026-03-28T07:32:44Z</time></trkpt><trkpt lat="47.76894965465695" lon="7.3392315410279005"><ele>234.0</ele><time>2026-03-28T07:32:45Z</time></trkpt><trkpt lat="47.76876351470034" lon="7.338942738973794"><ele>234.0</ele><time>2026-03-28T07:32:46Z</time></trkpt><trkpt lat="47.76857844932514" lon="7.338650116030051"><ele>233.0</ele><time>2026-03-28T07:32:47Z</time></trkpt><trkpt lat="47.76839002329463" lon="7.338364569685049"><ele>232.0</ele><time>2026-03-28T07:32:48Z</time></trkpt><trkpt lat="47.76820063560917" lon="7.338078392599927"><ele>233.0</ele><time>2026-03-28T07:32:49Z</time></trkpt><trkpt lat="47.76801037212545" lon="7.337792698355218"><ele>234.0</ele><time>2026-03-28T07:32:50Z</time></trkpt><trkpt lat="47.76782255147389" lon="7.337503508450881"><ele>233.0</ele><time>2026-03-28T07:32:51Z</time></trkpt><trkpt lat="47.76764375222046" lon="7.337215752141657"><ele>232.0</ele><time>2026-03-28T07:32:52Z</time></trkpt><trkpt lat="47.76747152818669" lon="7.336919165732508"><ele>232.0</ele><time>2026-03-28T07:32:53Z</time></trkpt><trkpt lat="47.76730258456004" lon="7.336614912414475"><ele>232.0</ele><time>2026-03-28T07:32:54Z</time></trkpt><trkpt lat="47.767138403049216" lon="7.336302458168042"><ele>232.0</ele><time>2026-03-28T07:32:55Z</time></trkpt><trkpt lat="47.76698159467501" lon="7.335986713776853"><ele>232.0</ele><time>2026-03-28T07:32:56Z</time></trkpt><trkpt lat="47.76682560602195" lon="7.335669758308756"><ele>232.0</ele><time>2026-03-28T07:32:57Z</time></trkpt><trkpt lat="47.76667751715091" lon="7.3353509696935975"><ele>232.0</ele><time>2026-03-28T07:32:58Z</time></trkpt><trkpt lat="47.76653059545195" lon="7.335025968976185"><ele>232.0</ele><time>2026-03-28T07:32:59Z</time></trkpt><trkpt lat="47.766390138424015" lon="7.334698022988856"><ele>232.0</ele><time>2026-03-28T07:33:00Z</time></trkpt><trkpt lat="47.76625394834222" lon="7.334365427929061"><ele>232.0</ele><time>2026-03-28T07:33:01Z</time></trkpt><trkpt lat="47.76612349687887" lon="7.3340285240003205"><ele>232.0</ele><time>2026-03-28T07:33:02Z</time></trkpt><trkpt lat="47.765997953344716" lon="7.333689932628563"><ele>232.0</ele><time>2026-03-28T07:33:03Z</time></trkpt><trkpt lat="47.76587589413235" lon="7.333347474201367"><ele>232.0</ele><time>2026-03-28T07:33:04Z</time></trkpt><trkpt lat="47.765755079305194" lon="7.333005012027666"><ele>233.5</ele><time>2026-03-28T07:33:05Z</time></trkpt><trkpt lat="47.76563493656885" lon="7.332670466429572"><ele>235.0</ele><time>2026-03-28T07:33:06Z</time></trkpt><trkpt lat="47.765519713512894" lon="7.332330255079941"><ele>234.5</ele><time>2026-03-28T07:33:07Z</time></trkpt><trkpt lat="47.765410720962535" lon="7.331985860867783"><ele>234.0</ele><time>2026-03-28T07:33:08Z</time></trkpt><trkpt lat="47.76530564141711" lon="7.331631540039401"><ele>233.0</ele><time>2026-03-28T07:33:09Z</time></trkpt><trkpt lat="47.76520981480744" lon="7.331270412755348"><ele>232.0</ele><time>2026-03-28T07:33:10Z</time></trkpt><trkpt lat="47.76512004575109" lon="7.330902294805839"><ele>232.0</ele><time>2026-03-28T07:33:11Z</time></trkpt><trkpt lat="47.76503506595252" lon="7.3305327441691395"><ele>232.0</ele><time>2026-03-28T07:33:12Z</time></trkpt><trkpt lat="47.764948973731386" lon="7.330160867312013"><ele>232.0</ele><time>2026-03-28T07:33:13Z</time></trkpt><trkpt lat="47.76486977634032" lon="7.329786317483732"><ele>232.0</ele><time>2026-03-28T07:33:14Z</time></trkpt><trkpt lat="47.76479725862153" lon="7.329409394100321"><ele>233.0</ele><time>2026-03-28T07:33:15Z</time></trkpt><trkpt lat="47.764728960647155" lon="7.32903116992111"><ele>234.0</ele><time>2026-03-28T07:33:16Z</time></trkpt><trkpt lat="47.76466773102823" lon="7.328651015316392"><ele>235.5</ele><time>2026-03-28T07:33:17Z</time></trkpt><trkpt lat="47.76461312545899" lon="7.328262435933372"><ele>237.0</ele><time>2026-03-28T07:33:18Z</time></trkpt><trkpt lat="47.764563253888824" lon="7.327880251500325"><ele>237.0</ele><time>2026-03-28T07:33:19Z</time></trkpt><trkpt lat="47.76451463727945" lon="7.327498816356108"><ele>237.0</ele><time>2026-03-28T07:33:20Z</time></trkpt><trkpt lat="47.76447541410337" lon="7.327112326062601"><ele>236.0</ele><time>2026-03-28T07:33:21Z</time></trkpt><trkpt lat="47.764436117043" lon="7.3267253836158"><ele>235.0</ele><time>2026-03-28T07:33:22Z</time></trkpt><trkpt lat="47.76439774912186" lon="7.326335096231754"><ele>235.0</ele><time>2026-03-28T07:33:23Z</time></trkpt><trkpt lat="47.76436125125144" lon="7.325949758294704"><ele>235.0</ele><time>2026-03-28T07:33:24Z</time></trkpt><trkpt lat="47.764327264562525" lon="7.325557860742764"><ele>235.0</ele><time>2026-03-28T07:33:25Z</time></trkpt><trkpt lat="47.76429450010714" lon="7.325167192077729"><ele>235.0</ele><time>2026-03-28T07:33:26Z</time></trkpt><trkpt lat="47.76426073530454" lon="7.324776329288363"><ele>236.0</ele><time>2026-03-28T07:33:27Z</time></trkpt><trkpt lat="47.76422617543023" lon="7.324388856609859"><ele>237.0</ele><time>2026-03-28T07:33:28Z</time></trkpt><trkpt lat="47.76418615982414" lon="7.324001131513788"><ele>237.5</ele><time>2026-03-28T07:33:29Z</time></trkpt><trkpt lat="47.76414268894537" lon="7.323618243231421"><ele>238.0</ele><time>2026-03-28T07:33:30Z</time></trkpt><trkpt lat="47.76410187493863" lon="7.323229701347677"><ele>238.0</ele><time>2026-03-28T07:33:31Z</time></trkpt><trkpt lat="47.764056061599675" lon="7.322842912393349"><ele>238.0</ele><time>2026-03-28T07:33:32Z</time></trkpt><trkpt lat="47.76401451816963" lon="7.322460922434031"><ele>238.0</ele><time>2026-03-28T07:33:33Z</time></trkpt><trkpt lat="47.76396898192964" lon="7.3220757286003755"><ele>238.0</ele><time>2026-03-28T07:33:34Z</time></trkpt><trkpt lat="47.763917692110226" lon="7.321691065353083"><ele>238.0</ele><time>2026-03-28T07:33:35Z</time></trkpt><trkpt lat="47.76386584610259" lon="7.321305911056122"><ele>238.0</ele><time>2026-03-28T07:33:36Z</time></trkpt><trkpt lat="47.76380304121006" lon="7.320923258591547"><ele>236.0</ele><time>2026-03-28T07:33:37Z</time></trkpt><trkpt lat="47.76373377049878" lon="7.320541454143626"><ele>234.0</ele><time>2026-03-28T07:33:38Z</time></trkpt><trkpt lat="47.763659222805764" lon="7.320163457393689"><ele>234.0</ele><time>2026-03-28T07:33:39Z</time></trkpt><trkpt lat="47.76357216857619" lon="7.319790411265945"><ele>234.0</ele><time>2026-03-28T07:33:40Z</time></trkpt><trkpt lat="47.763486842221155" lon="7.319418952283959"><ele>234.5</ele><time>2026-03-28T07:33:41Z</time></trkpt><trkpt lat="47.7633901727155" lon="7.3190530193012595"><ele>235.0</ele><time>2026-03-28T07:33:42Z</time></trkpt><trkpt lat="47.76328827083756" lon="7.3186891354627965"><ele>235.5</ele><time>2026-03-28T07:33:43Z</time></trkpt><trkpt lat="47.76318380754883" lon="7.318327338544326"><ele>236.0</ele><time>2026-03-28T07:33:44Z</time></trkpt><trkpt lat="47.7630734905521" lon="7.317972290578406"><ele>236.5</ele><time>2026-03-28T07:33:45Z</time></trkpt><trkpt lat="47.762949500815004" lon="7.3176245365713815"><ele>237.0</ele><time>2026-03-28T07:33:46Z</time></trkpt><trkpt lat="47.76282070628501" lon="7.3172859953579215"><ele>237.5</ele><time>2026-03-28T07:33:47Z</time></trkpt><trkpt lat="47.762694956742855" lon="7.316940514753898"><ele>238.0</ele><time>2026-03-28T07:33:48Z</time></trkpt><trkpt lat="47.762560951335615" lon="7.316599265029874"><ele>237.5</ele><time>2026-03-28T07:33:49Z</time></trkpt><trkpt lat="47.762429202048274" lon="7.3162604130374245"><ele>237.0</ele><time>2026-03-28T07:33:50Z</time></trkpt><trkpt lat="47.762294785733616" lon="7.315923769336525"><ele>237.0</ele><time>2026-03-28T07:33:51Z</time></trkpt><trkpt lat="47.762157948508246" lon="7.315588483725912"><ele>237.0</ele><time>2026-03-28T07:33:52Z</time></trkpt><trkpt lat="47.762015718446776" lon="7.315256177483905"><ele>236.5</ele><time>2026-03-28T07:33:53Z</time></trkpt><trkpt lat="47.76187719261199" lon="7.314924209119776"><ele>236.0</ele><time>2026-03-28T07:33:54Z</time></trkpt><trkpt lat="47.76172835044531" lon="7.31459480422723"><ele>237.0</ele><time>2026-03-28T07:33:55Z</time></trkpt><trkpt lat="47.76157572550375" lon="7.314268407308984"><ele>238.0</ele><time>2026-03-28T07:33:56Z</time></trkpt><trkpt lat="47.76142220260729" lon="7.3139448498934945"><ele>238.0</ele><time>2026-03-28T07:33:57Z</time></trkpt><trkpt lat="47.76126493498863" lon="7.313619289638861"><ele>238.0</ele><time>2026-03-28T07:33:58Z</time></trkpt><trkpt lat="47.76110842403061" lon="7.313304762309034"><ele>236.5</ele><time>2026-03-28T07:33:59Z</time></trkpt><trkpt lat="47.760953651004186" lon="7.312988610781845"><ele>235.0</ele><time>2026-03-28T07:34:00Z</time></trkpt><trkpt lat="47.76079603168421" lon="7.312671199565777"><ele>235.0</ele><time>2026-03-28T07:34:01Z</time></trkpt><trkpt lat="47.76064890126066" lon="7.312355518518197"><ele>235.0</ele><time>2026-03-28T07:34:02Z</time></trkpt><trkpt lat="47.76048974947815" lon="7.3120428803109245"><ele>235.0</ele><time>2026-03-28T07:34:03Z</time></trkpt><trkpt lat="47.76033178964896" lon="7.311718014549708"><ele>235.0</ele><time>2026-03-28T07:34:04Z</time></trkpt><trkpt lat="47.760179867226675" lon="7.311406794324562"><ele>236.5</ele><time>2026-03-28T07:34:05Z</time></trkpt><trkpt lat="47.76004209510234" lon="7.311094799800802"><ele>238.0</ele><time>2026-03-28T07:34:06Z</time></trkpt><trkpt lat="47.75989707305855" lon="7.310768680352577"><ele>237.5</ele><time>2026-03-28T07:34:07Z</time></trkpt><trkpt lat="47.75975188604331" lon="7.310450647039364"><ele>237.0</ele><time>2026-03-28T07:34:08Z</time></trkpt><trkpt lat="47.759605206404395" lon="7.310136400022332"><ele>237.0</ele><time>2026-03-28T07:34:09Z</time></trkpt><trkpt lat="47.759459384941884" lon="7.30981630200533"><ele>237.0</ele><time>2026-03-28T07:34:10Z</time></trkpt><trkpt lat="47.7593204726483" lon="7.309488586731718"><ele>238.5</ele><time>2026-03-28T07:34:11Z</time></trkpt><trkpt lat="47.75917841304618" lon="7.309156756091364"><ele>240.0</ele><time>2026-03-28T07:34:12Z</time></trkpt><trkpt lat="47.759039654979304" lon="7.308820363225634"><ele>240.0</ele><time>2026-03-28T07:34:13Z</time></trkpt><trkpt lat="47.75890142931905" lon="7.308484802220744"><ele>240.0</ele><time>2026-03-28T07:34:14Z</time></trkpt><trkpt lat="47.758769228622114" lon="7.308141981299236"><ele>239.5</ele><time>2026-03-28T07:34:15Z</time></trkpt><trkpt lat="47.75864294602305" lon="7.307806093238488"><ele>239.0</ele><time>2026-03-28T07:34:16Z</time></trkpt><trkpt lat="47.758515484155666" lon="7.307458658792184"><ele>239.0</ele><time>2026-03-28T07:34:17Z</time></trkpt><trkpt lat="47.758397508174504" lon="7.307112169990863"><ele>239.0</ele><time>2026-03-28T07:34:18Z</time></trkpt><trkpt lat="47.758284169011695" lon="7.306766866854908"><ele>239.0</ele><time>2026-03-28T07:34:19Z</time></trkpt><trkpt lat="47.75817140165659" lon="7.306416910826705"><ele>239.0</ele><time>2026-03-28T07:34:20Z</time></trkpt><trkpt lat="47.758066320693814" lon="7.306075014229948"><ele>238.5</ele><time>2026-03-28T07:34:21Z</time></trkpt><trkpt lat="47.757959285551095" lon="7.30571772851424"><ele>238.0</ele><time>2026-03-28T07:34:22Z</time></trkpt><trkpt lat="47.75785739101674" lon="7.30535924280051"><ele>237.5</ele><time>2026-03-28T07:34:23Z</time></trkpt><trkpt lat="47.75775308636009" lon="7.30500056831548"><ele>237.0</ele><time>2026-03-28T07:34:24Z</time></trkpt><trkpt lat="47.75764714276024" lon="7.304638632668193"><ele>238.0</ele><time>2026-03-28T07:34:25Z</time></trkpt><trkpt lat="47.7575420637847" lon="7.304283665337327"><ele>239.0</ele><time>2026-03-28T07:34:26Z</time></trkpt><trkpt lat="47.757446844760814" lon="7.30391851619777"><ele>239.5</ele><time>2026-03-28T07:34:27Z</time></trkpt><trkpt lat="47.757355122123485" lon="7.303548579420063"><ele>240.0</ele><time>2026-03-28T07:34:28Z</time></trkpt><trkpt lat="47.757269569406276" lon="7.303175702249317"><ele>241.0</ele><time>2026-03-28T07:34:29Z</time></trkpt><trkpt lat="47.757183585512955" lon="7.302801769706573"><ele>242.0</ele><time>2026-03-28T07:34:30Z</time></trkpt><trkpt lat="47.75709826649395" lon="7.30242944751603"><ele>242.0</ele><time>2026-03-28T07:34:31Z</time></trkpt><trkpt lat="47.75701309304143" lon="7.302057223497187"><ele>242.0</ele><time>2026-03-28T07:34:32Z</time></trkpt><trkpt lat="47.756928410166914" lon="7.301684281032377"><ele>242.5</ele><time>2026-03-28T07:34:33Z</time></trkpt><trkpt lat="47.756843919222746" lon="7.301314255187267"><ele>243.0</ele><time>2026-03-28T07:34:34Z</time></trkpt><trkpt lat="47.75675680047415" lon="7.300941922335922"><ele>244.0</ele><time>2026-03-28T07:34:35Z</time></trkpt><trkpt lat="47.756669288217545" lon="7.300571774737714"><ele>245.0</ele><time>2026-03-28T07:34:36Z</time></trkpt><trkpt lat="47.756580361740724" lon="7.300202839120072"><ele>245.0</ele><time>2026-03-28T07:34:37Z</time></trkpt><trkpt lat="47.75648954358098" lon="7.299834316944055"><ele>245.0</ele><time>2026-03-28T07:34:38Z</time></trkpt><trkpt lat="47.75639318581161" lon="7.299467914762221"><ele>244.0</ele><time>2026-03-28T07:34:39Z</time></trkpt><trkpt lat="47.756292961111534" lon="7.299104764760112"><ele>243.0</ele><time>2026-03-28T07:34:40Z</time></trkpt><trkpt lat="47.75619111148005" lon="7.298744385182667"><ele>243.5</ele><time>2026-03-28T07:34:41Z</time></trkpt><trkpt lat="47.75608778841632" lon="7.298387778748763"><ele>244.0</ele><time>2026-03-28T07:34:42Z</time></trkpt><trkpt lat="47.75598569466231" lon="7.2980252903896545"><ele>244.0</ele><time>2026-03-28T07:34:43Z</time></trkpt><trkpt lat="47.75587459987235" lon="7.297671055247885"><ele>244.0</ele><time>2026-03-28T07:34:44Z</time></trkpt><trkpt lat="47.75576027824067" lon="7.29732882018001"><ele>243.5</ele><time>2026-03-28T07:34:45Z</time></trkpt><trkpt lat="47.75564663147444" lon="7.2969768143127345"><ele>243.0</ele><time>2026-03-28T07:34:46Z</time></trkpt><trkpt lat="47.75552572403183" lon="7.296634442461703"><ele>243.0</ele><time>2026-03-28T07:34:47Z</time></trkpt><trkpt lat="47.755404301468715" lon="7.296288278790117"><ele>243.0</ele><time>2026-03-28T07:34:48Z</time></trkpt><trkpt lat="47.755277841525356" lon="7.29594678966067"><ele>242.5</ele><time>2026-03-28T07:34:49Z</time></trkpt><trkpt lat="47.75514720364245" lon="7.295605820874828"><ele>242.0</ele><time>2026-03-28T07:34:50Z</time></trkpt><trkpt lat="47.75501115219939" lon="7.2952666183108335"><ele>243.0</ele><time>2026-03-28T07:34:51Z</time></trkpt><trkpt lat="47.75487271456927" lon="7.294931113577832"><ele>244.0</ele><time>2026-03-28T07:34:52Z</time></trkpt><trkpt lat="47.75473034687138" lon="7.294595076430738"><ele>244.0</ele><time>2026-03-28T07:34:53Z</time></trkpt><trkpt lat="47.75458767839373" lon="7.294259510070755"><ele>244.0</ele><time>2026-03-28T07:34:54Z</time></trkpt><trkpt lat="47.75444114565719" lon="7.293925114183443"><ele>245.5</ele><time>2026-03-28T07:34:55Z</time></trkpt><trkpt lat="47.754289272349475" lon="7.293597704255759"><ele>247.0</ele><time>2026-03-28T07:34:56Z</time></trkpt><trkpt lat="47.75414059604583" lon="7.2932669205612015"><ele>247.5</ele><time>2026-03-28T07:34:57Z</time></trkpt><trkpt lat="47.75398802036677" lon="7.292935575038554"><ele>248.0</ele><time>2026-03-28T07:34:58Z</time></trkpt><trkpt lat="47.75383999959325" lon="7.292605199085474"><ele>248.0</ele><time>2026-03-28T07:34:59Z</time></trkpt><trkpt lat="47.75369190235829" lon="7.292271993645389"><ele>248.0</ele><time>2026-03-28T07:35:00Z</time></trkpt><trkpt lat="47.75354299110314" lon="7.291932277924757"><ele>247.5</ele><time>2026-03-28T07:35:01Z</time></trkpt><trkpt lat="47.75339242228427" lon="7.291597687496583"><ele>247.0</ele><time>2026-03-28T07:35:02Z</time></trkpt><trkpt lat="47.75324594072645" lon="7.291268959684571"><ele>247.0</ele><time>2026-03-28T07:35:03Z</time></trkpt><trkpt lat="47.75310248877762" lon="7.290941333911729"><ele>247.0</ele><time>2026-03-28T07:35:04Z</time></trkpt><trkpt lat="47.752959583691535" lon="7.290614404468196"><ele>248.0</ele><time>2026-03-28T07:35:05Z</time></trkpt><trkpt lat="47.75282036080241" lon="7.290284006413539"><ele>249.0</ele><time>2026-03-28T07:35:06Z</time></trkpt><trkpt lat="47.75268025484009" lon="7.28995614214721"><ele>248.0</ele><time>2026-03-28T07:35:07Z</time></trkpt><trkpt lat="47.752539859533954" lon="7.289625795918023"><ele>247.0</ele><time>2026-03-28T07:35:08Z</time></trkpt><trkpt lat="47.75239796661057" lon="7.289292754297611"><ele>247.0</ele><time>2026-03-28T07:35:09Z</time></trkpt><trkpt lat="47.752255423150594" lon="7.288964295296005"><ele>247.0</ele><time>2026-03-28T07:35:10Z</time></trkpt><trkpt lat="47.7521068394528" lon="7.288635323666915"><ele>247.0</ele><time>2026-03-28T07:35:11Z</time></trkpt><trkpt lat="47.751964455786144" lon="7.288300494353352"><ele>247.0</ele><time>2026-03-28T07:35:12Z</time></trkpt><trkpt lat="47.75181981945809" lon="7.28796796320774"><ele>248.0</ele><time>2026-03-28T07:35:13Z</time></trkpt><trkpt lat="47.7516749473003" lon="7.287628697495023"><ele>249.0</ele><time>2026-03-28T07:35:14Z</time></trkpt><trkpt lat="47.751531559427846" lon="7.2872946486280625"><ele>248.5</ele><time>2026-03-28T07:35:15Z</time></trkpt><trkpt lat="47.75139000860091" lon="7.28695643385048"><ele>248.0</ele><time>2026-03-28T07:35:16Z</time></trkpt><trkpt lat="47.751249315221685" lon="7.2866177420574205"><ele>248.0</ele><time>2026-03-28T07:35:17Z</time></trkpt><trkpt lat="47.75110925228609" lon="7.286278242112882"><ele>248.0</ele><time>2026-03-28T07:35:18Z</time></trkpt><trkpt lat="47.75096709658763" lon="7.285933548571614"><ele>248.0</ele><time>2026-03-28T07:35:19Z</time></trkpt><trkpt lat="47.75082314535705" lon="7.285590443437092"><ele>248.0</ele><time>2026-03-28T07:35:20Z</time></trkpt><trkpt lat="47.75068264966584" lon="7.28524841111706"><ele>248.0</ele><time>2026-03-28T07:35:21Z</time></trkpt><trkpt lat="47.750543697952814" lon="7.284905005914559"><ele>248.0</ele><time>2026-03-28T07:35:22Z</time></trkpt><trkpt lat="47.75040654611636" lon="7.2845613229797115"><ele>248.0</ele><time>2026-03-28T07:35:23Z</time></trkpt><trkpt lat="47.75026934664486" lon="7.28421921980385"><ele>248.0</ele><time>2026-03-28T07:35:24Z</time></trkpt><trkpt lat="47.750133377708174" lon="7.28387594644094"><ele>248.0</ele><time>2026-03-28T07:35:25Z</time></trkpt><trkpt lat="47.7499988579321" lon="7.283532244869366"><ele>248.0</ele><time>2026-03-28T07:35:26Z</time></trkpt><trkpt lat="47.749864428519" lon="7.283187232339091"><ele>250.0</ele><time>2026-03-28T07:35:27Z</time></trkpt><trkpt lat="47.74973240982224" lon="7.282846311063191"><ele>252.0</ele><time>2026-03-28T07:35:28Z</time></trkpt><trkpt lat="47.74960338933735" lon="7.282503152845156"><ele>252.5</ele><time>2026-03-28T07:35:29Z</time></trkpt><trkpt lat="47.74947328612428" lon="7.282156523066851"><ele>253.0</ele><time>2026-03-28T07:35:30Z</time></trkpt><trkpt lat="47.74934485626958" lon="7.281808849086084"><ele>251.0</ele><time>2026-03-28T07:35:31Z</time></trkpt><trkpt lat="47.7492155939193" lon="7.281458887056137"><ele>249.0</ele><time>2026-03-28T07:35:32Z</time></trkpt><trkpt lat="47.74908887330841" lon="7.281108784571653"><ele>249.0</ele><time>2026-03-28T07:35:33Z</time></trkpt><trkpt lat="47.74896237890175" lon="7.280758880222162"><ele>249.0</ele><time>2026-03-28T07:35:34Z</time></trkpt><trkpt lat="47.74884164208043" lon="7.280408612077922"><ele>250.5</ele><time>2026-03-28T07:35:35Z</time></trkpt><trkpt lat="47.748719390359355" lon="7.280058755062696"><ele>252.0</ele><time>2026-03-28T07:35:36Z</time></trkpt><trkpt lat="47.74859516865079" lon="7.2797076455496725"><ele>251.5</ele><time>2026-03-28T07:35:37Z</time></trkpt><trkpt lat="47.74847438214198" lon="7.279353789334159"><ele>251.0</ele><time>2026-03-28T07:35:38Z</time></trkpt><trkpt lat="47.74835216521361" lon="7.2789993389609196"><ele>250.0</ele><time>2026-03-28T07:35:39Z</time></trkpt><trkpt lat="47.748234723992475" lon="7.2786393063506365"><ele>249.0</ele><time>2026-03-28T07:35:40Z</time></trkpt><trkpt lat="47.748116440947804" lon="7.278284980819429"><ele>248.0</ele><time>2026-03-28T07:35:41Z</time></trkpt><trkpt lat="47.74800285781499" lon="7.277929345672136"><ele>247.0</ele><time>2026-03-28T07:35:42Z</time></trkpt><trkpt lat="47.747886889256236" lon="7.277570995220355"><ele>248.0</ele><time>2026-03-28T07:35:43Z</time></trkpt><trkpt lat="47.747773548910644" lon="7.2772134957807415"><ele>249.0</ele><time>2026-03-28T07:35:44Z</time></trkpt><trkpt lat="47.74765869486525" lon="7.276853360161726"><ele>250.0</ele><time>2026-03-28T07:35:45Z</time></trkpt><trkpt lat="47.747546396059064" lon="7.276494308518711"><ele>251.0</ele><time>2026-03-28T07:35:46Z</time></trkpt><trkpt lat="47.747436908829364" lon="7.27613856862523"><ele>251.5</ele><time>2026-03-28T07:35:47Z</time></trkpt><trkpt lat="47.747327997280415" lon="7.275782230093238"><ele>252.0</ele><time>2026-03-28T07:35:48Z</time></trkpt><trkpt lat="47.747218632287314" lon="7.2754241057761355"><ele>252.0</ele><time>2026-03-28T07:35:49Z</time></trkpt><trkpt lat="47.74712150109239" lon="7.275082520654942"><ele>252.0</ele><time>2026-03-28T07:35:50Z</time></trkpt><trkpt lat="47.74701575627908" lon="7.274710910827758"><ele>251.0</ele><time>2026-03-28T07:35:51Z</time></trkpt><trkpt lat="47.746913112772475" lon="7.274344476096968"><ele>250.0</ele><time>2026-03-28T07:35:52Z</time></trkpt><trkpt lat="47.74681193389636" lon="7.273978143790238"><ele>249.5</ele><time>2026-03-28T07:35:53Z</time></trkpt><trkpt lat="47.746710826511595" lon="7.273616403723289"><ele>249.0</ele><time>2026-03-28T07:35:54Z</time></trkpt><trkpt lat="47.74661101304347" lon="7.273251476018022"><ele>249.0</ele><time>2026-03-28T07:35:55Z</time></trkpt><trkpt lat="47.746511259175" lon="7.272887300130273"><ele>249.0</ele><time>2026-03-28T07:35:56Z</time></trkpt><trkpt lat="47.74641338064436" lon="7.272524242156063"><ele>248.5</ele><time>2026-03-28T07:35:57Z</time></trkpt><trkpt lat="47.746318192129884" lon="7.272158339035612"><ele>248.0</ele><time>2026-03-28T07:35:58Z</time></trkpt><trkpt lat="47.746224542019085" lon="7.2717902654891295"><ele>248.0</ele><time>2026-03-28T07:35:59Z</time></trkpt><trkpt lat="47.74613327512987" lon="7.271420972271289"><ele>248.0</ele><time>2026-03-28T07:36:00Z</time></trkpt><trkpt lat="47.74604227052586" lon="7.271050435648839"><ele>249.0</ele><time>2026-03-28T07:36:01Z</time></trkpt><trkpt lat="47.7459540525211" lon="7.270679814728211"><ele>250.0</ele><time>2026-03-28T07:36:02Z</time></trkpt><trkpt lat="47.7458649816847" lon="7.270309968588021"><ele>250.0</ele><time>2026-03-28T07:36:03Z</time></trkpt><trkpt lat="47.745779871166334" lon="7.269940259671806"><ele>250.0</ele><time>2026-03-28T07:36:04Z</time></trkpt><trkpt lat="47.74569449027944" lon="7.269571145700849"><ele>250.0</ele><time>2026-03-28T07:36:05Z</time></trkpt><trkpt lat="47.745611615479824" lon="7.269200292773711"><ele>250.0</ele><time>2026-03-28T07:36:06Z</time></trkpt><trkpt lat="47.74552320186705" lon="7.268832088234084"><ele>249.5</ele><time>2026-03-28T07:36:07Z</time></trkpt><trkpt lat="47.74544013970351" lon="7.268462224220813"><ele>249.0</ele><time>2026-03-28T07:36:08Z</time></trkpt><trkpt lat="47.74535873061759" lon="7.268091855283562"><ele>250.0</ele><time>2026-03-28T07:36:09Z</time></trkpt><trkpt lat="47.74527822541328" lon="7.2677209079801335"><ele>251.0</ele><time>2026-03-28T07:36:10Z</time></trkpt><trkpt lat="47.74519933099884" lon="7.267347653810772"><ele>251.5</ele><time>2026-03-28T07:36:11Z</time></trkpt><trkpt lat="47.74512143738158" lon="7.266966716845796"><ele>252.0</ele><time>2026-03-28T07:36:12Z</time></trkpt><trkpt lat="47.745047819891845" lon="7.266590454560182"><ele>251.5</ele><time>2026-03-28T07:36:13Z</time></trkpt><trkpt lat="47.74497241501122" lon="7.266218226820991"><ele>251.0</ele><time>2026-03-28T07:36:14Z</time></trkpt><trkpt lat="47.7449000586891" lon="7.265841515624739"><ele>251.0</ele><time>2026-03-28T07:36:15Z</time></trkpt><trkpt lat="47.744831311757466" lon="7.265464802469758"><ele>251.0</ele><time>2026-03-28T07:36:16Z</time></trkpt><trkpt lat="47.74475764747999" lon="7.265086746821714"><ele>253.5</ele><time>2026-03-28T07:36:17Z</time></trkpt><trkpt lat="47.74468213034272" lon="7.264709685624627"><ele>256.0</ele><time>2026-03-28T07:36:18Z</time></trkpt><trkpt lat="47.74461057758148" lon="7.264333971623061"><ele>256.0</ele><time>2026-03-28T07:36:19Z</time></trkpt><trkpt lat="47.74453944251699" lon="7.263954695887168"><ele>256.0</ele><time>2026-03-28T07:36:20Z</time></trkpt><trkpt lat="47.74446751128449" lon="7.263581219202114"><ele>255.5</ele><time>2026-03-28T07:36:21Z</time></trkpt><trkpt lat="47.74439791576825" lon="7.263205237545543"><ele>255.0</ele><time>2026-03-28T07:36:22Z</time></trkpt><trkpt lat="47.74433215809733" lon="7.2628242842776585"><ele>255.0</ele><time>2026-03-28T07:36:23Z</time></trkpt><trkpt lat="47.744269880728645" lon="7.262442175181467"><ele>255.0</ele><time>2026-03-28T07:36:24Z</time></trkpt><trkpt lat="47.74420590600627" lon="7.262059966885138"><ele>255.5</ele><time>2026-03-28T07:36:25Z</time></trkpt><trkpt lat="47.744141719631834" lon="7.261687193632663"><ele>256.0</ele><time>2026-03-28T07:36:26Z</time></trkpt><trkpt lat="47.744083976739574" lon="7.261300933505003"><ele>256.0</ele><time>2026-03-28T07:36:27Z</time></trkpt><trkpt lat="47.74402883065699" lon="7.260922036474636"><ele>256.0</ele><time>2026-03-28T07:36:28Z</time></trkpt><trkpt lat="47.74397093987205" lon="7.260541409422906"><ele>255.0</ele><time>2026-03-28T07:36:29Z</time></trkpt><trkpt lat="47.74391233256225" lon="7.260158799278095"><ele>254.0</ele><time>2026-03-28T07:36:30Z</time></trkpt><trkpt lat="47.74386013998798" lon="7.259780155065234"><ele>253.5</ele><time>2026-03-28T07:36:31Z</time></trkpt><trkpt lat="47.743814667100324" lon="7.259397490543974"><ele>253.0</ele><time>2026-03-28T07:36:32Z</time></trkpt><trkpt lat="47.74376829254335" lon="7.259015464740661"><ele>252.5</ele><time>2026-03-28T07:36:33Z</time></trkpt><trkpt lat="47.7437222803003" lon="7.2586260479100115"><ele>252.0</ele><time>2026-03-28T07:36:34Z</time></trkpt><trkpt lat="47.74367587837938" lon="7.258239913970355"><ele>252.0</ele><time>2026-03-28T07:36:35Z</time></trkpt><trkpt lat="47.74362939079433" lon="7.257855771062509"><ele>252.0</ele><time>2026-03-28T07:36:36Z</time></trkpt><trkpt lat="47.743578657633904" lon="7.257473392004886"><ele>253.0</ele><time>2026-03-28T07:36:37Z</time></trkpt><trkpt lat="47.74353080486203" lon="7.2570878786320545"><ele>254.0</ele><time>2026-03-28T07:36:38Z</time></trkpt><trkpt lat="47.74348651313633" lon="7.256704417765436"><ele>254.0</ele><time>2026-03-28T07:36:39Z</time></trkpt><trkpt lat="47.74344460153789" lon="7.256324187157909"><ele>254.0</ele><time>2026-03-28T07:36:40Z</time></trkpt><trkpt lat="47.74340440417108" lon="7.255943278659562"><ele>254.5</ele><time>2026-03-28T07:36:41Z</time></trkpt><trkpt lat="47.743363063860066" lon="7.255565133069233"><ele>255.0</ele><time>2026-03-28T07:36:42Z</time></trkpt><trkpt lat="47.74332257787042" lon="7.25518774398293"><ele>255.0</ele><time>2026-03-28T07:36:43Z</time></trkpt><trkpt lat="47.74328338269739" lon="7.2548080978223055"><ele>255.0</ele><time>2026-03-28T07:36:44Z</time></trkpt><trkpt lat="47.74324328163808" lon="7.254431851239335"><ele>254.5</ele><time>2026-03-28T07:36:45Z</time></trkpt><trkpt lat="47.743202410451495" lon="7.254055555883106"><ele>254.0</ele><time>2026-03-28T07:36:46Z</time></trkpt><trkpt lat="47.7431592850103" lon="7.253682024938607"><ele>254.0</ele><time>2026-03-28T07:36:47Z</time></trkpt><trkpt lat="47.743117942985286" lon="7.253317650851064"><ele>254.0</ele><time>2026-03-28T07:36:48Z</time></trkpt><trkpt lat="47.743073239257576" lon="7.252951280382869"><ele>254.0</ele><time>2026-03-28T07:36:49Z</time></trkpt><trkpt lat="47.74302368422228" lon="7.252585972988144"><ele>254.0</ele><time>2026-03-28T07:36:50Z</time></trkpt><trkpt lat="47.74297916583153" lon="7.25222077870974"><ele>254.0</ele><time>2026-03-28T07:36:51Z</time></trkpt><trkpt lat="47.742935435558486" lon="7.251852140954253"><ele>254.0</ele><time>2026-03-28T07:36:52Z</time></trkpt><trkpt lat="47.74289024028744" lon="7.251480712241336"><ele>254.0</ele><time>2026-03-28T07:36:53Z</time></trkpt><trkpt lat="47.742844644398104" lon="7.251107823701315"><ele>254.0</ele><time>2026-03-28T07:36:54Z</time></trkpt><trkpt lat="47.74280074960643" lon="7.250732581069746"><ele>254.5</ele><time>2026-03-28T07:36:55Z</time></trkpt><trkpt lat="47.7427594125275" lon="7.250355942312312"><ele>255.0</ele><time>2026-03-28T07:36:56Z</time></trkpt><trkpt lat="47.742719155548" lon="7.249976894624169"><ele>254.5</ele><time>2026-03-28T07:36:57Z</time></trkpt><trkpt lat="47.74267819773689" lon="7.249588902188539"><ele>254.0</ele><time>2026-03-28T07:36:58Z</time></trkpt><trkpt lat="47.742633178567054" lon="7.249198727090363"><ele>254.5</ele><time>2026-03-28T07:36:59Z</time></trkpt><trkpt lat="47.742590929295126" lon="7.248808018642232"><ele>255.0</ele><time>2026-03-28T07:37:00Z</time></trkpt><trkpt lat="47.74254934550177" lon="7.248418344370821"><ele>254.5</ele><time>2026-03-28T07:37:01Z</time></trkpt><trkpt lat="47.742511265650464" lon="7.248027758536988"><ele>254.0</ele><time>2026-03-28T07:37:02Z</time></trkpt><trkpt lat="47.742470392907265" lon="7.247632174307244"><ele>254.0</ele><time>2026-03-28T07:37:03Z</time></trkpt><trkpt lat="47.74242383786362" lon="7.247238658733174"><ele>254.0</ele><time>2026-03-28T07:37:04Z</time></trkpt><trkpt lat="47.74238001421499" lon="7.246838337354083"><ele>255.0</ele><time>2026-03-28T07:37:05Z</time></trkpt><trkpt lat="47.74233908673487" lon="7.246441224016801"><ele>256.0</ele><time>2026-03-28T07:37:06Z</time></trkpt><trkpt lat="47.742295774757764" lon="7.246042041835562"><ele>256.0</ele><time>2026-03-28T07:37:07Z</time></trkpt><trkpt lat="47.74225181149007" lon="7.245641910128127"><ele>256.0</ele><time>2026-03-28T07:37:08Z</time></trkpt><trkpt lat="47.74220784923184" lon="7.245240025375277"><ele>257.5</ele><time>2026-03-28T07:37:09Z</time></trkpt><trkpt lat="47.74216515049158" lon="7.244839342195526"><ele>259.0</ele><time>2026-03-28T07:37:10Z</time></trkpt><trkpt lat="47.74212169504279" lon="7.244437508277527"><ele>261.5</ele><time>2026-03-28T07:37:11Z</time></trkpt><trkpt lat="47.74207666854333" lon="7.244036477956282"><ele>264.0</ele><time>2026-03-28T07:37:12Z</time></trkpt><trkpt lat="47.74203124888219" lon="7.243636181011137"><ele>264.5</ele><time>2026-03-28T07:37:13Z</time></trkpt><trkpt lat="47.741987610388065" lon="7.243238720470224"><ele>265.0</ele><time>2026-03-28T07:37:14Z</time></trkpt><trkpt lat="47.74194517298127" lon="7.242839474193526"><ele>265.5</ele><time>2026-03-28T07:37:15Z</time></trkpt><trkpt lat="47.741903515285884" lon="7.2424388304707135"><ele>266.0</ele><time>2026-03-28T07:37:16Z</time></trkpt><trkpt lat="47.74186087158265" lon="7.242041780406189"><ele>262.5</ele><time>2026-03-28T07:37:17Z</time></trkpt><trkpt lat="47.74182235217802" lon="7.2416426145879695"><ele>259.0</ele><time>2026-03-28T07:37:18Z</time></trkpt><trkpt lat="47.7417875777255" lon="7.241249982769464"><ele>259.0</ele><time>2026-03-28T07:37:19Z</time></trkpt><trkpt lat="47.74175262359493" lon="7.240855136673656"><ele>259.0</ele><time>2026-03-28T07:37:20Z</time></trkpt><trkpt lat="47.74171844175141" lon="7.240461329517967"><ele>258.0</ele><time>2026-03-28T07:37:21Z</time></trkpt><trkpt lat="47.741682322655066" lon="7.240066267348109"><ele>257.0</ele><time>2026-03-28T07:37:22Z</time></trkpt><trkpt lat="47.74164578370873" lon="7.23967194381714"><ele>257.0</ele><time>2026-03-28T07:37:23Z</time></trkpt><trkpt lat="47.74160131537169" lon="7.239280170438452"><ele>257.0</ele><time>2026-03-28T07:37:24Z</time></trkpt><trkpt lat="47.741556421749856" lon="7.238889418888036"><ele>257.5</ele><time>2026-03-28T07:37:25Z</time></trkpt><trkpt lat="47.741514317953275" lon="7.238500159450703"><ele>258.0</ele><time>2026-03-28T07:37:26Z</time></trkpt><trkpt lat="47.74147291768749" lon="7.238106603312326"><ele>258.5</ele><time>2026-03-28T07:37:27Z</time></trkpt><trkpt lat="47.741429753270715" lon="7.237715242943356"><ele>259.0</ele><time>2026-03-28T07:37:28Z</time></trkpt><trkpt lat="47.74138760129006" lon="7.237324008155647"><ele>259.5</ele><time>2026-03-28T07:37:29Z</time></trkpt><trkpt lat="47.74134383672015" lon="7.2369354154268635"><ele>260.0</ele><time>2026-03-28T07:37:30Z</time></trkpt><trkpt lat="47.741297441352096" lon="7.236544342175821"><ele>259.5</ele><time>2026-03-28T07:37:31Z</time></trkpt><trkpt lat="47.74124980158231" lon="7.236157261462303"><ele>259.0</ele><time>2026-03-28T07:37:32Z</time></trkpt><trkpt lat="47.74120255006154" lon="7.23576953326653"><ele>258.5</ele><time>2026-03-28T07:37:33Z</time></trkpt><trkpt lat="47.74115421683222" lon="7.235385892628726"><ele>258.0</ele><time>2026-03-28T07:37:34Z</time></trkpt><trkpt lat="47.741107214316216" lon="7.235006788573674"><ele>258.0</ele><time>2026-03-28T07:37:35Z</time></trkpt><trkpt lat="47.74105884383285" lon="7.234632745232833"><ele>258.0</ele><time>2026-03-28T07:37:36Z</time></trkpt><trkpt lat="47.741009888479525" lon="7.23426222548208"><ele>258.5</ele><time>2026-03-28T07:37:37Z</time></trkpt><trkpt lat="47.740958488748795" lon="7.233891205440702"><ele>259.0</ele><time>2026-03-28T07:37:38Z</time></trkpt><trkpt lat="47.74090966570029" lon="7.233520711350042"><ele>259.0</ele><time>2026-03-28T07:37:39Z</time></trkpt><trkpt lat="47.74085971761544" lon="7.233150400326746"><ele>259.0</ele><time>2026-03-28T07:37:40Z</time></trkpt><trkpt lat="47.740806766432954" lon="7.232779791399378"><ele>259.0</ele><time>2026-03-28T07:37:41Z</time></trkpt><trkpt lat="47.74075101533803" lon="7.232406359063911"><ele>259.0</ele><time>2026-03-28T07:37:42Z</time></trkpt><trkpt lat="47.74069590737945" lon="7.232027999985262"><ele>259.0</ele><time>2026-03-28T07:37:43Z</time></trkpt><trkpt lat="47.740640499075894" lon="7.231651186685743"><ele>259.0</ele><time>2026-03-28T07:37:44Z</time></trkpt><trkpt lat="47.74058141374848" lon="7.23127634976167"><ele>259.0</ele><time>2026-03-28T07:37:45Z</time></trkpt><trkpt lat="47.74052301488343" lon="7.230897713416384"><ele>259.0</ele><time>2026-03-28T07:37:46Z</time></trkpt><trkpt lat="47.74046069554949" lon="7.230522559698527"><ele>259.5</ele><time>2026-03-28T07:37:47Z</time></trkpt><trkpt lat="47.740400357915746" lon="7.230145259083386"><ele>260.0</ele><time>2026-03-28T07:37:48Z</time></trkpt><trkpt lat="47.74033695969215" lon="7.229771932816244"><ele>260.0</ele><time>2026-03-28T07:37:49Z</time></trkpt><trkpt lat="47.740273566187234" lon="7.229398189543239"><ele>260.0</ele><time>2026-03-28T07:37:50Z</time></trkpt><trkpt lat="47.74021106316091" lon="7.229019876444856"><ele>259.5</ele><time>2026-03-28T07:37:51Z</time></trkpt><trkpt lat="47.740147891533745" lon="7.22864699678404"><ele>259.0</ele><time>2026-03-28T07:37:52Z</time></trkpt><trkpt lat="47.74008416921968" lon="7.228272922577089"><ele>260.0</ele><time>2026-03-28T07:37:53Z</time></trkpt><trkpt lat="47.74001651834469" lon="7.22790572903153"><ele>261.0</ele><time>2026-03-28T07:37:54Z</time></trkpt><trkpt lat="47.73995045388891" lon="7.2275360281234375"><ele>261.0</ele><time>2026-03-28T07:37:55Z</time></trkpt><trkpt lat="47.739883514931066" lon="7.227172420926056"><ele>261.0</ele><time>2026-03-28T07:37:56Z</time></trkpt><trkpt lat="47.739816477638286" lon="7.226810666054839"><ele>260.5</ele><time>2026-03-28T07:37:57Z</time></trkpt><trkpt lat="47.73974797230793" lon="7.226447437857647"><ele>260.0</ele><time>2026-03-28T07:37:58Z</time></trkpt><trkpt lat="47.73967948816141" lon="7.22609009628744"><ele>260.0</ele><time>2026-03-28T07:37:59Z</time></trkpt><trkpt lat="47.739609821058316" lon="7.22573280791558"><ele>260.0</ele><time>2026-03-28T07:38:00Z</time></trkpt><trkpt lat="47.73954153347948" lon="7.225377525862267"><ele>260.5</ele><time>2026-03-28T07:38:01Z</time></trkpt><trkpt lat="47.73947275393291" lon="7.22502598051409"><ele>261.0</ele><time>2026-03-28T07:38:02Z</time></trkpt><trkpt lat="47.73940216350623" lon="7.224676487477235"><ele>261.0</ele><time>2026-03-28T07:38:03Z</time></trkpt><trkpt lat="47.73933048089384" lon="7.224327023241537"><ele>261.0</ele><time>2026-03-28T07:38:04Z</time></trkpt><trkpt lat="47.73926121696605" lon="7.22397063520473"><ele>261.0</ele><time>2026-03-28T07:38:05Z</time></trkpt><trkpt lat="47.73918624549614" lon="7.223620549026391"><ele>261.0</ele><time>2026-03-28T07:38:06Z</time></trkpt><trkpt lat="47.73910365622005" lon="7.223274678361757"><ele>262.5</ele><time>2026-03-28T07:38:07Z</time></trkpt><trkpt lat="47.739015551640684" lon="7.222929024452273"><ele>264.0</ele><time>2026-03-28T07:38:08Z</time></trkpt><trkpt lat="47.738929814284944" lon="7.222580649153797"><ele>263.0</ele><time>2026-03-28T07:38:09Z</time></trkpt><trkpt lat="47.73884981558825" lon="7.22222607078497"><ele>262.0</ele><time>2026-03-28T07:38:10Z</time></trkpt><trkpt lat="47.73876610269112" lon="7.221873477845876"><ele>262.0</ele><time>2026-03-28T07:38:11Z</time></trkpt><trkpt lat="47.73868592324798" lon="7.221517117060829"><ele>262.0</ele><time>2026-03-28T07:38:12Z</time></trkpt><trkpt lat="47.73860282421399" lon="7.2211594976452895"><ele>262.5</ele><time>2026-03-28T07:38:13Z</time></trkpt><trkpt lat="47.738520297314096" lon="7.220797279845611"><ele>263.0</ele><time>2026-03-28T07:38:14Z</time></trkpt><trkpt lat="47.73843800169301" lon="7.2204329387759545"><ele>263.5</ele><time>2026-03-28T07:38:15Z</time></trkpt><trkpt lat="47.7383528991904" lon="7.220071163865196"><ele>264.0</ele><time>2026-03-28T07:38:16Z</time></trkpt><trkpt lat="47.73826629125448" lon="7.219707077375946"><ele>264.0</ele><time>2026-03-28T07:38:17Z</time></trkpt><trkpt lat="47.738182429921004" lon="7.219340141098613"><ele>264.0</ele><time>2026-03-28T07:38:18Z</time></trkpt><trkpt lat="47.738091950217836" lon="7.218972134024565"><ele>264.0</ele><time>2026-03-28T07:38:19Z</time></trkpt><trkpt lat="47.738001737336404" lon="7.21860269085884"><ele>264.0</ele><time>2026-03-28T07:38:20Z</time></trkpt><trkpt lat="47.73791076147587" lon="7.218232606294887"><ele>264.5</ele><time>2026-03-28T07:38:21Z</time></trkpt><trkpt lat="47.73781779668777" lon="7.217862670806341"><ele>265.0</ele><time>2026-03-28T07:38:22Z</time></trkpt><trkpt lat="47.73772510862881" lon="7.217490575725326"><ele>265.5</ele><time>2026-03-28T07:38:23Z</time></trkpt><trkpt lat="47.7376292536075" lon="7.217117919569324"><ele>266.0</ele><time>2026-03-28T07:38:24Z</time></trkpt><trkpt lat="47.737533649674916" lon="7.216743373436006"><ele>265.5</ele><time>2026-03-28T07:38:25Z</time></trkpt><trkpt lat="47.73743432561223" lon="7.2163712958893536"><ele>265.0</ele><time>2026-03-28T07:38:26Z</time></trkpt><trkpt lat="47.73733535518938" lon="7.216001592401527"><ele>264.5</ele><time>2026-03-28T07:38:27Z</time></trkpt><trkpt lat="47.737242157228415" lon="7.215628958423159"><ele>264.0</ele><time>2026-03-28T07:38:28Z</time></trkpt><trkpt lat="47.73714940337989" lon="7.215260946730936"><ele>264.0</ele><time>2026-03-28T07:38:29Z</time></trkpt><trkpt lat="47.737059045337396" lon="7.214889125465493"><ele>264.0</ele><time>2026-03-28T07:38:30Z</time></trkpt><trkpt lat="47.73696606493853" lon="7.214519047739565"><ele>264.0</ele><time>2026-03-28T07:38:31Z</time></trkpt><trkpt lat="47.73686780681081" lon="7.214153436114657"><ele>264.0</ele><time>2026-03-28T07:38:32Z</time></trkpt><trkpt lat="47.73676923648383" lon="7.213788938077418"><ele>265.0</ele><time>2026-03-28T07:38:33Z</time></trkpt><trkpt lat="47.73666642613809" lon="7.213428418816852"><ele>266.0</ele><time>2026-03-28T07:38:34Z</time></trkpt><trkpt lat="47.73656539720029" lon="7.213068424661179"><ele>266.5</ele><time>2026-03-28T07:38:35Z</time></trkpt><trkpt lat="47.73646359531172" lon="7.212710286917505"><ele>267.0</ele><time>2026-03-28T07:38:36Z</time></trkpt><trkpt lat="47.73636094534632" lon="7.212354062694207"><ele>267.0</ele><time>2026-03-28T07:38:37Z</time></trkpt><trkpt lat="47.73625754002268" lon="7.211998969676499"><ele>267.0</ele><time>2026-03-28T07:38:38Z</time></trkpt><trkpt lat="47.7361550067718" lon="7.211642122762671"><ele>267.5</ele><time>2026-03-28T07:38:39Z</time></trkpt><trkpt lat="47.73605223081017" lon="7.211286002529591"><ele>268.0</ele><time>2026-03-28T07:38:40Z</time></trkpt><trkpt lat="47.735950615546" lon="7.210930234327568"><ele>268.0</ele><time>2026-03-28T07:38:41Z</time></trkpt><trkpt lat="47.735849261588505" lon="7.2105748616466805"><ele>268.0</ele><time>2026-03-28T07:38:42Z</time></trkpt><trkpt lat="47.7357485631248" lon="7.210222078919305"><ele>268.0</ele><time>2026-03-28T07:38:43Z</time></trkpt><trkpt lat="47.73565029884572" lon="7.2098712865620245"><ele>268.0</ele><time>2026-03-28T07:38:44Z</time></trkpt><trkpt lat="47.735552217804795" lon="7.20952432317118"><ele>268.0</ele><time>2026-03-28T07:38:45Z</time></trkpt><trkpt lat="47.735454423511854" lon="7.209180015802596"><ele>268.0</ele><time>2026-03-28T07:38:46Z</time></trkpt><trkpt lat="47.7353546808179" lon="7.208835333630517"><ele>267.5</ele><time>2026-03-28T07:38:47Z</time></trkpt><trkpt lat="47.73525320330168" lon="7.20849018144723"><ele>267.0</ele><time>2026-03-28T07:38:48Z</time></trkpt><trkpt lat="47.73515358662057" lon="7.208144288126608"><ele>268.5</ele><time>2026-03-28T07:38:49Z</time></trkpt><trkpt lat="47.735056303060674" lon="7.207796977804934"><ele>270.0</ele><time>2026-03-28T07:38:50Z</time></trkpt><trkpt lat="47.734958286769405" lon="7.207450360270188"><ele>270.0</ele><time>2026-03-28T07:38:51Z</time></trkpt><trkpt lat="47.73486068099488" lon="7.20710454888673"><ele>270.0</ele><time>2026-03-28T07:38:52Z</time></trkpt><trkpt lat="47.7347632793258" lon="7.206758211252806"><ele>270.0</ele><time>2026-03-28T07:38:53Z</time></trkpt><trkpt lat="47.73466545266201" lon="7.206412506723741"><ele>270.0</ele><time>2026-03-28T07:38:54Z</time></trkpt><trkpt lat="47.73456278968561" lon="7.206066485501812"><ele>270.0</ele><time>2026-03-28T07:38:55Z</time></trkpt><trkpt lat="47.734458085572236" lon="7.20571969065073"><ele>270.0</ele><time>2026-03-28T07:38:56Z</time></trkpt><trkpt lat="47.734349746165776" lon="7.20537420187997"><ele>270.0</ele><time>2026-03-28T07:38:57Z</time></trkpt><trkpt lat="47.73424165129814" lon="7.20502571168309"><ele>270.0</ele><time>2026-03-28T07:38:58Z</time></trkpt><trkpt lat="47.73413612992225" lon="7.2046745972704205"><ele>270.0</ele><time>2026-03-28T07:38:59Z</time></trkpt><trkpt lat="47.73403012688544" lon="7.204321485539882"><ele>270.0</ele><time>2026-03-28T07:39:00Z</time></trkpt><trkpt lat="47.73392475429385" lon="7.2039644409861125"><ele>270.0</ele><time>2026-03-28T07:39:01Z</time></trkpt><trkpt lat="47.73382060429051" lon="7.203606225048585"><ele>270.0</ele><time>2026-03-28T07:39:02Z</time></trkpt><trkpt lat="47.733717806644066" lon="7.203246578205913"><ele>270.5</ele><time>2026-03-28T07:39:03Z</time></trkpt><trkpt lat="47.733615234366304" lon="7.202885882979401"><ele>271.0</ele><time>2026-03-28T07:39:04Z</time></trkpt><trkpt lat="47.7335148156075" lon="7.202522743627585"><ele>271.0</ele><time>2026-03-28T07:39:05Z</time></trkpt><trkpt lat="47.73341201182392" lon="7.20215995222623"><ele>271.0</ele><time>2026-03-28T07:39:06Z</time></trkpt><trkpt lat="47.73331238768861" lon="7.2017931372166775"><ele>270.5</ele><time>2026-03-28T07:39:07Z</time></trkpt><trkpt lat="47.73321596086442" lon="7.201425352846857"><ele>270.0</ele><time>2026-03-28T07:39:08Z</time></trkpt><trkpt lat="47.73311567071849" lon="7.201059051004861"><ele>270.0</ele><time>2026-03-28T07:39:09Z</time></trkpt><trkpt lat="47.73302059673445" lon="7.20069077923642"><ele>270.0</ele><time>2026-03-28T07:39:10Z</time></trkpt><trkpt lat="47.73293442007837" lon="7.200316487767185"><ele>270.0</ele><time>2026-03-28T07:39:11Z</time></trkpt><trkpt lat="47.73284583446527" lon="7.199943836286385"><ele>270.0</ele><time>2026-03-28T07:39:12Z</time></trkpt><trkpt lat="47.73276222479066" lon="7.199568665117673"><ele>272.0</ele><time>2026-03-28T07:39:13Z</time></trkpt><trkpt lat="47.7326773293873" lon="7.199191652836523"><ele>274.0</ele><time>2026-03-28T07:39:14Z</time></trkpt><trkpt lat="47.73258978506419" lon="7.198817609062099"><ele>274.0</ele><time>2026-03-28T07:39:15Z</time></trkpt><trkpt lat="47.73250082788194" lon="7.1984419880262065"><ele>274.0</ele><time>2026-03-28T07:39:16Z</time></trkpt><trkpt lat="47.73241276674802" lon="7.198067952178906"><ele>273.5</ele><time>2026-03-28T07:39:17Z</time></trkpt><trkpt lat="47.73232313120688" lon="7.197695648779698"><ele>273.0</ele><time>2026-03-28T07:39:18Z</time></trkpt><trkpt lat="47.73223499581227" lon="7.197320583699897"><ele>273.0</ele><time>2026-03-28T07:39:19Z</time></trkpt><trkpt lat="47.7321465897453" lon="7.196942684468024"><ele>273.0</ele><time>2026-03-28T07:39:20Z</time></trkpt><trkpt lat="47.73205893861101" lon="7.19656842269413"><ele>273.0</ele><time>2026-03-28T07:39:21Z</time></trkpt><trkpt lat="47.73197715842493" lon="7.196188217864353"><ele>273.0</ele><time>2026-03-28T07:39:22Z</time></trkpt><trkpt lat="47.73189668856468" lon="7.19580910677341"><ele>274.0</ele><time>2026-03-28T07:39:23Z</time></trkpt><trkpt lat="47.73181632068335" lon="7.195436761214249"><ele>275.0</ele><time>2026-03-28T07:39:24Z</time></trkpt><trkpt lat="47.73173796076093" lon="7.195067458794318"><ele>275.0</ele><time>2026-03-28T07:39:25Z</time></trkpt><trkpt lat="47.73166046031166" lon="7.194701405998462"><ele>275.0</ele><time>2026-03-28T07:39:26Z</time></trkpt><trkpt lat="47.73158307139648" lon="7.194330050691809"><ele>275.0</ele><time>2026-03-28T07:39:27Z</time></trkpt><trkpt lat="47.73150899300651" lon="7.1939571805657705"><ele>275.0</ele><time>2026-03-28T07:39:28Z</time></trkpt><trkpt lat="47.731434786784995" lon="7.1935891258080495"><ele>275.0</ele><time>2026-03-28T07:39:29Z</time></trkpt><trkpt lat="47.7313620228963" lon="7.1932202260759"><ele>275.0</ele><time>2026-03-28T07:39:30Z</time></trkpt><trkpt lat="47.73129245295162" lon="7.1928512140524345"><ele>275.0</ele><time>2026-03-28T07:39:31Z</time></trkpt><trkpt lat="47.73122050810099" lon="7.192486869690027"><ele>275.0</ele><time>2026-03-28T07:39:32Z</time></trkpt><trkpt lat="47.731152167769174" lon="7.192119398863817"><ele>275.5</ele><time>2026-03-28T07:39:33Z</time></trkpt><trkpt lat="47.7310835854046" lon="7.19175302875471"><ele>276.0</ele><time>2026-03-28T07:39:34Z</time></trkpt><trkpt lat="47.73101696101502" lon="7.191388172489564"><ele>277.0</ele><time>2026-03-28T07:39:35Z</time></trkpt><trkpt lat="47.73094805584714" lon="7.191024862331119"><ele>278.0</ele><time>2026-03-28T07:39:36Z</time></trkpt><trkpt lat="47.730883261655116" lon="7.190653793955415"><ele>278.5</ele><time>2026-03-28T07:39:37Z</time></trkpt><trkpt lat="47.73081387207632" lon="7.190286357308419"><ele>279.0</ele><time>2026-03-28T07:39:38Z</time></trkpt><trkpt lat="47.730741569528895" lon="7.189926900587273"><ele>278.0</ele><time>2026-03-28T07:39:39Z</time></trkpt><trkpt lat="47.730669399339156" lon="7.189569014177744"><ele>277.0</ele><time>2026-03-28T07:39:40Z</time></trkpt><trkpt lat="47.730603003265635" lon="7.189201622993823"><ele>276.5</ele><time>2026-03-28T07:39:41Z</time></trkpt><trkpt lat="47.73053852460826" lon="7.18883791298398"><ele>276.0</ele><time>2026-03-28T07:39:42Z</time></trkpt><trkpt lat="47.73048106198818" lon="7.188466532109007"><ele>277.0</ele><time>2026-03-28T07:39:43Z</time></trkpt><trkpt lat="47.73042113352109" lon="7.188096212581938"><ele>278.0</ele><time>2026-03-28T07:39:44Z</time></trkpt><trkpt lat="47.730360148609286" lon="7.187724469750918"><ele>278.0</ele><time>2026-03-28T07:39:45Z</time></trkpt><trkpt lat="47.7302998912672" lon="7.18735038525141"><ele>278.0</ele><time>2026-03-28T07:39:46Z</time></trkpt><trkpt lat="47.73024239666353" lon="7.186971176092017"><ele>277.5</ele><time>2026-03-28T07:39:47Z</time></trkpt><trkpt lat="47.73018038326898" lon="7.186591639615548"><ele>277.0</ele><time>2026-03-28T07:39:48Z</time></trkpt><trkpt lat="47.730116514691915" lon="7.186214760972146"><ele>277.0</ele><time>2026-03-28T07:39:49Z</time></trkpt><trkpt lat="47.73005487380213" lon="7.185838320325078"><ele>277.0</ele><time>2026-03-28T07:39:50Z</time></trkpt><trkpt lat="47.729988412853785" lon="7.185462454326386"><ele>278.0</ele><time>2026-03-28T07:39:51Z</time></trkpt><trkpt lat="47.72992535479801" lon="7.185087376346477"><ele>279.0</ele><time>2026-03-28T07:39:52Z</time></trkpt><trkpt lat="47.72986087852166" lon="7.184714920926653"><ele>280.0</ele><time>2026-03-28T07:39:53Z</time></trkpt><trkpt lat="47.72979381934684" lon="7.1843427879545985"><ele>281.0</ele><time>2026-03-28T07:39:54Z</time></trkpt><trkpt lat="47.729732007197406" lon="7.183974800317466"><ele>281.0</ele><time>2026-03-28T07:39:55Z</time></trkpt><trkpt lat="47.7296658216069" lon="7.183609776873296"><ele>281.0</ele><time>2026-03-28T07:39:56Z</time></trkpt><trkpt lat="47.72960216041167" lon="7.183247944836273"><ele>280.5</ele><time>2026-03-28T07:39:57Z</time></trkpt><trkpt lat="47.72953696729917" lon="7.182882372236691"><ele>280.0</ele><time>2026-03-28T07:39:58Z</time></trkpt><trkpt lat="47.72947526102487" lon="7.182520812121388"><ele>279.5</ele><time>2026-03-28T07:39:59Z</time></trkpt><trkpt lat="47.7294065928681" lon="7.182162663617623"><ele>279.0</ele><time>2026-03-28T07:40:00Z</time></trkpt><trkpt lat="47.729344417394785" lon="7.1818024497136586"><ele>278.5</ele><time>2026-03-28T07:40:01Z</time></trkpt><trkpt lat="47.72927588668716" lon="7.1814465850146085"><ele>278.0</ele><time>2026-03-28T07:40:02Z</time></trkpt><trkpt lat="47.72920906833053" lon="7.181091925555756"><ele>278.0</ele><time>2026-03-28T07:40:03Z</time></trkpt><trkpt lat="47.72914131033306" lon="7.1807403155549006"><ele>278.0</ele><time>2026-03-28T07:40:04Z</time></trkpt><trkpt lat="47.72907370085489" lon="7.180389690369515"><ele>279.0</ele><time>2026-03-28T07:40:05Z</time></trkpt><trkpt lat="47.729007221598756" lon="7.180041960355975"><ele>280.0</ele><time>2026-03-28T07:40:06Z</time></trkpt><trkpt lat="47.72893935671501" lon="7.179690550182085"><ele>280.0</ele><time>2026-03-28T07:40:07Z</time></trkpt><trkpt lat="47.72887289729772" lon="7.179341640635116"><ele>280.0</ele><time>2026-03-28T07:40:08Z</time></trkpt><trkpt lat="47.72880182697986" lon="7.178993518004512"><ele>280.5</ele><time>2026-03-28T07:40:09Z</time></trkpt><trkpt lat="47.728729012530025" lon="7.17864352205156"><ele>281.0</ele><time>2026-03-28T07:40:10Z</time></trkpt><trkpt lat="47.728654586063314" lon="7.178285832709596"><ele>281.0</ele><time>2026-03-28T07:40:11Z</time></trkpt><trkpt lat="47.728579944702226" lon="7.177928868285407"><ele>281.0</ele><time>2026-03-28T07:40:12Z</time></trkpt><trkpt lat="47.728503129384556" lon="7.1775642487377"><ele>282.5</ele><time>2026-03-28T07:40:13Z</time></trkpt><trkpt lat="47.728427260061466" lon="7.177202248436827"><ele>284.0</ele><time>2026-03-28T07:40:14Z</time></trkpt><trkpt lat="47.728347499734134" lon="7.176839088210784"><ele>285.0</ele><time>2026-03-28T07:40:15Z</time></trkpt><trkpt lat="47.72826820411532" lon="7.17646905599223"><ele>286.0</ele><time>2026-03-28T07:40:16Z</time></trkpt><trkpt lat="47.72818586385651" lon="7.176101036931052"><ele>286.0</ele><time>2026-03-28T07:40:17Z</time></trkpt><trkpt lat="47.728103545032056" lon="7.175730369120194"><ele>286.0</ele><time>2026-03-28T07:40:18Z</time></trkpt><trkpt lat="47.728022915306106" lon="7.17535865656053"><ele>286.5</ele><time>2026-03-28T07:40:19Z</time></trkpt><trkpt lat="47.72794178984851" lon="7.174982886807969"><ele>287.0</ele><time>2026-03-28T07:40:20Z</time></trkpt><trkpt lat="47.72786161447921" lon="7.174609347122911"><ele>287.5</ele><time>2026-03-28T07:40:21Z</time></trkpt><trkpt lat="47.727783346149444" lon="7.1742330663202765"><ele>288.0</ele><time>2026-03-28T07:40:22Z</time></trkpt><trkpt lat="47.72770840077608" lon="7.173852766877426"><ele>288.0</ele><time>2026-03-28T07:40:23Z</time></trkpt><trkpt lat="47.727635950890615" lon="7.173469813651384"><ele>288.0</ele><time>2026-03-28T07:40:24Z</time></trkpt><trkpt lat="47.72756116792057" lon="7.17308450315316"><ele>287.0</ele><time>2026-03-28T07:40:25Z</time></trkpt><trkpt lat="47.727484323830126" lon="7.172704859749267"><ele>286.0</ele><time>2026-03-28T07:40:26Z</time></trkpt><trkpt lat="47.7274023324168" lon="7.172327469329988"><ele>285.5</ele><time>2026-03-28T07:40:27Z</time></trkpt><trkpt lat="47.72732127302148" lon="7.17194788513443"><ele>285.0</ele><time>2026-03-28T07:40:28Z</time></trkpt><trkpt lat="47.727238534849036" lon="7.171570699265646"><ele>284.0</ele><time>2026-03-28T07:40:29Z</time></trkpt><trkpt lat="47.72715571760231" lon="7.171190992493915"><ele>283.0</ele><time>2026-03-28T07:40:30Z</time></trkpt><trkpt lat="47.72707184452584" lon="7.170813403662049"><ele>284.0</ele><time>2026-03-28T07:40:31Z</time></trkpt><trkpt lat="47.72699156465347" lon="7.170436217220947"><ele>285.0</ele><time>2026-03-28T07:40:32Z</time></trkpt><trkpt lat="47.72691045860739" lon="7.170056653429175"><ele>286.0</ele><time>2026-03-28T07:40:33Z</time></trkpt><trkpt lat="47.72683013365754" lon="7.1696777548583475"><ele>287.0</ele><time>2026-03-28T07:40:34Z</time></trkpt><trkpt lat="47.726750461253616" lon="7.169300079497874"><ele>287.0</ele><time>2026-03-28T07:40:35Z</time></trkpt><trkpt lat="47.72666847765946" lon="7.168921867506602"><ele>287.0</ele><time>2026-03-28T07:40:36Z</time></trkpt><trkpt lat="47.72658693236786" lon="7.168545470246045"><ele>287.5</ele><time>2026-03-28T07:40:37Z</time></trkpt><trkpt lat="47.72650229409549" lon="7.168173157412908"><ele>288.0</ele><time>2026-03-28T07:40:38Z</time></trkpt><trkpt lat="47.72641568841673" lon="7.167795988804116"><ele>288.0</ele><time>2026-03-28T07:40:39Z</time></trkpt><trkpt lat="47.72632923647367" lon="7.16742331763303"><ele>288.0</ele><time>2026-03-28T07:40:40Z</time></trkpt><trkpt lat="47.72624021275047" lon="7.167047970236841"><ele>288.0</ele><time>2026-03-28T07:40:41Z</time></trkpt><trkpt lat="47.726148988307735" lon="7.16666973762747"><ele>288.0</ele><time>2026-03-28T07:40:42Z</time></trkpt><trkpt lat="47.726056833885735" lon="7.166297742515258"><ele>286.5</ele><time>2026-03-28T07:40:43Z</time></trkpt><trkpt lat="47.72596349084666" lon="7.165930994371144"><ele>285.0</ele><time>2026-03-28T07:40:44Z</time></trkpt><trkpt lat="47.725867838339305" lon="7.165566222628645"><ele>285.0</ele><time>2026-03-28T07:40:45Z</time></trkpt><trkpt lat="47.72577318774681" lon="7.165192657516149"><ele>285.0</ele><time>2026-03-28T07:40:46Z</time></trkpt><trkpt lat="47.725675684513014" lon="7.16482290904118"><ele>285.5</ele><time>2026-03-28T07:40:47Z</time></trkpt><trkpt lat="47.72557891825292" lon="7.1644579072609575"><ele>286.0</ele><time>2026-03-28T07:40:48Z</time></trkpt><trkpt lat="47.725480211765216" lon="7.164092060217401"><ele>285.5</ele><time>2026-03-28T07:40:49Z</time></trkpt><trkpt lat="47.725380252244506" lon="7.163728299108801"><ele>285.0</ele><time>2026-03-28T07:40:50Z</time></trkpt><trkpt lat="47.725279009143435" lon="7.163363557992314"><ele>285.0</ele><time>2026-03-28T07:40:51Z</time></trkpt><trkpt lat="47.72517611451947" lon="7.163004198719147"><ele>285.0</ele><time>2026-03-28T07:40:52Z</time></trkpt><trkpt lat="47.72507363912619" lon="7.162641993343136"><ele>286.0</ele><time>2026-03-28T07:40:53Z</time></trkpt><trkpt lat="47.724969422622905" lon="7.162282562938813"><ele>287.0</ele><time>2026-03-28T07:40:54Z</time></trkpt><trkpt lat="47.72486567134938" lon="7.16192110634127"><ele>287.0</ele><time>2026-03-28T07:40:55Z</time></trkpt><trkpt lat="47.724760859046995" lon="7.161564149062694"><ele>287.0</ele><time>2026-03-28T07:40:56Z</time></trkpt><trkpt lat="47.724657328975134" lon="7.161213581075778"><ele>287.0</ele><time>2026-03-28T07:40:57Z</time></trkpt><trkpt lat="47.724551892311744" lon="7.1608771191004905"><ele>287.0</ele><time>2026-03-28T07:40:58Z</time></trkpt><trkpt lat="47.724447425037354" lon="7.1605406829307885"><ele>289.5</ele><time>2026-03-28T07:40:59Z</time></trkpt><trkpt lat="47.724343034159276" lon="7.160204460831102"><ele>292.0</ele><time>2026-03-28T07:41:00Z</time></trkpt><trkpt lat="47.724236759173614" lon="7.159867908430839"><ele>293.0</ele><time>2026-03-28T07:41:01Z</time></trkpt><trkpt lat="47.724126797797865" lon="7.159536264816229"><ele>294.0</ele><time>2026-03-28T07:41:02Z</time></trkpt><trkpt lat="47.72401711563562" lon="7.159205282511642"><ele>296.0</ele><time>2026-03-28T07:41:03Z</time></trkpt><trkpt lat="47.72390610405117" lon="7.158880800608616"><ele>298.0</ele><time>2026-03-28T07:41:04Z</time></trkpt><trkpt lat="47.72378668754669" lon="7.158562604342429"><ele>298.0</ele><time>2026-03-28T07:41:05Z</time></trkpt><trkpt lat="47.72366796498183" lon="7.15824048683009"><ele>298.0</ele><time>2026-03-28T07:41:06Z</time></trkpt><trkpt lat="47.72354873041764" lon="7.157911988769358"><ele>299.0</ele><time>2026-03-28T07:41:07Z</time></trkpt><trkpt lat="47.72342850813849" lon="7.157577853085611"><ele>300.0</ele><time>2026-03-28T07:41:08Z</time></trkpt><trkpt lat="47.72330640741793" lon="7.157246255465802"><ele>300.5</ele><time>2026-03-28T07:41:09Z</time></trkpt><trkpt lat="47.72318702355021" lon="7.156913446219866"><ele>301.0</ele><time>2026-03-28T07:41:10Z</time></trkpt><trkpt lat="47.72306376733085" lon="7.156575517801044"><ele>302.0</ele><time>2026-03-28T07:41:11Z</time></trkpt><trkpt lat="47.72294334801301" lon="7.156240216930762"><ele>303.0</ele><time>2026-03-28T07:41:12Z</time></trkpt><trkpt lat="47.72281981043863" lon="7.15590297504246"><ele>301.5</ele><time>2026-03-28T07:41:13Z</time></trkpt><trkpt lat="47.72269790774704" lon="7.155568260693143"><ele>300.0</ele><time>2026-03-28T07:41:14Z</time></trkpt><trkpt lat="47.72257845517381" lon="7.155223057505837"><ele>300.0</ele><time>2026-03-28T07:41:15Z</time></trkpt><trkpt lat="47.72245367818572" lon="7.154882552445907"><ele>300.0</ele><time>2026-03-28T07:41:16Z</time></trkpt><trkpt lat="47.72233112397476" lon="7.15454947497116"><ele>300.5</ele><time>2026-03-28T07:41:17Z</time></trkpt><trkpt lat="47.72220854569773" lon="7.154211022307931"><ele>301.0</ele><time>2026-03-28T07:41:18Z</time></trkpt><trkpt lat="47.72208608871557" lon="7.153870922465685"><ele>301.5</ele><time>2026-03-28T07:41:19Z</time></trkpt><trkpt lat="47.72196333071757" lon="7.15352865697225"><ele>302.0</ele><time>2026-03-28T07:41:20Z</time></trkpt><trkpt lat="47.721831395916375" lon="7.153188865987909"><ele>302.5</ele><time>2026-03-28T07:41:21Z</time></trkpt><trkpt lat="47.721698561394696" lon="7.152846691476717"><ele>303.0</ele><time>2026-03-28T07:41:22Z</time></trkpt><trkpt lat="47.721568048822405" lon="7.152512834727904"><ele>302.5</ele><time>2026-03-28T07:41:23Z</time></trkpt><trkpt lat="47.721435788229996" lon="7.152172698189601"><ele>302.0</ele><time>2026-03-28T07:41:24Z</time></trkpt><trkpt lat="47.72131046363529" lon="7.151829814196152"><ele>303.0</ele><time>2026-03-28T07:41:25Z</time></trkpt><trkpt lat="47.72118339431914" lon="7.151486206383027"><ele>304.0</ele><time>2026-03-28T07:41:26Z</time></trkpt><trkpt lat="47.7210558138668" lon="7.151139687774728"><ele>304.5</ele><time>2026-03-28T07:41:27Z</time></trkpt><trkpt lat="47.72093217963163" lon="7.150798440127151"><ele>305.0</ele><time>2026-03-28T07:41:28Z</time></trkpt><trkpt lat="47.72080745437743" lon="7.1504502851947285"><ele>305.0</ele><time>2026-03-28T07:41:29Z</time></trkpt><trkpt lat="47.720681413285654" lon="7.1500975091902195"><ele>305.0</ele><time>2026-03-28T07:41:30Z</time></trkpt><trkpt lat="47.72055631184605" lon="7.149748025488824"><ele>305.5</ele><time>2026-03-28T07:41:31Z</time></trkpt><trkpt lat="47.720435332383474" lon="7.149398037153609"><ele>306.0</ele><time>2026-03-28T07:41:32Z</time></trkpt><trkpt lat="47.72031511347353" lon="7.149049994834424"><ele>305.5</ele><time>2026-03-28T07:41:33Z</time></trkpt><trkpt lat="47.72019966952506" lon="7.14870300136031"><ele>305.0</ele><time>2026-03-28T07:41:34Z</time></trkpt><trkpt lat="47.72007674052558" lon="7.148349862750967"><ele>306.5</ele><time>2026-03-28T07:41:35Z</time></trkpt><trkpt lat="47.719956334546694" lon="7.14799621560989"><ele>308.0</ele><time>2026-03-28T07:41:36Z</time></trkpt><trkpt lat="47.719834768516556" lon="7.1476447223961515"><ele>308.0</ele><time>2026-03-28T07:41:37Z</time></trkpt><trkpt lat="47.71971741408868" lon="7.147290542651088"><ele>308.0</ele><time>2026-03-28T07:41:38Z</time></trkpt><trkpt lat="47.71960163838561" lon="7.146933941273176"><ele>308.0</ele><time>2026-03-28T07:41:39Z</time></trkpt><trkpt lat="47.71948363981068" lon="7.146577613961491"><ele>308.0</ele><time>2026-03-28T07:41:40Z</time></trkpt><trkpt lat="47.71936517908051" lon="7.146220739207166"><ele>307.0</ele><time>2026-03-28T07:41:41Z</time></trkpt><trkpt lat="47.7192509783949" lon="7.14585929651412"><ele>306.0</ele><time>2026-03-28T07:41:42Z</time></trkpt><trkpt lat="47.71913546362358" lon="7.145499574094492"><ele>306.0</ele><time>2026-03-28T07:41:43Z</time></trkpt><trkpt lat="47.71902292475159" lon="7.145138844737157"><ele>306.0</ele><time>2026-03-28T07:41:44Z</time></trkpt><trkpt lat="47.71890401208469" lon="7.1447802410182675"><ele>306.0</ele><time>2026-03-28T07:41:45Z</time></trkpt><trkpt lat="47.71878748048862" lon="7.144423148028134"><ele>306.0</ele><time>2026-03-28T07:41:46Z</time></trkpt><trkpt lat="47.718672171414646" lon="7.144061521810843"><ele>306.0</ele><time>2026-03-28T07:41:47Z</time></trkpt><trkpt lat="47.71855327651301" lon="7.1437029340831435"><ele>306.0</ele><time>2026-03-28T07:41:48Z</time></trkpt><trkpt lat="47.71843622405" lon="7.143343190265401"><ele>306.5</ele><time>2026-03-28T07:41:49Z</time></trkpt><trkpt lat="47.71831993817488" lon="7.142980582155645"><ele>307.0</ele><time>2026-03-28T07:41:50Z</time></trkpt><trkpt lat="47.71820192883522" lon="7.1426211623201965"><ele>307.0</ele><time>2026-03-28T07:41:51Z</time></trkpt><trkpt lat="47.71808221369444" lon="7.142259417531606"><ele>307.0</ele><time>2026-03-28T07:41:52Z</time></trkpt><trkpt lat="47.717963765674526" lon="7.141897607605101"><ele>307.5</ele><time>2026-03-28T07:41:53Z</time></trkpt><trkpt lat="47.71784440062185" lon="7.141536600055503"><ele>308.0</ele><time>2026-03-28T07:41:54Z</time></trkpt><trkpt lat="47.7177260695942" lon="7.141178076542937"><ele>308.0</ele><time>2026-03-28T07:41:55Z</time></trkpt><trkpt lat="47.71760972415891" lon="7.140814012000624"><ele>308.0</ele><time>2026-03-28T07:41:56Z</time></trkpt><trkpt lat="47.717493851390266" lon="7.140458683538526"><ele>310.0</ele><time>2026-03-28T07:41:57Z</time></trkpt><trkpt lat="47.717378082400714" lon="7.1401071090446475"><ele>312.0</ele><time>2026-03-28T07:41:58Z</time></trkpt><trkpt lat="47.717263932740636" lon="7.139758648342734"><ele>312.5</ele><time>2026-03-28T07:41:59Z</time></trkpt><trkpt lat="47.717148950055225" lon="7.139413256277906"><ele>313.0</ele><time>2026-03-28T07:42:00Z</time></trkpt><trkpt lat="47.71703516724461" lon="7.139069000057165"><ele>313.0</ele><time>2026-03-28T07:42:01Z</time></trkpt><trkpt lat="47.71692401267484" lon="7.138723049340965"><ele>313.0</ele><time>2026-03-28T07:42:02Z</time></trkpt><trkpt lat="47.716815148663265" lon="7.1383789488431475"><ele>313.0</ele><time>2026-03-28T07:42:03Z</time></trkpt><trkpt lat="47.71670608921767" lon="7.138035600269005"><ele>313.0</ele><time>2026-03-28T07:42:04Z</time></trkpt><trkpt lat="47.71659744731998" lon="7.137690883463616"><ele>313.5</ele><time>2026-03-28T07:42:05Z</time></trkpt><trkpt lat="47.71649019270043" lon="7.1373474814518065"><ele>314.0</ele><time>2026-03-28T07:42:06Z</time></trkpt><trkpt lat="47.716387505692" lon="7.136998485031936"><ele>314.0</ele><time>2026-03-28T07:42:07Z</time></trkpt><trkpt lat="47.71628359813767" lon="7.136650369162261"><ele>314.0</ele><time>2026-03-28T07:42:08Z</time></trkpt><trkpt lat="47.71618117725205" lon="7.136307362616272"><ele>315.0</ele><time>2026-03-28T07:42:09Z</time></trkpt><trkpt lat="47.71608108824149" lon="7.135956008352114"><ele>316.0</ele><time>2026-03-28T07:42:10Z</time></trkpt><trkpt lat="47.71597613382965" lon="7.135604084835189"><ele>316.5</ele><time>2026-03-28T07:42:11Z</time></trkpt><trkpt lat="47.715873476259986" lon="7.135250091569202"><ele>317.0</ele><time>2026-03-28T07:42:12Z</time></trkpt><trkpt lat="47.71576970925405" lon="7.134893046500963"><ele>315.5</ele><time>2026-03-28T07:42:13Z</time></trkpt><trkpt lat="47.71566800855083" lon="7.134536280027369"><ele>314.0</ele><time>2026-03-28T07:42:14Z</time></trkpt><trkpt lat="47.71556847532553" lon="7.134174226574285"><ele>314.5</ele><time>2026-03-28T07:42:15Z</time></trkpt><trkpt lat="47.71546916300729" lon="7.133814863666656"><ele>315.0</ele><time>2026-03-28T07:42:16Z</time></trkpt><trkpt lat="47.71537020330119" lon="7.1334525181840736"><ele>315.5</ele><time>2026-03-28T07:42:17Z</time></trkpt><trkpt lat="47.71527006416478" lon="7.133089556220691"><ele>316.0</ele><time>2026-03-28T07:42:18Z</time></trkpt><trkpt lat="47.715170761736125" lon="7.132723634518858"><ele>316.0</ele><time>2026-03-28T07:42:19Z</time></trkpt><trkpt lat="47.71507238626133" lon="7.132360566012112"><ele>316.0</ele><time>2026-03-28T07:42:20Z</time></trkpt><trkpt lat="47.714973870446194" lon="7.1319941522297485"><ele>316.0</ele><time>2026-03-28T07:42:21Z</time></trkpt><trkpt lat="47.71487558222874" lon="7.131630582701834"><ele>316.0</ele><time>2026-03-28T07:42:22Z</time></trkpt><trkpt lat="47.71477815419022" lon="7.131260998443191"><ele>317.5</ele><time>2026-03-28T07:42:23Z</time></trkpt><trkpt lat="47.71467971031561" lon="7.130891901310043"><ele>319.0</ele><time>2026-03-28T07:42:24Z</time></trkpt><trkpt lat="47.71458040773804" lon="7.130524176890659"><ele>319.0</ele><time>2026-03-28T07:42:25Z</time></trkpt><trkpt lat="47.7144805617201" lon="7.130150285873117"><ele>319.0</ele><time>2026-03-28T07:42:26Z</time></trkpt><trkpt lat="47.71438279984501" lon="7.129777530435734"><ele>319.0</ele><time>2026-03-28T07:42:27Z</time></trkpt><trkpt lat="47.71428754112662" lon="7.129403205912298"><ele>319.0</ele><time>2026-03-28T07:42:28Z</time></trkpt><trkpt lat="47.71419822293729" lon="7.129032832874415"><ele>321.5</ele><time>2026-03-28T07:42:29Z</time></trkpt><trkpt lat="47.71410727325733" lon="7.128655336262683"><ele>324.0</ele><time>2026-03-28T07:42:30Z</time></trkpt><trkpt lat="47.714018471801936" lon="7.128280689432125"><ele>324.5</ele><time>2026-03-28T07:42:31Z</time></trkpt><trkpt lat="47.71393289688855" lon="7.1279024760578436"><ele>325.0</ele><time>2026-03-28T07:42:32Z</time></trkpt><trkpt lat="47.713849548433274" lon="7.127523071224797"><ele>326.5</ele><time>2026-03-28T07:42:33Z</time></trkpt><trkpt lat="47.7137686903876" lon="7.127146647636693"><ele>328.0</ele><time>2026-03-28T07:42:34Z</time></trkpt><trkpt lat="47.71369091458768" lon="7.1267648911357595"><ele>328.5</ele><time>2026-03-28T07:42:35Z</time></trkpt><trkpt lat="47.71361111583257" lon="7.126384690509952"><ele>329.0</ele><time>2026-03-28T07:42:36Z</time></trkpt><trkpt lat="47.71353134506869" lon="7.126003351329889"><ele>326.5</ele><time>2026-03-28T07:42:37Z</time></trkpt><trkpt lat="47.71345199329802" lon="7.12562908053006"><ele>324.0</ele><time>2026-03-28T07:42:38Z</time></trkpt><trkpt lat="47.71337103172031" lon="7.125248111633969"><ele>324.0</ele><time>2026-03-28T07:42:39Z</time></trkpt><trkpt lat="47.713291534564966" lon="7.124864184052679"><ele>324.0</ele><time>2026-03-28T07:42:40Z</time></trkpt><trkpt lat="47.71320797982723" lon="7.124483437891357"><ele>324.0</ele><time>2026-03-28T07:42:41Z</time></trkpt><trkpt lat="47.71312782949604" lon="7.124100984695819"><ele>324.0</ele><time>2026-03-28T07:42:42Z</time></trkpt><trkpt lat="47.713047815848114" lon="7.123718009391515"><ele>326.5</ele><time>2026-03-28T07:42:43Z</time></trkpt><trkpt lat="47.71296804935053" lon="7.123332181333309"><ele>329.0</ele><time>2026-03-28T07:42:44Z</time></trkpt><trkpt lat="47.71289224012736" lon="7.12293841790828"><ele>331.0</ele><time>2026-03-28T07:42:45Z</time></trkpt><trkpt lat="47.71281849058256" lon="7.122549242723052"><ele>333.0</ele><time>2026-03-28T07:42:46Z</time></trkpt><trkpt lat="47.71274703654974" lon="7.122162326331183"><ele>327.5</ele><time>2026-03-28T07:42:47Z</time></trkpt><trkpt lat="47.71267221173383" lon="7.121774312493293"><ele>322.0</ele><time>2026-03-28T07:42:48Z</time></trkpt><trkpt lat="47.712597630297154" lon="7.121384728491649"><ele>322.0</ele><time>2026-03-28T07:42:49Z</time></trkpt><trkpt lat="47.71252401119474" lon="7.121001434142135"><ele>322.0</ele><time>2026-03-28T07:42:50Z</time></trkpt><trkpt lat="47.71245241300847" lon="7.120615518867049"><ele>323.0</ele><time>2026-03-28T07:42:51Z</time></trkpt><trkpt lat="47.71238200467076" lon="7.120231665566448"><ele>324.0</ele><time>2026-03-28T07:42:52Z</time></trkpt><trkpt lat="47.71231421332417" lon="7.119842340720524"><ele>325.0</ele><time>2026-03-28T07:42:53Z</time></trkpt><trkpt lat="47.712248810803565" lon="7.119455370065411"><ele>326.0</ele><time>2026-03-28T07:42:54Z</time></trkpt><trkpt lat="47.7121840541887" lon="7.119072793579583"><ele>326.5</ele><time>2026-03-28T07:42:55Z</time></trkpt><trkpt lat="47.712118074859816" lon="7.118684234398899"><ele>327.0</ele><time>2026-03-28T07:42:56Z</time></trkpt><trkpt lat="47.71205516332512" lon="7.118298138106715"><ele>327.5</ele><time>2026-03-28T07:42:57Z</time></trkpt><trkpt lat="47.711989453604296" lon="7.117915011149777"><ele>328.0</ele><time>2026-03-28T07:42:58Z</time></trkpt><trkpt lat="47.71192336833185" lon="7.117532243752892"><ele>322.0</ele><time>2026-03-28T07:42:59Z</time></trkpt><trkpt lat="47.711859800808945" lon="7.117146971759711"><ele>316.0</ele><time>2026-03-28T07:43:00Z</time></trkpt><trkpt lat="47.71180113792429" lon="7.116759728117604"><ele>314.0</ele><time>2026-03-28T07:43:01Z</time></trkpt><trkpt lat="47.711742656530134" lon="7.11636796464135"><ele>312.0</ele><time>2026-03-28T07:43:02Z</time></trkpt><trkpt lat="47.711685157842375" lon="7.115983295142206"><ele>308.0</ele><time>2026-03-28T07:43:03Z</time></trkpt><trkpt lat="47.711626566599215" lon="7.115593471960083"><ele>304.0</ele><time>2026-03-28T07:43:04Z</time></trkpt><trkpt lat="47.71156769903449" lon="7.115209372013926"><ele>302.5</ele><time>2026-03-28T07:43:05Z</time></trkpt><trkpt lat="47.71150881289742" lon="7.114820083675553"><ele>301.0</ele><time>2026-03-28T07:43:06Z</time></trkpt><trkpt lat="47.711452712450246" lon="7.114436080128013"><ele>301.0</ele><time>2026-03-28T07:43:07Z</time></trkpt><trkpt lat="47.711398999618304" lon="7.114045844231478"><ele>301.0</ele><time>2026-03-28T07:43:08Z</time></trkpt><trkpt lat="47.71134824947841" lon="7.113656599833865"><ele>301.0</ele><time>2026-03-28T07:43:09Z</time></trkpt><trkpt lat="47.71129841392557" lon="7.11326670038097"><ele>301.0</ele><time>2026-03-28T07:43:10Z</time></trkpt><trkpt lat="47.71124931538248" lon="7.112876954766541"><ele>300.0</ele><time>2026-03-28T07:43:11Z</time></trkpt><trkpt lat="47.7111992230788" lon="7.112492608874377"><ele>299.0</ele><time>2026-03-28T07:43:12Z</time></trkpt><trkpt lat="47.71114964839504" lon="7.112101087199828"><ele>298.5</ele><time>2026-03-28T07:43:13Z</time></trkpt><trkpt lat="47.71110238298928" lon="7.11171494509297"><ele>298.0</ele><time>2026-03-28T07:43:14Z</time></trkpt><trkpt lat="47.71105554901474" lon="7.111331288313228"><ele>298.0</ele><time>2026-03-28T07:43:15Z</time></trkpt><trkpt lat="47.71101083629019" lon="7.110951255223497"><ele>298.0</ele><time>2026-03-28T07:43:16Z</time></trkpt><trkpt lat="47.71096657664859" lon="7.1105713018303245"><ele>298.0</ele><time>2026-03-28T07:43:17Z</time></trkpt><trkpt lat="47.71092351750852" lon="7.110188765017417"><ele>298.0</ele><time>2026-03-28T07:43:18Z</time></trkpt><trkpt lat="47.71088043838779" lon="7.109804414639802"><ele>298.0</ele><time>2026-03-28T07:43:19Z</time></trkpt><trkpt lat="47.71083770860461" lon="7.109419072946762"><ele>298.0</ele><time>2026-03-28T07:43:20Z</time></trkpt><trkpt lat="47.7107922719658" lon="7.109032606253282"><ele>298.5</ele><time>2026-03-28T07:43:21Z</time></trkpt><trkpt lat="47.71074562213577" lon="7.108644944878582"><ele>299.0</ele><time>2026-03-28T07:43:22Z</time></trkpt><trkpt lat="47.710699066939" lon="7.108252849895188"><ele>298.5</ele><time>2026-03-28T07:43:23Z</time></trkpt><trkpt lat="47.71065199913756" lon="7.107861165459271"><ele>298.0</ele><time>2026-03-28T07:43:24Z</time></trkpt><trkpt lat="47.71060520074201" lon="7.107467272642328"><ele>299.0</ele><time>2026-03-28T07:43:25Z</time></trkpt><trkpt lat="47.71056390522125" lon="7.107070604573301"><ele>300.0</ele><time>2026-03-28T07:43:26Z</time></trkpt><trkpt lat="47.71052507358086" lon="7.10667415867612"><ele>299.5</ele><time>2026-03-28T07:43:27Z</time></trkpt><trkpt lat="47.710489733659095" lon="7.106279478908143"><ele>299.0</ele><time>2026-03-28T07:43:28Z</time></trkpt><trkpt lat="47.710458652701085" lon="7.105883911356915"><ele>299.0</ele><time>2026-03-28T07:43:29Z</time></trkpt><trkpt lat="47.71042473054831" lon="7.105486153625121"><ele>299.0</ele><time>2026-03-28T07:43:30Z</time></trkpt><trkpt lat="47.710391151278024" lon="7.105091234742561"><ele>300.0</ele><time>2026-03-28T07:43:31Z</time></trkpt><trkpt lat="47.71035996377194" lon="7.104692452843932"><ele>301.0</ele><time>2026-03-28T07:43:32Z</time></trkpt><trkpt lat="47.71032903063827" lon="7.104293825978252"><ele>301.0</ele><time>2026-03-28T07:43:33Z</time></trkpt><trkpt lat="47.71029564846243" lon="7.103896644019934"><ele>301.0</ele><time>2026-03-28T07:43:34Z</time></trkpt><trkpt lat="47.710264357764494" lon="7.103498892162634"><ele>303.5</ele><time>2026-03-28T07:43:35Z</time></trkpt><trkpt lat="47.710236123483014" lon="7.103103000990077"><ele>306.0</ele><time>2026-03-28T07:43:36Z</time></trkpt><trkpt lat="47.710208356768774" lon="7.102704284516874"><ele>305.5</ele><time>2026-03-28T07:43:37Z</time></trkpt><trkpt lat="47.710182324378884" lon="7.102305342984448"><ele>305.0</ele><time>2026-03-28T07:43:38Z</time></trkpt><trkpt lat="47.710158961835305" lon="7.101904636025086"><ele>306.5</ele><time>2026-03-28T07:43:39Z</time></trkpt><trkpt lat="47.71013565592802" lon="7.101502932189678"><ele>308.0</ele><time>2026-03-28T07:43:40Z</time></trkpt><trkpt lat="47.710112201509844" lon="7.101100492688103"><ele>310.0</ele><time>2026-03-28T07:43:41Z</time></trkpt><trkpt lat="47.71009130024975" lon="7.1006985332539"><ele>312.0</ele><time>2026-03-28T07:43:42Z</time></trkpt><trkpt lat="47.71007049330078" lon="7.100297230065624"><ele>313.0</ele><time>2026-03-28T07:43:43Z</time></trkpt><trkpt lat="47.710050809783986" lon="7.099898034346716"><ele>314.0</ele><time>2026-03-28T07:43:44Z</time></trkpt><trkpt lat="47.710031179922034" lon="7.099495750491176"><ele>314.0</ele><time>2026-03-28T07:43:45Z</time></trkpt><trkpt lat="47.71001469560828" lon="7.099099611764034"><ele>314.0</ele><time>2026-03-28T07:43:46Z</time></trkpt><trkpt lat="47.7099995004015" lon="7.098702831598045"><ele>313.5</ele><time>2026-03-28T07:43:47Z</time></trkpt><trkpt lat="47.70998413891181" lon="7.0983087247515675"><ele>313.0</ele><time>2026-03-28T07:43:48Z</time></trkpt><trkpt lat="47.70997133276985" lon="7.09791770729335"><ele>313.0</ele><time>2026-03-28T07:43:49Z</time></trkpt><trkpt lat="47.709962260742174" lon="7.097525851204073"><ele>313.0</ele><time>2026-03-28T07:43:50Z</time></trkpt><trkpt lat="47.70995305351162" lon="7.0971391161513395"><ele>314.0</ele><time>2026-03-28T07:43:51Z</time></trkpt><trkpt lat="47.709944072013556" lon="7.096747476217276"><ele>315.0</ele><time>2026-03-28T07:43:52Z</time></trkpt><trkpt lat="47.70993587403052" lon="7.09635944527304"><ele>315.0</ele><time>2026-03-28T07:43:53Z</time></trkpt><trkpt lat="47.709928465990835" lon="7.095972804218645"><ele>315.0</ele><time>2026-03-28T07:43:54Z</time></trkpt><trkpt lat="47.7099249425498" lon="7.095585516589435"><ele>316.0</ele><time>2026-03-28T07:43:55Z</time></trkpt><trkpt lat="47.70992111411684" lon="7.095199808346995"><ele>317.0</ele><time>2026-03-28T07:43:56Z</time></trkpt><trkpt lat="47.70991862266266" lon="7.094812758538236"><ele>317.5</ele><time>2026-03-28T07:43:57Z</time></trkpt><trkpt lat="47.70992153790332" lon="7.094425909348458"><ele>318.0</ele><time>2026-03-28T07:43:58Z</time></trkpt><trkpt lat="47.709928935755684" lon="7.094036193565515"><ele>320.5</ele><time>2026-03-28T07:43:59Z</time></trkpt><trkpt lat="47.709938253378596" lon="7.09364950540002"><ele>323.0</ele><time>2026-03-28T07:44:00Z</time></trkpt><trkpt lat="47.709945794490324" lon="7.093263177707823"><ele>322.0</ele><time>2026-03-28T07:44:01Z</time></trkpt><trkpt lat="47.70995012686349" lon="7.0928745061457885"><ele>321.0</ele><time>2026-03-28T07:44:02Z</time></trkpt><trkpt lat="47.70995911393024" lon="7.092484185420374"><ele>321.5</ele><time>2026-03-28T07:44:03Z</time></trkpt><trkpt lat="47.7099648947414" lon="7.092093322227169"><ele>322.0</ele><time>2026-03-28T07:44:04Z</time></trkpt><trkpt lat="47.70996727101752" lon="7.091699959164294"><ele>323.0</ele><time>2026-03-28T07:44:05Z</time></trkpt><trkpt lat="47.70997205688738" lon="7.091306912604493"><ele>324.0</ele><time>2026-03-28T07:44:06Z</time></trkpt><trkpt lat="47.70998249515498" lon="7.090913791082296"><ele>324.0</ele><time>2026-03-28T07:44:07Z</time></trkpt><trkpt lat="47.70999251044543" lon="7.0905249428878045"><ele>324.0</ele><time>2026-03-28T07:44:08Z</time></trkpt><trkpt lat="47.71000120711075" lon="7.090129369426035"><ele>324.0</ele><time>2026-03-28T07:44:09Z</time></trkpt><trkpt lat="47.71001018378489" lon="7.089736994730247"><ele>324.0</ele><time>2026-03-28T07:44:10Z</time></trkpt><trkpt lat="47.710022051973404" lon="7.089341124620481"><ele>325.5</ele><time>2026-03-28T07:44:11Z</time></trkpt><trkpt lat="47.710035087323725" lon="7.088953744218875"><ele>327.0</ele><time>2026-03-28T07:44:12Z</time></trkpt><trkpt lat="47.71004630474514" lon="7.088564304793244"><ele>327.5</ele><time>2026-03-28T07:44:13Z</time></trkpt><trkpt lat="47.710060536377426" lon="7.088174371113007"><ele>328.0</ele><time>2026-03-28T07:44:14Z</time></trkpt><trkpt lat="47.7100760570485" lon="7.087785052194786"><ele>328.0</ele><time>2026-03-28T07:44:15Z</time></trkpt><trkpt lat="47.710095391169546" lon="7.087399498381899"><ele>328.0</ele><time>2026-03-28T07:44:16Z</time></trkpt><trkpt lat="47.71011373278416" lon="7.087013626793908"><ele>328.0</ele><time>2026-03-28T07:44:17Z</time></trkpt><trkpt lat="47.71013313896651" lon="7.08662652064205"><ele>328.0</ele><time>2026-03-28T07:44:18Z</time></trkpt><trkpt lat="47.71015370320783" lon="7.086241548668519"><ele>329.0</ele><time>2026-03-28T07:44:19Z</time></trkpt><trkpt lat="47.710177087926816" lon="7.0858546513500285"><ele>330.0</ele><time>2026-03-28T07:44:20Z</time></trkpt><trkpt lat="47.71020474361164" lon="7.0854689148500745"><ele>331.5</ele><time>2026-03-28T07:44:21Z</time></trkpt><trkpt lat="47.71022796501307" lon="7.085084755121548"><ele>333.0</ele><time>2026-03-28T07:44:22Z</time></trkpt><trkpt lat="47.710254389173336" lon="7.084702032823734"><ele>337.0</ele><time>2026-03-28T07:44:23Z</time></trkpt><trkpt lat="47.710280302148085" lon="7.084317891688964"><ele>341.0</ele><time>2026-03-28T07:44:24Z</time></trkpt><trkpt lat="47.71030964666009" lon="7.083928145378899"><ele>341.5</ele><time>2026-03-28T07:44:25Z</time></trkpt><trkpt lat="47.71033557759461" lon="7.083537718681959"><ele>342.0</ele><time>2026-03-28T07:44:26Z</time></trkpt><trkpt lat="47.71036463654264" lon="7.08315082516896"><ele>344.0</ele><time>2026-03-28T07:44:27Z</time></trkpt><trkpt lat="47.710399463270704" lon="7.0827596615719495"><ele>346.0</ele><time>2026-03-28T07:44:28Z</time></trkpt><trkpt lat="47.71043125331509" lon="7.082369685292023"><ele>348.0</ele><time>2026-03-28T07:44:29Z</time></trkpt><trkpt lat="47.71046688102036" lon="7.081976907200278"><ele>350.0</ele><time>2026-03-28T07:44:30Z</time></trkpt><trkpt lat="47.710505720423456" lon="7.081582038908557"><ele>350.5</ele><time>2026-03-28T07:44:31Z</time></trkpt><trkpt lat="47.710543700797665" lon="7.081191286028286"><ele>351.0</ele><time>2026-03-28T07:44:32Z</time></trkpt><trkpt lat="47.71057972021475" lon="7.080795414624693"><ele>352.0</ele><time>2026-03-28T07:44:33Z</time></trkpt><trkpt lat="47.71061934890193" lon="7.080402375099476"><ele>353.0</ele><time>2026-03-28T07:44:34Z</time></trkpt><trkpt lat="47.71066231752135" lon="7.080010468391975"><ele>353.0</ele><time>2026-03-28T07:44:35Z</time></trkpt><trkpt lat="47.710705029430756" lon="7.079619257001475"><ele>353.0</ele><time>2026-03-28T07:44:36Z</time></trkpt><trkpt lat="47.710746073519466" lon="7.079224891591343"><ele>354.0</ele><time>2026-03-28T07:44:37Z</time></trkpt><trkpt lat="47.71078718324187" lon="7.078832572965131"><ele>355.0</ele><time>2026-03-28T07:44:38Z</time></trkpt><trkpt lat="47.71082771763931" lon="7.078444045820118"><ele>357.0</ele><time>2026-03-28T07:44:39Z</time></trkpt><trkpt lat="47.71086858728307" lon="7.078052695913444"><ele>359.0</ele><time>2026-03-28T07:44:40Z</time></trkpt><trkpt lat="47.71090907522544" lon="7.0776611204108"><ele>360.0</ele><time>2026-03-28T07:44:41Z</time></trkpt><trkpt lat="47.71095218739947" lon="7.077272840319917"><ele>361.0</ele><time>2026-03-28T07:44:42Z</time></trkpt><trkpt lat="47.71099162788588" lon="7.076884164195785"><ele>360.0</ele><time>2026-03-28T07:44:43Z</time></trkpt><trkpt lat="47.71103400865484" lon="7.076495000492512"><ele>359.0</ele><time>2026-03-28T07:44:44Z</time></trkpt><trkpt lat="47.711075797479744" lon="7.076100613419233"><ele>359.5</ele><time>2026-03-28T07:44:45Z</time></trkpt><trkpt lat="47.711116240490334" lon="7.075706537774049"><ele>360.0</ele><time>2026-03-28T07:44:46Z</time></trkpt><trkpt lat="47.71115937083146" lon="7.075314366960466"><ele>359.0</ele><time>2026-03-28T07:44:47Z</time></trkpt><trkpt lat="47.71120349985008" lon="7.074923262181734"><ele>358.0</ele><time>2026-03-28T07:44:48Z</time></trkpt><trkpt lat="47.71124462315156" lon="7.074532596777417"><ele>358.0</ele><time>2026-03-28T07:44:49Z</time></trkpt><trkpt lat="47.71128445571785" lon="7.074139210049536"><ele>358.0</ele><time>2026-03-28T07:44:50Z</time></trkpt><trkpt lat="47.71132908663313" lon="7.073748984534015"><ele>359.0</ele><time>2026-03-28T07:44:51Z</time></trkpt><trkpt lat="47.71137081990151" lon="7.073357945780033"><ele>360.0</ele><time>2026-03-28T07:44:52Z</time></trkpt><trkpt lat="47.71141469263487" lon="7.0729645405491794"><ele>360.5</ele><time>2026-03-28T07:44:53Z</time></trkpt><trkpt lat="47.71145345244583" lon="7.072571276661735"><ele>361.0</ele><time>2026-03-28T07:44:54Z</time></trkpt><trkpt lat="47.71149470642104" lon="7.072177318713151"><ele>363.5</ele><time>2026-03-28T07:44:55Z</time></trkpt><trkpt lat="47.7115369178424" lon="7.07178716296917"><ele>366.0</ele><time>2026-03-28T07:44:56Z</time></trkpt><trkpt lat="47.7115804807265" lon="7.071396316804409"><ele>367.5</ele><time>2026-03-28T07:44:57Z</time></trkpt><trkpt lat="47.71162482983114" lon="7.071004802282088"><ele>369.0</ele><time>2026-03-28T07:44:58Z</time></trkpt><trkpt lat="47.7116692782602" lon="7.070611115889928"><ele>371.5</ele><time>2026-03-28T07:44:59Z</time></trkpt><trkpt lat="47.711711955989955" lon="7.070215214675387"><ele>374.0</ele><time>2026-03-28T07:45:00Z</time></trkpt><trkpt lat="47.711755626168134" lon="7.069820847780512"><ele>374.5</ele><time>2026-03-28T07:45:01Z</time></trkpt><trkpt lat="47.71180082923997" lon="7.069427165122265"><ele>375.0</ele><time>2026-03-28T07:45:02Z</time></trkpt><trkpt lat="47.711846797709406" lon="7.069032552287627"><ele>376.5</ele><time>2026-03-28T07:45:03Z</time></trkpt><trkpt lat="47.711889779536634" lon="7.068638563642017"><ele>378.0</ele><time>2026-03-28T07:45:04Z</time></trkpt><trkpt lat="47.71193529245443" lon="7.0682450246692605"><ele>378.0</ele><time>2026-03-28T07:45:05Z</time></trkpt><trkpt lat="47.71197570863652" lon="7.067853789355122"><ele>378.0</ele><time>2026-03-28T07:45:06Z</time></trkpt><trkpt lat="47.71201827996119" lon="7.067465770328174"><ele>380.0</ele><time>2026-03-28T07:45:07Z</time></trkpt><trkpt lat="47.71206234068537" lon="7.067080131145177"><ele>382.0</ele><time>2026-03-28T07:45:08Z</time></trkpt><trkpt lat="47.71210281142861" lon="7.066696184529292"><ele>382.5</ele><time>2026-03-28T07:45:09Z</time></trkpt><trkpt lat="47.71214978154341" lon="7.066322611821586"><ele>383.0</ele><time>2026-03-28T07:45:10Z</time></trkpt><trkpt lat="47.71218844398952" lon="7.065940848182417"><ele>384.5</ele><time>2026-03-28T07:45:11Z</time></trkpt><trkpt lat="47.71222712384119" lon="7.065556345641153"><ele>386.0</ele><time>2026-03-28T07:45:12Z</time></trkpt><trkpt lat="47.71225989669486" lon="7.065171325722468"><ele>385.5</ele><time>2026-03-28T07:45:13Z</time></trkpt><trkpt lat="47.71229463763471" lon="7.0647843126344725"><ele>385.0</ele><time>2026-03-28T07:45:14Z</time></trkpt><trkpt lat="47.71232987762057" lon="7.064398723517165"><ele>385.5</ele><time>2026-03-28T07:45:15Z</time></trkpt><trkpt lat="47.71236837542662" lon="7.064013148000434"><ele>386.0</ele><time>2026-03-28T07:45:16Z</time></trkpt><trkpt lat="47.71239869673411" lon="7.063624138206656"><ele>382.5</ele><time>2026-03-28T07:45:17Z</time></trkpt><trkpt lat="47.71243551636912" lon="7.063242994019485"><ele>379.0</ele><time>2026-03-28T07:45:18Z</time></trkpt><trkpt lat="47.71246859820971" lon="7.062856308099493"><ele>379.0</ele><time>2026-03-28T07:45:19Z</time></trkpt><trkpt lat="47.71249680766428" lon="7.062467124097273"><ele>379.0</ele><time>2026-03-28T07:45:20Z</time></trkpt><trkpt lat="47.71252526250711" lon="7.062082559070303"><ele>376.5</ele><time>2026-03-28T07:45:21Z</time></trkpt><trkpt lat="47.71254901270906" lon="7.061696827651147"><ele>374.0</ele><time>2026-03-28T07:45:22Z</time></trkpt><trkpt lat="47.71256933558364" lon="7.061308744092087"><ele>374.0</ele><time>2026-03-28T07:45:23Z</time></trkpt><trkpt lat="47.71259042807389" lon="7.06092011984724"><ele>374.0</ele><time>2026-03-28T07:45:24Z</time></trkpt><trkpt lat="47.71260738426475" lon="7.060533326370709"><ele>374.0</ele><time>2026-03-28T07:45:25Z</time></trkpt><trkpt lat="47.712624308848035" lon="7.060146020108137"><ele>374.0</ele><time>2026-03-28T07:45:26Z</time></trkpt><trkpt lat="47.71263933610365" lon="7.059760164286817"><ele>374.0</ele><time>2026-03-28T07:45:27Z</time></trkpt><trkpt lat="47.71264996681541" lon="7.059375634074395"><ele>374.0</ele><time>2026-03-28T07:45:28Z</time></trkpt><trkpt lat="47.71265580241297" lon="7.058986717773666"><ele>375.0</ele><time>2026-03-28T07:45:29Z</time></trkpt><trkpt lat="47.7126548098812" lon="7.058596603305041"><ele>376.0</ele><time>2026-03-28T07:45:30Z</time></trkpt><trkpt lat="47.71265055320586" lon="7.058207410288318"><ele>376.5</ele><time>2026-03-28T07:45:31Z</time></trkpt><trkpt lat="47.712647434650066" lon="7.057822429697574"><ele>377.0</ele><time>2026-03-28T07:45:32Z</time></trkpt><trkpt lat="47.71264156924457" lon="7.057434591617984"><ele>377.0</ele><time>2026-03-28T07:45:33Z</time></trkpt><trkpt lat="47.712637928144176" lon="7.0570532883970145"><ele>377.0</ele><time>2026-03-28T07:45:34Z</time></trkpt><trkpt lat="47.71263177305579" lon="7.056665389274388"><ele>379.0</ele><time>2026-03-28T07:45:35Z</time></trkpt><trkpt lat="47.7126223837027" lon="7.056275198568686"><ele>381.0</ele><time>2026-03-28T07:45:36Z</time></trkpt><trkpt lat="47.712607732858096" lon="7.055882613229145"><ele>382.0</ele><time>2026-03-28T07:45:37Z</time></trkpt><trkpt lat="47.71258806945889" lon="7.05549152803757"><ele>383.0</ele><time>2026-03-28T07:45:38Z</time></trkpt><trkpt lat="47.71255866826511" lon="7.055100122961519"><ele>383.0</ele><time>2026-03-28T07:45:39Z</time></trkpt><trkpt lat="47.71252440144673" lon="7.0547073775378255"><ele>383.0</ele><time>2026-03-28T07:45:40Z</time></trkpt><trkpt lat="47.71248625939251" lon="7.054314586856562"><ele>384.0</ele><time>2026-03-28T07:45:41Z</time></trkpt><trkpt lat="47.71244622756287" lon="7.0539206796350005"><ele>385.0</ele><time>2026-03-28T07:45:42Z</time></trkpt><trkpt lat="47.71240553464003" lon="7.053529308745402"><ele>387.5</ele><time>2026-03-28T07:45:43Z</time></trkpt><trkpt lat="47.712360639235825" lon="7.053137550355488"><ele>390.0</ele><time>2026-03-28T07:45:44Z</time></trkpt><trkpt lat="47.71231060779488" lon="7.052748625005924"><ele>395.5</ele><time>2026-03-28T07:45:45Z</time></trkpt><trkpt lat="47.712255778732846" lon="7.052360762393437"><ele>401.0</ele><time>2026-03-28T07:45:46Z</time></trkpt><trkpt lat="47.7121989193603" lon="7.051976912187087"><ele>401.0</ele><time>2026-03-28T07:45:47Z</time></trkpt><trkpt lat="47.71213886875565" lon="7.051588802451764"><ele>401.0</ele><time>2026-03-28T07:45:48Z</time></trkpt><trkpt lat="47.71207343122112" lon="7.051209186795358"><ele>401.0</ele><time>2026-03-28T07:45:49Z</time></trkpt><trkpt lat="47.71200767511368" lon="7.050827750248835"><ele>401.0</ele><time>2026-03-28T07:45:50Z</time></trkpt><trkpt lat="47.711932980494616" lon="7.05044612935725"><ele>400.0</ele><time>2026-03-28T07:45:51Z</time></trkpt><trkpt lat="47.71185941339964" lon="7.050062148637134"><ele>399.0</ele><time>2026-03-28T07:45:52Z</time></trkpt><trkpt lat="47.71178009718743" lon="7.049679096372986"><ele>398.5</ele><time>2026-03-28T07:45:53Z</time></trkpt><trkpt lat="47.71169982665365" lon="7.049297955252951"><ele>398.0</ele><time>2026-03-28T07:45:54Z</time></trkpt><trkpt lat="47.71161591422197" lon="7.048919643882502"><ele>399.0</ele><time>2026-03-28T07:45:55Z</time></trkpt><trkpt lat="47.71152981938322" lon="7.04854248800532"><ele>400.0</ele><time>2026-03-28T07:45:56Z</time></trkpt><trkpt lat="47.71143820304842" lon="7.048166731195911"><ele>400.5</ele><time>2026-03-28T07:45:57Z</time></trkpt><trkpt lat="47.71134201849105" lon="7.047793693442578"><ele>401.0</ele><time>2026-03-28T07:45:58Z</time></trkpt><trkpt lat="47.711242634505005" lon="7.047419837177168"><ele>401.0</ele><time>2026-03-28T07:45:59Z</time></trkpt><trkpt lat="47.71113636562512" lon="7.047048716784899"><ele>401.0</ele><time>2026-03-28T07:46:00Z</time></trkpt><trkpt lat="47.71102832397363" lon="7.046682905633874"><ele>399.0</ele><time>2026-03-28T07:46:01Z</time></trkpt><trkpt lat="47.71091887089608" lon="7.046317969286903"><ele>397.0</ele><time>2026-03-28T07:46:02Z</time></trkpt><trkpt lat="47.71080587454165" lon="7.045952270987834"><ele>398.0</ele><time>2026-03-28T07:46:03Z</time></trkpt><trkpt lat="47.71068814594898" lon="7.045585464578071"><ele>399.0</ele><time>2026-03-28T07:46:04Z</time></trkpt><trkpt lat="47.710567666013176" lon="7.04522521884201"><ele>399.0</ele><time>2026-03-28T07:46:05Z</time></trkpt><trkpt lat="47.71044259304739" lon="7.044868199200417"><ele>399.0</ele><time>2026-03-28T07:46:06Z</time></trkpt><trkpt lat="47.71031275522671" lon="7.044511754388387"><ele>396.5</ele><time>2026-03-28T07:46:07Z</time></trkpt><trkpt lat="47.71018088145116" lon="7.044160737410197"><ele>394.0</ele><time>2026-03-28T07:46:08Z</time></trkpt><trkpt lat="47.71004583160847" lon="7.043811898792687"><ele>393.0</ele><time>2026-03-28T07:46:09Z</time></trkpt><trkpt lat="47.70991036409051" lon="7.043464765055266"><ele>392.0</ele><time>2026-03-28T07:46:10Z</time></trkpt><trkpt lat="47.709769338308575" lon="7.0431225678301805"><ele>391.0</ele><time>2026-03-28T07:46:11Z</time></trkpt><trkpt lat="47.7096269440774" lon="7.042782531848595"><ele>390.0</ele><time>2026-03-28T07:46:12Z</time></trkpt><trkpt lat="47.70948275050938" lon="7.042443002343795"><ele>387.5</ele><time>2026-03-28T07:46:13Z</time></trkpt><trkpt lat="47.70933671073503" lon="7.0421053586636475"><ele>385.0</ele><time>2026-03-28T07:46:14Z</time></trkpt><trkpt lat="47.709189519809975" lon="7.0417697063438105"><ele>388.0</ele><time>2026-03-28T07:46:15Z</time></trkpt><trkpt lat="47.70903934984201" lon="7.04143670199484"><ele>391.0</ele><time>2026-03-28T07:46:16Z</time></trkpt><trkpt lat="47.708887627324515" lon="7.041103163574454"><ele>393.5</ele><time>2026-03-28T07:46:17Z</time></trkpt><trkpt lat="47.70873538284274" lon="7.040774882219194"><ele>396.0</ele><time>2026-03-28T07:46:18Z</time></trkpt><trkpt lat="47.708584023322096" lon="7.0404451773712955"><ele>395.0</ele><time>2026-03-28T07:46:19Z</time></trkpt><trkpt lat="47.70843454310574" lon="7.040116247279199"><ele>394.0</ele><time>2026-03-28T07:46:20Z</time></trkpt><trkpt lat="47.70827937325635" lon="7.039790656980413"><ele>394.0</ele><time>2026-03-28T07:46:21Z</time></trkpt><trkpt lat="47.708123970523" lon="7.0394637753849825"><ele>394.0</ele><time>2026-03-28T07:46:22Z</time></trkpt><trkpt lat="47.70797061926378" lon="7.0391391189994374"><ele>392.5</ele><time>2026-03-28T07:46:23Z</time></trkpt><trkpt lat="47.70781724399843" lon="7.038812397072954"><ele>391.0</ele><time>2026-03-28T07:46:24Z</time></trkpt><trkpt lat="47.70766076101454" lon="7.038487291418691"><ele>393.0</ele><time>2026-03-28T07:46:25Z</time></trkpt><trkpt lat="47.707504656674644" lon="7.038164476068089"><ele>395.0</ele><time>2026-03-28T07:46:26Z</time></trkpt><trkpt lat="47.70735067615938" lon="7.037840162282818"><ele>395.0</ele><time>2026-03-28T07:46:27Z</time></trkpt><trkpt lat="47.70719204631541" lon="7.037517032402618"><ele>395.0</ele><time>2026-03-28T07:46:28Z</time></trkpt><trkpt lat="47.707032293675724" lon="7.037191243414763"><ele>394.5</ele><time>2026-03-28T07:46:29Z</time></trkpt><trkpt lat="47.70687774791008" lon="7.036866830693601"><ele>394.0</ele><time>2026-03-28T07:46:30Z</time></trkpt><trkpt lat="47.706722676700934" lon="7.0365436896978615"><ele>394.0</ele><time>2026-03-28T07:46:31Z</time></trkpt><trkpt lat="47.706560216614875" lon="7.036219366064239"><ele>394.0</ele><time>2026-03-28T07:46:32Z</time></trkpt><trkpt lat="47.70640087919292" lon="7.035897237785151"><ele>396.5</ele><time>2026-03-28T07:46:33Z</time></trkpt><trkpt lat="47.70624359169905" lon="7.035574337423196"><ele>399.0</ele><time>2026-03-28T07:46:34Z</time></trkpt><trkpt lat="47.706084628857276" lon="7.035254619941972"><ele>399.0</ele><time>2026-03-28T07:46:35Z</time></trkpt><trkpt lat="47.70591940208737" lon="7.034936558987533"><ele>399.0</ele><time>2026-03-28T07:46:36Z</time></trkpt><trkpt lat="47.70575828563414" lon="7.03461906712819"><ele>399.0</ele><time>2026-03-28T07:46:37Z</time></trkpt><trkpt lat="47.7055953315979" lon="7.034302205693164"><ele>399.0</ele><time>2026-03-28T07:46:38Z</time></trkpt><trkpt lat="47.705428125952835" lon="7.033984865192302"><ele>399.0</ele><time>2026-03-28T07:46:39Z</time></trkpt><trkpt lat="47.70526198028282" lon="7.0336691953491695"><ele>399.0</ele><time>2026-03-28T07:46:40Z</time></trkpt><trkpt lat="47.70509091326132" lon="7.033353996954684"><ele>397.0</ele><time>2026-03-28T07:46:41Z</time></trkpt><trkpt lat="47.70491880393107" lon="7.033040680511386"><ele>395.0</ele><time>2026-03-28T07:46:42Z</time></trkpt><trkpt lat="47.70474717115765" lon="7.032729040832051"><ele>395.5</ele><time>2026-03-28T07:46:43Z</time></trkpt><trkpt lat="47.70457182143385" lon="7.032421302066301"><ele>396.0</ele><time>2026-03-28T07:46:44Z</time></trkpt><trkpt lat="47.70439828954056" lon="7.03211137660121"><ele>394.0</ele><time>2026-03-28T07:46:45Z</time></trkpt><trkpt lat="47.70421991627419" lon="7.03180301363072"><ele>392.0</ele><time>2026-03-28T07:46:46Z</time></trkpt><trkpt lat="47.704035235453574" lon="7.031496827487309"><ele>391.5</ele><time>2026-03-28T07:46:47Z</time></trkpt><trkpt lat="47.70385499072375" lon="7.031192381925097"><ele>391.0</ele><time>2026-03-28T07:46:48Z</time></trkpt><trkpt lat="47.703670007252335" lon="7.030892015894389"><ele>387.5</ele><time>2026-03-28T07:46:49Z</time></trkpt><trkpt lat="47.70348529594467" lon="7.030592658738567"><ele>384.0</ele><time>2026-03-28T07:46:50Z</time></trkpt><trkpt lat="47.703303895383776" lon="7.030295417228762"><ele>384.0</ele><time>2026-03-28T07:46:51Z</time></trkpt><trkpt lat="47.703117564833065" lon="7.030001073065575"><ele>384.0</ele><time>2026-03-28T07:46:52Z</time></trkpt><trkpt lat="47.70292829699702" lon="7.029708030202883"><ele>382.0</ele><time>2026-03-28T07:46:53Z</time></trkpt><trkpt lat="47.70273656057807" lon="7.0294207068090415"><ele>380.0</ele><time>2026-03-28T07:46:54Z</time></trkpt><trkpt lat="47.7025475372064" lon="7.029133256789448"><ele>378.5</ele><time>2026-03-28T07:46:55Z</time></trkpt><trkpt lat="47.70235318328817" lon="7.02884902983311"><ele>377.0</ele><time>2026-03-28T07:46:56Z</time></trkpt><trkpt lat="47.7021617170295" lon="7.028566908675457"><ele>377.5</ele><time>2026-03-28T07:46:57Z</time></trkpt><trkpt lat="47.70196856589529" lon="7.028285787331083"><ele>378.0</ele><time>2026-03-28T07:46:58Z</time></trkpt><trkpt lat="47.70177166212537" lon="7.028004843367222"><ele>378.0</ele><time>2026-03-28T07:46:59Z</time></trkpt><trkpt lat="47.7015722311185" lon="7.027729684365584"><ele>378.0</ele><time>2026-03-28T07:47:00Z</time></trkpt><trkpt lat="47.701371642734216" lon="7.027456386043853"><ele>376.0</ele><time>2026-03-28T07:47:01Z</time></trkpt><trkpt lat="47.70117057306567" lon="7.027182022924653"><ele>374.0</ele><time>2026-03-28T07:47:02Z</time></trkpt><trkpt lat="47.700968943663995" lon="7.026912446986459"><ele>374.0</ele><time>2026-03-28T07:47:03Z</time></trkpt><trkpt lat="47.70076195157036" lon="7.026647649154987"><ele>374.0</ele><time>2026-03-28T07:47:04Z</time></trkpt><trkpt lat="47.70055882301907" lon="7.02638135870629"><ele>374.5</ele><time>2026-03-28T07:47:05Z</time></trkpt><trkpt lat="47.7003505675311" lon="7.0261185847677465"><ele>375.0</ele><time>2026-03-28T07:47:06Z</time></trkpt><trkpt lat="47.70014274225641" lon="7.025854630384568"><ele>375.0</ele><time>2026-03-28T07:47:07Z</time></trkpt><trkpt lat="47.69993561516742" lon="7.025597603586027"><ele>375.0</ele><time>2026-03-28T07:47:08Z</time></trkpt><trkpt lat="47.699724738671854" lon="7.025338843276746"><ele>375.0</ele><time>2026-03-28T07:47:09Z</time></trkpt><trkpt lat="47.69951205018641" lon="7.025082668191453"><ele>375.0</ele><time>2026-03-28T07:47:10Z</time></trkpt><trkpt lat="47.69930016248847" lon="7.024835944463419"><ele>375.5</ele><time>2026-03-28T07:47:11Z</time></trkpt><trkpt lat="47.699084618348415" lon="7.024586712993536"><ele>376.0</ele><time>2026-03-28T07:47:12Z</time></trkpt><trkpt lat="47.698869968593186" lon="7.024340342265875"><ele>376.0</ele><time>2026-03-28T07:47:13Z</time></trkpt><trkpt lat="47.69865668406478" lon="7.024099182787153"><ele>376.0</ele><time>2026-03-28T07:47:14Z</time></trkpt><trkpt lat="47.69843946459962" lon="7.023854863713129"><ele>376.0</ele><time>2026-03-28T07:47:15Z</time></trkpt><trkpt lat="47.69822431011378" lon="7.023615368505143"><ele>376.0</ele><time>2026-03-28T07:47:16Z</time></trkpt><trkpt lat="47.69800347295518" lon="7.0233828843237225"><ele>376.0</ele><time>2026-03-28T07:47:17Z</time></trkpt><trkpt lat="47.6977856097956" lon="7.023144844667349"><ele>376.0</ele><time>2026-03-28T07:47:18Z</time></trkpt><trkpt lat="47.69756562657277" lon="7.022912195136756"><ele>376.0</ele><time>2026-03-28T07:47:19Z</time></trkpt><trkpt lat="47.69734316398691" lon="7.022684078666302"><ele>376.0</ele><time>2026-03-28T07:47:20Z</time></trkpt><trkpt lat="47.6971213235161" lon="7.022458119270547"><ele>374.0</ele><time>2026-03-28T07:47:21Z</time></trkpt><trkpt lat="47.696899550791" lon="7.022234003456815"><ele>372.0</ele><time>2026-03-28T07:47:22Z</time></trkpt><trkpt lat="47.69667826340644" lon="7.02200913152713"><ele>372.0</ele><time>2026-03-28T07:47:23Z</time></trkpt><trkpt lat="47.69645745523238" lon="7.021781653970469"><ele>372.0</ele><time>2026-03-28T07:47:24Z</time></trkpt><trkpt lat="47.69623703827103" lon="7.021558034202485"><ele>371.0</ele><time>2026-03-28T07:47:25Z</time></trkpt><trkpt lat="47.69601568059008" lon="7.021331974253162"><ele>370.0</ele><time>2026-03-28T07:47:26Z</time></trkpt><trkpt lat="47.69579608448702" lon="7.021110058915875"><ele>370.0</ele><time>2026-03-28T07:47:27Z</time></trkpt><trkpt lat="47.695576096084885" lon="7.0208868630796974"><ele>370.0</ele><time>2026-03-28T07:47:28Z</time></trkpt><trkpt lat="47.695357230846504" lon="7.020662481745913"><ele>369.5</ele><time>2026-03-28T07:47:29Z</time></trkpt><trkpt lat="47.695135483167114" lon="7.020441305979604"><ele>369.0</ele><time>2026-03-28T07:47:30Z</time></trkpt><trkpt lat="47.69491498518849" lon="7.0202184704396275"><ele>369.0</ele><time>2026-03-28T07:47:31Z</time></trkpt><trkpt lat="47.69469542675386" lon="7.019995902700624"><ele>369.0</ele><time>2026-03-28T07:47:32Z</time></trkpt><trkpt lat="47.69447453300185" lon="7.019774940713598"><ele>370.0</ele><time>2026-03-28T07:47:33Z</time></trkpt><trkpt lat="47.694252957604526" lon="7.019552548323466"><ele>371.0</ele><time>2026-03-28T07:47:34Z</time></trkpt><trkpt lat="47.69403168747602" lon="7.019327291078036"><ele>371.5</ele><time>2026-03-28T07:47:35Z</time></trkpt><trkpt lat="47.693812051048816" lon="7.019106060156797"><ele>372.0</ele><time>2026-03-28T07:47:36Z</time></trkpt><trkpt lat="47.693593991442704" lon="7.018883538923121"><ele>371.5</ele><time>2026-03-28T07:47:37Z</time></trkpt><trkpt lat="47.69337342524763" lon="7.018658904842909"><ele>371.0</ele><time>2026-03-28T07:47:38Z</time></trkpt><trkpt lat="47.69315203792419" lon="7.018433433390734"><ele>371.0</ele><time>2026-03-28T07:47:39Z</time></trkpt><trkpt lat="47.692930666181645" lon="7.018208614507775"><ele>371.0</ele><time>2026-03-28T07:47:40Z</time></trkpt><trkpt lat="47.69270936253683" lon="7.017985566415614"><ele>370.5</ele><time>2026-03-28T07:47:41Z</time></trkpt><trkpt lat="47.6924887193414" lon="7.01776262732712"><ele>370.0</ele><time>2026-03-28T07:47:42Z</time></trkpt><trkpt lat="47.69226745994482" lon="7.0175379785154925"><ele>370.0</ele><time>2026-03-28T07:47:43Z</time></trkpt><trkpt lat="47.692047496207614" lon="7.017318021022505"><ele>370.0</ele><time>2026-03-28T07:47:44Z</time></trkpt><trkpt lat="47.69182824599798" lon="7.017089028880714"><ele>370.0</ele><time>2026-03-28T07:47:45Z</time></trkpt><trkpt lat="47.69160968805052" lon="7.016860583570445"><ele>370.0</ele><time>2026-03-28T07:47:46Z</time></trkpt><trkpt lat="47.69139230438554" lon="7.016633467307772"><ele>368.5</ele><time>2026-03-28T07:47:47Z</time></trkpt><trkpt lat="47.69117405314489" lon="7.016404219483504"><ele>367.0</ele><time>2026-03-28T07:47:48Z</time></trkpt><trkpt lat="47.690958883730985" lon="7.016178263710164"><ele>366.5</ele><time>2026-03-28T07:47:49Z</time></trkpt><trkpt lat="47.69074491399867" lon="7.015950333548176"><ele>366.0</ele><time>2026-03-28T07:47:50Z</time></trkpt><trkpt lat="47.69053155385744" lon="7.015718197868585"><ele>366.0</ele><time>2026-03-28T07:47:51Z</time></trkpt><trkpt lat="47.690317455410636" lon="7.015482848166478"><ele>366.0</ele><time>2026-03-28T07:47:52Z</time></trkpt><trkpt lat="47.69010417281597" lon="7.015244433022951"><ele>366.0</ele><time>2026-03-28T07:47:53Z</time></trkpt><trkpt lat="47.68988780449459" lon="7.0150075461745205"><ele>366.0</ele><time>2026-03-28T07:47:54Z</time></trkpt><trkpt lat="47.68967236580823" lon="7.014768704653847"><ele>366.0</ele><time>2026-03-28T07:47:55Z</time></trkpt><trkpt lat="47.68945769417262" lon="7.014525906139512"><ele>366.0</ele><time>2026-03-28T07:47:56Z</time></trkpt><trkpt lat="47.6892444243607" lon="7.014277834368064"><ele>365.0</ele><time>2026-03-28T07:47:57Z</time></trkpt><trkpt lat="47.689034551863095" lon="7.014023934038608"><ele>364.0</ele><time>2026-03-28T07:47:58Z</time></trkpt><trkpt lat="47.688823540447274" lon="7.01376404355396"><ele>364.0</ele><time>2026-03-28T07:47:59Z</time></trkpt><trkpt lat="47.6886122273883" lon="7.013499327520601"><ele>364.0</ele><time>2026-03-28T07:48:00Z</time></trkpt><trkpt lat="47.688404093632116" lon="7.013227678557479"><ele>363.0</ele><time>2026-03-28T07:48:01Z</time></trkpt><trkpt lat="47.68819891772069" lon="7.012955916461716"><ele>362.0</ele><time>2026-03-28T07:48:02Z</time></trkpt><trkpt lat="47.687994928206564" lon="7.012679230004193"><ele>362.0</ele><time>2026-03-28T07:48:03Z</time></trkpt><trkpt lat="47.68779263079806" lon="7.012395886408184"><ele>362.0</ele><time>2026-03-28T07:48:04Z</time></trkpt><trkpt lat="47.68759185277697" lon="7.012109132035102"><ele>361.0</ele><time>2026-03-28T07:48:05Z</time></trkpt><trkpt lat="47.68739763750667" lon="7.01181767452415"><ele>360.0</ele><time>2026-03-28T07:48:06Z</time></trkpt><trkpt lat="47.687206899523154" lon="7.011519425290916"><ele>359.5</ele><time>2026-03-28T07:48:07Z</time></trkpt><trkpt lat="47.68701886181572" lon="7.011220086499084"><ele>359.0</ele><time>2026-03-28T07:48:08Z</time></trkpt><trkpt lat="47.68683287249999" lon="7.010913302183821"><ele>359.5</ele><time>2026-03-28T07:48:09Z</time></trkpt><trkpt lat="47.68664445891614" lon="7.010607912171277"><ele>360.0</ele><time>2026-03-28T07:48:10Z</time></trkpt><trkpt lat="47.68645781683851" lon="7.010306185547844"><ele>360.0</ele><time>2026-03-28T07:48:11Z</time></trkpt><trkpt lat="47.68626852257352" lon="7.01000396382929"><ele>360.0</ele><time>2026-03-28T07:48:12Z</time></trkpt><trkpt lat="47.68608512016447" lon="7.009696970373515"><ele>360.0</ele><time>2026-03-28T07:48:13Z</time></trkpt><trkpt lat="47.685901516268956" lon="7.0093880312862"><ele>360.0</ele><time>2026-03-28T07:48:14Z</time></trkpt><trkpt lat="47.68572170231774" lon="7.009073878785677"><ele>360.0</ele><time>2026-03-28T07:48:15Z</time></trkpt><trkpt lat="47.685542765858294" lon="7.008757596131001"><ele>360.0</ele><time>2026-03-28T07:48:16Z</time></trkpt><trkpt lat="47.68537184866567" lon="7.008435067890459"><ele>361.0</ele><time>2026-03-28T07:48:17Z</time></trkpt><trkpt lat="47.68520058033286" lon="7.008111866853167"><ele>362.0</ele><time>2026-03-28T07:48:18Z</time></trkpt><trkpt lat="47.68503186814561" lon="7.007790146467876"><ele>362.0</ele><time>2026-03-28T07:48:19Z</time></trkpt><trkpt lat="47.684864885601954" lon="7.007464664411891"><ele>362.0</ele><time>2026-03-28T07:48:20Z</time></trkpt><trkpt lat="47.684699696607" lon="7.007135896427385"><ele>362.0</ele><time>2026-03-28T07:48:21Z</time></trkpt><trkpt lat="47.6845347932301" lon="7.006807634290567"><ele>362.0</ele><time>2026-03-28T07:48:22Z</time></trkpt><trkpt lat="47.684375976754446" lon="7.006481060574644"><ele>364.0</ele><time>2026-03-28T07:48:23Z</time></trkpt><trkpt lat="47.684220524606204" lon="7.006159900401504"><ele>366.0</ele><time>2026-03-28T07:48:24Z</time></trkpt><trkpt lat="47.68406801649717" lon="7.005830589583578"><ele>366.5</ele><time>2026-03-28T07:48:25Z</time></trkpt><trkpt lat="47.68392017058278" lon="7.00550793883626"><ele>367.0</ele><time>2026-03-28T07:48:26Z</time></trkpt><trkpt lat="47.68377411372108" lon="7.005182954570406"><ele>366.5</ele><time>2026-03-28T07:48:27Z</time></trkpt><trkpt lat="47.68363198757074" lon="7.004867859159751"><ele>366.0</ele><time>2026-03-28T07:48:28Z</time></trkpt><trkpt lat="47.68349879933311" lon="7.004558370842032"><ele>366.0</ele><time>2026-03-28T07:48:29Z</time></trkpt><trkpt lat="47.68336815596307" lon="7.004257560891614"><ele>366.0</ele><time>2026-03-28T07:48:30Z</time></trkpt><trkpt lat="47.68324355545623" lon="7.003958074803949"><ele>367.0</ele><time>2026-03-28T07:48:31Z</time></trkpt><trkpt lat="47.683125247365" lon="7.003652647126931"><ele>368.0</ele><time>2026-03-28T07:48:32Z</time></trkpt><trkpt lat="47.68300270338349" lon="7.003344352567675"><ele>369.5</ele><time>2026-03-28T07:48:33Z</time></trkpt><trkpt lat="47.68288602871675" lon="7.003032776476126"><ele>371.0</ele><time>2026-03-28T07:48:34Z</time></trkpt><trkpt lat="47.68276809892373" lon="7.002715985327535"><ele>370.5</ele><time>2026-03-28T07:48:35Z</time></trkpt><trkpt lat="47.68265585152134" lon="7.002404027561661"><ele>370.0</ele><time>2026-03-28T07:48:36Z</time></trkpt><trkpt lat="47.682537257474124" lon="7.0020913583761875"><ele>370.0</ele><time>2026-03-28T07:48:37Z</time></trkpt><trkpt lat="47.68241774248845" lon="7.001778399272885"><ele>370.0</ele><time>2026-03-28T07:48:38Z</time></trkpt><trkpt lat="47.682301355733074" lon="7.001457180473758"><ele>370.5</ele><time>2026-03-28T07:48:39Z</time></trkpt><trkpt lat="47.68218514962604" lon="7.001132514999668"><ele>371.0</ele><time>2026-03-28T07:48:40Z</time></trkpt><trkpt lat="47.682068795211094" lon="7.000805114640746"><ele>371.0</ele><time>2026-03-28T07:48:41Z</time></trkpt><trkpt lat="47.68195851817121" lon="7.000471656100546"><ele>371.0</ele><time>2026-03-28T07:48:42Z</time></trkpt><trkpt lat="47.68184441898321" lon="7.000141084645914"><ele>370.5</ele><time>2026-03-28T07:48:43Z</time></trkpt><trkpt lat="47.68173562044847" lon="6.999811931612677"><ele>370.0</ele><time>2026-03-28T07:48:44Z</time></trkpt><trkpt lat="47.68162370297953" lon="6.9994858883851965"><ele>370.0</ele><time>2026-03-28T07:48:45Z</time></trkpt><trkpt lat="47.68151039747695" lon="6.99916225203824"><ele>370.0</ele><time>2026-03-28T07:48:46Z</time></trkpt><trkpt lat="47.68140074099495" lon="6.998839797864632"><ele>370.0</ele><time>2026-03-28T07:48:47Z</time></trkpt><trkpt lat="47.681291980460664" lon="6.998518559797302"><ele>370.0</ele><time>2026-03-28T07:48:48Z</time></trkpt><trkpt lat="47.68118446704029" lon="6.998201659877468"><ele>368.5</ele><time>2026-03-28T07:48:49Z</time></trkpt><trkpt lat="47.681076180428065" lon="6.997886142582899"><ele>367.0</ele><time>2026-03-28T07:48:50Z</time></trkpt><trkpt lat="47.68097147050462" lon="6.997574938966361"><ele>366.0</ele><time>2026-03-28T07:48:51Z</time></trkpt><trkpt lat="47.680866903903066" lon="6.997264187909727"><ele>365.0</ele><time>2026-03-28T07:48:52Z</time></trkpt><trkpt lat="47.6807579343555" lon="6.9969489172070904"><ele>363.5</ele><time>2026-03-28T07:48:53Z</time></trkpt><trkpt lat="47.680648338662664" lon="6.996635856993708"><ele>362.0</ele><time>2026-03-28T07:48:54Z</time></trkpt><trkpt lat="47.68053829090781" lon="6.996324249455776"><ele>362.0</ele><time>2026-03-28T07:48:55Z</time></trkpt><trkpt lat="47.68042749071664" lon="6.996012524196747"><ele>362.0</ele><time>2026-03-28T07:48:56Z</time></trkpt><trkpt lat="47.68031710291153" lon="6.995693081444293"><ele>360.5</ele><time>2026-03-28T07:48:57Z</time></trkpt><trkpt lat="47.68020500279317" lon="6.995374540998833"><ele>359.0</ele><time>2026-03-28T07:48:58Z</time></trkpt><trkpt lat="47.6800914114199" lon="6.9950496334611705"><ele>360.5</ele><time>2026-03-28T07:48:59Z</time></trkpt><trkpt lat="47.67997507522091" lon="6.994718728651037"><ele>362.0</ele><time>2026-03-28T07:49:00Z</time></trkpt><trkpt lat="47.67986617342296" lon="6.994375767243136"><ele>363.5</ele><time>2026-03-28T07:49:01Z</time></trkpt><trkpt lat="47.67975088735077" lon="6.994034113016422"><ele>365.0</ele><time>2026-03-28T07:49:02Z</time></trkpt><trkpt lat="47.67963572095121" lon="6.993688860944133"><ele>365.0</ele><time>2026-03-28T07:49:03Z</time></trkpt><trkpt lat="47.679520125895834" lon="6.99334062561517"><ele>365.0</ele><time>2026-03-28T07:49:04Z</time></trkpt><trkpt lat="47.67940508874285" lon="6.992985895178405"><ele>365.0</ele><time>2026-03-28T07:49:05Z</time></trkpt><trkpt lat="47.679289376470884" lon="6.992630319415304"><ele>365.0</ele><time>2026-03-28T07:49:06Z</time></trkpt><trkpt lat="47.67917330189669" lon="6.9922710621686255"><ele>365.0</ele><time>2026-03-28T07:49:07Z</time></trkpt><trkpt lat="47.67905756832653" lon="6.991914037310573"><ele>365.0</ele><time>2026-03-28T07:49:08Z</time></trkpt><trkpt lat="47.67894185195404" lon="6.991558049964948"><ele>365.0</ele><time>2026-03-28T07:49:09Z</time></trkpt><trkpt lat="47.67882664250847" lon="6.991202440129176"><ele>365.0</ele><time>2026-03-28T07:49:10Z</time></trkpt><trkpt lat="47.67871546284627" lon="6.990852881446112"><ele>365.0</ele><time>2026-03-28T07:49:11Z</time></trkpt><trkpt lat="47.67860293520028" lon="6.990512601328197"><ele>365.0</ele><time>2026-03-28T07:49:12Z</time></trkpt><trkpt lat="47.678495763754455" lon="6.990174369772686"><ele>362.0</ele><time>2026-03-28T07:49:13Z</time></trkpt><trkpt lat="47.67839106882999" lon="6.989834927206843"><ele>359.0</ele><time>2026-03-28T07:49:14Z</time></trkpt><trkpt lat="47.67828654264008" lon="6.989512559028404"><ele>359.0</ele><time>2026-03-28T07:49:15Z</time></trkpt><trkpt lat="47.678185155402964" lon="6.989200709935064"><ele>359.0</ele><time>2026-03-28T07:49:16Z</time></trkpt><trkpt lat="47.67808836664258" lon="6.988885690311426"><ele>358.6666666666667</ele><time>2026-03-28T07:49:17Z</time></trkpt><trkpt lat="47.677995414791944" lon="6.988579448576983"><ele>358.3333333333333</ele><time>2026-03-28T07:49:18Z</time></trkpt><trkpt lat="47.67790259135055" lon="6.98827894585272"><ele>358.0</ele><time>2026-03-28T07:49:19Z</time></trkpt><trkpt lat="47.677816860739064" lon="6.987980652853508"><ele>358.0</ele><time>2026-03-28T07:49:20Z</time></trkpt><trkpt lat="47.67772642670654" lon="6.98768451924103"><ele>358.0</ele><time>2026-03-28T07:49:21Z</time></trkpt><trkpt lat="47.67764189009398" lon="6.987400983253325"><ele>358.0</ele><time>2026-03-28T07:49:22Z</time></trkpt><trkpt lat="47.67755517765008" lon="6.987125707127397"><ele>358.0</ele><time>2026-03-28T07:49:23Z</time></trkpt><trkpt lat="47.677476446437765" lon="6.986852937487906"><ele>358.0</ele><time>2026-03-28T07:49:24Z</time></trkpt><trkpt lat="47.677397090598745" lon="6.986588680314331"><ele>358.0</ele><time>2026-03-28T07:49:25Z</time></trkpt><trkpt lat="47.677319582149046" lon="6.986330473810458"><ele>359.3333333333333</ele><time>2026-03-28T07:49:26Z</time></trkpt><trkpt lat="47.67724378372963" lon="6.986082657282009"><ele>360.6666666666667</ele><time>2026-03-28T07:49:27Z</time></trkpt><trkpt lat="47.67716952638452" lon="6.985841481131489"><ele>362.0</ele><time>2026-03-28T07:49:28Z</time></trkpt><trkpt lat="47.67710086976186" lon="6.98559959463904"><ele>362.6666666666667</ele><time>2026-03-28T07:49:29Z</time></trkpt><trkpt lat="47.67703402480105" lon="6.985357994155886"><ele>363.3333333333333</ele><time>2026-03-28T07:49:30Z</time></trkpt><trkpt lat="47.67696611188225" lon="6.985119468697761"><ele>364.0</ele><time>2026-03-28T07:49:31Z</time></trkpt><trkpt lat="47.67689972026621" lon="6.984884416029102"><ele>364.0</ele><time>2026-03-28T07:49:32Z</time></trkpt><trkpt lat="47.676834299688714" lon="6.984652799450521"><ele>364.0</ele><time>2026-03-28T07:49:33Z</time></trkpt><trkpt lat="47.676770360911995" lon="6.984429470471208"><ele>364.0</ele><time>2026-03-28T07:49:34Z</time></trkpt><trkpt lat="47.67671068083856" lon="6.984212565848536"><ele>364.66666666666663</ele><time>2026-03-28T07:49:35Z</time></trkpt><trkpt lat="47.67666938151582" lon="6.983989443609819"><ele>365.3333333333333</ele><time>2026-03-28T07:49:36Z</time></trkpt><trkpt lat="47.67662967416716" lon="6.983764543024344"><ele>366.0</ele><time>2026-03-28T07:49:37Z</time></trkpt><trkpt lat="47.676565092582806" lon="6.983561868203942"><ele>366.0</ele><time>2026-03-28T07:49:38Z</time></trkpt><trkpt lat="47.676520805569325" lon="6.983356634621521"><ele>366.0</ele><time>2026-03-28T07:49:39Z</time></trkpt><trkpt lat="47.67647420244179" lon="6.983161883442596"><ele>366.0</ele><time>2026-03-28T07:49:40Z</time></trkpt><trkpt lat="47.67642881860722" lon="6.9829722276631"><ele>366.0</ele><time>2026-03-28T07:49:41Z</time></trkpt><trkpt lat="47.67638395765572" lon="6.98278972281161"><ele>366.4</ele><time>2026-03-28T07:49:42Z</time></trkpt><trkpt lat="47.67634070571364" lon="6.982615678388396"><ele>366.8</ele><time>2026-03-28T07:49:43Z</time></trkpt><trkpt lat="47.67630169937012" lon="6.982458718198738"><ele>367.2</ele><time>2026-03-28T07:49:44Z</time></trkpt><trkpt lat="47.676266407925276" lon="6.982318635948208"><ele>367.59999999999997</ele><time>2026-03-28T07:49:45Z</time></trkpt><trkpt lat="47.67623289533458" lon="6.982187829185492"><ele>368.0</ele><time>2026-03-28T07:49:46Z</time></trkpt><trkpt lat="47.676204500392615" lon="6.9820792039022646"><ele>367.83333333333337</ele><time>2026-03-28T07:49:47Z</time></trkpt><trkpt lat="47.67618018119932" lon="6.981986602475146"><ele>367.6666666666667</ele><time>2026-03-28T07:49:48Z</time></trkpt><trkpt lat="47.67613946951412" lon="6.981837127773827"><ele>367.5</ele><time>2026-03-28T07:49:50Z</time></trkpt><trkpt lat="47.67610495333837" lon="6.981714734194048"><ele>367.3333333333333</ele><time>2026-03-28T07:49:52Z</time></trkpt><trkpt lat="47.676061664540256" lon="6.981564428190043"><ele>367.16666666666663</ele><time>2026-03-28T07:49:54Z</time></trkpt><trkpt lat="47.67603617293755" lon="6.981476876455344"><ele>367.0</ele><time>2026-03-28T07:49:55Z</time></trkpt><trkpt lat="47.67600651505558" lon="6.981375924505741"><ele>367.0</ele><time>2026-03-28T07:49:56Z</time></trkpt><trkpt lat="47.67597539712652" lon="6.9812709919517255"><ele>367.0</ele><time>2026-03-28T07:49:57Z</time></trkpt><trkpt lat="47.675938000139865" lon="6.981144885774144"><ele>367.0</ele><time>2026-03-28T07:49:58Z</time></trkpt><trkpt lat="47.6758926065598" lon="6.980998659979604"><ele>367.0</ele><time>2026-03-28T07:49:59Z</time></trkpt><trkpt lat="47.67584573470123" lon="6.980848931631855"><ele>367.0</ele><time>2026-03-28T07:50:00Z</time></trkpt><trkpt lat="47.675796899002044" lon="6.980696915314148"><ele>367.25</ele><time>2026-03-28T07:50:01Z</time></trkpt><trkpt lat="47.67574329131706" lon="6.980533503264636"><ele>367.5</ele><time>2026-03-28T07:50:02Z</time></trkpt><trkpt lat="47.67568701769884" lon="6.980368398029458"><ele>367.75</ele><time>2026-03-28T07:50:03Z</time></trkpt><trkpt lat="47.675626217381485" lon="6.980196112439384"><ele>368.0</ele><time>2026-03-28T07:50:04Z</time></trkpt><trkpt lat="47.67555735782064" lon="6.980013347260556"><ele>368.33333333333337</ele><time>2026-03-28T07:50:05Z</time></trkpt><trkpt lat="47.675484047107716" lon="6.979828348081272"><ele>368.6666666666667</ele><time>2026-03-28T07:50:06Z</time></trkpt><trkpt lat="47.67539661102343" lon="6.9796440051680175"><ele>369.0</ele><time>2026-03-28T07:50:07Z</time></trkpt><trkpt lat="47.67533245254716" lon="6.9794193878153115"><ele>369.3333333333333</ele><time>2026-03-28T07:50:08Z</time></trkpt><trkpt lat="47.67525908130426" lon="6.979196935062239"><ele>369.66666666666663</ele><time>2026-03-28T07:50:09Z</time></trkpt><trkpt lat="47.67518224106182" lon="6.978967457884438"><ele>370.0</ele><time>2026-03-28T07:50:10Z</time></trkpt><trkpt lat="47.6751010736784" lon="6.978730727899401"><ele>370.0</ele><time>2026-03-28T07:50:11Z</time></trkpt><trkpt lat="47.67501669239412" lon="6.978480764246758"><ele>370.0</ele><time>2026-03-28T07:50:12Z</time></trkpt><trkpt lat="47.67493073640988" lon="6.978228297048757"><ele>370.0</ele><time>2026-03-28T07:50:13Z</time></trkpt><trkpt lat="47.67484737222793" lon="6.977981962864508"><ele>371.0</ele><time>2026-03-28T07:50:14Z</time></trkpt><trkpt lat="47.67476164609481" lon="6.977724610298484"><ele>372.0</ele><time>2026-03-28T07:50:15Z</time></trkpt><trkpt lat="47.67467383285481" lon="6.977465828230606"><ele>373.0</ele><time>2026-03-28T07:50:16Z</time></trkpt><trkpt lat="47.674582547526185" lon="6.9771998784669425"><ele>373.3333333333333</ele><time>2026-03-28T07:50:17Z</time></trkpt><trkpt lat="47.67448926985006" lon="6.97692939306056"><ele>373.6666666666667</ele><time>2026-03-28T07:50:18Z</time></trkpt><trkpt lat="47.674394867526175" lon="6.976647487549938"><ele>374.0</ele><time>2026-03-28T07:50:19Z</time></trkpt><trkpt lat="47.67429838163114" lon="6.9763642897267415"><ele>374.0</ele><time>2026-03-28T07:50:20Z</time></trkpt><trkpt lat="47.674199937891764" lon="6.976074851259707"><ele>374.0</ele><time>2026-03-28T07:50:21Z</time></trkpt><trkpt lat="47.6740995741562" lon="6.9757817537361735"><ele>374.0</ele><time>2026-03-28T07:50:22Z</time></trkpt><trkpt lat="47.67399590158284" lon="6.975482834295819"><ele>373.5</ele><time>2026-03-28T07:50:23Z</time></trkpt><trkpt lat="47.673889826276024" lon="6.9751761252289235"><ele>373.0</ele><time>2026-03-28T07:50:24Z</time></trkpt><trkpt lat="47.67378045132182" lon="6.974869547097718"><ele>374.0</ele><time>2026-03-28T07:50:25Z</time></trkpt><trkpt lat="47.67366778630166" lon="6.974554022606643"><ele>375.0</ele><time>2026-03-28T07:50:26Z</time></trkpt><trkpt lat="47.67355436833888" lon="6.974230236449622"><ele>374.0</ele><time>2026-03-28T07:50:27Z</time></trkpt><trkpt lat="47.67343823130051" lon="6.973906116687703"><ele>373.0</ele><time>2026-03-28T07:50:28Z</time></trkpt><trkpt lat="47.67332151587394" lon="6.973577632407321"><ele>373.5</ele><time>2026-03-28T07:50:29Z</time></trkpt><trkpt lat="47.67320415983262" lon="6.973248985144078"><ele>374.0</ele><time>2026-03-28T07:50:30Z</time></trkpt><trkpt lat="47.67308501592608" lon="6.972919056529893"><ele>374.0</ele><time>2026-03-28T07:50:31Z</time></trkpt><trkpt lat="47.67296228423215" lon="6.972585504524213"><ele>374.0</ele><time>2026-03-28T07:50:32Z</time></trkpt><trkpt lat="47.672838045904804" lon="6.972249154538303"><ele>373.5</ele><time>2026-03-28T07:50:33Z</time></trkpt><trkpt lat="47.672712010608954" lon="6.971910943044069"><ele>373.0</ele><time>2026-03-28T07:50:34Z</time></trkpt><trkpt lat="47.672586334677675" lon="6.971570416577904"><ele>372.5</ele><time>2026-03-28T07:50:35Z</time></trkpt><trkpt lat="47.67245603017478" lon="6.97122563124025"><ele>372.0</ele><time>2026-03-28T07:50:36Z</time></trkpt><trkpt lat="47.67232536953983" lon="6.970885036646921"><ele>371.0</ele><time>2026-03-28T07:50:37Z</time></trkpt><trkpt lat="47.6721915143068" lon="6.970538805109739"><ele>370.0</ele><time>2026-03-28T07:50:38Z</time></trkpt><trkpt lat="47.672057764353305" lon="6.970195318341514"><ele>369.5</ele><time>2026-03-28T07:50:39Z</time></trkpt><trkpt lat="47.67192246694339" lon="6.969847940396228"><ele>369.0</ele><time>2026-03-28T07:50:40Z</time></trkpt><trkpt lat="47.67178992219711" lon="6.969501039432849"><ele>368.5</ele><time>2026-03-28T07:50:41Z</time></trkpt><trkpt lat="47.671658715555566" lon="6.96915546190269"><ele>368.0</ele><time>2026-03-28T07:50:42Z</time></trkpt><trkpt lat="47.67152833798871" lon="6.9688098269935805"><ele>368.0</ele><time>2026-03-28T07:50:43Z</time></trkpt><trkpt lat="47.671397534904436" lon="6.968461748007507"><ele>368.0</ele><time>2026-03-28T07:50:44Z</time></trkpt><trkpt lat="47.67126786103901" lon="6.96811832085109"><ele>367.0</ele><time>2026-03-28T07:50:45Z</time></trkpt><trkpt lat="47.671135123927506" lon="6.967772908593537"><ele>366.0</ele><time>2026-03-28T07:50:46Z</time></trkpt><trkpt lat="47.67100571999005" lon="6.967423720691786"><ele>365.5</ele><time>2026-03-28T07:50:47Z</time></trkpt><trkpt lat="47.67087066158305" lon="6.967079369364086"><ele>365.0</ele><time>2026-03-28T07:50:48Z</time></trkpt><trkpt lat="47.67073829450447" lon="6.966731507267401"><ele>365.0</ele><time>2026-03-28T07:50:49Z</time></trkpt><trkpt lat="47.67060713713045" lon="6.966381796097851"><ele>365.0</ele><time>2026-03-28T07:50:50Z</time></trkpt><trkpt lat="47.67047584712733" lon="6.966029157738806"><ele>365.5</ele><time>2026-03-28T07:50:51Z</time></trkpt><trkpt lat="47.670341530761505" lon="6.965675602852209"><ele>366.0</ele><time>2026-03-28T07:50:52Z</time></trkpt><trkpt lat="47.67020642434099" lon="6.965319307451723"><ele>364.5</ele><time>2026-03-28T07:50:53Z</time></trkpt><trkpt lat="47.670070405879265" lon="6.964962694421628"><ele>363.0</ele><time>2026-03-28T07:50:54Z</time></trkpt><trkpt lat="47.669935159229304" lon="6.964602994644621"><ele>363.0</ele><time>2026-03-28T07:50:55Z</time></trkpt><trkpt lat="47.66979959171326" lon="6.964247191996951"><ele>363.0</ele><time>2026-03-28T07:50:56Z</time></trkpt><trkpt lat="47.66966004403556" lon="6.963891980609277"><ele>363.5</ele><time>2026-03-28T07:50:57Z</time></trkpt><trkpt lat="47.669520503669055" lon="6.96353705330982"><ele>364.0</ele><time>2026-03-28T07:50:58Z</time></trkpt><trkpt lat="47.66937758757626" lon="6.963182091970453"><ele>363.0</ele><time>2026-03-28T07:50:59Z</time></trkpt><trkpt lat="47.669231039833335" lon="6.962828263472241"><ele>362.0</ele><time>2026-03-28T07:51:00Z</time></trkpt><trkpt lat="47.66908524248698" lon="6.962473260438093"><ele>362.0</ele><time>2026-03-28T07:51:01Z</time></trkpt><trkpt lat="47.66893756672778" lon="6.962116656997532"><ele>362.0</ele><time>2026-03-28T07:51:02Z</time></trkpt><trkpt lat="47.668786494379255" lon="6.961765203582862"><ele>362.0</ele><time>2026-03-28T07:51:03Z</time></trkpt><trkpt lat="47.668635590577935" lon="6.9614134304487285"><ele>362.0</ele><time>2026-03-28T07:51:04Z</time></trkpt><trkpt lat="47.668480983626495" lon="6.961068352893154"><ele>363.0</ele><time>2026-03-28T07:51:05Z</time></trkpt><trkpt lat="47.668326368310915" lon="6.960727278109356"><ele>364.0</ele><time>2026-03-28T07:51:06Z</time></trkpt><trkpt lat="47.66817273840546" lon="6.960387727435404"><ele>364.0</ele><time>2026-03-28T07:51:07Z</time></trkpt><trkpt lat="47.66801706780865" lon="6.960052531135567"><ele>364.0</ele><time>2026-03-28T07:51:08Z</time></trkpt><trkpt lat="47.66786218761439" lon="6.959722825021065"><ele>364.5</ele><time>2026-03-28T07:51:09Z</time></trkpt><trkpt lat="47.66771038406929" lon="6.9594027562157885"><ele>365.0</ele><time>2026-03-28T07:51:10Z</time></trkpt><trkpt lat="47.667563278980765" lon="6.95909281516051"><ele>365.0</ele><time>2026-03-28T07:51:11Z</time></trkpt><trkpt lat="47.66741205465072" lon="6.958785536450338"><ele>365.0</ele><time>2026-03-28T07:51:12Z</time></trkpt><trkpt lat="47.66725390139147" lon="6.95847750590213"><ele>365.0</ele><time>2026-03-28T07:51:13Z</time></trkpt><trkpt lat="47.66709714120707" lon="6.95817528559937"><ele>365.0</ele><time>2026-03-28T07:51:14Z</time></trkpt><trkpt lat="47.66693666155706" lon="6.957874525265962"><ele>364.0</ele><time>2026-03-28T07:51:15Z</time></trkpt><trkpt lat="47.66677316764728" lon="6.9575752407060625"><ele>363.0</ele><time>2026-03-28T07:51:16Z</time></trkpt><trkpt lat="47.66660881441689" lon="6.957277083050537"><ele>362.5</ele><time>2026-03-28T07:51:17Z</time></trkpt><trkpt lat="47.66644530912386" lon="6.956979967792956"><ele>362.0</ele><time>2026-03-28T07:51:18Z</time></trkpt><trkpt lat="47.666279747214894" lon="6.956684866584569"><ele>362.0</ele><time>2026-03-28T07:51:19Z</time></trkpt><trkpt lat="47.666111057969765" lon="6.956393904545441"><ele>362.0</ele><time>2026-03-28T07:51:20Z</time></trkpt><trkpt lat="47.66594308136548" lon="6.9561081336111075"><ele>363.5</ele><time>2026-03-28T07:51:21Z</time></trkpt><trkpt lat="47.66577229947882" lon="6.955821141218156"><ele>365.0</ele><time>2026-03-28T07:51:22Z</time></trkpt><trkpt lat="47.66559867188637" lon="6.955533884948539"><ele>365.0</ele><time>2026-03-28T07:51:23Z</time></trkpt><trkpt lat="47.66542222421307" lon="6.955249022487969"><ele>365.0</ele><time>2026-03-28T07:51:24Z</time></trkpt><trkpt lat="47.66524734289065" lon="6.954964123587531"><ele>365.0</ele><time>2026-03-28T07:51:25Z</time></trkpt><trkpt lat="47.66507153229133" lon="6.954682576018975"><ele>365.0</ele><time>2026-03-28T07:51:26Z</time></trkpt><trkpt lat="47.66489562829994" lon="6.954407366025544"><ele>366.0</ele><time>2026-03-28T07:51:27Z</time></trkpt><trkpt lat="47.66471782743713" lon="6.9541276124870866"><ele>367.0</ele><time>2026-03-28T07:51:28Z</time></trkpt><trkpt lat="47.664540554200336" lon="6.953849126711703"><ele>366.5</ele><time>2026-03-28T07:51:29Z</time></trkpt><trkpt lat="47.664365860966555" lon="6.953572376753215"><ele>366.0</ele><time>2026-03-28T07:51:30Z</time></trkpt><trkpt lat="47.66418264766125" lon="6.953289911939119"><ele>366.0</ele><time>2026-03-28T07:51:31Z</time></trkpt><trkpt lat="47.66399996908265" lon="6.953006527621859"><ele>366.0</ele><time>2026-03-28T07:51:32Z</time></trkpt><trkpt lat="47.6638164351292" lon="6.9527226517890535"><ele>366.5</ele><time>2026-03-28T07:51:33Z</time></trkpt><trkpt lat="47.6636343040911" lon="6.952437659870025"><ele>367.0</ele><time>2026-03-28T07:51:34Z</time></trkpt><trkpt lat="47.66345327187512" lon="6.952163867317282"><ele>367.0</ele><time>2026-03-28T07:51:35Z</time></trkpt><trkpt lat="47.66327483091738" lon="6.951892843625652"><ele>367.0</ele><time>2026-03-28T07:51:36Z</time></trkpt><trkpt lat="47.66310146025836" lon="6.951624807337513"><ele>367.0</ele><time>2026-03-28T07:51:37Z</time></trkpt><trkpt lat="47.66292718054533" lon="6.951356888440813"><ele>367.0</ele><time>2026-03-28T07:51:38Z</time></trkpt><trkpt lat="47.662752699763935" lon="6.951091367457496"><ele>368.0</ele><time>2026-03-28T07:51:39Z</time></trkpt><trkpt lat="47.6625793945552" lon="6.950824507137643"><ele>369.0</ele><time>2026-03-28T07:51:40Z</time></trkpt><trkpt lat="47.662410189294384" lon="6.950559958064272"><ele>369.0</ele><time>2026-03-28T07:51:41Z</time></trkpt><trkpt lat="47.6622370594058" lon="6.950291665559159"><ele>369.0</ele><time>2026-03-28T07:51:42Z</time></trkpt><trkpt lat="47.66206747828762" lon="6.950023751049402"><ele>369.5</ele><time>2026-03-28T07:51:43Z</time></trkpt><trkpt lat="47.66189463807279" lon="6.949754444039633"><ele>370.0</ele><time>2026-03-28T07:51:44Z</time></trkpt><trkpt lat="47.66172282551055" lon="6.949485686331305"><ele>370.0</ele><time>2026-03-28T07:51:45Z</time></trkpt><trkpt lat="47.66155307312273" lon="6.9492198023900205"><ele>370.0</ele><time>2026-03-28T07:51:46Z</time></trkpt><trkpt lat="47.66138528271441" lon="6.948956539353399"><ele>368.5</ele><time>2026-03-28T07:51:47Z</time></trkpt><trkpt lat="47.66122163412866" lon="6.948692903730921"><ele>367.0</ele><time>2026-03-28T07:51:48Z</time></trkpt><trkpt lat="47.66105679590189" lon="6.948427325150502"><ele>367.0</ele><time>2026-03-28T07:51:49Z</time></trkpt><trkpt lat="47.66089707999572" lon="6.9481661573235005"><ele>367.0</ele><time>2026-03-28T07:51:50Z</time></trkpt><trkpt lat="47.66073607709791" lon="6.947905324920921"><ele>367.0</ele><time>2026-03-28T07:51:51Z</time></trkpt><trkpt lat="47.660575880600526" lon="6.947640878623426"><ele>367.0</ele><time>2026-03-28T07:51:52Z</time></trkpt><trkpt lat="47.6604194981001" lon="6.94737972194475"><ele>367.0</ele><time>2026-03-28T07:51:53Z</time></trkpt><trkpt lat="47.6602642140932" lon="6.94711540328349"><ele>367.0</ele><time>2026-03-28T07:51:54Z</time></trkpt><trkpt lat="47.66011208134681" lon="6.946852095168584"><ele>367.5</ele><time>2026-03-28T07:51:55Z</time></trkpt><trkpt lat="47.659958473869295" lon="6.946586049032481"><ele>368.0</ele><time>2026-03-28T07:51:56Z</time></trkpt><trkpt lat="47.65980504575377" lon="6.94631868069218"><ele>368.0</ele><time>2026-03-28T07:51:57Z</time></trkpt><trkpt lat="47.65965708937" lon="6.946054410544539"><ele>368.0</ele><time>2026-03-28T07:51:58Z</time></trkpt><trkpt lat="47.65950645282593" lon="6.945783497250741"><ele>367.5</ele><time>2026-03-28T07:51:59Z</time></trkpt><trkpt lat="47.659354649912885" lon="6.945510926407581"><ele>367.0</ele><time>2026-03-28T07:52:00Z</time></trkpt><trkpt lat="47.659202434146046" lon="6.9452282725141155"><ele>366.0</ele><time>2026-03-28T07:52:01Z</time></trkpt><trkpt lat="47.65904900715598" lon="6.944941210239629"><ele>365.0</ele><time>2026-03-28T07:52:02Z</time></trkpt><trkpt lat="47.658897499660014" lon="6.944654699695039"><ele>365.0</ele><time>2026-03-28T07:52:03Z</time></trkpt><trkpt lat="47.658747069467395" lon="6.944364631087935"><ele>365.0</ele><time>2026-03-28T07:52:04Z</time></trkpt><trkpt lat="47.658597170542585" lon="6.944072613198833"><ele>363.5</ele><time>2026-03-28T07:52:05Z</time></trkpt><trkpt lat="47.65845081585331" lon="6.943781898629725"><ele>362.0</ele><time>2026-03-28T07:52:06Z</time></trkpt><trkpt lat="47.65830451967454" lon="6.9434826171477875"><ele>360.5</ele><time>2026-03-28T07:52:07Z</time></trkpt><trkpt lat="47.65815596915582" lon="6.943185268062504"><ele>359.0</ele><time>2026-03-28T07:52:08Z</time></trkpt><trkpt lat="47.658012383374164" lon="6.942888493268153"><ele>359.0</ele><time>2026-03-28T07:52:09Z</time></trkpt><trkpt lat="47.6578715216184" lon="6.942586855323735"><ele>359.0</ele><time>2026-03-28T07:52:10Z</time></trkpt><trkpt lat="47.657734960548595" lon="6.942292019373119"><ele>358.0</ele><time>2026-03-28T07:52:11Z</time></trkpt><trkpt lat="47.65760364364006" lon="6.942001309623901"><ele>357.0</ele><time>2026-03-28T07:52:12Z</time></trkpt><trkpt lat="47.65746427314182" lon="6.941696966634555"><ele>357.0</ele><time>2026-03-28T07:52:13Z</time></trkpt><trkpt lat="47.657323492485695" lon="6.94138796436199"><ele>357.0</ele><time>2026-03-28T07:52:14Z</time></trkpt><trkpt lat="47.657186756937854" lon="6.941077113784681"><ele>357.0</ele><time>2026-03-28T07:52:15Z</time></trkpt><trkpt lat="47.65705385388441" lon="6.940766341109111"><ele>357.0</ele><time>2026-03-28T07:52:16Z</time></trkpt><trkpt lat="47.656921663022494" lon="6.9404530247899245"><ele>355.5</ele><time>2026-03-28T07:52:17Z</time></trkpt><trkpt lat="47.656790168697036" lon="6.940144363920804"><ele>354.0</ele><time>2026-03-28T07:52:18Z</time></trkpt><trkpt lat="47.6566601501837" lon="6.9398340551026365"><ele>353.5</ele><time>2026-03-28T07:52:19Z</time></trkpt><trkpt lat="47.65653299399095" lon="6.939524166347314"><ele>353.0</ele><time>2026-03-28T07:52:20Z</time></trkpt><trkpt lat="47.65640624352008" lon="6.9392181729415965"><ele>353.5</ele><time>2026-03-28T07:52:21Z</time></trkpt><trkpt lat="47.65628277948066" lon="6.938915018025459"><ele>354.0</ele><time>2026-03-28T07:52:22Z</time></trkpt><trkpt lat="47.656164223059704" lon="6.938615136295056"><ele>353.0</ele><time>2026-03-28T07:52:23Z</time></trkpt><trkpt lat="47.6560465617581" lon="6.938310700805141"><ele>352.0</ele><time>2026-03-28T07:52:24Z</time></trkpt><trkpt lat="47.655926698878964" lon="6.938004291472942"><ele>352.0</ele><time>2026-03-28T07:52:25Z</time></trkpt><trkpt lat="47.655806141408924" lon="6.937690191503383"><ele>352.0</ele><time>2026-03-28T07:52:26Z</time></trkpt><trkpt lat="47.65568259987007" lon="6.937381565649206"><ele>353.5</ele><time>2026-03-28T07:52:27Z</time></trkpt><trkpt lat="47.6555601997521" lon="6.937072947081475"><ele>355.0</ele><time>2026-03-28T07:52:28Z</time></trkpt><trkpt lat="47.65544408044606" lon="6.936749440754571"><ele>354.0</ele><time>2026-03-28T07:52:29Z</time></trkpt><trkpt lat="47.655318104626716" lon="6.9364321996234795"><ele>353.0</ele><time>2026-03-28T07:52:30Z</time></trkpt><trkpt lat="47.6551996767579" lon="6.936102965145509"><ele>350.0</ele><time>2026-03-28T07:52:31Z</time></trkpt><trkpt lat="47.65507543992298" lon="6.935771296670155"><ele>347.0</ele><time>2026-03-28T07:52:32Z</time></trkpt><trkpt lat="47.65499597309328" lon="6.935396107595755"><ele>347.0</ele><time>2026-03-28T07:52:33Z</time></trkpt><trkpt lat="47.65487990540728" lon="6.935047826468778"><ele>347.0</ele><time>2026-03-28T07:52:34Z</time></trkpt><trkpt lat="47.654701643647016" lon="6.934732675892838"><ele>347.0</ele><time>2026-03-28T07:52:35Z</time></trkpt><trkpt lat="47.65457427011198" lon="6.9343776173312595"><ele>347.0</ele><time>2026-03-28T07:52:36Z</time></trkpt><trkpt lat="47.65444664960277" lon="6.9340198497119205"><ele>346.5</ele><time>2026-03-28T07:52:37Z</time></trkpt><trkpt lat="47.65431409232214" lon="6.933655229187559"><ele>346.0</ele><time>2026-03-28T07:52:38Z</time></trkpt><trkpt lat="47.65417805486589" lon="6.933283209737812"><ele>346.0</ele><time>2026-03-28T07:52:39Z</time></trkpt><trkpt lat="47.65404428017746" lon="6.932905953747508"><ele>346.0</ele><time>2026-03-28T07:52:40Z</time></trkpt><trkpt lat="47.653909315491916" lon="6.932530766313249"><ele>346.5</ele><time>2026-03-28T07:52:41Z</time></trkpt><trkpt lat="47.65377570841795" lon="6.93215154403596"><ele>347.0</ele><time>2026-03-28T07:52:42Z</time></trkpt><trkpt lat="47.65364247196623" lon="6.931767917652344"><ele>348.0</ele><time>2026-03-28T07:52:43Z</time></trkpt><trkpt lat="47.65350833176018" lon="6.931384081607936"><ele>349.0</ele><time>2026-03-28T07:52:44Z</time></trkpt><trkpt lat="47.653373080111265" lon="6.930999612179197"><ele>350.0</ele><time>2026-03-28T07:52:45Z</time></trkpt><trkpt lat="47.653239469641896" lon="6.930616735606442"><ele>351.0</ele><time>2026-03-28T07:52:46Z</time></trkpt><trkpt lat="47.653102935732875" lon="6.930232303775952"><ele>352.0</ele><time>2026-03-28T07:52:47Z</time></trkpt><trkpt lat="47.65296805325777" lon="6.929847478613682"><ele>353.0</ele><time>2026-03-28T07:52:48Z</time></trkpt><trkpt lat="47.65283368048331" lon="6.929462354873754"><ele>354.0</ele><time>2026-03-28T07:52:49Z</time></trkpt><trkpt lat="47.65270108083336" lon="6.929076319437562"><ele>355.0</ele><time>2026-03-28T07:52:50Z</time></trkpt><trkpt lat="47.65257422429907" lon="6.9286931734493376"><ele>355.5</ele><time>2026-03-28T07:52:51Z</time></trkpt><trkpt lat="47.65244995187602" lon="6.928313086036764"><ele>356.0</ele><time>2026-03-28T07:52:52Z</time></trkpt><trkpt lat="47.65232954500612" lon="6.927935876656942"><ele>356.0</ele><time>2026-03-28T07:52:53Z</time></trkpt><trkpt lat="47.65220918287631" lon="6.927562493453699"><ele>356.0</ele><time>2026-03-28T07:52:54Z</time></trkpt><trkpt lat="47.65208626959852" lon="6.9271989205127005"><ele>356.0</ele><time>2026-03-28T07:52:55Z</time></trkpt><trkpt lat="47.65196462920251" lon="6.926839435420042"><ele>356.0</ele><time>2026-03-28T07:52:56Z</time></trkpt><trkpt lat="47.651841520516335" lon="6.926480898116484"><ele>356.0</ele><time>2026-03-28T07:52:57Z</time></trkpt><trkpt lat="47.65171799790945" lon="6.92612779678059"><ele>356.0</ele><time>2026-03-28T07:52:58Z</time></trkpt><trkpt lat="47.65159694411439" lon="6.925777732397423"><ele>356.0</ele><time>2026-03-28T07:52:59Z</time></trkpt><trkpt lat="47.6514757425999" lon="6.925423192172684"><ele>356.0</ele><time>2026-03-28T07:53:00Z</time></trkpt><trkpt lat="47.65135256923684" lon="6.925072381396373"><ele>355.5</ele><time>2026-03-28T07:53:01Z</time></trkpt><trkpt lat="47.65123189016628" lon="6.924723882296992"><ele>355.0</ele><time>2026-03-28T07:53:02Z</time></trkpt><trkpt lat="47.65110942861273" lon="6.924374444999776"><ele>355.5</ele><time>2026-03-28T07:53:03Z</time></trkpt><trkpt lat="47.65098833406415" lon="6.924021727703114"><ele>356.0</ele><time>2026-03-28T07:53:04Z</time></trkpt><trkpt lat="47.65086612761886" lon="6.923672711173671"><ele>355.0</ele><time>2026-03-28T07:53:05Z</time></trkpt><trkpt lat="47.6507447059324" lon="6.923326405585098"><ele>354.0</ele><time>2026-03-28T07:53:06Z</time></trkpt><trkpt lat="47.65062220653285" lon="6.922984330838208"><ele>354.0</ele><time>2026-03-28T07:53:07Z</time></trkpt><trkpt lat="47.65050322487756" lon="6.922640383844361"><ele>354.0</ele><time>2026-03-28T07:53:08Z</time></trkpt><trkpt lat="47.65038535248623" lon="6.922297489035273"><ele>353.5</ele><time>2026-03-28T07:53:09Z</time></trkpt><trkpt lat="47.650265911959956" lon="6.921954909084819"><ele>353.0</ele><time>2026-03-28T07:53:10Z</time></trkpt><trkpt lat="47.65014628740447" lon="6.921608204389132"><ele>353.0</ele><time>2026-03-28T07:53:11Z</time></trkpt><trkpt lat="47.650025449693956" lon="6.921260869968822"><ele>353.0</ele><time>2026-03-28T07:53:12Z</time></trkpt><trkpt lat="47.64990477777833" lon="6.920911205244094"><ele>353.5</ele><time>2026-03-28T07:53:13Z</time></trkpt><trkpt lat="47.64978147809114" lon="6.920562410738863"><ele>354.0</ele><time>2026-03-28T07:53:14Z</time></trkpt><trkpt lat="47.6496606253929" lon="6.920213588184192"><ele>354.0</ele><time>2026-03-28T07:53:15Z</time></trkpt><trkpt lat="47.64953962548723" lon="6.919862589302834"><ele>354.0</ele><time>2026-03-28T07:53:16Z</time></trkpt><trkpt lat="47.64941752326175" lon="6.9195111689234"><ele>354.0</ele><time>2026-03-28T07:53:17Z</time></trkpt><trkpt lat="47.64929443194135" lon="6.919161036934265"><ele>354.0</ele><time>2026-03-28T07:53:18Z</time></trkpt><trkpt lat="47.64917151264587" lon="6.918808792936693"><ele>354.0</ele><time>2026-03-28T07:53:19Z</time></trkpt><trkpt lat="47.649049244215306" lon="6.918457577533421"><ele>354.0</ele><time>2026-03-28T07:53:20Z</time></trkpt><trkpt lat="47.64892685939888" lon="6.918105929705319"><ele>355.5</ele><time>2026-03-28T07:53:21Z</time></trkpt><trkpt lat="47.64880370094183" lon="6.9177526535809735"><ele>357.0</ele><time>2026-03-28T07:53:22Z</time></trkpt><trkpt lat="47.64867917692586" lon="6.91740097498744"><ele>358.0</ele><time>2026-03-28T07:53:23Z</time></trkpt><trkpt lat="47.64855632437755" lon="6.917047459133828"><ele>359.0</ele><time>2026-03-28T07:53:24Z</time></trkpt><trkpt lat="47.6484321577344" lon="6.916695888766762"><ele>360.5</ele><time>2026-03-28T07:53:25Z</time></trkpt><trkpt lat="47.648310494932566" lon="6.9163454354179255"><ele>362.0</ele><time>2026-03-28T07:53:26Z</time></trkpt><trkpt lat="47.64819084386825" lon="6.915996406056411"><ele>362.0</ele><time>2026-03-28T07:53:27Z</time></trkpt><trkpt lat="47.64806979956605" lon="6.9156465796873485"><ele>362.0</ele><time>2026-03-28T07:53:28Z</time></trkpt><trkpt lat="47.647950835862204" lon="6.915307585145327"><ele>362.0</ele><time>2026-03-28T07:53:29Z</time></trkpt><trkpt lat="47.647826637106654" lon="6.914964984188958"><ele>362.0</ele><time>2026-03-28T07:53:30Z</time></trkpt><trkpt lat="47.6477006535661" lon="6.914621364455274"><ele>363.0</ele><time>2026-03-28T07:53:31Z</time></trkpt><trkpt lat="47.647573964157" lon="6.914277532546053"><ele>364.0</ele><time>2026-03-28T07:53:32Z</time></trkpt><trkpt lat="47.6474508426737" lon="6.913937683241271"><ele>364.0</ele><time>2026-03-28T07:53:33Z</time></trkpt><trkpt lat="47.64732870778317" lon="6.9135984204814385"><ele>364.0</ele><time>2026-03-28T07:53:34Z</time></trkpt><trkpt lat="47.6472050451099" lon="6.913257137368574"><ele>364.0</ele><time>2026-03-28T07:53:35Z</time></trkpt><trkpt lat="47.64708320468794" lon="6.912911899713227"><ele>364.0</ele><time>2026-03-28T07:53:36Z</time></trkpt><trkpt lat="47.64695988646334" lon="6.9125629608045625"><ele>363.5</ele><time>2026-03-28T07:53:37Z</time></trkpt><trkpt lat="47.6468387900262" lon="6.912211649674588"><ele>363.0</ele><time>2026-03-28T07:53:38Z</time></trkpt><trkpt lat="47.64671833842728" lon="6.911861417871392"><ele>363.0</ele><time>2026-03-28T07:53:39Z</time></trkpt><trkpt lat="47.64659331922537" lon="6.911507457543287"><ele>363.0</ele><time>2026-03-28T07:53:40Z</time></trkpt><trkpt lat="47.64647180736717" lon="6.911152688284739"><ele>363.5</ele><time>2026-03-28T07:53:41Z</time></trkpt><trkpt lat="47.646353498646725" lon="6.910796130496386"><ele>364.0</ele><time>2026-03-28T07:53:42Z</time></trkpt><trkpt lat="47.64623340472987" lon="6.9104421575297525"><ele>363.5</ele><time>2026-03-28T07:53:43Z</time></trkpt><trkpt lat="47.64611888256662" lon="6.910090230915882"><ele>363.0</ele><time>2026-03-28T07:53:44Z</time></trkpt><trkpt lat="47.64600321375648" lon="6.9097355425748175"><ele>363.0</ele><time>2026-03-28T07:53:45Z</time></trkpt><trkpt lat="47.645890849135974" lon="6.909380347532636"><ele>363.0</ele><time>2026-03-28T07:53:46Z</time></trkpt><trkpt lat="47.64578039455421" lon="6.90902518644165"><ele>363.5</ele><time>2026-03-28T07:53:47Z</time></trkpt><trkpt lat="47.64567052157367" lon="6.908667578660314"><ele>364.0</ele><time>2026-03-28T07:53:48Z</time></trkpt><trkpt lat="47.64556199762308" lon="6.908308064532025"><ele>364.0</ele><time>2026-03-28T07:53:49Z</time></trkpt><trkpt lat="47.64545671478115" lon="6.907949183450699"><ele>364.0</ele><time>2026-03-28T07:53:50Z</time></trkpt><trkpt lat="47.645351651479515" lon="6.9075874522317315"><ele>364.5</ele><time>2026-03-28T07:53:51Z</time></trkpt><trkpt lat="47.645252499950416" lon="6.907220017368823"><ele>365.0</ele><time>2026-03-28T07:53:52Z</time></trkpt><trkpt lat="47.645155470643616" lon="6.906852997606946"><ele>366.0</ele><time>2026-03-28T07:53:53Z</time></trkpt><trkpt lat="47.64506093074323" lon="6.906489150809422"><ele>367.0</ele><time>2026-03-28T07:53:54Z</time></trkpt><trkpt lat="47.6449683886262" lon="6.906125063765357"><ele>366.5</ele><time>2026-03-28T07:53:55Z</time></trkpt><trkpt lat="47.6448772822692" lon="6.905758145308414"><ele>366.0</ele><time>2026-03-28T07:53:56Z</time></trkpt><trkpt lat="47.644789659486946" lon="6.905390495309886"><ele>365.5</ele><time>2026-03-28T07:53:57Z</time></trkpt><trkpt lat="47.644704728570964" lon="6.905022079871795"><ele>365.0</ele><time>2026-03-28T07:53:58Z</time></trkpt><trkpt lat="47.64462408682104" lon="6.904650569402678"><ele>365.0</ele><time>2026-03-28T07:53:59Z</time></trkpt><trkpt lat="47.644548004978" lon="6.90428007454511"><ele>365.0</ele><time>2026-03-28T07:54:00Z</time></trkpt><trkpt lat="47.644470673503385" lon="6.903908255417906"><ele>367.5</ele><time>2026-03-28T07:54:01Z</time></trkpt><trkpt lat="47.64440081241543" lon="6.903534198155244"><ele>370.0</ele><time>2026-03-28T07:54:02Z</time></trkpt><trkpt lat="47.64433030299748" lon="6.903162651165703"><ele>370.0</ele><time>2026-03-28T07:54:03Z</time></trkpt><trkpt lat="47.64426935085188" lon="6.902791187141562"><ele>370.0</ele><time>2026-03-28T07:54:04Z</time></trkpt><trkpt lat="47.64420695481772" lon="6.902424284756403"><ele>369.5</ele><time>2026-03-28T07:54:05Z</time></trkpt><trkpt lat="47.64415079334444" lon="6.902055594829254"><ele>369.0</ele><time>2026-03-28T07:54:06Z</time></trkpt><trkpt lat="47.644095478407905" lon="6.901688653273306"><ele>367.5</ele><time>2026-03-28T07:54:07Z</time></trkpt><trkpt lat="47.64404132555193" lon="6.901322275984552"><ele>366.0</ele><time>2026-03-28T07:54:08Z</time></trkpt><trkpt lat="47.64399411525005" lon="6.90095605338493"><ele>367.0</ele><time>2026-03-28T07:54:09Z</time></trkpt><trkpt lat="47.64394546194648" lon="6.9005912216982805"><ele>368.0</ele><time>2026-03-28T07:54:10Z</time></trkpt><trkpt lat="47.64390364991994" lon="6.900229471921945"><ele>369.5</ele><time>2026-03-28T07:54:11Z</time></trkpt><trkpt lat="47.64386181033573" lon="6.899874485341388"><ele>371.0</ele><time>2026-03-28T07:54:12Z</time></trkpt><trkpt lat="47.643823917485" lon="6.899522159264139"><ele>371.0</ele><time>2026-03-28T07:54:13Z</time></trkpt><trkpt lat="47.64378696450127" lon="6.899178119484958"><ele>371.0</ele><time>2026-03-28T07:54:14Z</time></trkpt><trkpt lat="47.64375344363606" lon="6.89883749733819"><ele>371.0</ele><time>2026-03-28T07:54:15Z</time></trkpt><trkpt lat="47.6437234634193" lon="6.898500991275509"><ele>371.0</ele><time>2026-03-28T07:54:16Z</time></trkpt><trkpt lat="47.64369339131853" lon="6.898167595399188"><ele>373.0</ele><time>2026-03-28T07:54:17Z</time></trkpt><trkpt lat="47.64366653362177" lon="6.897835066594785"><ele>375.0</ele><time>2026-03-28T07:54:18Z</time></trkpt><trkpt lat="47.643638441433666" lon="6.897505400281899"><ele>377.3333333333333</ele><time>2026-03-28T07:54:19Z</time></trkpt><trkpt lat="47.64361210505477" lon="6.897180125212051"><ele>379.66666666666663</ele><time>2026-03-28T07:54:20Z</time></trkpt><trkpt lat="47.643587436966385" lon="6.896857598468316"><ele>382.0</ele><time>2026-03-28T07:54:21Z</time></trkpt><trkpt lat="47.643565486333024" lon="6.896536622081501"><ele>383.3333333333333</ele><time>2026-03-28T07:54:22Z</time></trkpt><trkpt lat="47.64354215543949" lon="6.896219521300756"><ele>384.66666666666663</ele><time>2026-03-28T07:54:23Z</time></trkpt><trkpt lat="47.64351963572367" lon="6.895901888591431"><ele>386.0</ele><time>2026-03-28T07:54:24Z</time></trkpt><trkpt lat="47.643498144211314" lon="6.895577265920884"><ele>387.3333333333333</ele><time>2026-03-28T07:54:25Z</time></trkpt><trkpt lat="47.6434764757721" lon="6.895251765798854"><ele>388.66666666666663</ele><time>2026-03-28T07:54:26Z</time></trkpt><trkpt lat="47.64345327022712" lon="6.894923270629472"><ele>390.0</ele><time>2026-03-28T07:54:27Z</time></trkpt><trkpt lat="47.6434317490691" lon="6.894595276258277"><ele>391.33333333333337</ele><time>2026-03-28T07:54:28Z</time></trkpt><trkpt lat="47.64340489374036" lon="6.894269853534836"><ele>392.6666666666667</ele><time>2026-03-28T07:54:29Z</time></trkpt><trkpt lat="47.6433768071815" lon="6.893943747056291"><ele>394.0</ele><time>2026-03-28T07:54:30Z</time></trkpt><trkpt lat="47.643344718595635" lon="6.8936189338015845"><ele>394.0</ele><time>2026-03-28T07:54:31Z</time></trkpt><trkpt lat="47.64331497017858" lon="6.8932977087127"><ele>394.0</ele><time>2026-03-28T07:54:32Z</time></trkpt><trkpt lat="47.64328244451189" lon="6.892975096205613"><ele>394.0</ele><time>2026-03-28T07:54:33Z</time></trkpt><trkpt lat="47.6432440756189" lon="6.892648214339104"><ele>394.0</ele><time>2026-03-28T07:54:34Z</time></trkpt><trkpt lat="47.64320306064137" lon="6.892318178898242"><ele>394.0</ele><time>2026-03-28T07:54:35Z</time></trkpt><trkpt lat="47.643155079818435" lon="6.89198945573567"><ele>394.5</ele><time>2026-03-28T07:54:36Z</time></trkpt><trkpt lat="47.6431011833333" lon="6.891657664494166"><ele>395.0</ele><time>2026-03-28T07:54:37Z</time></trkpt><trkpt lat="47.643040728037214" lon="6.891321913333252"><ele>395.0</ele><time>2026-03-28T07:54:38Z</time></trkpt><trkpt lat="47.642974538155705" lon="6.89098816926122"><ele>395.0</ele><time>2026-03-28T07:54:39Z</time></trkpt><trkpt lat="47.64290243005905" lon="6.890650052715733"><ele>395.0</ele><time>2026-03-28T07:54:40Z</time></trkpt><trkpt lat="47.642822644229604" lon="6.8903126061445645"><ele>395.0</ele><time>2026-03-28T07:54:41Z</time></trkpt><trkpt lat="47.6427342516025" lon="6.889973860966032"><ele>395.0</ele><time>2026-03-28T07:54:42Z</time></trkpt><trkpt lat="47.64263773966265" lon="6.889639651826514"><ele>395.0</ele><time>2026-03-28T07:54:43Z</time></trkpt><trkpt lat="47.64253371316005" lon="6.889301057995879"><ele>395.5</ele><time>2026-03-28T07:54:44Z</time></trkpt><trkpt lat="47.64242244944807" lon="6.888967548842269"><ele>396.0</ele><time>2026-03-28T07:54:45Z</time></trkpt><trkpt lat="47.64230633871003" lon="6.88863618445523"><ele>396.0</ele><time>2026-03-28T07:54:46Z</time></trkpt><trkpt lat="47.642182387471536" lon="6.888308812531105"><ele>396.0</ele><time>2026-03-28T07:54:47Z</time></trkpt><trkpt lat="47.64205186947836" lon="6.887989061377381"><ele>392.0</ele><time>2026-03-28T07:54:48Z</time></trkpt><trkpt lat="47.641917553682646" lon="6.887674228409021"><ele>388.0</ele><time>2026-03-28T07:54:49Z</time></trkpt><trkpt lat="47.64177689844992" lon="6.8873663391628694"><ele>388.0</ele><time>2026-03-28T07:54:50Z</time></trkpt><trkpt lat="47.641631006289884" lon="6.887066224354009"><ele>388.0</ele><time>2026-03-28T07:54:51Z</time></trkpt><trkpt lat="47.64147874577855" lon="6.886773937610697"><ele>390.0</ele><time>2026-03-28T07:54:52Z</time></trkpt><trkpt lat="47.64131998067973" lon="6.886488355808258"><ele>392.0</ele><time>2026-03-28T07:54:53Z</time></trkpt><trkpt lat="47.64115491648327" lon="6.886201195525513"><ele>390.5</ele><time>2026-03-28T07:54:54Z</time></trkpt><trkpt lat="47.640981853753594" lon="6.8859146080080995"><ele>389.0</ele><time>2026-03-28T07:54:55Z</time></trkpt><trkpt lat="47.640804163911795" lon="6.885635747474699"><ele>389.0</ele><time>2026-03-28T07:54:56Z</time></trkpt><trkpt lat="47.64062228614654" lon="6.885362907323338"><ele>389.0</ele><time>2026-03-28T07:54:57Z</time></trkpt><trkpt lat="47.6404345071399" lon="6.885101394450337"><ele>389.5</ele><time>2026-03-28T07:54:58Z</time></trkpt><trkpt lat="47.64023724917292" lon="6.884849934636771"><ele>390.0</ele><time>2026-03-28T07:54:59Z</time></trkpt><trkpt lat="47.64003646703341" lon="6.884601181712217"><ele>390.0</ele><time>2026-03-28T07:55:00Z</time></trkpt><trkpt lat="47.63983096822848" lon="6.884360802983717"><ele>390.0</ele><time>2026-03-28T07:55:01Z</time></trkpt><trkpt lat="47.63961844627985" lon="6.884127862572575"><ele>391.0</ele><time>2026-03-28T07:55:02Z</time></trkpt><trkpt lat="47.639404623341356" lon="6.883904630927421"><ele>392.0</ele><time>2026-03-28T07:55:03Z</time></trkpt><trkpt lat="47.639182940664526" lon="6.883679793339909"><ele>392.0</ele><time>2026-03-28T07:55:04Z</time></trkpt><trkpt lat="47.638958500610634" lon="6.8834583708574"><ele>392.0</ele><time>2026-03-28T07:55:05Z</time></trkpt><trkpt lat="47.638728869802236" lon="6.883244928670359"><ele>392.0</ele><time>2026-03-28T07:55:06Z</time></trkpt><trkpt lat="47.63850188732367" lon="6.883032895435246"><ele>392.0</ele><time>2026-03-28T07:55:07Z</time></trkpt><trkpt lat="47.63827262019365" lon="6.882816681474251"><ele>392.0</ele><time>2026-03-28T07:55:08Z</time></trkpt><trkpt lat="47.63804626632853" lon="6.88260777058702"><ele>392.0</ele><time>2026-03-28T07:55:09Z</time></trkpt><trkpt lat="47.637815484045234" lon="6.882397587723993"><ele>392.0</ele><time>2026-03-28T07:55:10Z</time></trkpt><trkpt lat="47.63758374613295" lon="6.8821935167710535"><ele>392.0</ele><time>2026-03-28T07:55:11Z</time></trkpt><trkpt lat="47.63735634514102" lon="6.881986001082922"><ele>392.0</ele><time>2026-03-28T07:55:12Z</time></trkpt><trkpt lat="47.63712740697028" lon="6.881769008712368"><ele>392.0</ele><time>2026-03-28T07:55:13Z</time></trkpt><trkpt lat="47.636905600701496" lon="6.881551484271847"><ele>391.5</ele><time>2026-03-28T07:55:14Z</time></trkpt><trkpt lat="47.63667731239124" lon="6.881332630619309"><ele>391.0</ele><time>2026-03-28T07:55:15Z</time></trkpt><trkpt lat="47.6364547064537" lon="6.881101533247838"><ele>390.5</ele><time>2026-03-28T07:55:16Z</time></trkpt><trkpt lat="47.63624175719192" lon="6.88086844847871"><ele>390.0</ele><time>2026-03-28T07:55:17Z</time></trkpt><trkpt lat="47.63602910201349" lon="6.8806226774262775"><ele>390.0</ele><time>2026-03-28T07:55:18Z</time></trkpt><trkpt lat="47.63582609076706" lon="6.880370411524108"><ele>390.0</ele><time>2026-03-28T07:55:19Z</time></trkpt><trkpt lat="47.63562587351002" lon="6.880111898812477"><ele>389.5</ele><time>2026-03-28T07:55:20Z</time></trkpt><trkpt lat="47.635429955181095" lon="6.879842005277913"><ele>389.0</ele><time>2026-03-28T07:55:21Z</time></trkpt><trkpt lat="47.635234535153536" lon="6.879577900075982"><ele>389.0</ele><time>2026-03-28T07:55:22Z</time></trkpt><trkpt lat="47.63502987558668" lon="6.879313683111997"><ele>389.0</ele><time>2026-03-28T07:55:23Z</time></trkpt><trkpt lat="47.63482987452781" lon="6.879037300369366"><ele>388.0</ele><time>2026-03-28T07:55:24Z</time></trkpt><trkpt lat="47.634634218929335" lon="6.878763388682218"><ele>387.0</ele><time>2026-03-28T07:55:25Z</time></trkpt><trkpt lat="47.63444226222654" lon="6.878489844420791"><ele>386.5</ele><time>2026-03-28T07:55:26Z</time></trkpt><trkpt lat="47.6342503737013" lon="6.878212082247719"><ele>386.0</ele><time>2026-03-28T07:55:27Z</time></trkpt><trkpt lat="47.63405765273495" lon="6.877933654014343"><ele>386.0</ele><time>2026-03-28T07:55:28Z</time></trkpt><trkpt lat="47.6338671555036" lon="6.877652745775421"><ele>386.0</ele><time>2026-03-28T07:55:29Z</time></trkpt><trkpt lat="47.63367564261877" lon="6.877369892126269"><ele>386.5</ele><time>2026-03-28T07:55:30Z</time></trkpt><trkpt lat="47.63348684528134" lon="6.877087388566831"><ele>387.0</ele><time>2026-03-28T07:55:31Z</time></trkpt><trkpt lat="47.63330000981416" lon="6.8768000279229975"><ele>386.0</ele><time>2026-03-28T07:55:32Z</time></trkpt><trkpt lat="47.633116267475316" lon="6.876500723350766"><ele>385.0</ele><time>2026-03-28T07:55:33Z</time></trkpt><trkpt lat="47.63294246168102" lon="6.87619721393337"><ele>387.5</ele><time>2026-03-28T07:55:34Z</time></trkpt><trkpt lat="47.6327744284406" lon="6.875885188522178"><ele>390.0</ele><time>2026-03-28T07:55:35Z</time></trkpt><trkpt lat="47.63261016688589" lon="6.8755690318391744"><ele>390.0</ele><time>2026-03-28T07:55:36Z</time></trkpt><trkpt lat="47.632450088642884" lon="6.875248413931278"><ele>390.0</ele><time>2026-03-28T07:55:37Z</time></trkpt><trkpt lat="47.632297473594036" lon="6.874924429612746"><ele>389.0</ele><time>2026-03-28T07:55:38Z</time></trkpt><trkpt lat="47.63214850929708" lon="6.874594706039374"><ele>388.0</ele><time>2026-03-28T07:55:39Z</time></trkpt><trkpt lat="47.63200276873888" lon="6.874250957014301"><ele>390.0</ele><time>2026-03-28T07:55:40Z</time></trkpt><trkpt lat="47.63186502338803" lon="6.873908512936318"><ele>392.0</ele><time>2026-03-28T07:55:41Z</time></trkpt><trkpt lat="47.63173572689377" lon="6.873557592217895"><ele>388.5</ele><time>2026-03-28T07:55:42Z</time></trkpt><trkpt lat="47.631604373549955" lon="6.873203590433163"><ele>385.0</ele><time>2026-03-28T07:55:43Z</time></trkpt><trkpt lat="47.6314793667145" lon="6.872850154346249"><ele>385.0</ele><time>2026-03-28T07:55:44Z</time></trkpt><trkpt lat="47.631352760303486" lon="6.872494450050242"><ele>385.0</ele><time>2026-03-28T07:55:45Z</time></trkpt><trkpt lat="47.63122622298411" lon="6.872143357754887"><ele>386.5</ele><time>2026-03-28T07:55:46Z</time></trkpt><trkpt lat="47.63110371894301" lon="6.871792624381447"><ele>388.0</ele><time>2026-03-28T07:55:47Z</time></trkpt><trkpt lat="47.630975693979785" lon="6.871434898447052"><ele>388.0</ele><time>2026-03-28T07:55:48Z</time></trkpt><trkpt lat="47.63085063517933" lon="6.871080256703004"><ele>388.0</ele><time>2026-03-28T07:55:49Z</time></trkpt><trkpt lat="47.63072396370304" lon="6.870727006087813"><ele>385.5</ele><time>2026-03-28T07:55:50Z</time></trkpt><trkpt lat="47.63059521817952" lon="6.870377012554827"><ele>383.0</ele><time>2026-03-28T07:55:51Z</time></trkpt><trkpt lat="47.63045304512247" lon="6.870034054483563"><ele>382.5</ele><time>2026-03-28T07:55:52Z</time></trkpt><trkpt lat="47.630310100355096" lon="6.869695482723617"><ele>382.0</ele><time>2026-03-28T07:55:53Z</time></trkpt><trkpt lat="47.630160903787896" lon="6.869361710154894"><ele>378.5</ele><time>2026-03-28T07:55:54Z</time></trkpt><trkpt lat="47.630006771062014" lon="6.869028902022503"><ele>375.0</ele><time>2026-03-28T07:55:55Z</time></trkpt><trkpt lat="47.62985078031786" lon="6.868700741635807"><ele>372.5</ele><time>2026-03-28T07:55:56Z</time></trkpt><trkpt lat="47.62968678319105" lon="6.868377954823846"><ele>370.0</ele><time>2026-03-28T07:55:57Z</time></trkpt><trkpt lat="47.62951390713523" lon="6.8680534156550515"><ele>371.0</ele><time>2026-03-28T07:55:58Z</time></trkpt><trkpt lat="47.62933521790937" lon="6.867739040269429"><ele>372.0</ele><time>2026-03-28T07:55:59Z</time></trkpt><trkpt lat="47.6291522781987" lon="6.867426281789425"><ele>372.0</ele><time>2026-03-28T07:56:00Z</time></trkpt><trkpt lat="47.62896350509132" lon="6.8671175045466635"><ele>372.0</ele><time>2026-03-28T07:56:01Z</time></trkpt><trkpt lat="47.628771872209164" lon="6.866828862234285"><ele>373.5</ele><time>2026-03-28T07:56:02Z</time></trkpt><trkpt lat="47.62858242131347" lon="6.866545040206949"><ele>375.0</ele><time>2026-03-28T07:56:03Z</time></trkpt><trkpt lat="47.62838243382238" lon="6.866260871952172"><ele>375.0</ele><time>2026-03-28T07:56:04Z</time></trkpt><trkpt lat="47.62817940295959" lon="6.866000260259345"><ele>375.0</ele><time>2026-03-28T07:56:05Z</time></trkpt><trkpt lat="47.62798353987885" lon="6.865744614987789"><ele>377.0</ele><time>2026-03-28T07:56:06Z</time></trkpt><trkpt lat="47.62777856599792" lon="6.865495609463136"><ele>379.0</ele><time>2026-03-28T07:56:07Z</time></trkpt><trkpt lat="47.62757194548168" lon="6.865254270440906"><ele>373.0</ele><time>2026-03-28T07:56:08Z</time></trkpt><trkpt lat="47.62736200844952" lon="6.8650179824804"><ele>367.0</ele><time>2026-03-28T07:56:09Z</time></trkpt><trkpt lat="47.62715096725829" lon="6.864791085266493"><ele>372.5</ele><time>2026-03-28T07:56:10Z</time></trkpt><trkpt lat="47.62693898159785" lon="6.86457184788107"><ele>378.0</ele><time>2026-03-28T07:56:11Z</time></trkpt><trkpt lat="47.626721601466535" lon="6.8643547589923815"><ele>370.5</ele><time>2026-03-28T07:56:12Z</time></trkpt><trkpt lat="47.62650273779612" lon="6.8641489413863175"><ele>363.0</ele><time>2026-03-28T07:56:13Z</time></trkpt><trkpt lat="47.62627813189537" lon="6.863943904072971"><ele>365.5</ele><time>2026-03-28T07:56:14Z</time></trkpt><trkpt lat="47.62605265870303" lon="6.863748140428129"><ele>368.0</ele><time>2026-03-28T07:56:15Z</time></trkpt><trkpt lat="47.62582792270651" lon="6.863550253678953"><ele>362.0</ele><time>2026-03-28T07:56:16Z</time></trkpt><trkpt lat="47.62560369130067" lon="6.863358561288817"><ele>356.0</ele><time>2026-03-28T07:56:17Z</time></trkpt><trkpt lat="47.62537941738266" lon="6.863164060020992"><ele>355.5</ele><time>2026-03-28T07:56:18Z</time></trkpt><trkpt lat="47.62515667219173" lon="6.862976435502222"><ele>355.0</ele><time>2026-03-28T07:56:19Z</time></trkpt><trkpt lat="47.62492878658662" lon="6.862786751204541"><ele>354.5</ele><time>2026-03-28T07:56:20Z</time></trkpt><trkpt lat="47.6247052771131" lon="6.862599172004907"><ele>354.0</ele><time>2026-03-28T07:56:21Z</time></trkpt><trkpt lat="47.62448192812176" lon="6.862410176492505"><ele>353.5</ele><time>2026-03-28T07:56:22Z</time></trkpt><trkpt lat="47.624258930947185" lon="6.862220418170277"><ele>353.0</ele><time>2026-03-28T07:56:23Z</time></trkpt><trkpt lat="47.62403529147723" lon="6.862027665560696"><ele>353.0</ele><time>2026-03-28T07:56:24Z</time></trkpt><trkpt lat="47.62381108557849" lon="6.861843694167788"><ele>353.0</ele><time>2026-03-28T07:56:25Z</time></trkpt><trkpt lat="47.623582188718196" lon="6.861662577699872"><ele>353.0</ele><time>2026-03-28T07:56:26Z</time></trkpt><trkpt lat="47.623360791524675" lon="6.861473401255432"><ele>353.0</ele><time>2026-03-28T07:56:27Z</time></trkpt><trkpt lat="47.62313550233811" lon="6.8612854334039906"><ele>353.0</ele><time>2026-03-28T07:56:28Z</time></trkpt><trkpt lat="47.6229113310193" lon="6.861094147043633"><ele>353.0</ele><time>2026-03-28T07:56:29Z</time></trkpt><trkpt lat="47.62268809203395" lon="6.860905390249941"><ele>352.0</ele><time>2026-03-28T07:56:30Z</time></trkpt><trkpt lat="47.622465974659384" lon="6.860712726760159"><ele>351.0</ele><time>2026-03-28T07:56:31Z</time></trkpt><trkpt lat="47.62224758049326" lon="6.860527549227427"><ele>351.0</ele><time>2026-03-28T07:56:32Z</time></trkpt><trkpt lat="47.62202546205541" lon="6.860343577971678"><ele>351.0</ele><time>2026-03-28T07:56:33Z</time></trkpt><trkpt lat="47.621796379544385" lon="6.8601563623082935"><ele>350.5</ele><time>2026-03-28T07:56:34Z</time></trkpt><trkpt lat="47.62156530370616" lon="6.859978632638345"><ele>350.0</ele><time>2026-03-28T07:56:35Z</time></trkpt><trkpt lat="47.62133480305106" lon="6.859806257133886"><ele>350.0</ele><time>2026-03-28T07:56:36Z</time></trkpt><trkpt lat="47.62111020616541" lon="6.8596297539571465"><ele>350.0</ele><time>2026-03-28T07:56:37Z</time></trkpt><trkpt lat="47.62088657324407" lon="6.859457772849778"><ele>350.0</ele><time>2026-03-28T07:56:38Z</time></trkpt><trkpt lat="47.62065685316218" lon="6.859288640191544"><ele>350.0</ele><time>2026-03-28T07:56:39Z</time></trkpt><trkpt lat="47.62046535064679" lon="6.8590107116557535"><ele>351.0</ele><time>2026-03-28T07:56:40Z</time></trkpt><trkpt lat="47.620237347276635" lon="6.858845492291731"><ele>352.0</ele><time>2026-03-28T07:56:41Z</time></trkpt><trkpt lat="47.61996538021478" lon="6.858821004398514"><ele>352.0</ele><time>2026-03-28T07:56:42Z</time></trkpt><trkpt lat="47.61973695223638" lon="6.858671678668728"><ele>352.0</ele><time>2026-03-28T07:56:43Z</time></trkpt><trkpt lat="47.6195085911955" lon="6.858526733967358"><ele>351.5</ele><time>2026-03-28T07:56:44Z</time></trkpt><trkpt lat="47.61927940744929" lon="6.858385319518528"><ele>351.0</ele><time>2026-03-28T07:56:45Z</time></trkpt><trkpt lat="47.61905110074184" lon="6.858256641559625"><ele>351.0</ele><time>2026-03-28T07:56:46Z</time></trkpt><trkpt lat="47.618825762338744" lon="6.858132982964755"><ele>351.0</ele><time>2026-03-28T07:56:47Z</time></trkpt><trkpt lat="47.61859824320257" lon="6.8580048597693315"><ele>351.5</ele><time>2026-03-28T07:56:48Z</time></trkpt><trkpt lat="47.618369562817406" lon="6.857884217185769"><ele>352.0</ele><time>2026-03-28T07:56:49Z</time></trkpt><trkpt lat="47.61814352404043" lon="6.857763241886373"><ele>352.0</ele><time>2026-03-28T07:56:50Z</time></trkpt><trkpt lat="47.61791720730821" lon="6.857652792035178"><ele>352.0</ele><time>2026-03-28T07:56:51Z</time></trkpt><trkpt lat="47.61768648207314" lon="6.857541682240788"><ele>352.0</ele><time>2026-03-28T07:56:52Z</time></trkpt><trkpt lat="47.61745651567149" lon="6.857433828116339"><ele>352.0</ele><time>2026-03-28T07:56:53Z</time></trkpt><trkpt lat="47.61722741244743" lon="6.857331290056041"><ele>352.0</ele><time>2026-03-28T07:56:54Z</time></trkpt><trkpt lat="47.61699543722226" lon="6.857234187315389"><ele>352.0</ele><time>2026-03-28T07:56:55Z</time></trkpt><trkpt lat="47.6167648762852" lon="6.857141052005512"><ele>352.0</ele><time>2026-03-28T07:56:56Z</time></trkpt><trkpt lat="47.61652983930347" lon="6.85704954768729"><ele>352.0</ele><time>2026-03-28T07:56:57Z</time></trkpt><trkpt lat="47.61629384692626" lon="6.856965352313753"><ele>353.5</ele><time>2026-03-28T07:56:58Z</time></trkpt><trkpt lat="47.616052076320535" lon="6.856880087711049"><ele>355.0</ele><time>2026-03-28T07:56:59Z</time></trkpt><trkpt lat="47.615812873196816" lon="6.856798577407143"><ele>355.5</ele><time>2026-03-28T07:57:00Z</time></trkpt><trkpt lat="47.61557317519037" lon="6.856727254498995"><ele>356.0</ele><time>2026-03-28T07:57:01Z</time></trkpt><trkpt lat="47.615331721120576" lon="6.856655114008839"><ele>359.0</ele><time>2026-03-28T07:57:02Z</time></trkpt><trkpt lat="47.61508896381275" lon="6.856590618342445"><ele>362.0</ele><time>2026-03-28T07:57:03Z</time></trkpt><trkpt lat="47.61484676626215" lon="6.8565304473527835"><ele>362.0</ele><time>2026-03-28T07:57:04Z</time></trkpt><trkpt lat="47.614602800718274" lon="6.856474115238459"><ele>362.0</ele><time>2026-03-28T07:57:05Z</time></trkpt><trkpt lat="47.61435787317309" lon="6.856421603864522"><ele>362.5</ele><time>2026-03-28T07:57:06Z</time></trkpt><trkpt lat="47.61411265774796" lon="6.856373831012362"><ele>363.0</ele><time>2026-03-28T07:57:07Z</time></trkpt><trkpt lat="47.613864736764334" lon="6.856322241877761"><ele>362.0</ele><time>2026-03-28T07:57:08Z</time></trkpt><trkpt lat="47.6136115212376" lon="6.856279267320521"><ele>361.0</ele><time>2026-03-28T07:57:09Z</time></trkpt><trkpt lat="47.613361827377986" lon="6.856236568097136"><ele>361.0</ele><time>2026-03-28T07:57:10Z</time></trkpt><trkpt lat="47.61310665964364" lon="6.856201584541888"><ele>361.0</ele><time>2026-03-28T07:57:11Z</time></trkpt><trkpt lat="47.61284768359007" lon="6.856164573051574"><ele>360.5</ele><time>2026-03-28T07:57:12Z</time></trkpt><trkpt lat="47.61258819578792" lon="6.856139812677838"><ele>360.0</ele><time>2026-03-28T07:57:13Z</time></trkpt><trkpt lat="47.612325566526515" lon="6.856113989817488"><ele>360.0</ele><time>2026-03-28T07:57:14Z</time></trkpt><trkpt lat="47.61206272909678" lon="6.856094912000599"><ele>360.0</ele><time>2026-03-28T07:57:15Z</time></trkpt><trkpt lat="47.6117968200054" lon="6.8560780913835435"><ele>362.0</ele><time>2026-03-28T07:57:16Z</time></trkpt><trkpt lat="47.61152809988891" lon="6.856072774352556"><ele>364.0</ele><time>2026-03-28T07:57:17Z</time></trkpt><trkpt lat="47.61125981522053" lon="6.856069088675586"><ele>366.5</ele><time>2026-03-28T07:57:18Z</time></trkpt><trkpt lat="47.61099145682243" lon="6.85607683959086"><ele>369.0</ele><time>2026-03-28T07:57:19Z</time></trkpt><trkpt lat="47.61072389434789" lon="6.8560886379451205"><ele>369.0</ele><time>2026-03-28T07:57:20Z</time></trkpt><trkpt lat="47.610457358172376" lon="6.856106043207742"><ele>369.0</ele><time>2026-03-28T07:57:21Z</time></trkpt><trkpt lat="47.610189637782796" lon="6.8561259746117615"><ele>367.5</ele><time>2026-03-28T07:57:22Z</time></trkpt><trkpt lat="47.60992182067533" lon="6.856151816648878"><ele>366.0</ele><time>2026-03-28T07:57:23Z</time></trkpt><trkpt lat="47.60965226494122" lon="6.8561823518538185"><ele>364.5</ele><time>2026-03-28T07:57:24Z</time></trkpt><trkpt lat="47.60938177638087" lon="6.8562135170172045"><ele>363.0</ele><time>2026-03-28T07:57:25Z</time></trkpt><trkpt lat="47.60911276685186" lon="6.856252797277605"><ele>363.0</ele><time>2026-03-28T07:57:26Z</time></trkpt><trkpt lat="47.60884478495332" lon="6.856292079461006"><ele>363.0</ele><time>2026-03-28T07:57:27Z</time></trkpt><trkpt lat="47.60857551019948" lon="6.85632964339835"><ele>362.5</ele><time>2026-03-28T07:57:28Z</time></trkpt><trkpt lat="47.608307014218965" lon="6.8563688209128815"><ele>362.0</ele><time>2026-03-28T07:57:29Z</time></trkpt><trkpt lat="47.608034987739" lon="6.8564107881670475"><ele>362.0</ele><time>2026-03-28T07:57:30Z</time></trkpt><trkpt lat="47.60776315051702" lon="6.856454685125039"><ele>362.0</ele><time>2026-03-28T07:57:31Z</time></trkpt><trkpt lat="47.60749377169269" lon="6.8564981476314015"><ele>362.0</ele><time>2026-03-28T07:57:32Z</time></trkpt><trkpt lat="47.60722675070117" lon="6.85654381415675"><ele>362.0</ele><time>2026-03-28T07:57:33Z</time></trkpt><trkpt lat="47.60695835055225" lon="6.856585963738569"><ele>363.5</ele><time>2026-03-28T07:57:34Z</time></trkpt><trkpt lat="47.60669140751357" lon="6.856630976554091"><ele>365.0</ele><time>2026-03-28T07:57:35Z</time></trkpt><trkpt lat="47.60642395199216" lon="6.856672322779348"><ele>364.0</ele><time>2026-03-28T07:57:36Z</time></trkpt><trkpt lat="47.60615573339163" lon="6.856704238255224"><ele>363.0</ele><time>2026-03-28T07:57:37Z</time></trkpt><trkpt lat="47.60588906582196" lon="6.8567331413000066"><ele>363.0</ele><time>2026-03-28T07:57:38Z</time></trkpt><trkpt lat="47.605619035261924" lon="6.856751856109571"><ele>363.0</ele><time>2026-03-28T07:57:39Z</time></trkpt><trkpt lat="47.60535017426489" lon="6.8567625848767815"><ele>364.0</ele><time>2026-03-28T07:57:40Z</time></trkpt><trkpt lat="47.605079371177766" lon="6.85676903547627"><ele>365.0</ele><time>2026-03-28T07:57:41Z</time></trkpt><trkpt lat="47.60480555920185" lon="6.856762119775385"><ele>365.0</ele><time>2026-03-28T07:57:42Z</time></trkpt><trkpt lat="47.604534436699396" lon="6.85674959458606"><ele>365.0</ele><time>2026-03-28T07:57:43Z</time></trkpt><trkpt lat="47.604262462678555" lon="6.856728127078532"><ele>365.5</ele><time>2026-03-28T07:57:44Z</time></trkpt><trkpt lat="47.60399233654017" lon="6.856696459243765"><ele>366.0</ele><time>2026-03-28T07:57:45Z</time></trkpt><trkpt lat="47.60372290011217" lon="6.856659856249682"><ele>364.5</ele><time>2026-03-28T07:57:46Z</time></trkpt><trkpt lat="47.603453752852715" lon="6.856612585177713"><ele>363.0</ele><time>2026-03-28T07:57:47Z</time></trkpt><trkpt lat="47.60318482561624" lon="6.856555844994115"><ele>363.0</ele><time>2026-03-28T07:57:48Z</time></trkpt><trkpt lat="47.60291696435528" lon="6.856493213003269"><ele>363.0</ele><time>2026-03-28T07:57:49Z</time></trkpt><trkpt lat="47.602649458160094" lon="6.856422007959239"><ele>362.5</ele><time>2026-03-28T07:57:50Z</time></trkpt><trkpt lat="47.60238327019513" lon="6.856346256679744"><ele>362.0</ele><time>2026-03-28T07:57:51Z</time></trkpt><trkpt lat="47.60211620476196" lon="6.856266036984906"><ele>361.5</ele><time>2026-03-28T07:57:52Z</time></trkpt><trkpt lat="47.601849991473095" lon="6.8561890875798355"><ele>361.0</ele><time>2026-03-28T07:57:53Z</time></trkpt><trkpt lat="47.60158060161963" lon="6.8561056175393"><ele>361.0</ele><time>2026-03-28T07:57:54Z</time></trkpt><trkpt lat="47.60130997819345" lon="6.856021284119828"><ele>361.0</ele><time>2026-03-28T07:57:55Z</time></trkpt><trkpt lat="47.60104033116654" lon="6.855943627359772"><ele>360.0</ele><time>2026-03-28T07:57:56Z</time></trkpt><trkpt lat="47.60077271970149" lon="6.855865159348431"><ele>359.0</ele><time>2026-03-28T07:57:57Z</time></trkpt><trkpt lat="47.600503101939495" lon="6.855796994867282"><ele>357.0</ele><time>2026-03-28T07:57:58Z</time></trkpt><trkpt lat="47.60023185111043" lon="6.855721295388959"><ele>355.0</ele><time>2026-03-28T07:57:59Z</time></trkpt><trkpt lat="47.59996208783113" lon="6.85566458408841"><ele>355.0</ele><time>2026-03-28T07:58:00Z</time></trkpt><trkpt lat="47.59968966703362" lon="6.855605919855645"><ele>355.0</ele><time>2026-03-28T07:58:01Z</time></trkpt><trkpt lat="47.59941672196383" lon="6.855569429941824"><ele>352.0</ele><time>2026-03-28T07:58:02Z</time></trkpt><trkpt lat="47.59914426971321" lon="6.8555330542618"><ele>349.0</ele><time>2026-03-28T07:58:03Z</time></trkpt><trkpt lat="47.598871526890434" lon="6.855517885628724"><ele>347.0</ele><time>2026-03-28T07:58:04Z</time></trkpt><trkpt lat="47.59859853477518" lon="6.855514723027408"><ele>345.0</ele><time>2026-03-28T07:58:05Z</time></trkpt><trkpt lat="47.598325460922936" lon="6.855523261886567"><ele>345.0</ele><time>2026-03-28T07:58:06Z</time></trkpt><trkpt lat="47.59805108860551" lon="6.855540920799745"><ele>345.0</ele><time>2026-03-28T07:58:07Z</time></trkpt><trkpt lat="47.59777941456018" lon="6.855572026561686"><ele>344.5</ele><time>2026-03-28T07:58:08Z</time></trkpt><trkpt lat="47.59750646361818" lon="6.855614123224761"><ele>344.0</ele><time>2026-03-28T07:58:09Z</time></trkpt><trkpt lat="47.59723672483977" lon="6.855668241269542"><ele>343.5</ele><time>2026-03-28T07:58:10Z</time></trkpt><trkpt lat="47.596968857113765" lon="6.8557334457698875"><ele>343.0</ele><time>2026-03-28T07:58:11Z</time></trkpt><trkpt lat="47.596702804130224" lon="6.855808930142409"><ele>343.0</ele><time>2026-03-28T07:58:12Z</time></trkpt><trkpt lat="47.59644056515388" lon="6.855892701265565"><ele>343.0</ele><time>2026-03-28T07:58:13Z</time></trkpt><trkpt lat="47.59617990706682" lon="6.855986652463334"><ele>342.0</ele><time>2026-03-28T07:58:14Z</time></trkpt><trkpt lat="47.595917988219895" lon="6.85608611940121"><ele>341.0</ele><time>2026-03-28T07:58:15Z</time></trkpt><trkpt lat="47.59565697621391" lon="6.85618938476974"><ele>341.0</ele><time>2026-03-28T07:58:16Z</time></trkpt><trkpt lat="47.5953944105816" lon="6.856298063202769"><ele>341.0</ele><time>2026-03-28T07:58:17Z</time></trkpt><trkpt lat="47.59513487589323" lon="6.8564124228695285"><ele>341.5</ele><time>2026-03-28T07:58:18Z</time></trkpt><trkpt lat="47.59487664241306" lon="6.856526559396963"><ele>342.0</ele><time>2026-03-28T07:58:19Z</time></trkpt><trkpt lat="47.59461571378849" lon="6.856634386819485"><ele>341.0</ele><time>2026-03-28T07:58:20Z</time></trkpt><trkpt lat="47.59435644003552" lon="6.856740203923624"><ele>340.0</ele><time>2026-03-28T07:58:21Z</time></trkpt><trkpt lat="47.594097373145374" lon="6.8568399349193925"><ele>340.0</ele><time>2026-03-28T07:58:22Z</time></trkpt><trkpt lat="47.59383689805105" lon="6.85693019148388"><ele>340.0</ele><time>2026-03-28T07:58:23Z</time></trkpt><trkpt lat="47.593576645580875" lon="6.85701441001938"><ele>340.5</ele><time>2026-03-28T07:58:24Z</time></trkpt><trkpt lat="47.59331777363044" lon="6.85709017351124"><ele>341.0</ele><time>2026-03-28T07:58:25Z</time></trkpt><trkpt lat="47.5930600445433" lon="6.857153441242341"><ele>340.5</ele><time>2026-03-28T07:58:26Z</time></trkpt><trkpt lat="47.592806782162086" lon="6.857206719163481"><ele>340.0</ele><time>2026-03-28T07:58:27Z</time></trkpt><trkpt lat="47.59254971075137" lon="6.857256352831146"><ele>340.0</ele><time>2026-03-28T07:58:28Z</time></trkpt><trkpt lat="47.592290677572194" lon="6.857296404048623"><ele>340.0</ele><time>2026-03-28T07:58:29Z</time></trkpt><trkpt lat="47.59203046445869" lon="6.85733134439954"><ele>340.0</ele><time>2026-03-28T07:58:30Z</time></trkpt><trkpt lat="47.59176741443601" lon="6.857353603656853"><ele>340.0</ele><time>2026-03-28T07:58:31Z</time></trkpt><trkpt lat="47.59150272794863" lon="6.857365941606665"><ele>340.0</ele><time>2026-03-28T07:58:32Z</time></trkpt><trkpt lat="47.59123828446058" lon="6.8573675603057485"><ele>340.0</ele><time>2026-03-28T07:58:33Z</time></trkpt><trkpt lat="47.59097494326066" lon="6.857358949705132"><ele>340.5</ele><time>2026-03-28T07:58:34Z</time></trkpt><trkpt lat="47.59071312208766" lon="6.857341324803406"><ele>341.0</ele><time>2026-03-28T07:58:35Z</time></trkpt><trkpt lat="47.590449188010105" lon="6.857314793329675"><ele>340.0</ele><time>2026-03-28T07:58:36Z</time></trkpt><trkpt lat="47.59018809874181" lon="6.857277330218051"><ele>339.0</ele><time>2026-03-28T07:58:37Z</time></trkpt><trkpt lat="47.58992439270366" lon="6.857225117156955"><ele>339.0</ele><time>2026-03-28T07:58:38Z</time></trkpt><trkpt lat="47.58966195433757" lon="6.857167357756318"><ele>339.0</ele><time>2026-03-28T07:58:39Z</time></trkpt><trkpt lat="47.58940132887893" lon="6.857094374239171"><ele>339.5</ele><time>2026-03-28T07:58:40Z</time></trkpt><trkpt lat="47.589139599207385" lon="6.8570162752703165"><ele>340.0</ele><time>2026-03-28T07:58:41Z</time></trkpt><trkpt lat="47.588879473680585" lon="6.856927344398239"><ele>339.5</ele><time>2026-03-28T07:58:42Z</time></trkpt><trkpt lat="47.58861905918125" lon="6.856831901997397"><ele>339.0</ele><time>2026-03-28T07:58:43Z</time></trkpt><trkpt lat="47.5883576581037" lon="6.856735503692121"><ele>338.5</ele><time>2026-03-28T07:58:44Z</time></trkpt><trkpt lat="47.58809857667769" lon="6.856636128370265"><ele>338.0</ele><time>2026-03-28T07:58:45Z</time></trkpt><trkpt lat="47.587838410879506" lon="6.856536652211797"><ele>339.0</ele><time>2026-03-28T07:58:46Z</time></trkpt><trkpt lat="47.5875763819491" lon="6.856434250525714"><ele>340.0</ele><time>2026-03-28T07:58:47Z</time></trkpt><trkpt lat="47.58731727821912" lon="6.85633356409675"><ele>340.0</ele><time>2026-03-28T07:58:48Z</time></trkpt><trkpt lat="47.58705972658668" lon="6.856235404474936"><ele>340.0</ele><time>2026-03-28T07:58:49Z</time></trkpt><trkpt lat="47.586798979275834" lon="6.856144382273766"><ele>341.5</ele><time>2026-03-28T07:58:50Z</time></trkpt><trkpt lat="47.58653900206106" lon="6.856053027807985"><ele>343.0</ele><time>2026-03-28T07:58:51Z</time></trkpt><trkpt lat="47.58627924698611" lon="6.855963297429247"><ele>341.0</ele><time>2026-03-28T07:58:52Z</time></trkpt><trkpt lat="47.586017013042905" lon="6.8558773654778875"><ele>339.0</ele><time>2026-03-28T07:58:53Z</time></trkpt><trkpt lat="47.585751554767405" lon="6.855815000613313"><ele>339.0</ele><time>2026-03-28T07:58:54Z</time></trkpt><trkpt lat="47.58548301734537" lon="6.855764286431661"><ele>339.0</ele><time>2026-03-28T07:58:55Z</time></trkpt><trkpt lat="47.58521307960247" lon="6.855724501685377"><ele>339.5</ele><time>2026-03-28T07:58:56Z</time></trkpt><trkpt lat="47.58494142478709" lon="6.855697197037841"><ele>340.0</ele><time>2026-03-28T07:58:57Z</time></trkpt><trkpt lat="47.58466448962176" lon="6.855675807151384"><ele>339.5</ele><time>2026-03-28T07:58:58Z</time></trkpt><trkpt lat="47.58439145967363" lon="6.855672020025751"><ele>339.0</ele><time>2026-03-28T07:58:59Z</time></trkpt><trkpt lat="47.58411704051708" lon="6.855681682501566"><ele>339.0</ele><time>2026-03-28T07:59:00Z</time></trkpt><trkpt lat="47.58384379794439" lon="6.855704720931518"><ele>339.0</ele><time>2026-03-28T07:59:01Z</time></trkpt><trkpt lat="47.58357102904221" lon="6.85574368234176"><ele>338.0</ele><time>2026-03-28T07:59:02Z</time></trkpt><trkpt lat="47.58329779352609" lon="6.855796466143563"><ele>337.0</ele><time>2026-03-28T07:59:03Z</time></trkpt><trkpt lat="47.58302553197794" lon="6.855863811156356"><ele>338.5</ele><time>2026-03-28T07:59:04Z</time></trkpt><trkpt lat="47.58275707027211" lon="6.855941111490799"><ele>340.0</ele><time>2026-03-28T07:59:05Z</time></trkpt><trkpt lat="47.58248961825299" lon="6.85603129488092"><ele>340.0</ele><time>2026-03-28T07:59:06Z</time></trkpt><trkpt lat="47.582224958596775" lon="6.8561356854025535"><ele>340.0</ele><time>2026-03-28T07:59:07Z</time></trkpt><trkpt lat="47.58196107060522" lon="6.856250009903394"><ele>340.0</ele><time>2026-03-28T07:59:08Z</time></trkpt><trkpt lat="47.58169387928514" lon="6.8563706439658105"><ele>340.0</ele><time>2026-03-28T07:59:09Z</time></trkpt><trkpt lat="47.58144149028907" lon="6.856504628561785"><ele>340.0</ele><time>2026-03-28T07:59:10Z</time></trkpt><trkpt lat="47.5811858707688" lon="6.85663994367076"><ele>340.0</ele><time>2026-03-28T07:59:11Z</time></trkpt><trkpt lat="47.58092865976387" lon="6.856780300978224"><ele>339.0</ele><time>2026-03-28T07:59:12Z</time></trkpt><trkpt lat="47.58067486141622" lon="6.856927265680486"><ele>338.0</ele><time>2026-03-28T07:59:13Z</time></trkpt><trkpt lat="47.58041667507995" lon="6.857066061956977"><ele>338.0</ele><time>2026-03-28T07:59:14Z</time></trkpt><trkpt lat="47.5801576434862" lon="6.857196107505684"><ele>338.0</ele><time>2026-03-28T07:59:15Z</time></trkpt><trkpt lat="47.57989653082548" lon="6.857321946699993"><ele>338.0</ele><time>2026-03-28T07:59:16Z</time></trkpt><trkpt lat="47.57963489622192" lon="6.857428415848254"><ele>338.0</ele><time>2026-03-28T07:59:17Z</time></trkpt><trkpt lat="47.57936959639394" lon="6.857527626116664"><ele>337.0</ele><time>2026-03-28T07:59:18Z</time></trkpt><trkpt lat="47.57910506830417" lon="6.857616838767597"><ele>336.0</ele><time>2026-03-28T07:59:19Z</time></trkpt><trkpt lat="47.57883800629382" lon="6.857694798889432"><ele>338.5</ele><time>2026-03-28T07:59:20Z</time></trkpt><trkpt lat="47.57857186008129" lon="6.857756245427232"><ele>341.0</ele><time>2026-03-28T07:59:21Z</time></trkpt><trkpt lat="47.57830569938292" lon="6.857809293221975"><ele>341.0</ele><time>2026-03-28T07:59:22Z</time></trkpt><trkpt lat="47.57803746230514" lon="6.857852261361299"><ele>341.0</ele><time>2026-03-28T07:59:23Z</time></trkpt><trkpt lat="47.577770722417114" lon="6.857884490150132"><ele>340.5</ele><time>2026-03-28T07:59:24Z</time></trkpt><trkpt lat="47.57750197224836" lon="6.857902220461861"><ele>340.0</ele><time>2026-03-28T07:59:25Z</time></trkpt><trkpt lat="47.57723418956283" lon="6.857904968265714"><ele>339.0</ele><time>2026-03-28T07:59:26Z</time></trkpt><trkpt lat="47.57696758082996" lon="6.857899404651706"><ele>338.0</ele><time>2026-03-28T07:59:27Z</time></trkpt><trkpt lat="47.57670025007543" lon="6.857886513168785"><ele>338.0</ele><time>2026-03-28T07:59:28Z</time></trkpt><trkpt lat="47.57643243354325" lon="6.857867154625506"><ele>338.0</ele><time>2026-03-28T07:59:29Z</time></trkpt><trkpt lat="47.57616557204505" lon="6.857832332717448"><ele>336.5</ele><time>2026-03-28T07:59:30Z</time></trkpt><trkpt lat="47.575901267739056" lon="6.857782884636698"><ele>335.0</ele><time>2026-03-28T07:59:31Z</time></trkpt><trkpt lat="47.575638055293005" lon="6.857728416974815"><ele>335.0</ele><time>2026-03-28T07:59:32Z</time></trkpt><trkpt lat="47.57537637838119" lon="6.857658719843199"><ele>335.0</ele><time>2026-03-28T07:59:33Z</time></trkpt><trkpt lat="47.575115814645606" lon="6.857583198451066"><ele>336.0</ele><time>2026-03-28T07:59:34Z</time></trkpt><trkpt lat="47.57485469164242" lon="6.857498003943727"><ele>337.0</ele><time>2026-03-28T07:59:35Z</time></trkpt><trkpt lat="47.57460369910233" lon="6.857421481509106"><ele>336.5</ele><time>2026-03-28T07:59:36Z</time></trkpt><trkpt lat="47.57434267959118" lon="6.857328151990334"><ele>336.0</ele><time>2026-03-28T07:59:37Z</time></trkpt><trkpt lat="47.574081455486386" lon="6.857234535538861"><ele>336.0</ele><time>2026-03-28T07:59:38Z</time></trkpt><trkpt lat="47.57381764584905" lon="6.857153394253896"><ele>336.0</ele><time>2026-03-28T07:59:39Z</time></trkpt><trkpt lat="47.57355584553745" lon="6.857076225323735"><ele>335.0</ele><time>2026-03-28T07:59:40Z</time></trkpt><trkpt lat="47.57329176492075" lon="6.857008667081777"><ele>334.0</ele><time>2026-03-28T07:59:41Z</time></trkpt><trkpt lat="47.573026313190105" lon="6.856953669143359"><ele>334.0</ele><time>2026-03-28T07:59:42Z</time></trkpt><trkpt lat="47.57275914997297" lon="6.856905070582286"><ele>334.0</ele><time>2026-03-28T07:59:43Z</time></trkpt><trkpt lat="47.57249107755823" lon="6.856869340049845"><ele>334.0</ele><time>2026-03-28T07:59:44Z</time></trkpt><trkpt lat="47.572222997541346" lon="6.8568436434581645"><ele>334.0</ele><time>2026-03-28T07:59:45Z</time></trkpt><trkpt lat="47.57195542360201" lon="6.8568270644962475"><ele>334.0</ele><time>2026-03-28T07:59:46Z</time></trkpt><trkpt lat="47.571686576795095" lon="6.856823387845444"><ele>334.0</ele><time>2026-03-28T07:59:47Z</time></trkpt><trkpt lat="47.57141817462967" lon="6.856827485736695"><ele>334.0</ele><time>2026-03-28T07:59:48Z</time></trkpt><trkpt lat="47.571149798710266" lon="6.85683806855554"><ele>334.0</ele><time>2026-03-28T07:59:49Z</time></trkpt><trkpt lat="47.570884307494396" lon="6.856856845527371"><ele>334.0</ele><time>2026-03-28T07:59:50Z</time></trkpt><trkpt lat="47.57061651840538" lon="6.856886398281489"><ele>334.0</ele><time>2026-03-28T07:59:51Z</time></trkpt><trkpt lat="47.57034941569873" lon="6.8569249062473325"><ele>334.5</ele><time>2026-03-28T07:59:52Z</time></trkpt><trkpt lat="47.570083726878885" lon="6.856976324601063"><ele>335.0</ele><time>2026-03-28T07:59:53Z</time></trkpt><trkpt lat="47.5698186315489" lon="6.85703571160849"><ele>335.0</ele><time>2026-03-28T07:59:54Z</time></trkpt><trkpt lat="47.569554886322706" lon="6.8571036230258535"><ele>335.0</ele><time>2026-03-28T07:59:55Z</time></trkpt><trkpt lat="47.56929020448431" lon="6.857181470564362"><ele>335.0</ele><time>2026-03-28T07:59:56Z</time></trkpt><trkpt lat="47.56902721114781" lon="6.857270988084042"><ele>335.0</ele><time>2026-03-28T07:59:57Z</time></trkpt><trkpt lat="47.56876609673754" lon="6.857369306527454"><ele>334.0</ele><time>2026-03-28T07:59:58Z</time></trkpt><trkpt lat="47.56850724445017" lon="6.857477675178442"><ele>333.0</ele><time>2026-03-28T07:59:59Z</time></trkpt><trkpt lat="47.568249553365746" lon="6.857592203387374"><ele>333.0</ele><time>2026-03-28T08:00:00Z</time></trkpt><trkpt lat="47.567993898562776" lon="6.8577191810638345"><ele>333.0</ele><time>2026-03-28T08:00:01Z</time></trkpt><trkpt lat="47.5677389761042" lon="6.857860449304449"><ele>333.5</ele><time>2026-03-28T08:00:02Z</time></trkpt><trkpt lat="47.56748608391251" lon="6.858007692818791"><ele>334.0</ele><time>2026-03-28T08:00:03Z</time></trkpt><trkpt lat="47.56723544396686" lon="6.8581630407910765"><ele>334.0</ele><time>2026-03-28T08:00:04Z</time></trkpt><trkpt lat="47.56698872740134" lon="6.8583285365259155"><ele>334.0</ele><time>2026-03-28T08:00:05Z</time></trkpt><trkpt lat="47.56674282075572" lon="6.858501143219731"><ele>334.0</ele><time>2026-03-28T08:00:06Z</time></trkpt><trkpt lat="47.566497702369695" lon="6.85867533401114"><ele>334.0</ele><time>2026-03-28T08:00:07Z</time></trkpt><trkpt lat="47.566255523444134" lon="6.8588572891854165"><ele>333.0</ele><time>2026-03-28T08:00:08Z</time></trkpt><trkpt lat="47.566013954605054" lon="6.859037883622144"><ele>332.0</ele><time>2026-03-28T08:00:09Z</time></trkpt><trkpt lat="47.565774829955465" lon="6.859221280134955"><ele>332.5</ele><time>2026-03-28T08:00:10Z</time></trkpt><trkpt lat="47.56553620717704" lon="6.859403850148667"><ele>333.0</ele><time>2026-03-28T08:00:11Z</time></trkpt><trkpt lat="47.56529670582779" lon="6.85958622445344"><ele>333.0</ele><time>2026-03-28T08:00:12Z</time></trkpt><trkpt lat="47.56505889730731" lon="6.859766417733387"><ele>333.0</ele><time>2026-03-28T08:00:13Z</time></trkpt><trkpt lat="47.56482129050616" lon="6.859938441008722"><ele>333.0</ele><time>2026-03-28T08:00:14Z</time></trkpt><trkpt lat="47.564577848998425" lon="6.860106879087291"><ele>333.0</ele><time>2026-03-28T08:00:15Z</time></trkpt><trkpt lat="47.56433587381171" lon="6.860282707343919"><ele>333.0</ele><time>2026-03-28T08:00:16Z</time></trkpt><trkpt lat="47.56409706310426" lon="6.860459307753097"><ele>333.0</ele><time>2026-03-28T08:00:17Z</time></trkpt><trkpt lat="47.56385216745518" lon="6.860634690285831"><ele>333.5</ele><time>2026-03-28T08:00:18Z</time></trkpt><trkpt lat="47.56360748995764" lon="6.860806703394773"><ele>334.0</ele><time>2026-03-28T08:00:19Z</time></trkpt><trkpt lat="47.5633676202779" lon="6.860980976494347"><ele>334.0</ele><time>2026-03-28T08:00:20Z</time></trkpt><trkpt lat="47.56312083766789" lon="6.861147885073043"><ele>334.0</ele><time>2026-03-28T08:00:21Z</time></trkpt><trkpt lat="47.56287670861355" lon="6.861319326554266"><ele>333.0</ele><time>2026-03-28T08:00:22Z</time></trkpt><trkpt lat="47.56263167851627" lon="6.86148521416276"><ele>332.0</ele><time>2026-03-28T08:00:23Z</time></trkpt><trkpt lat="47.562381205794765" lon="6.861640963479453"><ele>332.0</ele><time>2026-03-28T08:00:24Z</time></trkpt><trkpt lat="47.56213404463234" lon="6.8617943701277095"><ele>332.0</ele><time>2026-03-28T08:00:25Z</time></trkpt><trkpt lat="47.56188276949993" lon="6.861941515139907"><ele>332.0</ele><time>2026-03-28T08:00:26Z</time></trkpt><trkpt lat="47.56162638480647" lon="6.862087424680551"><ele>332.0</ele><time>2026-03-28T08:00:27Z</time></trkpt><trkpt lat="47.56137415795459" lon="6.862221562059484"><ele>332.5</ele><time>2026-03-28T08:00:28Z</time></trkpt><trkpt lat="47.561119009435515" lon="6.862354833549328"><ele>333.0</ele><time>2026-03-28T08:00:29Z</time></trkpt><trkpt lat="47.560863715889546" lon="6.862486934023178"><ele>333.0</ele><time>2026-03-28T08:00:30Z</time></trkpt><trkpt lat="47.5606063643265" lon="6.862609876696755"><ele>333.0</ele><time>2026-03-28T08:00:31Z</time></trkpt><trkpt lat="47.56034991152915" lon="6.862734117465882"><ele>332.0</ele><time>2026-03-28T08:00:32Z</time></trkpt><trkpt lat="47.56009277740121" lon="6.862851702246282"><ele>331.0</ele><time>2026-03-28T08:00:33Z</time></trkpt><trkpt lat="47.55983232112344" lon="6.862967584554755"><ele>331.0</ele><time>2026-03-28T08:00:34Z</time></trkpt><trkpt lat="47.559572920943985" lon="6.863068392410632"><ele>331.0</ele><time>2026-03-28T08:00:35Z</time></trkpt><trkpt lat="47.55931591400735" lon="6.863174853399916"><ele>331.5</ele><time>2026-03-28T08:00:36Z</time></trkpt><trkpt lat="47.55905141281835" lon="6.863271457942482"><ele>332.0</ele><time>2026-03-28T08:00:37Z</time></trkpt><trkpt lat="47.5587909438702" lon="6.863362100326976"><ele>332.5</ele><time>2026-03-28T08:00:38Z</time></trkpt><trkpt lat="47.5585287821283" lon="6.86345686898599"><ele>333.0</ele><time>2026-03-28T08:00:39Z</time></trkpt><trkpt lat="47.55826547440905" lon="6.863541517440083"><ele>333.0</ele><time>2026-03-28T08:00:40Z</time></trkpt><trkpt lat="47.558000917714764" lon="6.863617586035628"><ele>333.0</ele><time>2026-03-28T08:00:41Z</time></trkpt><trkpt lat="47.55773586829422" lon="6.863685638444495"><ele>332.0</ele><time>2026-03-28T08:00:42Z</time></trkpt><trkpt lat="47.55747087077435" lon="6.8637468168046585"><ele>331.0</ele><time>2026-03-28T08:00:43Z</time></trkpt><trkpt lat="47.55720620107721" lon="6.863810658352216"><ele>331.0</ele><time>2026-03-28T08:00:44Z</time></trkpt><trkpt lat="47.55694016933794" lon="6.86386727341726"><ele>331.0</ele><time>2026-03-28T08:00:45Z</time></trkpt><trkpt lat="47.556673868698226" lon="6.863921867650554"><ele>331.0</ele><time>2026-03-28T08:00:46Z</time></trkpt><trkpt lat="47.556407466200824" lon="6.863971831299083"><ele>331.0</ele><time>2026-03-28T08:00:47Z</time></trkpt><trkpt lat="47.55614049238795" lon="6.864016560867076"><ele>330.5</ele><time>2026-03-28T08:00:48Z</time></trkpt><trkpt lat="47.555873674024866" lon="6.86405831965386"><ele>330.0</ele><time>2026-03-28T08:00:49Z</time></trkpt><trkpt lat="47.55560805837648" lon="6.8640961672179195"><ele>329.0</ele><time>2026-03-28T08:00:50Z</time></trkpt><trkpt lat="47.5553415402405" lon="6.8641324483554875"><ele>328.0</ele><time>2026-03-28T08:00:51Z</time></trkpt><trkpt lat="47.555074940791265" lon="6.864165801507982"><ele>328.0</ele><time>2026-03-28T08:00:52Z</time></trkpt><trkpt lat="47.55480525230804" lon="6.864193235454718"><ele>328.0</ele><time>2026-03-28T08:00:53Z</time></trkpt><trkpt lat="47.554536589708086" lon="6.864217624186238"><ele>327.5</ele><time>2026-03-28T08:00:54Z</time></trkpt><trkpt lat="47.554269004380316" lon="6.864238018953797"><ele>327.0</ele><time>2026-03-28T08:00:55Z</time></trkpt><trkpt lat="47.553999901950746" lon="6.864258251059655"><ele>327.0</ele><time>2026-03-28T08:00:56Z</time></trkpt><trkpt lat="47.553731136740105" lon="6.8642708828323"><ele>327.0</ele><time>2026-03-28T08:00:57Z</time></trkpt><trkpt lat="47.55346170694923" lon="6.864283613736336"><ele>326.5</ele><time>2026-03-28T08:00:58Z</time></trkpt><trkpt lat="47.553191838722405" lon="6.864293839580806"><ele>326.0</ele><time>2026-03-28T08:00:59Z</time></trkpt><trkpt lat="47.552923730260886" lon="6.864297165999722"><ele>326.5</ele><time>2026-03-28T08:01:00Z</time></trkpt><trkpt lat="47.55265347734922" lon="6.864302439198132"><ele>327.0</ele><time>2026-03-28T08:01:01Z</time></trkpt><trkpt lat="47.55238550213443" lon="6.86430244501288"><ele>327.0</ele><time>2026-03-28T08:01:02Z</time></trkpt><trkpt lat="47.55211682446012" lon="6.8642988528494895"><ele>327.0</ele><time>2026-03-28T08:01:03Z</time></trkpt><trkpt lat="47.55184821334695" lon="6.864294749387824"><ele>326.5</ele><time>2026-03-28T08:01:04Z</time></trkpt><trkpt lat="47.55157958094572" lon="6.864286584643076"><ele>326.0</ele><time>2026-03-28T08:01:05Z</time></trkpt><trkpt lat="47.551310105709796" lon="6.864276527882257"><ele>326.5</ele><time>2026-03-28T08:01:06Z</time></trkpt><trkpt lat="47.55103923724288" lon="6.864261853010995"><ele>327.0</ele><time>2026-03-28T08:01:07Z</time></trkpt><trkpt lat="47.55076972372951" lon="6.864244566449404"><ele>327.0</ele><time>2026-03-28T08:01:08Z</time></trkpt><trkpt lat="47.55050025313172" lon="6.86422455848996"><ele>327.0</ele><time>2026-03-28T08:01:09Z</time></trkpt><trkpt lat="47.55023068817689" lon="6.864209245642884"><ele>328.5</ele><time>2026-03-28T08:01:10Z</time></trkpt><trkpt lat="47.54996082661794" lon="6.864185836221709"><ele>330.0</ele><time>2026-03-28T08:01:11Z</time></trkpt><trkpt lat="47.549689172725806" lon="6.864158850820404"><ele>328.5</ele><time>2026-03-28T08:01:12Z</time></trkpt><trkpt lat="47.54941701243261" lon="6.864130539499587"><ele>327.0</ele><time>2026-03-28T08:01:13Z</time></trkpt><trkpt lat="47.549147239882046" lon="6.864100772224223"><ele>327.0</ele><time>2026-03-28T08:01:14Z</time></trkpt><trkpt lat="47.548875691338274" lon="6.864066338933504"><ele>327.0</ele><time>2026-03-28T08:01:15Z</time></trkpt><trkpt lat="47.548606524214016" lon="6.864035725788524"><ele>326.5</ele><time>2026-03-28T08:01:16Z</time></trkpt><trkpt lat="47.548335680925256" lon="6.8640036899119625"><ele>326.0</ele><time>2026-03-28T08:01:17Z</time></trkpt><trkpt lat="47.54806510501681" lon="6.863972403036145"><ele>326.5</ele><time>2026-03-28T08:01:18Z</time></trkpt><trkpt lat="47.54779558730934" lon="6.86393810545045"><ele>327.0</ele><time>2026-03-28T08:01:19Z</time></trkpt><trkpt lat="47.54752547128132" lon="6.863900683338379"><ele>327.0</ele><time>2026-03-28T08:01:20Z</time></trkpt><trkpt lat="47.54725698844519" lon="6.8638617902977055"><ele>327.0</ele><time>2026-03-28T08:01:21Z</time></trkpt><trkpt lat="47.54698785516685" lon="6.863821463690087"><ele>328.0</ele><time>2026-03-28T08:01:22Z</time></trkpt><trkpt lat="47.54671922724045" lon="6.863777974723518"><ele>329.0</ele><time>2026-03-28T08:01:23Z</time></trkpt><trkpt lat="47.546448519502405" lon="6.863732919237168"><ele>327.5</ele><time>2026-03-28T08:01:24Z</time></trkpt><trkpt lat="47.54617981013517" lon="6.863686101073461"><ele>326.0</ele><time>2026-03-28T08:01:25Z</time></trkpt><trkpt lat="47.545910877597684" lon="6.863641650774546"><ele>326.0</ele><time>2026-03-28T08:01:26Z</time></trkpt><trkpt lat="47.54564180976315" lon="6.863595819728217"><ele>326.0</ele><time>2026-03-28T08:01:27Z</time></trkpt><trkpt lat="47.54537235268673" lon="6.863550025120909"><ele>328.0</ele><time>2026-03-28T08:01:28Z</time></trkpt><trkpt lat="47.54510390438734" lon="6.863502306754989"><ele>330.0</ele><time>2026-03-28T08:01:29Z</time></trkpt><trkpt lat="47.544833651748746" lon="6.863452707570665"><ele>330.0</ele><time>2026-03-28T08:01:30Z</time></trkpt><trkpt lat="47.54456276507525" lon="6.86340248959971"><ele>330.0</ele><time>2026-03-28T08:01:31Z</time></trkpt><trkpt lat="47.54429598345014" lon="6.863346425353307"><ele>328.0</ele><time>2026-03-28T08:01:32Z</time></trkpt><trkpt lat="47.54403113194649" lon="6.8632924388022465"><ele>326.0</ele><time>2026-03-28T08:01:33Z</time></trkpt><trkpt lat="47.54376346476474" lon="6.863240639491404"><ele>326.0</ele><time>2026-03-28T08:01:34Z</time></trkpt><trkpt lat="47.543495335990634" lon="6.863184833913499"><ele>326.0</ele><time>2026-03-28T08:01:35Z</time></trkpt><trkpt lat="47.543227817003064" lon="6.863131698348798"><ele>326.0</ele><time>2026-03-28T08:01:36Z</time></trkpt><trkpt lat="47.542959064099215" lon="6.863075951139439"><ele>326.0</ele><time>2026-03-28T08:01:37Z</time></trkpt><trkpt lat="47.54269304032383" lon="6.863016853723833"><ele>326.5</ele><time>2026-03-28T08:01:38Z</time></trkpt><trkpt lat="47.54242638235809" lon="6.862956671922912"><ele>327.0</ele><time>2026-03-28T08:01:39Z</time></trkpt><trkpt lat="47.54216179138915" lon="6.862894692388009"><ele>328.0</ele><time>2026-03-28T08:01:40Z</time></trkpt><trkpt lat="47.54189333058008" lon="6.862831444486238"><ele>329.0</ele><time>2026-03-28T08:01:41Z</time></trkpt><trkpt lat="47.54162584450467" lon="6.862765135367575"><ele>329.0</ele><time>2026-03-28T08:01:42Z</time></trkpt><trkpt lat="47.54136112186128" lon="6.862691802259983"><ele>329.0</ele><time>2026-03-28T08:01:43Z</time></trkpt><trkpt lat="47.541094770725955" lon="6.862622279474936"><ele>326.5</ele><time>2026-03-28T08:01:44Z</time></trkpt><trkpt lat="47.540831395473504" lon="6.86254869525723"><ele>324.0</ele><time>2026-03-28T08:01:45Z</time></trkpt><trkpt lat="47.54056690142685" lon="6.862482023032172"><ele>325.5</ele><time>2026-03-28T08:01:46Z</time></trkpt><trkpt lat="47.54030274417256" lon="6.86240881181401"><ele>327.0</ele><time>2026-03-28T08:01:47Z</time></trkpt><trkpt lat="47.54003784786621" lon="6.8623366230294165"><ele>327.0</ele><time>2026-03-28T08:01:48Z</time></trkpt><trkpt lat="47.53977325735867" lon="6.862264775584117"><ele>327.0</ele><time>2026-03-28T08:01:49Z</time></trkpt><trkpt lat="47.539508681287735" lon="6.862190265991686"><ele>326.5</ele><time>2026-03-28T08:01:50Z</time></trkpt><trkpt lat="47.53924360730344" lon="6.862113186055973"><ele>326.0</ele><time>2026-03-28T08:01:51Z</time></trkpt><trkpt lat="47.53897878326639" lon="6.862036247110963"><ele>327.0</ele><time>2026-03-28T08:01:52Z</time></trkpt><trkpt lat="47.53871453114357" lon="6.86195888526412"><ele>328.0</ele><time>2026-03-28T08:01:53Z</time></trkpt><trkpt lat="47.538451535650665" lon="6.8618812374971645"><ele>328.0</ele><time>2026-03-28T08:01:54Z</time></trkpt><trkpt lat="47.53818663927105" lon="6.861801712063542"><ele>328.0</ele><time>2026-03-28T08:01:55Z</time></trkpt><trkpt lat="47.53792151669109" lon="6.861720972929542"><ele>327.0</ele><time>2026-03-28T08:01:56Z</time></trkpt><trkpt lat="47.53765687029844" lon="6.861638843500695"><ele>326.0</ele><time>2026-03-28T08:01:57Z</time></trkpt><trkpt lat="47.53739188913571" lon="6.861555665156422"><ele>326.0</ele><time>2026-03-28T08:01:58Z</time></trkpt><trkpt lat="47.53712716793148" lon="6.861469690125995"><ele>326.0</ele><time>2026-03-28T08:01:59Z</time></trkpt><trkpt lat="47.53686345226803" lon="6.861384208222568"><ele>326.0</ele><time>2026-03-28T08:02:00Z</time></trkpt><trkpt lat="47.53659989235589" lon="6.8612996101465225"><ele>326.0</ele><time>2026-03-28T08:02:01Z</time></trkpt><trkpt lat="47.53633525911546" lon="6.861213276158401"><ele>326.0</ele><time>2026-03-28T08:02:02Z</time></trkpt><trkpt lat="47.53607300983535" lon="6.86112356016218"><ele>326.0</ele><time>2026-03-28T08:02:03Z</time></trkpt><trkpt lat="47.53580806252224" lon="6.8610333974825775"><ele>326.0</ele><time>2026-03-28T08:02:04Z</time></trkpt><trkpt lat="47.53554301504487" lon="6.860941134923787"><ele>326.0</ele><time>2026-03-28T08:02:05Z</time></trkpt><trkpt lat="47.53528288193981" lon="6.860847512776106"><ele>326.5</ele><time>2026-03-28T08:02:06Z</time></trkpt><trkpt lat="47.53501851308152" lon="6.860755406457624"><ele>327.0</ele><time>2026-03-28T08:02:07Z</time></trkpt><trkpt lat="47.53475841606091" lon="6.860662431345998"><ele>326.5</ele><time>2026-03-28T08:02:08Z</time></trkpt><trkpt lat="47.534498810006546" lon="6.860571818839429"><ele>326.0</ele><time>2026-03-28T08:02:09Z</time></trkpt><trkpt lat="47.53423928877315" lon="6.8604787494242245"><ele>326.0</ele><time>2026-03-28T08:02:10Z</time></trkpt><trkpt lat="47.53397761694362" lon="6.86038898197206"><ele>326.0</ele><time>2026-03-28T08:02:11Z</time></trkpt><trkpt lat="47.533718338630685" lon="6.860296568851334"><ele>326.5</ele><time>2026-03-28T08:02:12Z</time></trkpt><trkpt lat="47.53345872636184" lon="6.860201313812866"><ele>327.0</ele><time>2026-03-28T08:02:13Z</time></trkpt><trkpt lat="47.53320003371039" lon="6.860108762358185"><ele>327.0</ele><time>2026-03-28T08:02:14Z</time></trkpt><trkpt lat="47.53294174564082" lon="6.860012617505017"><ele>327.0</ele><time>2026-03-28T08:02:15Z</time></trkpt><trkpt lat="47.53268242834034" lon="6.859914022634497"><ele>327.0</ele><time>2026-03-28T08:02:16Z</time></trkpt><trkpt lat="47.53242603099476" lon="6.8598133888702275"><ele>327.0</ele><time>2026-03-28T08:02:17Z</time></trkpt><trkpt lat="47.532170010590946" lon="6.859707348466397"><ele>328.0</ele><time>2026-03-28T08:02:18Z</time></trkpt><trkpt lat="47.531915631773096" lon="6.859603418541582"><ele>329.0</ele><time>2026-03-28T08:02:19Z</time></trkpt><trkpt lat="47.531658908086406" lon="6.859498316683376"><ele>329.0</ele><time>2026-03-28T08:02:20Z</time></trkpt><trkpt lat="47.53140103685292" lon="6.859391187655983"><ele>329.0</ele><time>2026-03-28T08:02:21Z</time></trkpt><trkpt lat="47.53114406917775" lon="6.859279913773428"><ele>327.5</ele><time>2026-03-28T08:02:22Z</time></trkpt><trkpt lat="47.530888872054206" lon="6.859170943673736"><ele>326.0</ele><time>2026-03-28T08:02:23Z</time></trkpt><trkpt lat="47.53063080215385" lon="6.8590653452022154"><ele>325.5</ele><time>2026-03-28T08:02:24Z</time></trkpt><trkpt lat="47.53037401826046" lon="6.858957646594285"><ele>325.0</ele><time>2026-03-28T08:02:25Z</time></trkpt><trkpt lat="47.530115733405076" lon="6.858842365140022"><ele>325.0</ele><time>2026-03-28T08:02:26Z</time></trkpt><trkpt lat="47.52986030666588" lon="6.858724293325748"><ele>325.0</ele><time>2026-03-28T08:02:27Z</time></trkpt><trkpt lat="47.529607131355135" lon="6.858602827753079"><ele>325.0</ele><time>2026-03-28T08:02:28Z</time></trkpt><trkpt lat="47.529346884164326" lon="6.858485082929859"><ele>325.0</ele><time>2026-03-28T08:02:29Z</time></trkpt><trkpt lat="47.52909406071289" lon="6.858371250171568"><ele>324.5</ele><time>2026-03-28T08:02:30Z</time></trkpt><trkpt lat="47.52884202742526" lon="6.858255816768349"><ele>324.0</ele><time>2026-03-28T08:02:31Z</time></trkpt><trkpt lat="47.528587397109355" lon="6.8581317034905895"><ele>323.5</ele><time>2026-03-28T08:02:32Z</time></trkpt><trkpt lat="47.528337427825555" lon="6.858008718564281"><ele>323.0</ele><time>2026-03-28T08:02:33Z</time></trkpt><trkpt lat="47.52808426023295" lon="6.857870689123778"><ele>323.0</ele><time>2026-03-28T08:02:34Z</time></trkpt><trkpt lat="47.52783896558002" lon="6.857731139907438"><ele>323.0</ele><time>2026-03-28T08:02:35Z</time></trkpt><trkpt lat="47.52758823696196" lon="6.857600372809986"><ele>322.5</ele><time>2026-03-28T08:02:36Z</time></trkpt><trkpt lat="47.52733600706948" lon="6.857465488600918"><ele>322.0</ele><time>2026-03-28T08:02:37Z</time></trkpt><trkpt lat="47.52708487012303" lon="6.857332642063046"><ele>323.0</ele><time>2026-03-28T08:02:38Z</time></trkpt><trkpt lat="47.526832291219016" lon="6.8572040910775724"><ele>324.0</ele><time>2026-03-28T08:02:39Z</time></trkpt><trkpt lat="47.52657895216064" lon="6.857079610592302"><ele>324.0</ele><time>2026-03-28T08:02:40Z</time></trkpt><trkpt lat="47.526326153369794" lon="6.856949853214133"><ele>324.0</ele><time>2026-03-28T08:02:41Z</time></trkpt><trkpt lat="47.52607288353659" lon="6.856823792019122"><ele>323.0</ele><time>2026-03-28T08:02:42Z</time></trkpt><trkpt lat="47.5258188833808" lon="6.85669453197941"><ele>322.0</ele><time>2026-03-28T08:02:43Z</time></trkpt><trkpt lat="47.525564964994324" lon="6.856565516593081"><ele>323.0</ele><time>2026-03-28T08:02:44Z</time></trkpt><trkpt lat="47.52531076017531" lon="6.8564307778649205"><ele>324.0</ele><time>2026-03-28T08:02:45Z</time></trkpt><trkpt lat="47.52506224028672" lon="6.8562926322441395"><ele>324.0</ele><time>2026-03-28T08:02:46Z</time></trkpt><trkpt lat="47.52481078258994" lon="6.856160104242943"><ele>324.0</ele><time>2026-03-28T08:02:47Z</time></trkpt><trkpt lat="47.524558754868885" lon="6.856015275456047"><ele>324.0</ele><time>2026-03-28T08:02:48Z</time></trkpt><trkpt lat="47.524307297212474" lon="6.855873026761031"><ele>324.0</ele><time>2026-03-28T08:02:49Z</time></trkpt><trkpt lat="47.52405332846227" lon="6.855736777921843"><ele>324.0</ele><time>2026-03-28T08:02:50Z</time></trkpt><trkpt lat="47.5238034966873" lon="6.855593862810144"><ele>324.0</ele><time>2026-03-28T08:02:51Z</time></trkpt><trkpt lat="47.52355390832682" lon="6.855449150417069"><ele>322.5</ele><time>2026-03-28T08:02:52Z</time></trkpt><trkpt lat="47.52330134552629" lon="6.855305511287323"><ele>321.0</ele><time>2026-03-28T08:02:53Z</time></trkpt><trkpt lat="47.52305184705155" lon="6.855159083496094"><ele>320.5</ele><time>2026-03-28T08:02:54Z</time></trkpt><trkpt lat="47.522802837694016" lon="6.855007421490162"><ele>320.0</ele><time>2026-03-28T08:02:55Z</time></trkpt><trkpt lat="47.52255625364169" lon="6.854858800051651"><ele>320.0</ele><time>2026-03-28T08:02:56Z</time></trkpt><trkpt lat="47.52230713653047" lon="6.854711163971913"><ele>320.0</ele><time>2026-03-28T08:02:57Z</time></trkpt><trkpt lat="47.52206272754853" lon="6.8545641541817135"><ele>321.0</ele><time>2026-03-28T08:02:58Z</time></trkpt><trkpt lat="47.52181929803271" lon="6.854414199315832"><ele>322.0</ele><time>2026-03-28T08:02:59Z</time></trkpt><trkpt lat="47.521571149209784" lon="6.8542641175142816"><ele>322.0</ele><time>2026-03-28T08:03:00Z</time></trkpt><trkpt lat="47.521325367631306" lon="6.854117949980146"><ele>322.0</ele><time>2026-03-28T08:03:01Z</time></trkpt><trkpt lat="47.5210852127301" lon="6.853967470575607"><ele>323.0</ele><time>2026-03-28T08:03:02Z</time></trkpt><trkpt lat="47.520842555006666" lon="6.853820529173567"><ele>324.0</ele><time>2026-03-28T08:03:03Z</time></trkpt><trkpt lat="47.52059967268557" lon="6.853666567883439"><ele>323.0</ele><time>2026-03-28T08:03:04Z</time></trkpt><trkpt lat="47.52035923190092" lon="6.853506198637494"><ele>322.0</ele><time>2026-03-28T08:03:05Z</time></trkpt><trkpt lat="47.52012194773526" lon="6.853348114747671"><ele>322.0</ele><time>2026-03-28T08:03:06Z</time></trkpt><trkpt lat="47.51988651532523" lon="6.8531955443030785"><ele>322.0</ele><time>2026-03-28T08:03:07Z</time></trkpt><trkpt lat="47.51965806068096" lon="6.853037948543024"><ele>322.5</ele><time>2026-03-28T08:03:08Z</time></trkpt><trkpt lat="47.519428800127805" lon="6.8528799798587166"><ele>323.0</ele><time>2026-03-28T08:03:09Z</time></trkpt><trkpt lat="47.51920106980594" lon="6.8527219116488745"><ele>322.5</ele><time>2026-03-28T08:03:10Z</time></trkpt><trkpt lat="47.51897780186981" lon="6.852560522953405"><ele>322.0</ele><time>2026-03-28T08:03:11Z</time></trkpt><trkpt lat="47.518756822409564" lon="6.852403312674137"><ele>320.5</ele><time>2026-03-28T08:03:12Z</time></trkpt><trkpt lat="47.518536197124796" lon="6.852246747722513"><ele>319.0</ele><time>2026-03-28T08:03:13Z</time></trkpt><trkpt lat="47.5183168421527" lon="6.852093060577422"><ele>319.0</ele><time>2026-03-28T08:03:14Z</time></trkpt><trkpt lat="47.51810287724827" lon="6.851931427316722"><ele>319.0</ele><time>2026-03-28T08:03:15Z</time></trkpt><trkpt lat="47.51789133757266" lon="6.851772861268115"><ele>319.5</ele><time>2026-03-28T08:03:16Z</time></trkpt><trkpt lat="47.517679973414126" lon="6.851611446387893"><ele>320.0</ele><time>2026-03-28T08:03:17Z</time></trkpt><trkpt lat="47.51747054308816" lon="6.851449246284691"><ele>320.0</ele><time>2026-03-28T08:03:18Z</time></trkpt><trkpt lat="47.5172673291096" lon="6.8512854419018545"><ele>320.0</ele><time>2026-03-28T08:03:19Z</time></trkpt><trkpt lat="47.517069522376545" lon="6.851124816583793"><ele>320.0</ele><time>2026-03-28T08:03:20Z</time></trkpt><trkpt lat="47.51687015141325" lon="6.8509531523287395"><ele>320.0</ele><time>2026-03-28T08:03:21Z</time></trkpt><trkpt lat="47.516674264005296" lon="6.850787878647946"><ele>320.0</ele><time>2026-03-28T08:03:22Z</time></trkpt><trkpt lat="47.51648128510681" lon="6.850618209415584"><ele>320.0</ele><time>2026-03-28T08:03:23Z</time></trkpt><trkpt lat="47.51629265331562" lon="6.85044950153607"><ele>320.0</ele><time>2026-03-28T08:03:24Z</time></trkpt><trkpt lat="47.51609925183198" lon="6.8502806264474305"><ele>318.5</ele><time>2026-03-28T08:03:25Z</time></trkpt><trkpt lat="47.515909335205144" lon="6.850104149502775"><ele>317.0</ele><time>2026-03-28T08:03:26Z</time></trkpt><trkpt lat="47.515712109576974" lon="6.849919946329842"><ele>317.0</ele><time>2026-03-28T08:03:27Z</time></trkpt><trkpt lat="47.515517384119356" lon="6.849728741953896"><ele>317.0</ele><time>2026-03-28T08:03:28Z</time></trkpt><trkpt lat="47.51531841331695" lon="6.849529660688634"><ele>317.5</ele><time>2026-03-28T08:03:29Z</time></trkpt><trkpt lat="47.515120405477866" lon="6.849327945399502"><ele>318.0</ele><time>2026-03-28T08:03:30Z</time></trkpt><trkpt lat="47.51491847459556" lon="6.849121903369345"><ele>319.0</ele><time>2026-03-28T08:03:31Z</time></trkpt><trkpt lat="47.51471412711667" lon="6.848906178529277"><ele>320.0</ele><time>2026-03-28T08:03:32Z</time></trkpt><trkpt lat="47.5145131756202" lon="6.848681487113898"><ele>319.5</ele><time>2026-03-28T08:03:33Z</time></trkpt><trkpt lat="47.514307841411046" lon="6.848451193587628"><ele>319.0</ele><time>2026-03-28T08:03:34Z</time></trkpt><trkpt lat="47.5141022010955" lon="6.848215942728515"><ele>319.0</ele><time>2026-03-28T08:03:35Z</time></trkpt><trkpt lat="47.51390009967848" lon="6.847966768171607"><ele>319.0</ele><time>2026-03-28T08:03:36Z</time></trkpt><trkpt lat="47.51369788890598" lon="6.847719760763892"><ele>318.5</ele><time>2026-03-28T08:03:37Z</time></trkpt><trkpt lat="47.5135011670079" lon="6.847468266654889"><ele>318.0</ele><time>2026-03-28T08:03:38Z</time></trkpt><trkpt lat="47.51330283819415" lon="6.847201630315613"><ele>318.0</ele><time>2026-03-28T08:03:39Z</time></trkpt><trkpt lat="47.513105287583" lon="6.8469382890855135"><ele>318.0</ele><time>2026-03-28T08:03:40Z</time></trkpt><trkpt lat="47.51291020495063" lon="6.846665947651822"><ele>320.5</ele><time>2026-03-28T08:03:41Z</time></trkpt><trkpt lat="47.51271906246853" lon="6.846386687343576"><ele>323.0</ele><time>2026-03-28T08:03:42Z</time></trkpt><trkpt lat="47.51252700664622" lon="6.846106591641917"><ele>322.0</ele><time>2026-03-28T08:03:43Z</time></trkpt><trkpt lat="47.51233735344149" lon="6.84581691961898"><ele>321.0</ele><time>2026-03-28T08:03:44Z</time></trkpt><trkpt lat="47.51215180614954" lon="6.84552883651804"><ele>321.0</ele><time>2026-03-28T08:03:45Z</time></trkpt><trkpt lat="47.51196607767934" lon="6.845236867797398"><ele>321.0</ele><time>2026-03-28T08:03:46Z</time></trkpt><trkpt lat="47.51178536724977" lon="6.8449403347163065"><ele>321.0</ele><time>2026-03-28T08:03:47Z</time></trkpt><trkpt lat="47.51160518221966" lon="6.844636640047558"><ele>321.0</ele><time>2026-03-28T08:03:48Z</time></trkpt><trkpt lat="47.511428852352836" lon="6.844332544969193"><ele>320.5</ele><time>2026-03-28T08:03:49Z</time></trkpt><trkpt lat="47.51125777866788" lon="6.844021640760659"><ele>320.0</ele><time>2026-03-28T08:03:50Z</time></trkpt><trkpt lat="47.51108771460667" lon="6.843703363804738"><ele>320.5</ele><time>2026-03-28T08:03:51Z</time></trkpt><trkpt lat="47.510920820253915" lon="6.843383429462318"><ele>321.0</ele><time>2026-03-28T08:03:52Z</time></trkpt><trkpt lat="47.51075658464256" lon="6.843058185114172"><ele>321.0</ele><time>2026-03-28T08:03:53Z</time></trkpt><trkpt lat="47.51059732393835" lon="6.842731887073675"><ele>321.0</ele><time>2026-03-28T08:03:54Z</time></trkpt><trkpt lat="47.51044070190666" lon="6.8423993680020985"><ele>319.5</ele><time>2026-03-28T08:03:55Z</time></trkpt><trkpt lat="47.510286927852974" lon="6.8420683820974695"><ele>318.0</ele><time>2026-03-28T08:03:56Z</time></trkpt><trkpt lat="47.510138431927686" lon="6.841732273688837"><ele>318.0</ele><time>2026-03-28T08:03:57Z</time></trkpt><trkpt lat="47.50998987253769" lon="6.841392524298811"><ele>318.0</ele><time>2026-03-28T08:03:58Z</time></trkpt><trkpt lat="47.50984978503451" lon="6.841048385757289"><ele>318.0</ele><time>2026-03-28T08:03:59Z</time></trkpt><trkpt lat="47.5097069635518" lon="6.8407071249446085"><ele>318.0</ele><time>2026-03-28T08:04:00Z</time></trkpt><trkpt lat="47.50957148356645" lon="6.840359794451179"><ele>319.0</ele><time>2026-03-28T08:04:01Z</time></trkpt><trkpt lat="47.509439324933695" lon="6.84001203124594"><ele>320.0</ele><time>2026-03-28T08:04:02Z</time></trkpt><trkpt lat="47.50930991097401" lon="6.839663991262944"><ele>320.0</ele><time>2026-03-28T08:04:03Z</time></trkpt><trkpt lat="47.509183268016265" lon="6.83931566932103"><ele>320.0</ele><time>2026-03-28T08:04:04Z</time></trkpt><trkpt lat="47.50905707506566" lon="6.838966307467189"><ele>320.0</ele><time>2026-03-28T08:04:05Z</time></trkpt><trkpt lat="47.50892818261081" lon="6.8386168596533"><ele>320.0</ele><time>2026-03-28T08:04:06Z</time></trkpt><trkpt lat="47.508800376198515" lon="6.83826972414862"><ele>318.5</ele><time>2026-03-28T08:04:07Z</time></trkpt><trkpt lat="47.50866757943209" lon="6.837923825430113"><ele>317.0</ele><time>2026-03-28T08:04:08Z</time></trkpt><trkpt lat="47.50854081022817" lon="6.837579807102698"><ele>317.0</ele><time>2026-03-28T08:04:09Z</time></trkpt><trkpt lat="47.508414497927355" lon="6.837231550247366"><ele>317.0</ele><time>2026-03-28T08:04:10Z</time></trkpt><trkpt lat="47.50828476648439" lon="6.836886781026123"><ele>317.0</ele><time>2026-03-28T08:04:11Z</time></trkpt><trkpt lat="47.50815709313571" lon="6.836541461446422"><ele>317.0</ele><time>2026-03-28T08:04:12Z</time></trkpt><trkpt lat="47.50802963215179" lon="6.836194967881912"><ele>318.5</ele><time>2026-03-28T08:04:13Z</time></trkpt><trkpt lat="47.50790314453796" lon="6.835849253509472"><ele>320.0</ele><time>2026-03-28T08:04:14Z</time></trkpt><trkpt lat="47.507777427622024" lon="6.835499113387111"><ele>320.0</ele><time>2026-03-28T08:04:15Z</time></trkpt><trkpt lat="47.507653113073516" lon="6.835151676447472"><ele>320.0</ele><time>2026-03-28T08:04:16Z</time></trkpt><trkpt lat="47.50752778281186" lon="6.834803730963461"><ele>320.0</ele><time>2026-03-28T08:04:17Z</time></trkpt><trkpt lat="47.50740309861718" lon="6.834456843930835"><ele>320.0</ele><time>2026-03-28T08:04:18Z</time></trkpt><trkpt lat="47.50727797268596" lon="6.834109055384446"><ele>319.5</ele><time>2026-03-28T08:04:19Z</time></trkpt><trkpt lat="47.50715271422465" lon="6.833761467941283"><ele>319.0</ele><time>2026-03-28T08:04:20Z</time></trkpt><trkpt lat="47.50702924210555" lon="6.833417008431172"><ele>318.5</ele><time>2026-03-28T08:04:21Z</time></trkpt><trkpt lat="47.50690518072214" lon="6.83307159720301"><ele>318.0</ele><time>2026-03-28T08:04:22Z</time></trkpt><trkpt lat="47.50678332607443" lon="6.832725212650444"><ele>318.0</ele><time>2026-03-28T08:04:23Z</time></trkpt><trkpt lat="47.50665734305083" lon="6.832378509232595"><ele>318.0</ele><time>2026-03-28T08:04:24Z</time></trkpt><trkpt lat="47.50653180946897" lon="6.832025161198126"><ele>318.5</ele><time>2026-03-28T08:04:25Z</time></trkpt><trkpt lat="47.506406522160304" lon="6.83167899775124"><ele>319.0</ele><time>2026-03-28T08:04:26Z</time></trkpt><trkpt lat="47.506281389058074" lon="6.831330933021278"><ele>319.0</ele><time>2026-03-28T08:04:27Z</time></trkpt><trkpt lat="47.506155429020644" lon="6.83098021495164"><ele>319.0</ele><time>2026-03-28T08:04:28Z</time></trkpt><trkpt lat="47.506030702203" lon="6.8306326629276946"><ele>319.0</ele><time>2026-03-28T08:04:29Z</time></trkpt><trkpt lat="47.50590557086742" lon="6.830283951423696"><ele>319.0</ele><time>2026-03-28T08:04:30Z</time></trkpt><trkpt lat="47.50578236033641" lon="6.82993839093797"><ele>319.0</ele><time>2026-03-28T08:04:31Z</time></trkpt><trkpt lat="47.50565931207096" lon="6.829591119103955"><ele>319.0</ele><time>2026-03-28T08:04:32Z</time></trkpt><trkpt lat="47.50553705360246" lon="6.829248597730161"><ele>318.5</ele><time>2026-03-28T08:04:33Z</time></trkpt><trkpt lat="47.50541189271509" lon="6.828905613760786"><ele>318.0</ele><time>2026-03-28T08:04:34Z</time></trkpt><trkpt lat="47.505288396636935" lon="6.828559201281103"><ele>319.5</ele><time>2026-03-28T08:04:35Z</time></trkpt><trkpt lat="47.505165571320724" lon="6.828212926568874"><ele>321.0</ele><time>2026-03-28T08:04:36Z</time></trkpt><trkpt lat="47.50503982778563" lon="6.827865515893146"><ele>321.0</ele><time>2026-03-28T08:04:37Z</time></trkpt><trkpt lat="47.50491392538254" lon="6.827518795380637"><ele>321.0</ele><time>2026-03-28T08:04:38Z</time></trkpt><trkpt lat="47.50478808905629" lon="6.827182028947606"><ele>321.0</ele><time>2026-03-28T08:04:39Z</time></trkpt><trkpt lat="47.50465320941403" lon="6.826837470559808"><ele>321.0</ele><time>2026-03-28T08:04:40Z</time></trkpt><trkpt lat="47.50450839526917" lon="6.8265044318677655"><ele>319.0</ele><time>2026-03-28T08:04:41Z</time></trkpt><trkpt lat="47.504356290528186" lon="6.826172204213972"><ele>317.0</ele><time>2026-03-28T08:04:42Z</time></trkpt><trkpt lat="47.50420100034369" lon="6.825851314890293"><ele>316.5</ele><time>2026-03-28T08:04:43Z</time></trkpt><trkpt lat="47.504039948808035" lon="6.825528826649161"><ele>316.0</ele><time>2026-03-28T08:04:44Z</time></trkpt><trkpt lat="47.50387874240402" lon="6.825205237559484"><ele>317.0</ele><time>2026-03-28T08:04:45Z</time></trkpt><trkpt lat="47.503719848225536" lon="6.824882181345993"><ele>318.0</ele><time>2026-03-28T08:04:46Z</time></trkpt><trkpt lat="47.50355961064336" lon="6.8245610580116445"><ele>316.5</ele><time>2026-03-28T08:04:47Z</time></trkpt><trkpt lat="47.50340248613034" lon="6.8242403403581"><ele>315.0</ele><time>2026-03-28T08:04:48Z</time></trkpt><trkpt lat="47.50323584852468" lon="6.823915490165826"><ele>315.0</ele><time>2026-03-28T08:04:49Z</time></trkpt><trkpt lat="47.50306689174101" lon="6.823593816295886"><ele>315.0</ele><time>2026-03-28T08:04:50Z</time></trkpt><trkpt lat="47.502905758362786" lon="6.823274016624255"><ele>318.0</ele><time>2026-03-28T08:04:51Z</time></trkpt><trkpt lat="47.50274392504837" lon="6.822958512597314"><ele>321.0</ele><time>2026-03-28T08:04:52Z</time></trkpt><trkpt lat="47.502571444722406" lon="6.822648666686183"><ele>321.5</ele><time>2026-03-28T08:04:53Z</time></trkpt><trkpt lat="47.502398695836284" lon="6.822337990259229"><ele>322.0</ele><time>2026-03-28T08:04:54Z</time></trkpt><trkpt lat="47.50222497425155" lon="6.822037062672691"><ele>324.0</ele><time>2026-03-28T08:04:55Z</time></trkpt><trkpt lat="47.502046534962" lon="6.821728948119893"><ele>326.0</ele><time>2026-03-28T08:04:56Z</time></trkpt><trkpt lat="47.50187532302466" lon="6.821445168144695"><ele>326.0</ele><time>2026-03-28T08:04:57Z</time></trkpt><trkpt lat="47.50169283318432" lon="6.821155622357834"><ele>326.0</ele><time>2026-03-28T08:04:58Z</time></trkpt><trkpt lat="47.50150996777115" lon="6.8208766342320155"><ele>326.0</ele><time>2026-03-28T08:04:59Z</time></trkpt><trkpt lat="47.501322450794646" lon="6.820601371697589"><ele>326.0</ele><time>2026-03-28T08:05:00Z</time></trkpt><trkpt lat="47.5011308873209" lon="6.820324154851104"><ele>325.5</ele><time>2026-03-28T08:05:01Z</time></trkpt><trkpt lat="47.50093765230069" lon="6.8200612122313125"><ele>325.0</ele><time>2026-03-28T08:05:02Z</time></trkpt><trkpt lat="47.500740704723476" lon="6.819794755635718"><ele>325.0</ele><time>2026-03-28T08:05:03Z</time></trkpt><trkpt lat="47.500534921709836" lon="6.81954049900624"><ele>325.0</ele><time>2026-03-28T08:05:04Z</time></trkpt><trkpt lat="47.50032924035814" lon="6.819288517768707"><ele>327.5</ele><time>2026-03-28T08:05:05Z</time></trkpt><trkpt lat="47.50011591779399" lon="6.819045632415682"><ele>330.0</ele><time>2026-03-28T08:05:06Z</time></trkpt><trkpt lat="47.49990341164067" lon="6.818805527909242"><ele>330.0</ele><time>2026-03-28T08:05:07Z</time></trkpt><trkpt lat="47.49968939941042" lon="6.818574729988855"><ele>330.0</ele><time>2026-03-28T08:05:08Z</time></trkpt><trkpt lat="47.49946758843852" lon="6.8183476936252205"><ele>334.0</ele><time>2026-03-28T08:05:09Z</time></trkpt><trkpt lat="47.49924258288185" lon="6.818131520463411"><ele>338.0</ele><time>2026-03-28T08:05:10Z</time></trkpt><trkpt lat="47.49901694197574" lon="6.817913091832273"><ele>338.0</ele><time>2026-03-28T08:05:11Z</time></trkpt><trkpt lat="47.49878552974747" lon="6.817708645213001"><ele>338.0</ele><time>2026-03-28T08:05:12Z</time></trkpt><trkpt lat="47.49854873948634" lon="6.81751324274345"><ele>341.5</ele><time>2026-03-28T08:05:13Z</time></trkpt><trkpt lat="47.4983108836919" lon="6.817323767318602"><ele>345.0</ele><time>2026-03-28T08:05:14Z</time></trkpt><trkpt lat="47.49807084937199" lon="6.817134363363027"><ele>347.5</ele><time>2026-03-28T08:05:15Z</time></trkpt><trkpt lat="47.49782934127423" lon="6.816948686616524"><ele>350.0</ele><time>2026-03-28T08:05:16Z</time></trkpt><trkpt lat="47.497582293729295" lon="6.816774254143533"><ele>350.0</ele><time>2026-03-28T08:05:17Z</time></trkpt><trkpt lat="47.497332279437636" lon="6.816610090054356"><ele>350.0</ele><time>2026-03-28T08:05:18Z</time></trkpt><trkpt lat="47.49707952305443" lon="6.816455899113858"><ele>350.0</ele><time>2026-03-28T08:05:19Z</time></trkpt><trkpt lat="47.49682551280368" lon="6.816304781847641"><ele>350.0</ele><time>2026-03-28T08:05:20Z</time></trkpt><trkpt lat="47.496568819027566" lon="6.816163946595948"><ele>350.0</ele><time>2026-03-28T08:05:21Z</time></trkpt><trkpt lat="47.496311094210256" lon="6.816027398494624"><ele>350.0</ele><time>2026-03-28T08:05:22Z</time></trkpt><trkpt lat="47.49604770491737" lon="6.815902386092826"><ele>348.5</ele><time>2026-03-28T08:05:23Z</time></trkpt><trkpt lat="47.495788255490794" lon="6.815783977678222"><ele>347.0</ele><time>2026-03-28T08:05:24Z</time></trkpt><trkpt lat="47.49552354737592" lon="6.815673599682669"><ele>347.5</ele><time>2026-03-28T08:05:25Z</time></trkpt><trkpt lat="47.495257952128476" lon="6.815566741736772"><ele>348.0</ele><time>2026-03-28T08:05:26Z</time></trkpt><trkpt lat="47.49499046793264" lon="6.8154631190989985"><ele>348.0</ele><time>2026-03-28T08:05:27Z</time></trkpt><trkpt lat="47.49471894976195" lon="6.815366440498672"><ele>348.0</ele><time>2026-03-28T08:05:28Z</time></trkpt><trkpt lat="47.49444960517743" lon="6.815279309528171"><ele>348.0</ele><time>2026-03-28T08:05:29Z</time></trkpt><trkpt lat="47.49418086196248" lon="6.815199415847918"><ele>348.0</ele><time>2026-03-28T08:05:30Z</time></trkpt><trkpt lat="47.49391234532842" lon="6.815121827150534"><ele>347.5</ele><time>2026-03-28T08:05:31Z</time></trkpt><trkpt lat="47.493640535979836" lon="6.815041767860779"><ele>347.0</ele><time>2026-03-28T08:05:32Z</time></trkpt><trkpt lat="47.49337043763164" lon="6.814960977589959"><ele>347.0</ele><time>2026-03-28T08:05:33Z</time></trkpt><trkpt lat="47.493104109991364" lon="6.814877129148136"><ele>347.0</ele><time>2026-03-28T08:05:34Z</time></trkpt><trkpt lat="47.49283223046658" lon="6.814794165371182"><ele>346.0</ele><time>2026-03-28T08:05:35Z</time></trkpt><trkpt lat="47.492563084568665" lon="6.814712355998136"><ele>345.0</ele><time>2026-03-28T08:05:36Z</time></trkpt><trkpt lat="47.49229380121286" lon="6.81463729965076"><ele>345.5</ele><time>2026-03-28T08:05:37Z</time></trkpt><trkpt lat="47.49202229382826" lon="6.814552494181452"><ele>346.0</ele><time>2026-03-28T08:05:38Z</time></trkpt><trkpt lat="47.49175617261372" lon="6.814459437647848"><ele>346.0</ele><time>2026-03-28T08:05:39Z</time></trkpt><trkpt lat="47.4914879650362" lon="6.814356380592557"><ele>346.0</ele><time>2026-03-28T08:05:40Z</time></trkpt><trkpt lat="47.491221049352255" lon="6.8142482008393435"><ele>345.0</ele><time>2026-03-28T08:05:41Z</time></trkpt><trkpt lat="47.49095621089816" lon="6.814135696022241"><ele>344.0</ele><time>2026-03-28T08:05:42Z</time></trkpt><trkpt lat="47.49069498824451" lon="6.814012482286335"><ele>344.0</ele><time>2026-03-28T08:05:43Z</time></trkpt><trkpt lat="47.49043627525653" lon="6.813878298978964"><ele>344.0</ele><time>2026-03-28T08:05:44Z</time></trkpt><trkpt lat="47.49018082706668" lon="6.813738217589478"><ele>341.5</ele><time>2026-03-28T08:05:45Z</time></trkpt><trkpt lat="47.48992679141295" lon="6.813586894008716"><ele>339.0</ele><time>2026-03-28T08:05:46Z</time></trkpt><trkpt lat="47.489672069727135" lon="6.813425766187764"><ele>331.5</ele><time>2026-03-28T08:05:47Z</time></trkpt><trkpt lat="47.489418875405796" lon="6.813261317494267"><ele>324.0</ele><time>2026-03-28T08:05:48Z</time></trkpt><trkpt lat="47.489170225532206" lon="6.81309317335619"><ele>324.0</ele><time>2026-03-28T08:05:49Z</time></trkpt><trkpt lat="47.48892546096101" lon="6.812910034627307"><ele>324.0</ele><time>2026-03-28T08:05:50Z</time></trkpt><trkpt lat="47.488687969113336" lon="6.812716402232193"><ele>322.0</ele><time>2026-03-28T08:05:51Z</time></trkpt><trkpt lat="47.48845525039041" lon="6.812509989961403"><ele>320.0</ele><time>2026-03-28T08:05:52Z</time></trkpt><trkpt lat="47.488229241525126" lon="6.812291613144576"><ele>320.0</ele><time>2026-03-28T08:05:53Z</time></trkpt><trkpt lat="47.48800380457584" lon="6.812071153703788"><ele>320.0</ele><time>2026-03-28T08:05:54Z</time></trkpt><trkpt lat="47.48778688739046" lon="6.81183388817048"><ele>319.5</ele><time>2026-03-28T08:05:55Z</time></trkpt><trkpt lat="47.48757331205043" lon="6.811586008002032"><ele>319.0</ele><time>2026-03-28T08:05:56Z</time></trkpt><trkpt lat="47.48736225715546" lon="6.811332028555445"><ele>319.0</ele><time>2026-03-28T08:05:57Z</time></trkpt><trkpt lat="47.48715820320026" lon="6.811067836169505"><ele>319.0</ele><time>2026-03-28T08:05:58Z</time></trkpt><trkpt lat="47.48696337627117" lon="6.810797011174087"><ele>319.0</ele><time>2026-03-28T08:05:59Z</time></trkpt><trkpt lat="47.4867745131825" lon="6.8105220594431675"><ele>319.0</ele><time>2026-03-28T08:06:00Z</time></trkpt><trkpt lat="47.48659312195625" lon="6.810234341911508"><ele>318.0</ele><time>2026-03-28T08:06:01Z</time></trkpt><trkpt lat="47.486415951322755" lon="6.809940573928927"><ele>317.0</ele><time>2026-03-28T08:06:02Z</time></trkpt><trkpt lat="47.486245978422716" lon="6.809638694556533"><ele>317.0</ele><time>2026-03-28T08:06:03Z</time></trkpt><trkpt lat="47.486081369654585" lon="6.809330117927298"><ele>317.0</ele><time>2026-03-28T08:06:04Z</time></trkpt><trkpt lat="47.48592455036976" lon="6.809013937488764"><ele>316.5</ele><time>2026-03-28T08:06:05Z</time></trkpt><trkpt lat="47.485772594784365" lon="6.808691296232547"><ele>316.0</ele><time>2026-03-28T08:06:06Z</time></trkpt><trkpt lat="47.48562989916999" lon="6.8083655988375575"><ele>315.5</ele><time>2026-03-28T08:06:07Z</time></trkpt><trkpt lat="47.48549322096457" lon="6.8080376765190325"><ele>315.0</ele><time>2026-03-28T08:06:08Z</time></trkpt><trkpt lat="47.48535925708242" lon="6.807698962769343"><ele>314.5</ele><time>2026-03-28T08:06:09Z</time></trkpt><trkpt lat="47.48522942326045" lon="6.807352796963645"><ele>314.0</ele><time>2026-03-28T08:06:10Z</time></trkpt><trkpt lat="47.4851030126668" lon="6.807005082434141"><ele>314.0</ele><time>2026-03-28T08:06:11Z</time></trkpt><trkpt lat="47.48498114665485" lon="6.806656748404822"><ele>314.0</ele><time>2026-03-28T08:06:12Z</time></trkpt><trkpt lat="47.484859872615615" lon="6.806310188973132"><ele>313.5</ele><time>2026-03-28T08:06:13Z</time></trkpt><trkpt lat="47.48473927109879" lon="6.8059608612333315"><ele>313.0</ele><time>2026-03-28T08:06:14Z</time></trkpt><trkpt lat="47.48462113509795" lon="6.805611126574206"><ele>314.5</ele><time>2026-03-28T08:06:15Z</time></trkpt><trkpt lat="47.48450085643536" lon="6.8052625306464805"><ele>316.0</ele><time>2026-03-28T08:06:16Z</time></trkpt><trkpt lat="47.48438277550404" lon="6.804914282922264"><ele>317.5</ele><time>2026-03-28T08:06:17Z</time></trkpt><trkpt lat="47.48426430205186" lon="6.804564112272212"><ele>319.0</ele><time>2026-03-28T08:06:18Z</time></trkpt><trkpt lat="47.48414427543912" lon="6.804214226115066"><ele>319.0</ele><time>2026-03-28T08:06:19Z</time></trkpt><trkpt lat="47.48402494597053" lon="6.803867558344249"><ele>319.0</ele><time>2026-03-28T08:06:20Z</time></trkpt><trkpt lat="47.48390577438157" lon="6.803515872416739"><ele>320.0</ele><time>2026-03-28T08:06:21Z</time></trkpt><trkpt lat="47.483783168148676" lon="6.803167415744629"><ele>321.0</ele><time>2026-03-28T08:06:22Z</time></trkpt><trkpt lat="47.48365627287621" lon="6.802816857674483"><ele>330.0</ele><time>2026-03-28T08:06:23Z</time></trkpt><trkpt lat="47.48352900506102" lon="6.8024717860994794"><ele>339.0</ele><time>2026-03-28T08:06:24Z</time></trkpt><trkpt lat="47.48339596066426" lon="6.802126588604564"><ele>338.0</ele><time>2026-03-28T08:06:25Z</time></trkpt><trkpt lat="47.48326013065994" lon="6.8017809097793975"><ele>337.0</ele><time>2026-03-28T08:06:26Z</time></trkpt><trkpt lat="47.48312511502" lon="6.801438657827407"><ele>337.0</ele><time>2026-03-28T08:06:27Z</time></trkpt><trkpt lat="47.482988351199644" lon="6.8010973598128155"><ele>337.0</ele><time>2026-03-28T08:06:28Z</time></trkpt><trkpt lat="47.4828552077314" lon="6.800753338292313"><ele>337.5</ele><time>2026-03-28T08:06:29Z</time></trkpt><trkpt lat="47.48272571888266" lon="6.800405340969687"><ele>338.0</ele><time>2026-03-28T08:06:30Z</time></trkpt><trkpt lat="47.48259838356763" lon="6.8000572045668655"><ele>338.0</ele><time>2026-03-28T08:06:31Z</time></trkpt><trkpt lat="47.48247085562045" lon="6.799707806596509"><ele>338.0</ele><time>2026-03-28T08:06:32Z</time></trkpt><trkpt lat="47.482346966576614" lon="6.799355510935585"><ele>335.0</ele><time>2026-03-28T08:06:33Z</time></trkpt><trkpt lat="47.48222313906345" lon="6.79899879728535"><ele>332.0</ele><time>2026-03-28T08:06:34Z</time></trkpt><trkpt lat="47.48210028328866" lon="6.798642814353634"><ele>337.5</ele><time>2026-03-28T08:06:35Z</time></trkpt><trkpt lat="47.48197333646028" lon="6.798290659016108"><ele>343.0</ele><time>2026-03-28T08:06:36Z</time></trkpt><trkpt lat="47.481845034352574" lon="6.797937690731426"><ele>341.5</ele><time>2026-03-28T08:06:37Z</time></trkpt><trkpt lat="47.48171208664017" lon="6.7975829003144215"><ele>340.0</ele><time>2026-03-28T08:06:38Z</time></trkpt><trkpt lat="47.48158413432947" lon="6.7972299110516445"><ele>340.0</ele><time>2026-03-28T08:06:39Z</time></trkpt><trkpt lat="47.48145921837993" lon="6.796876319422791"><ele>340.0</ele><time>2026-03-28T08:06:40Z</time></trkpt><trkpt lat="47.48133616591716" lon="6.796518729537629"><ele>345.5</ele><time>2026-03-28T08:06:41Z</time></trkpt><trkpt lat="47.48121228681262" lon="6.796160953154944"><ele>351.0</ele><time>2026-03-28T08:06:42Z</time></trkpt><trkpt lat="47.48108911487775" lon="6.795799392374288"><ele>351.0</ele><time>2026-03-28T08:06:43Z</time></trkpt><trkpt lat="47.48096507276817" lon="6.795438992764434"><ele>351.0</ele><time>2026-03-28T08:06:44Z</time></trkpt><trkpt lat="47.48084053598296" lon="6.795080370762188"><ele>351.0</ele><time>2026-03-28T08:06:45Z</time></trkpt><trkpt lat="47.4807131218527" lon="6.7947195201235475"><ele>351.0</ele><time>2026-03-28T08:06:46Z</time></trkpt><trkpt lat="47.48058822868406" lon="6.794360612297617"><ele>351.5</ele><time>2026-03-28T08:06:47Z</time></trkpt><trkpt lat="47.480463988037876" lon="6.793996863136915"><ele>352.0</ele><time>2026-03-28T08:06:48Z</time></trkpt><trkpt lat="47.48034201608137" lon="6.793636275123609"><ele>353.5</ele><time>2026-03-28T08:06:49Z</time></trkpt><trkpt lat="47.480219024821466" lon="6.793276832225379"><ele>355.0</ele><time>2026-03-28T08:06:50Z</time></trkpt><trkpt lat="47.480097876396165" lon="6.792916335799999"><ele>353.0</ele><time>2026-03-28T08:06:51Z</time></trkpt><trkpt lat="47.47997549423709" lon="6.79255437719545"><ele>351.0</ele><time>2026-03-28T08:06:52Z</time></trkpt><trkpt lat="47.47984973706053" lon="6.792193431937099"><ele>351.0</ele><time>2026-03-28T08:06:53Z</time></trkpt><trkpt lat="47.47972819801762" lon="6.79183097033614"><ele>351.0</ele><time>2026-03-28T08:06:54Z</time></trkpt><trkpt lat="47.47960415605814" lon="6.791473669848676"><ele>351.0</ele><time>2026-03-28T08:06:55Z</time></trkpt><trkpt lat="47.47948059916332" lon="6.791114173144987"><ele>351.0</ele><time>2026-03-28T08:06:56Z</time></trkpt><trkpt lat="47.47935782807891" lon="6.790753073027294"><ele>351.0</ele><time>2026-03-28T08:06:57Z</time></trkpt><trkpt lat="47.4792380362052" lon="6.790395933430001"><ele>351.0</ele><time>2026-03-28T08:06:58Z</time></trkpt><trkpt lat="47.47911583062801" lon="6.790039281862959"><ele>349.0</ele><time>2026-03-28T08:06:59Z</time></trkpt><trkpt lat="47.47898970708975" lon="6.789681662969604"><ele>347.0</ele><time>2026-03-28T08:07:00Z</time></trkpt><trkpt lat="47.47886440212499" lon="6.789321516485498"><ele>351.5</ele><time>2026-03-28T08:07:01Z</time></trkpt><trkpt lat="47.47874001213725" lon="6.788960365174155"><ele>356.0</ele><time>2026-03-28T08:07:02Z</time></trkpt><trkpt lat="47.47861918409246" lon="6.788598797885778"><ele>353.5</ele><time>2026-03-28T08:07:03Z</time></trkpt><trkpt lat="47.47849119842199" lon="6.788239327505015"><ele>351.0</ele><time>2026-03-28T08:07:04Z</time></trkpt><trkpt lat="47.47836729085013" lon="6.787877585257867"><ele>351.0</ele><time>2026-03-28T08:07:05Z</time></trkpt><trkpt lat="47.47823919512689" lon="6.787513555303673"><ele>351.0</ele><time>2026-03-28T08:07:06Z</time></trkpt><trkpt lat="47.478115330106114" lon="6.787150883427111"><ele>350.5</ele><time>2026-03-28T08:07:07Z</time></trkpt><trkpt lat="47.477986164829446" lon="6.786793362383692"><ele>350.0</ele><time>2026-03-28T08:07:08Z</time></trkpt><trkpt lat="47.477852918920675" lon="6.786439755336483"><ele>350.5</ele><time>2026-03-28T08:07:09Z</time></trkpt><trkpt lat="47.47771992000557" lon="6.786087712272778"><ele>351.0</ele><time>2026-03-28T08:07:10Z</time></trkpt><trkpt lat="47.47758356763345" lon="6.785736199067895"><ele>351.0</ele><time>2026-03-28T08:07:11Z</time></trkpt><trkpt lat="47.477443336095945" lon="6.785390664053797"><ele>351.0</ele><time>2026-03-28T08:07:12Z</time></trkpt><trkpt lat="47.47730171574251" lon="6.785046055520495"><ele>348.5</ele><time>2026-03-28T08:07:13Z</time></trkpt><trkpt lat="47.477154075505005" lon="6.784704382383917"><ele>346.0</ele><time>2026-03-28T08:07:14Z</time></trkpt><trkpt lat="47.47700572844759" lon="6.784368625552824"><ele>343.5</ele><time>2026-03-28T08:07:15Z</time></trkpt><trkpt lat="47.47685115527708" lon="6.784034264086007"><ele>341.0</ele><time>2026-03-28T08:07:16Z</time></trkpt><trkpt lat="47.476691113413686" lon="6.783706787394601"><ele>342.5</ele><time>2026-03-28T08:07:17Z</time></trkpt><trkpt lat="47.476524142724486" lon="6.783383957358407"><ele>344.0</ele><time>2026-03-28T08:07:18Z</time></trkpt><trkpt lat="47.4763549295207" lon="6.783066659828191"><ele>345.5</ele><time>2026-03-28T08:07:19Z</time></trkpt><trkpt lat="47.47618328821298" lon="6.782757877398906"><ele>347.0</ele><time>2026-03-28T08:07:20Z</time></trkpt><trkpt lat="47.476003281265214" lon="6.782451786317643"><ele>347.0</ele><time>2026-03-28T08:07:21Z</time></trkpt><trkpt lat="47.475822394808134" lon="6.782148725686484"><ele>347.0</ele><time>2026-03-28T08:07:22Z</time></trkpt><trkpt lat="47.4756388609251" lon="6.78185482972184"><ele>348.0</ele><time>2026-03-28T08:07:23Z</time></trkpt><trkpt lat="47.47545296496256" lon="6.781563046391152"><ele>349.0</ele><time>2026-03-28T08:07:24Z</time></trkpt><trkpt lat="47.475264184389836" lon="6.781276156495536"><ele>345.5</ele><time>2026-03-28T08:07:25Z</time></trkpt><trkpt lat="47.47506925689003" lon="6.780991772368591"><ele>342.0</ele><time>2026-03-28T08:07:26Z</time></trkpt><trkpt lat="47.47487212334403" lon="6.780714910396071"><ele>342.0</ele><time>2026-03-28T08:07:27Z</time></trkpt><trkpt lat="47.47467087068882" lon="6.780442718763416"><ele>342.0</ele><time>2026-03-28T08:07:28Z</time></trkpt><trkpt lat="47.474472449496425" lon="6.780177468325018"><ele>341.5</ele><time>2026-03-28T08:07:29Z</time></trkpt><trkpt lat="47.47426649359179" lon="6.779912041148793"><ele>341.0</ele><time>2026-03-28T08:07:30Z</time></trkpt><trkpt lat="47.474061997230216" lon="6.77965085342605"><ele>341.0</ele><time>2026-03-28T08:07:31Z</time></trkpt><trkpt lat="47.473851791198975" lon="6.779389807551686"><ele>341.0</ele><time>2026-03-28T08:07:32Z</time></trkpt><trkpt lat="47.47364389818076" lon="6.779130440794368"><ele>342.5</ele><time>2026-03-28T08:07:33Z</time></trkpt><trkpt lat="47.473434278083666" lon="6.778872359711802"><ele>344.0</ele><time>2026-03-28T08:07:34Z</time></trkpt><trkpt lat="47.47322153966279" lon="6.778617720854327"><ele>345.0</ele><time>2026-03-28T08:07:35Z</time></trkpt><trkpt lat="47.4730112800028" lon="6.778364311477864"><ele>346.0</ele><time>2026-03-28T08:07:36Z</time></trkpt><trkpt lat="47.472800564212655" lon="6.7781152112801655"><ele>346.0</ele><time>2026-03-28T08:07:37Z</time></trkpt><trkpt lat="47.472587803085894" lon="6.777868682084782"><ele>346.0</ele><time>2026-03-28T08:07:38Z</time></trkpt><trkpt lat="47.47237236900977" lon="6.77762397283112"><ele>343.0</ele><time>2026-03-28T08:07:39Z</time></trkpt><trkpt lat="47.472159734058614" lon="6.777376284714767"><ele>340.0</ele><time>2026-03-28T08:07:40Z</time></trkpt><trkpt lat="47.47194879616396" lon="6.777130725476942"><ele>340.0</ele><time>2026-03-28T08:07:41Z</time></trkpt><trkpt lat="47.471732512139994" lon="6.776886095067104"><ele>340.0</ele><time>2026-03-28T08:07:42Z</time></trkpt><trkpt lat="47.47151706797968" lon="6.7766398290771015"><ele>338.5</ele><time>2026-03-28T08:07:43Z</time></trkpt><trkpt lat="47.47130316691421" lon="6.7763920474610675"><ele>337.0</ele><time>2026-03-28T08:07:44Z</time></trkpt><trkpt lat="47.47109330761116" lon="6.776140232960853"><ele>335.0</ele><time>2026-03-28T08:07:45Z</time></trkpt><trkpt lat="47.47088620448275" lon="6.77588188723096"><ele>333.0</ele><time>2026-03-28T08:07:46Z</time></trkpt><trkpt lat="47.47068364771651" lon="6.775618442419674"><ele>333.0</ele><time>2026-03-28T08:07:47Z</time></trkpt><trkpt lat="47.47048426978233" lon="6.77535154759521"><ele>333.0</ele><time>2026-03-28T08:07:48Z</time></trkpt><trkpt lat="47.470291938487556" lon="6.775075304316905"><ele>335.5</ele><time>2026-03-28T08:07:49Z</time></trkpt><trkpt lat="47.4701030162275" lon="6.774787804883455"><ele>338.0</ele><time>2026-03-28T08:07:50Z</time></trkpt><trkpt lat="47.46992609752499" lon="6.774494227394776"><ele>338.5</ele><time>2026-03-28T08:07:51Z</time></trkpt><trkpt lat="47.469759212818495" lon="6.774188114322123"><ele>339.0</ele><time>2026-03-28T08:07:52Z</time></trkpt><trkpt lat="47.469599304697404" lon="6.773875101453527"><ele>341.0</ele><time>2026-03-28T08:07:53Z</time></trkpt><trkpt lat="47.46944377845658" lon="6.773551667370049"><ele>343.0</ele><time>2026-03-28T08:07:54Z</time></trkpt><trkpt lat="47.469293838234286" lon="6.7732199491474026"><ele>343.0</ele><time>2026-03-28T08:07:55Z</time></trkpt><trkpt lat="47.46915407563947" lon="6.772881881910104"><ele>343.0</ele><time>2026-03-28T08:07:56Z</time></trkpt><trkpt lat="47.46902351395791" lon="6.772542270705569"><ele>342.5</ele><time>2026-03-28T08:07:57Z</time></trkpt><trkpt lat="47.468896694229606" lon="6.772202103841395"><ele>342.0</ele><time>2026-03-28T08:07:58Z</time></trkpt><trkpt lat="47.468774753629404" lon="6.771843531242481"><ele>344.5</ele><time>2026-03-28T08:07:59Z</time></trkpt><trkpt lat="47.46865105591511" lon="6.77150695438056"><ele>347.0</ele><time>2026-03-28T08:08:00Z</time></trkpt><trkpt lat="47.468528366614905" lon="6.771170185611393"><ele>346.0</ele><time>2026-03-28T08:08:01Z</time></trkpt><trkpt lat="47.46840219090547" lon="6.770835392671077"><ele>345.0</ele><time>2026-03-28T08:08:02Z</time></trkpt><trkpt lat="47.46827369427654" lon="6.770510911061345"><ele>347.0</ele><time>2026-03-28T08:08:03Z</time></trkpt><trkpt lat="47.46813918598971" lon="6.7701885164356455"><ele>349.0</ele><time>2026-03-28T08:08:04Z</time></trkpt><trkpt lat="47.46799485395284" lon="6.769873673931929"><ele>351.0</ele><time>2026-03-28T08:08:05Z</time></trkpt><trkpt lat="47.46784215939881" lon="6.769563445835413"><ele>353.0</ele><time>2026-03-28T08:08:06Z</time></trkpt><trkpt lat="47.467678032370635" lon="6.769259008789183"><ele>353.0</ele><time>2026-03-28T08:08:07Z</time></trkpt><trkpt lat="47.46750639666963" lon="6.768958786242126"><ele>353.0</ele><time>2026-03-28T08:08:08Z</time></trkpt><trkpt lat="47.467322964723515" lon="6.76866729689208"><ele>352.0</ele><time>2026-03-28T08:08:09Z</time></trkpt><trkpt lat="47.46713169334546" lon="6.768388527612642"><ele>351.0</ele><time>2026-03-28T08:08:10Z</time></trkpt><trkpt lat="47.466933274261926" lon="6.7681215445105"><ele>354.5</ele><time>2026-03-28T08:08:11Z</time></trkpt><trkpt lat="47.466725942587985" lon="6.767868416219199"><ele>358.0</ele><time>2026-03-28T08:08:12Z</time></trkpt><trkpt lat="47.46651106666479" lon="6.767623903873773"><ele>358.0</ele><time>2026-03-28T08:08:13Z</time></trkpt><trkpt lat="47.46628899325448" lon="6.767392314114231"><ele>358.0</ele><time>2026-03-28T08:08:14Z</time></trkpt><trkpt lat="47.466058829446034" lon="6.76717564119571"><ele>356.5</ele><time>2026-03-28T08:08:15Z</time></trkpt><trkpt lat="47.46582334915061" lon="6.766969759613422"><ele>355.0</ele><time>2026-03-28T08:08:16Z</time></trkpt><trkpt lat="47.4655833864153" lon="6.766776996155581"><ele>356.0</ele><time>2026-03-28T08:08:17Z</time></trkpt><trkpt lat="47.46533614729944" lon="6.76659605513826"><ele>357.0</ele><time>2026-03-28T08:08:18Z</time></trkpt><trkpt lat="47.46508603214923" lon="6.766426879824367"><ele>357.0</ele><time>2026-03-28T08:08:19Z</time></trkpt><trkpt lat="47.46483403112504" lon="6.76626256763638"><ele>357.0</ele><time>2026-03-28T08:08:20Z</time></trkpt><trkpt lat="47.464582171768086" lon="6.76610236275861"><ele>354.0</ele><time>2026-03-28T08:08:21Z</time></trkpt><trkpt lat="47.46432866737995" lon="6.765941336015785"><ele>351.0</ele><time>2026-03-28T08:08:22Z</time></trkpt><trkpt lat="47.46407746846785" lon="6.7657822132347"><ele>351.0</ele><time>2026-03-28T08:08:23Z</time></trkpt><trkpt lat="47.46382514583351" lon="6.765624591676257"><ele>351.0</ele><time>2026-03-28T08:08:24Z</time></trkpt><trkpt lat="47.46357900389921" lon="6.76546936262726"><ele>350.5</ele><time>2026-03-28T08:08:25Z</time></trkpt><trkpt lat="47.46333505910413" lon="6.7653019319742125"><ele>350.0</ele><time>2026-03-28T08:08:26Z</time></trkpt><trkpt lat="47.463096625656334" lon="6.765118224273285"><ele>350.0</ele><time>2026-03-28T08:08:27Z</time></trkpt><trkpt lat="47.462862678918285" lon="6.764929592975666"><ele>350.0</ele><time>2026-03-28T08:08:28Z</time></trkpt><trkpt lat="47.46263571452121" lon="6.764725013474469"><ele>350.0</ele><time>2026-03-28T08:08:29Z</time></trkpt><trkpt lat="47.46241467338071" lon="6.764508969695312"><ele>350.0</ele><time>2026-03-28T08:08:30Z</time></trkpt><trkpt lat="47.46219763740548" lon="6.764278132869418"><ele>347.5</ele><time>2026-03-28T08:08:31Z</time></trkpt><trkpt lat="47.461989945226286" lon="6.76403303465165"><ele>345.0</ele><time>2026-03-28T08:08:32Z</time></trkpt><trkpt lat="47.46178751651225" lon="6.763765652214679"><ele>340.5</ele><time>2026-03-28T08:08:33Z</time></trkpt><trkpt lat="47.46159853971161" lon="6.763487501648288"><ele>336.0</ele><time>2026-03-28T08:08:34Z</time></trkpt><trkpt lat="47.46141333389954" lon="6.76320110855765"><ele>339.5</ele><time>2026-03-28T08:08:35Z</time></trkpt><trkpt lat="47.46123660856458" lon="6.762907821839908"><ele>343.0</ele><time>2026-03-28T08:08:36Z</time></trkpt><trkpt lat="47.46106690118618" lon="6.762608471745606"><ele>343.0</ele><time>2026-03-28T08:08:37Z</time></trkpt><trkpt lat="47.460902992808585" lon="6.762301906780736"><ele>343.0</ele><time>2026-03-28T08:08:38Z</time></trkpt><trkpt lat="47.46073994718736" lon="6.761993132186234"><ele>345.0</ele><time>2026-03-28T08:08:39Z</time></trkpt><trkpt lat="47.46057711895532" lon="6.761681331758686"><ele>347.0</ele><time>2026-03-28T08:08:40Z</time></trkpt><trkpt lat="47.46041549419016" lon="6.76136870674221"><ele>347.0</ele><time>2026-03-28T08:08:41Z</time></trkpt><trkpt lat="47.460256303947205" lon="6.761053948427873"><ele>347.0</ele><time>2026-03-28T08:08:42Z</time></trkpt><trkpt lat="47.46009486396175" lon="6.76073888377614"><ele>341.5</ele><time>2026-03-28T08:08:43Z</time></trkpt><trkpt lat="47.45993285117259" lon="6.760423026278338"><ele>336.0</ele><time>2026-03-28T08:08:44Z</time></trkpt><trkpt lat="47.459766085338444" lon="6.76011066748913"><ele>340.5</ele><time>2026-03-28T08:08:45Z</time></trkpt><trkpt lat="47.459598915816635" lon="6.759805974283443"><ele>345.0</ele><time>2026-03-28T08:08:46Z</time></trkpt><trkpt lat="47.45941720930855" lon="6.759509864425135"><ele>340.0</ele><time>2026-03-28T08:08:47Z</time></trkpt><trkpt lat="47.45923525154729" lon="6.759223597341337"><ele>335.0</ele><time>2026-03-28T08:08:48Z</time></trkpt><trkpt lat="47.45904441107351" lon="6.75895119324194"><ele>335.0</ele><time>2026-03-28T08:08:49Z</time></trkpt><trkpt lat="47.45884797548458" lon="6.758691587899257"><ele>335.0</ele><time>2026-03-28T08:08:50Z</time></trkpt><trkpt lat="47.458644415342825" lon="6.758447213624611"><ele>334.5</ele><time>2026-03-28T08:08:51Z</time></trkpt><trkpt lat="47.45843626710536" lon="6.7582173811888495"><ele>334.0</ele><time>2026-03-28T08:08:52Z</time></trkpt><trkpt lat="47.45822453891327" lon="6.758001302391229"><ele>334.0</ele><time>2026-03-28T08:08:53Z</time></trkpt><trkpt lat="47.458009065791934" lon="6.757794274893926"><ele>334.0</ele><time>2026-03-28T08:08:54Z</time></trkpt><trkpt lat="47.45778908722075" lon="6.757597125768227"><ele>335.5</ele><time>2026-03-28T08:08:55Z</time></trkpt><trkpt lat="47.45756641292742" lon="6.7574069014971245"><ele>337.0</ele><time>2026-03-28T08:08:56Z</time></trkpt><trkpt lat="47.45734286033756" lon="6.757218726975054"><ele>337.5</ele><time>2026-03-28T08:08:57Z</time></trkpt><trkpt lat="47.45711587630714" lon="6.757037968051614"><ele>338.0</ele><time>2026-03-28T08:08:58Z</time></trkpt><trkpt lat="47.45688424298885" lon="6.7568668133336605"><ele>338.0</ele><time>2026-03-28T08:08:59Z</time></trkpt><trkpt lat="47.45665077462786" lon="6.756686093689826"><ele>338.0</ele><time>2026-03-28T08:09:00Z</time></trkpt><trkpt lat="47.456418474413645" lon="6.756513234382848"><ele>340.0</ele><time>2026-03-28T08:09:01Z</time></trkpt><trkpt lat="47.45618611794624" lon="6.75634047197241"><ele>342.0</ele><time>2026-03-28T08:09:02Z</time></trkpt><trkpt lat="47.45595461313609" lon="6.756160796209034"><ele>339.5</ele><time>2026-03-28T08:09:03Z</time></trkpt><trkpt lat="47.45572478249214" lon="6.755982257702773"><ele>337.0</ele><time>2026-03-28T08:09:04Z</time></trkpt><trkpt lat="47.45549804972531" lon="6.7557997183038605"><ele>338.5</ele><time>2026-03-28T08:09:05Z</time></trkpt><trkpt lat="47.455276024448935" lon="6.7556071185656865"><ele>340.0</ele><time>2026-03-28T08:09:06Z</time></trkpt><trkpt lat="47.455060530464664" lon="6.755410948363486"><ele>340.0</ele><time>2026-03-28T08:09:07Z</time></trkpt><trkpt lat="47.45485040922229" lon="6.755208356137167"><ele>340.0</ele><time>2026-03-28T08:09:08Z</time></trkpt><trkpt lat="47.45464445939803" lon="6.754997330265612"><ele>340.0</ele><time>2026-03-28T08:09:09Z</time></trkpt><trkpt lat="47.4544472183363" lon="6.754784907916902"><ele>340.0</ele><time>2026-03-28T08:09:10Z</time></trkpt><trkpt lat="47.4542513504092" lon="6.754556333721489"><ele>340.5</ele><time>2026-03-28T08:09:11Z</time></trkpt><trkpt lat="47.45405575565305" lon="6.754320713477547"><ele>341.0</ele><time>2026-03-28T08:09:12Z</time></trkpt><trkpt lat="47.45386362608685" lon="6.754075071994452"><ele>342.5</ele><time>2026-03-28T08:09:13Z</time></trkpt><trkpt lat="47.45368103892858" lon="6.753813566937893"><ele>344.0</ele><time>2026-03-28T08:09:14Z</time></trkpt><trkpt lat="47.45350791485702" lon="6.753537636488375"><ele>346.0</ele><time>2026-03-28T08:09:15Z</time></trkpt><trkpt lat="47.453341854381485" lon="6.753246946544607"><ele>348.0</ele><time>2026-03-28T08:09:16Z</time></trkpt><trkpt lat="47.45318898774666" lon="6.752945428089867"><ele>350.5</ele><time>2026-03-28T08:09:17Z</time></trkpt><trkpt lat="47.45303982452531" lon="6.7526366235891855"><ele>353.0</ele><time>2026-03-28T08:09:18Z</time></trkpt><trkpt lat="47.45289372721482" lon="6.752320709640271"><ele>354.5</ele><time>2026-03-28T08:09:19Z</time></trkpt><trkpt lat="47.4527546163432" lon="6.751994879116312"><ele>356.0</ele><time>2026-03-28T08:09:20Z</time></trkpt><trkpt lat="47.452619279759716" lon="6.751666377193107"><ele>357.0</ele><time>2026-03-28T08:09:21Z</time></trkpt><trkpt lat="47.45248417141129" lon="6.7513373644469965"><ele>358.0</ele><time>2026-03-28T08:09:22Z</time></trkpt><trkpt lat="47.45234723950462" lon="6.751007547652939"><ele>359.0</ele><time>2026-03-28T08:09:23Z</time></trkpt><trkpt lat="47.45221299653573" lon="6.750681907326632"><ele>360.0</ele><time>2026-03-28T08:09:24Z</time></trkpt><trkpt lat="47.45207315560137" lon="6.750353524282977"><ele>366.5</ele><time>2026-03-28T08:09:25Z</time></trkpt><trkpt lat="47.451932818069864" lon="6.750028051802859"><ele>373.0</ele><time>2026-03-28T08:09:26Z</time></trkpt><trkpt lat="47.45178990927801" lon="6.749703460710963"><ele>373.0</ele><time>2026-03-28T08:09:27Z</time></trkpt><trkpt lat="47.45164097102297" lon="6.749382659814113"><ele>373.0</ele><time>2026-03-28T08:09:28Z</time></trkpt><trkpt lat="47.451485324784166" lon="6.749067141436701"><ele>372.0</ele><time>2026-03-28T08:09:29Z</time></trkpt><trkpt lat="47.45132118873798" lon="6.748762317211223"><ele>371.0</ele><time>2026-03-28T08:09:30Z</time></trkpt><trkpt lat="47.45114799627711" lon="6.748467304502557"><ele>377.0</ele><time>2026-03-28T08:09:31Z</time></trkpt><trkpt lat="47.45096847441402" lon="6.748181533762696"><ele>383.0</ele><time>2026-03-28T08:09:32Z</time></trkpt><trkpt lat="47.450780170941776" lon="6.747903526580892"><ele>382.0</ele><time>2026-03-28T08:09:33Z</time></trkpt><trkpt lat="47.45059080627096" lon="6.747633694663399"><ele>381.0</ele><time>2026-03-28T08:09:34Z</time></trkpt><trkpt lat="47.45039329177336" lon="6.747375724871294"><ele>383.0</ele><time>2026-03-28T08:09:35Z</time></trkpt><trkpt lat="47.45019327997157" lon="6.747121122197062"><ele>385.0</ele><time>2026-03-28T08:09:36Z</time></trkpt><trkpt lat="47.449986528315385" lon="6.746873073722043"><ele>385.0</ele><time>2026-03-28T08:09:37Z</time></trkpt><trkpt lat="47.44977389984666" lon="6.7466345885252865"><ele>385.0</ele><time>2026-03-28T08:09:38Z</time></trkpt><trkpt lat="47.44955534343766" lon="6.7464037246163535"><ele>387.5</ele><time>2026-03-28T08:09:39Z</time></trkpt><trkpt lat="47.449333227618354" lon="6.746180044773519"><ele>390.0</ele><time>2026-03-28T08:09:40Z</time></trkpt><trkpt lat="47.44910833177098" lon="6.745963146303324"><ele>390.0</ele><time>2026-03-28T08:09:41Z</time></trkpt><trkpt lat="47.448884525980766" lon="6.745742735652698"><ele>390.0</ele><time>2026-03-28T08:09:42Z</time></trkpt><trkpt lat="47.44866081614421" lon="6.745523271864893"><ele>391.0</ele><time>2026-03-28T08:09:43Z</time></trkpt><trkpt lat="47.44843853093861" lon="6.745305848252551"><ele>392.0</ele><time>2026-03-28T08:09:44Z</time></trkpt><trkpt lat="47.44821700365789" lon="6.745081955984452"><ele>392.0</ele><time>2026-03-28T08:09:45Z</time></trkpt><trkpt lat="47.4480007333943" lon="6.744848850902754"><ele>392.0</ele><time>2026-03-28T08:09:46Z</time></trkpt><trkpt lat="47.44778901739721" lon="6.744607562719902"><ele>394.0</ele><time>2026-03-28T08:09:47Z</time></trkpt><trkpt lat="47.447581089291944" lon="6.744352649319178"><ele>396.0</ele><time>2026-03-28T08:09:48Z</time></trkpt><trkpt lat="47.447377504676666" lon="6.744092468551823"><ele>396.0</ele><time>2026-03-28T08:09:49Z</time></trkpt><trkpt lat="47.44718448123397" lon="6.743825994240028"><ele>396.0</ele><time>2026-03-28T08:09:50Z</time></trkpt><trkpt lat="47.446997161111156" lon="6.743555432714541"><ele>402.0</ele><time>2026-03-28T08:09:51Z</time></trkpt><trkpt lat="47.446819875324685" lon="6.743281430445174"><ele>408.0</ele><time>2026-03-28T08:09:52Z</time></trkpt><trkpt lat="47.44664762312006" lon="6.742994194108786"><ele>405.5</ele><time>2026-03-28T08:09:53Z</time></trkpt><trkpt lat="47.44648190471585" lon="6.742704723890002"><ele>403.0</ele><time>2026-03-28T08:09:54Z</time></trkpt><trkpt lat="47.446323882538856" lon="6.742411780021468"><ele>408.5</ele><time>2026-03-28T08:09:55Z</time></trkpt><trkpt lat="47.446173518711554" lon="6.742108981838862"><ele>414.0</ele><time>2026-03-28T08:09:56Z</time></trkpt><trkpt lat="47.446028054906" lon="6.7418021345448595"><ele>414.0</ele><time>2026-03-28T08:09:57Z</time></trkpt><trkpt lat="47.44589203798658" lon="6.741490215753946"><ele>414.0</ele><time>2026-03-28T08:09:58Z</time></trkpt><trkpt lat="47.445765121734944" lon="6.741167640370016"><ele>413.5</ele><time>2026-03-28T08:09:59Z</time></trkpt><trkpt lat="47.445646388845894" lon="6.740841927258101"><ele>413.0</ele><time>2026-03-28T08:10:00Z</time></trkpt><trkpt lat="47.4455315768337" lon="6.740513015493955"><ele>420.0</ele><time>2026-03-28T08:10:01Z</time></trkpt><trkpt lat="47.4454221707736" lon="6.740179725083167"><ele>427.0</ele><time>2026-03-28T08:10:02Z</time></trkpt><trkpt lat="47.445316402083655" lon="6.739845272662469"><ele>427.0</ele><time>2026-03-28T08:10:03Z</time></trkpt><trkpt lat="47.44522246407063" lon="6.739524553292297"><ele>427.0</ele><time>2026-03-28T08:10:04Z</time></trkpt><trkpt lat="47.445137530422706" lon="6.73921196218626"><ele>426.0</ele><time>2026-03-28T08:10:05Z</time></trkpt><trkpt lat="47.44505601838662" lon="6.738906652271486"><ele>425.0</ele><time>2026-03-28T08:10:06Z</time></trkpt><trkpt lat="47.44498353445326" lon="6.738607183345969"><ele>424.0</ele><time>2026-03-28T08:10:07Z</time></trkpt><trkpt lat="47.44491571407949" lon="6.738312246039802"><ele>426.33333333333337</ele><time>2026-03-28T08:10:08Z</time></trkpt><trkpt lat="47.44485489358596" lon="6.738021078608708"><ele>428.66666666666663</ele><time>2026-03-28T08:10:09Z</time></trkpt><trkpt lat="47.444799415105685" lon="6.7377342377426315"><ele>431.0</ele><time>2026-03-28T08:10:10Z</time></trkpt><trkpt lat="47.44474826584064" lon="6.737449835570445"><ele>433.0</ele><time>2026-03-28T08:10:11Z</time></trkpt><trkpt lat="47.444700386995976" lon="6.737168704835937"><ele>435.0</ele><time>2026-03-28T08:10:12Z</time></trkpt><trkpt lat="47.44465526477604" lon="6.736891457788583"><ele>437.0</ele><time>2026-03-28T08:10:13Z</time></trkpt><trkpt lat="47.44461230108287" lon="6.736618420299222"><ele>437.0</ele><time>2026-03-28T08:10:14Z</time></trkpt><trkpt lat="47.44457370440896" lon="6.7363504042243365"><ele>437.0</ele><time>2026-03-28T08:10:15Z</time></trkpt><trkpt lat="47.4445393895042" lon="6.736086385681924"><ele>437.0</ele><time>2026-03-28T08:10:16Z</time></trkpt><trkpt lat="47.44450694081335" lon="6.735825333123647"><ele>437.0</ele><time>2026-03-28T08:10:17Z</time></trkpt><trkpt lat="47.44447371607932" lon="6.735572254315436"><ele>437.0</ele><time>2026-03-28T08:10:18Z</time></trkpt><trkpt lat="47.4444368364547" lon="6.735316730922346"><ele>437.0</ele><time>2026-03-28T08:10:19Z</time></trkpt><trkpt lat="47.44438111102619" lon="6.735071716660818"><ele>437.0</ele><time>2026-03-28T08:10:20Z</time></trkpt><trkpt lat="47.44433767440997" lon="6.734824895977159"><ele>437.0</ele><time>2026-03-28T08:10:21Z</time></trkpt><trkpt lat="47.44433374885821" lon="6.734566200583053"><ele>437.0</ele><time>2026-03-28T08:10:22Z</time></trkpt><trkpt lat="47.44429922667289" lon="6.734321961343394"><ele>438.3333333333333</ele><time>2026-03-28T08:10:23Z</time></trkpt><trkpt lat="47.444266471006834" lon="6.734079473768314"><ele>439.66666666666663</ele><time>2026-03-28T08:10:24Z</time></trkpt><trkpt lat="47.44423100336741" lon="6.7338451059810325"><ele>441.0</ele><time>2026-03-28T08:10:25Z</time></trkpt><trkpt lat="47.444200152828884" lon="6.733621376874483"><ele>442.5</ele><time>2026-03-28T08:10:26Z</time></trkpt><trkpt lat="47.44417144560397" lon="6.733406553219107"><ele>444.0</ele><time>2026-03-28T08:10:27Z</time></trkpt><trkpt lat="47.44414834601327" lon="6.733196081410568"><ele>445.5</ele><time>2026-03-28T08:10:28Z</time></trkpt><trkpt lat="47.44412712461582" lon="6.732990908760297"><ele>447.0</ele><time>2026-03-28T08:10:29Z</time></trkpt><trkpt lat="47.44411207709734" lon="6.732795346254655"><ele>447.20000000000005</ele><time>2026-03-28T08:10:30Z</time></trkpt><trkpt lat="47.44408945852369" lon="6.732614927698009"><ele>447.40000000000003</ele><time>2026-03-28T08:10:31Z</time></trkpt><trkpt lat="47.44407538955416" lon="6.732445824146093"><ele>447.59999999999997</ele><time>2026-03-28T08:10:32Z</time></trkpt><trkpt lat="47.444064281600106" lon="6.732287928644406"><ele>447.79999999999995</ele><time>2026-03-28T08:10:33Z</time></trkpt><trkpt lat="47.44405989972733" lon="6.732139809764641"><ele>448.0</ele><time>2026-03-28T08:10:34Z</time></trkpt><trkpt lat="47.44406770374294" lon="6.732001263805945"><ele>448.33333333333337</ele><time>2026-03-28T08:10:35Z</time></trkpt><trkpt lat="47.444082111599556" lon="6.731871747023624"><ele>448.6666666666667</ele><time>2026-03-28T08:10:36Z</time></trkpt><trkpt lat="47.44408426073342" lon="6.731743566753097"><ele>449.0</ele><time>2026-03-28T08:10:37Z</time></trkpt><trkpt lat="47.44406423998815" lon="6.731619119228239"><ele>449.33333333333337</ele><time>2026-03-28T08:10:38Z</time></trkpt><trkpt lat="47.444020938069215" lon="6.731513789243141"><ele>449.6666666666667</ele><time>2026-03-28T08:10:39Z</time></trkpt><trkpt lat="47.44395339928772" lon="6.731431521656926"><ele>450.0</ele><time>2026-03-28T08:10:40Z</time></trkpt><trkpt lat="47.443872797145985" lon="6.731379564830914"><ele>450.1666666666667</ele><time>2026-03-28T08:10:41Z</time></trkpt><trkpt lat="47.443794699594115" lon="6.731334269026926"><ele>450.33333333333337</ele><time>2026-03-28T08:10:42Z</time></trkpt><trkpt lat="47.44372639463078" lon="6.7312761613966"><ele>450.5</ele><time>2026-03-28T08:10:43Z</time></trkpt><trkpt lat="47.44366276856513" lon="6.7311984556504765"><ele>450.6666666666667</ele><time>2026-03-28T08:10:44Z</time></trkpt><trkpt lat="47.44360447530322" lon="6.7311005237979975"><ele>450.83333333333337</ele><time>2026-03-28T08:10:45Z</time></trkpt><trkpt lat="47.44355452099042" lon="6.730991340913852"><ele>451.0</ele><time>2026-03-28T08:10:46Z</time></trkpt><trkpt lat="47.44350633042166" lon="6.730876319539287"><ele>451.6</ele><time>2026-03-28T08:10:47Z</time></trkpt><trkpt lat="47.44344780106733" lon="6.73076780761086"><ele>452.20000000000005</ele><time>2026-03-28T08:10:48Z</time></trkpt><trkpt lat="47.44339676545738" lon="6.730651581754702"><ele>452.79999999999995</ele><time>2026-03-28T08:10:49Z</time></trkpt><trkpt lat="47.443342261988356" lon="6.730525255220463"><ele>453.4</ele><time>2026-03-28T08:10:50Z</time></trkpt><trkpt lat="47.44328629521276" lon="6.730397233706832"><ele>454.0</ele><time>2026-03-28T08:10:51Z</time></trkpt><trkpt lat="47.44322798243594" lon="6.730258742168506"><ele>454.25</ele><time>2026-03-28T08:10:52Z</time></trkpt><trkpt lat="47.44316803034713" lon="6.730117880323834"><ele>454.5</ele><time>2026-03-28T08:10:53Z</time></trkpt><trkpt lat="47.443106162825885" lon="6.729972732621166"><ele>454.75</ele><time>2026-03-28T08:10:54Z</time></trkpt><trkpt lat="47.44304231643023" lon="6.729824372168085"><ele>455.0</ele><time>2026-03-28T08:10:55Z</time></trkpt><trkpt lat="47.442971459907675" lon="6.729671597947846"><ele>455.5</ele><time>2026-03-28T08:10:56Z</time></trkpt><trkpt lat="47.44289712641645" lon="6.729523438800723"><ele>456.0</ele><time>2026-03-28T08:10:57Z</time></trkpt><trkpt lat="47.44281694526473" lon="6.729375326387207"><ele>456.5</ele><time>2026-03-28T08:10:58Z</time></trkpt><trkpt lat="47.44272881558248" lon="6.729226029526894"><ele>457.0</ele><time>2026-03-28T08:10:59Z</time></trkpt><trkpt lat="47.44264665894692" lon="6.729080163958528"><ele>457.0</ele><time>2026-03-28T08:11:00Z</time></trkpt><trkpt lat="47.44256219524152" lon="6.728929887251087"><ele>457.0</ele><time>2026-03-28T08:11:01Z</time></trkpt><trkpt lat="47.442478063106805" lon="6.7287833547509255"><ele>457.0</ele><time>2026-03-28T08:11:02Z</time></trkpt><trkpt lat="47.44239345777409" lon="6.728634569856656"><ele>457.0</ele><time>2026-03-28T08:11:03Z</time></trkpt><trkpt lat="47.44230723712073" lon="6.728478285131151"><ele>457.75</ele><time>2026-03-28T08:11:04Z</time></trkpt><trkpt lat="47.442221576399696" lon="6.72834338637453"><ele>458.5</ele><time>2026-03-28T08:11:05Z</time></trkpt><trkpt lat="47.442131667138376" lon="6.728215711726256"><ele>459.25</ele><time>2026-03-28T08:11:06Z</time></trkpt><trkpt lat="47.44204170673287" lon="6.728091772417618"><ele>460.0</ele><time>2026-03-28T08:11:07Z</time></trkpt><trkpt lat="47.44195666826307" lon="6.727970424270913"><ele>460.0</ele><time>2026-03-28T08:11:08Z</time></trkpt><trkpt lat="47.44187791978538" lon="6.727857650385671"><ele>460.0</ele><time>2026-03-28T08:11:09Z</time></trkpt><trkpt lat="47.44180517907554" lon="6.727753136589928"><ele>460.0</ele><time>2026-03-28T08:11:10Z</time></trkpt><trkpt lat="47.441735901028665" lon="6.727648954466009"><ele>460.0</ele><time>2026-03-28T08:11:11Z</time></trkpt><trkpt lat="47.4416768421182" lon="6.7275427579426"><ele>460.0</ele><time>2026-03-28T08:11:12Z</time></trkpt><trkpt lat="47.441632478065294" lon="6.72743463696135"><ele>460.00000000000006</ele><time>2026-03-28T08:11:13Z</time></trkpt><trkpt lat="47.44159734498437" lon="6.727326730282199"><ele>460.0</ele><time>2026-03-28T08:11:14Z</time></trkpt><trkpt lat="47.44157297470776" lon="6.727221821546738"><ele>460.0</ele><time>2026-03-28T08:11:15Z</time></trkpt><trkpt lat="47.44156090982294" lon="6.727118798454663"><ele>460.0</ele><time>2026-03-28T08:11:16Z</time></trkpt><trkpt lat="47.44156176407011" lon="6.727021030578403"><ele>460.00000000000006</ele><time>2026-03-28T08:11:17Z</time></trkpt><trkpt lat="47.44160890646204" lon="6.7268456835399695"><ele>460.0</ele><time>2026-03-28T08:11:19Z</time></trkpt><trkpt lat="47.4416326023524" lon="6.7267554977153425"><ele>460.6666666666667</ele><time>2026-03-28T08:11:20Z</time></trkpt><trkpt lat="47.44159978536392" lon="6.7265801848809685"><ele>461.33333333333337</ele><time>2026-03-28T08:11:22Z</time></trkpt><trkpt lat="47.44154372337247" lon="6.726524505856706"><ele>462.0</ele><time>2026-03-28T08:11:23Z</time></trkpt><trkpt lat="47.441474927611615" lon="6.726511988970176"><ele>462.66666666666663</ele><time>2026-03-28T08:11:24Z</time></trkpt><trkpt lat="47.44141264538109" lon="6.7265500782573096"><ele>463.3333333333333</ele><time>2026-03-28T08:11:25Z</time></trkpt><trkpt lat="47.44136731408559" lon="6.726619631825414"><ele>464.0</ele><time>2026-03-28T08:11:26Z</time></trkpt><trkpt lat="47.44134800115392" lon="6.726724039994862"><ele>463.99999999999994</ele><time>2026-03-28T08:11:27Z</time></trkpt><trkpt lat="47.44135958073368" lon="6.726830024560329"><ele>464.0</ele><time>2026-03-28T08:11:28Z</time></trkpt><trkpt lat="47.44135958073427" lon="6.7269299307493515"><ele>464.0</ele><time>2026-03-28T08:11:29Z</time></trkpt><trkpt lat="47.44128404045536" lon="6.727025345572427"><ele>464.0</ele><time>2026-03-28T08:11:30Z</time></trkpt><trkpt lat="47.44124009945161" lon="6.727118076968682"><ele>463.99999999999994</ele><time>2026-03-28T08:11:31Z</time></trkpt><trkpt lat="47.44118667822444" lon="6.727217377312706"><ele>464.0</ele><time>2026-03-28T08:11:32Z</time></trkpt><trkpt lat="47.441135707941584" lon="6.727317712742239"><ele>463.3333333333333</ele><time>2026-03-28T08:11:33Z</time></trkpt><trkpt lat="47.441085133475056" lon="6.727415681204646"><ele>462.66666666666663</ele><time>2026-03-28T08:11:34Z</time></trkpt><trkpt lat="47.4410343614803" lon="6.72751186353415"><ele>462.0</ele><time>2026-03-28T08:11:35Z</time></trkpt><trkpt lat="47.440984187226675" lon="6.727604183783166"><ele>461.33333333333337</ele><time>2026-03-28T08:11:36Z</time></trkpt><trkpt lat="47.440937481717484" lon="6.727690141365002"><ele>460.6666666666667</ele><time>2026-03-28T08:11:37Z</time></trkpt><trkpt lat="47.44089378373001" lon="6.727767698499522"><ele>460.0</ele><time>2026-03-28T08:11:38Z</time></trkpt><trkpt lat="47.440794191411136" lon="6.727855689571535"><ele>460.00000000000006</ele><time>2026-03-28T08:11:40Z</time></trkpt><trkpt lat="47.4406839503985" lon="6.727912887480535"><ele>460.0</ele><time>2026-03-28T08:11:42Z</time></trkpt><trkpt lat="47.44064095429295" lon="6.727981328561515"><ele>460.0</ele><time>2026-03-28T08:11:43Z</time></trkpt><trkpt lat="47.44062393795378" lon="6.728074913663551"><ele>460.0</ele><time>2026-03-28T08:11:44Z</time></trkpt><trkpt lat="47.44063365805934" lon="6.72816766782899"><ele>460.00000000000006</ele><time>2026-03-28T08:11:45Z</time></trkpt><trkpt lat="47.440672142644324" lon="6.72824439476326"><ele>460.0</ele><time>2026-03-28T08:11:46Z</time></trkpt><trkpt lat="47.44078418197669" lon="6.728324377791045"><ele>460.0</ele><time>2026-03-28T08:11:48Z</time></trkpt><trkpt lat="47.44087506071836" lon="6.728423540040269"><ele>460.0</ele><time>2026-03-28T08:11:50Z</time></trkpt><trkpt lat="47.440892292293555" lon="6.728586309354362"><ele>460.0</ele><time>2026-03-28T08:11:52Z</time></trkpt><trkpt lat="47.44092234615109" lon="6.728745045954987"><ele>460.0</ele><time>2026-03-28T08:11:54Z</time></trkpt><trkpt lat="47.44094410305397" lon="6.728880581159223"><ele>460.0</ele><time>2026-03-28T08:11:56Z</time></trkpt><trkpt lat="47.44096346007957" lon="6.728989031425676"><ele>460.33333333333337</ele><time>2026-03-28T08:11:58Z</time></trkpt><trkpt lat="47.441001043287244" lon="6.729096456878529"><ele>460.6666666666667</ele><time>2026-03-28T08:12:00Z</time></trkpt><trkpt lat="47.44103187402281" lon="6.729190999654823"><ele>461.0</ele><time>2026-03-28T08:12:02Z</time></trkpt><trkpt lat="47.441061166315585" lon="6.729317479490618"><ele>461.33333333333337</ele><time>2026-03-28T08:12:05Z</time></trkpt><trkpt lat="47.44108717888879" lon="6.729405718914061"><ele>461.6666666666667</ele><time>2026-03-28T08:12:08Z</time></trkpt><trkpt lat="47.441164018807434" lon="6.729389979644323"><ele>462.0</ele><time>2026-03-28T08:12:10Z</time></trkpt><trkpt lat="47.441238700888206" lon="6.729347577417988"><ele>462.0</ele><time>2026-03-28T08:12:12Z</time></trkpt><trkpt lat="47.44131195243175" lon="6.729308036748546"><ele>462.0</ele><time>2026-03-28T08:12:14Z</time></trkpt><trkpt lat="47.44137871646703" lon="6.7292890914131025"><ele>462.0</ele><time>2026-03-28T08:12:16Z</time></trkpt><trkpt lat="47.441420351712424" lon="6.7291985557296154"><ele>462.0</ele><time>2026-03-28T08:12:19Z</time></trkpt><trkpt lat="47.441386265739574" lon="6.729284475925927"><ele>462.0</ele><time>2026-03-28T08:13:22Z</time></trkpt><trkpt lat="47.44133627632686" lon="6.729356769586793"><ele>462.0</ele><time>2026-03-28T08:13:29Z</time></trkpt><trkpt lat="47.44129179970071" lon="6.729440761812349"><ele>462.0</ele><time>2026-03-28T08:13:36Z</time></trkpt><trkpt lat="47.4412969078824" lon="6.72953820007078"><ele>462.0</ele><time>2026-03-28T08:13:43Z</time></trkpt></trkseg><trkseg><trkpt lat="47.441497497195556" lon="6.729228706529024"><ele>460.00000000000006</ele><time>2026-03-28T08:36:28.597Z</time></trkpt><trkpt lat="47.44157186222525" lon="6.729227251131897"><ele>460.0</ele><time>2026-03-28T08:37:05Z</time></trkpt><trkpt lat="47.441511019426706" lon="6.7291948741354375"><ele>460.0</ele><time>2026-03-28T08:37:38Z</time></trkpt><trkpt lat="47.4414472302724" lon="6.72917246281395"><ele>460.0</ele><time>2026-03-28T08:39:01Z</time></trkpt><trkpt lat="47.44136734695976" lon="6.729172791608064"><ele>460.00000000000006</ele><time>2026-03-28T08:39:02Z</time></trkpt><trkpt lat="47.44143839986512" lon="6.729183639669995"><ele>460.0</ele><time>2026-03-28T08:39:03Z</time></trkpt><trkpt lat="47.441382314707965" lon="6.729059159020586"><ele>460.00000000000006</ele><time>2026-03-28T08:39:11Z</time></trkpt><trkpt lat="47.441361081695845" lon="6.7289636567599205"><ele>460.0</ele><time>2026-03-28T08:39:13Z</time></trkpt><trkpt lat="47.44133034689278" lon="6.728867679419937"><ele>460.0</ele><time>2026-03-28T08:39:15Z</time></trkpt><trkpt lat="47.44129227545703" lon="6.728765743324231"><ele>460.0</ele><time>2026-03-28T08:39:17Z</time></trkpt><trkpt lat="47.441221935556726" lon="6.728694247498943"><ele>460.00000000000006</ele><time>2026-03-28T08:39:19Z</time></trkpt><trkpt lat="47.441148368742546" lon="6.728633573287191"><ele>460.0</ele><time>2026-03-28T08:39:21Z</time></trkpt><trkpt lat="47.44108253206173" lon="6.728587562675627"><ele>460.00000000000006</ele><time>2026-03-28T08:39:23Z</time></trkpt><trkpt lat="47.44104463204839" lon="6.72851303972257"><ele>460.0</ele><time>2026-03-28T08:39:25Z</time></trkpt><trkpt lat="47.44104672880984" lon="6.7284197959345065"><ele>460.0</ele><time>2026-03-28T08:39:27Z</time></trkpt><trkpt lat="47.44105304553969" lon="6.728320599116483"><ele>460.0</ele><time>2026-03-28T08:39:32Z</time></trkpt><trkpt lat="47.44101303053499" lon="6.728238093695827"><ele>460.00000000000006</ele><time>2026-03-28T08:39:34Z</time></trkpt><trkpt lat="47.440948060392145" lon="6.72815342039268"><ele>460.0</ele><time>2026-03-28T08:39:36Z</time></trkpt><trkpt lat="47.440903974634644" lon="6.728012774387971"><ele>460.00000000000006</ele><time>2026-03-28T08:39:38Z</time></trkpt><trkpt lat="47.44090717503945" lon="6.7278722462136225"><ele>460.0</ele><time>2026-03-28T08:39:40Z</time></trkpt><trkpt lat="47.440972019688516" lon="6.727773432468838"><ele>460.0</ele><time>2026-03-28T08:39:41Z</time></trkpt><trkpt lat="47.441018425150936" lon="6.727693812890964"><ele>460.0</ele><time>2026-03-28T08:39:42Z</time></trkpt><trkpt lat="47.44106451303966" lon="6.727605023317751"><ele>460.00000000000006</ele><time>2026-03-28T08:39:43Z</time></trkpt><trkpt lat="47.44111208695015" lon="6.727504778777073"><ele>460.0</ele><time>2026-03-28T08:39:44Z</time></trkpt><trkpt lat="47.44116608733143" lon="6.727405489929546"><ele>460.00000000000006</ele><time>2026-03-28T08:39:45Z</time></trkpt><trkpt lat="47.441210605091186" lon="6.727313587768783"><ele>460.0</ele><time>2026-03-28T08:39:46Z</time></trkpt><trkpt lat="47.44125556708958" lon="6.727224783631724"><ele>460.0</ele><time>2026-03-28T08:39:47Z</time></trkpt><trkpt lat="47.4412951326748" lon="6.727132270303591"><ele>460.0</ele><time>2026-03-28T08:39:48Z</time></trkpt><trkpt lat="47.44134058240346" lon="6.727060359637534"><ele>460.00000000000006</ele><time>2026-03-28T08:39:49Z</time></trkpt><trkpt lat="47.44143864022481" lon="6.726956569089585"><ele>460.0</ele><time>2026-03-28T08:39:51Z</time></trkpt><trkpt lat="47.441543855216025" lon="6.726912359622116"><ele>460.8</ele><time>2026-03-28T08:39:53Z</time></trkpt><trkpt lat="47.44163101766858" lon="6.726792428650518"><ele>461.6</ele><time>2026-03-28T08:39:55Z</time></trkpt><trkpt lat="47.441632647304075" lon="6.726617432237019"><ele>462.4</ele><time>2026-03-28T08:39:57Z</time></trkpt><trkpt lat="47.44157341889098" lon="6.726564666166595"><ele>463.2</ele><time>2026-03-28T08:39:58Z</time></trkpt><trkpt lat="47.44152350833658" lon="6.726490825157788"><ele>464.0</ele><time>2026-03-28T08:39:59Z</time></trkpt><trkpt lat="47.44142818862185" lon="6.726523230346999"><ele>463.99999999999994</ele><time>2026-03-28T08:40:00Z</time></trkpt><trkpt lat="47.44135774586098" lon="6.726502113954482"><ele>464.0</ele><time>2026-03-28T08:40:01Z</time></trkpt><trkpt lat="47.441280894696135" lon="6.726473344009523"><ele>464.0</ele><time>2026-03-28T08:40:02Z</time></trkpt><trkpt lat="47.44119880620489" lon="6.726442623211939"><ele>464.0</ele><time>2026-03-28T08:40:03Z</time></trkpt><trkpt lat="47.44110293533001" lon="6.726420292105278"><ele>463.99999999999994</ele><time>2026-03-28T08:40:04Z</time></trkpt><trkpt lat="47.440996204168485" lon="6.7264100278361845"><ele>464.0</ele><time>2026-03-28T08:40:05Z</time></trkpt><trkpt lat="47.44088049421203" lon="6.726404415437931"><ele>463.25</ele><time>2026-03-28T08:40:06Z</time></trkpt><trkpt lat="47.44076163506" lon="6.726398308812844"><ele>462.5</ele><time>2026-03-28T08:40:07Z</time></trkpt><trkpt lat="47.44064110379513" lon="6.726387287431728"><ele>461.75</ele><time>2026-03-28T08:40:08Z</time></trkpt><trkpt lat="47.440506551569705" lon="6.726368527111267"><ele>461.0</ele><time>2026-03-28T08:40:09Z</time></trkpt><trkpt lat="47.440362393464504" lon="6.72633470212755"><ele>461.0</ele><time>2026-03-28T08:40:10Z</time></trkpt><trkpt lat="47.44022356728522" lon="6.726272721606287"><ele>461.0</ele><time>2026-03-28T08:40:11Z</time></trkpt><trkpt lat="47.4400885652544" lon="6.726181521427706"><ele>461.0</ele><time>2026-03-28T08:40:12Z</time></trkpt><trkpt lat="47.439952016777625" lon="6.726078676684021"><ele>461.0</ele><time>2026-03-28T08:40:13Z</time></trkpt><trkpt lat="47.43980623761043" lon="6.725958564826721"><ele>461.0</ele><time>2026-03-28T08:40:14Z</time></trkpt><trkpt lat="47.43965342936234" lon="6.7258623781150995"><ele>461.0</ele><time>2026-03-28T08:40:15Z</time></trkpt><trkpt lat="47.43951222397628" lon="6.725706730436308"><ele>461.0</ele><time>2026-03-28T08:40:16Z</time></trkpt><trkpt lat="47.43935682906722" lon="6.725568114146905"><ele>461.0</ele><time>2026-03-28T08:40:17Z</time></trkpt><trkpt lat="47.439196151719855" lon="6.725418084266032"><ele>461.0</ele><time>2026-03-28T08:40:18Z</time></trkpt><trkpt lat="47.43902649377238" lon="6.725263208568476"><ele>461.0</ele><time>2026-03-28T08:40:19Z</time></trkpt><trkpt lat="47.43885208457666" lon="6.725102197129614"><ele>461.3333333333333</ele><time>2026-03-28T08:40:20Z</time></trkpt><trkpt lat="47.43867192282299" lon="6.724935336463458"><ele>461.66666666666663</ele><time>2026-03-28T08:40:21Z</time></trkpt><trkpt lat="47.438485174419256" lon="6.7247607005658505"><ele>462.0</ele><time>2026-03-28T08:40:22Z</time></trkpt><trkpt lat="47.438298022270786" lon="6.724582606023779"><ele>462.0</ele><time>2026-03-28T08:40:23Z</time></trkpt><trkpt lat="47.43811114682929" lon="6.724390218783689"><ele>462.0</ele><time>2026-03-28T08:40:24Z</time></trkpt><trkpt lat="47.43792540227688" lon="6.724206262700541"><ele>461.5</ele><time>2026-03-28T08:40:25Z</time></trkpt><trkpt lat="47.43773887321949" lon="6.724007676597049"><ele>461.0</ele><time>2026-03-28T08:40:26Z</time></trkpt><trkpt lat="47.43755252489343" lon="6.723789591862864"><ele>461.0</ele><time>2026-03-28T08:40:27Z</time></trkpt><trkpt lat="47.437369891246846" lon="6.723572690482961"><ele>461.0</ele><time>2026-03-28T08:40:28Z</time></trkpt><trkpt lat="47.43718987133108" lon="6.7233476535121985"><ele>461.0</ele><time>2026-03-28T08:40:29Z</time></trkpt><trkpt lat="47.43701592577077" lon="6.723110095204403"><ele>461.0</ele><time>2026-03-28T08:40:30Z</time></trkpt><trkpt lat="47.43683942002689" lon="6.722868187444846"><ele>459.5</ele><time>2026-03-28T08:40:31Z</time></trkpt><trkpt lat="47.436681837096565" lon="6.722588190105317"><ele>458.0</ele><time>2026-03-28T08:40:32Z</time></trkpt><trkpt lat="47.43652523284629" lon="6.7223093203495585"><ele>458.0</ele><time>2026-03-28T08:40:33Z</time></trkpt><trkpt lat="47.436369573857164" lon="6.722026836069728"><ele>458.0</ele><time>2026-03-28T08:40:34Z</time></trkpt><trkpt lat="47.43621808744434" lon="6.721752325162264"><ele>456.5</ele><time>2026-03-28T08:40:35Z</time></trkpt><trkpt lat="47.436074495879886" lon="6.72144041607871"><ele>455.0</ele><time>2026-03-28T08:40:36Z</time></trkpt><trkpt lat="47.43593736522562" lon="6.721147757406106"><ele>453.0</ele><time>2026-03-28T08:40:37Z</time></trkpt><trkpt lat="47.43580552310923" lon="6.720844348737479"><ele>451.0</ele><time>2026-03-28T08:40:38Z</time></trkpt><trkpt lat="47.435673310501016" lon="6.720534501360571"><ele>451.0</ele><time>2026-03-28T08:40:39Z</time></trkpt><trkpt lat="47.43555017513591" lon="6.7202131211350284"><ele>451.0</ele><time>2026-03-28T08:40:40Z</time></trkpt><trkpt lat="47.4354339381146" lon="6.71988995731063"><ele>451.0</ele><time>2026-03-28T08:40:41Z</time></trkpt><trkpt lat="47.43533670089399" lon="6.7195797038965726"><ele>451.0</ele><time>2026-03-28T08:40:42Z</time></trkpt><trkpt lat="47.43523718308822" lon="6.719256693826119"><ele>448.5</ele><time>2026-03-28T08:40:43Z</time></trkpt><trkpt lat="47.43514170634026" lon="6.718927742996129"><ele>446.0</ele><time>2026-03-28T08:40:44Z</time></trkpt><trkpt lat="47.4350550010838" lon="6.7185907142171155"><ele>444.0</ele><time>2026-03-28T08:40:45Z</time></trkpt><trkpt lat="47.434964124619185" lon="6.718245010359233"><ele>442.0</ele><time>2026-03-28T08:40:46Z</time></trkpt><trkpt lat="47.434890112399394" lon="6.717896172876895"><ele>441.5</ele><time>2026-03-28T08:40:47Z</time></trkpt><trkpt lat="47.4348305342719" lon="6.717546220733014"><ele>441.0</ele><time>2026-03-28T08:40:48Z</time></trkpt><trkpt lat="47.43477286988498" lon="6.717189496506393"><ele>441.0</ele><time>2026-03-28T08:40:49Z</time></trkpt><trkpt lat="47.43472339011725" lon="6.71683218627149"><ele>441.0</ele><time>2026-03-28T08:40:50Z</time></trkpt><trkpt lat="47.43467611354654" lon="6.716460847195827"><ele>441.0</ele><time>2026-03-28T08:40:51Z</time></trkpt><trkpt lat="47.43464331485755" lon="6.716086593221893"><ele>441.0</ele><time>2026-03-28T08:40:52Z</time></trkpt><trkpt lat="47.43461626069492" lon="6.7157080104212925"><ele>442.5</ele><time>2026-03-28T08:40:53Z</time></trkpt><trkpt lat="47.4345958066755" lon="6.715327272094966"><ele>444.0</ele><time>2026-03-28T08:40:54Z</time></trkpt><trkpt lat="47.434582159818554" lon="6.714943453312995"><ele>445.5</ele><time>2026-03-28T08:40:55Z</time></trkpt><trkpt lat="47.43457647089351" lon="6.714561107620857"><ele>447.0</ele><time>2026-03-28T08:40:56Z</time></trkpt><trkpt lat="47.43458394315089" lon="6.7141868604548485"><ele>447.0</ele><time>2026-03-28T08:40:57Z</time></trkpt><trkpt lat="47.43460471780016" lon="6.71380080868119"><ele>447.0</ele><time>2026-03-28T08:40:58Z</time></trkpt><trkpt lat="47.43462589921892" lon="6.713415974024742"><ele>443.5</ele><time>2026-03-28T08:40:59Z</time></trkpt><trkpt lat="47.43465357354501" lon="6.713024392710394"><ele>440.0</ele><time>2026-03-28T08:41:00Z</time></trkpt><trkpt lat="47.43468367776881" lon="6.712623851848845"><ele>439.0</ele><time>2026-03-28T08:41:01Z</time></trkpt><trkpt lat="47.43471881258628" lon="6.71222624278098"><ele>438.0</ele><time>2026-03-28T08:41:02Z</time></trkpt><trkpt lat="47.434763239081015" lon="6.711820589023503"><ele>438.0</ele><time>2026-03-28T08:41:03Z</time></trkpt><trkpt lat="47.43481237658448" lon="6.711412694907475"><ele>438.0</ele><time>2026-03-28T08:41:04Z</time></trkpt><trkpt lat="47.434856913223435" lon="6.711018666579779"><ele>437.5</ele><time>2026-03-28T08:41:05Z</time></trkpt><trkpt lat="47.43491135348033" lon="6.710630570602235"><ele>437.0</ele><time>2026-03-28T08:41:06Z</time></trkpt><trkpt lat="47.43497274278733" lon="6.710239993527579"><ele>435.5</ele><time>2026-03-28T08:41:07Z</time></trkpt><trkpt lat="47.43502930743897" lon="6.709858422950319"><ele>434.0</ele><time>2026-03-28T08:41:08Z</time></trkpt><trkpt lat="47.435085927925094" lon="6.709476626739287"><ele>431.5</ele><time>2026-03-28T08:41:09Z</time></trkpt><trkpt lat="47.43514136911782" lon="6.709093128105716"><ele>429.0</ele><time>2026-03-28T08:41:10Z</time></trkpt><trkpt lat="47.43518632109384" lon="6.708715280869342"><ele>427.0</ele><time>2026-03-28T08:41:11Z</time></trkpt><trkpt lat="47.435227889136094" lon="6.708355991513124"><ele>425.0</ele><time>2026-03-28T08:41:12Z</time></trkpt><trkpt lat="47.43526574593341" lon="6.7079896712208305"><ele>424.0</ele><time>2026-03-28T08:41:13Z</time></trkpt><trkpt lat="47.43529195106993" lon="6.707619511251333"><ele>423.0</ele><time>2026-03-28T08:41:14Z</time></trkpt><trkpt lat="47.435308757485586" lon="6.707249128334034"><ele>421.5</ele><time>2026-03-28T08:41:15Z</time></trkpt><trkpt lat="47.43531083871441" lon="6.706876066595751"><ele>420.0</ele><time>2026-03-28T08:41:16Z</time></trkpt><trkpt lat="47.43530710476688" lon="6.7065110690076"><ele>420.0</ele><time>2026-03-28T08:41:17Z</time></trkpt><trkpt lat="47.43528727574509" lon="6.706148730139051"><ele>420.0</ele><time>2026-03-28T08:41:18Z</time></trkpt><trkpt lat="47.43525431515679" lon="6.705792693781382"><ele>419.0</ele><time>2026-03-28T08:41:19Z</time></trkpt><trkpt lat="47.435200419795954" lon="6.705437817145429"><ele>418.0</ele><time>2026-03-28T08:41:20Z</time></trkpt><trkpt lat="47.43513352360368" lon="6.705086860154423"><ele>418.0</ele><time>2026-03-28T08:41:21Z</time></trkpt><trkpt lat="47.435056513027405" lon="6.704743080008453"><ele>418.0</ele><time>2026-03-28T08:41:22Z</time></trkpt><trkpt lat="47.434963361261794" lon="6.704411894036471"><ele>421.0</ele><time>2026-03-28T08:41:23Z</time></trkpt><trkpt lat="47.434859931941226" lon="6.70408695768022"><ele>424.0</ele><time>2026-03-28T08:41:24Z</time></trkpt><trkpt lat="47.43473404283324" lon="6.703763999431863"><ele>416.0</ele><time>2026-03-28T08:41:25Z</time></trkpt><trkpt lat="47.434604073152066" lon="6.703454925700276"><ele>408.0</ele><time>2026-03-28T08:41:26Z</time></trkpt><trkpt lat="47.43445536192046" lon="6.703157894628975"><ele>408.0</ele><time>2026-03-28T08:41:27Z</time></trkpt><trkpt lat="47.43429883893336" lon="6.702861816759255"><ele>408.0</ele><time>2026-03-28T08:41:28Z</time></trkpt><trkpt lat="47.43413415274603" lon="6.702570226535805"><ele>412.0</ele><time>2026-03-28T08:41:29Z</time></trkpt><trkpt lat="47.433960687768725" lon="6.702297943969147"><ele>416.0</ele><time>2026-03-28T08:41:30Z</time></trkpt><trkpt lat="47.43377868621185" lon="6.7020395834665765"><ele>410.0</ele><time>2026-03-28T08:41:31Z</time></trkpt><trkpt lat="47.43358628081636" lon="6.701782167454674"><ele>404.0</ele><time>2026-03-28T08:41:32Z</time></trkpt><trkpt lat="47.433395664111764" lon="6.701529345747262"><ele>404.0</ele><time>2026-03-28T08:41:33Z</time></trkpt><trkpt lat="47.43319854456212" lon="6.701274589428447"><ele>404.0</ele><time>2026-03-28T08:41:34Z</time></trkpt><trkpt lat="47.43300410635736" lon="6.70102021865647"><ele>400.0</ele><time>2026-03-28T08:41:35Z</time></trkpt><trkpt lat="47.432809916736645" lon="6.700759080084773"><ele>396.0</ele><time>2026-03-28T08:41:36Z</time></trkpt><trkpt lat="47.432617746277224" lon="6.700492045807857"><ele>401.5</ele><time>2026-03-28T08:41:37Z</time></trkpt><trkpt lat="47.432428037929256" lon="6.700212094751164"><ele>407.0</ele><time>2026-03-28T08:41:38Z</time></trkpt><trkpt lat="47.43224487527018" lon="6.6999295344396765"><ele>403.5</ele><time>2026-03-28T08:41:39Z</time></trkpt><trkpt lat="47.43206453677128" lon="6.69963561326508"><ele>400.0</ele><time>2026-03-28T08:41:40Z</time></trkpt><trkpt lat="47.43189909411779" lon="6.699327304163638"><ele>400.0</ele><time>2026-03-28T08:41:41Z</time></trkpt><trkpt lat="47.43174643390419" lon="6.699005547813132"><ele>400.0</ele><time>2026-03-28T08:41:42Z</time></trkpt><trkpt lat="47.43160737354262" lon="6.698673779881122"><ele>401.0</ele><time>2026-03-28T08:41:43Z</time></trkpt><trkpt lat="47.43148040189975" lon="6.698329215616539"><ele>402.0</ele><time>2026-03-28T08:41:44Z</time></trkpt><trkpt lat="47.43136862182844" lon="6.697975114931321"><ele>396.0</ele><time>2026-03-28T08:41:45Z</time></trkpt><trkpt lat="47.43127005240867" lon="6.697609332408593"><ele>390.0</ele><time>2026-03-28T08:41:46Z</time></trkpt><trkpt lat="47.43117644129528" lon="6.697233726057854"><ele>387.5</ele><time>2026-03-28T08:41:47Z</time></trkpt><trkpt lat="47.43109848640544" lon="6.696859399852284"><ele>385.0</ele><time>2026-03-28T08:41:48Z</time></trkpt><trkpt lat="47.43102672262885" lon="6.696481960945269"><ele>385.0</ele><time>2026-03-28T08:41:49Z</time></trkpt><trkpt lat="47.43095484242692" lon="6.696098832441157"><ele>385.0</ele><time>2026-03-28T08:41:50Z</time></trkpt><trkpt lat="47.430880205674235" lon="6.695718344666384"><ele>385.0</ele><time>2026-03-28T08:41:51Z</time></trkpt><trkpt lat="47.43080141864036" lon="6.695342172641911"><ele>385.0</ele><time>2026-03-28T08:41:52Z</time></trkpt><trkpt lat="47.430719369748" lon="6.694980487542963"><ele>384.0</ele><time>2026-03-28T08:41:53Z</time></trkpt><trkpt lat="47.43063693692623" lon="6.694614936777592"><ele>383.0</ele><time>2026-03-28T08:41:54Z</time></trkpt><trkpt lat="47.43054867122947" lon="6.694255708071324"><ele>380.5</ele><time>2026-03-28T08:41:55Z</time></trkpt><trkpt lat="47.430441558554556" lon="6.693904015184956"><ele>378.0</ele><time>2026-03-28T08:41:56Z</time></trkpt><trkpt lat="47.4303208554108" lon="6.6935604977765255"><ele>378.0</ele><time>2026-03-28T08:41:57Z</time></trkpt><trkpt lat="47.43020021995214" lon="6.69323029908656"><ele>378.0</ele><time>2026-03-28T08:41:58Z</time></trkpt><trkpt lat="47.43005440901911" lon="6.692903511110017"><ele>372.5</ele><time>2026-03-28T08:41:59Z</time></trkpt><trkpt lat="47.429892493100255" lon="6.6926073306182365"><ele>367.0</ele><time>2026-03-28T08:42:00Z</time></trkpt><trkpt lat="47.42971675821932" lon="6.692315795462911"><ele>368.0</ele><time>2026-03-28T08:42:01Z</time></trkpt><trkpt lat="47.42953071850763" lon="6.692035653936572"><ele>369.0</ele><time>2026-03-28T08:42:02Z</time></trkpt><trkpt lat="47.429340503452366" lon="6.69177052736138"><ele>369.0</ele><time>2026-03-28T08:42:03Z</time></trkpt><trkpt lat="47.42913441795241" lon="6.691513176705427"><ele>369.0</ele><time>2026-03-28T08:42:04Z</time></trkpt><trkpt lat="47.42892364380207" lon="6.691278096372641"><ele>367.0</ele><time>2026-03-28T08:42:05Z</time></trkpt><trkpt lat="47.42869971165481" lon="6.691057564460729"><ele>365.0</ele><time>2026-03-28T08:42:06Z</time></trkpt><trkpt lat="47.42846756139927" lon="6.690854089585209"><ele>365.0</ele><time>2026-03-28T08:42:07Z</time></trkpt><trkpt lat="47.42822406208503" lon="6.690665262927309"><ele>365.0</ele><time>2026-03-28T08:42:08Z</time></trkpt><trkpt lat="47.42797387843397" lon="6.690502389579052"><ele>365.5</ele><time>2026-03-28T08:42:09Z</time></trkpt><trkpt lat="47.427720626333134" lon="6.690350104658512"><ele>366.0</ele><time>2026-03-28T08:42:10Z</time></trkpt><trkpt lat="47.427465880415156" lon="6.690204156967086"><ele>366.0</ele><time>2026-03-28T08:42:11Z</time></trkpt><trkpt lat="47.42720723652896" lon="6.690065522369768"><ele>366.0</ele><time>2026-03-28T08:42:12Z</time></trkpt><trkpt lat="47.426950803521635" lon="6.689926899201178"><ele>362.0</ele><time>2026-03-28T08:42:13Z</time></trkpt><trkpt lat="47.42669333437333" lon="6.689791545843496"><ele>358.0</ele><time>2026-03-28T08:42:14Z</time></trkpt><trkpt lat="47.42643818953229" lon="6.689655940302484"><ele>357.5</ele><time>2026-03-28T08:42:15Z</time></trkpt><trkpt lat="47.42618559846096" lon="6.6895151466049"><ele>357.0</ele><time>2026-03-28T08:42:16Z</time></trkpt><trkpt lat="47.425938688396684" lon="6.689359164203178"><ele>357.0</ele><time>2026-03-28T08:42:17Z</time></trkpt><trkpt lat="47.42570218879736" lon="6.689175577716465"><ele>357.0</ele><time>2026-03-28T08:42:18Z</time></trkpt><trkpt lat="47.425470241147096" lon="6.688977437133038"><ele>356.5</ele><time>2026-03-28T08:42:19Z</time></trkpt><trkpt lat="47.42524495269304" lon="6.688763109473741"><ele>356.0</ele><time>2026-03-28T08:42:20Z</time></trkpt><trkpt lat="47.42502930590426" lon="6.688537373648485"><ele>356.0</ele><time>2026-03-28T08:42:21Z</time></trkpt><trkpt lat="47.42482158391017" lon="6.688297494791364"><ele>356.0</ele><time>2026-03-28T08:42:22Z</time></trkpt><trkpt lat="47.424631075428344" lon="6.688039650432973"><ele>352.0</ele><time>2026-03-28T08:42:23Z</time></trkpt><trkpt lat="47.42443799562346" lon="6.6877709422085445"><ele>348.0</ele><time>2026-03-28T08:42:24Z</time></trkpt><trkpt lat="47.424262473229206" lon="6.68748206907886"><ele>348.0</ele><time>2026-03-28T08:42:25Z</time></trkpt><trkpt lat="47.42409718260959" lon="6.687175977115944"><ele>348.0</ele><time>2026-03-28T08:42:26Z</time></trkpt><trkpt lat="47.42394384058598" lon="6.6868665999734676"><ele>346.0</ele><time>2026-03-28T08:42:27Z</time></trkpt><trkpt lat="47.42380176624715" lon="6.686546402882243"><ele>344.0</ele><time>2026-03-28T08:42:28Z</time></trkpt><trkpt lat="47.423673788456014" lon="6.686214248782122"><ele>344.5</ele><time>2026-03-28T08:42:29Z</time></trkpt><trkpt lat="47.423553327771735" lon="6.685866638438295"><ele>345.0</ele><time>2026-03-28T08:42:30Z</time></trkpt><trkpt lat="47.423440673232584" lon="6.685515615032538"><ele>346.0</ele><time>2026-03-28T08:42:31Z</time></trkpt><trkpt lat="47.423338189381155" lon="6.685156056527284"><ele>347.0</ele><time>2026-03-28T08:42:32Z</time></trkpt><trkpt lat="47.423248345324645" lon="6.684789885050964"><ele>347.5</ele><time>2026-03-28T08:42:33Z</time></trkpt><trkpt lat="47.42316659347805" lon="6.684415863264883"><ele>348.0</ele><time>2026-03-28T08:42:34Z</time></trkpt><trkpt lat="47.423096764489316" lon="6.684043254016933"><ele>348.0</ele><time>2026-03-28T08:42:35Z</time></trkpt><trkpt lat="47.423030799602266" lon="6.68366999423749"><ele>348.0</ele><time>2026-03-28T08:42:36Z</time></trkpt><trkpt lat="47.42297592287761" lon="6.683294222396541"><ele>343.5</ele><time>2026-03-28T08:42:37Z</time></trkpt><trkpt lat="47.42292309498735" lon="6.682910483263283"><ele>339.0</ele><time>2026-03-28T08:42:38Z</time></trkpt><trkpt lat="47.42288313195209" lon="6.682531625996815"><ele>339.0</ele><time>2026-03-28T08:42:39Z</time></trkpt><trkpt lat="47.42284907795749" lon="6.682151824138431"><ele>339.0</ele><time>2026-03-28T08:42:40Z</time></trkpt><trkpt lat="47.42282442371176" lon="6.681769891256263"><ele>339.0</ele><time>2026-03-28T08:42:41Z</time></trkpt><trkpt lat="47.422807124683054" lon="6.681385826268391"><ele>339.0</ele><time>2026-03-28T08:42:42Z</time></trkpt><trkpt lat="47.422800186565844" lon="6.681002565749855"><ele>339.0</ele><time>2026-03-28T08:42:43Z</time></trkpt><trkpt lat="47.42279699984272" lon="6.6806181192753815"><ele>339.0</ele><time>2026-03-28T08:42:44Z</time></trkpt><trkpt lat="47.42280294394663" lon="6.680238025364473"><ele>338.5</ele><time>2026-03-28T08:42:45Z</time></trkpt><trkpt lat="47.42281561039339" lon="6.679859748944102"><ele>338.0</ele><time>2026-03-28T08:42:46Z</time></trkpt><trkpt lat="47.42283107226202" lon="6.679481001547743"><ele>337.5</ele><time>2026-03-28T08:42:47Z</time></trkpt><trkpt lat="47.422857331569915" lon="6.679103002659568"><ele>337.0</ele><time>2026-03-28T08:42:48Z</time></trkpt><trkpt lat="47.42289186089363" lon="6.678725124006039"><ele>337.5</ele><time>2026-03-28T08:42:49Z</time></trkpt><trkpt lat="47.42293612781452" lon="6.678349072685164"><ele>338.0</ele><time>2026-03-28T08:42:50Z</time></trkpt><trkpt lat="47.42298445258703" lon="6.67797733211869"><ele>336.5</ele><time>2026-03-28T08:42:51Z</time></trkpt><trkpt lat="47.423040940831235" lon="6.677606580010388"><ele>335.0</ele><time>2026-03-28T08:42:52Z</time></trkpt><trkpt lat="47.42310099762178" lon="6.677245576372495"><ele>334.0</ele><time>2026-03-28T08:42:53Z</time></trkpt><trkpt lat="47.4231640074022" lon="6.676895537832325"><ele>333.0</ele><time>2026-03-28T08:42:54Z</time></trkpt><trkpt lat="47.42322919912653" lon="6.676558323645106"><ele>333.0</ele><time>2026-03-28T08:42:55Z</time></trkpt><trkpt lat="47.42329852289734" lon="6.6762363955085"><ele>333.0</ele><time>2026-03-28T08:42:56Z</time></trkpt><trkpt lat="47.42336934260649" lon="6.675932784806601"><ele>333.0</ele><time>2026-03-28T08:42:57Z</time></trkpt><trkpt lat="47.42344093716094" lon="6.67564718957217"><ele>333.6666666666667</ele><time>2026-03-28T08:42:58Z</time></trkpt><trkpt lat="47.42351747085954" lon="6.675375644080915"><ele>334.33333333333337</ele><time>2026-03-28T08:42:59Z</time></trkpt><trkpt lat="47.42359790641582" lon="6.675116548535522"><ele>335.0</ele><time>2026-03-28T08:43:00Z</time></trkpt><trkpt lat="47.423678609067466" lon="6.674870996031794"><ele>335.33333333333337</ele><time>2026-03-28T08:43:01Z</time></trkpt><trkpt lat="47.423759933667576" lon="6.674632894455091"><ele>335.6666666666667</ele><time>2026-03-28T08:43:02Z</time></trkpt><trkpt lat="47.42384033791155" lon="6.674404840346425"><ele>336.0</ele><time>2026-03-28T08:43:03Z</time></trkpt><trkpt lat="47.423921543336746" lon="6.674190023419227"><ele>335.6666666666667</ele><time>2026-03-28T08:43:04Z</time></trkpt><trkpt lat="47.42400009723484" lon="6.673978334740033"><ele>335.33333333333337</ele><time>2026-03-28T08:43:05Z</time></trkpt><trkpt lat="47.424077556128324" lon="6.673781400525444"><ele>335.0</ele><time>2026-03-28T08:43:06Z</time></trkpt><trkpt lat="47.42415416821183" lon="6.673591839962201"><ele>335.0</ele><time>2026-03-28T08:43:07Z</time></trkpt><trkpt lat="47.42423003389454" lon="6.673407997696347"><ele>335.0</ele><time>2026-03-28T08:43:08Z</time></trkpt><trkpt lat="47.424308378041395" lon="6.673230006257973"><ele>335.0</ele><time>2026-03-28T08:43:09Z</time></trkpt><trkpt lat="47.42439073735963" lon="6.673056481669176"><ele>335.0</ele><time>2026-03-28T08:43:10Z</time></trkpt><trkpt lat="47.42448655973322" lon="6.672886493214606"><ele>333.75</ele><time>2026-03-28T08:43:11Z</time></trkpt><trkpt lat="47.4245816254404" lon="6.67272286911542"><ele>332.5</ele><time>2026-03-28T08:43:12Z</time></trkpt><trkpt lat="47.42468412655856" lon="6.672560325240275"><ele>331.25</ele><time>2026-03-28T08:43:13Z</time></trkpt><trkpt lat="47.42479757990214" lon="6.672425325822775"><ele>330.0</ele><time>2026-03-28T08:43:14Z</time></trkpt><trkpt lat="47.42489367330413" lon="6.672278522090333"><ele>330.0</ele><time>2026-03-28T08:43:15Z</time></trkpt><trkpt lat="47.42498305750095" lon="6.672132828322238"><ele>330.0</ele><time>2026-03-28T08:43:16Z</time></trkpt><trkpt lat="47.42506397694416" lon="6.671997465439642"><ele>330.0</ele><time>2026-03-28T08:43:17Z</time></trkpt><trkpt lat="47.42515049827567" lon="6.671876235930796"><ele>330.0</ele><time>2026-03-28T08:43:18Z</time></trkpt><trkpt lat="47.42521664354252" lon="6.671754723852776"><ele>330.3333333333333</ele><time>2026-03-28T08:43:19Z</time></trkpt><trkpt lat="47.4252670415968" lon="6.671647520047326"><ele>330.6666666666667</ele><time>2026-03-28T08:43:20Z</time></trkpt><trkpt lat="47.42532424630043" lon="6.671559201975321"><ele>331.0</ele><time>2026-03-28T08:43:21Z</time></trkpt><trkpt lat="47.42536434177888" lon="6.671483026014087"><ele>331.33333333333337</ele><time>2026-03-28T08:43:22Z</time></trkpt><trkpt lat="47.425422423842996" lon="6.671378231435128"><ele>331.6666666666667</ele><time>2026-03-28T08:43:24Z</time></trkpt><trkpt lat="47.42547362188481" lon="6.6712898258465865"><ele>332.0</ele><time>2026-03-28T08:43:26Z</time></trkpt><trkpt lat="47.42554704365473" lon="6.671172722984424"><ele>331.40000000000003</ele><time>2026-03-28T08:43:28Z</time></trkpt><trkpt lat="47.42558864368814" lon="6.671095357878615"><ele>330.8</ele><time>2026-03-28T08:43:29Z</time></trkpt><trkpt lat="47.42563894513814" lon="6.670994421913902"><ele>330.2</ele><time>2026-03-28T08:43:30Z</time></trkpt><trkpt lat="47.42568775848671" lon="6.670872448563288"><ele>329.6</ele><time>2026-03-28T08:43:31Z</time></trkpt><trkpt lat="47.42574473090406" lon="6.670748755354273"><ele>329.0</ele><time>2026-03-28T08:43:32Z</time></trkpt><trkpt lat="47.425796515719284" lon="6.67060833272134"><ele>329.0</ele><time>2026-03-28T08:43:33Z</time></trkpt><trkpt lat="47.42584984348385" lon="6.670458572303171"><ele>329.0</ele><time>2026-03-28T08:43:34Z</time></trkpt><trkpt lat="47.425907713032856" lon="6.670287948093838"><ele>329.0</ele><time>2026-03-28T08:43:35Z</time></trkpt><trkpt lat="47.42597827690944" lon="6.670112619331064"><ele>329.0</ele><time>2026-03-28T08:43:36Z</time></trkpt><trkpt lat="47.426044348542234" lon="6.669927972632256"><ele>329.6666666666667</ele><time>2026-03-28T08:43:37Z</time></trkpt><trkpt lat="47.426115779297135" lon="6.669729887006152"><ele>330.3333333333333</ele><time>2026-03-28T08:43:38Z</time></trkpt><trkpt lat="47.42619182686665" lon="6.669520664880376"><ele>331.0</ele><time>2026-03-28T08:43:39Z</time></trkpt><trkpt lat="47.42626540890216" lon="6.66929756477113"><ele>330.66666666666663</ele><time>2026-03-28T08:43:40Z</time></trkpt><trkpt lat="47.42633935816306" lon="6.669066221313179"><ele>330.3333333333333</ele><time>2026-03-28T08:43:41Z</time></trkpt><trkpt lat="47.4264194376625" lon="6.668824360057013"><ele>330.0</ele><time>2026-03-28T08:43:42Z</time></trkpt><trkpt lat="47.42650782794396" lon="6.6685801782797425"><ele>330.0</ele><time>2026-03-28T08:43:43Z</time></trkpt><trkpt lat="47.426607542121985" lon="6.668332246974273"><ele>330.0</ele><time>2026-03-28T08:43:44Z</time></trkpt><trkpt lat="47.426715618187444" lon="6.668083218944356"><ele>330.0</ele><time>2026-03-28T08:43:45Z</time></trkpt><trkpt lat="47.42682494875116" lon="6.667840403203733"><ele>329.6666666666667</ele><time>2026-03-28T08:43:46Z</time></trkpt><trkpt lat="47.42694051158188" lon="6.6675923466834215"><ele>329.33333333333337</ele><time>2026-03-28T08:43:47Z</time></trkpt><trkpt lat="47.42705771153921" lon="6.66733511119148"><ele>329.0</ele><time>2026-03-28T08:43:48Z</time></trkpt><trkpt lat="47.42717727141798" lon="6.667070900602118"><ele>329.0</ele><time>2026-03-28T08:43:49Z</time></trkpt><trkpt lat="47.42730362614831" lon="6.666800835602555"><ele>329.0</ele><time>2026-03-28T08:43:50Z</time></trkpt><trkpt lat="47.427428332779336" lon="6.6665288721663725"><ele>329.0</ele><time>2026-03-28T08:43:51Z</time></trkpt><trkpt lat="47.42755103770569" lon="6.666246611215102"><ele>327.0</ele><time>2026-03-28T08:43:52Z</time></trkpt><trkpt lat="47.427674518037186" lon="6.6659525552303664"><ele>325.0</ele><time>2026-03-28T08:43:53Z</time></trkpt><trkpt lat="47.42780078480815" lon="6.665651952204122"><ele>325.0</ele><time>2026-03-28T08:43:54Z</time></trkpt><trkpt lat="47.42792552834344" lon="6.665342700749849"><ele>325.0</ele><time>2026-03-28T08:43:55Z</time></trkpt><trkpt lat="47.4280454036056" lon="6.665019348162024"><ele>325.5</ele><time>2026-03-28T08:43:56Z</time></trkpt><trkpt lat="47.4281623927253" lon="6.664691385583503"><ele>326.0</ele><time>2026-03-28T08:43:57Z</time></trkpt><trkpt lat="47.42827460664837" lon="6.664354355093794"><ele>327.0</ele><time>2026-03-28T08:43:58Z</time></trkpt><trkpt lat="47.42838078367528" lon="6.664010482754903"><ele>328.0</ele><time>2026-03-28T08:43:59Z</time></trkpt><trkpt lat="47.428475763697755" lon="6.663659283384581"><ele>329.5</ele><time>2026-03-28T08:44:00Z</time></trkpt><trkpt lat="47.42856299701027" lon="6.663300148486619"><ele>331.0</ele><time>2026-03-28T08:44:01Z</time></trkpt><trkpt lat="47.428643413600184" lon="6.662936606330256"><ele>335.0</ele><time>2026-03-28T08:44:02Z</time></trkpt><trkpt lat="47.42871423670905" lon="6.662568136124343"><ele>339.0</ele><time>2026-03-28T08:44:03Z</time></trkpt><trkpt lat="47.42877151099927" lon="6.662195853872284"><ele>335.0</ele><time>2026-03-28T08:44:04Z</time></trkpt><trkpt lat="47.42882077853501" lon="6.661815110800575"><ele>331.0</ele><time>2026-03-28T08:44:05Z</time></trkpt><trkpt lat="47.428858106004384" lon="6.661430167579264"><ele>332.5</ele><time>2026-03-28T08:44:06Z</time></trkpt><trkpt lat="47.42888454044744" lon="6.661044272841313"><ele>334.0</ele><time>2026-03-28T08:44:07Z</time></trkpt><trkpt lat="47.42889876850543" lon="6.660656555510061"><ele>333.0</ele><time>2026-03-28T08:44:08Z</time></trkpt><trkpt lat="47.42890438323469" lon="6.6602646170788"><ele>332.0</ele><time>2026-03-28T08:44:09Z</time></trkpt><trkpt lat="47.428899328857874" lon="6.659871085934277"><ele>332.0</ele><time>2026-03-28T08:44:10Z</time></trkpt><trkpt lat="47.42888446056041" lon="6.659482463889724"><ele>332.0</ele><time>2026-03-28T08:44:11Z</time></trkpt><trkpt lat="47.42886240635155" lon="6.659091028256266"><ele>332.0</ele><time>2026-03-28T08:44:12Z</time></trkpt><trkpt lat="47.42883386677102" lon="6.658703508408519"><ele>332.0</ele><time>2026-03-28T08:44:13Z</time></trkpt><trkpt lat="47.42879742939864" lon="6.658313260740543"><ele>333.5</ele><time>2026-03-28T08:44:14Z</time></trkpt><trkpt lat="47.42875675000001" lon="6.657916763234499"><ele>335.0</ele><time>2026-03-28T08:44:15Z</time></trkpt><trkpt lat="47.42871025084262" lon="6.657517909084892"><ele>335.0</ele><time>2026-03-28T08:44:16Z</time></trkpt><trkpt lat="47.428661045827354" lon="6.657120194188544"><ele>335.0</ele><time>2026-03-28T08:44:17Z</time></trkpt><trkpt lat="47.42860520937767" lon="6.656724930820057"><ele>336.0</ele><time>2026-03-28T08:44:18Z</time></trkpt><trkpt lat="47.42854558212277" lon="6.656332738307643"><ele>337.0</ele><time>2026-03-28T08:44:19Z</time></trkpt><trkpt lat="47.42847662505111" lon="6.6559440934135985"><ele>339.0</ele><time>2026-03-28T08:44:20Z</time></trkpt><trkpt lat="47.42842104221562" lon="6.655569928786693"><ele>341.0</ele><time>2026-03-28T08:44:21Z</time></trkpt><trkpt lat="47.428352892171304" lon="6.6551960982016745"><ele>346.5</ele><time>2026-03-28T08:44:22Z</time></trkpt><trkpt lat="47.42828192757109" lon="6.6548243199952815"><ele>352.0</ele><time>2026-03-28T08:44:23Z</time></trkpt><trkpt lat="47.428209132735454" lon="6.654455556961874"><ele>356.0</ele><time>2026-03-28T08:44:24Z</time></trkpt><trkpt lat="47.428131356677724" lon="6.654082868878503"><ele>360.0</ele><time>2026-03-28T08:44:25Z</time></trkpt><trkpt lat="47.42805369266362" lon="6.653718271339519"><ele>364.5</ele><time>2026-03-28T08:44:26Z</time></trkpt><trkpt lat="47.42798154891235" lon="6.65335456822547"><ele>369.0</ele><time>2026-03-28T08:44:27Z</time></trkpt><trkpt lat="47.427905739058865" lon="6.6529875244766705"><ele>360.0</ele><time>2026-03-28T08:44:28Z</time></trkpt><trkpt lat="47.42781951442897" lon="6.652626612224818"><ele>351.0</ele><time>2026-03-28T08:44:29Z</time></trkpt><trkpt lat="47.42772978079587" lon="6.65226482589756"><ele>356.0</ele><time>2026-03-28T08:44:30Z</time></trkpt><trkpt lat="47.42763542002464" lon="6.65190608234742"><ele>361.0</ele><time>2026-03-28T08:44:31Z</time></trkpt><trkpt lat="47.42753329272802" lon="6.651552818620146"><ele>361.0</ele><time>2026-03-28T08:44:32Z</time></trkpt><trkpt lat="47.42743322483362" lon="6.651207425639215"><ele>361.0</ele><time>2026-03-28T08:44:33Z</time></trkpt><trkpt lat="47.42732831390552" lon="6.650862292534842"><ele>356.5</ele><time>2026-03-28T08:44:34Z</time></trkpt><trkpt lat="47.42721654057097" lon="6.65052068619472"><ele>352.0</ele><time>2026-03-28T08:44:35Z</time></trkpt><trkpt lat="47.42710498876784" lon="6.650180316323125"><ele>352.0</ele><time>2026-03-28T08:44:36Z</time></trkpt><trkpt lat="47.426987185342824" lon="6.649846597222085"><ele>352.0</ele><time>2026-03-28T08:44:37Z</time></trkpt><trkpt lat="47.42686862630411" lon="6.649510920480455"><ele>357.0</ele><time>2026-03-28T08:44:38Z</time></trkpt><trkpt lat="47.42674850891946" lon="6.649180253974481"><ele>362.0</ele><time>2026-03-28T08:44:39Z</time></trkpt><trkpt lat="47.42662539859178" lon="6.648851878109267"><ele>368.5</ele><time>2026-03-28T08:44:40Z</time></trkpt><trkpt lat="47.426499913256" lon="6.648526103212337"><ele>375.0</ele><time>2026-03-28T08:44:41Z</time></trkpt><trkpt lat="47.42636469619512" lon="6.64820459104481"><ele>368.0</ele><time>2026-03-28T08:44:42Z</time></trkpt><trkpt lat="47.42623257737551" lon="6.64789252507296"><ele>361.0</ele><time>2026-03-28T08:44:43Z</time></trkpt><trkpt lat="47.42609806346259" lon="6.647576557965137"><ele>361.0</ele><time>2026-03-28T08:44:44Z</time></trkpt><trkpt lat="47.42595956034108" lon="6.647263949497173"><ele>361.0</ele><time>2026-03-28T08:44:45Z</time></trkpt><trkpt lat="47.425820538749704" lon="6.64695775489253"><ele>370.0</ele><time>2026-03-28T08:44:46Z</time></trkpt><trkpt lat="47.4256850468935" lon="6.646657032139481"><ele>379.0</ele><time>2026-03-28T08:44:47Z</time></trkpt><trkpt lat="47.4255419622897" lon="6.646351264861627"><ele>373.0</ele><time>2026-03-28T08:44:48Z</time></trkpt><trkpt lat="47.42540045104591" lon="6.646048167501038"><ele>367.0</ele><time>2026-03-28T08:44:49Z</time></trkpt><trkpt lat="47.42525513318229" lon="6.645746635296975"><ele>367.0</ele><time>2026-03-28T08:44:50Z</time></trkpt><trkpt lat="47.42510819179234" lon="6.645449629255252"><ele>367.0</ele><time>2026-03-28T08:44:51Z</time></trkpt><trkpt lat="47.42495897296436" lon="6.645154498234329"><ele>376.5</ele><time>2026-03-28T08:44:52Z</time></trkpt><trkpt lat="47.42480943445439" lon="6.644858065467172"><ele>386.0</ele><time>2026-03-28T08:44:53Z</time></trkpt><trkpt lat="47.424657796768905" lon="6.644564595944945"><ele>380.5</ele><time>2026-03-28T08:44:54Z</time></trkpt><trkpt lat="47.42450442122645" lon="6.644274505876353"><ele>375.0</ele><time>2026-03-28T08:44:55Z</time></trkpt><trkpt lat="47.42435033614696" lon="6.643984841123233"><ele>375.0</ele><time>2026-03-28T08:44:56Z</time></trkpt><trkpt lat="47.424194580426175" lon="6.643694891344636"><ele>375.0</ele><time>2026-03-28T08:44:57Z</time></trkpt><trkpt lat="47.424035156014035" lon="6.643411634375675"><ele>373.5</ele><time>2026-03-28T08:44:58Z</time></trkpt><trkpt lat="47.42387233440818" lon="6.643130405460601"><ele>372.0</ele><time>2026-03-28T08:44:59Z</time></trkpt><trkpt lat="47.423709673757195" lon="6.64285072372337"><ele>378.0</ele><time>2026-03-28T08:45:00Z</time></trkpt><trkpt lat="47.42355127649652" lon="6.642565931055516"><ele>384.0</ele><time>2026-03-28T08:45:01Z</time></trkpt><trkpt lat="47.423388020384934" lon="6.642283463038204"><ele>384.0</ele><time>2026-03-28T08:45:02Z</time></trkpt><trkpt lat="47.423226100241635" lon="6.641998743396869"><ele>384.0</ele><time>2026-03-28T08:45:03Z</time></trkpt><trkpt lat="47.4230639790868" lon="6.641711935162777"><ele>384.5</ele><time>2026-03-28T08:45:04Z</time></trkpt><trkpt lat="47.422898794122716" lon="6.641426899973882"><ele>385.0</ele><time>2026-03-28T08:45:05Z</time></trkpt><trkpt lat="47.42273687406895" lon="6.641141407680309"><ele>390.5</ele><time>2026-03-28T08:45:06Z</time></trkpt><trkpt lat="47.42257744963134" lon="6.64085254169306"><ele>396.0</ele><time>2026-03-28T08:45:07Z</time></trkpt><trkpt lat="47.422422404508694" lon="6.6405625757289775"><ele>398.5</ele><time>2026-03-28T08:45:08Z</time></trkpt><trkpt lat="47.422264383779414" lon="6.640283061405947"><ele>401.0</ele><time>2026-03-28T08:45:09Z</time></trkpt><trkpt lat="47.422102314000995" lon="6.640005023305408"><ele>401.0</ele><time>2026-03-28T08:45:10Z</time></trkpt><trkpt lat="47.42194377809477" lon="6.6397306090870165"><ele>401.0</ele><time>2026-03-28T08:45:11Z</time></trkpt><trkpt lat="47.42178336830027" lon="6.639455524425934"><ele>401.0</ele><time>2026-03-28T08:45:12Z</time></trkpt><trkpt lat="47.42162601660244" lon="6.63918548229617"><ele>401.0</ele><time>2026-03-28T08:45:13Z</time></trkpt><trkpt lat="47.42146931949223" lon="6.638913624425202"><ele>403.5</ele><time>2026-03-28T08:45:14Z</time></trkpt><trkpt lat="47.421312728648985" lon="6.638638573695269"><ele>406.0</ele><time>2026-03-28T08:45:15Z</time></trkpt><trkpt lat="47.421159522587" lon="6.638364370903577"><ele>406.0</ele><time>2026-03-28T08:45:16Z</time></trkpt><trkpt lat="47.42100864627659" lon="6.638086113163125"><ele>406.0</ele><time>2026-03-28T08:45:17Z</time></trkpt><trkpt lat="47.42085436493265" lon="6.637799173824129"><ele>405.0</ele><time>2026-03-28T08:45:18Z</time></trkpt><trkpt lat="47.420702019461885" lon="6.637506689778336"><ele>404.0</ele><time>2026-03-28T08:45:19Z</time></trkpt><trkpt lat="47.42055137530047" lon="6.637214990281093"><ele>403.5</ele><time>2026-03-28T08:45:20Z</time></trkpt><trkpt lat="47.42040235027864" lon="6.6369210284536955"><ele>403.0</ele><time>2026-03-28T08:45:21Z</time></trkpt><trkpt lat="47.42025294567384" lon="6.636623468189962"><ele>403.0</ele><time>2026-03-28T08:45:22Z</time></trkpt><trkpt lat="47.42010677514039" lon="6.636321106729661"><ele>403.0</ele><time>2026-03-28T08:45:23Z</time></trkpt><trkpt lat="47.41996575695072" lon="6.636017808050059"><ele>402.5</ele><time>2026-03-28T08:45:24Z</time></trkpt><trkpt lat="47.41982590330085" lon="6.635708282535768"><ele>402.0</ele><time>2026-03-28T08:45:25Z</time></trkpt><trkpt lat="47.41968641232931" lon="6.635394100581523"><ele>400.0</ele><time>2026-03-28T08:45:26Z</time></trkpt><trkpt lat="47.41954998846852" lon="6.635068046957964"><ele>398.0</ele><time>2026-03-28T08:45:27Z</time></trkpt><trkpt lat="47.4194151897441" lon="6.6347451384174905"><ele>397.0</ele><time>2026-03-28T08:45:28Z</time></trkpt><trkpt lat="47.419282469018576" lon="6.634416340746715"><ele>396.0</ele><time>2026-03-28T08:45:29Z</time></trkpt><trkpt lat="47.41915151105445" lon="6.634078581203564"><ele>396.0</ele><time>2026-03-28T08:45:30Z</time></trkpt><trkpt lat="47.419026470582516" lon="6.633735274409883"><ele>396.0</ele><time>2026-03-28T08:45:31Z</time></trkpt><trkpt lat="47.418900959965114" lon="6.633393967099852"><ele>396.5</ele><time>2026-03-28T08:45:32Z</time></trkpt><trkpt lat="47.41878211325582" lon="6.633047536280955"><ele>397.0</ele><time>2026-03-28T08:45:33Z</time></trkpt><trkpt lat="47.41866847001844" lon="6.632699313175741"><ele>397.0</ele><time>2026-03-28T08:45:34Z</time></trkpt><trkpt lat="47.41855459250819" lon="6.632347576332292"><ele>397.0</ele><time>2026-03-28T08:45:35Z</time></trkpt><trkpt lat="47.418444981835485" lon="6.631990340344541"><ele>397.0</ele><time>2026-03-28T08:45:36Z</time></trkpt><trkpt lat="47.418335905168675" lon="6.631629263568277"><ele>397.0</ele><time>2026-03-28T08:45:37Z</time></trkpt><trkpt lat="47.41823133671494" lon="6.631265790458226"><ele>396.5</ele><time>2026-03-28T08:45:38Z</time></trkpt><trkpt lat="47.418132049622606" lon="6.630898761819398"><ele>396.0</ele><time>2026-03-28T08:45:39Z</time></trkpt><trkpt lat="47.41803834326507" lon="6.6305321763289"><ele>397.5</ele><time>2026-03-28T08:45:40Z</time></trkpt><trkpt lat="47.41794490912681" lon="6.630167165753517"><ele>399.0</ele><time>2026-03-28T08:45:41Z</time></trkpt><trkpt lat="47.41785656574571" lon="6.629801154460561"><ele>396.0</ele><time>2026-03-28T08:45:42Z</time></trkpt><trkpt lat="47.417769801393604" lon="6.629430759967634"><ele>393.0</ele><time>2026-03-28T08:45:43Z</time></trkpt><trkpt lat="47.41768762148913" lon="6.629060635834046"><ele>393.0</ele><time>2026-03-28T08:45:44Z</time></trkpt><trkpt lat="47.417607485167366" lon="6.628687042903358"><ele>393.0</ele><time>2026-03-28T08:45:45Z</time></trkpt><trkpt lat="47.41753534705529" lon="6.62831248351447"><ele>391.5</ele><time>2026-03-28T08:45:46Z</time></trkpt><trkpt lat="47.41747032836445" lon="6.627941025340735"><ele>390.0</ele><time>2026-03-28T08:45:47Z</time></trkpt><trkpt lat="47.417398884572926" lon="6.627554397123559"><ele>388.0</ele><time>2026-03-28T08:45:48Z</time></trkpt><trkpt lat="47.41736128039326" lon="6.627175933769126"><ele>386.0</ele><time>2026-03-28T08:45:49Z</time></trkpt><trkpt lat="47.41729265073482" lon="6.626784429926918"><ele>381.5</ele><time>2026-03-28T08:45:50Z</time></trkpt><trkpt lat="47.41722315589943" lon="6.626385060957992"><ele>377.0</ele><time>2026-03-28T08:45:51Z</time></trkpt><trkpt lat="47.417158095514324" lon="6.625983011925585"><ele>375.0</ele><time>2026-03-28T08:45:52Z</time></trkpt><trkpt lat="47.41710021025745" lon="6.625573890908499"><ele>373.0</ele><time>2026-03-28T08:45:53Z</time></trkpt><trkpt lat="47.41704915509325" lon="6.625160450784672"><ele>373.0</ele><time>2026-03-28T08:45:54Z</time></trkpt><trkpt lat="47.416995806170405" lon="6.624742069233703"><ele>373.0</ele><time>2026-03-28T08:45:55Z</time></trkpt><trkpt lat="47.41695493630021" lon="6.624315580537827"><ele>372.0</ele><time>2026-03-28T08:45:56Z</time></trkpt><trkpt lat="47.41692205556878" lon="6.623893753622404"><ele>371.0</ele><time>2026-03-28T08:45:57Z</time></trkpt><trkpt lat="47.416894824596426" lon="6.6234689680702585"><ele>368.5</ele><time>2026-03-28T08:45:58Z</time></trkpt><trkpt lat="47.41687560442363" lon="6.623043644509579"><ele>366.0</ele><time>2026-03-28T08:45:59Z</time></trkpt><trkpt lat="47.41686278207428" lon="6.622617910378479"><ele>364.5</ele><time>2026-03-28T08:46:00Z</time></trkpt><trkpt lat="47.41685844916807" lon="6.622195376984693"><ele>363.0</ele><time>2026-03-28T08:46:01Z</time></trkpt><trkpt lat="47.41685856208719" lon="6.621774911614729"><ele>362.0</ele><time>2026-03-28T08:46:02Z</time></trkpt><trkpt lat="47.41685396822162" lon="6.621358970866766"><ele>361.0</ele><time>2026-03-28T08:46:03Z</time></trkpt><trkpt lat="47.41685634931296" lon="6.620943972908417"><ele>359.5</ele><time>2026-03-28T08:46:04Z</time></trkpt><trkpt lat="47.41685995743825" lon="6.620528852602192"><ele>358.0</ele><time>2026-03-28T08:46:05Z</time></trkpt><trkpt lat="47.416871808362764" lon="6.620115224930135"><ele>356.5</ele><time>2026-03-28T08:46:06Z</time></trkpt><trkpt lat="47.41688800372062" lon="6.6197083452668934"><ele>355.0</ele><time>2026-03-28T08:46:07Z</time></trkpt><trkpt lat="47.4169077792029" lon="6.619300870088336"><ele>354.0</ele><time>2026-03-28T08:46:08Z</time></trkpt><trkpt lat="47.41692812003838" lon="6.618893829219067"><ele>353.0</ele><time>2026-03-28T08:46:09Z</time></trkpt><trkpt lat="47.416957125883634" lon="6.618491364942457"><ele>350.5</ele><time>2026-03-28T08:46:10Z</time></trkpt><trkpt lat="47.41698559872426" lon="6.618089378337149"><ele>348.0</ele><time>2026-03-28T08:46:11Z</time></trkpt><trkpt lat="47.417016756741845" lon="6.617689587620149"><ele>345.5</ele><time>2026-03-28T08:46:12Z</time></trkpt><trkpt lat="47.417050497816845" lon="6.617286166436378"><ele>343.0</ele><time>2026-03-28T08:46:13Z</time></trkpt><trkpt lat="47.41708531372074" lon="6.616882332903163"><ele>344.5</ele><time>2026-03-28T08:46:14Z</time></trkpt><trkpt lat="47.417122891533744" lon="6.616481196396495"><ele>346.0</ele><time>2026-03-28T08:46:15Z</time></trkpt><trkpt lat="47.41716795946939" lon="6.616078196444166"><ele>346.0</ele><time>2026-03-28T08:46:16Z</time></trkpt><trkpt lat="47.41721311323157" lon="6.615671844853552"><ele>346.0</ele><time>2026-03-28T08:46:17Z</time></trkpt><trkpt lat="47.41725833224768" lon="6.615271221863093"><ele>342.5</ele><time>2026-03-28T08:46:18Z</time></trkpt><trkpt lat="47.4173073950483" lon="6.614873782417918"><ele>339.0</ele><time>2026-03-28T08:46:19Z</time></trkpt><trkpt lat="47.41735442431731" lon="6.614466542730188"><ele>336.0</ele><time>2026-03-28T08:46:20Z</time></trkpt><trkpt lat="47.41740405181119" lon="6.614069434466635"><ele>333.0</ele><time>2026-03-28T08:46:21Z</time></trkpt><trkpt lat="47.41745112516309" lon="6.613669648590005"><ele>329.5</ele><time>2026-03-28T08:46:22Z</time></trkpt><trkpt lat="47.41750247808562" lon="6.613275021939691"><ele>326.0</ele><time>2026-03-28T08:46:23Z</time></trkpt><trkpt lat="47.417549429490165" lon="6.6128835089557265"><ele>324.5</ele><time>2026-03-28T08:46:24Z</time></trkpt><trkpt lat="47.41759519095395" lon="6.61249433211861"><ele>323.0</ele><time>2026-03-28T08:46:25Z</time></trkpt><trkpt lat="47.417644677684535" lon="6.612106587870182"><ele>323.5</ele><time>2026-03-28T08:46:26Z</time></trkpt><trkpt lat="47.417694477947656" lon="6.611711566908319"><ele>324.0</ele><time>2026-03-28T08:46:27Z</time></trkpt><trkpt lat="47.41774011451683" lon="6.611321150627733"><ele>326.0</ele><time>2026-03-28T08:46:28Z</time></trkpt><trkpt lat="47.41779056146689" lon="6.610930780520158"><ele>328.0</ele><time>2026-03-28T08:46:29Z</time></trkpt><trkpt lat="47.4178403103315" lon="6.610543097884817"><ele>328.0</ele><time>2026-03-28T08:46:30Z</time></trkpt><trkpt lat="47.41788888004904" lon="6.6101560362619605"><ele>328.0</ele><time>2026-03-28T08:46:31Z</time></trkpt><trkpt lat="47.417938358559425" lon="6.609771749231447"><ele>326.0</ele><time>2026-03-28T08:46:32Z</time></trkpt><trkpt lat="47.41798604012843" lon="6.609387601756669"><ele>324.0</ele><time>2026-03-28T08:46:33Z</time></trkpt><trkpt lat="47.41803275869284" lon="6.6090045972169955"><ele>325.5</ele><time>2026-03-28T08:46:34Z</time></trkpt><trkpt lat="47.41808437734735" lon="6.608621847556704"><ele>327.0</ele><time>2026-03-28T08:46:35Z</time></trkpt><trkpt lat="47.41813339645986" lon="6.608239757616248"><ele>327.0</ele><time>2026-03-28T08:46:36Z</time></trkpt><trkpt lat="47.41817936360938" lon="6.607857215050237"><ele>327.0</ele><time>2026-03-28T08:46:37Z</time></trkpt><trkpt lat="47.41822524855031" lon="6.607476748107566"><ele>328.5</ele><time>2026-03-28T08:46:38Z</time></trkpt><trkpt lat="47.418271645686154" lon="6.60710531548121"><ele>330.0</ele><time>2026-03-28T08:46:39Z</time></trkpt><trkpt lat="47.41831869823958" lon="6.60674032761529"><ele>331.0</ele><time>2026-03-28T08:46:40Z</time></trkpt><trkpt lat="47.41836208984492" lon="6.606372880729958"><ele>332.0</ele><time>2026-03-28T08:46:41Z</time></trkpt><trkpt lat="47.41840713942936" lon="6.606005601117394"><ele>333.5</ele><time>2026-03-28T08:46:42Z</time></trkpt><trkpt lat="47.418454583511775" lon="6.605640543162716"><ele>335.0</ele><time>2026-03-28T08:46:43Z</time></trkpt><trkpt lat="47.41849879505956" lon="6.605282045233738"><ele>335.5</ele><time>2026-03-28T08:46:44Z</time></trkpt><trkpt lat="47.41854234182321" lon="6.604923573289872"><ele>336.0</ele><time>2026-03-28T08:46:45Z</time></trkpt><trkpt lat="47.41858650532188" lon="6.604564344758263"><ele>336.5</ele><time>2026-03-28T08:46:46Z</time></trkpt><trkpt lat="47.4186323717216" lon="6.604203746951697"><ele>337.0</ele><time>2026-03-28T08:46:47Z</time></trkpt><trkpt lat="47.41867824812343" lon="6.603851368967036"><ele>339.5</ele><time>2026-03-28T08:46:48Z</time></trkpt><trkpt lat="47.4187189359173" lon="6.6035057265163815"><ele>342.0</ele><time>2026-03-28T08:46:49Z</time></trkpt><trkpt lat="47.41875883019659" lon="6.603174657217983"><ele>342.0</ele><time>2026-03-28T08:46:50Z</time></trkpt><trkpt lat="47.418798465622885" lon="6.602853177075136"><ele>342.0</ele><time>2026-03-28T08:46:51Z</time></trkpt><trkpt lat="47.41883594410281" lon="6.602543665189432"><ele>342.0</ele><time>2026-03-28T08:46:52Z</time></trkpt><trkpt lat="47.41887288838231" lon="6.6022423489579065"><ele>344.3333333333333</ele><time>2026-03-28T08:46:53Z</time></trkpt><trkpt lat="47.41891009586978" lon="6.601938246351876"><ele>346.66666666666663</ele><time>2026-03-28T08:46:54Z</time></trkpt><trkpt lat="47.4189487958867" lon="6.601632265136768"><ele>349.0</ele><time>2026-03-28T08:46:55Z</time></trkpt><trkpt lat="47.418988894308754" lon="6.601326733147519"><ele>350.0</ele><time>2026-03-28T08:46:56Z</time></trkpt><trkpt lat="47.41902665944595" lon="6.601023387336783"><ele>351.0</ele><time>2026-03-28T08:46:57Z</time></trkpt><trkpt lat="47.41906610493376" lon="6.600722219487884"><ele>352.0</ele><time>2026-03-28T08:46:58Z</time></trkpt><trkpt lat="47.41910380057999" lon="6.600417707115386"><ele>352.66666666666663</ele><time>2026-03-28T08:46:59Z</time></trkpt><trkpt lat="47.41914474107333" lon="6.600116170358927"><ele>353.3333333333333</ele><time>2026-03-28T08:47:00Z</time></trkpt><trkpt lat="47.41918121487834" lon="6.599811861121594"><ele>354.0</ele><time>2026-03-28T08:47:01Z</time></trkpt><trkpt lat="47.419218708427586" lon="6.599503241183658"><ele>354.0</ele><time>2026-03-28T08:47:02Z</time></trkpt><trkpt lat="47.41925427285092" lon="6.599198223147936"><ele>354.0</ele><time>2026-03-28T08:47:03Z</time></trkpt><trkpt lat="47.419291940661644" lon="6.598897278436081"><ele>354.0</ele><time>2026-03-28T08:47:04Z</time></trkpt><trkpt lat="47.4193263667144" lon="6.598593750561342"><ele>354.0</ele><time>2026-03-28T08:47:05Z</time></trkpt><trkpt lat="47.41936203215832" lon="6.598291300736289"><ele>354.0</ele><time>2026-03-28T08:47:06Z</time></trkpt><trkpt lat="47.41939703315516" lon="6.5979904945695695"><ele>354.0</ele><time>2026-03-28T08:47:07Z</time></trkpt><trkpt lat="47.4194305832325" lon="6.5976889806109185"><ele>354.6666666666667</ele><time>2026-03-28T08:47:08Z</time></trkpt><trkpt lat="47.419462954253746" lon="6.597383750404052"><ele>355.33333333333337</ele><time>2026-03-28T08:47:09Z</time></trkpt><trkpt lat="47.419498059116684" lon="6.597077954631906"><ele>356.0</ele><time>2026-03-28T08:47:10Z</time></trkpt><trkpt lat="47.4195341358129" lon="6.59677755112805"><ele>357.0</ele><time>2026-03-28T08:47:11Z</time></trkpt><trkpt lat="47.41957036646901" lon="6.596475822563223"><ele>358.0</ele><time>2026-03-28T08:47:12Z</time></trkpt><trkpt lat="47.419603104595346" lon="6.596171699548664"><ele>359.0</ele><time>2026-03-28T08:47:13Z</time></trkpt><trkpt lat="47.41963470476806" lon="6.595865162419724"><ele>360.0</ele><time>2026-03-28T08:47:14Z</time></trkpt><trkpt lat="47.41966337451873" lon="6.595558891873039"><ele>361.0</ele><time>2026-03-28T08:47:15Z</time></trkpt><trkpt lat="47.41968923889243" lon="6.595253709049267"><ele>362.0</ele><time>2026-03-28T08:47:16Z</time></trkpt><trkpt lat="47.41970711746245" lon="6.594941947196829"><ele>364.6666666666667</ele><time>2026-03-28T08:47:17Z</time></trkpt><trkpt lat="47.419723097175435" lon="6.5946253943335575"><ele>367.3333333333333</ele><time>2026-03-28T08:47:18Z</time></trkpt><trkpt lat="47.41973316635555" lon="6.5943084653850805"><ele>370.0</ele><time>2026-03-28T08:47:19Z</time></trkpt><trkpt lat="47.41974025991323" lon="6.5939911823950625"><ele>371.0</ele><time>2026-03-28T08:47:20Z</time></trkpt><trkpt lat="47.41974290098433" lon="6.593672576943802"><ele>372.0</ele><time>2026-03-28T08:47:21Z</time></trkpt><trkpt lat="47.41973869858595" lon="6.593351048791524"><ele>373.0</ele><time>2026-03-28T08:47:22Z</time></trkpt><trkpt lat="47.41973051725452" lon="6.593031142524881"><ele>374.0</ele><time>2026-03-28T08:47:23Z</time></trkpt><trkpt lat="47.419715846924746" lon="6.592710053291142"><ele>375.0</ele><time>2026-03-28T08:47:24Z</time></trkpt><trkpt lat="47.419700196470494" lon="6.592388817265603"><ele>376.0</ele><time>2026-03-28T08:47:25Z</time></trkpt><trkpt lat="47.41967909791132" lon="6.592063978111699"><ele>374.3333333333333</ele><time>2026-03-28T08:47:26Z</time></trkpt><trkpt lat="47.41964994462665" lon="6.591749497393344"><ele>372.6666666666667</ele><time>2026-03-28T08:47:27Z</time></trkpt><trkpt lat="47.419613314341476" lon="6.591423070578628"><ele>371.0</ele><time>2026-03-28T08:47:28Z</time></trkpt><trkpt lat="47.41957164982968" lon="6.5911024248271595"><ele>371.0</ele><time>2026-03-28T08:47:29Z</time></trkpt><trkpt lat="47.41952685025081" lon="6.590779704162465"><ele>371.0</ele><time>2026-03-28T08:47:30Z</time></trkpt><trkpt lat="47.419481272134625" lon="6.590462746934563"><ele>371.0</ele><time>2026-03-28T08:47:31Z</time></trkpt><trkpt lat="47.41942687050783" lon="6.590147845272765"><ele>368.5</ele><time>2026-03-28T08:47:32Z</time></trkpt><trkpt lat="47.419368967403635" lon="6.589829102494775"><ele>366.0</ele><time>2026-03-28T08:47:33Z</time></trkpt><trkpt lat="47.41930338841788" lon="6.589505008407087"><ele>364.5</ele><time>2026-03-28T08:47:34Z</time></trkpt><trkpt lat="47.419225881291965" lon="6.589176774515722"><ele>363.0</ele><time>2026-03-28T08:47:35Z</time></trkpt><trkpt lat="47.419142734612876" lon="6.588850696141502"><ele>361.5</ele><time>2026-03-28T08:47:36Z</time></trkpt><trkpt lat="47.4190508962308" lon="6.588525971979303"><ele>360.0</ele><time>2026-03-28T08:47:37Z</time></trkpt><trkpt lat="47.41895152930705" lon="6.58820291118979"><ele>360.0</ele><time>2026-03-28T08:47:38Z</time></trkpt><trkpt lat="47.418848413980946" lon="6.587878877828254"><ele>360.0</ele><time>2026-03-28T08:47:39Z</time></trkpt><trkpt lat="47.41874167001061" lon="6.587556639945575"><ele>360.5</ele><time>2026-03-28T08:47:40Z</time></trkpt><trkpt lat="47.418630695339004" lon="6.587242555863389"><ele>361.0</ele><time>2026-03-28T08:47:41Z</time></trkpt><trkpt lat="47.418513726188" lon="6.586924512502456"><ele>358.5</ele><time>2026-03-28T08:47:42Z</time></trkpt><trkpt lat="47.4183933311853" lon="6.586608871115298"><ele>356.0</ele><time>2026-03-28T08:47:43Z</time></trkpt><trkpt lat="47.41827235247415" lon="6.5862984628472505"><ele>354.0</ele><time>2026-03-28T08:47:44Z</time></trkpt><trkpt lat="47.41814714750769" lon="6.5859842863644396"><ele>352.0</ele><time>2026-03-28T08:47:45Z</time></trkpt><trkpt lat="47.41801966637417" lon="6.585667841530131"><ele>351.0</ele><time>2026-03-28T08:47:46Z</time></trkpt><trkpt lat="47.41789153019887" lon="6.585347398563982"><ele>350.0</ele><time>2026-03-28T08:47:47Z</time></trkpt><trkpt lat="47.41776181635801" lon="6.585025336432054"><ele>343.5</ele><time>2026-03-28T08:47:48Z</time></trkpt><trkpt lat="47.417630224464645" lon="6.5847005064059605"><ele>337.0</ele><time>2026-03-28T08:47:49Z</time></trkpt><trkpt lat="47.41749852380548" lon="6.584379464136119"><ele>335.5</ele><time>2026-03-28T08:47:50Z</time></trkpt><trkpt lat="47.4173667238916" lon="6.584061229575231"><ele>334.0</ele><time>2026-03-28T08:47:51Z</time></trkpt><trkpt lat="47.41723556526769" lon="6.583741649976151"><ele>338.0</ele><time>2026-03-28T08:47:52Z</time></trkpt><trkpt lat="47.41709889838716" lon="6.583416665982024"><ele>342.0</ele><time>2026-03-28T08:47:53Z</time></trkpt><trkpt lat="47.416963082326156" lon="6.583087351402993"><ele>343.0</ele><time>2026-03-28T08:47:54Z</time></trkpt><trkpt lat="47.41682844496578" lon="6.582761100482379"><ele>344.0</ele><time>2026-03-28T08:47:55Z</time></trkpt><trkpt lat="47.41669597793424" lon="6.582428574496987"><ele>344.0</ele><time>2026-03-28T08:47:56Z</time></trkpt><trkpt lat="47.41655924792817" lon="6.582101244963986"><ele>344.0</ele><time>2026-03-28T08:47:57Z</time></trkpt><trkpt lat="47.416427399269075" lon="6.581770614494024"><ele>347.0</ele><time>2026-03-28T08:47:58Z</time></trkpt><trkpt lat="47.416292896313855" lon="6.58144466209009"><ele>350.0</ele><time>2026-03-28T08:47:59Z</time></trkpt><trkpt lat="47.4161576254251" lon="6.581111778137654"><ele>350.0</ele><time>2026-03-28T08:48:00Z</time></trkpt><trkpt lat="47.4160239434411" lon="6.580782426654626"><ele>350.0</ele><time>2026-03-28T08:48:01Z</time></trkpt><trkpt lat="47.41589363162116" lon="6.580452420517772"><ele>349.5</ele><time>2026-03-28T08:48:02Z</time></trkpt><trkpt lat="47.41575718878279" lon="6.580122366952474"><ele>349.0</ele><time>2026-03-28T08:48:03Z</time></trkpt><trkpt lat="47.415617981164644" lon="6.579789691627025"><ele>352.5</ele><time>2026-03-28T08:48:04Z</time></trkpt><trkpt lat="47.41548213121468" lon="6.579459871044387"><ele>356.0</ele><time>2026-03-28T08:48:05Z</time></trkpt><trkpt lat="47.41535106002304" lon="6.5791230044979585"><ele>356.0</ele><time>2026-03-28T08:48:06Z</time></trkpt><trkpt lat="47.41521444832286" lon="6.578787275580695"><ele>356.0</ele><time>2026-03-28T08:48:07Z</time></trkpt><trkpt lat="47.41508162644564" lon="6.578457290145414"><ele>356.0</ele><time>2026-03-28T08:48:08Z</time></trkpt><trkpt lat="47.41494921141023" lon="6.578121140928143"><ele>356.0</ele><time>2026-03-28T08:48:09Z</time></trkpt><trkpt lat="47.414816639818696" lon="6.577786771627004"><ele>356.0</ele><time>2026-03-28T08:48:10Z</time></trkpt><trkpt lat="47.4146798885668" lon="6.577451299963296"><ele>356.0</ele><time>2026-03-28T08:48:11Z</time></trkpt><trkpt lat="47.41454354432822" lon="6.5771163749437145"><ele>359.5</ele><time>2026-03-28T08:48:12Z</time></trkpt><trkpt lat="47.41440742500496" lon="6.576776574664595"><ele>363.0</ele><time>2026-03-28T08:48:13Z</time></trkpt><trkpt lat="47.41427114457367" lon="6.576441511016717"><ele>363.5</ele><time>2026-03-28T08:48:14Z</time></trkpt><trkpt lat="47.414139136926096" lon="6.576103111668534"><ele>364.0</ele><time>2026-03-28T08:48:15Z</time></trkpt><trkpt lat="47.41400441218281" lon="6.575761687026108"><ele>364.0</ele><time>2026-03-28T08:48:16Z</time></trkpt><trkpt lat="47.41387570645829" lon="6.5754196701463705"><ele>364.0</ele><time>2026-03-28T08:48:17Z</time></trkpt><trkpt lat="47.41374487745591" lon="6.5750736578191535"><ele>364.0</ele><time>2026-03-28T08:48:18Z</time></trkpt><trkpt lat="47.41361917136295" lon="6.574720065726682"><ele>364.0</ele><time>2026-03-28T08:48:19Z</time></trkpt><trkpt lat="47.41350205670025" lon="6.574369838956508"><ele>364.0</ele><time>2026-03-28T08:48:20Z</time></trkpt><trkpt lat="47.41339116251363" lon="6.574018890861318"><ele>364.0</ele><time>2026-03-28T08:48:21Z</time></trkpt><trkpt lat="47.413280573889494" lon="6.573659400260074"><ele>365.5</ele><time>2026-03-28T08:48:22Z</time></trkpt><trkpt lat="47.41318045906809" lon="6.573299631726897"><ele>367.0</ele><time>2026-03-28T08:48:23Z</time></trkpt><trkpt lat="47.41308058480144" lon="6.572935708013047"><ele>371.5</ele><time>2026-03-28T08:48:24Z</time></trkpt><trkpt lat="47.4129848201663" lon="6.572566934254671"><ele>376.0</ele><time>2026-03-28T08:48:25Z</time></trkpt><trkpt lat="47.412895621582194" lon="6.572198067594754"><ele>373.0</ele><time>2026-03-28T08:48:26Z</time></trkpt><trkpt lat="47.41281191350906" lon="6.571822658446075"><ele>370.0</ele><time>2026-03-28T08:48:27Z</time></trkpt><trkpt lat="47.41272837071355" lon="6.571445342291232"><ele>370.0</ele><time>2026-03-28T08:48:28Z</time></trkpt><trkpt lat="47.4126534925101" lon="6.571065027349477"><ele>370.0</ele><time>2026-03-28T08:48:29Z</time></trkpt><trkpt lat="47.41257811899476" lon="6.570679601750477"><ele>370.0</ele><time>2026-03-28T08:48:30Z</time></trkpt><trkpt lat="47.412511505480914" lon="6.570291728242285"><ele>370.0</ele><time>2026-03-28T08:48:31Z</time></trkpt><trkpt lat="47.41244919817334" lon="6.569903286009667"><ele>370.0</ele><time>2026-03-28T08:48:32Z</time></trkpt><trkpt lat="47.412395329275405" lon="6.569512921495213"><ele>370.0</ele><time>2026-03-28T08:48:33Z</time></trkpt><trkpt lat="47.412342517723516" lon="6.56912768060493"><ele>370.0</ele><time>2026-03-28T08:48:34Z</time></trkpt><trkpt lat="47.41229717470555" lon="6.56873536087645"><ele>370.0</ele><time>2026-03-28T08:48:35Z</time></trkpt><trkpt lat="47.41225765211415" lon="6.568342340724246"><ele>370.0</ele><time>2026-03-28T08:48:36Z</time></trkpt><trkpt lat="47.41222518037981" lon="6.56794768086627"><ele>370.0</ele><time>2026-03-28T08:48:37Z</time></trkpt><trkpt lat="47.412197638097695" lon="6.567548261991802"><ele>369.5</ele><time>2026-03-28T08:48:38Z</time></trkpt><trkpt lat="47.41217578188797" lon="6.567146470968797"><ele>369.0</ele><time>2026-03-28T08:48:39Z</time></trkpt><trkpt lat="47.41216048685756" lon="6.56674747331914"><ele>369.5</ele><time>2026-03-28T08:48:40Z</time></trkpt><trkpt lat="47.412143573156214" lon="6.566351583388759"><ele>370.0</ele><time>2026-03-28T08:48:41Z</time></trkpt><trkpt lat="47.41213407278112" lon="6.565950374061824"><ele>368.0</ele><time>2026-03-28T08:48:42Z</time></trkpt><trkpt lat="47.41212975109819" lon="6.565551867197574"><ele>366.0</ele><time>2026-03-28T08:48:43Z</time></trkpt><trkpt lat="47.412130240091614" lon="6.565151810322176"><ele>366.0</ele><time>2026-03-28T08:48:44Z</time></trkpt><trkpt lat="47.412135555798216" lon="6.564755043199119"><ele>366.0</ele><time>2026-03-28T08:48:45Z</time></trkpt><trkpt lat="47.41214166912522" lon="6.564356258803753"><ele>365.0</ele><time>2026-03-28T08:48:46Z</time></trkpt><trkpt lat="47.41214937309383" lon="6.563955429700116"><ele>364.0</ele><time>2026-03-28T08:48:47Z</time></trkpt><trkpt lat="47.41216009142219" lon="6.563555926930891"><ele>364.0</ele><time>2026-03-28T08:48:48Z</time></trkpt><trkpt lat="47.412168269572874" lon="6.563156688557709"><ele>364.0</ele><time>2026-03-28T08:48:49Z</time></trkpt><trkpt lat="47.412177635442546" lon="6.5627584817901345"><ele>364.0</ele><time>2026-03-28T08:48:50Z</time></trkpt><trkpt lat="47.412188866052745" lon="6.562356125901711"><ele>364.0</ele><time>2026-03-28T08:48:51Z</time></trkpt><trkpt lat="47.41219617620924" lon="6.561963216736545"><ele>364.0</ele><time>2026-03-28T08:48:52Z</time></trkpt><trkpt lat="47.41220518589602" lon="6.561565190053059"><ele>364.0</ele><time>2026-03-28T08:48:53Z</time></trkpt><trkpt lat="47.41221396651099" lon="6.561167349787135"><ele>364.5</ele><time>2026-03-28T08:48:54Z</time></trkpt><trkpt lat="47.412221719148405" lon="6.56076902522474"><ele>365.0</ele><time>2026-03-28T08:48:55Z</time></trkpt><trkpt lat="47.41222652747032" lon="6.560371921626803"><ele>365.0</ele><time>2026-03-28T08:48:56Z</time></trkpt><trkpt lat="47.41222979190487" lon="6.559978846849703"><ele>365.0</ele><time>2026-03-28T08:48:57Z</time></trkpt><trkpt lat="47.41222965978721" lon="6.55958203486597"><ele>363.5</ele><time>2026-03-28T08:48:58Z</time></trkpt><trkpt lat="47.41222544327415" lon="6.559184531267181"><ele>362.0</ele><time>2026-03-28T08:48:59Z</time></trkpt><trkpt lat="47.41221801512126" lon="6.558780593786305"><ele>361.0</ele><time>2026-03-28T08:49:00Z</time></trkpt><trkpt lat="47.4122094074768" lon="6.558382194127823"><ele>360.0</ele><time>2026-03-28T08:49:01Z</time></trkpt><trkpt lat="47.41220010742379" lon="6.557984381581002"><ele>359.0</ele><time>2026-03-28T08:49:02Z</time></trkpt><trkpt lat="47.41218874919883" lon="6.557590155271077"><ele>358.0</ele><time>2026-03-28T08:49:03Z</time></trkpt><trkpt lat="47.41216970855272" lon="6.557188359151756"><ele>358.5</ele><time>2026-03-28T08:49:04Z</time></trkpt><trkpt lat="47.412148481658804" lon="6.556787376204137"><ele>359.0</ele><time>2026-03-28T08:49:05Z</time></trkpt><trkpt lat="47.41211767356147" lon="6.5563842730001864"><ele>358.0</ele><time>2026-03-28T08:49:06Z</time></trkpt><trkpt lat="47.41208855755307" lon="6.555981800185375"><ele>357.0</ele><time>2026-03-28T08:49:07Z</time></trkpt><trkpt lat="47.41205808926135" lon="6.555579034600815"><ele>356.0</ele><time>2026-03-28T08:49:08Z</time></trkpt><trkpt lat="47.41202367858546" lon="6.555175951159966"><ele>355.0</ele><time>2026-03-28T08:49:09Z</time></trkpt><trkpt lat="47.411985344521725" lon="6.5547747471884925"><ele>353.5</ele><time>2026-03-28T08:49:10Z</time></trkpt><trkpt lat="47.41194425639499" lon="6.554375818870542"><ele>352.0</ele><time>2026-03-28T08:49:11Z</time></trkpt><trkpt lat="47.41189936304017" lon="6.553976626184246"><ele>350.0</ele><time>2026-03-28T08:49:12Z</time></trkpt><trkpt lat="47.411850920853304" lon="6.55357834209254"><ele>348.0</ele><time>2026-03-28T08:49:13Z</time></trkpt><trkpt lat="47.41179872633167" lon="6.55318167985556"><ele>344.5</ele><time>2026-03-28T08:49:14Z</time></trkpt><trkpt lat="47.41174714294558" lon="6.552785497005615"><ele>341.0</ele><time>2026-03-28T08:49:15Z</time></trkpt><trkpt lat="47.411693749825965" lon="6.55238795016051"><ele>339.0</ele><time>2026-03-28T08:49:16Z</time></trkpt><trkpt lat="47.41163470980683" lon="6.551991855757969"><ele>337.0</ele><time>2026-03-28T08:49:17Z</time></trkpt><trkpt lat="47.41157264607037" lon="6.551596435677657"><ele>336.0</ele><time>2026-03-28T08:49:18Z</time></trkpt><trkpt lat="47.411509785995285" lon="6.551206618343455"><ele>335.0</ele><time>2026-03-28T08:49:19Z</time></trkpt><trkpt lat="47.41144389724769" lon="6.5508169484325816"><ele>335.0</ele><time>2026-03-28T08:49:20Z</time></trkpt><trkpt lat="47.41137957242625" lon="6.550427463918137"><ele>335.0</ele><time>2026-03-28T08:49:21Z</time></trkpt><trkpt lat="47.41131432855781" lon="6.550036527267437"><ele>335.0</ele><time>2026-03-28T08:49:22Z</time></trkpt><trkpt lat="47.41124567321982" lon="6.549647169114684"><ele>335.0</ele><time>2026-03-28T08:49:23Z</time></trkpt><trkpt lat="47.41117752464526" lon="6.549260436624335"><ele>335.0</ele><time>2026-03-28T08:49:24Z</time></trkpt><trkpt lat="47.41110528697393" lon="6.5488694821500175"><ele>335.0</ele><time>2026-03-28T08:49:25Z</time></trkpt><trkpt lat="47.41103801596707" lon="6.54848181415693"><ele>333.0</ele><time>2026-03-28T08:49:26Z</time></trkpt><trkpt lat="47.41097087385113" lon="6.548095147280323"><ele>331.0</ele><time>2026-03-28T08:49:27Z</time></trkpt><trkpt lat="47.41090322686359" lon="6.5477044373026265"><ele>329.0</ele><time>2026-03-28T08:49:28Z</time></trkpt><trkpt lat="47.410838042554474" lon="6.547315867454775"><ele>327.0</ele><time>2026-03-28T08:49:29Z</time></trkpt><trkpt lat="47.41077297677143" lon="6.5469234662250315"><ele>326.0</ele><time>2026-03-28T08:49:30Z</time></trkpt><trkpt lat="47.41070722299653" lon="6.546529630025942"><ele>325.0</ele><time>2026-03-28T08:49:31Z</time></trkpt><trkpt lat="47.410645049842536" lon="6.546138092457944"><ele>322.5</ele><time>2026-03-28T08:49:32Z</time></trkpt><trkpt lat="47.41058434032596" lon="6.54574460251645"><ele>320.0</ele><time>2026-03-28T08:49:33Z</time></trkpt><trkpt lat="47.41052571695463" lon="6.545352689447823"><ele>322.5</ele><time>2026-03-28T08:49:34Z</time></trkpt><trkpt lat="47.41046992116045" lon="6.544957526866462"><ele>325.0</ele><time>2026-03-28T08:49:35Z</time></trkpt><trkpt lat="47.410416141745245" lon="6.544563809348928"><ele>326.0</ele><time>2026-03-28T08:49:36Z</time></trkpt><trkpt lat="47.41036883601662" lon="6.544167724046349"><ele>327.0</ele><time>2026-03-28T08:49:37Z</time></trkpt><trkpt lat="47.41032677597756" lon="6.54377214206126"><ele>324.5</ele><time>2026-03-28T08:49:38Z</time></trkpt><trkpt lat="47.410284896085074" lon="6.543379213141786"><ele>322.0</ele><time>2026-03-28T08:49:39Z</time></trkpt><trkpt lat="47.410242511837474" lon="6.542986142623085"><ele>320.0</ele><time>2026-03-28T08:49:40Z</time></trkpt><trkpt lat="47.410200344684846" lon="6.542591969299112"><ele>318.0</ele><time>2026-03-28T08:49:41Z</time></trkpt><trkpt lat="47.41016256173818" lon="6.542197314032223"><ele>315.5</ele><time>2026-03-28T08:49:42Z</time></trkpt><trkpt lat="47.410130215552094" lon="6.541802058350266"><ele>313.0</ele><time>2026-03-28T08:49:43Z</time></trkpt><trkpt lat="47.410098159709044" lon="6.541409132614967"><ele>309.5</ele><time>2026-03-28T08:49:44Z</time></trkpt><trkpt lat="47.41007034114492" lon="6.5410121350367385"><ele>306.0</ele><time>2026-03-28T08:49:45Z</time></trkpt><trkpt lat="47.41004585430358" lon="6.540622950319543"><ele>302.5</ele><time>2026-03-28T08:49:46Z</time></trkpt><trkpt lat="47.410023004704954" lon="6.5402340904945655"><ele>299.0</ele><time>2026-03-28T08:49:47Z</time></trkpt><trkpt lat="47.410005814791965" lon="6.539848126128664"><ele>299.0</ele><time>2026-03-28T08:49:48Z</time></trkpt><trkpt lat="47.409984147716116" lon="6.539453929517777"><ele>299.0</ele><time>2026-03-28T08:49:49Z</time></trkpt><trkpt lat="47.40996724071631" lon="6.539068661418996"><ele>301.5</ele><time>2026-03-28T08:49:50Z</time></trkpt><trkpt lat="47.40995914766542" lon="6.538683174739325"><ele>304.0</ele><time>2026-03-28T08:49:51Z</time></trkpt><trkpt lat="47.40994668432051" lon="6.538294172813431"><ele>304.0</ele><time>2026-03-28T08:49:52Z</time></trkpt><trkpt lat="47.40994026385307" lon="6.537908677381775"><ele>304.0</ele><time>2026-03-28T08:49:53Z</time></trkpt><trkpt lat="47.409933897382736" lon="6.5375210231394565"><ele>305.5</ele><time>2026-03-28T08:49:54Z</time></trkpt><trkpt lat="47.40993087500355" lon="6.537129290256556"><ele>307.0</ele><time>2026-03-28T08:49:55Z</time></trkpt><trkpt lat="47.4099302482932" lon="6.536736843068628"><ele>307.5</ele><time>2026-03-28T08:49:56Z</time></trkpt><trkpt lat="47.40992966727039" lon="6.536345854716498"><ele>308.0</ele><time>2026-03-28T08:49:57Z</time></trkpt><trkpt lat="47.40992926452458" lon="6.535950340596004"><ele>306.0</ele><time>2026-03-28T08:49:58Z</time></trkpt><trkpt lat="47.40993454437834" lon="6.5355562533266625"><ele>304.0</ele><time>2026-03-28T08:49:59Z</time></trkpt><trkpt lat="47.40994576024128" lon="6.535163603430498"><ele>303.0</ele><time>2026-03-28T08:50:00Z</time></trkpt><trkpt lat="47.40995850901124" lon="6.534770677045128"><ele>302.0</ele><time>2026-03-28T08:50:01Z</time></trkpt><trkpt lat="47.40997377057107" lon="6.534379587130854"><ele>302.0</ele><time>2026-03-28T08:50:02Z</time></trkpt><trkpt lat="47.4099924787818" lon="6.5339879287310465"><ele>302.0</ele><time>2026-03-28T08:50:03Z</time></trkpt><trkpt lat="47.41000710638655" lon="6.533595994313549"><ele>301.0</ele><time>2026-03-28T08:50:04Z</time></trkpt><trkpt lat="47.410028185868384" lon="6.533202680486956"><ele>300.0</ele><time>2026-03-28T08:50:05Z</time></trkpt><trkpt lat="47.41005057544572" lon="6.532812316556635"><ele>300.0</ele><time>2026-03-28T08:50:06Z</time></trkpt><trkpt lat="47.41007714344271" lon="6.532425629287548"><ele>300.0</ele><time>2026-03-28T08:50:07Z</time></trkpt><trkpt lat="47.410107916723" lon="6.532041605608195"><ele>299.5</ele><time>2026-03-28T08:50:08Z</time></trkpt><trkpt lat="47.410147016926004" lon="6.531652266091114"><ele>299.0</ele><time>2026-03-28T08:50:09Z</time></trkpt><trkpt lat="47.410183374737734" lon="6.531273116656868"><ele>297.5</ele><time>2026-03-28T08:50:10Z</time></trkpt><trkpt lat="47.41022222799837" lon="6.530890034243318"><ele>296.0</ele><time>2026-03-28T08:50:11Z</time></trkpt><trkpt lat="47.41026237057729" lon="6.530509402713818"><ele>296.5</ele><time>2026-03-28T08:50:12Z</time></trkpt><trkpt lat="47.41030464432696" lon="6.530130903245116"><ele>297.0</ele><time>2026-03-28T08:50:13Z</time></trkpt><trkpt lat="47.41034960846169" lon="6.529752864389664"><ele>299.0</ele><time>2026-03-28T08:50:14Z</time></trkpt><trkpt lat="47.41039580841247" lon="6.529374895947221"><ele>301.0</ele><time>2026-03-28T08:50:15Z</time></trkpt><trkpt lat="47.41044423948338" lon="6.528994382978057"><ele>299.0</ele><time>2026-03-28T08:50:16Z</time></trkpt><trkpt lat="47.410495510245326" lon="6.528615167770146"><ele>297.0</ele><time>2026-03-28T08:50:17Z</time></trkpt><trkpt lat="47.41054748337899" lon="6.52823540263979"><ele>299.0</ele><time>2026-03-28T08:50:18Z</time></trkpt><trkpt lat="47.41060094190658" lon="6.527857987354028"><ele>301.0</ele><time>2026-03-28T08:50:19Z</time></trkpt><trkpt lat="47.410659390616225" lon="6.527480514999854"><ele>301.0</ele><time>2026-03-28T08:50:20Z</time></trkpt><trkpt lat="47.41071689795732" lon="6.527101751449785"><ele>301.0</ele><time>2026-03-28T08:50:21Z</time></trkpt><trkpt lat="47.410775027293724" lon="6.526725851117567"><ele>301.0</ele><time>2026-03-28T08:50:22Z</time></trkpt><trkpt lat="47.41083230248086" lon="6.526347082627288"><ele>301.0</ele><time>2026-03-28T08:50:23Z</time></trkpt><trkpt lat="47.410892338658726" lon="6.525974375101733"><ele>301.0</ele><time>2026-03-28T08:50:24Z</time></trkpt><trkpt lat="47.410952954967726" lon="6.525604731616797"><ele>301.0</ele><time>2026-03-28T08:50:25Z</time></trkpt><trkpt lat="47.411013740681554" lon="6.525236388374568"><ele>300.0</ele><time>2026-03-28T08:50:26Z</time></trkpt><trkpt lat="47.411075163705966" lon="6.524864805535316"><ele>299.0</ele><time>2026-03-28T08:50:27Z</time></trkpt><trkpt lat="47.4111353613879" lon="6.5244899252774875"><ele>298.5</ele><time>2026-03-28T08:50:28Z</time></trkpt><trkpt lat="47.41119276676001" lon="6.524112838434463"><ele>298.0</ele><time>2026-03-28T08:50:29Z</time></trkpt><trkpt lat="47.411250212247296" lon="6.523736677861844"><ele>298.0</ele><time>2026-03-28T08:50:30Z</time></trkpt><trkpt lat="47.411306733232685" lon="6.52336143183406"><ele>298.0</ele><time>2026-03-28T08:50:31Z</time></trkpt><trkpt lat="47.41136163085586" lon="6.5229932123667425"><ele>297.5</ele><time>2026-03-28T08:50:32Z</time></trkpt><trkpt lat="47.411415247652855" lon="6.522627808224994"><ele>297.0</ele><time>2026-03-28T08:50:33Z</time></trkpt><trkpt lat="47.41146984352694" lon="6.52226111134755"><ele>296.5</ele><time>2026-03-28T08:50:34Z</time></trkpt><trkpt lat="47.41152372564605" lon="6.521897517303221"><ele>296.0</ele><time>2026-03-28T08:50:35Z</time></trkpt><trkpt lat="47.411576675227025" lon="6.521534034510614"><ele>295.0</ele><time>2026-03-28T08:50:36Z</time></trkpt><trkpt lat="47.41162829341469" lon="6.5211728819170185"><ele>294.0</ele><time>2026-03-28T08:50:37Z</time></trkpt><trkpt lat="47.41168086269079" lon="6.520811669912958"><ele>294.0</ele><time>2026-03-28T08:50:38Z</time></trkpt><trkpt lat="47.411729859438886" lon="6.520455760224746"><ele>294.0</ele><time>2026-03-28T08:50:39Z</time></trkpt><trkpt lat="47.411776500988104" lon="6.520106490486925"><ele>292.5</ele><time>2026-03-28T08:50:40Z</time></trkpt><trkpt lat="47.41182423612357" lon="6.519754169763282"><ele>291.0</ele><time>2026-03-28T08:50:41Z</time></trkpt><trkpt lat="47.41187079034195" lon="6.5194057430440875"><ele>290.5</ele><time>2026-03-28T08:50:42Z</time></trkpt><trkpt lat="47.41191275493189" lon="6.519062926043417"><ele>290.0</ele><time>2026-03-28T08:50:43Z</time></trkpt><trkpt lat="47.41195308142752" lon="6.518723725405991"><ele>288.0</ele><time>2026-03-28T08:50:44Z</time></trkpt><trkpt lat="47.41198732806812" lon="6.5183926244590955"><ele>286.0</ele><time>2026-03-28T08:50:45Z</time></trkpt><trkpt lat="47.412019726794306" lon="6.518060808099564"><ele>284.0</ele><time>2026-03-28T08:50:46Z</time></trkpt><trkpt lat="47.41205072537966" lon="6.517727950595442"><ele>282.0</ele><time>2026-03-28T08:50:47Z</time></trkpt><trkpt lat="47.41208386136669" lon="6.517391085028607"><ele>280.5</ele><time>2026-03-28T08:50:48Z</time></trkpt><trkpt lat="47.41211439439202" lon="6.517051697755149"><ele>279.0</ele><time>2026-03-28T08:50:49Z</time></trkpt><trkpt lat="47.41213942051476" lon="6.516709694468632"><ele>278.0</ele><time>2026-03-28T08:50:50Z</time></trkpt><trkpt lat="47.41216226779233" lon="6.516369918648808"><ele>277.0</ele><time>2026-03-28T08:50:51Z</time></trkpt><trkpt lat="47.4121843729132" lon="6.516026835034651"><ele>277.0</ele><time>2026-03-28T08:50:52Z</time></trkpt><trkpt lat="47.41220298225285" lon="6.515690218582362"><ele>277.0</ele><time>2026-03-28T08:50:53Z</time></trkpt><trkpt lat="47.41221806340572" lon="6.515361713973895"><ele>277.3333333333333</ele><time>2026-03-28T08:50:54Z</time></trkpt><trkpt lat="47.41223057632172" lon="6.5150355878462145"><ele>277.6666666666667</ele><time>2026-03-28T08:50:55Z</time></trkpt><trkpt lat="47.41224592903229" lon="6.514708796807674"><ele>278.0</ele><time>2026-03-28T08:50:56Z</time></trkpt><trkpt lat="47.412258300337676" lon="6.514386664627084"><ele>278.6666666666667</ele><time>2026-03-28T08:50:57Z</time></trkpt><trkpt lat="47.41227164738044" lon="6.514059488753882"><ele>279.3333333333333</ele><time>2026-03-28T08:50:58Z</time></trkpt><trkpt lat="47.412276527354116" lon="6.513732264234849"><ele>280.0</ele><time>2026-03-28T08:50:59Z</time></trkpt><trkpt lat="47.412282400008664" lon="6.5134056915762475"><ele>280.0</ele><time>2026-03-28T08:51:00Z</time></trkpt><trkpt lat="47.412287296844845" lon="6.5130784665534005"><ele>280.0</ele><time>2026-03-28T08:51:01Z</time></trkpt><trkpt lat="47.41228981084832" lon="6.512749466529414"><ele>280.0</ele><time>2026-03-28T08:51:02Z</time></trkpt><trkpt lat="47.41228470551299" lon="6.512419058157599"><ele>280.0</ele><time>2026-03-28T08:51:03Z</time></trkpt><trkpt lat="47.41227884736522" lon="6.512084382220066"><ele>280.0</ele><time>2026-03-28T08:51:04Z</time></trkpt><trkpt lat="47.412272183103134" lon="6.511749039462002"><ele>285.5</ele><time>2026-03-28T08:51:05Z</time></trkpt><trkpt lat="47.41226312500972" lon="6.511418555479045"><ele>291.0</ele><time>2026-03-28T08:51:06Z</time></trkpt><trkpt lat="47.41224858102114" lon="6.511085298012088"><ele>295.5</ele><time>2026-03-28T08:51:07Z</time></trkpt><trkpt lat="47.4122326891083" lon="6.510755599226843"><ele>300.0</ele><time>2026-03-28T08:51:08Z</time></trkpt><trkpt lat="47.412213661842316" lon="6.510422163716368"><ele>303.0</ele><time>2026-03-28T08:51:09Z</time></trkpt><trkpt lat="47.412188440011775" lon="6.510084984783313"><ele>306.0</ele><time>2026-03-28T08:51:10Z</time></trkpt><trkpt lat="47.41216491828718" lon="6.509743667654391"><ele>306.5</ele><time>2026-03-28T08:51:11Z</time></trkpt><trkpt lat="47.41213469097468" lon="6.509400680923373"><ele>307.0</ele><time>2026-03-28T08:51:12Z</time></trkpt><trkpt lat="47.412092848742304" lon="6.5090617357554725"><ele>308.5</ele><time>2026-03-28T08:51:13Z</time></trkpt><trkpt lat="47.41204364196986" lon="6.508732693608961"><ele>310.0</ele><time>2026-03-28T08:51:14Z</time></trkpt><trkpt lat="47.411994187140515" lon="6.508411214475993"><ele>310.0</ele><time>2026-03-28T08:51:15Z</time></trkpt><trkpt lat="47.411935547471366" lon="6.508089610558951"><ele>310.0</ele><time>2026-03-28T08:51:16Z</time></trkpt><trkpt lat="47.41187629845234" lon="6.507767482107859"><ele>310.5</ele><time>2026-03-28T08:51:17Z</time></trkpt><trkpt lat="47.41180548582819" lon="6.507439434435335"><ele>311.0</ele><time>2026-03-28T08:51:18Z</time></trkpt><trkpt lat="47.41172948242885" lon="6.507113021068432"><ele>312.5</ele><time>2026-03-28T08:51:19Z</time></trkpt><trkpt lat="47.41164792443688" lon="6.506787656726615"><ele>314.0</ele><time>2026-03-28T08:51:20Z</time></trkpt><trkpt lat="47.41156138189412" lon="6.506469408310306"><ele>316.0</ele><time>2026-03-28T08:51:21Z</time></trkpt><trkpt lat="47.41146880964466" lon="6.506154147901646"><ele>318.0</ele><time>2026-03-28T08:51:22Z</time></trkpt><trkpt lat="47.41136931416467" lon="6.505838735035065"><ele>316.5</ele><time>2026-03-28T08:51:23Z</time></trkpt><trkpt lat="47.41126277903754" lon="6.5055255672971946"><ele>315.0</ele><time>2026-03-28T08:51:24Z</time></trkpt><trkpt lat="47.411151916633166" lon="6.505208903931872"><ele>313.5</ele><time>2026-03-28T08:51:25Z</time></trkpt><trkpt lat="47.4110359095481" lon="6.504894567622209"><ele>312.0</ele><time>2026-03-28T08:51:26Z</time></trkpt><trkpt lat="47.41091595006597" lon="6.504584597289556"><ele>312.0</ele><time>2026-03-28T08:51:27Z</time></trkpt><trkpt lat="47.410785958386484" lon="6.504273628130264"><ele>312.0</ele><time>2026-03-28T08:51:28Z</time></trkpt><trkpt lat="47.4106564180669" lon="6.503965348609625"><ele>312.0</ele><time>2026-03-28T08:51:29Z</time></trkpt><trkpt lat="47.410521523793776" lon="6.503656683874804"><ele>312.0</ele><time>2026-03-28T08:51:30Z</time></trkpt><trkpt lat="47.410378757100425" lon="6.5033510262348075"><ele>311.5</ele><time>2026-03-28T08:51:31Z</time></trkpt><trkpt lat="47.41023069849487" lon="6.503047678760494"><ele>311.0</ele><time>2026-03-28T08:51:32Z</time></trkpt><trkpt lat="47.41007578599754" lon="6.502741450044572"><ele>312.5</ele><time>2026-03-28T08:51:33Z</time></trkpt><trkpt lat="47.409920770334814" lon="6.5024372290234185"><ele>314.0</ele><time>2026-03-28T08:51:34Z</time></trkpt><trkpt lat="47.40975876190004" lon="6.502130056694431"><ele>313.0</ele><time>2026-03-28T08:51:35Z</time></trkpt><trkpt lat="47.40960038490837" lon="6.50182597973467"><ele>312.0</ele><time>2026-03-28T08:51:36Z</time></trkpt><trkpt lat="47.409437506971436" lon="6.50151862358196"><ele>312.0</ele><time>2026-03-28T08:51:37Z</time></trkpt><trkpt lat="47.40927653796803" lon="6.501207002986287"><ele>312.0</ele><time>2026-03-28T08:51:38Z</time></trkpt><trkpt lat="47.40911528793714" lon="6.500898067672337"><ele>312.0</ele><time>2026-03-28T08:51:39Z</time></trkpt><trkpt lat="47.40895202403112" lon="6.50058930196829"><ele>312.0</ele><time>2026-03-28T08:51:40Z</time></trkpt><trkpt lat="47.4087861752321" lon="6.500278235060778"><ele>312.5</ele><time>2026-03-28T08:51:41Z</time></trkpt><trkpt lat="47.4086250406783" lon="6.49996444714514"><ele>313.0</ele><time>2026-03-28T08:51:42Z</time></trkpt><trkpt lat="47.408458907628244" lon="6.499656126224657"><ele>314.5</ele><time>2026-03-28T08:51:43Z</time></trkpt><trkpt lat="47.40829550380365" lon="6.499339549318764"><ele>316.0</ele><time>2026-03-28T08:51:44Z</time></trkpt><trkpt lat="47.408130458424125" lon="6.499026564288416"><ele>316.5</ele><time>2026-03-28T08:51:45Z</time></trkpt><trkpt lat="47.407972853530275" lon="6.498708308578033"><ele>317.0</ele><time>2026-03-28T08:51:46Z</time></trkpt><trkpt lat="47.40780916483154" lon="6.498391581361635"><ele>317.0</ele><time>2026-03-28T08:51:47Z</time></trkpt><trkpt lat="47.40764433400469" lon="6.498073257361688"><ele>317.0</ele><time>2026-03-28T08:51:48Z</time></trkpt><trkpt lat="47.40748026512284" lon="6.4977509021574615"><ele>317.0</ele><time>2026-03-28T08:51:49Z</time></trkpt><trkpt lat="47.40731462736115" lon="6.497428893894184"><ele>317.0</ele><time>2026-03-28T08:51:50Z</time></trkpt><trkpt lat="47.4071528402284" lon="6.497106781163049"><ele>317.5</ele><time>2026-03-28T08:51:51Z</time></trkpt><trkpt lat="47.4069908375989" lon="6.496780487007328"><ele>318.0</ele><time>2026-03-28T08:51:52Z</time></trkpt><trkpt lat="47.406835755777344" lon="6.496450563938829"><ele>319.0</ele><time>2026-03-28T08:51:53Z</time></trkpt><trkpt lat="47.406688684517626" lon="6.49611250925754"><ele>320.0</ele><time>2026-03-28T08:51:54Z</time></trkpt><trkpt lat="47.406547391862766" lon="6.4957667196710895"><ele>319.5</ele><time>2026-03-28T08:51:55Z</time></trkpt><trkpt lat="47.40641985385888" lon="6.495412567621894"><ele>319.0</ele><time>2026-03-28T08:51:56Z</time></trkpt><trkpt lat="47.40630482730719" lon="6.495051039512979"><ele>319.0</ele><time>2026-03-28T08:51:57Z</time></trkpt><trkpt lat="47.406195956673464" lon="6.494677296987582"><ele>319.0</ele><time>2026-03-28T08:51:58Z</time></trkpt><trkpt lat="47.40610014349745" lon="6.494304151322076"><ele>320.0</ele><time>2026-03-28T08:51:59Z</time></trkpt><trkpt lat="47.40601439359469" lon="6.493923461851"><ele>321.0</ele><time>2026-03-28T08:52:00Z</time></trkpt><trkpt lat="47.40593647365088" lon="6.493536474423963"><ele>322.5</ele><time>2026-03-28T08:52:01Z</time></trkpt><trkpt lat="47.405871779619666" lon="6.493144906863882"><ele>324.0</ele><time>2026-03-28T08:52:02Z</time></trkpt><trkpt lat="47.40582037307991" lon="6.492754549424986"><ele>325.5</ele><time>2026-03-28T08:52:03Z</time></trkpt><trkpt lat="47.4057789733225" lon="6.492359522808127"><ele>327.0</ele><time>2026-03-28T08:52:04Z</time></trkpt><trkpt lat="47.405747330878505" lon="6.491960291256089"><ele>327.0</ele><time>2026-03-28T08:52:05Z</time></trkpt><trkpt lat="47.405725414226126" lon="6.491557443601295"><ele>327.0</ele><time>2026-03-28T08:52:06Z</time></trkpt><trkpt lat="47.40571892785951" lon="6.4911538870946535"><ele>326.5</ele><time>2026-03-28T08:52:07Z</time></trkpt><trkpt lat="47.40572246803935" lon="6.490756191578494"><ele>326.0</ele><time>2026-03-28T08:52:08Z</time></trkpt><trkpt lat="47.405742586623596" lon="6.49035782545358"><ele>325.0</ele><time>2026-03-28T08:52:09Z</time></trkpt><trkpt lat="47.40577245754618" lon="6.489955676423255"><ele>324.0</ele><time>2026-03-28T08:52:10Z</time></trkpt><trkpt lat="47.40581656959361" lon="6.489556388102492"><ele>323.5</ele><time>2026-03-28T08:52:11Z</time></trkpt><trkpt lat="47.405872304799416" lon="6.489160400052099"><ele>323.0</ele><time>2026-03-28T08:52:12Z</time></trkpt><trkpt lat="47.40593555318979" lon="6.488768806433694"><ele>320.0</ele><time>2026-03-28T08:52:13Z</time></trkpt><trkpt lat="47.4060139752105" lon="6.4883860273170875"><ele>317.0</ele><time>2026-03-28T08:52:14Z</time></trkpt><trkpt lat="47.40610355842722" lon="6.488007796347535"><ele>313.5</ele><time>2026-03-28T08:52:15Z</time></trkpt><trkpt lat="47.4062047956217" lon="6.4876352224770075"><ele>310.0</ele><time>2026-03-28T08:52:16Z</time></trkpt><trkpt lat="47.40631661704833" lon="6.4872742681904025"><ele>313.0</ele><time>2026-03-28T08:52:17Z</time></trkpt><trkpt lat="47.406442020957726" lon="6.48692498820381"><ele>316.0</ele><time>2026-03-28T08:52:18Z</time></trkpt><trkpt lat="47.40657620406035" lon="6.486585450205185"><ele>312.5</ele><time>2026-03-28T08:52:19Z</time></trkpt><trkpt lat="47.40671704102232" lon="6.48625238107474"><ele>309.0</ele><time>2026-03-28T08:52:20Z</time></trkpt><trkpt lat="47.406861580155514" lon="6.4859203897881335"><ele>309.0</ele><time>2026-03-28T08:52:21Z</time></trkpt><trkpt lat="47.40700108059236" lon="6.485584029301666"><ele>309.0</ele><time>2026-03-28T08:52:22Z</time></trkpt><trkpt lat="47.40713505474048" lon="6.485244663948418"><ele>310.0</ele><time>2026-03-28T08:52:23Z</time></trkpt><trkpt lat="47.407266092030746" lon="6.484904755360996"><ele>311.0</ele><time>2026-03-28T08:52:24Z</time></trkpt><trkpt lat="47.4073903435133" lon="6.484561500755291"><ele>311.0</ele><time>2026-03-28T08:52:25Z</time></trkpt><trkpt lat="47.40750662231674" lon="6.484208984520869"><ele>311.0</ele><time>2026-03-28T08:52:26Z</time></trkpt><trkpt lat="47.40760958866755" lon="6.483852496073193"><ele>311.0</ele><time>2026-03-28T08:52:27Z</time></trkpt><trkpt lat="47.407706047646066" lon="6.483490688376449"><ele>311.0</ele><time>2026-03-28T08:52:28Z</time></trkpt><trkpt lat="47.407791659029236" lon="6.483124460144416"><ele>312.5</ele><time>2026-03-28T08:52:29Z</time></trkpt><trkpt lat="47.40786354113384" lon="6.48275207172239"><ele>314.0</ele><time>2026-03-28T08:52:30Z</time></trkpt><trkpt lat="47.40792472249586" lon="6.482377086113802"><ele>316.0</ele><time>2026-03-28T08:52:31Z</time></trkpt><trkpt lat="47.407979946741555" lon="6.481995990748054"><ele>318.0</ele><time>2026-03-28T08:52:32Z</time></trkpt><trkpt lat="47.40801932547216" lon="6.481615291472174"><ele>320.5</ele><time>2026-03-28T08:52:33Z</time></trkpt><trkpt lat="47.4080479348848" lon="6.481233107320506"><ele>323.0</ele><time>2026-03-28T08:52:34Z</time></trkpt><trkpt lat="47.40806617043955" lon="6.4808462390897885"><ele>323.0</ele><time>2026-03-28T08:52:35Z</time></trkpt><trkpt lat="47.40807654125065" lon="6.480460211117488"><ele>323.0</ele><time>2026-03-28T08:52:36Z</time></trkpt><trkpt lat="47.40807468943597" lon="6.480071440917871"><ele>325.0</ele><time>2026-03-28T08:52:37Z</time></trkpt><trkpt lat="47.40806312887238" lon="6.479683062738063"><ele>327.0</ele><time>2026-03-28T08:52:38Z</time></trkpt><trkpt lat="47.408038699082105" lon="6.479296919986387"><ele>329.5</ele><time>2026-03-28T08:52:39Z</time></trkpt><trkpt lat="47.40800020392325" lon="6.478909976669432"><ele>332.0</ele><time>2026-03-28T08:52:40Z</time></trkpt><trkpt lat="47.40795491379949" lon="6.4785239138892114"><ele>332.0</ele><time>2026-03-28T08:52:41Z</time></trkpt><trkpt lat="47.40789845469601" lon="6.478140490461299"><ele>332.0</ele><time>2026-03-28T08:52:42Z</time></trkpt><trkpt lat="47.407831832831945" lon="6.4777609943304"><ele>332.0</ele><time>2026-03-28T08:52:43Z</time></trkpt><trkpt lat="47.40775600072098" lon="6.477382855023808"><ele>332.0</ele><time>2026-03-28T08:52:44Z</time></trkpt><trkpt lat="47.40766585390882" lon="6.477009253099731"><ele>334.5</ele><time>2026-03-28T08:52:45Z</time></trkpt><trkpt lat="47.407568422951556" lon="6.476645445066564"><ele>337.0</ele><time>2026-03-28T08:52:46Z</time></trkpt><trkpt lat="47.407460828881824" lon="6.476278585628019"><ele>338.5</ele><time>2026-03-28T08:52:47Z</time></trkpt><trkpt lat="47.407345686662275" lon="6.475917852261292"><ele>340.0</ele><time>2026-03-28T08:52:48Z</time></trkpt><trkpt lat="47.40722122278668" lon="6.475563304366516"><ele>341.5</ele><time>2026-03-28T08:52:49Z</time></trkpt><trkpt lat="47.40709782015919" lon="6.475206662185804"><ele>343.0</ele><time>2026-03-28T08:52:50Z</time></trkpt><trkpt lat="47.40697689228318" lon="6.4748566080897945"><ele>344.5</ele><time>2026-03-28T08:52:51Z</time></trkpt><trkpt lat="47.40685527394164" lon="6.474498701711207"><ele>346.0</ele><time>2026-03-28T08:52:52Z</time></trkpt><trkpt lat="47.406737891045566" lon="6.474141072233709"><ele>346.0</ele><time>2026-03-28T08:52:53Z</time></trkpt><trkpt lat="47.40662180624128" lon="6.4737820889435005"><ele>346.0</ele><time>2026-03-28T08:52:54Z</time></trkpt><trkpt lat="47.406512243019556" lon="6.473426213926479"><ele>349.5</ele><time>2026-03-28T08:52:55Z</time></trkpt><trkpt lat="47.40641010221797" lon="6.473058663876609"><ele>353.0</ele><time>2026-03-28T08:52:56Z</time></trkpt><trkpt lat="47.406318327191165" lon="6.4726883749303505"><ele>353.5</ele><time>2026-03-28T08:52:57Z</time></trkpt><trkpt lat="47.40623636692561" lon="6.472316005787895"><ele>354.0</ele><time>2026-03-28T08:52:58Z</time></trkpt><trkpt lat="47.406160054985044" lon="6.471943181655124"><ele>354.5</ele><time>2026-03-28T08:52:59Z</time></trkpt><trkpt lat="47.406092881367535" lon="6.471569206094917"><ele>355.0</ele><time>2026-03-28T08:53:00Z</time></trkpt><trkpt lat="47.40603257289773" lon="6.471188716800142"><ele>356.0</ele><time>2026-03-28T08:53:01Z</time></trkpt><trkpt lat="47.405980359022294" lon="6.470813124864991"><ele>357.0</ele><time>2026-03-28T08:53:02Z</time></trkpt><trkpt lat="47.40593672530649" lon="6.470432629330295"><ele>357.5</ele><time>2026-03-28T08:53:03Z</time></trkpt><trkpt lat="47.405897914401905" lon="6.470049382147671"><ele>358.0</ele><time>2026-03-28T08:53:04Z</time></trkpt><trkpt lat="47.40587219931066" lon="6.469665501168827"><ele>357.5</ele><time>2026-03-28T08:53:05Z</time></trkpt><trkpt lat="47.40585200680099" lon="6.469278072608995"><ele>357.0</ele><time>2026-03-28T08:53:06Z</time></trkpt><trkpt lat="47.405834897774184" lon="6.46889294269326"><ele>357.5</ele><time>2026-03-28T08:53:07Z</time></trkpt><trkpt lat="47.405827774085886" lon="6.468506417370666"><ele>358.0</ele><time>2026-03-28T08:53:08Z</time></trkpt><trkpt lat="47.40582578610738" lon="6.46811750177623"><ele>360.0</ele><time>2026-03-28T08:53:09Z</time></trkpt><trkpt lat="47.40583222855272" lon="6.467725245658046"><ele>362.0</ele><time>2026-03-28T08:53:10Z</time></trkpt><trkpt lat="47.40584611215894" lon="6.467337368703665"><ele>364.5</ele><time>2026-03-28T08:53:11Z</time></trkpt><trkpt lat="47.40587457085321" lon="6.466950517859915"><ele>367.0</ele><time>2026-03-28T08:53:12Z</time></trkpt><trkpt lat="47.4059045873101" lon="6.4665611229673425"><ele>367.5</ele><time>2026-03-28T08:53:13Z</time></trkpt><trkpt lat="47.40594499123462" lon="6.466173892379655"><ele>368.0</ele><time>2026-03-28T08:53:14Z</time></trkpt><trkpt lat="47.40599004189459" lon="6.465787360638695"><ele>369.5</ele><time>2026-03-28T08:53:15Z</time></trkpt><trkpt lat="47.406041332285454" lon="6.465402852884191"><ele>371.0</ele><time>2026-03-28T08:53:16Z</time></trkpt><trkpt lat="47.40610563013925" lon="6.4650248082655315"><ele>371.0</ele><time>2026-03-28T08:53:17Z</time></trkpt><trkpt lat="47.406169439631086" lon="6.464642572503819"><ele>371.0</ele><time>2026-03-28T08:53:18Z</time></trkpt><trkpt lat="47.406245283851966" lon="6.464268061251386"><ele>372.0</ele><time>2026-03-28T08:53:19Z</time></trkpt><trkpt lat="47.40632225450088" lon="6.463891050260926"><ele>373.0</ele><time>2026-03-28T08:53:20Z</time></trkpt><trkpt lat="47.4064026128149" lon="6.463517284602195"><ele>373.5</ele><time>2026-03-28T08:53:21Z</time></trkpt><trkpt lat="47.406484598293765" lon="6.463144640989971"><ele>374.0</ele><time>2026-03-28T08:53:22Z</time></trkpt><trkpt lat="47.40657028094616" lon="6.462769382849863"><ele>377.0</ele><time>2026-03-28T08:53:23Z</time></trkpt><trkpt lat="47.40666027711327" lon="6.462395060184044"><ele>380.0</ele><time>2026-03-28T08:53:24Z</time></trkpt><trkpt lat="47.40674763797682" lon="6.46201870706464"><ele>381.0</ele><time>2026-03-28T08:53:25Z</time></trkpt><trkpt lat="47.406834992641414" lon="6.461643771038116"><ele>382.0</ele><time>2026-03-28T08:53:26Z</time></trkpt><trkpt lat="47.40692124567174" lon="6.461269143044194"><ele>385.0</ele><time>2026-03-28T08:53:27Z</time></trkpt><trkpt lat="47.40700713436638" lon="6.460893624081771"><ele>388.0</ele><time>2026-03-28T08:53:28Z</time></trkpt><trkpt lat="47.40709166815512" lon="6.460517216198747"><ele>386.0</ele><time>2026-03-28T08:53:29Z</time></trkpt><trkpt lat="47.40717243442348" lon="6.460136451207101"><ele>384.0</ele><time>2026-03-28T08:53:30Z</time></trkpt><trkpt lat="47.40725075375077" lon="6.45975672337429"><ele>386.0</ele><time>2026-03-28T08:53:31Z</time></trkpt><trkpt lat="47.40732377545547" lon="6.459379092966703"><ele>388.0</ele><time>2026-03-28T08:53:32Z</time></trkpt><trkpt lat="47.40739552581766" lon="6.458998704649748"><ele>389.5</ele><time>2026-03-28T08:53:33Z</time></trkpt><trkpt lat="47.40746327782735" lon="6.458616309862272"><ele>391.0</ele><time>2026-03-28T08:53:34Z</time></trkpt><trkpt lat="47.40752619644079" lon="6.458232380244733"><ele>391.5</ele><time>2026-03-28T08:53:35Z</time></trkpt><trkpt lat="47.4075808259822" lon="6.457847603802632"><ele>392.0</ele><time>2026-03-28T08:53:36Z</time></trkpt><trkpt lat="47.40762966284007" lon="6.4574605786268195"><ele>393.0</ele><time>2026-03-28T08:53:37Z</time></trkpt><trkpt lat="47.407671032732836" lon="6.457072743255111"><ele>394.0</ele><time>2026-03-28T08:53:38Z</time></trkpt><trkpt lat="47.40770954520253" lon="6.456681749970959"><ele>394.0</ele><time>2026-03-28T08:53:39Z</time></trkpt><trkpt lat="47.407746183080086" lon="6.4562899217194785"><ele>394.0</ele><time>2026-03-28T08:53:40Z</time></trkpt><trkpt lat="47.40777579672353" lon="6.455896435041131"><ele>394.5</ele><time>2026-03-28T08:53:41Z</time></trkpt><trkpt lat="47.40779825772862" lon="6.455502786744762"><ele>395.0</ele><time>2026-03-28T08:53:42Z</time></trkpt><trkpt lat="47.40781243079373" lon="6.455109441573486"><ele>395.5</ele><time>2026-03-28T08:53:43Z</time></trkpt><trkpt lat="47.40781633804913" lon="6.454716071776634"><ele>396.0</ele><time>2026-03-28T08:53:44Z</time></trkpt><trkpt lat="47.40781414612681" lon="6.45432404757625"><ele>398.5</ele><time>2026-03-28T08:53:45Z</time></trkpt><trkpt lat="47.40780454461278" lon="6.453928199374105"><ele>401.0</ele><time>2026-03-28T08:53:46Z</time></trkpt><trkpt lat="47.40778831081497" lon="6.4535383400737265"><ele>402.0</ele><time>2026-03-28T08:53:47Z</time></trkpt><trkpt lat="47.4077627713608" lon="6.453151130065771"><ele>403.0</ele><time>2026-03-28T08:53:48Z</time></trkpt><trkpt lat="47.407730851736176" lon="6.452762553697407"><ele>404.5</ele><time>2026-03-28T08:53:49Z</time></trkpt><trkpt lat="47.40769029342953" lon="6.452376327080501"><ele>406.0</ele><time>2026-03-28T08:53:50Z</time></trkpt><trkpt lat="47.40764113023851" lon="6.451993159078209"><ele>407.0</ele><time>2026-03-28T08:53:51Z</time></trkpt><trkpt lat="47.40758582364894" lon="6.45161209294526"><ele>408.0</ele><time>2026-03-28T08:53:52Z</time></trkpt><trkpt lat="47.40752160034172" lon="6.451232270718749"><ele>408.5</ele><time>2026-03-28T08:53:53Z</time></trkpt><trkpt lat="47.40745280190023" lon="6.450866352101283"><ele>409.0</ele><time>2026-03-28T08:53:54Z</time></trkpt><trkpt lat="47.407375509347936" lon="6.4505040961964175"><ele>409.5</ele><time>2026-03-28T08:53:55Z</time></trkpt><trkpt lat="47.40728894375811" lon="6.450143014588832"><ele>410.0</ele><time>2026-03-28T08:53:56Z</time></trkpt><trkpt lat="47.40720016849984" lon="6.449788207013538"><ele>409.5</ele><time>2026-03-28T08:53:57Z</time></trkpt><trkpt lat="47.407107820703544" lon="6.449445509357367"><ele>409.0</ele><time>2026-03-28T08:53:58Z</time></trkpt><trkpt lat="47.40700588529548" lon="6.449105232535592"><ele>414.0</ele><time>2026-03-28T08:53:59Z</time></trkpt><trkpt lat="47.406896324235824" lon="6.448765233886266"><ele>419.0</ele><time>2026-03-28T08:54:00Z</time></trkpt><trkpt lat="47.40677915710595" lon="6.448428291320365"><ele>419.0</ele><time>2026-03-28T08:54:01Z</time></trkpt><trkpt lat="47.40665743629345" lon="6.448101689974001"><ele>419.0</ele><time>2026-03-28T08:54:02Z</time></trkpt><trkpt lat="47.40653141479255" lon="6.447779295759016"><ele>421.5</ele><time>2026-03-28T08:54:03Z</time></trkpt><trkpt lat="47.406398950440035" lon="6.447465974309254"><ele>424.0</ele><time>2026-03-28T08:54:04Z</time></trkpt><trkpt lat="47.40626738851305" lon="6.447161836003814"><ele>423.0</ele><time>2026-03-28T08:54:05Z</time></trkpt><trkpt lat="47.406130646071915" lon="6.446865747228846"><ele>422.0</ele><time>2026-03-28T08:54:06Z</time></trkpt><trkpt lat="47.40598514810841" lon="6.4465742557851575"><ele>422.0</ele><time>2026-03-28T08:54:07Z</time></trkpt><trkpt lat="47.405840563502814" lon="6.446298803486222"><ele>422.0</ele><time>2026-03-28T08:54:08Z</time></trkpt><trkpt lat="47.40568832016205" lon="6.4460265165831"><ele>421.5</ele><time>2026-03-28T08:54:09Z</time></trkpt><trkpt lat="47.40552366248309" lon="6.445757727616626"><ele>421.0</ele><time>2026-03-28T08:54:10Z</time></trkpt><trkpt lat="47.405359513012655" lon="6.445493825279871"><ele>420.5</ele><time>2026-03-28T08:54:11Z</time></trkpt><trkpt lat="47.4051874410826" lon="6.445229394682535"><ele>420.0</ele><time>2026-03-28T08:54:12Z</time></trkpt><trkpt lat="47.405014788581155" lon="6.444977235112096"><ele>420.0</ele><time>2026-03-28T08:54:13Z</time></trkpt><trkpt lat="47.404837888412054" lon="6.444735922955208"><ele>420.0</ele><time>2026-03-28T08:54:14Z</time></trkpt><trkpt lat="47.404650854085745" lon="6.444493852090371"><ele>421.0</ele><time>2026-03-28T08:54:15Z</time></trkpt><trkpt lat="47.404461508625886" lon="6.444259977255394"><ele>422.0</ele><time>2026-03-28T08:54:16Z</time></trkpt><trkpt lat="47.40427204883127" lon="6.444030933335524"><ele>422.0</ele><time>2026-03-28T08:54:17Z</time></trkpt><trkpt lat="47.40408199044704" lon="6.4437984178649135"><ele>422.0</ele><time>2026-03-28T08:54:18Z</time></trkpt><trkpt lat="47.40389216902938" lon="6.443567238524544"><ele>423.5</ele><time>2026-03-28T08:54:19Z</time></trkpt><trkpt lat="47.403703106173175" lon="6.44333010278968"><ele>425.0</ele><time>2026-03-28T08:54:20Z</time></trkpt><trkpt lat="47.40351446295597" lon="6.443089714144785"><ele>422.5</ele><time>2026-03-28T08:54:21Z</time></trkpt><trkpt lat="47.40333334123419" lon="6.442840192689942"><ele>420.0</ele><time>2026-03-28T08:54:22Z</time></trkpt><trkpt lat="47.403159795326744" lon="6.442583851934657"><ele>422.5</ele><time>2026-03-28T08:54:23Z</time></trkpt><trkpt lat="47.40298985099078" lon="6.442318217151055"><ele>425.0</ele><time>2026-03-28T08:54:24Z</time></trkpt><trkpt lat="47.402829035605926" lon="6.442046456995385"><ele>425.0</ele><time>2026-03-28T08:54:25Z</time></trkpt><trkpt lat="47.40267147534712" lon="6.44176683817191"><ele>425.0</ele><time>2026-03-28T08:54:26Z</time></trkpt><trkpt lat="47.402521769048036" lon="6.441483696679733"><ele>425.0</ele><time>2026-03-28T08:54:27Z</time></trkpt><trkpt lat="47.40236877507701" lon="6.441188624300706"><ele>425.0</ele><time>2026-03-28T08:54:28Z</time></trkpt><trkpt lat="47.40221884613211" lon="6.440889776111937"><ele>424.5</ele><time>2026-03-28T08:54:29Z</time></trkpt><trkpt lat="47.40206928006686" lon="6.440590100432118"><ele>424.0</ele><time>2026-03-28T08:54:30Z</time></trkpt><trkpt lat="47.40191200669682" lon="6.440290455689114"><ele>424.0</ele><time>2026-03-28T08:54:31Z</time></trkpt><trkpt lat="47.40175041501941" lon="6.439994621918571"><ele>424.0</ele><time>2026-03-28T08:54:32Z</time></trkpt><trkpt lat="47.40158467696812" lon="6.439700239213611"><ele>424.0</ele><time>2026-03-28T08:54:33Z</time></trkpt><trkpt lat="47.40141046296373" lon="6.439410676856443"><ele>424.0</ele><time>2026-03-28T08:54:34Z</time></trkpt><trkpt lat="47.40123099943856" lon="6.43913360671642"><ele>424.0</ele><time>2026-03-28T08:54:35Z</time></trkpt><trkpt lat="47.40104257815739" lon="6.4388733794885304"><ele>424.0</ele><time>2026-03-28T08:54:36Z</time></trkpt><trkpt lat="47.40084534567184" lon="6.438624396846394"><ele>425.0</ele><time>2026-03-28T08:54:37Z</time></trkpt><trkpt lat="47.400635282982286" lon="6.438384894932308"><ele>426.0</ele><time>2026-03-28T08:54:38Z</time></trkpt><trkpt lat="47.40042088516007" lon="6.438161423275473"><ele>427.0</ele><time>2026-03-28T08:54:39Z</time></trkpt><trkpt lat="47.400203030888925" lon="6.4379411987568105"><ele>428.0</ele><time>2026-03-28T08:54:40Z</time></trkpt><trkpt lat="47.39997360520421" lon="6.4377363471613736"><ele>428.0</ele><time>2026-03-28T08:54:41Z</time></trkpt><trkpt lat="47.399736795097716" lon="6.437539668675652"><ele>428.0</ele><time>2026-03-28T08:54:42Z</time></trkpt><trkpt lat="47.39949139759441" lon="6.437361317244488"><ele>430.0</ele><time>2026-03-28T08:54:43Z</time></trkpt><trkpt lat="47.399242427304664" lon="6.4371961038854115"><ele>432.0</ele><time>2026-03-28T08:54:44Z</time></trkpt><trkpt lat="47.39899074903219" lon="6.437035549793624"><ele>430.5</ele><time>2026-03-28T08:54:45Z</time></trkpt><trkpt lat="47.39873589221639" lon="6.436883935485699"><ele>429.0</ele><time>2026-03-28T08:54:46Z</time></trkpt><trkpt lat="47.39848309035484" lon="6.436729922302537"><ele>429.0</ele><time>2026-03-28T08:54:47Z</time></trkpt><trkpt lat="47.398229171223605" lon="6.436581441334231"><ele>429.0</ele><time>2026-03-28T08:54:48Z</time></trkpt><trkpt lat="47.39797894777512" lon="6.436424633588596"><ele>429.0</ele><time>2026-03-28T08:54:49Z</time></trkpt><trkpt lat="47.397729811619804" lon="6.436258149490845"><ele>429.0</ele><time>2026-03-28T08:54:50Z</time></trkpt><trkpt lat="47.397485617609895" lon="6.436076880138843"><ele>429.0</ele><time>2026-03-28T08:54:51Z</time></trkpt><trkpt lat="47.39724830899856" lon="6.4358805972841475"><ele>429.0</ele><time>2026-03-28T08:54:52Z</time></trkpt><trkpt lat="47.3970168167238" lon="6.435670775143113"><ele>428.0</ele><time>2026-03-28T08:54:53Z</time></trkpt><trkpt lat="47.39679216034093" lon="6.435445079815083"><ele>427.0</ele><time>2026-03-28T08:54:54Z</time></trkpt><trkpt lat="47.39657626151443" lon="6.435205039666687"><ele>427.0</ele><time>2026-03-28T08:54:55Z</time></trkpt><trkpt lat="47.39636483079928" lon="6.434955722431818"><ele>427.0</ele><time>2026-03-28T08:54:56Z</time></trkpt><trkpt lat="47.39616328233729" lon="6.434692779084971"><ele>426.0</ele><time>2026-03-28T08:54:57Z</time></trkpt><trkpt lat="47.395967966171376" lon="6.434414682022759"><ele>425.0</ele><time>2026-03-28T08:54:58Z</time></trkpt><trkpt lat="47.39577936820264" lon="6.43412813918165"><ele>425.0</ele><time>2026-03-28T08:54:59Z</time></trkpt><trkpt lat="47.3955935017076" lon="6.433835713895852"><ele>425.0</ele><time>2026-03-28T08:55:00Z</time></trkpt><trkpt lat="47.395412795171694" lon="6.433536865797645"><ele>425.0</ele><time>2026-03-28T08:55:01Z</time></trkpt><trkpt lat="47.39523858478528" lon="6.433234250675695"><ele>425.0</ele><time>2026-03-28T08:55:02Z</time></trkpt><trkpt lat="47.39506780533381" lon="6.432938056297177"><ele>423.5</ele><time>2026-03-28T08:55:03Z</time></trkpt><trkpt lat="47.39489387919734" lon="6.432644991139665"><ele>422.0</ele><time>2026-03-28T08:55:04Z</time></trkpt><trkpt lat="47.394717610988124" lon="6.432351810202539"><ele>419.5</ele><time>2026-03-28T08:55:05Z</time></trkpt><trkpt lat="47.39452578572444" lon="6.432065525691901"><ele>417.0</ele><time>2026-03-28T08:55:06Z</time></trkpt><trkpt lat="47.394320554765805" lon="6.431797799150071"><ele>417.0</ele><time>2026-03-28T08:55:07Z</time></trkpt><trkpt lat="47.39411221879689" lon="6.431544165342927"><ele>417.0</ele><time>2026-03-28T08:55:08Z</time></trkpt><trkpt lat="47.39389432644439" lon="6.431315619820559"><ele>416.5</ele><time>2026-03-28T08:55:09Z</time></trkpt><trkpt lat="47.39367128781068" lon="6.431100206661489"><ele>416.0</ele><time>2026-03-28T08:55:10Z</time></trkpt><trkpt lat="47.39344590138549" lon="6.430891413634837"><ele>416.0</ele><time>2026-03-28T08:55:11Z</time></trkpt><trkpt lat="47.39321268624736" lon="6.430703279446247"><ele>416.0</ele><time>2026-03-28T08:55:12Z</time></trkpt><trkpt lat="47.39297103425123" lon="6.430527934235438"><ele>417.0</ele><time>2026-03-28T08:55:13Z</time></trkpt><trkpt lat="47.392727773109016" lon="6.4303653323485355"><ele>418.0</ele><time>2026-03-28T08:55:14Z</time></trkpt><trkpt lat="47.392483349049165" lon="6.430217780134558"><ele>418.0</ele><time>2026-03-28T08:55:15Z</time></trkpt><trkpt lat="47.39223282075635" lon="6.43008543509229"><ele>418.0</ele><time>2026-03-28T08:55:16Z</time></trkpt><trkpt lat="47.391979656411856" lon="6.429967951566353"><ele>418.0</ele><time>2026-03-28T08:55:17Z</time></trkpt><trkpt lat="47.391721675061596" lon="6.429867987076345"><ele>418.0</ele><time>2026-03-28T08:55:18Z</time></trkpt><trkpt lat="47.391463589867705" lon="6.42978164876879"><ele>417.0</ele><time>2026-03-28T08:55:19Z</time></trkpt><trkpt lat="47.39120472408671" lon="6.429709762335138"><ele>416.0</ele><time>2026-03-28T08:55:20Z</time></trkpt><trkpt lat="47.390943055455175" lon="6.4296549631556"><ele>420.5</ele><time>2026-03-28T08:55:21Z</time></trkpt><trkpt lat="47.39068125617107" lon="6.429613636721486"><ele>425.0</ele><time>2026-03-28T08:55:22Z</time></trkpt><trkpt lat="47.39041644456129" lon="6.429577298918345"><ele>425.0</ele><time>2026-03-28T08:55:23Z</time></trkpt><trkpt lat="47.39015337200158" lon="6.429538056879606"><ele>425.0</ele><time>2026-03-28T08:55:24Z</time></trkpt><trkpt lat="47.38988813681999" lon="6.429496410047227"><ele>423.0</ele><time>2026-03-28T08:55:25Z</time></trkpt><trkpt lat="47.38962463631899" lon="6.429451757973833"><ele>421.0</ele><time>2026-03-28T08:55:26Z</time></trkpt><trkpt lat="47.389360436685465" lon="6.429401054876391"><ele>421.0</ele><time>2026-03-28T08:55:27Z</time></trkpt><trkpt lat="47.389097264826624" lon="6.429340019005329"><ele>421.0</ele><time>2026-03-28T08:55:28Z</time></trkpt><trkpt lat="47.38883567370539" lon="6.429264093313004"><ele>418.5</ele><time>2026-03-28T08:55:29Z</time></trkpt><trkpt lat="47.38857608773818" lon="6.42917427950838"><ele>416.0</ele><time>2026-03-28T08:55:30Z</time></trkpt><trkpt lat="47.38831927581045" lon="6.429070974271156"><ele>416.0</ele><time>2026-03-28T08:55:31Z</time></trkpt><trkpt lat="47.388065980486076" lon="6.42895137903302"><ele>416.0</ele><time>2026-03-28T08:55:32Z</time></trkpt><trkpt lat="47.387812898767024" lon="6.428819201456773"><ele>415.5</ele><time>2026-03-28T08:55:33Z</time></trkpt><trkpt lat="47.38756512536281" lon="6.428673612248854"><ele>415.0</ele><time>2026-03-28T08:55:34Z</time></trkpt><trkpt lat="47.38731880038139" lon="6.428515227472358"><ele>413.5</ele><time>2026-03-28T08:55:35Z</time></trkpt><trkpt lat="47.3870768416094" lon="6.428340394053418"><ele>412.0</ele><time>2026-03-28T08:55:36Z</time></trkpt><trkpt lat="47.38683752860113" lon="6.428149415645059"><ele>414.0</ele><time>2026-03-28T08:55:37Z</time></trkpt><trkpt lat="47.3866042721956" lon="6.42794732473391"><ele>416.0</ele><time>2026-03-28T08:55:38Z</time></trkpt><trkpt lat="47.38637683181988" lon="6.4277328261012245"><ele>414.0</ele><time>2026-03-28T08:55:39Z</time></trkpt><trkpt lat="47.386155927506785" lon="6.427500522325464"><ele>412.0</ele><time>2026-03-28T08:55:40Z</time></trkpt><trkpt lat="47.38594135478479" lon="6.427255776291011"><ele>413.0</ele><time>2026-03-28T08:55:41Z</time></trkpt><trkpt lat="47.38573109622802" lon="6.426999088212497"><ele>414.0</ele><time>2026-03-28T08:55:42Z</time></trkpt><trkpt lat="47.385526830477325" lon="6.426733300941208"><ele>413.0</ele><time>2026-03-28T08:55:43Z</time></trkpt><trkpt lat="47.38533259919946" lon="6.426456101236361"><ele>412.0</ele><time>2026-03-28T08:55:44Z</time></trkpt><trkpt lat="47.3851447968887" lon="6.426167155442269"><ele>410.0</ele><time>2026-03-28T08:55:45Z</time></trkpt><trkpt lat="47.384964477644544" lon="6.425866228804601"><ele>408.0</ele><time>2026-03-28T08:55:46Z</time></trkpt><trkpt lat="47.38478982799278" lon="6.4255546096569365"><ele>405.5</ele><time>2026-03-28T08:55:47Z</time></trkpt><trkpt lat="47.38462372627567" lon="6.425236973807055"><ele>403.0</ele><time>2026-03-28T08:55:48Z</time></trkpt><trkpt lat="47.3844685057449" lon="6.424910425450221"><ele>401.0</ele><time>2026-03-28T08:55:49Z</time></trkpt><trkpt lat="47.38431821031567" lon="6.424573554296611"><ele>399.0</ele><time>2026-03-28T08:55:50Z</time></trkpt><trkpt lat="47.38417708120238" lon="6.424228040225152"><ele>399.0</ele><time>2026-03-28T08:55:51Z</time></trkpt><trkpt lat="47.384049949638275" lon="6.423875412676892"><ele>399.0</ele><time>2026-03-28T08:55:52Z</time></trkpt><trkpt lat="47.38392775695805" lon="6.423514184943174"><ele>397.5</ele><time>2026-03-28T08:55:53Z</time></trkpt><trkpt lat="47.383816798561064" lon="6.423149309779474"><ele>396.0</ele><time>2026-03-28T08:55:54Z</time></trkpt><trkpt lat="47.38371275574764" lon="6.422778690775676"><ele>391.5</ele><time>2026-03-28T08:55:55Z</time></trkpt><trkpt lat="47.383619193017964" lon="6.422402976311219"><ele>387.0</ele><time>2026-03-28T08:55:56Z</time></trkpt><trkpt lat="47.38353862940522" lon="6.422025966429621"><ele>385.5</ele><time>2026-03-28T08:55:57Z</time></trkpt><trkpt lat="47.38346507839375" lon="6.421645797690348"><ele>384.0</ele><time>2026-03-28T08:55:58Z</time></trkpt><trkpt lat="47.38340418018805" lon="6.421265784477311"><ele>384.0</ele><time>2026-03-28T08:55:59Z</time></trkpt><trkpt lat="47.3833517505897" lon="6.420882352211377"><ele>384.0</ele><time>2026-03-28T08:56:00Z</time></trkpt><trkpt lat="47.38331184153029" lon="6.420497976424932"><ele>385.0</ele><time>2026-03-28T08:56:01Z</time></trkpt><trkpt lat="47.38328052467758" lon="6.4201100287832915"><ele>386.0</ele><time>2026-03-28T08:56:02Z</time></trkpt><trkpt lat="47.3832595458658" lon="6.419717787871485"><ele>387.5</ele><time>2026-03-28T08:56:03Z</time></trkpt><trkpt lat="47.38324630276439" lon="6.4193331836913705"><ele>389.0</ele><time>2026-03-28T08:56:04Z</time></trkpt><trkpt lat="47.38323788935759" lon="6.418948135145013"><ele>390.5</ele><time>2026-03-28T08:56:05Z</time></trkpt><trkpt lat="47.38323463720571" lon="6.418562357514259"><ele>392.0</ele><time>2026-03-28T08:56:06Z</time></trkpt><trkpt lat="47.3832326172478" lon="6.418176591046066"><ele>393.0</ele><time>2026-03-28T08:56:07Z</time></trkpt><trkpt lat="47.38322824074276" lon="6.417789313075905"><ele>394.0</ele><time>2026-03-28T08:56:08Z</time></trkpt><trkpt lat="47.383227789486256" lon="6.417402425782994"><ele>396.5</ele><time>2026-03-28T08:56:09Z</time></trkpt><trkpt lat="47.38322921837372" lon="6.417019758188784"><ele>399.0</ele><time>2026-03-28T08:56:10Z</time></trkpt><trkpt lat="47.38322357018544" lon="6.416635472711404"><ele>403.0</ele><time>2026-03-28T08:56:11Z</time></trkpt><trkpt lat="47.383213861570056" lon="6.416250221649195"><ele>407.0</ele><time>2026-03-28T08:56:12Z</time></trkpt><trkpt lat="47.38321153624819" lon="6.415867217256285"><ele>408.5</ele><time>2026-03-28T08:56:13Z</time></trkpt><trkpt lat="47.38320072827788" lon="6.415480845540556"><ele>410.0</ele><time>2026-03-28T08:56:14Z</time></trkpt><trkpt lat="47.38318241143471" lon="6.415091560843867"><ele>410.0</ele><time>2026-03-28T08:56:15Z</time></trkpt><trkpt lat="47.38316401840501" lon="6.414703174459646"><ele>410.0</ele><time>2026-03-28T08:56:16Z</time></trkpt><trkpt lat="47.383143200947025" lon="6.414312953077065"><ele>411.0</ele><time>2026-03-28T08:56:17Z</time></trkpt><trkpt lat="47.38311908692772" lon="6.413921127495876"><ele>412.0</ele><time>2026-03-28T08:56:18Z</time></trkpt><trkpt lat="47.38308852995533" lon="6.4135222575529145"><ele>412.0</ele><time>2026-03-28T08:56:19Z</time></trkpt><trkpt lat="47.3830515446657" lon="6.413133083829573"><ele>412.0</ele><time>2026-03-28T08:56:20Z</time></trkpt><trkpt lat="47.38301493910396" lon="6.4127412266328685"><ele>412.5</ele><time>2026-03-28T08:56:21Z</time></trkpt><trkpt lat="47.382970625244255" lon="6.412349966242898"><ele>413.0</ele><time>2026-03-28T08:56:22Z</time></trkpt><trkpt lat="47.38292073575494" lon="6.411959581293259"><ele>413.0</ele><time>2026-03-28T08:56:23Z</time></trkpt><trkpt lat="47.382868609208586" lon="6.411570839671644"><ele>413.0</ele><time>2026-03-28T08:56:24Z</time></trkpt><trkpt lat="47.38281772277478" lon="6.411182827625358"><ele>414.5</ele><time>2026-03-28T08:56:25Z</time></trkpt><trkpt lat="47.38276293105588" lon="6.410790686611555"><ele>416.0</ele><time>2026-03-28T08:56:26Z</time></trkpt><trkpt lat="47.382702550600385" lon="6.410400910452008"><ele>419.5</ele><time>2026-03-28T08:56:27Z</time></trkpt><trkpt lat="47.38263888817102" lon="6.410013575584983"><ele>423.0</ele><time>2026-03-28T08:56:28Z</time></trkpt><trkpt lat="47.38257000502679" lon="6.4096318001728685"><ele>424.5</ele><time>2026-03-28T08:56:29Z</time></trkpt><trkpt lat="47.382498553322904" lon="6.40925064926087"><ele>426.0</ele><time>2026-03-28T08:56:30Z</time></trkpt><trkpt lat="47.3824211089833" lon="6.408871414970258"><ele>426.0</ele><time>2026-03-28T08:56:31Z</time></trkpt><trkpt lat="47.382338584899735" lon="6.408491494894012"><ele>426.0</ele><time>2026-03-28T08:56:32Z</time></trkpt><trkpt lat="47.38225020551412" lon="6.408116994469058"><ele>428.5</ele><time>2026-03-28T08:56:33Z</time></trkpt><trkpt lat="47.382161434843724" lon="6.407738479349696"><ele>431.0</ele><time>2026-03-28T08:56:34Z</time></trkpt><trkpt lat="47.38207049705183" lon="6.407367327420352"><ele>428.5</ele><time>2026-03-28T08:56:35Z</time></trkpt><trkpt lat="47.38197532929711" lon="6.4069964072353764"><ele>426.0</ele><time>2026-03-28T08:56:36Z</time></trkpt><trkpt lat="47.38187350895282" lon="6.406633728378514"><ele>427.0</ele><time>2026-03-28T08:56:37Z</time></trkpt><trkpt lat="47.381775959551284" lon="6.4062739856969"><ele>428.0</ele><time>2026-03-28T08:56:38Z</time></trkpt><trkpt lat="47.38166795449173" lon="6.405912755389272"><ele>428.0</ele><time>2026-03-28T08:56:39Z</time></trkpt><trkpt lat="47.38155579407194" lon="6.405554628020386"><ele>428.0</ele><time>2026-03-28T08:56:40Z</time></trkpt><trkpt lat="47.38144268090942" lon="6.4051969943870635"><ele>430.0</ele><time>2026-03-28T08:56:41Z</time></trkpt><trkpt lat="47.38133094782523" lon="6.4048408106070065"><ele>432.0</ele><time>2026-03-28T08:56:42Z</time></trkpt><trkpt lat="47.38121016917747" lon="6.404490602645118"><ele>432.0</ele><time>2026-03-28T08:56:43Z</time></trkpt><trkpt lat="47.38108914595953" lon="6.404141053484444"><ele>432.0</ele><time>2026-03-28T08:56:44Z</time></trkpt><trkpt lat="47.38096343664499" lon="6.4037942101067244"><ele>432.0</ele><time>2026-03-28T08:56:45Z</time></trkpt><trkpt lat="47.38083157481294" lon="6.403452229457139"><ele>432.0</ele><time>2026-03-28T08:56:46Z</time></trkpt><trkpt lat="47.38069481934597" lon="6.403114985286185"><ele>430.0</ele><time>2026-03-28T08:56:47Z</time></trkpt><trkpt lat="47.38055396458674" lon="6.40277358456116"><ele>428.0</ele><time>2026-03-28T08:56:48Z</time></trkpt><trkpt lat="47.38040834695684" lon="6.402437947491461"><ele>430.5</ele><time>2026-03-28T08:56:49Z</time></trkpt><trkpt lat="47.38026350369377" lon="6.402106726154788"><ele>433.0</ele><time>2026-03-28T08:56:50Z</time></trkpt><trkpt lat="47.3801177545665" lon="6.401777101520462"><ele>433.0</ele><time>2026-03-28T08:56:51Z</time></trkpt><trkpt lat="47.3799632102433" lon="6.401447719356944"><ele>433.0</ele><time>2026-03-28T08:56:52Z</time></trkpt><trkpt lat="47.379811786352526" lon="6.4011215572990885"><ele>437.5</ele><time>2026-03-28T08:56:53Z</time></trkpt><trkpt lat="47.379652144091196" lon="6.400802101051985"><ele>442.0</ele><time>2026-03-28T08:56:54Z</time></trkpt><trkpt lat="47.37949197560004" lon="6.4004893536251535"><ele>443.0</ele><time>2026-03-28T08:56:55Z</time></trkpt><trkpt lat="47.379328563217584" lon="6.400177318386163"><ele>444.0</ele><time>2026-03-28T08:56:56Z</time></trkpt><trkpt lat="47.37915778262101" lon="6.399868686214316"><ele>444.0</ele><time>2026-03-28T08:56:57Z</time></trkpt><trkpt lat="47.37898741166751" lon="6.399566201703084"><ele>444.0</ele><time>2026-03-28T08:56:58Z</time></trkpt><trkpt lat="47.37881187188812" lon="6.399263106430636"><ele>444.5</ele><time>2026-03-28T08:56:59Z</time></trkpt><trkpt lat="47.37863537386824" lon="6.3989625708318725"><ele>445.0</ele><time>2026-03-28T08:57:00Z</time></trkpt><trkpt lat="47.37845849321027" lon="6.39866496274478"><ele>442.5</ele><time>2026-03-28T08:57:01Z</time></trkpt><trkpt lat="47.378278327690055" lon="6.398367013526381"><ele>440.0</ele><time>2026-03-28T08:57:02Z</time></trkpt><trkpt lat="47.378098721882594" lon="6.398067212405243"><ele>441.0</ele><time>2026-03-28T08:57:03Z</time></trkpt><trkpt lat="47.37791835323043" lon="6.39777000387901"><ele>442.0</ele><time>2026-03-28T08:57:04Z</time></trkpt><trkpt lat="47.377740130379905" lon="6.397469202221581"><ele>442.0</ele><time>2026-03-28T08:57:05Z</time></trkpt><trkpt lat="47.37756111610278" lon="6.397172498772913"><ele>442.0</ele><time>2026-03-28T08:57:06Z</time></trkpt><trkpt lat="47.37738125624211" lon="6.396870702395324"><ele>441.0</ele><time>2026-03-28T08:57:07Z</time></trkpt><trkpt lat="47.37720658786893" lon="6.396568170004596"><ele>440.0</ele><time>2026-03-28T08:57:08Z</time></trkpt><trkpt lat="47.37703639445722" lon="6.396262748684822"><ele>440.0</ele><time>2026-03-28T08:57:09Z</time></trkpt><trkpt lat="47.376868123900486" lon="6.395953130122011"><ele>440.0</ele><time>2026-03-28T08:57:10Z</time></trkpt><trkpt lat="47.376706539121884" lon="6.395638562472864"><ele>436.0</ele><time>2026-03-28T08:57:11Z</time></trkpt><trkpt lat="47.376549718305846" lon="6.395319164017628"><ele>432.0</ele><time>2026-03-28T08:57:12Z</time></trkpt><trkpt lat="47.37639250868233" lon="6.394989878293101"><ele>433.5</ele><time>2026-03-28T08:57:13Z</time></trkpt><trkpt lat="47.37624437246342" lon="6.394656511994958"><ele>435.0</ele><time>2026-03-28T08:57:14Z</time></trkpt><trkpt lat="47.37609711171069" lon="6.394316253344356"><ele>435.0</ele><time>2026-03-28T08:57:15Z</time></trkpt><trkpt lat="47.37596527602576" lon="6.393973917804527"><ele>435.0</ele><time>2026-03-28T08:57:16Z</time></trkpt><trkpt lat="47.375835732511725" lon="6.393623231232044"><ele>434.5</ele><time>2026-03-28T08:57:17Z</time></trkpt><trkpt lat="47.37571401959727" lon="6.3932688717987185"><ele>434.0</ele><time>2026-03-28T08:57:18Z</time></trkpt><trkpt lat="47.375595039018556" lon="6.392907722467617"><ele>435.0</ele><time>2026-03-28T08:57:19Z</time></trkpt><trkpt lat="47.37548083141521" lon="6.392546389712359"><ele>436.0</ele><time>2026-03-28T08:57:20Z</time></trkpt><trkpt lat="47.375374834425436" lon="6.392183985950521"><ele>437.0</ele><time>2026-03-28T08:57:21Z</time></trkpt><trkpt lat="47.37527731917153" lon="6.391815509433286"><ele>438.0</ele><time>2026-03-28T08:57:22Z</time></trkpt><trkpt lat="47.375181031471406" lon="6.39144443582426"><ele>437.0</ele><time>2026-03-28T08:57:23Z</time></trkpt><trkpt lat="47.375097418394716" lon="6.391071396868392"><ele>436.0</ele><time>2026-03-28T08:57:24Z</time></trkpt><trkpt lat="47.37501888115065" lon="6.390693966779994"><ele>436.5</ele><time>2026-03-28T08:57:25Z</time></trkpt><trkpt lat="47.37494475584803" lon="6.390312408352245"><ele>437.0</ele><time>2026-03-28T08:57:26Z</time></trkpt><trkpt lat="47.37488041365245" lon="6.38993380172936"><ele>437.5</ele><time>2026-03-28T08:57:27Z</time></trkpt><trkpt lat="47.37482748949902" lon="6.389552742329403"><ele>438.0</ele><time>2026-03-28T08:57:28Z</time></trkpt><trkpt lat="47.3747736128276" lon="6.389163701046413"><ele>436.5</ele><time>2026-03-28T08:57:29Z</time></trkpt><trkpt lat="47.37473412756145" lon="6.38877898429637"><ele>435.0</ele><time>2026-03-28T08:57:30Z</time></trkpt><trkpt lat="47.37469656960355" lon="6.388389629994947"><ele>440.5</ele><time>2026-03-28T08:57:31Z</time></trkpt><trkpt lat="47.374663070791634" lon="6.38799880958241"><ele>446.0</ele><time>2026-03-28T08:57:32Z</time></trkpt><trkpt lat="47.374636818937155" lon="6.387604161452842"><ele>446.0</ele><time>2026-03-28T08:57:33Z</time></trkpt><trkpt lat="47.374614574132494" lon="6.387206116782379"><ele>446.0</ele><time>2026-03-28T08:57:34Z</time></trkpt><trkpt lat="47.374601155386806" lon="6.386809734718142"><ele>444.0</ele><time>2026-03-28T08:57:35Z</time></trkpt><trkpt lat="47.374594025398515" lon="6.38641380563195"><ele>442.0</ele><time>2026-03-28T08:57:36Z</time></trkpt><trkpt lat="47.37459159052642" lon="6.386014443014693"><ele>442.0</ele><time>2026-03-28T08:57:37Z</time></trkpt><trkpt lat="47.37459222204169" lon="6.3856158976275585"><ele>442.0</ele><time>2026-03-28T08:57:38Z</time></trkpt><trkpt lat="47.37459360649512" lon="6.385213249714219"><ele>440.0</ele><time>2026-03-28T08:57:39Z</time></trkpt><trkpt lat="47.37459469731788" lon="6.384813549595321"><ele>438.0</ele><time>2026-03-28T08:57:40Z</time></trkpt><trkpt lat="47.37459771868432" lon="6.384413390396445"><ele>436.5</ele><time>2026-03-28T08:57:41Z</time></trkpt><trkpt lat="47.37460657609422" lon="6.38401034390903"><ele>435.0</ele><time>2026-03-28T08:57:42Z</time></trkpt><trkpt lat="47.37461024695378" lon="6.383610066472908"><ele>435.0</ele><time>2026-03-28T08:57:43Z</time></trkpt><trkpt lat="47.374610785365434" lon="6.383209429363051"><ele>435.0</ele><time>2026-03-28T08:57:44Z</time></trkpt><trkpt lat="47.374609404128485" lon="6.382813816316784"><ele>436.0</ele><time>2026-03-28T08:57:45Z</time></trkpt><trkpt lat="47.37460703797385" lon="6.382419337308137"><ele>437.0</ele><time>2026-03-28T08:57:46Z</time></trkpt><trkpt lat="47.374605529764665" lon="6.382026915268891"><ele>435.0</ele><time>2026-03-28T08:57:47Z</time></trkpt><trkpt lat="47.37460464643226" lon="6.38163561187459"><ele>433.0</ele><time>2026-03-28T08:57:48Z</time></trkpt><trkpt lat="47.3746012461803" lon="6.381241232205202"><ele>432.5</ele><time>2026-03-28T08:57:49Z</time></trkpt><trkpt lat="47.37459429299403" lon="6.380848481206217"><ele>432.0</ele><time>2026-03-28T08:57:50Z</time></trkpt><trkpt lat="47.37458683914363" lon="6.380453234443429"><ele>432.0</ele><time>2026-03-28T08:57:51Z</time></trkpt><trkpt lat="47.37457569518432" lon="6.380061088170532"><ele>432.0</ele><time>2026-03-28T08:57:52Z</time></trkpt><trkpt lat="47.37456673962422" lon="6.379674898936534"><ele>432.0</ele><time>2026-03-28T08:57:53Z</time></trkpt><trkpt lat="47.374552294061075" lon="6.379289826388076"><ele>432.0</ele><time>2026-03-28T08:57:54Z</time></trkpt><trkpt lat="47.37453260492197" lon="6.3789017117367495"><ele>430.5</ele><time>2026-03-28T08:57:55Z</time></trkpt><trkpt lat="47.37451193168925" lon="6.378519248920653"><ele>429.0</ele><time>2026-03-28T08:57:56Z</time></trkpt><trkpt lat="47.37449045497332" lon="6.378139560497018"><ele>426.5</ele><time>2026-03-28T08:57:57Z</time></trkpt><trkpt lat="47.37446588896637" lon="6.377760960487656"><ele>424.0</ele><time>2026-03-28T08:57:58Z</time></trkpt><trkpt lat="47.37444026730676" lon="6.377383797231764"><ele>423.0</ele><time>2026-03-28T08:57:59Z</time></trkpt><trkpt lat="47.374410807563216" lon="6.37700256109118"><ele>422.0</ele><time>2026-03-28T08:58:00Z</time></trkpt><trkpt lat="47.37438777349805" lon="6.376621444305659"><ele>421.0</ele><time>2026-03-28T08:58:01Z</time></trkpt><trkpt lat="47.37435221987174" lon="6.376233255034854"><ele>420.0</ele><time>2026-03-28T08:58:02Z</time></trkpt><trkpt lat="47.37431648869968" lon="6.375843636684374"><ele>420.0</ele><time>2026-03-28T08:58:03Z</time></trkpt><trkpt lat="47.37427797807952" lon="6.375455723102623"><ele>420.0</ele><time>2026-03-28T08:58:04Z</time></trkpt><trkpt lat="47.37423626391136" lon="6.375067308647937"><ele>419.0</ele><time>2026-03-28T08:58:05Z</time></trkpt><trkpt lat="47.374196608663986" lon="6.374678208640586"><ele>418.0</ele><time>2026-03-28T08:58:06Z</time></trkpt><trkpt lat="47.37415866267809" lon="6.374286059487426"><ele>418.0</ele><time>2026-03-28T08:58:07Z</time></trkpt><trkpt lat="47.37412095647137" lon="6.373895817559741"><ele>418.0</ele><time>2026-03-28T08:58:08Z</time></trkpt><trkpt lat="47.374087163489975" lon="6.373505737152682"><ele>418.0</ele><time>2026-03-28T08:58:09Z</time></trkpt><trkpt lat="47.37405401399338" lon="6.373114775903536"><ele>418.0</ele><time>2026-03-28T08:58:10Z</time></trkpt><trkpt lat="47.374025019166304" lon="6.372724053915734"><ele>418.0</ele><time>2026-03-28T08:58:11Z</time></trkpt><trkpt lat="47.373997199718566" lon="6.372320050213383"><ele>418.0</ele><time>2026-03-28T08:58:12Z</time></trkpt><trkpt lat="47.37397119652624" lon="6.3719148440312114"><ele>418.0</ele><time>2026-03-28T08:58:13Z</time></trkpt><trkpt lat="47.373944575823465" lon="6.371512195157921"><ele>418.0</ele><time>2026-03-28T08:58:14Z</time></trkpt><trkpt lat="47.37392200979831" lon="6.371111046801578"><ele>419.0</ele><time>2026-03-28T08:58:15Z</time></trkpt><trkpt lat="47.3739059075628" lon="6.370713152722727"><ele>420.0</ele><time>2026-03-28T08:58:16Z</time></trkpt><trkpt lat="47.37389219206338" lon="6.37032039388066"><ele>421.0</ele><time>2026-03-28T08:58:17Z</time></trkpt><trkpt lat="47.37387944313782" lon="6.369917767371945"><ele>422.0</ele><time>2026-03-28T08:58:18Z</time></trkpt><trkpt lat="47.37387076943712" lon="6.369521952366516"><ele>424.0</ele><time>2026-03-28T08:58:19Z</time></trkpt><trkpt lat="47.37386078290335" lon="6.369126256936533"><ele>426.0</ele><time>2026-03-28T08:58:20Z</time></trkpt><trkpt lat="47.3738612236815" lon="6.368731936935411"><ele>428.0</ele><time>2026-03-28T08:58:21Z</time></trkpt><trkpt lat="47.37385980811385" lon="6.368342391134301"><ele>430.0</ele><time>2026-03-28T08:58:22Z</time></trkpt><trkpt lat="47.37385782080853" lon="6.367947530767889"><ele>432.5</ele><time>2026-03-28T08:58:23Z</time></trkpt><trkpt lat="47.37385649615518" lon="6.367556963658964"><ele>435.0</ele><time>2026-03-28T08:58:24Z</time></trkpt><trkpt lat="47.37386593106141" lon="6.367172855408547"><ele>437.0</ele><time>2026-03-28T08:58:25Z</time></trkpt><trkpt lat="47.373872816623766" lon="6.366784644973708"><ele>439.0</ele><time>2026-03-28T08:58:26Z</time></trkpt><trkpt lat="47.373879310728384" lon="6.366394688608597"><ele>440.0</ele><time>2026-03-28T08:58:27Z</time></trkpt><trkpt lat="47.373892162658734" lon="6.36600629659226"><ele>441.0</ele><time>2026-03-28T08:58:28Z</time></trkpt><trkpt lat="47.37391756857079" lon="6.365618018824607"><ele>440.5</ele><time>2026-03-28T08:58:29Z</time></trkpt><trkpt lat="47.37394453879765" lon="6.365232138697518"><ele>440.0</ele><time>2026-03-28T08:58:30Z</time></trkpt><trkpt lat="47.37397235948978" lon="6.364843024444014"><ele>440.0</ele><time>2026-03-28T08:58:31Z</time></trkpt><trkpt lat="47.37399710051145" lon="6.3644561820742425"><ele>440.0</ele><time>2026-03-28T08:58:32Z</time></trkpt><trkpt lat="47.37401439965802" lon="6.364069646765639"><ele>441.0</ele><time>2026-03-28T08:58:33Z</time></trkpt><trkpt lat="47.37404026950349" lon="6.363678555716922"><ele>442.0</ele><time>2026-03-28T08:58:34Z</time></trkpt><trkpt lat="47.37406076879743" lon="6.36328550740623"><ele>444.5</ele><time>2026-03-28T08:58:35Z</time></trkpt><trkpt lat="47.374092669657756" lon="6.362890026500902"><ele>447.0</ele><time>2026-03-28T08:58:36Z</time></trkpt><trkpt lat="47.37412022733015" lon="6.362493884806058"><ele>447.0</ele><time>2026-03-28T08:58:37Z</time></trkpt><trkpt lat="47.37414910187942" lon="6.3620989313723015"><ele>447.0</ele><time>2026-03-28T08:58:38Z</time></trkpt><trkpt lat="47.374177549243186" lon="6.361704063186759"><ele>446.0</ele><time>2026-03-28T08:58:39Z</time></trkpt><trkpt lat="47.374208434661085" lon="6.361304845998636"><ele>445.0</ele><time>2026-03-28T08:58:40Z</time></trkpt><trkpt lat="47.37423440462142" lon="6.360905772531701"><ele>443.5</ele><time>2026-03-28T08:58:41Z</time></trkpt><trkpt lat="47.37426066416941" lon="6.360506775809522"><ele>442.0</ele><time>2026-03-28T08:58:42Z</time></trkpt><trkpt lat="47.37428695416276" lon="6.3601075928371325"><ele>442.0</ele><time>2026-03-28T08:58:43Z</time></trkpt><trkpt lat="47.37431043209576" lon="6.359708185157442"><ele>442.0</ele><time>2026-03-28T08:58:44Z</time></trkpt><trkpt lat="47.374334420939284" lon="6.3593073598687235"><ele>439.5</ele><time>2026-03-28T08:58:45Z</time></trkpt><trkpt lat="47.37435693033529" lon="6.358907031040446"><ele>437.0</ele><time>2026-03-28T08:58:46Z</time></trkpt><trkpt lat="47.37437814832522" lon="6.358509263623262"><ele>437.5</ele><time>2026-03-28T08:58:47Z</time></trkpt><trkpt lat="47.374397445904094" lon="6.358112586597663"><ele>438.0</ele><time>2026-03-28T08:58:48Z</time></trkpt><trkpt lat="47.37441367674707" lon="6.357714131366333"><ele>438.0</ele><time>2026-03-28T08:58:49Z</time></trkpt><trkpt lat="47.37442518063283" lon="6.357315252604656"><ele>438.0</ele><time>2026-03-28T08:58:50Z</time></trkpt><trkpt lat="47.37443552852137" lon="6.356916017615001"><ele>439.5</ele><time>2026-03-28T08:58:51Z</time></trkpt><trkpt lat="47.374443818137635" lon="6.356517736496146"><ele>441.0</ele><time>2026-03-28T08:58:52Z</time></trkpt><trkpt lat="47.37445207318764" lon="6.356119220697513"><ele>441.0</ele><time>2026-03-28T08:58:53Z</time></trkpt><trkpt lat="47.37445628569805" lon="6.3557170735930315"><ele>441.0</ele><time>2026-03-28T08:58:54Z</time></trkpt><trkpt lat="47.37445401320565" lon="6.355314378647237"><ele>439.5</ele><time>2026-03-28T08:58:55Z</time></trkpt><trkpt lat="47.37444981687637" lon="6.354912645778532"><ele>438.0</ele><time>2026-03-28T08:58:56Z</time></trkpt><trkpt lat="47.374440218295135" lon="6.35450991589215"><ele>437.0</ele><time>2026-03-28T08:58:57Z</time></trkpt><trkpt lat="47.37443019426571" lon="6.35410825482573"><ele>436.0</ele><time>2026-03-28T08:58:58Z</time></trkpt><trkpt lat="47.37441651750216" lon="6.353703373306173"><ele>435.0</ele><time>2026-03-28T08:58:59Z</time></trkpt><trkpt lat="47.37440021252254" lon="6.353299717118479"><ele>434.0</ele><time>2026-03-28T08:59:00Z</time></trkpt><trkpt lat="47.3743820483537" lon="6.352897436948338"><ele>433.5</ele><time>2026-03-28T08:59:01Z</time></trkpt><trkpt lat="47.374362710523656" lon="6.3524935707709105"><ele>433.0</ele><time>2026-03-28T08:59:02Z</time></trkpt><trkpt lat="47.37433833385116" lon="6.352090663852569"><ele>433.0</ele><time>2026-03-28T08:59:03Z</time></trkpt><trkpt lat="47.37431346616602" lon="6.351689413916695"><ele>433.0</ele><time>2026-03-28T08:59:04Z</time></trkpt><trkpt lat="47.37428950047485" lon="6.351290496432927"><ele>432.5</ele><time>2026-03-28T08:59:05Z</time></trkpt><trkpt lat="47.374259969956306" lon="6.350887251256458"><ele>432.0</ele><time>2026-03-28T08:59:06Z</time></trkpt><trkpt lat="47.37423011862987" lon="6.350490487581467"><ele>432.0</ele><time>2026-03-28T08:59:07Z</time></trkpt><trkpt lat="47.374197843559834" lon="6.350091662230494"><ele>432.0</ele><time>2026-03-28T08:59:08Z</time></trkpt><trkpt lat="47.374159167287104" lon="6.349693639768443"><ele>431.0</ele><time>2026-03-28T08:59:09Z</time></trkpt><trkpt lat="47.3741160754994" lon="6.349296445520578"><ele>430.0</ele><time>2026-03-28T08:59:10Z</time></trkpt><trkpt lat="47.37407152909404" lon="6.348905420555103"><ele>428.5</ele><time>2026-03-28T08:59:11Z</time></trkpt><trkpt lat="47.37402312204547" lon="6.3485083460347775"><ele>427.0</ele><time>2026-03-28T08:59:12Z</time></trkpt><trkpt lat="47.373973319042214" lon="6.348114388802063"><ele>426.0</ele><time>2026-03-28T08:59:13Z</time></trkpt><trkpt lat="47.373922446763935" lon="6.347719092616075"><ele>425.0</ele><time>2026-03-28T08:59:14Z</time></trkpt><trkpt lat="47.37386524822745" lon="6.347324759677185"><ele>430.5</ele><time>2026-03-28T08:59:15Z</time></trkpt><trkpt lat="47.37380822872736" lon="6.346936472147777"><ele>436.0</ele><time>2026-03-28T08:59:16Z</time></trkpt><trkpt lat="47.373745611889824" lon="6.346545165947709"><ele>433.0</ele><time>2026-03-28T08:59:17Z</time></trkpt><trkpt lat="47.37368014988167" lon="6.3461482517429175"><ele>430.0</ele><time>2026-03-28T08:59:18Z</time></trkpt><trkpt lat="47.373618958191386" lon="6.345756389585966"><ele>425.0</ele><time>2026-03-28T08:59:19Z</time></trkpt><trkpt lat="47.37355374147406" lon="6.345364778687767"><ele>420.0</ele><time>2026-03-28T08:59:20Z</time></trkpt><trkpt lat="47.3734840963692" lon="6.344978853126353"><ele>418.0</ele><time>2026-03-28T08:59:21Z</time></trkpt><trkpt lat="47.37340975175259" lon="6.344594724644938"><ele>416.0</ele><time>2026-03-28T08:59:22Z</time></trkpt><trkpt lat="47.37333403189658" lon="6.344215183385086"><ele>415.5</ele><time>2026-03-28T08:59:23Z</time></trkpt><trkpt lat="47.373255296636636" lon="6.343835815770437"><ele>415.0</ele><time>2026-03-28T08:59:24Z</time></trkpt><trkpt lat="47.3731748072371" lon="6.3434592077773795"><ele>415.0</ele><time>2026-03-28T08:59:25Z</time></trkpt><trkpt lat="47.373093376273715" lon="6.343085936968668"><ele>415.0</ele><time>2026-03-28T08:59:26Z</time></trkpt><trkpt lat="47.37300944792006" lon="6.3427123351302335"><ele>421.5</ele><time>2026-03-28T08:59:27Z</time></trkpt><trkpt lat="47.3729219719479" lon="6.342339380791939"><ele>428.0</ele><time>2026-03-28T08:59:28Z</time></trkpt><trkpt lat="47.372830736399834" lon="6.341970656161328"><ele>428.0</ele><time>2026-03-28T08:59:29Z</time></trkpt><trkpt lat="47.3727380271968" lon="6.341604414733863"><ele>428.0</ele><time>2026-03-28T08:59:30Z</time></trkpt><trkpt lat="47.37264121133209" lon="6.341240915093147"><ele>426.5</ele><time>2026-03-28T08:59:31Z</time></trkpt><trkpt lat="47.372540456599275" lon="6.340885788851293"><ele>425.0</ele><time>2026-03-28T08:59:32Z</time></trkpt><trkpt lat="47.3724294561914" lon="6.3405302563422605"><ele>420.5</ele><time>2026-03-28T08:59:33Z</time></trkpt><trkpt lat="47.37231508959029" lon="6.340181502738627"><ele>416.0</ele><time>2026-03-28T08:59:34Z</time></trkpt><trkpt lat="47.37218890224913" lon="6.339833258725289"><ele>425.0</ele><time>2026-03-28T08:59:35Z</time></trkpt><trkpt lat="47.372058177389725" lon="6.339491032030282"><ele>434.0</ele><time>2026-03-28T08:59:36Z</time></trkpt><trkpt lat="47.371926307551995" lon="6.33915610692135"><ele>428.0</ele><time>2026-03-28T08:59:37Z</time></trkpt><trkpt lat="47.37178854458641" lon="6.338824999443946"><ele>422.0</ele><time>2026-03-28T08:59:38Z</time></trkpt><trkpt lat="47.37164031059177" lon="6.33850066063198"><ele>422.0</ele><time>2026-03-28T08:59:39Z</time></trkpt><trkpt lat="47.37148484479591" lon="6.338187730857559"><ele>422.0</ele><time>2026-03-28T08:59:40Z</time></trkpt><trkpt lat="47.371326461170064" lon="6.3378802476402445"><ele>427.5</ele><time>2026-03-28T08:59:41Z</time></trkpt><trkpt lat="47.37116320199687" lon="6.337575520006535"><ele>433.0</ele><time>2026-03-28T08:59:42Z</time></trkpt><trkpt lat="47.370997661262784" lon="6.337273448923739"><ele>428.5</ele><time>2026-03-28T08:59:43Z</time></trkpt><trkpt lat="47.37083213244292" lon="6.336978642934016"><ele>424.0</ele><time>2026-03-28T08:59:44Z</time></trkpt><trkpt lat="47.37066594333533" lon="6.336682811456136"><ele>427.5</ele><time>2026-03-28T08:59:45Z</time></trkpt><trkpt lat="47.3705014988855" lon="6.336384009840703"><ele>431.0</ele><time>2026-03-28T08:59:46Z</time></trkpt><trkpt lat="47.370336049957594" lon="6.336085036013311"><ele>431.0</ele><time>2026-03-28T08:59:47Z</time></trkpt><trkpt lat="47.37017038579995" lon="6.335783367730759"><ele>431.0</ele><time>2026-03-28T08:59:48Z</time></trkpt><trkpt lat="47.370012775983206" lon="6.33547650908713"><ele>429.5</ele><time>2026-03-28T08:59:49Z</time></trkpt><trkpt lat="47.369856931249615" lon="6.335166732498826"><ele>428.0</ele><time>2026-03-28T08:59:50Z</time></trkpt><trkpt lat="47.36970822737717" lon="6.334848130656457"><ele>432.5</ele><time>2026-03-28T08:59:51Z</time></trkpt><trkpt lat="47.369567364367015" lon="6.334520452570472"><ele>437.0</ele><time>2026-03-28T08:59:52Z</time></trkpt><trkpt lat="47.36943009089014" lon="6.334189099800233"><ele>435.0</ele><time>2026-03-28T08:59:53Z</time></trkpt><trkpt lat="47.36929642368082" lon="6.33385231108515"><ele>433.0</ele><time>2026-03-28T08:59:54Z</time></trkpt><trkpt lat="47.36916675659163" lon="6.333511705688572"><ele>433.0</ele><time>2026-03-28T08:59:55Z</time></trkpt><trkpt lat="47.3690348622025" lon="6.333170116814828"><ele>433.0</ele><time>2026-03-28T08:59:56Z</time></trkpt><trkpt lat="47.36890700238728" lon="6.332825041969323"><ele>436.0</ele><time>2026-03-28T08:59:57Z</time></trkpt><trkpt lat="47.368775788707154" lon="6.332482399477991"><ele>439.0</ele><time>2026-03-28T08:59:58Z</time></trkpt><trkpt lat="47.36864340911834" lon="6.33213955047494"><ele>439.0</ele><time>2026-03-28T08:59:59Z</time></trkpt><trkpt lat="47.36850735858343" lon="6.3317994528646215"><ele>439.0</ele><time>2026-03-28T09:00:00Z</time></trkpt><trkpt lat="47.36836911984695" lon="6.331466778809999"><ele>440.0</ele><time>2026-03-28T09:00:01Z</time></trkpt><trkpt lat="47.368223803874635" lon="6.331139214974717"><ele>441.0</ele><time>2026-03-28T09:00:02Z</time></trkpt><trkpt lat="47.36807320774464" lon="6.330812245769335"><ele>444.5</ele><time>2026-03-28T09:00:03Z</time></trkpt><trkpt lat="47.367917705626766" lon="6.330497908406656"><ele>448.0</ele><time>2026-03-28T09:00:04Z</time></trkpt><trkpt lat="47.367755985693805" lon="6.330193450003054"><ele>448.0</ele><time>2026-03-28T09:00:05Z</time></trkpt><trkpt lat="47.36759110214506" lon="6.329898366228973"><ele>448.0</ele><time>2026-03-28T09:00:06Z</time></trkpt><trkpt lat="47.367423455779324" lon="6.329618506701029"><ele>449.5</ele><time>2026-03-28T09:00:07Z</time></trkpt><trkpt lat="47.36725319960274" lon="6.329350930140848"><ele>451.0</ele><time>2026-03-28T09:00:08Z</time></trkpt><trkpt lat="47.36708053163731" lon="6.329087855557133"><ele>450.0</ele><time>2026-03-28T09:00:09Z</time></trkpt><trkpt lat="47.36690421225527" lon="6.328828045861815"><ele>449.0</ele><time>2026-03-28T09:00:10Z</time></trkpt><trkpt lat="47.366727324907934" lon="6.328587205461811"><ele>449.0</ele><time>2026-03-28T09:00:11Z</time></trkpt><trkpt lat="47.3665454433977" lon="6.328357175163541"><ele>449.0</ele><time>2026-03-28T09:00:12Z</time></trkpt><trkpt lat="47.36635720194311" lon="6.328129616625588"><ele>449.0</ele><time>2026-03-28T09:00:13Z</time></trkpt><trkpt lat="47.36617060235615" lon="6.327899317475001"><ele>449.0</ele><time>2026-03-28T09:00:14Z</time></trkpt><trkpt lat="47.36598126931605" lon="6.327674085765118"><ele>449.0</ele><time>2026-03-28T09:00:15Z</time></trkpt><trkpt lat="47.36579382017172" lon="6.327446625070476"><ele>449.0</ele><time>2026-03-28T09:00:16Z</time></trkpt><trkpt lat="47.365605263453936" lon="6.3272233236670035"><ele>450.0</ele><time>2026-03-28T09:00:17Z</time></trkpt><trkpt lat="47.36542832042194" lon="6.3270145002969"><ele>451.0</ele><time>2026-03-28T09:00:18Z</time></trkpt><trkpt lat="47.36524438947345" lon="6.326811496278901"><ele>451.0</ele><time>2026-03-28T09:00:19Z</time></trkpt><trkpt lat="47.36505902087518" lon="6.326590045291917"><ele>451.0</ele><time>2026-03-28T09:00:20Z</time></trkpt><trkpt lat="47.36487437718226" lon="6.326360928674585"><ele>450.5</ele><time>2026-03-28T09:00:21Z</time></trkpt><trkpt lat="47.36469363980917" lon="6.326128585847249"><ele>450.0</ele><time>2026-03-28T09:00:22Z</time></trkpt><trkpt lat="47.36450753668684" lon="6.32589987461573"><ele>450.0</ele><time>2026-03-28T09:00:23Z</time></trkpt><trkpt lat="47.36432355990292" lon="6.325660251815153"><ele>450.0</ele><time>2026-03-28T09:00:24Z</time></trkpt><trkpt lat="47.36414131638719" lon="6.32542913972635"><ele>447.5</ele><time>2026-03-28T09:00:25Z</time></trkpt><trkpt lat="47.36396206404019" lon="6.32519526954359"><ele>445.0</ele><time>2026-03-28T09:00:26Z</time></trkpt><trkpt lat="47.36378458457218" lon="6.324957602342818"><ele>443.5</ele><time>2026-03-28T09:00:27Z</time></trkpt><trkpt lat="47.36360409461022" lon="6.3247187106678435"><ele>442.0</ele><time>2026-03-28T09:00:28Z</time></trkpt><trkpt lat="47.363426787507514" lon="6.3244701036241455"><ele>442.0</ele><time>2026-03-28T09:00:29Z</time></trkpt><trkpt lat="47.363246694433855" lon="6.324215908694859"><ele>442.0</ele><time>2026-03-28T09:00:30Z</time></trkpt><trkpt lat="47.36306671748174" lon="6.32395759593812"><ele>443.5</ele><time>2026-03-28T09:00:31Z</time></trkpt><trkpt lat="47.36288200179921" lon="6.323688577465224"><ele>445.0</ele><time>2026-03-28T09:00:32Z</time></trkpt><trkpt lat="47.36269575614503" lon="6.323418207166913"><ele>445.0</ele><time>2026-03-28T09:00:33Z</time></trkpt><trkpt lat="47.362509973954936" lon="6.323140964146949"><ele>445.0</ele><time>2026-03-28T09:00:34Z</time></trkpt><trkpt lat="47.36231833739659" lon="6.322855544190461"><ele>443.5</ele><time>2026-03-28T09:00:35Z</time></trkpt><trkpt lat="47.36212379535623" lon="6.322561719377555"><ele>442.0</ele><time>2026-03-28T09:00:36Z</time></trkpt><trkpt lat="47.361928139335696" lon="6.3222595649872355"><ele>439.5</ele><time>2026-03-28T09:00:37Z</time></trkpt><trkpt lat="47.36173877529806" lon="6.321956524280787"><ele>437.0</ele><time>2026-03-28T09:00:38Z</time></trkpt><trkpt lat="47.36155106368082" lon="6.321647263196444"><ele>435.5</ele><time>2026-03-28T09:00:39Z</time></trkpt><trkpt lat="47.36136281803117" lon="6.321337853104964"><ele>434.0</ele><time>2026-03-28T09:00:40Z</time></trkpt><trkpt lat="47.36117045363343" lon="6.3210426297466435"><ele>434.0</ele><time>2026-03-28T09:00:41Z</time></trkpt><trkpt lat="47.360970314271725" lon="6.320743723704769"><ele>434.0</ele><time>2026-03-28T09:00:42Z</time></trkpt><trkpt lat="47.36076902378512" lon="6.320456302016743"><ele>432.0</ele><time>2026-03-28T09:00:43Z</time></trkpt><trkpt lat="47.36056558749596" lon="6.320177931803038"><ele>430.0</ele><time>2026-03-28T09:00:44Z</time></trkpt><trkpt lat="47.360356839291065" lon="6.319916085575008"><ele>426.5</ele><time>2026-03-28T09:00:45Z</time></trkpt><trkpt lat="47.36013824480245" lon="6.319660003763058"><ele>423.0</ele><time>2026-03-28T09:00:46Z</time></trkpt><trkpt lat="47.359916794508834" lon="6.319409398559033"><ele>423.5</ele><time>2026-03-28T09:00:47Z</time></trkpt><trkpt lat="47.35969392621469" lon="6.319171167036276"><ele>424.0</ele><time>2026-03-28T09:00:48Z</time></trkpt><trkpt lat="47.35945974155483" lon="6.318941580887546"><ele>418.5</ele><time>2026-03-28T09:00:49Z</time></trkpt><trkpt lat="47.35922418133322" lon="6.318728675121081"><ele>413.0</ele><time>2026-03-28T09:00:50Z</time></trkpt><trkpt lat="47.358991296104" lon="6.318525692216869"><ele>414.5</ele><time>2026-03-28T09:00:51Z</time></trkpt><trkpt lat="47.35875749508244" lon="6.318338305701129"><ele>416.0</ele><time>2026-03-28T09:00:52Z</time></trkpt><trkpt lat="47.35851747819828" lon="6.318161009594791"><ele>413.5</ele><time>2026-03-28T09:00:53Z</time></trkpt><trkpt lat="47.35827727325333" lon="6.317994618882025"><ele>411.0</ele><time>2026-03-28T09:00:54Z</time></trkpt><trkpt lat="47.358035364373414" lon="6.3178372698206955"><ele>410.0</ele><time>2026-03-28T09:00:55Z</time></trkpt><trkpt lat="47.35779376314503" lon="6.31769355935872"><ele>409.0</ele><time>2026-03-28T09:00:56Z</time></trkpt><trkpt lat="47.357550515073804" lon="6.317561693647325"><ele>409.0</ele><time>2026-03-28T09:00:57Z</time></trkpt><trkpt lat="47.35730669265407" lon="6.317437344916616"><ele>409.0</ele><time>2026-03-28T09:00:58Z</time></trkpt><trkpt lat="47.35706315393204" lon="6.317327715554468"><ele>404.0</ele><time>2026-03-28T09:00:59Z</time></trkpt><trkpt lat="47.3568209205053" lon="6.317229623436766"><ele>399.0</ele><time>2026-03-28T09:01:00Z</time></trkpt><trkpt lat="47.3565750542906" lon="6.317143161564137"><ele>400.0</ele><time>2026-03-28T09:01:01Z</time></trkpt><trkpt lat="47.35632992472714" lon="6.317063620448055"><ele>401.0</ele><time>2026-03-28T09:01:02Z</time></trkpt><trkpt lat="47.35608736023185" lon="6.316996025249597"><ele>401.0</ele><time>2026-03-28T09:01:03Z</time></trkpt><trkpt lat="47.35584167035632" lon="6.316929731048561"><ele>401.0</ele><time>2026-03-28T09:01:04Z</time></trkpt><trkpt lat="47.35559995636035" lon="6.316868577301144"><ele>403.0</ele><time>2026-03-28T09:01:05Z</time></trkpt><trkpt lat="47.355359824443326" lon="6.316809944885197"><ele>405.0</ele><time>2026-03-28T09:01:06Z</time></trkpt><trkpt lat="47.35511992125078" lon="6.316751214536627"><ele>405.0</ele><time>2026-03-28T09:01:07Z</time></trkpt><trkpt lat="47.3548810119626" lon="6.316695911912706"><ele>405.0</ele><time>2026-03-28T09:01:08Z</time></trkpt><trkpt lat="47.354642015337674" lon="6.3166358502224105"><ele>407.0</ele><time>2026-03-28T09:01:09Z</time></trkpt><trkpt lat="47.3544040215485" lon="6.316568650381038"><ele>409.0</ele><time>2026-03-28T09:01:10Z</time></trkpt><trkpt lat="47.354162817085694" lon="6.316492753676322"><ele>409.0</ele><time>2026-03-28T09:01:11Z</time></trkpt><trkpt lat="47.353917426530764" lon="6.316403827606607"><ele>409.0</ele><time>2026-03-28T09:01:12Z</time></trkpt><trkpt lat="47.3536713713068" lon="6.31630549365588"><ele>405.0</ele><time>2026-03-28T09:01:13Z</time></trkpt><trkpt lat="47.35342323083393" lon="6.316195529680008"><ele>401.0</ele><time>2026-03-28T09:01:14Z</time></trkpt><trkpt lat="47.35317794498711" lon="6.316068669806653"><ele>398.0</ele><time>2026-03-28T09:01:15Z</time></trkpt><trkpt lat="47.35293425813777" lon="6.315926535806341"><ele>395.0</ele><time>2026-03-28T09:01:16Z</time></trkpt><trkpt lat="47.35269092233849" lon="6.315771303941488"><ele>395.0</ele><time>2026-03-28T09:01:17Z</time></trkpt><trkpt lat="47.352451272815976" lon="6.31559973895559"><ele>395.0</ele><time>2026-03-28T09:01:18Z</time></trkpt><trkpt lat="47.352216694677274" lon="6.315413385966697"><ele>388.0</ele><time>2026-03-28T09:01:19Z</time></trkpt><trkpt lat="47.351984815835486" lon="6.315214369938457"><ele>381.0</ele><time>2026-03-28T09:01:20Z</time></trkpt><trkpt lat="47.35175583940656" lon="6.3149988732487286"><ele>381.0</ele><time>2026-03-28T09:01:21Z</time></trkpt><trkpt lat="47.35153667686536" lon="6.314773946611265"><ele>381.0</ele><time>2026-03-28T09:01:22Z</time></trkpt><trkpt lat="47.35132324761572" lon="6.314535897331547"><ele>380.5</ele><time>2026-03-28T09:01:23Z</time></trkpt><trkpt lat="47.35111480801562" lon="6.314284344965187"><ele>380.0</ele><time>2026-03-28T09:01:24Z</time></trkpt><trkpt lat="47.350908531289" lon="6.31401438248717"><ele>380.5</ele><time>2026-03-28T09:01:25Z</time></trkpt><trkpt lat="47.35071679398909" lon="6.313735576075201"><ele>381.0</ele><time>2026-03-28T09:01:26Z</time></trkpt><trkpt lat="47.35052817400012" lon="6.313445399504447"><ele>381.0</ele><time>2026-03-28T09:01:27Z</time></trkpt><trkpt lat="47.35035088715577" lon="6.313142627872352"><ele>381.0</ele><time>2026-03-28T09:01:28Z</time></trkpt><trkpt lat="47.35018034589882" lon="6.312829821093349"><ele>376.0</ele><time>2026-03-28T09:01:29Z</time></trkpt><trkpt lat="47.35002040987737" lon="6.312505202180681"><ele>371.0</ele><time>2026-03-28T09:01:30Z</time></trkpt><trkpt lat="47.34986838225517" lon="6.312175726594465"><ele>366.5</ele><time>2026-03-28T09:01:31Z</time></trkpt><trkpt lat="47.34972676661037" lon="6.311833406309846"><ele>362.0</ele><time>2026-03-28T09:01:32Z</time></trkpt><trkpt lat="47.3495946972062" lon="6.311487692615059"><ele>368.5</ele><time>2026-03-28T09:01:33Z</time></trkpt><trkpt lat="47.34947194523794" lon="6.311131576108831"><ele>375.0</ele><time>2026-03-28T09:01:34Z</time></trkpt><trkpt lat="47.34936062721631" lon="6.310768048196702"><ele>372.0</ele><time>2026-03-28T09:01:35Z</time></trkpt><trkpt lat="47.349254452096616" lon="6.31039581018204"><ele>369.0</ele><time>2026-03-28T09:01:36Z</time></trkpt><trkpt lat="47.349153433455776" lon="6.310024636056039"><ele>366.0</ele><time>2026-03-28T09:01:37Z</time></trkpt><trkpt lat="47.34905872865123" lon="6.309656610758474"><ele>363.0</ele><time>2026-03-28T09:01:38Z</time></trkpt><trkpt lat="47.34896191766991" lon="6.309284815082466"><ele>367.0</ele><time>2026-03-28T09:01:39Z</time></trkpt><trkpt lat="47.34887000393977" lon="6.308913345643799"><ele>371.0</ele><time>2026-03-28T09:01:40Z</time></trkpt><trkpt lat="47.348780715388884" lon="6.308541161575153"><ele>371.0</ele><time>2026-03-28T09:01:41Z</time></trkpt><trkpt lat="47.348691367854734" lon="6.308173171749587"><ele>371.0</ele><time>2026-03-28T09:01:42Z</time></trkpt><trkpt lat="47.34859493421244" lon="6.3078080582031255"><ele>367.5</ele><time>2026-03-28T09:01:43Z</time></trkpt><trkpt lat="47.3484974102147" lon="6.307444311991403"><ele>364.0</ele><time>2026-03-28T09:01:44Z</time></trkpt><trkpt lat="47.34839523235364" lon="6.307090592847181"><ele>360.0</ele><time>2026-03-28T09:01:45Z</time></trkpt><trkpt lat="47.348287891631756" lon="6.306734458175926"><ele>356.0</ele><time>2026-03-28T09:01:46Z</time></trkpt><trkpt lat="47.34817096461368" lon="6.30638804635644"><ele>358.0</ele><time>2026-03-28T09:01:47Z</time></trkpt><trkpt lat="47.34805214536146" lon="6.306042836304367"><ele>360.0</ele><time>2026-03-28T09:01:48Z</time></trkpt><trkpt lat="47.347923716930275" lon="6.305702067302674"><ele>354.0</ele><time>2026-03-28T09:01:49Z</time></trkpt><trkpt lat="47.34779020026626" lon="6.305364120974125"><ele>348.0</ele><time>2026-03-28T09:01:50Z</time></trkpt><trkpt lat="47.347646456103206" lon="6.305038029909944"><ele>342.5</ele><time>2026-03-28T09:01:51Z</time></trkpt><trkpt lat="47.34749783505834" lon="6.304715646805854"><ele>337.0</ele><time>2026-03-28T09:01:52Z</time></trkpt><trkpt lat="47.34734182038932" lon="6.304392602941496"><ele>338.5</ele><time>2026-03-28T09:01:53Z</time></trkpt><trkpt lat="47.34717605964824" lon="6.304083113872907"><ele>340.0</ele><time>2026-03-28T09:01:54Z</time></trkpt><trkpt lat="47.34701146139787" lon="6.303774439678233"><ele>340.0</ele><time>2026-03-28T09:01:55Z</time></trkpt><trkpt lat="47.346839645678024" lon="6.30347855710392"><ele>340.0</ele><time>2026-03-28T09:01:56Z</time></trkpt><trkpt lat="47.34666931689089" lon="6.303186198172285"><ele>340.5</ele><time>2026-03-28T09:01:57Z</time></trkpt><trkpt lat="47.34649363247551" lon="6.302895870722038"><ele>341.0</ele><time>2026-03-28T09:01:58Z</time></trkpt><trkpt lat="47.34631385084129" lon="6.302612847493289"><ele>341.0</ele><time>2026-03-28T09:01:59Z</time></trkpt><trkpt lat="47.34613575703222" lon="6.302332161628646"><ele>341.0</ele><time>2026-03-28T09:02:00Z</time></trkpt><trkpt lat="47.345954599807776" lon="6.302052768246695"><ele>338.0</ele><time>2026-03-28T09:02:01Z</time></trkpt><trkpt lat="47.345774618322906" lon="6.301769254398562"><ele>335.0</ele><time>2026-03-28T09:02:02Z</time></trkpt><trkpt lat="47.34559435646883" lon="6.301485643426939"><ele>335.5</ele><time>2026-03-28T09:02:03Z</time></trkpt><trkpt lat="47.345408983305504" lon="6.301203423775129"><ele>336.0</ele><time>2026-03-28T09:02:04Z</time></trkpt><trkpt lat="47.34523392449066" lon="6.300922870907259"><ele>336.0</ele><time>2026-03-28T09:02:05Z</time></trkpt><trkpt lat="47.34505804448747" lon="6.300642189203011"><ele>336.0</ele><time>2026-03-28T09:02:06Z</time></trkpt><trkpt lat="47.344880599472155" lon="6.300356215917691"><ele>334.5</ele><time>2026-03-28T09:02:07Z</time></trkpt><trkpt lat="47.34470437798851" lon="6.300066205016575"><ele>333.0</ele><time>2026-03-28T09:02:08Z</time></trkpt><trkpt lat="47.344529996968724" lon="6.299773232808904"><ele>333.5</ele><time>2026-03-28T09:02:09Z</time></trkpt><trkpt lat="47.344357257919356" lon="6.299482028546202"><ele>334.0</ele><time>2026-03-28T09:02:10Z</time></trkpt><trkpt lat="47.34418447030662" lon="6.2991865211492115"><ele>334.5</ele><time>2026-03-28T09:02:11Z</time></trkpt><trkpt lat="47.34401277550041" lon="6.298887278344175"><ele>335.0</ele><time>2026-03-28T09:02:12Z</time></trkpt><trkpt lat="47.3438445032335" lon="6.298584578676815"><ele>333.0</ele><time>2026-03-28T09:02:13Z</time></trkpt><trkpt lat="47.34368066483988" lon="6.2982781751843655"><ele>331.0</ele><time>2026-03-28T09:02:14Z</time></trkpt><trkpt lat="47.343518084372064" lon="6.297965514824445"><ele>331.0</ele><time>2026-03-28T09:02:15Z</time></trkpt><trkpt lat="47.34335546886558" lon="6.297651399212012"><ele>331.0</ele><time>2026-03-28T09:02:16Z</time></trkpt><trkpt lat="47.34319552049381" lon="6.2973368198785815"><ele>331.0</ele><time>2026-03-28T09:02:17Z</time></trkpt><trkpt lat="47.34303879349788" lon="6.297021483337344"><ele>331.0</ele><time>2026-03-28T09:02:18Z</time></trkpt><trkpt lat="47.342885874036504" lon="6.296701122341242"><ele>333.0</ele><time>2026-03-28T09:02:19Z</time></trkpt><trkpt lat="47.34273755334703" lon="6.2963827263421335"><ele>335.0</ele><time>2026-03-28T09:02:20Z</time></trkpt><trkpt lat="47.342594501368595" lon="6.296060595366087"><ele>335.0</ele><time>2026-03-28T09:02:21Z</time></trkpt><trkpt lat="47.342456026596615" lon="6.295737852249405"><ele>335.0</ele><time>2026-03-28T09:02:22Z</time></trkpt><trkpt lat="47.34231683635706" lon="6.295409850879605"><ele>337.0</ele><time>2026-03-28T09:02:23Z</time></trkpt><trkpt lat="47.34218027540376" lon="6.295078931764148"><ele>339.0</ele><time>2026-03-28T09:02:24Z</time></trkpt><trkpt lat="47.342045350005385" lon="6.294745942800195"><ele>341.0</ele><time>2026-03-28T09:02:25Z</time></trkpt><trkpt lat="47.341913795099906" lon="6.2944090210879615"><ele>343.0</ele><time>2026-03-28T09:02:26Z</time></trkpt><trkpt lat="47.34178447684957" lon="6.294070336422319"><ele>345.5</ele><time>2026-03-28T09:02:27Z</time></trkpt><trkpt lat="47.34165748432774" lon="6.293729569075685"><ele>348.0</ele><time>2026-03-28T09:02:28Z</time></trkpt><trkpt lat="47.34153421964583" lon="6.293389139290011"><ele>350.0</ele><time>2026-03-28T09:02:29Z</time></trkpt><trkpt lat="47.341413705539864" lon="6.293045348659268"><ele>352.0</ele><time>2026-03-28T09:02:30Z</time></trkpt><trkpt lat="47.341295898460714" lon="6.292699972210452"><ele>352.0</ele><time>2026-03-28T09:02:31Z</time></trkpt><trkpt lat="47.341179500976246" lon="6.2923524675876905"><ele>352.0</ele><time>2026-03-28T09:02:32Z</time></trkpt><trkpt lat="47.34106699882235" lon="6.2920020427575105"><ele>352.0</ele><time>2026-03-28T09:02:33Z</time></trkpt><trkpt lat="47.34095822201309" lon="6.291652563527833"><ele>352.0</ele><time>2026-03-28T09:02:34Z</time></trkpt><trkpt lat="47.340855579104" lon="6.2913020299557605"><ele>354.5</ele><time>2026-03-28T09:02:35Z</time></trkpt><trkpt lat="47.34074845424023" lon="6.2909478875027"><ele>357.0</ele><time>2026-03-28T09:02:36Z</time></trkpt><trkpt lat="47.34064767094932" lon="6.290594523426316"><ele>357.5</ele><time>2026-03-28T09:02:37Z</time></trkpt><trkpt lat="47.340552090112695" lon="6.29023931455117"><ele>358.0</ele><time>2026-03-28T09:02:38Z</time></trkpt><trkpt lat="47.34046108381904" lon="6.289878695081296"><ele>359.0</ele><time>2026-03-28T09:02:39Z</time></trkpt><trkpt lat="47.34037347547021" lon="6.289514300652853"><ele>360.0</ele><time>2026-03-28T09:02:40Z</time></trkpt><trkpt lat="47.34029283216946" lon="6.289149850609394"><ele>360.5</ele><time>2026-03-28T09:02:41Z</time></trkpt><trkpt lat="47.34021346670065" lon="6.288779353534002"><ele>361.0</ele><time>2026-03-28T09:02:42Z</time></trkpt><trkpt lat="47.3401376550999" lon="6.288408240702073"><ele>361.5</ele><time>2026-03-28T09:02:43Z</time></trkpt><trkpt lat="47.340065295813176" lon="6.288031594781129"><ele>362.0</ele><time>2026-03-28T09:02:44Z</time></trkpt><trkpt lat="47.340000932183386" lon="6.287652656775443"><ele>362.0</ele><time>2026-03-28T09:02:45Z</time></trkpt><trkpt lat="47.33994382380692" lon="6.287272465788459"><ele>362.0</ele><time>2026-03-28T09:02:46Z</time></trkpt><trkpt lat="47.33989748712214" lon="6.286890604141364"><ele>362.0</ele><time>2026-03-28T09:02:47Z</time></trkpt><trkpt lat="47.3398511940823" lon="6.286502568413084"><ele>362.0</ele><time>2026-03-28T09:02:48Z</time></trkpt><trkpt lat="47.339813895871" lon="6.286114570219554"><ele>362.0</ele><time>2026-03-28T09:02:49Z</time></trkpt><trkpt lat="47.3397808615562" lon="6.285723138299415"><ele>362.0</ele><time>2026-03-28T09:02:50Z</time></trkpt><trkpt lat="47.33975588355604" lon="6.285331034902171"><ele>364.5</ele><time>2026-03-28T09:02:51Z</time></trkpt><trkpt lat="47.33973801602142" lon="6.284933638252512"><ele>367.0</ele><time>2026-03-28T09:02:52Z</time></trkpt><trkpt lat="47.33972884964052" lon="6.284537145576641"><ele>368.5</ele><time>2026-03-28T09:02:53Z</time></trkpt><trkpt lat="47.33972703197893" lon="6.284142279200289"><ele>370.0</ele><time>2026-03-28T09:02:54Z</time></trkpt><trkpt lat="47.33973156847517" lon="6.2837480836105115"><ele>370.0</ele><time>2026-03-28T09:02:55Z</time></trkpt><trkpt lat="47.339743156011274" lon="6.283352292080428"><ele>370.0</ele><time>2026-03-28T09:02:56Z</time></trkpt><trkpt lat="47.33976033836787" lon="6.282951677217324"><ele>369.0</ele><time>2026-03-28T09:02:57Z</time></trkpt><trkpt lat="47.33978330502193" lon="6.282550652079533"><ele>368.0</ele><time>2026-03-28T09:02:58Z</time></trkpt><trkpt lat="47.339813469085" lon="6.282146467935825"><ele>367.5</ele><time>2026-03-28T09:02:59Z</time></trkpt><trkpt lat="47.339847597780405" lon="6.2817453212392955"><ele>367.0</ele><time>2026-03-28T09:03:00Z</time></trkpt><trkpt lat="47.33988971849131" lon="6.281347637657985"><ele>367.0</ele><time>2026-03-28T09:03:01Z</time></trkpt><trkpt lat="47.3399425062539" lon="6.280950586821582"><ele>367.0</ele><time>2026-03-28T09:03:02Z</time></trkpt><trkpt lat="47.340001653222956" lon="6.280560375524819"><ele>366.0</ele><time>2026-03-28T09:03:03Z</time></trkpt><trkpt lat="47.34006705161708" lon="6.2801696132588445"><ele>365.0</ele><time>2026-03-28T09:03:04Z</time></trkpt><trkpt lat="47.34013660497228" lon="6.279781095905246"><ele>365.0</ele><time>2026-03-28T09:03:05Z</time></trkpt><trkpt lat="47.34021178391067" lon="6.279395693720112"><ele>365.0</ele><time>2026-03-28T09:03:06Z</time></trkpt><trkpt lat="47.3402986134762" lon="6.279013509296092"><ele>363.5</ele><time>2026-03-28T09:03:07Z</time></trkpt><trkpt lat="47.34039024768679" lon="6.278633529020608"><ele>362.0</ele><time>2026-03-28T09:03:08Z</time></trkpt><trkpt lat="47.34048549803536" lon="6.278257977484458"><ele>363.0</ele><time>2026-03-28T09:03:09Z</time></trkpt><trkpt lat="47.34059034209221" lon="6.277887025641792"><ele>364.0</ele><time>2026-03-28T09:03:10Z</time></trkpt><trkpt lat="47.34069930166494" lon="6.277518840955189"><ele>364.0</ele><time>2026-03-28T09:03:11Z</time></trkpt><trkpt lat="47.34081433552819" lon="6.277160276201925"><ele>364.0</ele><time>2026-03-28T09:03:12Z</time></trkpt><trkpt lat="47.34093631984015" lon="6.276804629032229"><ele>364.0</ele><time>2026-03-28T09:03:13Z</time></trkpt><trkpt lat="47.34106408421092" lon="6.276451562273066"><ele>364.0</ele><time>2026-03-28T09:03:14Z</time></trkpt><trkpt lat="47.34119164494388" lon="6.276103497134411"><ele>364.0</ele><time>2026-03-28T09:03:15Z</time></trkpt><trkpt lat="47.34132870675178" lon="6.27575842271793"><ele>364.0</ele><time>2026-03-28T09:03:16Z</time></trkpt><trkpt lat="47.341460002915774" lon="6.275412220346138"><ele>363.5</ele><time>2026-03-28T09:03:17Z</time></trkpt><trkpt lat="47.34159954113979" lon="6.275066196126412"><ele>363.0</ele><time>2026-03-28T09:03:18Z</time></trkpt><trkpt lat="47.341739481835454" lon="6.274724766580034"><ele>362.5</ele><time>2026-03-28T09:03:19Z</time></trkpt><trkpt lat="47.341869364067804" lon="6.274371789375661"><ele>362.0</ele><time>2026-03-28T09:03:20Z</time></trkpt><trkpt lat="47.34200406496278" lon="6.274024387016521"><ele>362.0</ele><time>2026-03-28T09:03:21Z</time></trkpt><trkpt lat="47.342135557406976" lon="6.2736755593481"><ele>362.0</ele><time>2026-03-28T09:03:22Z</time></trkpt><trkpt lat="47.34226506357631" lon="6.2733285220827675"><ele>361.5</ele><time>2026-03-28T09:03:23Z</time></trkpt><trkpt lat="47.34239505634967" lon="6.272981683499649"><ele>361.0</ele><time>2026-03-28T09:03:24Z</time></trkpt><trkpt lat="47.34252190185514" lon="6.272637289910374"><ele>361.0</ele><time>2026-03-28T09:03:25Z</time></trkpt><trkpt lat="47.342645340606495" lon="6.272286422194571"><ele>361.0</ele><time>2026-03-28T09:03:26Z</time></trkpt><trkpt lat="47.34277307277688" lon="6.2719349719762425"><ele>361.0</ele><time>2026-03-28T09:03:27Z</time></trkpt><trkpt lat="47.34289200478701" lon="6.2715847202073745"><ele>361.0</ele><time>2026-03-28T09:03:28Z</time></trkpt><trkpt lat="47.34301182557298" lon="6.2712318797067645"><ele>363.0</ele><time>2026-03-28T09:03:29Z</time></trkpt><trkpt lat="47.343129129467336" lon="6.270870986906382"><ele>365.0</ele><time>2026-03-28T09:03:30Z</time></trkpt><trkpt lat="47.34324655832648" lon="6.270509174551948"><ele>365.0</ele><time>2026-03-28T09:03:31Z</time></trkpt><trkpt lat="47.343354863240016" lon="6.270147613226755"><ele>365.0</ele><time>2026-03-28T09:03:32Z</time></trkpt><trkpt lat="47.343461918324756" lon="6.269783907097971"><ele>364.5</ele><time>2026-03-28T09:03:33Z</time></trkpt><trkpt lat="47.34355677029684" lon="6.269416667154788"><ele>364.0</ele><time>2026-03-28T09:03:34Z</time></trkpt><trkpt lat="47.34364976100615" lon="6.269047912291778"><ele>364.5</ele><time>2026-03-28T09:03:35Z</time></trkpt><trkpt lat="47.34374003620423" lon="6.2686794264928265"><ele>365.0</ele><time>2026-03-28T09:03:36Z</time></trkpt><trkpt lat="47.34382824537237" lon="6.268307549325915"><ele>368.0</ele><time>2026-03-28T09:03:37Z</time></trkpt><trkpt lat="47.343917254583424" lon="6.26793367199758"><ele>371.0</ele><time>2026-03-28T09:03:38Z</time></trkpt><trkpt lat="47.34399814995061" lon="6.267559445420412"><ele>369.5</ele><time>2026-03-28T09:03:39Z</time></trkpt><trkpt lat="47.34407521393443" lon="6.267182027849913"><ele>368.0</ele><time>2026-03-28T09:03:40Z</time></trkpt><trkpt lat="47.344150409457754" lon="6.266803107904077"><ele>366.5</ele><time>2026-03-28T09:03:41Z</time></trkpt><trkpt lat="47.34422207867354" lon="6.266422361807706"><ele>365.0</ele><time>2026-03-28T09:03:42Z</time></trkpt><trkpt lat="47.34428652187483" lon="6.2660416729937145"><ele>365.0</ele><time>2026-03-28T09:03:43Z</time></trkpt><trkpt lat="47.34434735004212" lon="6.265657482703329"><ele>365.0</ele><time>2026-03-28T09:03:44Z</time></trkpt><trkpt lat="47.34440486692329" lon="6.265272306519334"><ele>364.5</ele><time>2026-03-28T09:03:45Z</time></trkpt><trkpt lat="47.34445469328266" lon="6.26488863965732"><ele>364.0</ele><time>2026-03-28T09:03:46Z</time></trkpt><trkpt lat="47.3445073722222" lon="6.264501810806645"><ele>364.0</ele><time>2026-03-28T09:03:47Z</time></trkpt><trkpt lat="47.34455170832928" lon="6.264114378203866"><ele>364.0</ele><time>2026-03-28T09:03:48Z</time></trkpt><trkpt lat="47.34459995989719" lon="6.26372800871985"><ele>364.0</ele><time>2026-03-28T09:03:49Z</time></trkpt><trkpt lat="47.34464231836779" lon="6.2633379511697305"><ele>364.0</ele><time>2026-03-28T09:03:50Z</time></trkpt><trkpt lat="47.34468020175346" lon="6.26294617570271"><ele>361.5</ele><time>2026-03-28T09:03:51Z</time></trkpt><trkpt lat="47.34472000243772" lon="6.262553943480828"><ele>359.0</ele><time>2026-03-28T09:03:52Z</time></trkpt><trkpt lat="47.3447503148617" lon="6.2621588893366935"><ele>358.5</ele><time>2026-03-28T09:03:53Z</time></trkpt><trkpt lat="47.344779002222175" lon="6.2617657427813045"><ele>358.0</ele><time>2026-03-28T09:03:54Z</time></trkpt><trkpt lat="47.344807955614606" lon="6.261373248248952"><ele>357.5</ele><time>2026-03-28T09:03:55Z</time></trkpt><trkpt lat="47.34483254204094" lon="6.260977377632787"><ele>357.0</ele><time>2026-03-28T09:03:56Z</time></trkpt><trkpt lat="47.344855910373745" lon="6.260581122748156"><ele>358.5</ele><time>2026-03-28T09:03:57Z</time></trkpt><trkpt lat="47.34487107687597" lon="6.260184298807094"><ele>360.0</ele><time>2026-03-28T09:03:58Z</time></trkpt><trkpt lat="47.34488347750665" lon="6.259788439503242"><ele>360.0</ele><time>2026-03-28T09:03:59Z</time></trkpt><trkpt lat="47.3448943747179" lon="6.259388823376062"><ele>360.0</ele><time>2026-03-28T09:04:00Z</time></trkpt><trkpt lat="47.34490738669808" lon="6.258994233811234"><ele>360.5</ele><time>2026-03-28T09:04:01Z</time></trkpt><trkpt lat="47.34491856430527" lon="6.258600640690234"><ele>361.0</ele><time>2026-03-28T09:04:02Z</time></trkpt><trkpt lat="47.34492343263818" lon="6.258205755925993"><ele>361.5</ele><time>2026-03-28T09:04:03Z</time></trkpt><trkpt lat="47.34492350508871" lon="6.257808484164566"><ele>362.0</ele><time>2026-03-28T09:04:04Z</time></trkpt><trkpt lat="47.34492311414081" lon="6.257414404883604"><ele>362.0</ele><time>2026-03-28T09:04:05Z</time></trkpt><trkpt lat="47.344921848652724" lon="6.257019615814697"><ele>362.0</ele><time>2026-03-28T09:04:06Z</time></trkpt><trkpt lat="47.34491914345968" lon="6.256622708287475"><ele>361.5</ele><time>2026-03-28T09:04:07Z</time></trkpt><trkpt lat="47.344911884773126" lon="6.256226716285602"><ele>361.0</ele><time>2026-03-28T09:04:08Z</time></trkpt><trkpt lat="47.34490447392579" lon="6.255832519705739"><ele>360.5</ele><time>2026-03-28T09:04:09Z</time></trkpt><trkpt lat="47.34489020346721" lon="6.255436905883784"><ele>360.0</ele><time>2026-03-28T09:04:10Z</time></trkpt><trkpt lat="47.344872186939455" lon="6.25503757634457"><ele>361.0</ele><time>2026-03-28T09:04:11Z</time></trkpt><trkpt lat="47.34485547542355" lon="6.254642636342284"><ele>362.0</ele><time>2026-03-28T09:04:12Z</time></trkpt><trkpt lat="47.34483619120508" lon="6.25424968831"><ele>362.5</ele><time>2026-03-28T09:04:13Z</time></trkpt><trkpt lat="47.34481174705898" lon="6.253852273535699"><ele>363.0</ele><time>2026-03-28T09:04:14Z</time></trkpt><trkpt lat="47.344786951850544" lon="6.2534561324318725"><ele>361.0</ele><time>2026-03-28T09:04:15Z</time></trkpt><trkpt lat="47.34475812348183" lon="6.253061276282467"><ele>359.0</ele><time>2026-03-28T09:04:16Z</time></trkpt><trkpt lat="47.344727150834686" lon="6.25266625777689"><ele>356.5</ele><time>2026-03-28T09:04:17Z</time></trkpt><trkpt lat="47.34468838713842" lon="6.252268386201434"><ele>354.0</ele><time>2026-03-28T09:04:18Z</time></trkpt><trkpt lat="47.34465340558495" lon="6.251876538355756"><ele>354.0</ele><time>2026-03-28T09:04:19Z</time></trkpt><trkpt lat="47.344615111230056" lon="6.251481236056694"><ele>354.0</ele><time>2026-03-28T09:04:20Z</time></trkpt><trkpt lat="47.344571205773605" lon="6.251087786082396"><ele>353.0</ele><time>2026-03-28T09:04:21Z</time></trkpt><trkpt lat="47.34452793214915" lon="6.250691626675502"><ele>352.0</ele><time>2026-03-28T09:04:22Z</time></trkpt><trkpt lat="47.34448121674162" lon="6.25029773261014"><ele>352.0</ele><time>2026-03-28T09:04:23Z</time></trkpt><trkpt lat="47.344431614083234" lon="6.249900681192548"><ele>352.0</ele><time>2026-03-28T09:04:24Z</time></trkpt><trkpt lat="47.34438174212299" lon="6.249509553961226"><ele>351.0</ele><time>2026-03-28T09:04:25Z</time></trkpt><trkpt lat="47.34432812096323" lon="6.249123265138742"><ele>350.0</ele><time>2026-03-28T09:04:26Z</time></trkpt><trkpt lat="47.34426952470899" lon="6.248737802224028"><ele>349.0</ele><time>2026-03-28T09:04:27Z</time></trkpt><trkpt lat="47.34420492714465" lon="6.248350526252727"><ele>348.0</ele><time>2026-03-28T09:04:28Z</time></trkpt><trkpt lat="47.34413352070246" lon="6.2479640401768615"><ele>348.0</ele><time>2026-03-28T09:04:29Z</time></trkpt><trkpt lat="47.344065274667315" lon="6.247575073199848"><ele>348.0</ele><time>2026-03-28T09:04:30Z</time></trkpt><trkpt lat="47.343992535272854" lon="6.24718362794687"><ele>347.5</ele><time>2026-03-28T09:04:31Z</time></trkpt><trkpt lat="47.34391768709421" lon="6.246786584649121"><ele>347.0</ele><time>2026-03-28T09:04:32Z</time></trkpt><trkpt lat="47.34384090331529" lon="6.246389556934088"><ele>344.0</ele><time>2026-03-28T09:04:33Z</time></trkpt><trkpt lat="47.3437552817838" lon="6.245989863591034"><ele>341.0</ele><time>2026-03-28T09:04:34Z</time></trkpt><trkpt lat="47.34366690544326" lon="6.245588789045272"><ele>340.5</ele><time>2026-03-28T09:04:35Z</time></trkpt><trkpt lat="47.343574140458855" lon="6.245190787806312"><ele>340.0</ele><time>2026-03-28T09:04:36Z</time></trkpt><trkpt lat="47.343479629526755" lon="6.244788949997181"><ele>339.5</ele><time>2026-03-28T09:04:37Z</time></trkpt><trkpt lat="47.34338242956736" lon="6.244391915409582"><ele>339.0</ele><time>2026-03-28T09:04:38Z</time></trkpt><trkpt lat="47.343284799543525" lon="6.243999817973469"><ele>337.5</ele><time>2026-03-28T09:04:39Z</time></trkpt><trkpt lat="47.343186472774086" lon="6.2436043732625786"><ele>336.0</ele><time>2026-03-28T09:04:40Z</time></trkpt><trkpt lat="47.34308628473152" lon="6.2432104999502345"><ele>334.0</ele><time>2026-03-28T09:04:41Z</time></trkpt><trkpt lat="47.3429812753985" lon="6.242815203275427"><ele>332.0</ele><time>2026-03-28T09:04:42Z</time></trkpt><trkpt lat="47.34287437140126" lon="6.24241569364464"><ele>331.0</ele><time>2026-03-28T09:04:43Z</time></trkpt><trkpt lat="47.342768984655486" lon="6.24202649737948"><ele>330.0</ele><time>2026-03-28T09:04:44Z</time></trkpt><trkpt lat="47.342665791698266" lon="6.241629008824671"><ele>331.0</ele><time>2026-03-28T09:04:45Z</time></trkpt><trkpt lat="47.342558109278876" lon="6.241237614690564"><ele>332.0</ele><time>2026-03-28T09:04:46Z</time></trkpt><trkpt lat="47.342456720036736" lon="6.2408439031174"><ele>332.0</ele><time>2026-03-28T09:04:47Z</time></trkpt><trkpt lat="47.34234912136191" lon="6.240452821287683"><ele>332.0</ele><time>2026-03-28T09:04:48Z</time></trkpt><trkpt lat="47.34223678888648" lon="6.24006360685479"><ele>329.0</ele><time>2026-03-28T09:04:49Z</time></trkpt><trkpt lat="47.34212494128446" lon="6.239676985128274"><ele>326.0</ele><time>2026-03-28T09:04:50Z</time></trkpt><trkpt lat="47.34201009173017" lon="6.239288273191965"><ele>326.0</ele><time>2026-03-28T09:04:51Z</time></trkpt><trkpt lat="47.341897486330225" lon="6.238899673438727"><ele>326.0</ele><time>2026-03-28T09:04:52Z</time></trkpt><trkpt lat="47.34178367076476" lon="6.238510225422607"><ele>327.0</ele><time>2026-03-28T09:04:53Z</time></trkpt><trkpt lat="47.34166955317094" lon="6.238121499765413"><ele>328.0</ele><time>2026-03-28T09:04:54Z</time></trkpt><trkpt lat="47.34155584426795" lon="6.23773306860301"><ele>328.0</ele><time>2026-03-28T09:04:55Z</time></trkpt><trkpt lat="47.34144298285039" lon="6.237347809545197"><ele>328.0</ele><time>2026-03-28T09:04:56Z</time></trkpt><trkpt lat="47.341330878060106" lon="6.236961863483014"><ele>324.0</ele><time>2026-03-28T09:04:57Z</time></trkpt><trkpt lat="47.34121402159946" lon="6.236579899192329"><ele>320.0</ele><time>2026-03-28T09:04:58Z</time></trkpt><trkpt lat="47.34110156797816" lon="6.236203391286678"><ele>320.0</ele><time>2026-03-28T09:04:59Z</time></trkpt><trkpt lat="47.340988022029386" lon="6.235824119496184"><ele>320.0</ele><time>2026-03-28T09:05:00Z</time></trkpt><trkpt lat="47.34087950939354" lon="6.235448171959272"><ele>320.0</ele><time>2026-03-28T09:05:01Z</time></trkpt><trkpt lat="47.340770573953606" lon="6.235077595287428"><ele>320.0</ele><time>2026-03-28T09:05:02Z</time></trkpt><trkpt lat="47.34066335711612" lon="6.234706624775896"><ele>319.5</ele><time>2026-03-28T09:05:03Z</time></trkpt><trkpt lat="47.34055598064996" lon="6.23433920959252"><ele>319.0</ele><time>2026-03-28T09:05:04Z</time></trkpt><trkpt lat="47.340452547522204" lon="6.233976788050475"><ele>317.0</ele><time>2026-03-28T09:05:05Z</time></trkpt><trkpt lat="47.340350698511486" lon="6.233611123334761"><ele>315.0</ele><time>2026-03-28T09:05:06Z</time></trkpt><trkpt lat="47.340248982318485" lon="6.233249542882673"><ele>315.0</ele><time>2026-03-28T09:05:07Z</time></trkpt><trkpt lat="47.340145524604495" lon="6.232886004767309"><ele>315.0</ele><time>2026-03-28T09:05:08Z</time></trkpt><trkpt lat="47.3400477522098" lon="6.232523613708182"><ele>314.0</ele><time>2026-03-28T09:05:09Z</time></trkpt><trkpt lat="47.33995391729659" lon="6.232155115688786"><ele>313.0</ele><time>2026-03-28T09:05:10Z</time></trkpt><trkpt lat="47.33985787384152" lon="6.231790021214814"><ele>312.5</ele><time>2026-03-28T09:05:11Z</time></trkpt><trkpt lat="47.33976058792063" lon="6.231425763434229"><ele>312.0</ele><time>2026-03-28T09:05:12Z</time></trkpt><trkpt lat="47.33967212875972" lon="6.231058628870751"><ele>312.0</ele><time>2026-03-28T09:05:13Z</time></trkpt><trkpt lat="47.33957957404289" lon="6.230693503972716"><ele>312.0</ele><time>2026-03-28T09:05:14Z</time></trkpt><trkpt lat="47.3394875297507" lon="6.230323548567886"><ele>312.0</ele><time>2026-03-28T09:05:15Z</time></trkpt><trkpt lat="47.339402399527245" lon="6.229955163093167"><ele>312.0</ele><time>2026-03-28T09:05:16Z</time></trkpt><trkpt lat="47.33931820613853" lon="6.229586572491605"><ele>312.0</ele><time>2026-03-28T09:05:17Z</time></trkpt><trkpt lat="47.339231001914364" lon="6.229215473257943"><ele>312.0</ele><time>2026-03-28T09:05:18Z</time></trkpt><trkpt lat="47.339150016155955" lon="6.22884874965747"><ele>311.0</ele><time>2026-03-28T09:05:19Z</time></trkpt><trkpt lat="47.33907288062573" lon="6.228479207558908"><ele>310.0</ele><time>2026-03-28T09:05:20Z</time></trkpt><trkpt lat="47.33900412936466" lon="6.228112764893642"><ele>308.5</ele><time>2026-03-28T09:05:21Z</time></trkpt><trkpt lat="47.33892990326709" lon="6.2277443106137245"><ele>307.0</ele><time>2026-03-28T09:05:22Z</time></trkpt><trkpt lat="47.338863054389996" lon="6.227380186436141"><ele>304.5</ele><time>2026-03-28T09:05:23Z</time></trkpt><trkpt lat="47.33879927636538" lon="6.227024893026552"><ele>302.0</ele><time>2026-03-28T09:05:24Z</time></trkpt><trkpt lat="47.33873636349124" lon="6.226663009802185"><ele>304.0</ele><time>2026-03-28T09:05:25Z</time></trkpt><trkpt lat="47.338676718030605" lon="6.226300276709266"><ele>306.0</ele><time>2026-03-28T09:05:26Z</time></trkpt><trkpt lat="47.33862205192927" lon="6.22593396285854"><ele>308.0</ele><time>2026-03-28T09:05:27Z</time></trkpt><trkpt lat="47.33856905950767" lon="6.225574691543084"><ele>310.0</ele><time>2026-03-28T09:05:28Z</time></trkpt><trkpt lat="47.338517487378866" lon="6.22521965661528"><ele>310.0</ele><time>2026-03-28T09:05:29Z</time></trkpt><trkpt lat="47.33846662422034" lon="6.224860369631413"><ele>310.0</ele><time>2026-03-28T09:05:30Z</time></trkpt><trkpt lat="47.338423569217646" lon="6.224504938298207"><ele>313.0</ele><time>2026-03-28T09:05:31Z</time></trkpt><trkpt lat="47.33837940803053" lon="6.224138986344538"><ele>316.0</ele><time>2026-03-28T09:05:32Z</time></trkpt><trkpt lat="47.33833610453962" lon="6.2237691488793185"><ele>317.0</ele><time>2026-03-28T09:05:33Z</time></trkpt><trkpt lat="47.33829755855589" lon="6.223398602424707"><ele>318.0</ele><time>2026-03-28T09:05:34Z</time></trkpt><trkpt lat="47.33826384252979" lon="6.223026265081952"><ele>318.5</ele><time>2026-03-28T09:05:35Z</time></trkpt><trkpt lat="47.33822746060276" lon="6.222649885416426"><ele>319.0</ele><time>2026-03-28T09:05:36Z</time></trkpt><trkpt lat="47.338185075040066" lon="6.222269954346926"><ele>319.5</ele><time>2026-03-28T09:05:37Z</time></trkpt><trkpt lat="47.338141118833946" lon="6.221890716669819"><ele>320.0</ele><time>2026-03-28T09:05:38Z</time></trkpt><trkpt lat="47.33810033997693" lon="6.221508843365308"><ele>320.0</ele><time>2026-03-28T09:05:39Z</time></trkpt><trkpt lat="47.338063957526785" lon="6.221121035397553"><ele>320.0</ele><time>2026-03-28T09:05:40Z</time></trkpt><trkpt lat="47.338036900384274" lon="6.2207317396964426"><ele>320.0</ele><time>2026-03-28T09:05:41Z</time></trkpt><trkpt lat="47.33801453984829" lon="6.220344667340955"><ele>320.0</ele><time>2026-03-28T09:05:42Z</time></trkpt><trkpt lat="47.33799446173443" lon="6.219953661111137"><ele>318.0</ele><time>2026-03-28T09:05:43Z</time></trkpt><trkpt lat="47.337978436337565" lon="6.219564874503563"><ele>316.0</ele><time>2026-03-28T09:05:44Z</time></trkpt><trkpt lat="47.33796405136857" lon="6.219171289258173"><ele>315.0</ele><time>2026-03-28T09:05:45Z</time></trkpt><trkpt lat="47.337955340538564" lon="6.218783805916344"><ele>314.0</ele><time>2026-03-28T09:05:46Z</time></trkpt><trkpt lat="47.33795190320212" lon="6.218391570999106"><ele>313.0</ele><time>2026-03-28T09:05:47Z</time></trkpt><trkpt lat="47.33794572871539" lon="6.217999019285366"><ele>312.0</ele><time>2026-03-28T09:05:48Z</time></trkpt><trkpt lat="47.337948648758605" lon="6.217611320575398"><ele>312.5</ele><time>2026-03-28T09:05:49Z</time></trkpt><trkpt lat="47.33795604148727" lon="6.2172183547557855"><ele>313.0</ele><time>2026-03-28T09:05:50Z</time></trkpt><trkpt lat="47.337962746633" lon="6.216822331405251"><ele>313.0</ele><time>2026-03-28T09:05:51Z</time></trkpt><trkpt lat="47.337970679780625" lon="6.2164305707190834"><ele>313.0</ele><time>2026-03-28T09:05:52Z</time></trkpt><trkpt lat="47.33797928990558" lon="6.2160380722855395"><ele>312.0</ele><time>2026-03-28T09:05:53Z</time></trkpt><trkpt lat="47.33798750476356" lon="6.215645198520636"><ele>311.0</ele><time>2026-03-28T09:05:54Z</time></trkpt><trkpt lat="47.33799739494545" lon="6.2152530218867765"><ele>311.0</ele><time>2026-03-28T09:05:55Z</time></trkpt><trkpt lat="47.338011764366414" lon="6.214862239058417"><ele>311.0</ele><time>2026-03-28T09:05:56Z</time></trkpt><trkpt lat="47.33802762641401" lon="6.214474823085661"><ele>310.5</ele><time>2026-03-28T09:05:57Z</time></trkpt><trkpt lat="47.338044204293986" lon="6.214084181257525"><ele>310.0</ele><time>2026-03-28T09:05:58Z</time></trkpt><trkpt lat="47.33806091012415" lon="6.213691781314143"><ele>310.5</ele><time>2026-03-28T09:05:59Z</time></trkpt><trkpt lat="47.338078771136054" lon="6.213305520905438"><ele>311.0</ele><time>2026-03-28T09:06:00Z</time></trkpt><trkpt lat="47.33809853309244" lon="6.21292216563706"><ele>311.0</ele><time>2026-03-28T09:06:01Z</time></trkpt><trkpt lat="47.338117882211364" lon="6.212535148500525"><ele>311.0</ele><time>2026-03-28T09:06:02Z</time></trkpt><trkpt lat="47.338140645973205" lon="6.212150643772875"><ele>310.0</ele><time>2026-03-28T09:06:03Z</time></trkpt><trkpt lat="47.33816153076747" lon="6.2117691324132"><ele>309.0</ele><time>2026-03-28T09:06:04Z</time></trkpt><trkpt lat="47.33819035430948" lon="6.211385982033705"><ele>309.0</ele><time>2026-03-28T09:06:05Z</time></trkpt><trkpt lat="47.33821040208906" lon="6.211003588864708"><ele>309.0</ele><time>2026-03-28T09:06:06Z</time></trkpt><trkpt lat="47.33823261073508" lon="6.210621814754987"><ele>309.5</ele><time>2026-03-28T09:06:07Z</time></trkpt><trkpt lat="47.33825001326784" lon="6.210234122599728"><ele>310.0</ele><time>2026-03-28T09:06:08Z</time></trkpt><trkpt lat="47.33826768160952" lon="6.209848428407862"><ele>309.0</ele><time>2026-03-28T09:06:09Z</time></trkpt><trkpt lat="47.33828163096093" lon="6.209459933003623"><ele>308.0</ele><time>2026-03-28T09:06:10Z</time></trkpt><trkpt lat="47.338291178112925" lon="6.209073406470867"><ele>307.0</ele><time>2026-03-28T09:06:11Z</time></trkpt><trkpt lat="47.33830821852007" lon="6.208687452112999"><ele>306.0</ele><time>2026-03-28T09:06:12Z</time></trkpt><trkpt lat="47.33832540572588" lon="6.208298898108208"><ele>306.0</ele><time>2026-03-28T09:06:13Z</time></trkpt><trkpt lat="47.33834069659393" lon="6.207911716213853"><ele>306.0</ele><time>2026-03-28T09:06:14Z</time></trkpt><trkpt lat="47.33835811846109" lon="6.207522595295139"><ele>305.5</ele><time>2026-03-28T09:06:15Z</time></trkpt><trkpt lat="47.338373852857266" lon="6.207130397034495"><ele>305.0</ele><time>2026-03-28T09:06:16Z</time></trkpt><trkpt lat="47.3383864006521" lon="6.2067379576602635"><ele>305.5</ele><time>2026-03-28T09:06:17Z</time></trkpt><trkpt lat="47.338399967320775" lon="6.206343068335058"><ele>306.0</ele><time>2026-03-28T09:06:18Z</time></trkpt><trkpt lat="47.33841052102163" lon="6.205947772330394"><ele>306.0</ele><time>2026-03-28T09:06:19Z</time></trkpt><trkpt lat="47.33841686895018" lon="6.20555437186491"><ele>306.0</ele><time>2026-03-28T09:06:20Z</time></trkpt><trkpt lat="47.33842474021271" lon="6.205159997116633"><ele>305.5</ele><time>2026-03-28T09:06:21Z</time></trkpt><trkpt lat="47.338427583892134" lon="6.204765955769294"><ele>305.0</ele><time>2026-03-28T09:06:22Z</time></trkpt><trkpt lat="47.33842900216272" lon="6.204372525696731"><ele>305.5</ele><time>2026-03-28T09:06:23Z</time></trkpt><trkpt lat="47.338428140145524" lon="6.203977535926785"><ele>306.0</ele><time>2026-03-28T09:06:24Z</time></trkpt><trkpt lat="47.338426646794424" lon="6.203580970540227"><ele>306.0</ele><time>2026-03-28T09:06:25Z</time></trkpt><trkpt lat="47.338422159612" lon="6.203185294031985"><ele>306.0</ele><time>2026-03-28T09:06:26Z</time></trkpt><trkpt lat="47.3384139146827" lon="6.202789454449869"><ele>304.5</ele><time>2026-03-28T09:06:27Z</time></trkpt><trkpt lat="47.3384023786717" lon="6.202398723672183"><ele>303.0</ele><time>2026-03-28T09:06:28Z</time></trkpt><trkpt lat="47.33838989678911" lon="6.202004801615732"><ele>302.5</ele><time>2026-03-28T09:06:29Z</time></trkpt><trkpt lat="47.33837956658585" lon="6.201611843057478"><ele>302.0</ele><time>2026-03-28T09:06:30Z</time></trkpt><trkpt lat="47.3383647024182" lon="6.2012150335504455"><ele>301.5</ele><time>2026-03-28T09:06:31Z</time></trkpt><trkpt lat="47.338352971478876" lon="6.200819309597291"><ele>301.0</ele><time>2026-03-28T09:06:32Z</time></trkpt><trkpt lat="47.338335942316775" lon="6.200423006898743"><ele>300.5</ele><time>2026-03-28T09:06:33Z</time></trkpt><trkpt lat="47.338322402840454" lon="6.200026441100888"><ele>300.0</ele><time>2026-03-28T09:06:34Z</time></trkpt><trkpt lat="47.33830688501471" lon="6.199632494900352"><ele>299.5</ele><time>2026-03-28T09:06:35Z</time></trkpt><trkpt lat="47.33828373384125" lon="6.199238156192141"><ele>299.0</ele><time>2026-03-28T09:06:36Z</time></trkpt><trkpt lat="47.33825758525098" lon="6.198847347374172"><ele>298.5</ele><time>2026-03-28T09:06:37Z</time></trkpt><trkpt lat="47.33823028747636" lon="6.198459177236741"><ele>298.0</ele><time>2026-03-28T09:06:38Z</time></trkpt><trkpt lat="47.33820141763318" lon="6.198070071840932"><ele>298.0</ele><time>2026-03-28T09:06:39Z</time></trkpt><trkpt lat="47.338174478275064" lon="6.197676876592094"><ele>298.0</ele><time>2026-03-28T09:06:40Z</time></trkpt><trkpt lat="47.33814473774602" lon="6.197285955949424"><ele>297.5</ele><time>2026-03-28T09:06:41Z</time></trkpt><trkpt lat="47.338114127188156" lon="6.196897186024565"><ele>297.0</ele><time>2026-03-28T09:06:42Z</time></trkpt><trkpt lat="47.338088608353104" lon="6.196507606020184"><ele>296.5</ele><time>2026-03-28T09:06:43Z</time></trkpt><trkpt lat="47.33806264300343" lon="6.196118087015968"><ele>296.0</ele><time>2026-03-28T09:06:44Z</time></trkpt><trkpt lat="47.338035495371116" lon="6.19572871795076"><ele>296.0</ele><time>2026-03-28T09:06:45Z</time></trkpt><trkpt lat="47.338007167387545" lon="6.195336766411078"><ele>296.0</ele><time>2026-03-28T09:06:46Z</time></trkpt><trkpt lat="47.33798583449842" lon="6.194941737363304"><ele>295.5</ele><time>2026-03-28T09:06:47Z</time></trkpt><trkpt lat="47.33796216987545" lon="6.194548598858961"><ele>295.0</ele><time>2026-03-28T09:06:48Z</time></trkpt><trkpt lat="47.33793561495499" lon="6.194155155211516"><ele>294.5</ele><time>2026-03-28T09:06:49Z</time></trkpt><trkpt lat="47.33790965840322" lon="6.1937607388711"><ele>294.0</ele><time>2026-03-28T09:06:50Z</time></trkpt><trkpt lat="47.33788294700994" lon="6.19336528594407"><ele>293.0</ele><time>2026-03-28T09:06:51Z</time></trkpt><trkpt lat="47.33785662353841" lon="6.192967954660618"><ele>292.0</ele><time>2026-03-28T09:06:52Z</time></trkpt><trkpt lat="47.33783053095269" lon="6.192569209067787"><ele>292.5</ele><time>2026-03-28T09:06:53Z</time></trkpt><trkpt lat="47.3378039330856" lon="6.192169256954385"><ele>293.0</ele><time>2026-03-28T09:06:54Z</time></trkpt><trkpt lat="47.33777571690902" lon="6.191773233494098"><ele>293.5</ele><time>2026-03-28T09:06:55Z</time></trkpt><trkpt lat="47.33774841502415" lon="6.191375427984645"><ele>294.0</ele><time>2026-03-28T09:06:56Z</time></trkpt><trkpt lat="47.337720323951324" lon="6.1909801437977885"><ele>293.5</ele><time>2026-03-28T09:06:57Z</time></trkpt><trkpt lat="47.337692902905445" lon="6.190584164926179"><ele>293.0</ele><time>2026-03-28T09:06:58Z</time></trkpt><trkpt lat="47.33766698803792" lon="6.1901886054646305"><ele>293.0</ele><time>2026-03-28T09:06:59Z</time></trkpt><trkpt lat="47.33764050620556" lon="6.189796888024411"><ele>293.0</ele><time>2026-03-28T09:07:00Z</time></trkpt><trkpt lat="47.33761492256675" lon="6.189399970980255"><ele>292.0</ele><time>2026-03-28T09:07:01Z</time></trkpt><trkpt lat="47.337589407588645" lon="6.189004829409335"><ele>291.0</ele><time>2026-03-28T09:07:02Z</time></trkpt><trkpt lat="47.33756047142018" lon="6.188610474686398"><ele>291.0</ele><time>2026-03-28T09:07:03Z</time></trkpt><trkpt lat="47.33753103273912" lon="6.188220873007263"><ele>291.0</ele><time>2026-03-28T09:07:04Z</time></trkpt><trkpt lat="47.33750604944576" lon="6.187827636422784"><ele>289.5</ele><time>2026-03-28T09:07:05Z</time></trkpt><trkpt lat="47.33748033424768" lon="6.187428506932804"><ele>288.0</ele><time>2026-03-28T09:07:06Z</time></trkpt><trkpt lat="47.337456534832356" lon="6.187036488851695"><ele>287.0</ele><time>2026-03-28T09:07:07Z</time></trkpt><trkpt lat="47.33743322802119" lon="6.186646418269424"><ele>286.0</ele><time>2026-03-28T09:07:08Z</time></trkpt><trkpt lat="47.337410419465336" lon="6.186250372183085"><ele>285.0</ele><time>2026-03-28T09:07:09Z</time></trkpt><trkpt lat="47.33739210633575" lon="6.185857986525975"><ele>284.0</ele><time>2026-03-28T09:07:10Z</time></trkpt><trkpt lat="47.33737382944233" lon="6.185466553944639"><ele>282.5</ele><time>2026-03-28T09:07:11Z</time></trkpt><trkpt lat="47.33735834040474" lon="6.185073478876017"><ele>281.0</ele><time>2026-03-28T09:07:12Z</time></trkpt><trkpt lat="47.33734652529953" lon="6.184682264868459"><ele>279.0</ele><time>2026-03-28T09:07:13Z</time></trkpt><trkpt lat="47.33733633876537" lon="6.184288281402493"><ele>277.0</ele><time>2026-03-28T09:07:14Z</time></trkpt><trkpt lat="47.33732897279078" lon="6.183897323611568"><ele>277.0</ele><time>2026-03-28T09:07:15Z</time></trkpt><trkpt lat="47.33732276855456" lon="6.1835039364501805"><ele>277.0</ele><time>2026-03-28T09:07:16Z</time></trkpt><trkpt lat="47.33731717658871" lon="6.183115910121673"><ele>277.0</ele><time>2026-03-28T09:07:17Z</time></trkpt><trkpt lat="47.33731755295437" lon="6.18272262180833"><ele>277.0</ele><time>2026-03-28T09:07:18Z</time></trkpt><trkpt lat="47.337317289985016" lon="6.182334572850857"><ele>278.5</ele><time>2026-03-28T09:07:19Z</time></trkpt><trkpt lat="47.337317592455946" lon="6.181947005113965"><ele>280.0</ele><time>2026-03-28T09:07:20Z</time></trkpt><trkpt lat="47.33732475760189" lon="6.181557970027345"><ele>280.5</ele><time>2026-03-28T09:07:21Z</time></trkpt><trkpt lat="47.33733156934988" lon="6.18117001655265"><ele>281.0</ele><time>2026-03-28T09:07:22Z</time></trkpt><trkpt lat="47.33734322925992" lon="6.180778963143999"><ele>280.0</ele><time>2026-03-28T09:07:23Z</time></trkpt><trkpt lat="47.3373577070908" lon="6.1803918625867675"><ele>279.0</ele><time>2026-03-28T09:07:24Z</time></trkpt><trkpt lat="47.33737408084401" lon="6.180003335012728"><ele>279.5</ele><time>2026-03-28T09:07:25Z</time></trkpt><trkpt lat="47.33738800913115" lon="6.179614973743984"><ele>280.0</ele><time>2026-03-28T09:07:26Z</time></trkpt><trkpt lat="47.33740159251645" lon="6.179230067162425"><ele>279.5</ele><time>2026-03-28T09:07:27Z</time></trkpt><trkpt lat="47.33742123869139" lon="6.178843583205022"><ele>279.0</ele><time>2026-03-28T09:07:28Z</time></trkpt><trkpt lat="47.33743767648806" lon="6.178458508667738"><ele>277.5</ele><time>2026-03-28T09:07:29Z</time></trkpt><trkpt lat="47.33745771601042" lon="6.178071580029099"><ele>276.0</ele><time>2026-03-28T09:07:30Z</time></trkpt><trkpt lat="47.33747820155175" lon="6.177691668473704"><ele>275.5</ele><time>2026-03-28T09:07:31Z</time></trkpt><trkpt lat="47.33750075083069" lon="6.177312927082829"><ele>275.0</ele><time>2026-03-28T09:07:32Z</time></trkpt><trkpt lat="47.337531366532154" lon="6.176939888915824"><ele>275.0</ele><time>2026-03-28T09:07:33Z</time></trkpt><trkpt lat="47.33755817214171" lon="6.176570027687576"><ele>275.0</ele><time>2026-03-28T09:07:34Z</time></trkpt><trkpt lat="47.3375834884339" lon="6.176202428265943"><ele>275.0</ele><time>2026-03-28T09:07:35Z</time></trkpt><trkpt lat="47.33760288642512" lon="6.175832373586281"><ele>275.0</ele><time>2026-03-28T09:07:36Z</time></trkpt><trkpt lat="47.33762034525748" lon="6.175460408121519"><ele>276.0</ele><time>2026-03-28T09:07:37Z</time></trkpt><trkpt lat="47.33764273797352" lon="6.175084387315964"><ele>277.0</ele><time>2026-03-28T09:07:38Z</time></trkpt><trkpt lat="47.33766436774857" lon="6.174703259047221"><ele>277.5</ele><time>2026-03-28T09:07:39Z</time></trkpt><trkpt lat="47.33768232564716" lon="6.174318752837415"><ele>278.0</ele><time>2026-03-28T09:07:40Z</time></trkpt><trkpt lat="47.337704751681535" lon="6.17393363979917"><ele>280.0</ele><time>2026-03-28T09:07:41Z</time></trkpt><trkpt lat="47.33772954552399" lon="6.17354276729346"><ele>282.0</ele><time>2026-03-28T09:07:42Z</time></trkpt><trkpt lat="47.33774981897483" lon="6.173160651497951"><ele>285.0</ele><time>2026-03-28T09:07:43Z</time></trkpt><trkpt lat="47.33776671532192" lon="6.172770505646613"><ele>288.0</ele><time>2026-03-28T09:07:44Z</time></trkpt><trkpt lat="47.33778507124634" lon="6.1723806092872975"><ele>288.5</ele><time>2026-03-28T09:07:45Z</time></trkpt><trkpt lat="47.337806064765516" lon="6.171989613765408"><ele>289.0</ele><time>2026-03-28T09:07:46Z</time></trkpt><trkpt lat="47.3378239787183" lon="6.17159837882208"><ele>290.0</ele><time>2026-03-28T09:07:47Z</time></trkpt><trkpt lat="47.33784178492345" lon="6.171204355675292"><ele>291.0</ele><time>2026-03-28T09:07:48Z</time></trkpt><trkpt lat="47.337857160862264" lon="6.170812448664985"><ele>290.5</ele><time>2026-03-28T09:07:49Z</time></trkpt><trkpt lat="47.337869336256986" lon="6.170418160149662"><ele>290.0</ele><time>2026-03-28T09:07:50Z</time></trkpt><trkpt lat="47.33787960404123" lon="6.170022627938825"><ele>289.0</ele><time>2026-03-28T09:07:51Z</time></trkpt><trkpt lat="47.33788340836678" lon="6.169625957600542"><ele>288.0</ele><time>2026-03-28T09:07:52Z</time></trkpt><trkpt lat="47.3378850515737" lon="6.1692329504725025"><ele>289.0</ele><time>2026-03-28T09:07:53Z</time></trkpt><trkpt lat="47.337891483467715" lon="6.168837424086124"><ele>290.0</ele><time>2026-03-28T09:07:54Z</time></trkpt><trkpt lat="47.33789830881858" lon="6.168442499591924"><ele>290.5</ele><time>2026-03-28T09:07:55Z</time></trkpt><trkpt lat="47.33790273044737" lon="6.168045770793802"><ele>291.0</ele><time>2026-03-28T09:07:56Z</time></trkpt><trkpt lat="47.337909873742845" lon="6.167651369800639"><ele>291.0</ele><time>2026-03-28T09:07:57Z</time></trkpt><trkpt lat="47.337908765338206" lon="6.1672539057047535"><ele>291.0</ele><time>2026-03-28T09:07:58Z</time></trkpt><trkpt lat="47.33790829469748" lon="6.166859851305669"><ele>291.0</ele><time>2026-03-28T09:07:59Z</time></trkpt><trkpt lat="47.33789828366333" lon="6.166463029294079"><ele>291.0</ele><time>2026-03-28T09:08:00Z</time></trkpt><trkpt lat="47.337886129301346" lon="6.16606935598365"><ele>293.0</ele><time>2026-03-28T09:08:01Z</time></trkpt><trkpt lat="47.337868381933674" lon="6.165681293896459"><ele>295.0</ele><time>2026-03-28T09:08:02Z</time></trkpt><trkpt lat="47.3378468274186" lon="6.165295337765762"><ele>295.0</ele><time>2026-03-28T09:08:03Z</time></trkpt><trkpt lat="47.3378298307558" lon="6.164916405624543"><ele>295.0</ele><time>2026-03-28T09:08:04Z</time></trkpt><trkpt lat="47.337808400529234" lon="6.164538029367445"><ele>295.0</ele><time>2026-03-28T09:08:05Z</time></trkpt><trkpt lat="47.337782976568654" lon="6.1641655228576555"><ele>295.0</ele><time>2026-03-28T09:08:06Z</time></trkpt><trkpt lat="47.33775721479219" lon="6.163793832822266"><ele>295.0</ele><time>2026-03-28T09:08:07Z</time></trkpt><trkpt lat="47.33772233703184" lon="6.163426561816264"><ele>295.0</ele><time>2026-03-28T09:08:08Z</time></trkpt><trkpt lat="47.3376857387189" lon="6.163063985034032"><ele>295.5</ele><time>2026-03-28T09:08:09Z</time></trkpt><trkpt lat="47.33764761772386" lon="6.162702321600008"><ele>296.0</ele><time>2026-03-28T09:08:10Z</time></trkpt><trkpt lat="47.337607281338116" lon="6.162343212869057"><ele>296.0</ele><time>2026-03-28T09:08:11Z</time></trkpt><trkpt lat="47.337570185795585" lon="6.161989639289073"><ele>296.0</ele><time>2026-03-28T09:08:12Z</time></trkpt><trkpt lat="47.33753025173865" lon="6.161635890639232"><ele>296.0</ele><time>2026-03-28T09:08:13Z</time></trkpt><trkpt lat="47.337486137654786" lon="6.161288325766496"><ele>296.0</ele><time>2026-03-28T09:08:14Z</time></trkpt><trkpt lat="47.33744281618792" lon="6.160943346701181"><ele>295.5</ele><time>2026-03-28T09:08:15Z</time></trkpt><trkpt lat="47.337398950445355" lon="6.160602978307134"><ele>295.0</ele><time>2026-03-28T09:08:16Z</time></trkpt><trkpt lat="47.33735365641782" lon="6.1602673906570535"><ele>295.0</ele><time>2026-03-28T09:08:17Z</time></trkpt><trkpt lat="47.337303289026444" lon="6.159932866896634"><ele>295.0</ele><time>2026-03-28T09:08:18Z</time></trkpt><trkpt lat="47.33724965363016" lon="6.159600247830973"><ele>295.5</ele><time>2026-03-28T09:08:19Z</time></trkpt><trkpt lat="47.33719467501465" lon="6.15927043413987"><ele>296.0</ele><time>2026-03-28T09:08:20Z</time></trkpt><trkpt lat="47.33713756709175" lon="6.158939768333972"><ele>297.5</ele><time>2026-03-28T09:08:21Z</time></trkpt><trkpt lat="47.33708085523499" lon="6.158614707670185"><ele>299.0</ele><time>2026-03-28T09:08:22Z</time></trkpt><trkpt lat="47.337026303212994" lon="6.158289006082279"><ele>299.5</ele><time>2026-03-28T09:08:23Z</time></trkpt><trkpt lat="47.33697427231774" lon="6.157964281287628"><ele>300.0</ele><time>2026-03-28T09:08:24Z</time></trkpt><trkpt lat="47.33692434807016" lon="6.157640156972095"><ele>300.0</ele><time>2026-03-28T09:08:25Z</time></trkpt><trkpt lat="47.33687556442552" lon="6.157332890728599"><ele>300.0</ele><time>2026-03-28T09:08:26Z</time></trkpt><trkpt lat="47.33682294252674" lon="6.157035567235777"><ele>300.0</ele><time>2026-03-28T09:08:27Z</time></trkpt><trkpt lat="47.33676898739653" lon="6.156751949495698"><ele>299.6666666666667</ele><time>2026-03-28T09:08:28Z</time></trkpt><trkpt lat="47.33671688660061" lon="6.156481425950637"><ele>299.33333333333337</ele><time>2026-03-28T09:08:29Z</time></trkpt><trkpt lat="47.33667043963037" lon="6.156220767735274"><ele>299.0</ele><time>2026-03-28T09:08:30Z</time></trkpt><trkpt lat="47.33663549260913" lon="6.155977520617356"><ele>299.0</ele><time>2026-03-28T09:08:31Z</time></trkpt><trkpt lat="47.33661260440363" lon="6.155742375923465"><ele>299.0</ele><time>2026-03-28T09:08:32Z</time></trkpt><trkpt lat="47.33661287180181" lon="6.155507813998383"><ele>299.0</ele><time>2026-03-28T09:08:33Z</time></trkpt><trkpt lat="47.33663167713978" lon="6.155283455867895"><ele>299.0</ele><time>2026-03-28T09:08:34Z</time></trkpt><trkpt lat="47.33667148835119" lon="6.155068736351682"><ele>299.0</ele><time>2026-03-28T09:08:35Z</time></trkpt><trkpt lat="47.336735456658175" lon="6.154869714462345"><ele>299.0</ele><time>2026-03-28T09:08:36Z</time></trkpt><trkpt lat="47.33680829870252" lon="6.154682370140367"><ele>299.0</ele><time>2026-03-28T09:08:37Z</time></trkpt><trkpt lat="47.336884326425185" lon="6.154505048715443"><ele>298.75</ele><time>2026-03-28T09:08:38Z</time></trkpt><trkpt lat="47.33696050851612" lon="6.15434486059756"><ele>298.5</ele><time>2026-03-28T09:08:39Z</time></trkpt><trkpt lat="47.337030242976525" lon="6.154189621576704"><ele>298.25</ele><time>2026-03-28T09:08:40Z</time></trkpt><trkpt lat="47.337088486111504" lon="6.154040187253387"><ele>298.0</ele><time>2026-03-28T09:08:41Z</time></trkpt><trkpt lat="47.33712550193157" lon="6.1538805873010345"><ele>298.0</ele><time>2026-03-28T09:08:42Z</time></trkpt><trkpt lat="47.33714547887338" lon="6.153718239803764"><ele>298.0</ele><time>2026-03-28T09:08:43Z</time></trkpt><trkpt lat="47.33713798148422" lon="6.153555941975109"><ele>298.0</ele><time>2026-03-28T09:08:44Z</time></trkpt><trkpt lat="47.337115559924214" lon="6.1533967082215115"><ele>298.0</ele><time>2026-03-28T09:08:45Z</time></trkpt><trkpt lat="47.337065613865974" lon="6.153254010182266"><ele>298.0</ele><time>2026-03-28T09:08:46Z</time></trkpt><trkpt lat="47.33699361411443" lon="6.15313070777033"><ele>298.5</ele><time>2026-03-28T09:08:47Z</time></trkpt><trkpt lat="47.33690222788285" lon="6.153032134281422"><ele>299.0</ele><time>2026-03-28T09:08:48Z</time></trkpt><trkpt lat="47.336800905823914" lon="6.1529587274044575"><ele>299.5</ele><time>2026-03-28T09:08:49Z</time></trkpt><trkpt lat="47.33668830857337" lon="6.152918930410189"><ele>300.0</ele><time>2026-03-28T09:08:50Z</time></trkpt><trkpt lat="47.33657222276935" lon="6.15290928470902"><ele>300.0</ele><time>2026-03-28T09:08:51Z</time></trkpt><trkpt lat="47.33645455183282" lon="6.152918575389688"><ele>300.0</ele><time>2026-03-28T09:08:52Z</time></trkpt><trkpt lat="47.3363349171179" lon="6.152954639714397"><ele>300.0</ele><time>2026-03-28T09:08:53Z</time></trkpt><trkpt lat="47.33621489695858" lon="6.153005830518678"><ele>300.0</ele><time>2026-03-28T09:08:54Z</time></trkpt><trkpt lat="47.33609423687165" lon="6.153055411613431"><ele>299.25</ele><time>2026-03-28T09:08:55Z</time></trkpt><trkpt lat="47.335970028599256" lon="6.15310207894171"><ele>298.5</ele><time>2026-03-28T09:08:56Z</time></trkpt><trkpt lat="47.33584381851049" lon="6.1531501443065775"><ele>297.75</ele><time>2026-03-28T09:08:57Z</time></trkpt><trkpt lat="47.33571269669033" lon="6.1531991550688305"><ele>297.0</ele><time>2026-03-28T09:08:58Z</time></trkpt><trkpt lat="47.335579313273975" lon="6.153250710028542"><ele>296.25</ele><time>2026-03-28T09:08:59Z</time></trkpt><trkpt lat="47.335448538798936" lon="6.15329977165325"><ele>295.5</ele><time>2026-03-28T09:09:00Z</time></trkpt><trkpt lat="47.335314064886475" lon="6.153352295371924"><ele>294.75</ele><time>2026-03-28T09:09:01Z</time></trkpt><trkpt lat="47.33517546247004" lon="6.153405048112477"><ele>294.0</ele><time>2026-03-28T09:09:02Z</time></trkpt><trkpt lat="47.335028824802315" lon="6.153461224122233"><ele>294.0</ele><time>2026-03-28T09:09:03Z</time></trkpt><trkpt lat="47.33488340130379" lon="6.15351787171365"><ele>294.0</ele><time>2026-03-28T09:09:04Z</time></trkpt><trkpt lat="47.33473710299508" lon="6.1535752423998975"><ele>294.0</ele><time>2026-03-28T09:09:05Z</time></trkpt><trkpt lat="47.33458589228035" lon="6.153634085974329"><ele>293.0</ele><time>2026-03-28T09:09:06Z</time></trkpt><trkpt lat="47.33443746022814" lon="6.153692145236993"><ele>292.0</ele><time>2026-03-28T09:09:07Z</time></trkpt><trkpt lat="47.334291533807935" lon="6.153747017616039"><ele>291.0</ele><time>2026-03-28T09:09:08Z</time></trkpt><trkpt lat="47.334146829444876" lon="6.153800181576"><ele>291.0</ele><time>2026-03-28T09:09:09Z</time></trkpt><trkpt lat="47.33400491322339" lon="6.1538378247914425"><ele>291.0</ele><time>2026-03-28T09:09:10Z</time></trkpt><trkpt lat="47.33386071499942" lon="6.153860295014988"><ele>291.0</ele><time>2026-03-28T09:09:11Z</time></trkpt><trkpt lat="47.33371977248182" lon="6.153850799791112"><ele>291.0</ele><time>2026-03-28T09:09:12Z</time></trkpt><trkpt lat="47.333582324562926" lon="6.153808354280644"><ele>290.25</ele><time>2026-03-28T09:09:13Z</time></trkpt><trkpt lat="47.33344921320798" lon="6.15373543008861"><ele>289.5</ele><time>2026-03-28T09:09:14Z</time></trkpt><trkpt lat="47.33332592847453" lon="6.153626477448315"><ele>288.75</ele><time>2026-03-28T09:09:15Z</time></trkpt><trkpt lat="47.33320982144374" lon="6.153490300446334"><ele>288.0</ele><time>2026-03-28T09:09:16Z</time></trkpt><trkpt lat="47.3331120054615" lon="6.153330428012063"><ele>287.75</ele><time>2026-03-28T09:09:17Z</time></trkpt><trkpt lat="47.33303383627297" lon="6.15316137518232"><ele>287.5</ele><time>2026-03-28T09:09:18Z</time></trkpt><trkpt lat="47.332969121463734" lon="6.1529731734030015"><ele>287.25</ele><time>2026-03-28T09:09:19Z</time></trkpt><trkpt lat="47.332918013511886" lon="6.152785785769214"><ele>287.0</ele><time>2026-03-28T09:09:20Z</time></trkpt><trkpt lat="47.33286890672952" lon="6.152604532192152"><ele>287.0</ele><time>2026-03-28T09:09:21Z</time></trkpt><trkpt lat="47.33280364890879" lon="6.15244259824025"><ele>287.0</ele><time>2026-03-28T09:09:22Z</time></trkpt><trkpt lat="47.332753605058144" lon="6.152281918654064"><ele>287.0</ele><time>2026-03-28T09:09:23Z</time></trkpt><trkpt lat="47.33270645966809" lon="6.152127696730851"><ele>287.0</ele><time>2026-03-28T09:09:24Z</time></trkpt><trkpt lat="47.33266075180026" lon="6.1519781772300615"><ele>287.1666666666667</ele><time>2026-03-28T09:09:25Z</time></trkpt><trkpt lat="47.33261923253591" lon="6.151844002503756"><ele>287.33333333333337</ele><time>2026-03-28T09:09:26Z</time></trkpt><trkpt lat="47.3325802846452" lon="6.151725140425566"><ele>287.5</ele><time>2026-03-28T09:09:27Z</time></trkpt><trkpt lat="47.332543630682636" lon="6.1516173929819296"><ele>287.6666666666667</ele><time>2026-03-28T09:09:28Z</time></trkpt><trkpt lat="47.3325261449613" lon="6.151515107785269"><ele>287.8333333333333</ele><time>2026-03-28T09:09:29Z</time></trkpt><trkpt lat="47.33247141060803" lon="6.151385872997182"><ele>288.0</ele><time>2026-03-28T09:09:31Z</time></trkpt><trkpt lat="47.3324346851244" lon="6.151283740982241"><ele>288.0</ele><time>2026-03-28T09:09:33Z</time></trkpt><trkpt lat="47.332407014396" lon="6.151199821576387"><ele>288.0</ele><time>2026-03-28T09:09:37Z</time></trkpt><trkpt lat="47.33236533077768" lon="6.151083694320568"><ele>288.0</ele><time>2026-03-28T09:09:40Z</time></trkpt><trkpt lat="47.332328035005055" lon="6.150965428303397"><ele>288.0</ele><time>2026-03-28T09:09:42Z</time></trkpt><trkpt lat="47.332296534451935" lon="6.1508844422911375"><ele>288.0</ele><time>2026-03-28T09:09:43Z</time></trkpt><trkpt lat="47.332250313942815" lon="6.150778932032113"><ele>288.0</ele><time>2026-03-28T09:09:44Z</time></trkpt><trkpt lat="47.332197597774105" lon="6.1506582838534145"><ele>288.2</ele><time>2026-03-28T09:09:45Z</time></trkpt><trkpt lat="47.332145435966105" lon="6.1505384672221"><ele>288.4</ele><time>2026-03-28T09:09:46Z</time></trkpt><trkpt lat="47.332091199045294" lon="6.150414422586114"><ele>288.59999999999997</ele><time>2026-03-28T09:09:47Z</time></trkpt><trkpt lat="47.33203725103323" lon="6.150284698019701"><ele>288.8</ele><time>2026-03-28T09:09:48Z</time></trkpt><trkpt lat="47.3319739810074" lon="6.150143536052674"><ele>289.0</ele><time>2026-03-28T09:09:49Z</time></trkpt><trkpt lat="47.33190964895762" lon="6.1499971815780174"><ele>289.5</ele><time>2026-03-28T09:09:50Z</time></trkpt><trkpt lat="47.33184549167228" lon="6.149851272957293"><ele>290.0</ele><time>2026-03-28T09:09:51Z</time></trkpt><trkpt lat="47.33177950227015" lon="6.149693780804584"><ele>290.5</ele><time>2026-03-28T09:09:52Z</time></trkpt><trkpt lat="47.3317190583181" lon="6.149531354721554"><ele>291.0</ele><time>2026-03-28T09:09:53Z</time></trkpt><trkpt lat="47.331659308792446" lon="6.149360015807939"><ele>291.0</ele><time>2026-03-28T09:09:54Z</time></trkpt><trkpt lat="47.3315986501435" lon="6.149183875732919"><ele>291.0</ele><time>2026-03-28T09:09:55Z</time></trkpt><trkpt lat="47.33153610755992" lon="6.149007215563973"><ele>291.0</ele><time>2026-03-28T09:09:56Z</time></trkpt><trkpt lat="47.33147261426652" lon="6.148829955740174"><ele>291.0</ele><time>2026-03-28T09:09:57Z</time></trkpt><trkpt lat="47.33140923393957" lon="6.148655330197671"><ele>291.25</ele><time>2026-03-28T09:09:58Z</time></trkpt><trkpt lat="47.33135061589282" lon="6.148486239855348"><ele>291.5</ele><time>2026-03-28T09:09:59Z</time></trkpt><trkpt lat="47.33129789051489" lon="6.148316999590593"><ele>291.75</ele><time>2026-03-28T09:10:00Z</time></trkpt><trkpt lat="47.33126379968985" lon="6.148145275634285"><ele>292.0</ele><time>2026-03-28T09:10:01Z</time></trkpt><trkpt lat="47.331253619583585" lon="6.147975555271254"><ele>292.4</ele><time>2026-03-28T09:10:02Z</time></trkpt><trkpt lat="47.33126957653133" lon="6.147818075647102"><ele>292.79999999999995</ele><time>2026-03-28T09:10:03Z</time></trkpt><trkpt lat="47.331304811419" lon="6.147689742139302"><ele>293.2</ele><time>2026-03-28T09:10:04Z</time></trkpt><trkpt lat="47.331355855668775" lon="6.147575992145808"><ele>293.59999999999997</ele><time>2026-03-28T09:10:05Z</time></trkpt><trkpt lat="47.331418100147175" lon="6.147481729062422"><ele>294.0</ele><time>2026-03-28T09:10:06Z</time></trkpt><trkpt lat="47.33148270519641" lon="6.147401279640115"><ele>294.6666666666667</ele><time>2026-03-28T09:10:07Z</time></trkpt><trkpt lat="47.331547079719655" lon="6.147336768016018"><ele>295.3333333333333</ele><time>2026-03-28T09:10:08Z</time></trkpt><trkpt lat="47.33161754185449" lon="6.147305192621042"><ele>296.0</ele><time>2026-03-28T09:10:09Z</time></trkpt><trkpt lat="47.33169466561237" lon="6.147295419900024"><ele>296.66666666666663</ele><time>2026-03-28T09:10:10Z</time></trkpt><trkpt lat="47.33177310892888" lon="6.147272575752688"><ele>297.3333333333333</ele><time>2026-03-28T09:10:11Z</time></trkpt><trkpt lat="47.331844114656825" lon="6.147223148629345"><ele>298.0</ele><time>2026-03-28T09:10:12Z</time></trkpt><trkpt lat="47.33190061556345" lon="6.1471422024075375"><ele>298.0</ele><time>2026-03-28T09:10:13Z</time></trkpt><trkpt lat="47.33193558405554" lon="6.14703768180948"><ele>298.0</ele><time>2026-03-28T09:10:14Z</time></trkpt><trkpt lat="47.331949564830055" lon="6.1469208392583345"><ele>298.0</ele><time>2026-03-28T09:10:15Z</time></trkpt><trkpt lat="47.331940317784664" lon="6.1468033925345935"><ele>298.0</ele><time>2026-03-28T09:10:16Z</time></trkpt><trkpt lat="47.331909139316835" lon="6.146694578327745"><ele>298.0</ele><time>2026-03-28T09:10:17Z</time></trkpt><trkpt lat="47.33187910021519" lon="6.146583939978955"><ele>298.0</ele><time>2026-03-28T09:10:18Z</time></trkpt><trkpt lat="47.3318659189227" lon="6.1464597115274024"><ele>298.6</ele><time>2026-03-28T09:10:19Z</time></trkpt><trkpt lat="47.33187651334615" lon="6.146321587593251"><ele>299.20000000000005</ele><time>2026-03-28T09:10:20Z</time></trkpt><trkpt lat="47.33190230855001" lon="6.146179984691203"><ele>299.8</ele><time>2026-03-28T09:10:21Z</time></trkpt><trkpt lat="47.33193371792428" lon="6.146028527374219"><ele>300.40000000000003</ele><time>2026-03-28T09:10:22Z</time></trkpt><trkpt lat="47.33196609676496" lon="6.145864708813129"><ele>301.0</ele><time>2026-03-28T09:10:23Z</time></trkpt><trkpt lat="47.33199391890501" lon="6.145692692296039"><ele>301.5</ele><time>2026-03-28T09:10:24Z</time></trkpt><trkpt lat="47.33201854075828" lon="6.145510376406147"><ele>302.0</ele><time>2026-03-28T09:10:25Z</time></trkpt><trkpt lat="47.332033489950845" lon="6.145319637256236"><ele>302.5</ele><time>2026-03-28T09:10:26Z</time></trkpt><trkpt lat="47.33204190401605" lon="6.14512019429457"><ele>303.0</ele><time>2026-03-28T09:10:27Z</time></trkpt><trkpt lat="47.332042786304086" lon="6.1449154786010425"><ele>303.75</ele><time>2026-03-28T09:10:28Z</time></trkpt><trkpt lat="47.33203389685226" lon="6.14470511356423"><ele>304.5</ele><time>2026-03-28T09:10:29Z</time></trkpt><trkpt lat="47.332016245488255" lon="6.144491397591579"><ele>305.25</ele><time>2026-03-28T09:10:30Z</time></trkpt><trkpt lat="47.33199057565863" lon="6.144272672448377"><ele>306.0</ele><time>2026-03-28T09:10:31Z</time></trkpt><trkpt lat="47.33195246235843" lon="6.144051109700046"><ele>307.0</ele><time>2026-03-28T09:10:32Z</time></trkpt><trkpt lat="47.33190442890525" lon="6.143825653714133"><ele>308.0</ele><time>2026-03-28T09:10:33Z</time></trkpt><trkpt lat="47.331845830663895" lon="6.1436009295667136"><ele>309.0</ele><time>2026-03-28T09:10:34Z</time></trkpt><trkpt lat="47.33178451869303" lon="6.143370140229862"><ele>309.3333333333333</ele><time>2026-03-28T09:10:35Z</time></trkpt><trkpt lat="47.331719940145774" lon="6.143132862537464"><ele>309.66666666666663</ele><time>2026-03-28T09:10:36Z</time></trkpt><trkpt lat="47.331654052229176" lon="6.142894097386793"><ele>310.0</ele><time>2026-03-28T09:10:37Z</time></trkpt><trkpt lat="47.331590207853736" lon="6.142663068285719"><ele>310.0</ele><time>2026-03-28T09:10:38Z</time></trkpt><trkpt lat="47.33152715225629" lon="6.142430158952123"><ele>310.0</ele><time>2026-03-28T09:10:39Z</time></trkpt><trkpt lat="47.33146073929248" lon="6.142193768620162"><ele>310.0</ele><time>2026-03-28T09:10:40Z</time></trkpt><trkpt lat="47.33139533002237" lon="6.141961281249013"><ele>310.3333333333333</ele><time>2026-03-28T09:10:41Z</time></trkpt><trkpt lat="47.331328755248" lon="6.141719058882199"><ele>310.6666666666667</ele><time>2026-03-28T09:10:42Z</time></trkpt><trkpt lat="47.33126089951805" lon="6.141476539286823"><ele>311.0</ele><time>2026-03-28T09:10:43Z</time></trkpt><trkpt lat="47.33119252723188" lon="6.141230290108831"><ele>310.6666666666667</ele><time>2026-03-28T09:10:44Z</time></trkpt><trkpt lat="47.3311276637119" lon="6.140980117129816"><ele>310.3333333333333</ele><time>2026-03-28T09:10:45Z</time></trkpt><trkpt lat="47.33105894031641" lon="6.140726699378383"><ele>310.0</ele><time>2026-03-28T09:10:46Z</time></trkpt><trkpt lat="47.3309881346003" lon="6.140471872268474"><ele>310.0</ele><time>2026-03-28T09:10:47Z</time></trkpt><trkpt lat="47.330920135249706" lon="6.140215158986856"><ele>310.0</ele><time>2026-03-28T09:10:48Z</time></trkpt><trkpt lat="47.330847090751135" lon="6.139956377845126"><ele>310.0</ele><time>2026-03-28T09:10:49Z</time></trkpt><trkpt lat="47.33077325371264" lon="6.139697724047651"><ele>310.3333333333333</ele><time>2026-03-28T09:10:50Z</time></trkpt><trkpt lat="47.3307031881706" lon="6.139437941437168"><ele>310.6666666666667</ele><time>2026-03-28T09:10:51Z</time></trkpt><trkpt lat="47.33062962007425" lon="6.1391780464257675"><ele>311.0</ele><time>2026-03-28T09:10:52Z</time></trkpt><trkpt lat="47.33055925257595" lon="6.13891916653051"><ele>311.0</ele><time>2026-03-28T09:10:53Z</time></trkpt><trkpt lat="47.33048707092642" lon="6.138663432615734"><ele>311.0</ele><time>2026-03-28T09:10:54Z</time></trkpt><trkpt lat="47.330415558819126" lon="6.138401897740727"><ele>311.0</ele><time>2026-03-28T09:10:55Z</time></trkpt><trkpt lat="47.330342118623335" lon="6.138138866091722"><ele>311.33333333333337</ele><time>2026-03-28T09:10:56Z</time></trkpt><trkpt lat="47.330267799810024" lon="6.137874142553956"><ele>311.6666666666667</ele><time>2026-03-28T09:10:57Z</time></trkpt><trkpt lat="47.33019140034293" lon="6.137607666732716"><ele>312.0</ele><time>2026-03-28T09:10:58Z</time></trkpt><trkpt lat="47.330114281999286" lon="6.137328364508392"><ele>312.0</ele><time>2026-03-28T09:10:59Z</time></trkpt><trkpt lat="47.33003453722439" lon="6.137057472385313"><ele>312.0</ele><time>2026-03-28T09:11:00Z</time></trkpt><trkpt lat="47.32995449018062" lon="6.136780186126362"><ele>312.0</ele><time>2026-03-28T09:11:01Z</time></trkpt><trkpt lat="47.32987344358643" lon="6.1365006595909675"><ele>311.6666666666667</ele><time>2026-03-28T09:11:02Z</time></trkpt><trkpt lat="47.32978973425926" lon="6.136221121408093"><ele>311.33333333333337</ele><time>2026-03-28T09:11:03Z</time></trkpt><trkpt lat="47.329702562291175" lon="6.135943758494245"><ele>311.0</ele><time>2026-03-28T09:11:04Z</time></trkpt><trkpt lat="47.32961244286434" lon="6.135664402121859"><ele>311.6666666666667</ele><time>2026-03-28T09:11:05Z</time></trkpt><trkpt lat="47.329520912299216" lon="6.135384825604822"><ele>312.3333333333333</ele><time>2026-03-28T09:11:06Z</time></trkpt><trkpt lat="47.32942654100343" lon="6.135109461576734"><ele>313.0</ele><time>2026-03-28T09:11:07Z</time></trkpt><trkpt lat="47.32932942883628" lon="6.134835676108806"><ele>313.0</ele><time>2026-03-28T09:11:08Z</time></trkpt><trkpt lat="47.329230603027405" lon="6.134563946836118"><ele>313.0</ele><time>2026-03-28T09:11:09Z</time></trkpt><trkpt lat="47.329127494677486" lon="6.134291911110074"><ele>313.0</ele><time>2026-03-28T09:11:10Z</time></trkpt><trkpt lat="47.32902206245559" lon="6.134019983986973"><ele>313.0</ele><time>2026-03-28T09:11:11Z</time></trkpt><trkpt lat="47.328915422386984" lon="6.1337497998523185"><ele>313.0</ele><time>2026-03-28T09:11:12Z</time></trkpt><trkpt lat="47.32880785481399" lon="6.13348160392506"><ele>313.0</ele><time>2026-03-28T09:11:13Z</time></trkpt><trkpt lat="47.32869751503447" lon="6.133213720601509"><ele>311.66666666666663</ele><time>2026-03-28T09:11:14Z</time></trkpt><trkpt lat="47.32858697384598" lon="6.132946754224162"><ele>310.3333333333333</ele><time>2026-03-28T09:11:15Z</time></trkpt><trkpt lat="47.32847481902767" lon="6.1326849344367655"><ele>309.0</ele><time>2026-03-28T09:11:16Z</time></trkpt><trkpt lat="47.32835783252257" lon="6.132422851283688"><ele>309.6666666666667</ele><time>2026-03-28T09:11:17Z</time></trkpt><trkpt lat="47.32824240316435" lon="6.132164115978087"><ele>310.33333333333337</ele><time>2026-03-28T09:11:18Z</time></trkpt><trkpt lat="47.328130810043824" lon="6.131908005863949"><ele>311.0</ele><time>2026-03-28T09:11:19Z</time></trkpt><trkpt lat="47.32801425480247" lon="6.131648150474496"><ele>309.6666666666667</ele><time>2026-03-28T09:11:20Z</time></trkpt><trkpt lat="47.327896766860505" lon="6.131390390299382"><ele>308.3333333333333</ele><time>2026-03-28T09:11:21Z</time></trkpt><trkpt lat="47.327780093862685" lon="6.131129457317251"><ele>307.0</ele><time>2026-03-28T09:11:22Z</time></trkpt><trkpt lat="47.32766498624254" lon="6.130870457556079"><ele>307.66666666666663</ele><time>2026-03-28T09:11:23Z</time></trkpt><trkpt lat="47.327550543561514" lon="6.130609499301459"><ele>308.3333333333333</ele><time>2026-03-28T09:11:24Z</time></trkpt><trkpt lat="47.327435980353165" lon="6.130348349710807"><ele>309.0</ele><time>2026-03-28T09:11:25Z</time></trkpt><trkpt lat="47.32732299527954" lon="6.130086355941491"><ele>309.0</ele><time>2026-03-28T09:11:26Z</time></trkpt><trkpt lat="47.32721071452947" lon="6.129823257218223"><ele>309.0</ele><time>2026-03-28T09:11:27Z</time></trkpt><trkpt lat="47.327100894396736" lon="6.1295643217197675"><ele>309.0</ele><time>2026-03-28T09:11:28Z</time></trkpt><trkpt lat="47.326991405721536" lon="6.129300484769125"><ele>309.3333333333333</ele><time>2026-03-28T09:11:29Z</time></trkpt><trkpt lat="47.32688072952469" lon="6.129035628672266"><ele>309.66666666666663</ele><time>2026-03-28T09:11:30Z</time></trkpt><trkpt lat="47.32677740596799" lon="6.128770783036892"><ele>310.0</ele><time>2026-03-28T09:11:31Z</time></trkpt><trkpt lat="47.326671604618404" lon="6.128503443160925"><ele>310.0</ele><time>2026-03-28T09:11:32Z</time></trkpt><trkpt lat="47.32656816192863" lon="6.1282322434623815"><ele>310.0</ele><time>2026-03-28T09:11:33Z</time></trkpt><trkpt lat="47.326467775127405" lon="6.127960177949108"><ele>310.0</ele><time>2026-03-28T09:11:34Z</time></trkpt><trkpt lat="47.3263709448137" lon="6.127684770701143"><ele>310.3333333333333</ele><time>2026-03-28T09:11:35Z</time></trkpt><trkpt lat="47.32627682271498" lon="6.1274091407182105"><ele>310.6666666666667</ele><time>2026-03-28T09:11:36Z</time></trkpt><trkpt lat="47.32618313364343" lon="6.1271318235264385"><ele>311.0</ele><time>2026-03-28T09:11:37Z</time></trkpt><trkpt lat="47.32609314518232" lon="6.126850829784075"><ele>311.33333333333337</ele><time>2026-03-28T09:11:38Z</time></trkpt><trkpt lat="47.326008700119566" lon="6.126566146425059"><ele>311.6666666666667</ele><time>2026-03-28T09:11:39Z</time></trkpt><trkpt lat="47.325925163497416" lon="6.126278642468377"><ele>312.0</ele><time>2026-03-28T09:11:40Z</time></trkpt><trkpt lat="47.325846475377" lon="6.1259868938639634"><ele>312.3333333333333</ele><time>2026-03-28T09:11:41Z</time></trkpt><trkpt lat="47.325771176909875" lon="6.125697062827519"><ele>312.66666666666663</ele><time>2026-03-28T09:11:42Z</time></trkpt><trkpt lat="47.32570192916263" lon="6.125406259497039"><ele>313.0</ele><time>2026-03-28T09:11:43Z</time></trkpt><trkpt lat="47.32563977695168" lon="6.125109865870887"><ele>314.0</ele><time>2026-03-28T09:11:44Z</time></trkpt><trkpt lat="47.32557861084083" lon="6.124812029488339"><ele>315.0</ele><time>2026-03-28T09:11:45Z</time></trkpt><trkpt lat="47.32552360100272" lon="6.124512305549188"><ele>316.0</ele><time>2026-03-28T09:11:46Z</time></trkpt><trkpt lat="47.32547599805615" lon="6.1242153402035715"><ele>315.66666666666663</ele><time>2026-03-28T09:11:47Z</time></trkpt><trkpt lat="47.32542972336992" lon="6.123915613576761"><ele>315.3333333333333</ele><time>2026-03-28T09:11:48Z</time></trkpt><trkpt lat="47.3253867244218" lon="6.123615583368202"><ele>315.0</ele><time>2026-03-28T09:11:49Z</time></trkpt><trkpt lat="47.325342026093" lon="6.123315887911833"><ele>315.0</ele><time>2026-03-28T09:11:50Z</time></trkpt><trkpt lat="47.32529861489898" lon="6.123015573892218"><ele>315.0</ele><time>2026-03-28T09:11:51Z</time></trkpt><trkpt lat="47.325254446537016" lon="6.1227149377499055"><ele>315.0</ele><time>2026-03-28T09:11:52Z</time></trkpt><trkpt lat="47.32520533668097" lon="6.122413951165053"><ele>315.6666666666667</ele><time>2026-03-28T09:11:53Z</time></trkpt><trkpt lat="47.32515380322598" lon="6.122110916032433"><ele>316.33333333333337</ele><time>2026-03-28T09:11:54Z</time></trkpt><trkpt lat="47.325099689036065" lon="6.121813215654373"><ele>317.0</ele><time>2026-03-28T09:11:55Z</time></trkpt><trkpt lat="47.32504115837326" lon="6.121516124105182"><ele>317.33333333333337</ele><time>2026-03-28T09:11:56Z</time></trkpt><trkpt lat="47.32497731790082" lon="6.121218457171632"><ele>317.6666666666667</ele><time>2026-03-28T09:11:57Z</time></trkpt><trkpt lat="47.32490814840226" lon="6.120921427136079"><ele>318.0</ele><time>2026-03-28T09:11:58Z</time></trkpt><trkpt lat="47.32483372902847" lon="6.120627502056727"><ele>318.0</ele><time>2026-03-28T09:11:59Z</time></trkpt><trkpt lat="47.3247567016797" lon="6.120337764374725"><ele>318.0</ele><time>2026-03-28T09:12:00Z</time></trkpt><trkpt lat="47.32467479013036" lon="6.1200508227219075"><ele>318.0</ele><time>2026-03-28T09:12:01Z</time></trkpt><trkpt lat="47.32458663763204" lon="6.119768397835075"><ele>318.0</ele><time>2026-03-28T09:12:02Z</time></trkpt><trkpt lat="47.32449475987833" lon="6.119488584000447"><ele>318.0</ele><time>2026-03-28T09:12:03Z</time></trkpt><trkpt lat="47.324398741029036" lon="6.1192122468973995"><ele>318.0</ele><time>2026-03-28T09:12:04Z</time></trkpt><trkpt lat="47.32429772109398" lon="6.118936461742959"><ele>318.6666666666667</ele><time>2026-03-28T09:12:05Z</time></trkpt><trkpt lat="47.324191580978834" lon="6.118667555265773"><ele>319.33333333333337</ele><time>2026-03-28T09:12:06Z</time></trkpt><trkpt lat="47.324080452498805" lon="6.11840082660863"><ele>320.0</ele><time>2026-03-28T09:12:07Z</time></trkpt><trkpt lat="47.32396661842877" lon="6.118136155117653"><ele>320.6666666666667</ele><time>2026-03-28T09:12:08Z</time></trkpt><trkpt lat="47.323847944151936" lon="6.117876787943411"><ele>321.3333333333333</ele><time>2026-03-28T09:12:09Z</time></trkpt><trkpt lat="47.32372735827314" lon="6.117619586431935"><ele>322.0</ele><time>2026-03-28T09:12:10Z</time></trkpt><trkpt lat="47.32359942766575" lon="6.1173689836862275"><ele>322.0</ele><time>2026-03-28T09:12:11Z</time></trkpt><trkpt lat="47.3234702580477" lon="6.117123235643923"><ele>322.0</ele><time>2026-03-28T09:12:12Z</time></trkpt><trkpt lat="47.323336154744275" lon="6.116883153512599"><ele>322.0</ele><time>2026-03-28T09:12:13Z</time></trkpt><trkpt lat="47.32320000098925" lon="6.116644516884226"><ele>321.3333333333333</ele><time>2026-03-28T09:12:14Z</time></trkpt><trkpt lat="47.32305981586753" lon="6.11641315453294"><ele>320.6666666666667</ele><time>2026-03-28T09:12:15Z</time></trkpt><trkpt lat="47.32291563404468" lon="6.116188008729229"><ele>320.0</ele><time>2026-03-28T09:12:16Z</time></trkpt><trkpt lat="47.322769121239965" lon="6.11596725252754"><ele>320.0</ele><time>2026-03-28T09:12:17Z</time></trkpt><trkpt lat="47.32261838907228" lon="6.115753350590297"><ele>320.0</ele><time>2026-03-28T09:12:18Z</time></trkpt><trkpt lat="47.322464963463176" lon="6.115535789115535"><ele>320.0</ele><time>2026-03-28T09:12:19Z</time></trkpt><trkpt lat="47.322309897244715" lon="6.115319471058892"><ele>318.6666666666667</ele><time>2026-03-28T09:12:20Z</time></trkpt><trkpt lat="47.322156322994985" lon="6.115107534101172"><ele>317.3333333333333</ele><time>2026-03-28T09:12:21Z</time></trkpt><trkpt lat="47.3220030799981" lon="6.114890328402363"><ele>316.0</ele><time>2026-03-28T09:12:22Z</time></trkpt><trkpt lat="47.321851560631" lon="6.114666613448261"><ele>316.0</ele><time>2026-03-28T09:12:23Z</time></trkpt><trkpt lat="47.32170827217904" lon="6.114438770925645"><ele>316.0</ele><time>2026-03-28T09:12:24Z</time></trkpt><trkpt lat="47.321565767914514" lon="6.114205263986752"><ele>316.0</ele><time>2026-03-28T09:12:25Z</time></trkpt><trkpt lat="47.32143174877309" lon="6.11397360690649"><ele>315.3333333333333</ele><time>2026-03-28T09:12:26Z</time></trkpt><trkpt lat="47.32129519163909" lon="6.113734589214894"><ele>314.6666666666667</ele><time>2026-03-28T09:12:27Z</time></trkpt><trkpt lat="47.32116437391573" lon="6.113493107804039"><ele>314.0</ele><time>2026-03-28T09:12:28Z</time></trkpt><trkpt lat="47.32103551825547" lon="6.113244940543514"><ele>315.0</ele><time>2026-03-28T09:12:29Z</time></trkpt><trkpt lat="47.32091072519128" lon="6.112992322801332"><ele>316.0</ele><time>2026-03-28T09:12:30Z</time></trkpt><trkpt lat="47.32079011382682" lon="6.11273294541632"><ele>317.0</ele><time>2026-03-28T09:12:31Z</time></trkpt><trkpt lat="47.32067360877912" lon="6.112471291114321"><ele>318.0</ele><time>2026-03-28T09:12:32Z</time></trkpt><trkpt lat="47.32056226995533" lon="6.112209266591483"><ele>319.0</ele><time>2026-03-28T09:12:33Z</time></trkpt><trkpt lat="47.32045440268348" lon="6.111946910696771"><ele>320.0</ele><time>2026-03-28T09:12:34Z</time></trkpt><trkpt lat="47.320351139163535" lon="6.111680160589394"><ele>320.6666666666667</ele><time>2026-03-28T09:12:35Z</time></trkpt><trkpt lat="47.32024940377863" lon="6.1114131675796015"><ele>321.3333333333333</ele><time>2026-03-28T09:12:36Z</time></trkpt><trkpt lat="47.32014596752975" lon="6.111144085780798"><ele>322.0</ele><time>2026-03-28T09:12:37Z</time></trkpt><trkpt lat="47.320045606726474" lon="6.110878903985179"><ele>322.66666666666663</ele><time>2026-03-28T09:12:38Z</time></trkpt><trkpt lat="47.31994382397861" lon="6.110609757861187"><ele>323.3333333333333</ele><time>2026-03-28T09:12:39Z</time></trkpt><trkpt lat="47.3198420562368" lon="6.110343526862365"><ele>324.0</ele><time>2026-03-28T09:12:40Z</time></trkpt><trkpt lat="47.31973977551287" lon="6.110076694129442"><ele>324.3333333333333</ele><time>2026-03-28T09:12:41Z</time></trkpt><trkpt lat="47.31963827222306" lon="6.109810907943909"><ele>324.66666666666663</ele><time>2026-03-28T09:12:42Z</time></trkpt><trkpt lat="47.319536597530615" lon="6.109545150719741"><ele>325.0</ele><time>2026-03-28T09:12:43Z</time></trkpt><trkpt lat="47.319433543068946" lon="6.109272469588177"><ele>326.0</ele><time>2026-03-28T09:12:44Z</time></trkpt><trkpt lat="47.319333877804794" lon="6.109005333302166"><ele>327.0</ele><time>2026-03-28T09:12:45Z</time></trkpt><trkpt lat="47.319229536392676" lon="6.1087347278008615"><ele>328.0</ele><time>2026-03-28T09:12:46Z</time></trkpt><trkpt lat="47.319128271224976" lon="6.108464753692296"><ele>326.66666666666663</ele><time>2026-03-28T09:12:47Z</time></trkpt><trkpt lat="47.319025300861334" lon="6.108197446024033"><ele>325.3333333333333</ele><time>2026-03-28T09:12:48Z</time></trkpt><trkpt lat="47.31892330070447" lon="6.107928062740532"><ele>324.0</ele><time>2026-03-28T09:12:49Z</time></trkpt><trkpt lat="47.31881953733538" lon="6.107656619472157"><ele>325.6666666666667</ele><time>2026-03-28T09:12:50Z</time></trkpt><trkpt lat="47.31871654676846" lon="6.107389382136208"><ele>327.33333333333337</ele><time>2026-03-28T09:12:51Z</time></trkpt><trkpt lat="47.3186142114361" lon="6.107120082289942"><ele>329.0</ele><time>2026-03-28T09:12:52Z</time></trkpt><trkpt lat="47.31850781617937" lon="6.106851794225472"><ele>329.0</ele><time>2026-03-28T09:12:53Z</time></trkpt><trkpt lat="47.318397987476025" lon="6.106588800882598"><ele>329.0</ele><time>2026-03-28T09:12:54Z</time></trkpt><trkpt lat="47.31828559864131" lon="6.106327570273437"><ele>329.0</ele><time>2026-03-28T09:12:55Z</time></trkpt><trkpt lat="47.318166084192505" lon="6.106073943583416"><ele>328.6666666666667</ele><time>2026-03-28T09:12:56Z</time></trkpt><trkpt lat="47.31804205899264" lon="6.105822634784779"><ele>328.3333333333333</ele><time>2026-03-28T09:12:57Z</time></trkpt><trkpt lat="47.317918176578445" lon="6.1055758722376074"><ele>328.0</ele><time>2026-03-28T09:12:58Z</time></trkpt><trkpt lat="47.31778812103145" lon="6.105339299029573"><ele>328.0</ele><time>2026-03-28T09:12:59Z</time></trkpt><trkpt lat="47.3176536528439" lon="6.105110044717082"><ele>328.0</ele><time>2026-03-28T09:13:00Z</time></trkpt><trkpt lat="47.31750951470915" lon="6.104884473985655"><ele>328.0</ele><time>2026-03-28T09:13:01Z</time></trkpt><trkpt lat="47.31736249127637" lon="6.104668918748991"><ele>329.66666666666663</ele><time>2026-03-28T09:13:02Z</time></trkpt><trkpt lat="47.317212903869155" lon="6.104460637795465"><ele>331.3333333333333</ele><time>2026-03-28T09:13:03Z</time></trkpt><trkpt lat="47.317059646654" lon="6.1042601220549795"><ele>333.0</ele><time>2026-03-28T09:13:04Z</time></trkpt><trkpt lat="47.31689587405529" lon="6.104063529243961"><ele>333.0</ele><time>2026-03-28T09:13:05Z</time></trkpt><trkpt lat="47.31672888394056" lon="6.103865656875178"><ele>333.0</ele><time>2026-03-28T09:13:06Z</time></trkpt><trkpt lat="47.316555567084166" lon="6.103683589507557"><ele>333.0</ele><time>2026-03-28T09:13:07Z</time></trkpt><trkpt lat="47.31637911001188" lon="6.103510271571346"><ele>334.3333333333333</ele><time>2026-03-28T09:13:08Z</time></trkpt><trkpt lat="47.316196278440174" lon="6.103345069046625"><ele>335.66666666666663</ele><time>2026-03-28T09:13:09Z</time></trkpt><trkpt lat="47.31601115100776" lon="6.1031942865483915"><ele>337.0</ele><time>2026-03-28T09:13:10Z</time></trkpt><trkpt lat="47.315823901371395" lon="6.103047312245033"><ele>337.0</ele><time>2026-03-28T09:13:11Z</time></trkpt><trkpt lat="47.31563873381846" lon="6.102904663849647"><ele>337.0</ele><time>2026-03-28T09:13:12Z</time></trkpt><trkpt lat="47.31544714654936" lon="6.102765191576394"><ele>337.0</ele><time>2026-03-28T09:13:13Z</time></trkpt><trkpt lat="47.315256061557804" lon="6.102626165592843"><ele>337.3333333333333</ele><time>2026-03-28T09:13:14Z</time></trkpt><trkpt lat="47.315067487137206" lon="6.102489331711871"><ele>337.6666666666667</ele><time>2026-03-28T09:13:15Z</time></trkpt><trkpt lat="47.314876801211945" lon="6.10234994262472"><ele>338.0</ele><time>2026-03-28T09:13:16Z</time></trkpt><trkpt lat="47.314685660782466" lon="6.102209665651187"><ele>341.0</ele><time>2026-03-28T09:13:17Z</time></trkpt><trkpt lat="47.31449811713011" lon="6.102064145546659"><ele>344.0</ele><time>2026-03-28T09:13:18Z</time></trkpt><trkpt lat="47.31431357022797" lon="6.101908371261485"><ele>347.0</ele><time>2026-03-28T09:13:19Z</time></trkpt><trkpt lat="47.314131772925414" lon="6.101739897718139"><ele>347.33333333333337</ele><time>2026-03-28T09:13:20Z</time></trkpt><trkpt lat="47.31395829680682" lon="6.1015602479402835"><ele>347.6666666666667</ele><time>2026-03-28T09:13:21Z</time></trkpt><trkpt lat="47.31378521877685" lon="6.101372715368702"><ele>348.0</ele><time>2026-03-28T09:13:22Z</time></trkpt><trkpt lat="47.313614144283974" lon="6.101178912761681"><ele>348.0</ele><time>2026-03-28T09:13:23Z</time></trkpt><trkpt lat="47.3134414692352" lon="6.100985383139524"><ele>348.0</ele><time>2026-03-28T09:13:24Z</time></trkpt><trkpt lat="47.313270480632895" lon="6.100796832643332"><ele>348.0</ele><time>2026-03-28T09:13:25Z</time></trkpt><trkpt lat="47.31309463815181" lon="6.100603765834021"><ele>347.6666666666667</ele><time>2026-03-28T09:13:26Z</time></trkpt><trkpt lat="47.3129234663987" lon="6.1004118373474405"><ele>347.33333333333337</ele><time>2026-03-28T09:13:27Z</time></trkpt><trkpt lat="47.31276033778271" lon="6.1002127933813"><ele>347.0</ele><time>2026-03-28T09:13:28Z</time></trkpt><trkpt lat="47.31260136764559" lon="6.100007964151812"><ele>347.6666666666667</ele><time>2026-03-28T09:13:29Z</time></trkpt><trkpt lat="47.31244732869973" lon="6.099787782836889"><ele>348.3333333333333</ele><time>2026-03-28T09:13:30Z</time></trkpt><trkpt lat="47.312298269437" lon="6.099557029084966"><ele>349.0</ele><time>2026-03-28T09:13:31Z</time></trkpt><trkpt lat="47.31215270321086" lon="6.099326355236657"><ele>349.0</ele><time>2026-03-28T09:13:32Z</time></trkpt><trkpt lat="47.31200457961526" lon="6.099099505129069"><ele>349.0</ele><time>2026-03-28T09:13:33Z</time></trkpt><trkpt lat="47.311866189928296" lon="6.098881031633394"><ele>349.0</ele><time>2026-03-28T09:13:34Z</time></trkpt><trkpt lat="47.3117321796645" lon="6.098671324264594"><ele>348.0</ele><time>2026-03-28T09:13:35Z</time></trkpt><trkpt lat="47.3116029908222" lon="6.098467690291139"><ele>347.0</ele><time>2026-03-28T09:13:36Z</time></trkpt><trkpt lat="47.31147415837266" lon="6.098274864313631"><ele>346.0</ele><time>2026-03-28T09:13:37Z</time></trkpt><trkpt lat="47.31134999064122" lon="6.098085522445734"><ele>346.0</ele><time>2026-03-28T09:13:38Z</time></trkpt><trkpt lat="47.311238151262046" lon="6.097909587101182"><ele>346.0</ele><time>2026-03-28T09:13:39Z</time></trkpt><trkpt lat="47.311127263438394" lon="6.0977439106317615"><ele>346.0</ele><time>2026-03-28T09:13:40Z</time></trkpt><trkpt lat="47.31102084531682" lon="6.097586404739531"><ele>346.0</ele><time>2026-03-28T09:13:41Z</time></trkpt><trkpt lat="47.31091368500183" lon="6.097432102664729"><ele>346.0</ele><time>2026-03-28T09:13:42Z</time></trkpt><trkpt lat="47.31081512792209" lon="6.097294821654955"><ele>346.0</ele><time>2026-03-28T09:13:43Z</time></trkpt><trkpt lat="47.31073204106711" lon="6.097175346055445"><ele>346.0</ele><time>2026-03-28T09:13:44Z</time></trkpt><trkpt lat="47.31065346713151" lon="6.097059639793684"><ele>346.0</ele><time>2026-03-28T09:13:45Z</time></trkpt><trkpt lat="47.31058040765084" lon="6.096941916835054"><ele>346.0</ele><time>2026-03-28T09:13:46Z</time></trkpt><trkpt lat="47.31051411342409" lon="6.09682328589511"><ele>346.0</ele><time>2026-03-28T09:13:47Z</time></trkpt><trkpt lat="47.310449485683215" lon="6.096704617306702"><ele>346.0</ele><time>2026-03-28T09:13:48Z</time></trkpt><trkpt lat="47.31038176138537" lon="6.096589960337783"><ele>346.0</ele><time>2026-03-28T09:13:49Z</time></trkpt><trkpt lat="47.31032403082705" lon="6.096482833505248"><ele>347.4</ele><time>2026-03-28T09:13:50Z</time></trkpt><trkpt lat="47.31026485566657" lon="6.096369855633202"><ele>348.8</ele><time>2026-03-28T09:13:51Z</time></trkpt><trkpt lat="47.31020902186318" lon="6.096253311261621"><ele>350.2</ele><time>2026-03-28T09:13:52Z</time></trkpt><trkpt lat="47.31015605234265" lon="6.09613318445094"><ele>351.59999999999997</ele><time>2026-03-28T09:13:53Z</time></trkpt><trkpt lat="47.31010651339661" lon="6.096010285604366"><ele>353.0</ele><time>2026-03-28T09:13:54Z</time></trkpt><trkpt lat="47.31005745394762" lon="6.09588759565482"><ele>353.0</ele><time>2026-03-28T09:13:55Z</time></trkpt><trkpt lat="47.31001333725362" lon="6.09576429079362"><ele>353.0</ele><time>2026-03-28T09:13:56Z</time></trkpt><trkpt lat="47.30996934414135" lon="6.095636410138226"><ele>353.0</ele><time>2026-03-28T09:13:57Z</time></trkpt><trkpt lat="47.309924307434066" lon="6.095506644692675"><ele>353.0</ele><time>2026-03-28T09:13:58Z</time></trkpt><trkpt lat="47.30988002414915" lon="6.0953731235202575"><ele>353.0</ele><time>2026-03-28T09:13:59Z</time></trkpt><trkpt lat="47.30983256931038" lon="6.095240202755618"><ele>353.0</ele><time>2026-03-28T09:14:00Z</time></trkpt><trkpt lat="47.309786341456885" lon="6.095103367136197"><ele>353.0</ele><time>2026-03-28T09:14:01Z</time></trkpt><trkpt lat="47.30973721652129" lon="6.094966382970555"><ele>353.0</ele><time>2026-03-28T09:14:02Z</time></trkpt><trkpt lat="47.30968529067639" lon="6.094830125411233"><ele>353.0</ele><time>2026-03-28T09:14:03Z</time></trkpt><trkpt lat="47.30963318895584" lon="6.0946962078644935"><ele>353.0</ele><time>2026-03-28T09:14:04Z</time></trkpt><trkpt lat="47.30958148589291" lon="6.0945604357048"><ele>353.4</ele><time>2026-03-28T09:14:05Z</time></trkpt><trkpt lat="47.3095303501322" lon="6.094427991935795"><ele>353.79999999999995</ele><time>2026-03-28T09:14:06Z</time></trkpt><trkpt lat="47.30948000090037" lon="6.0942959505007375"><ele>354.2</ele><time>2026-03-28T09:14:07Z</time></trkpt><trkpt lat="47.30943073588526" lon="6.094165007504945"><ele>354.6</ele><time>2026-03-28T09:14:08Z</time></trkpt><trkpt lat="47.309383219338564" lon="6.09403492769008"><ele>355.0</ele><time>2026-03-28T09:14:09Z</time></trkpt><trkpt lat="47.30933469889219" lon="6.093907544843155"><ele>355.2</ele><time>2026-03-28T09:14:10Z</time></trkpt><trkpt lat="47.309290356250195" lon="6.093785056305765"><ele>355.4</ele><time>2026-03-28T09:14:11Z</time></trkpt><trkpt lat="47.30924487660649" lon="6.093664421255575"><ele>355.6</ele><time>2026-03-28T09:14:12Z</time></trkpt><trkpt lat="47.309202220743764" lon="6.093540189418806"><ele>355.8</ele><time>2026-03-28T09:14:13Z</time></trkpt><trkpt lat="47.30915720033198" lon="6.093413462505224"><ele>356.0</ele><time>2026-03-28T09:14:14Z</time></trkpt><trkpt lat="47.30911469816317" lon="6.093282657511319"><ele>356.0</ele><time>2026-03-28T09:14:15Z</time></trkpt><trkpt lat="47.30906786658957" lon="6.093150398564367"><ele>356.0</ele><time>2026-03-28T09:14:16Z</time></trkpt><trkpt lat="47.30902673955249" lon="6.093014925021865"><ele>356.0</ele><time>2026-03-28T09:14:17Z</time></trkpt><trkpt lat="47.308978883031735" lon="6.092878218108252"><ele>356.0</ele><time>2026-03-28T09:14:18Z</time></trkpt><trkpt lat="47.30893317630376" lon="6.092745406181558"><ele>356.0</ele><time>2026-03-28T09:14:19Z</time></trkpt><trkpt lat="47.30888715768274" lon="6.092605884993921"><ele>355.6</ele><time>2026-03-28T09:14:20Z</time></trkpt><trkpt lat="47.308838630561354" lon="6.092468928195368"><ele>355.20000000000005</ele><time>2026-03-28T09:14:21Z</time></trkpt><trkpt lat="47.3087873317064" lon="6.092320302275054"><ele>354.79999999999995</ele><time>2026-03-28T09:14:22Z</time></trkpt><trkpt lat="47.308737226769274" lon="6.092184055870027"><ele>354.4</ele><time>2026-03-28T09:14:23Z</time></trkpt><trkpt lat="47.30868836922817" lon="6.092044805863094"><ele>354.0</ele><time>2026-03-28T09:14:24Z</time></trkpt><trkpt lat="47.308641112189754" lon="6.091897557748002"><ele>354.0</ele><time>2026-03-28T09:14:25Z</time></trkpt><trkpt lat="47.30859337579321" lon="6.091750184459627"><ele>354.0</ele><time>2026-03-28T09:14:26Z</time></trkpt><trkpt lat="47.30854392375187" lon="6.091601586165886"><ele>354.0</ele><time>2026-03-28T09:14:27Z</time></trkpt><trkpt lat="47.30849362191356" lon="6.09145011449298"><ele>354.0</ele><time>2026-03-28T09:14:28Z</time></trkpt><trkpt lat="47.3084396451607" lon="6.091301444681373"><ele>353.75</ele><time>2026-03-28T09:14:29Z</time></trkpt><trkpt lat="47.308386426984015" lon="6.091153990384012"><ele>353.5</ele><time>2026-03-28T09:14:30Z</time></trkpt><trkpt lat="47.308338312965326" lon="6.091004368363766"><ele>353.25</ele><time>2026-03-28T09:14:31Z</time></trkpt><trkpt lat="47.30828831911697" lon="6.090855612255148"><ele>353.0</ele><time>2026-03-28T09:14:32Z</time></trkpt><trkpt lat="47.30823742818177" lon="6.090708903940345"><ele>352.75</ele><time>2026-03-28T09:14:33Z</time></trkpt><trkpt lat="47.30818534528152" lon="6.090558279285962"><ele>352.5</ele><time>2026-03-28T09:14:34Z</time></trkpt><trkpt lat="47.30812412892071" lon="6.0904132498844215"><ele>352.25</ele><time>2026-03-28T09:14:35Z</time></trkpt><trkpt lat="47.30805974610782" lon="6.090272938773736"><ele>352.0</ele><time>2026-03-28T09:14:36Z</time></trkpt><trkpt lat="47.307986453961234" lon="6.0901352697505065"><ele>352.0</ele><time>2026-03-28T09:14:37Z</time></trkpt><trkpt lat="47.3079045303976" lon="6.090009285634553"><ele>352.0</ele><time>2026-03-28T09:14:38Z</time></trkpt><trkpt lat="47.307822401180644" lon="6.089883260815452"><ele>352.0</ele><time>2026-03-28T09:14:39Z</time></trkpt><trkpt lat="47.30773615103894" lon="6.089765927533875"><ele>352.0</ele><time>2026-03-28T09:14:40Z</time></trkpt><trkpt lat="47.307642008510555" lon="6.089656808847339"><ele>352.0</ele><time>2026-03-28T09:14:41Z</time></trkpt><trkpt lat="47.30754899570158" lon="6.089554742299972"><ele>352.0</ele><time>2026-03-28T09:14:42Z</time></trkpt><trkpt lat="47.30745025531113" lon="6.0894559956005505"><ele>352.0</ele><time>2026-03-28T09:14:43Z</time></trkpt><trkpt lat="47.30734678342619" lon="6.08936875885752"><ele>352.0</ele><time>2026-03-28T09:14:44Z</time></trkpt><trkpt lat="47.30724294826788" lon="6.089279584251513"><ele>352.75</ele><time>2026-03-28T09:14:45Z</time></trkpt><trkpt lat="47.307137620151146" lon="6.089193148633265"><ele>353.5</ele><time>2026-03-28T09:14:46Z</time></trkpt><trkpt lat="47.30703009911449" lon="6.089107185486509"><ele>354.25</ele><time>2026-03-28T09:14:47Z</time></trkpt><trkpt lat="47.30691766279333" lon="6.089021621335965"><ele>355.0</ele><time>2026-03-28T09:14:48Z</time></trkpt><trkpt lat="47.30679703427018" lon="6.0889325871962745"><ele>354.5</ele><time>2026-03-28T09:14:49Z</time></trkpt><trkpt lat="47.306669524989886" lon="6.088841864991245"><ele>354.0</ele><time>2026-03-28T09:14:50Z</time></trkpt><trkpt lat="47.306537464135545" lon="6.088746282278014"><ele>353.5</ele><time>2026-03-28T09:14:51Z</time></trkpt><trkpt lat="47.3064020957888" lon="6.08865648897674"><ele>353.0</ele><time>2026-03-28T09:14:52Z</time></trkpt><trkpt lat="47.306264682801036" lon="6.088562727172948"><ele>353.0</ele><time>2026-03-28T09:14:53Z</time></trkpt><trkpt lat="47.306122038328255" lon="6.088467805561318"><ele>353.0</ele><time>2026-03-28T09:14:54Z</time></trkpt><trkpt lat="47.30597672758472" lon="6.088371041216244"><ele>353.0</ele><time>2026-03-28T09:14:55Z</time></trkpt><trkpt lat="47.305834169240924" lon="6.088274536195957"><ele>353.0</ele><time>2026-03-28T09:14:56Z</time></trkpt><trkpt lat="47.30568331025331" lon="6.088172918343402"><ele>353.0</ele><time>2026-03-28T09:14:57Z</time></trkpt><trkpt lat="47.305534071867825" lon="6.088069684950679"><ele>353.0</ele><time>2026-03-28T09:14:58Z</time></trkpt><trkpt lat="47.30537808694303" lon="6.08796296615343"><ele>353.0</ele><time>2026-03-28T09:14:59Z</time></trkpt><trkpt lat="47.30522913797924" lon="6.087855255049821"><ele>353.0</ele><time>2026-03-28T09:15:00Z</time></trkpt><trkpt lat="47.30506948062077" lon="6.0877397236910165"><ele>353.0</ele><time>2026-03-28T09:15:01Z</time></trkpt><trkpt lat="47.30491647274037" lon="6.087611497439514"><ele>353.0</ele><time>2026-03-28T09:15:02Z</time></trkpt><trkpt lat="47.30476654595986" lon="6.0874672438381925"><ele>353.0</ele><time>2026-03-28T09:15:03Z</time></trkpt><trkpt lat="47.304618594671815" lon="6.08730125058994"><ele>353.0</ele><time>2026-03-28T09:15:04Z</time></trkpt><trkpt lat="47.30447567598112" lon="6.087125626027875"><ele>352.33333333333337</ele><time>2026-03-28T09:15:05Z</time></trkpt><trkpt lat="47.30431224409642" lon="6.086938023016084"><ele>351.6666666666667</ele><time>2026-03-28T09:15:06Z</time></trkpt><trkpt lat="47.30415501805714" lon="6.086745588863233"><ele>351.0</ele><time>2026-03-28T09:15:07Z</time></trkpt><trkpt lat="47.30399862644482" lon="6.086552600236344"><ele>351.6666666666667</ele><time>2026-03-28T09:15:08Z</time></trkpt><trkpt lat="47.30384000849355" lon="6.086357236433044"><ele>352.33333333333337</ele><time>2026-03-28T09:15:09Z</time></trkpt><trkpt lat="47.303680984257845" lon="6.086160633808757"><ele>353.0</ele><time>2026-03-28T09:15:10Z</time></trkpt><trkpt lat="47.30352250094739" lon="6.085968841977545"><ele>353.0</ele><time>2026-03-28T09:15:11Z</time></trkpt><trkpt lat="47.303358018625374" lon="6.085776790253791"><ele>353.0</ele><time>2026-03-28T09:15:12Z</time></trkpt><trkpt lat="47.30318228929376" lon="6.0856016398638415"><ele>353.0</ele><time>2026-03-28T09:15:13Z</time></trkpt><trkpt lat="47.3029914289472" lon="6.085449162943019"><ele>351.0</ele><time>2026-03-28T09:15:14Z</time></trkpt><trkpt lat="47.302800679920395" lon="6.085313088490484"><ele>349.0</ele><time>2026-03-28T09:15:15Z</time></trkpt><trkpt lat="47.302607896738785" lon="6.08517421775017"><ele>347.0</ele><time>2026-03-28T09:15:16Z</time></trkpt><trkpt lat="47.30241962624341" lon="6.08502975333202"><ele>346.33333333333337</ele><time>2026-03-28T09:15:17Z</time></trkpt><trkpt lat="47.30223988286729" lon="6.08486437580188"><ele>345.6666666666667</ele><time>2026-03-28T09:15:18Z</time></trkpt><trkpt lat="47.30207063454675" lon="6.084673488601306"><ele>345.0</ele><time>2026-03-28T09:15:19Z</time></trkpt><trkpt lat="47.30191352440095" lon="6.0844576330812945"><ele>345.0</ele><time>2026-03-28T09:15:20Z</time></trkpt><trkpt lat="47.30177351906399" lon="6.084222621960565"><ele>345.0</ele><time>2026-03-28T09:15:21Z</time></trkpt><trkpt lat="47.301634485404875" lon="6.083990200951896"><ele>345.0</ele><time>2026-03-28T09:15:22Z</time></trkpt><trkpt lat="47.301499420058725" lon="6.0837595156625675"><ele>343.6666666666667</ele><time>2026-03-28T09:15:23Z</time></trkpt><trkpt lat="47.301358930948844" lon="6.0835318371926075"><ele>342.33333333333337</ele><time>2026-03-28T09:15:24Z</time></trkpt><trkpt lat="47.30122289939443" lon="6.08329584124446"><ele>341.0</ele><time>2026-03-28T09:15:25Z</time></trkpt><trkpt lat="47.30108081326182" lon="6.083057957396328"><ele>340.33333333333337</ele><time>2026-03-28T09:15:26Z</time></trkpt><trkpt lat="47.30094066639578" lon="6.082824205471341"><ele>339.6666666666667</ele><time>2026-03-28T09:15:27Z</time></trkpt><trkpt lat="47.300796883693984" lon="6.082586592199125"><ele>339.0</ele><time>2026-03-28T09:15:28Z</time></trkpt><trkpt lat="47.3006561594386" lon="6.082353869702566"><ele>337.6666666666667</ele><time>2026-03-28T09:15:29Z</time></trkpt><trkpt lat="47.30051414588905" lon="6.08211838965007"><ele>336.33333333333337</ele><time>2026-03-28T09:15:30Z</time></trkpt><trkpt lat="47.30036425381415" lon="6.081885999595129"><ele>335.0</ele><time>2026-03-28T09:15:31Z</time></trkpt><trkpt lat="47.30022336524192" lon="6.08165345218822"><ele>334.0</ele><time>2026-03-28T09:15:32Z</time></trkpt><trkpt lat="47.30008018913037" lon="6.081418601570287"><ele>333.0</ele><time>2026-03-28T09:15:33Z</time></trkpt><trkpt lat="47.29994310324484" lon="6.081182850862544"><ele>332.0</ele><time>2026-03-28T09:15:34Z</time></trkpt><trkpt lat="47.29980119819191" lon="6.08094596957002"><ele>330.6666666666667</ele><time>2026-03-28T09:15:35Z</time></trkpt><trkpt lat="47.299662892622855" lon="6.080711224619588"><ele>329.3333333333333</ele><time>2026-03-28T09:15:36Z</time></trkpt><trkpt lat="47.29952243240284" lon="6.080475604795384"><ele>328.0</ele><time>2026-03-28T09:15:37Z</time></trkpt><trkpt lat="47.2993867385558" lon="6.080240938613443"><ele>328.0</ele><time>2026-03-28T09:15:38Z</time></trkpt><trkpt lat="47.29924642916133" lon="6.080009697381917"><ele>328.0</ele><time>2026-03-28T09:15:39Z</time></trkpt><trkpt lat="47.29911280554551" lon="6.079779511528952"><ele>328.0</ele><time>2026-03-28T09:15:40Z</time></trkpt><trkpt lat="47.29897882629732" lon="6.079546821456658"><ele>327.66666666666663</ele><time>2026-03-28T09:15:41Z</time></trkpt><trkpt lat="47.29884984538117" lon="6.079302016686814"><ele>327.3333333333333</ele><time>2026-03-28T09:15:42Z</time></trkpt><trkpt lat="47.298726639097055" lon="6.079054214472423"><ele>327.0</ele><time>2026-03-28T09:15:43Z</time></trkpt><trkpt lat="47.29861235781631" lon="6.078792881742094"><ele>325.6666666666667</ele><time>2026-03-28T09:15:44Z</time></trkpt><trkpt lat="47.29851503108653" lon="6.07852536598507"><ele>324.33333333333337</ele><time>2026-03-28T09:15:45Z</time></trkpt><trkpt lat="47.29843104891512" lon="6.078243169715442"><ele>323.0</ele><time>2026-03-28T09:15:46Z</time></trkpt><trkpt lat="47.2983614699082" lon="6.077957669427433"><ele>323.0</ele><time>2026-03-28T09:15:47Z</time></trkpt><trkpt lat="47.2983048963224" lon="6.077665145786715"><ele>323.0</ele><time>2026-03-28T09:15:48Z</time></trkpt><trkpt lat="47.29825747132855" lon="6.077365006308767"><ele>323.0</ele><time>2026-03-28T09:15:49Z</time></trkpt><trkpt lat="47.29821939909469" lon="6.077059853408839"><ele>323.0</ele><time>2026-03-28T09:15:50Z</time></trkpt><trkpt lat="47.29817418676877" lon="6.076761774856386"><ele>323.0</ele><time>2026-03-28T09:15:51Z</time></trkpt><trkpt lat="47.29812131373273" lon="6.076462391042571"><ele>323.0</ele><time>2026-03-28T09:15:52Z</time></trkpt><trkpt lat="47.29805915120004" lon="6.076166281022074"><ele>323.0</ele><time>2026-03-28T09:15:53Z</time></trkpt><trkpt lat="47.29798768713243" lon="6.075871493278981"><ele>323.0</ele><time>2026-03-28T09:15:54Z</time></trkpt><trkpt lat="47.29790598117991" lon="6.075586230131694"><ele>323.0</ele><time>2026-03-28T09:15:55Z</time></trkpt><trkpt lat="47.297824097741916" lon="6.075298080829742"><ele>324.6666666666667</ele><time>2026-03-28T09:15:56Z</time></trkpt><trkpt lat="47.2977527767479" lon="6.075002096357531"><ele>326.3333333333333</ele><time>2026-03-28T09:15:57Z</time></trkpt><trkpt lat="47.297671759158426" lon="6.074714294325941"><ele>328.0</ele><time>2026-03-28T09:15:58Z</time></trkpt><trkpt lat="47.297534159226984" lon="6.074462163336587"><ele>328.66666666666663</ele><time>2026-03-28T09:15:59Z</time></trkpt><trkpt lat="47.29741215471503" lon="6.074210382490572"><ele>329.3333333333333</ele><time>2026-03-28T09:16:00Z</time></trkpt><trkpt lat="47.29727425788948" lon="6.07397708555899"><ele>330.0</ele><time>2026-03-28T09:16:01Z</time></trkpt><trkpt lat="47.29712143925125" lon="6.07376386902194"><ele>330.3333333333333</ele><time>2026-03-28T09:16:02Z</time></trkpt><trkpt lat="47.296962179332965" lon="6.073577001689081"><ele>330.66666666666663</ele><time>2026-03-28T09:16:03Z</time></trkpt><trkpt lat="47.29679051994045" lon="6.0734078531324265"><ele>331.0</ele><time>2026-03-28T09:16:04Z</time></trkpt><trkpt lat="47.29661261441252" lon="6.073252938571761"><ele>331.0</ele><time>2026-03-28T09:16:05Z</time></trkpt><trkpt lat="47.29643332344492" lon="6.073103286933233"><ele>331.0</ele><time>2026-03-28T09:16:06Z</time></trkpt><trkpt lat="47.296246295294196" lon="6.0729493618067005"><ele>331.0</ele><time>2026-03-28T09:16:07Z</time></trkpt><trkpt lat="47.296061402347505" lon="6.072795374595961"><ele>331.0</ele><time>2026-03-28T09:16:08Z</time></trkpt><trkpt lat="47.29587601728701" lon="6.072641746482935"><ele>331.0</ele><time>2026-03-28T09:16:09Z</time></trkpt><trkpt lat="47.29568922921857" lon="6.072491545455412"><ele>331.0</ele><time>2026-03-28T09:16:10Z</time></trkpt><trkpt lat="47.295500719833356" lon="6.0723433638557385"><ele>330.66666666666663</ele><time>2026-03-28T09:16:11Z</time></trkpt><trkpt lat="47.29531733891602" lon="6.0721893689522854"><ele>330.3333333333333</ele><time>2026-03-28T09:16:12Z</time></trkpt><trkpt lat="47.295130177833926" lon="6.072038928809295"><ele>330.0</ele><time>2026-03-28T09:16:13Z</time></trkpt><trkpt lat="47.294943740118335" lon="6.071883942268891"><ele>330.0</ele><time>2026-03-28T09:16:14Z</time></trkpt><trkpt lat="47.29475538110809" lon="6.071731975592873"><ele>330.0</ele><time>2026-03-28T09:16:15Z</time></trkpt><trkpt lat="47.29457066523253" lon="6.071573003751595"><ele>330.0</ele><time>2026-03-28T09:16:16Z</time></trkpt><trkpt lat="47.29438297008077" lon="6.07141909906989"><ele>329.6666666666667</ele><time>2026-03-28T09:16:17Z</time></trkpt><trkpt lat="47.294196056045315" lon="6.071261605945509"><ele>329.33333333333337</ele><time>2026-03-28T09:16:18Z</time></trkpt><trkpt lat="47.29401175942126" lon="6.071108621716323"><ele>329.0</ele><time>2026-03-28T09:16:19Z</time></trkpt><trkpt lat="47.2938237448594" lon="6.070953523674919"><ele>329.33333333333337</ele><time>2026-03-28T09:16:20Z</time></trkpt><trkpt lat="47.29364121663489" lon="6.070801619179415"><ele>329.6666666666667</ele><time>2026-03-28T09:16:21Z</time></trkpt><trkpt lat="47.293457155328724" lon="6.070645771548091"><ele>330.0</ele><time>2026-03-28T09:16:22Z</time></trkpt><trkpt lat="47.2932720854083" lon="6.070495680659329"><ele>331.0</ele><time>2026-03-28T09:16:23Z</time></trkpt><trkpt lat="47.29308787396366" lon="6.070342540689553"><ele>332.0</ele><time>2026-03-28T09:16:24Z</time></trkpt><trkpt lat="47.29290432174217" lon="6.070191696640547"><ele>333.0</ele><time>2026-03-28T09:16:25Z</time></trkpt><trkpt lat="47.29271515683164" lon="6.070043749991497"><ele>332.6666666666667</ele><time>2026-03-28T09:16:26Z</time></trkpt><trkpt lat="47.292521239526074" lon="6.06989083805179"><ele>332.33333333333337</ele><time>2026-03-28T09:16:27Z</time></trkpt><trkpt lat="47.29233680814056" lon="6.069740348918917"><ele>332.0</ele><time>2026-03-28T09:16:28Z</time></trkpt><trkpt lat="47.29215343936875" lon="6.069587349664267"><ele>331.6666666666667</ele><time>2026-03-28T09:16:29Z</time></trkpt><trkpt lat="47.29196868028024" lon="6.0694379083540815"><ele>331.3333333333333</ele><time>2026-03-28T09:16:30Z</time></trkpt><trkpt lat="47.2917858502398" lon="6.069287627195061"><ele>331.0</ele><time>2026-03-28T09:16:31Z</time></trkpt><trkpt lat="47.29159859852795" lon="6.069134654679858"><ele>330.3333333333333</ele><time>2026-03-28T09:16:32Z</time></trkpt><trkpt lat="47.29141222142027" lon="6.068985780224675"><ele>329.6666666666667</ele><time>2026-03-28T09:16:33Z</time></trkpt><trkpt lat="47.29122596007816" lon="6.068833419582732"><ele>329.0</ele><time>2026-03-28T09:16:34Z</time></trkpt><trkpt lat="47.29104000059771" lon="6.068687281462255"><ele>329.0</ele><time>2026-03-28T09:16:35Z</time></trkpt><trkpt lat="47.2908554694163" lon="6.068534121938592"><ele>329.0</ele><time>2026-03-28T09:16:36Z</time></trkpt><trkpt lat="47.29066847991437" lon="6.0683805478604995"><ele>329.0</ele><time>2026-03-28T09:16:37Z</time></trkpt><trkpt lat="47.29048323868656" lon="6.0682269935636315"><ele>327.33333333333337</ele><time>2026-03-28T09:16:38Z</time></trkpt><trkpt lat="47.29029678277423" lon="6.068081581225049"><ele>325.6666666666667</ele><time>2026-03-28T09:16:39Z</time></trkpt><trkpt lat="47.290108165289084" lon="6.067923860904935"><ele>324.0</ele><time>2026-03-28T09:16:40Z</time></trkpt><trkpt lat="47.28993104804532" lon="6.067738274131866"><ele>324.0</ele><time>2026-03-28T09:16:41Z</time></trkpt><trkpt lat="47.28975901549307" lon="6.067536770278629"><ele>324.0</ele><time>2026-03-28T09:16:42Z</time></trkpt><trkpt lat="47.28960116306458" lon="6.067318036709106"><ele>324.0</ele><time>2026-03-28T09:16:43Z</time></trkpt><trkpt lat="47.28945448511609" lon="6.067079231453026"><ele>323.6666666666667</ele><time>2026-03-28T09:16:44Z</time></trkpt><trkpt lat="47.28931466958705" lon="6.066842152548964"><ele>323.33333333333337</ele><time>2026-03-28T09:16:45Z</time></trkpt><trkpt lat="47.289176000156495" lon="6.066607271682926"><ele>323.0</ele><time>2026-03-28T09:16:46Z</time></trkpt><trkpt lat="47.289037838856615" lon="6.0663757345850735"><ele>322.33333333333337</ele><time>2026-03-28T09:16:47Z</time></trkpt><trkpt lat="47.28889694053353" lon="6.0661571481059795"><ele>321.6666666666667</ele><time>2026-03-28T09:16:48Z</time></trkpt><trkpt lat="47.28874323465034" lon="6.0659485936778506"><ele>321.0</ele><time>2026-03-28T09:16:49Z</time></trkpt><trkpt lat="47.2885796792714" lon="6.065758974662477"><ele>320.6666666666667</ele><time>2026-03-28T09:16:50Z</time></trkpt><trkpt lat="47.288405466622784" lon="6.065579262058813"><ele>320.33333333333337</ele><time>2026-03-28T09:16:51Z</time></trkpt><trkpt lat="47.288221828176674" lon="6.065423119892394"><ele>320.0</ele><time>2026-03-28T09:16:52Z</time></trkpt><trkpt lat="47.28803029700227" lon="6.065279502088317"><ele>320.0</ele><time>2026-03-28T09:16:53Z</time></trkpt><trkpt lat="47.287826424595906" lon="6.065146590025861"><ele>320.0</ele><time>2026-03-28T09:16:54Z</time></trkpt><trkpt lat="47.287623637437235" lon="6.065036285029339"><ele>320.0</ele><time>2026-03-28T09:16:55Z</time></trkpt><trkpt lat="47.2874206989728" lon="6.064932998762896"><ele>318.6666666666667</ele><time>2026-03-28T09:16:56Z</time></trkpt><trkpt lat="47.28721589194415" lon="6.064842153528733"><ele>317.3333333333333</ele><time>2026-03-28T09:16:57Z</time></trkpt><trkpt lat="47.287014055585104" lon="6.06474947770001"><ele>316.0</ele><time>2026-03-28T09:16:58Z</time></trkpt><trkpt lat="47.2868156013989" lon="6.064650005475159"><ele>316.0</ele><time>2026-03-28T09:16:59Z</time></trkpt><trkpt lat="47.28661724290096" lon="6.06454755571086"><ele>316.0</ele><time>2026-03-28T09:17:00Z</time></trkpt><trkpt lat="47.286419014614616" lon="6.064438184323885"><ele>316.0</ele><time>2026-03-28T09:17:01Z</time></trkpt><trkpt lat="47.2862217351373" lon="6.064330445685594"><ele>315.3333333333333</ele><time>2026-03-28T09:17:02Z</time></trkpt><trkpt lat="47.28602665635259" lon="6.064221623658357"><ele>314.6666666666667</ele><time>2026-03-28T09:17:03Z</time></trkpt><trkpt lat="47.28582685850017" lon="6.06411335702325"><ele>314.0</ele><time>2026-03-28T09:17:04Z</time></trkpt><trkpt lat="47.285633013466196" lon="6.064006699636996"><ele>315.33333333333337</ele><time>2026-03-28T09:17:05Z</time></trkpt><trkpt lat="47.285434549700206" lon="6.063896802002144"><ele>316.6666666666667</ele><time>2026-03-28T09:17:06Z</time></trkpt><trkpt lat="47.28523641100041" lon="6.063785552021665"><ele>318.0</ele><time>2026-03-28T09:17:07Z</time></trkpt><trkpt lat="47.285043754300716" lon="6.0636751963561855"><ele>318.0</ele><time>2026-03-28T09:17:08Z</time></trkpt><trkpt lat="47.284847551814195" lon="6.0635560975979494"><ele>318.0</ele><time>2026-03-28T09:17:09Z</time></trkpt><trkpt lat="47.28465365535389" lon="6.0634465036107335"><ele>318.0</ele><time>2026-03-28T09:17:10Z</time></trkpt><trkpt lat="47.28446006738334" lon="6.063333206913593"><ele>319.0</ele><time>2026-03-28T09:17:11Z</time></trkpt><trkpt lat="47.28426932159099" lon="6.063214997031889"><ele>320.0</ele><time>2026-03-28T09:17:12Z</time></trkpt><trkpt lat="47.284082911167886" lon="6.063073942086605"><ele>321.0</ele><time>2026-03-28T09:17:13Z</time></trkpt><trkpt lat="47.28390219716281" lon="6.062915748468366"><ele>321.0</ele><time>2026-03-28T09:17:14Z</time></trkpt><trkpt lat="47.28373200969151" lon="6.0627362033542855"><ele>321.0</ele><time>2026-03-28T09:17:15Z</time></trkpt><trkpt lat="47.28356873062241" lon="6.062539466891036"><ele>321.0</ele><time>2026-03-28T09:17:16Z</time></trkpt><trkpt lat="47.283405887200765" lon="6.062344679713016"><ele>322.6666666666667</ele><time>2026-03-28T09:17:17Z</time></trkpt><trkpt lat="47.28323913424528" lon="6.062157086366085"><ele>324.33333333333337</ele><time>2026-03-28T09:17:18Z</time></trkpt><trkpt lat="47.28305729231972" lon="6.06198236759566"><ele>326.0</ele><time>2026-03-28T09:17:19Z</time></trkpt><trkpt lat="47.28287754695535" lon="6.061832186908859"><ele>326.0</ele><time>2026-03-28T09:17:20Z</time></trkpt><trkpt lat="47.282689244060876" lon="6.061704978759358"><ele>326.0</ele><time>2026-03-28T09:17:21Z</time></trkpt><trkpt lat="47.2824953908928" lon="6.061586920558379"><ele>326.0</ele><time>2026-03-28T09:17:22Z</time></trkpt><trkpt lat="47.28230021696937" lon="6.061473890422326"><ele>327.0</ele><time>2026-03-28T09:17:23Z</time></trkpt><trkpt lat="47.28210654166559" lon="6.061366514679638"><ele>328.0</ele><time>2026-03-28T09:17:24Z</time></trkpt><trkpt lat="47.2819114750839" lon="6.061263129508739"><ele>329.0</ele><time>2026-03-28T09:17:25Z</time></trkpt><trkpt lat="47.281712792899086" lon="6.061152258449133"><ele>329.0</ele><time>2026-03-28T09:17:26Z</time></trkpt><trkpt lat="47.281520825743634" lon="6.061047401844567"><ele>329.0</ele><time>2026-03-28T09:17:27Z</time></trkpt><trkpt lat="47.28132384350206" lon="6.060941306549182"><ele>329.0</ele><time>2026-03-28T09:17:28Z</time></trkpt><trkpt lat="47.28112667017937" lon="6.060835204958004"><ele>328.6666666666667</ele><time>2026-03-28T09:17:29Z</time></trkpt><trkpt lat="47.28092877245562" lon="6.0607278395808"><ele>328.3333333333333</ele><time>2026-03-28T09:17:30Z</time></trkpt><trkpt lat="47.280723552948245" lon="6.060622800703203"><ele>328.0</ele><time>2026-03-28T09:17:31Z</time></trkpt><trkpt lat="47.28052366437267" lon="6.060533960286315"><ele>328.0</ele><time>2026-03-28T09:17:32Z</time></trkpt><trkpt lat="47.28032110281702" lon="6.060461696701615"><ele>328.0</ele><time>2026-03-28T09:17:33Z</time></trkpt><trkpt lat="47.28011683499268" lon="6.060387918983231"><ele>328.0</ele><time>2026-03-28T09:17:34Z</time></trkpt><trkpt lat="47.279910779787016" lon="6.060317276862717"><ele>328.0</ele><time>2026-03-28T09:17:35Z</time></trkpt><trkpt lat="47.27970727841354" lon="6.060241060999492"><ele>328.0</ele><time>2026-03-28T09:17:36Z</time></trkpt><trkpt lat="47.27950115979586" lon="6.060154084779447"><ele>328.0</ele><time>2026-03-28T09:17:37Z</time></trkpt><trkpt lat="47.27929384731314" lon="6.060078417763908"><ele>328.0</ele><time>2026-03-28T09:17:38Z</time></trkpt><trkpt lat="47.27909314134887" lon="6.059996755418279"><ele>328.0</ele><time>2026-03-28T09:17:39Z</time></trkpt><trkpt lat="47.27889015567595" lon="6.059913937937532"><ele>328.0</ele><time>2026-03-28T09:17:40Z</time></trkpt><trkpt lat="47.2786858797453" lon="6.059826541334265"><ele>328.3333333333333</ele><time>2026-03-28T09:17:41Z</time></trkpt><trkpt lat="47.27848296132093" lon="6.059742515878206"><ele>328.6666666666667</ele><time>2026-03-28T09:17:42Z</time></trkpt><trkpt lat="47.278278055773974" lon="6.0596668783325915"><ele>329.0</ele><time>2026-03-28T09:17:43Z</time></trkpt><trkpt lat="47.278071378978126" lon="6.05958903040141"><ele>329.0</ele><time>2026-03-28T09:17:44Z</time></trkpt><trkpt lat="47.27786316881992" lon="6.059520653443895"><ele>329.0</ele><time>2026-03-28T09:17:45Z</time></trkpt><trkpt lat="47.27765112332536" lon="6.059461709819935"><ele>329.0</ele><time>2026-03-28T09:17:46Z</time></trkpt><trkpt lat="47.27744061094533" lon="6.059416142294245"><ele>329.6666666666667</ele><time>2026-03-28T09:17:47Z</time></trkpt><trkpt lat="47.277229586810456" lon="6.059381948336115"><ele>330.3333333333333</ele><time>2026-03-28T09:17:48Z</time></trkpt><trkpt lat="47.27701846556815" lon="6.0593493611201135"><ele>331.0</ele><time>2026-03-28T09:17:49Z</time></trkpt><trkpt lat="47.27680808143285" lon="6.05931998069582"><ele>331.0</ele><time>2026-03-28T09:17:50Z</time></trkpt><trkpt lat="47.2765972448827" lon="6.059277398777462"><ele>331.0</ele><time>2026-03-28T09:17:51Z</time></trkpt><trkpt lat="47.276386434509206" lon="6.059234222587859"><ele>331.0</ele><time>2026-03-28T09:17:52Z</time></trkpt><trkpt lat="47.27617681452075" lon="6.05918269243134"><ele>332.66666666666663</ele><time>2026-03-28T09:17:53Z</time></trkpt><trkpt lat="47.27596436421169" lon="6.059131620377848"><ele>334.3333333333333</ele><time>2026-03-28T09:17:54Z</time></trkpt><trkpt lat="47.27575294477472" lon="6.059082625811907"><ele>336.0</ele><time>2026-03-28T09:17:55Z</time></trkpt><trkpt lat="47.27555219221534" lon="6.059035483237889"><ele>336.6666666666667</ele><time>2026-03-28T09:17:56Z</time></trkpt><trkpt lat="47.275359558157874" lon="6.0589892945813055"><ele>337.33333333333337</ele><time>2026-03-28T09:17:57Z</time></trkpt><trkpt lat="47.275176121175505" lon="6.058939206484195"><ele>338.0</ele><time>2026-03-28T09:17:58Z</time></trkpt><trkpt lat="47.275003692349905" lon="6.05887990056281"><ele>338.0</ele><time>2026-03-28T09:17:59Z</time></trkpt><trkpt lat="47.274836270305" lon="6.058807312568294"><ele>338.0</ele><time>2026-03-28T09:18:00Z</time></trkpt><trkpt lat="47.27467806572066" lon="6.058731696985163"><ele>338.0</ele><time>2026-03-28T09:18:01Z</time></trkpt><trkpt lat="47.27452595632898" lon="6.058653951495691"><ele>336.6666666666667</ele><time>2026-03-28T09:18:02Z</time></trkpt><trkpt lat="47.27437311301243" lon="6.0585824553298435"><ele>335.3333333333333</ele><time>2026-03-28T09:18:03Z</time></trkpt><trkpt lat="47.27422296199991" lon="6.058507618859638"><ele>334.0</ele><time>2026-03-28T09:18:04Z</time></trkpt><trkpt lat="47.27407715624481" lon="6.058431141953414"><ele>332.5</ele><time>2026-03-28T09:18:05Z</time></trkpt><trkpt lat="47.27393458485827" lon="6.058359103631686"><ele>331.0</ele><time>2026-03-28T09:18:06Z</time></trkpt><trkpt lat="47.27379254967615" lon="6.0582883397839336"><ele>329.5</ele><time>2026-03-28T09:18:07Z</time></trkpt><trkpt lat="47.27365715704001" lon="6.058216097868615"><ele>328.0</ele><time>2026-03-28T09:18:08Z</time></trkpt><trkpt lat="47.27352118478987" lon="6.058146728397734"><ele>328.0</ele><time>2026-03-28T09:18:09Z</time></trkpt><trkpt lat="47.27338959918685" lon="6.058078348322673"><ele>328.0</ele><time>2026-03-28T09:18:10Z</time></trkpt><trkpt lat="47.27326614276288" lon="6.058014877378258"><ele>328.0</ele><time>2026-03-28T09:18:11Z</time></trkpt><trkpt lat="47.27314562985804" lon="6.057952285215996"><ele>328.0</ele><time>2026-03-28T09:18:12Z</time></trkpt><trkpt lat="47.273029487939844" lon="6.0578920415661"><ele>328.0</ele><time>2026-03-28T09:18:13Z</time></trkpt><trkpt lat="47.272919195725564" lon="6.057835392215536"><ele>328.0</ele><time>2026-03-28T09:18:14Z</time></trkpt><trkpt lat="47.27281462392011" lon="6.057781793773632"><ele>328.0</ele><time>2026-03-28T09:18:15Z</time></trkpt><trkpt lat="47.27271440713525" lon="6.057729267447357"><ele>328.0</ele><time>2026-03-28T09:18:16Z</time></trkpt><trkpt lat="47.27261670323992" lon="6.057678202720052"><ele>328.0</ele><time>2026-03-28T09:18:17Z</time></trkpt><trkpt lat="47.272523172006466" lon="6.05763066603941"><ele>328.0</ele><time>2026-03-28T09:18:18Z</time></trkpt><trkpt lat="47.27243317737302" lon="6.05758459012269"><ele>328.0</ele><time>2026-03-28T09:18:19Z</time></trkpt><trkpt lat="47.27234335040013" lon="6.057538209668898"><ele>328.0</ele><time>2026-03-28T09:18:20Z</time></trkpt><trkpt lat="47.27225317032417" lon="6.057489581588763"><ele>328.0</ele><time>2026-03-28T09:18:21Z</time></trkpt><trkpt lat="47.27216060736376" lon="6.05744140374025"><ele>328.0</ele><time>2026-03-28T09:18:22Z</time></trkpt><trkpt lat="47.272065963223504" lon="6.0573904048609695"><ele>328.0</ele><time>2026-03-28T09:18:23Z</time></trkpt><trkpt lat="47.27196971724396" lon="6.057338468640471"><ele>328.0</ele><time>2026-03-28T09:18:24Z</time></trkpt><trkpt lat="47.27187297504509" lon="6.057287862371382"><ele>328.0</ele><time>2026-03-28T09:18:25Z</time></trkpt><trkpt lat="47.271779604593235" lon="6.057240303953292"><ele>328.0</ele><time>2026-03-28T09:18:26Z</time></trkpt><trkpt lat="47.271687825461505" lon="6.057193835904549"><ele>328.0</ele><time>2026-03-28T09:18:27Z</time></trkpt><trkpt lat="47.27159907324989" lon="6.057147661335629"><ele>328.0</ele><time>2026-03-28T09:18:28Z</time></trkpt><trkpt lat="47.271515390682936" lon="6.057103626482967"><ele>328.0</ele><time>2026-03-28T09:18:29Z</time></trkpt><trkpt lat="47.27143736572881" lon="6.057061536598533"><ele>328.0</ele><time>2026-03-28T09:18:30Z</time></trkpt><trkpt lat="47.27135960130755" lon="6.057019436616977"><ele>328.0</ele><time>2026-03-28T09:18:31Z</time></trkpt><trkpt lat="47.271287458558696" lon="6.056981726263621"><ele>328.0</ele><time>2026-03-28T09:18:32Z</time></trkpt><trkpt lat="47.27122272231535" lon="6.056945022047371"><ele>328.0</ele><time>2026-03-28T09:18:33Z</time></trkpt><trkpt lat="47.27116078387226" lon="6.056911202980693"><ele>328.3333333333333</ele><time>2026-03-28T09:18:34Z</time></trkpt><trkpt lat="47.271097979066624" lon="6.056877610384389"><ele>328.66666666666663</ele><time>2026-03-28T09:18:35Z</time></trkpt><trkpt lat="47.27103775764667" lon="6.056846172548812"><ele>329.0</ele><time>2026-03-28T09:18:36Z</time></trkpt><trkpt lat="47.27092137623933" lon="6.05678282226293"><ele>329.3333333333333</ele><time>2026-03-28T09:18:38Z</time></trkpt><trkpt lat="47.2708586783768" lon="6.056752084943232"><ele>329.6666666666667</ele><time>2026-03-28T09:18:39Z</time></trkpt><trkpt lat="47.27079025987343" lon="6.056718887944354"><ele>330.0</ele><time>2026-03-28T09:18:40Z</time></trkpt><trkpt lat="47.27071752109949" lon="6.056680519579458"><ele>330.0</ele><time>2026-03-28T09:18:41Z</time></trkpt><trkpt lat="47.27064027921244" lon="6.056641075130051"><ele>330.0</ele><time>2026-03-28T09:18:42Z</time></trkpt><trkpt lat="47.27055769789748" lon="6.056596443939759"><ele>330.0</ele><time>2026-03-28T09:18:43Z</time></trkpt><trkpt lat="47.27046943396175" lon="6.05654817450702"><ele>330.0</ele><time>2026-03-28T09:18:44Z</time></trkpt><trkpt lat="47.27037541001812" lon="6.056497883712494"><ele>330.0</ele><time>2026-03-28T09:18:45Z</time></trkpt><trkpt lat="47.27027626827601" lon="6.056442344324872"><ele>329.8</ele><time>2026-03-28T09:18:46Z</time></trkpt><trkpt lat="47.27017284036696" lon="6.056389711413584"><ele>329.6</ele><time>2026-03-28T09:18:47Z</time></trkpt><trkpt lat="47.27007072505726" lon="6.056336702125028"><ele>329.4</ele><time>2026-03-28T09:18:48Z</time></trkpt><trkpt lat="47.26996878206753" lon="6.056280567691473"><ele>329.2</ele><time>2026-03-28T09:18:49Z</time></trkpt><trkpt lat="47.26986212449144" lon="6.0562291789055775"><ele>329.0</ele><time>2026-03-28T09:18:50Z</time></trkpt><trkpt lat="47.269757026467644" lon="6.056175157000818"><ele>328.2</ele><time>2026-03-28T09:18:51Z</time></trkpt><trkpt lat="47.26965413293905" lon="6.056123963877214"><ele>327.4</ele><time>2026-03-28T09:18:52Z</time></trkpt><trkpt lat="47.26955132228572" lon="6.056067015042065"><ele>326.6</ele><time>2026-03-28T09:18:53Z</time></trkpt><trkpt lat="47.26944748513168" lon="6.056011688774173"><ele>325.8</ele><time>2026-03-28T09:18:54Z</time></trkpt><trkpt lat="47.26934139684924" lon="6.055955155416425"><ele>325.0</ele><time>2026-03-28T09:18:55Z</time></trkpt><trkpt lat="47.26923501794867" lon="6.055899874680953"><ele>325.0</ele><time>2026-03-28T09:18:56Z</time></trkpt><trkpt lat="47.269121962862975" lon="6.055841900315085"><ele>325.0</ele><time>2026-03-28T09:18:57Z</time></trkpt><trkpt lat="47.2690117318192" lon="6.055785972838227"><ele>325.0</ele><time>2026-03-28T09:18:58Z</time></trkpt><trkpt lat="47.268900011123044" lon="6.055726676985733"><ele>325.0</ele><time>2026-03-28T09:18:59Z</time></trkpt><trkpt lat="47.2687922593124" lon="6.0556678213410775"><ele>325.0</ele><time>2026-03-28T09:19:00Z</time></trkpt><trkpt lat="47.268686016253554" lon="6.055610707743425"><ele>325.0</ele><time>2026-03-28T09:19:01Z</time></trkpt><trkpt lat="47.26857770325249" lon="6.055554263293817"><ele>325.0</ele><time>2026-03-28T09:19:02Z</time></trkpt><trkpt lat="47.268467417669264" lon="6.055498902251081"><ele>325.0</ele><time>2026-03-28T09:19:03Z</time></trkpt><trkpt lat="47.26835682815535" lon="6.055436419012081"><ele>325.0</ele><time>2026-03-28T09:19:04Z</time></trkpt><trkpt lat="47.268247415831134" lon="6.0553785080111115"><ele>325.0</ele><time>2026-03-28T09:19:05Z</time></trkpt><trkpt lat="47.26813225938255" lon="6.055318106304621"><ele>325.0</ele><time>2026-03-28T09:19:06Z</time></trkpt><trkpt lat="47.26801567060654" lon="6.055255657921368"><ele>325.0</ele><time>2026-03-28T09:19:07Z</time></trkpt><trkpt lat="47.26789844062105" lon="6.055191602414792"><ele>324.5</ele><time>2026-03-28T09:19:08Z</time></trkpt><trkpt lat="47.26777968660923" lon="6.055126165612034"><ele>324.0</ele><time>2026-03-28T09:19:09Z</time></trkpt><trkpt lat="47.26765988513432" lon="6.055065659370401"><ele>323.5</ele><time>2026-03-28T09:19:10Z</time></trkpt><trkpt lat="47.26753694132125" lon="6.055001167930029"><ele>323.0</ele><time>2026-03-28T09:19:11Z</time></trkpt><trkpt lat="47.26741866127857" lon="6.054941304522051"><ele>323.0</ele><time>2026-03-28T09:19:12Z</time></trkpt><trkpt lat="47.267299489086284" lon="6.054876397219743"><ele>323.0</ele><time>2026-03-28T09:19:13Z</time></trkpt><trkpt lat="47.26718074226361" lon="6.054812034794936"><ele>323.0</ele><time>2026-03-28T09:19:14Z</time></trkpt><trkpt lat="47.26706113042448" lon="6.054750630300182"><ele>323.0</ele><time>2026-03-28T09:19:15Z</time></trkpt><trkpt lat="47.26694629508514" lon="6.054693726546151"><ele>322.5</ele><time>2026-03-28T09:19:16Z</time></trkpt><trkpt lat="47.2668356865933" lon="6.054632533218997"><ele>322.0</ele><time>2026-03-28T09:19:17Z</time></trkpt><trkpt lat="47.266718885968444" lon="6.054573199290741"><ele>321.5</ele><time>2026-03-28T09:19:18Z</time></trkpt><trkpt lat="47.26660702186689" lon="6.054511435657023"><ele>321.0</ele><time>2026-03-28T09:19:19Z</time></trkpt><trkpt lat="47.26649524298597" lon="6.054453901674111"><ele>319.25</ele><time>2026-03-28T09:19:20Z</time></trkpt><trkpt lat="47.26638201350735" lon="6.054395791185003"><ele>317.5</ele><time>2026-03-28T09:19:21Z</time></trkpt><trkpt lat="47.26626725939333" lon="6.054332512466695"><ele>315.75</ele><time>2026-03-28T09:19:22Z</time></trkpt><trkpt lat="47.26615169721772" lon="6.054269013009038"><ele>314.0</ele><time>2026-03-28T09:19:23Z</time></trkpt><trkpt lat="47.266034622292736" lon="6.054208598842956"><ele>314.0</ele><time>2026-03-28T09:19:24Z</time></trkpt><trkpt lat="47.26591355725388" lon="6.054145909347099"><ele>314.0</ele><time>2026-03-28T09:19:25Z</time></trkpt><trkpt lat="47.26579689805082" lon="6.0540831576543015"><ele>314.0</ele><time>2026-03-28T09:19:26Z</time></trkpt><trkpt lat="47.26568077622407" lon="6.054021869006914"><ele>314.0</ele><time>2026-03-28T09:19:27Z</time></trkpt><trkpt lat="47.26556745583824" lon="6.053960768109114"><ele>314.5</ele><time>2026-03-28T09:19:28Z</time></trkpt><trkpt lat="47.26545483325759" lon="6.053899619111911"><ele>315.0</ele><time>2026-03-28T09:19:29Z</time></trkpt><trkpt lat="47.26534674388186" lon="6.053840906011545"><ele>315.5</ele><time>2026-03-28T09:19:30Z</time></trkpt><trkpt lat="47.2652368094846" lon="6.053780698928164"><ele>316.0</ele><time>2026-03-28T09:19:31Z</time></trkpt><trkpt lat="47.2651298467175" lon="6.053720870347486"><ele>316.0</ele><time>2026-03-28T09:19:32Z</time></trkpt><trkpt lat="47.265024517119365" lon="6.053651545062169"><ele>316.0</ele><time>2026-03-28T09:19:33Z</time></trkpt><trkpt lat="47.264921238187824" lon="6.053578090968901"><ele>316.0</ele><time>2026-03-28T09:19:34Z</time></trkpt><trkpt lat="47.264824294366996" lon="6.05349950415822"><ele>316.0</ele><time>2026-03-28T09:19:35Z</time></trkpt><trkpt lat="47.26473164136032" lon="6.053414342808632"><ele>316.0</ele><time>2026-03-28T09:19:36Z</time></trkpt><trkpt lat="47.264636920153045" lon="6.0533173331443795"><ele>316.0</ele><time>2026-03-28T09:19:37Z</time></trkpt><trkpt lat="47.26454299887978" lon="6.0532167195371285"><ele>316.0</ele><time>2026-03-28T09:19:38Z</time></trkpt><trkpt lat="47.26445281636773" lon="6.053113132184289"><ele>316.0</ele><time>2026-03-28T09:19:39Z</time></trkpt><trkpt lat="47.264366168874325" lon="6.053010560247425"><ele>316.0</ele><time>2026-03-28T09:19:40Z</time></trkpt><trkpt lat="47.26428047746199" lon="6.052906792707289"><ele>316.0</ele><time>2026-03-28T09:19:41Z</time></trkpt><trkpt lat="47.26419812216883" lon="6.05280281494282"><ele>316.0</ele><time>2026-03-28T09:19:42Z</time></trkpt><trkpt lat="47.264115216764296" lon="6.052701891317228"><ele>316.0</ele><time>2026-03-28T09:19:43Z</time></trkpt><trkpt lat="47.26403518500051" lon="6.052604044093956"><ele>316.0</ele><time>2026-03-28T09:19:44Z</time></trkpt><trkpt lat="47.26395813104501" lon="6.052505367223217"><ele>316.40000000000003</ele><time>2026-03-28T09:19:45Z</time></trkpt><trkpt lat="47.26388205972338" lon="6.0524084984088775"><ele>316.8</ele><time>2026-03-28T09:19:46Z</time></trkpt><trkpt lat="47.26380505480606" lon="6.052312196882473"><ele>317.20000000000005</ele><time>2026-03-28T09:19:47Z</time></trkpt><trkpt lat="47.26373379639836" lon="6.052223707982921"><ele>317.6</ele><time>2026-03-28T09:19:48Z</time></trkpt><trkpt lat="47.2636655844019" lon="6.052139932255223"><ele>318.0</ele><time>2026-03-28T09:19:49Z</time></trkpt><trkpt lat="47.2635952417112" lon="6.05205442496164"><ele>318.0</ele><time>2026-03-28T09:19:50Z</time></trkpt><trkpt lat="47.26352794794944" lon="6.051974645670507"><ele>318.0</ele><time>2026-03-28T09:19:51Z</time></trkpt><trkpt lat="47.26346448755209" lon="6.051903346988825"><ele>318.0</ele><time>2026-03-28T09:19:52Z</time></trkpt><trkpt lat="47.263402786666795" lon="6.051843431360386"><ele>318.0</ele><time>2026-03-28T09:19:53Z</time></trkpt><trkpt lat="47.26334740774419" lon="6.051795618736069"><ele>318.0</ele><time>2026-03-28T09:19:54Z</time></trkpt><trkpt lat="47.263271610865445" lon="6.051734955250244"><ele>318.0</ele><time>2026-03-28T09:19:56Z</time></trkpt><trkpt lat="47.263187826195605" lon="6.051648659878003"><ele>318.0</ele><time>2026-03-28T09:19:58Z</time></trkpt><trkpt lat="47.26317672818" lon="6.051540298756353"><ele>318.0</ele><time>2026-03-28T09:19:59Z</time></trkpt><trkpt lat="47.263126258790365" lon="6.05146284017551"><ele>318.0</ele><time>2026-03-28T09:20:00Z</time></trkpt><trkpt lat="47.263063221756944" lon="6.051410367252522"><ele>318.0</ele><time>2026-03-28T09:20:01Z</time></trkpt><trkpt lat="47.26300837911737" lon="6.051350823980217"><ele>318.0</ele><time>2026-03-28T09:20:02Z</time></trkpt><trkpt lat="47.262957908142226" lon="6.051266860280254"><ele>318.0</ele><time>2026-03-28T09:20:03Z</time></trkpt><trkpt lat="47.26291804886453" lon="6.051165434500479"><ele>318.0</ele><time>2026-03-28T09:20:04Z</time></trkpt><trkpt lat="47.262864772652435" lon="6.051059896002743"><ele>318.0</ele><time>2026-03-28T09:20:05Z</time></trkpt><trkpt lat="47.26282353997178" lon="6.050932953407581"><ele>318.0</ele><time>2026-03-28T09:20:06Z</time></trkpt><trkpt lat="47.262780464827905" lon="6.050803028723005"><ele>318.0</ele><time>2026-03-28T09:20:07Z</time></trkpt><trkpt lat="47.262735983550805" lon="6.050676312670953"><ele>318.0</ele><time>2026-03-28T09:20:08Z</time></trkpt><trkpt lat="47.26269037903636" lon="6.050552624233388"><ele>318.0</ele><time>2026-03-28T09:20:09Z</time></trkpt><trkpt lat="47.262647416108216" lon="6.050438381473908"><ele>318.4</ele><time>2026-03-28T09:20:10Z</time></trkpt><trkpt lat="47.26268322542166" lon="6.050266732933865"><ele>318.8</ele><time>2026-03-28T09:20:11Z</time></trkpt><trkpt lat="47.26267896707677" lon="6.050128120586652"><ele>319.2</ele><time>2026-03-28T09:20:12Z</time></trkpt><trkpt lat="47.26269286774476" lon="6.049990503829772"><ele>319.6</ele><time>2026-03-28T09:20:13Z</time></trkpt><trkpt lat="47.262724593687814" lon="6.049848985851542"><ele>320.0</ele><time>2026-03-28T09:20:14Z</time></trkpt><trkpt lat="47.262762308462314" lon="6.04970804760069"><ele>320.4</ele><time>2026-03-28T09:20:15Z</time></trkpt><trkpt lat="47.26281272389542" lon="6.049572196224536"><ele>320.8</ele><time>2026-03-28T09:20:16Z</time></trkpt><trkpt lat="47.26285816956089" lon="6.049443040265677"><ele>321.20000000000005</ele><time>2026-03-28T09:20:17Z</time></trkpt><trkpt lat="47.26290706219986" lon="6.0493184759006935"><ele>321.6</ele><time>2026-03-28T09:20:18Z</time></trkpt><trkpt lat="47.26295827703999" lon="6.049182904434007"><ele>322.0</ele><time>2026-03-28T09:20:19Z</time></trkpt><trkpt lat="47.26300646976481" lon="6.0490477059271095"><ele>322.0</ele><time>2026-03-28T09:20:20Z</time></trkpt><trkpt lat="47.26305469236694" lon="6.048911756639006"><ele>322.0</ele><time>2026-03-28T09:20:21Z</time></trkpt><trkpt lat="47.263102069170245" lon="6.048776052238381"><ele>322.0</ele><time>2026-03-28T09:20:22Z</time></trkpt><trkpt lat="47.26314968731924" lon="6.048646512902898"><ele>322.0</ele><time>2026-03-28T09:20:23Z</time></trkpt><trkpt lat="47.2631933809751" lon="6.048525543748941"><ele>322.0</ele><time>2026-03-28T09:20:24Z</time></trkpt><trkpt lat="47.2632311239328" lon="6.0484204178733645"><ele>322.66666666666663</ele><time>2026-03-28T09:20:25Z</time></trkpt><trkpt lat="47.26326542264221" lon="6.048326818311786"><ele>323.3333333333333</ele><time>2026-03-28T09:20:26Z</time></trkpt><trkpt lat="47.26329869378636" lon="6.048236800360704"><ele>324.0</ele><time>2026-03-28T09:20:27Z</time></trkpt><trkpt lat="47.263332633764676" lon="6.0481519811167015"><ele>324.6666666666667</ele><time>2026-03-28T09:20:28Z</time></trkpt><trkpt lat="47.26336334952368" lon="6.048069112502853"><ele>325.33333333333337</ele><time>2026-03-28T09:20:29Z</time></trkpt><trkpt lat="47.26340072404849" lon="6.047914135390125"><ele>326.0</ele><time>2026-03-28T09:20:31Z</time></trkpt><trkpt lat="47.26344361557805" lon="6.047799948449279"><ele>326.33333333333337</ele><time>2026-03-28T09:20:33Z</time></trkpt><trkpt lat="47.26347630693104" lon="6.047714625475897"><ele>326.6666666666667</ele><time>2026-03-28T09:20:35Z</time></trkpt><trkpt lat="47.26351287760891" lon="6.047626684654601"><ele>327.0</ele><time>2026-03-28T09:20:38Z</time></trkpt><trkpt lat="47.263566458839065" lon="6.0475298001996665"><ele>327.3333333333333</ele><time>2026-03-28T09:21:06Z</time></trkpt><trkpt lat="47.263610562851554" lon="6.047410583531421"><ele>327.66666666666663</ele><time>2026-03-28T09:21:08Z</time></trkpt><trkpt lat="47.263646801671804" lon="6.047227881195786"><ele>328.0</ele><time>2026-03-28T09:21:10Z</time></trkpt><trkpt lat="47.263648774939234" lon="6.047109695929939"><ele>328.0</ele><time>2026-03-28T09:21:11Z</time></trkpt><trkpt lat="47.26364939346241" lon="6.046980878384067"><ele>328.0</ele><time>2026-03-28T09:21:12Z</time></trkpt><trkpt lat="47.26365421231029" lon="6.046850478648371"><ele>328.0</ele><time>2026-03-28T09:21:13Z</time></trkpt><trkpt lat="47.26365824655062" lon="6.046712755346853"><ele>328.0</ele><time>2026-03-28T09:21:14Z</time></trkpt><trkpt lat="47.26366991340638" lon="6.046563070053694"><ele>328.0</ele><time>2026-03-28T09:21:15Z</time></trkpt><trkpt lat="47.26367892094471" lon="6.046410559605765"><ele>328.0</ele><time>2026-03-28T09:21:16Z</time></trkpt><trkpt lat="47.26368430487202" lon="6.046251601898334"><ele>328.0</ele><time>2026-03-28T09:21:17Z</time></trkpt><trkpt lat="47.26369032373478" lon="6.046093557478157"><ele>328.0</ele><time>2026-03-28T09:21:18Z</time></trkpt><trkpt lat="47.26369310958903" lon="6.045935412822605"><ele>328.0</ele><time>2026-03-28T09:21:19Z</time></trkpt><trkpt lat="47.2636927819385" lon="6.045779704353258"><ele>328.0</ele><time>2026-03-28T09:21:20Z</time></trkpt><trkpt lat="47.26369620753365" lon="6.045628549671252"><ele>328.4</ele><time>2026-03-28T09:21:21Z</time></trkpt><trkpt lat="47.263697306825684" lon="6.045479748447302"><ele>328.79999999999995</ele><time>2026-03-28T09:21:22Z</time></trkpt><trkpt lat="47.26369609175619" lon="6.045331118779301"><ele>329.2</ele><time>2026-03-28T09:21:23Z</time></trkpt><trkpt lat="47.263683205771514" lon="6.04517655728277"><ele>329.6</ele><time>2026-03-28T09:21:24Z</time></trkpt><trkpt lat="47.26366217814376" lon="6.045027368750216"><ele>330.0</ele><time>2026-03-28T09:21:25Z</time></trkpt><trkpt lat="47.26363838600345" lon="6.044869662302363"><ele>330.6</ele><time>2026-03-28T09:21:26Z</time></trkpt><trkpt lat="47.26361329296078" lon="6.044714574999031"><ele>331.2</ele><time>2026-03-28T09:21:27Z</time></trkpt><trkpt lat="47.2635875677209" lon="6.044551986337823"><ele>331.79999999999995</ele><time>2026-03-28T09:21:28Z</time></trkpt><trkpt lat="47.26356671132245" lon="6.0443884439542455"><ele>332.4</ele><time>2026-03-28T09:21:29Z</time></trkpt><trkpt lat="47.263539140234336" lon="6.044230932891197"><ele>333.0</ele><time>2026-03-28T09:21:30Z</time></trkpt><trkpt lat="47.263511070748095" lon="6.0440667373941235"><ele>333.5</ele><time>2026-03-28T09:21:31Z</time></trkpt><trkpt lat="47.26348081906262" lon="6.043902078939725"><ele>334.0</ele><time>2026-03-28T09:21:32Z</time></trkpt><trkpt lat="47.2634465882116" lon="6.0437364371997715"><ele>334.5</ele><time>2026-03-28T09:21:33Z</time></trkpt><trkpt lat="47.263408478374586" lon="6.043567328279991"><ele>335.0</ele><time>2026-03-28T09:21:34Z</time></trkpt><trkpt lat="47.263365598654005" lon="6.043398205192497"><ele>334.75</ele><time>2026-03-28T09:21:35Z</time></trkpt><trkpt lat="47.26332101975996" lon="6.043237646805697"><ele>334.5</ele><time>2026-03-28T09:21:36Z</time></trkpt><trkpt lat="47.263275836980235" lon="6.043074875127675"><ele>334.25</ele><time>2026-03-28T09:21:37Z</time></trkpt><trkpt lat="47.26323232889576" lon="6.0429087212780255"><ele>334.0</ele><time>2026-03-28T09:21:38Z</time></trkpt><trkpt lat="47.26318792445076" lon="6.042748282844287"><ele>334.0</ele><time>2026-03-28T09:21:39Z</time></trkpt><trkpt lat="47.26314176519792" lon="6.042586385668215"><ele>334.0</ele><time>2026-03-28T09:21:40Z</time></trkpt><trkpt lat="47.26309555184267" lon="6.042428964775301"><ele>334.0</ele><time>2026-03-28T09:21:41Z</time></trkpt><trkpt lat="47.26305269485925" lon="6.042266616778964"><ele>334.0</ele><time>2026-03-28T09:21:42Z</time></trkpt><trkpt lat="47.2630107128859" lon="6.042108948573077"><ele>333.25</ele><time>2026-03-28T09:21:43Z</time></trkpt><trkpt lat="47.26296682193417" lon="6.041950079958514"><ele>332.5</ele><time>2026-03-28T09:21:44Z</time></trkpt><trkpt lat="47.26292113140854" lon="6.041787393900626"><ele>331.75</ele><time>2026-03-28T09:21:45Z</time></trkpt><trkpt lat="47.26287657711361" lon="6.041623889007143"><ele>331.0</ele><time>2026-03-28T09:21:46Z</time></trkpt><trkpt lat="47.262831065106106" lon="6.041460324861096"><ele>330.75</ele><time>2026-03-28T09:21:47Z</time></trkpt><trkpt lat="47.262785047808386" lon="6.041288837371148"><ele>330.5</ele><time>2026-03-28T09:21:48Z</time></trkpt><trkpt lat="47.262738844979275" lon="6.041120561577036"><ele>330.25</ele><time>2026-03-28T09:21:49Z</time></trkpt><trkpt lat="47.26269309338579" lon="6.040961395268253"><ele>330.0</ele><time>2026-03-28T09:21:50Z</time></trkpt><trkpt lat="47.262651883730975" lon="6.040799204303915"><ele>330.0</ele><time>2026-03-28T09:21:51Z</time></trkpt><trkpt lat="47.26261036146275" lon="6.0406382845340305"><ele>330.0</ele><time>2026-03-28T09:21:52Z</time></trkpt><trkpt lat="47.26256849155948" lon="6.040474867221173"><ele>330.0</ele><time>2026-03-28T09:21:53Z</time></trkpt><trkpt lat="47.26253314751151" lon="6.040309292541181"><ele>330.0</ele><time>2026-03-28T09:21:54Z</time></trkpt><trkpt lat="47.2625006179295" lon="6.040142631699697"><ele>330.0</ele><time>2026-03-28T09:21:55Z</time></trkpt><trkpt lat="47.26246404827158" lon="6.039983021508086"><ele>330.0</ele><time>2026-03-28T09:21:56Z</time></trkpt><trkpt lat="47.26242558003151" lon="6.03983042399836"><ele>330.0</ele><time>2026-03-28T09:21:57Z</time></trkpt><trkpt lat="47.262382797013906" lon="6.0396769722447585"><ele>330.0</ele><time>2026-03-28T09:21:58Z</time></trkpt><trkpt lat="47.26234093640707" lon="6.039524076046453"><ele>330.0</ele><time>2026-03-28T09:21:59Z</time></trkpt><trkpt lat="47.26229186360913" lon="6.039375724419978"><ele>329.5</ele><time>2026-03-28T09:22:00Z</time></trkpt><trkpt lat="47.26223823957965" lon="6.039218912641023"><ele>329.0</ele><time>2026-03-28T09:22:01Z</time></trkpt><trkpt lat="47.26218451133637" lon="6.039059233887011"><ele>328.5</ele><time>2026-03-28T09:22:02Z</time></trkpt><trkpt lat="47.26213558323224" lon="6.03890626948026"><ele>328.0</ele><time>2026-03-28T09:22:03Z</time></trkpt><trkpt lat="47.26209293814778" lon="6.038743382338205"><ele>328.75</ele><time>2026-03-28T09:22:04Z</time></trkpt><trkpt lat="47.26205074405308" lon="6.038578512843138"><ele>329.5</ele><time>2026-03-28T09:22:05Z</time></trkpt><trkpt lat="47.261985967376155" lon="6.038421164766578"><ele>330.25</ele><time>2026-03-28T09:22:06Z</time></trkpt><trkpt lat="47.2619459557699" lon="6.038248940079283"><ele>331.0</ele><time>2026-03-28T09:22:07Z</time></trkpt><trkpt lat="47.26190953035506" lon="6.038075376476699"><ele>331.0</ele><time>2026-03-28T09:22:08Z</time></trkpt><trkpt lat="47.26187514009349" lon="6.0379009406845165"><ele>331.0</ele><time>2026-03-28T09:22:09Z</time></trkpt><trkpt lat="47.26184686109084" lon="6.037730436843415"><ele>331.0</ele><time>2026-03-28T09:22:10Z</time></trkpt><trkpt lat="47.261822609848956" lon="6.037562694339338"><ele>331.0</ele><time>2026-03-28T09:22:11Z</time></trkpt><trkpt lat="47.26179729502525" lon="6.037395829803142"><ele>331.20000000000005</ele><time>2026-03-28T09:22:12Z</time></trkpt><trkpt lat="47.261772635666524" lon="6.037237027685557"><ele>331.40000000000003</ele><time>2026-03-28T09:22:13Z</time></trkpt><trkpt lat="47.261750450134834" lon="6.0370893857155234"><ele>331.6</ele><time>2026-03-28T09:22:14Z</time></trkpt><trkpt lat="47.26172744332152" lon="6.036951713364074"><ele>331.8</ele><time>2026-03-28T09:22:15Z</time></trkpt><trkpt lat="47.26170506346053" lon="6.036819101067841"><ele>332.0</ele><time>2026-03-28T09:22:16Z</time></trkpt><trkpt lat="47.26168950769916" lon="6.03671064606799"><ele>331.83333333333337</ele><time>2026-03-28T09:22:17Z</time></trkpt><trkpt lat="47.26167506478998" lon="6.036614165593695"><ele>331.6666666666667</ele><time>2026-03-28T09:22:18Z</time></trkpt><trkpt lat="47.26165947486267" lon="6.036519994687544"><ele>331.5</ele><time>2026-03-28T09:22:19Z</time></trkpt><trkpt lat="47.26164361491882" lon="6.03642966450694"><ele>331.3333333333333</ele><time>2026-03-28T09:22:20Z</time></trkpt><trkpt lat="47.26162892666888" lon="6.0363356873423095"><ele>331.16666666666663</ele><time>2026-03-28T09:22:21Z</time></trkpt><trkpt lat="47.26160033132047" lon="6.0361605795243385"><ele>331.0</ele><time>2026-03-28T09:22:23Z</time></trkpt><trkpt lat="47.261573928192846" lon="6.035999770024319"><ele>331.0</ele><time>2026-03-28T09:22:25Z</time></trkpt><trkpt lat="47.261541971996614" lon="6.035836807078306"><ele>331.0</ele><time>2026-03-28T09:22:27Z</time></trkpt><trkpt lat="47.261518976112136" lon="6.03573083186523"><ele>331.0</ele><time>2026-03-28T09:22:28Z</time></trkpt><trkpt lat="47.26149344686547" lon="6.03560333794457"><ele>331.0</ele><time>2026-03-28T09:22:29Z</time></trkpt><trkpt lat="47.261462642473276" lon="6.035461955206755"><ele>331.0</ele><time>2026-03-28T09:22:30Z</time></trkpt><trkpt lat="47.26143355766443" lon="6.03530038248157"><ele>329.75</ele><time>2026-03-28T09:22:31Z</time></trkpt><trkpt lat="47.26139664887209" lon="6.035135717643179"><ele>328.5</ele><time>2026-03-28T09:22:32Z</time></trkpt><trkpt lat="47.26136012043254" lon="6.034969242119742"><ele>327.25</ele><time>2026-03-28T09:22:33Z</time></trkpt><trkpt lat="47.26132334830586" lon="6.03480254031226"><ele>326.0</ele><time>2026-03-28T09:22:34Z</time></trkpt><trkpt lat="47.26127672435959" lon="6.034628200403894"><ele>326.0</ele><time>2026-03-28T09:22:35Z</time></trkpt><trkpt lat="47.26122658234992" lon="6.034447923457167"><ele>326.0</ele><time>2026-03-28T09:22:36Z</time></trkpt><trkpt lat="47.261172935299115" lon="6.03426870588305"><ele>326.0</ele><time>2026-03-28T09:22:37Z</time></trkpt><trkpt lat="47.26111667748955" lon="6.03408309157879"><ele>326.0</ele><time>2026-03-28T09:22:38Z</time></trkpt><trkpt lat="47.26106040220024" lon="6.0338999873029895"><ele>326.0</ele><time>2026-03-28T09:22:39Z</time></trkpt><trkpt lat="47.260997893234794" lon="6.033712388203416"><ele>326.0</ele><time>2026-03-28T09:22:40Z</time></trkpt><trkpt lat="47.26093507705143" lon="6.033527909840077"><ele>326.0</ele><time>2026-03-28T09:22:41Z</time></trkpt><trkpt lat="47.260876074899244" lon="6.033349468920414"><ele>326.0</ele><time>2026-03-28T09:22:42Z</time></trkpt><trkpt lat="47.26082020979604" lon="6.033173270650173"><ele>326.0</ele><time>2026-03-28T09:22:43Z</time></trkpt><trkpt lat="47.26076308699071" lon="6.032994465452045"><ele>326.0</ele><time>2026-03-28T09:22:44Z</time></trkpt><trkpt lat="47.26071082318269" lon="6.03282363807591"><ele>326.0</ele><time>2026-03-28T09:22:45Z</time></trkpt><trkpt lat="47.26065462869797" lon="6.03264782154423"><ele>326.0</ele><time>2026-03-28T09:22:46Z</time></trkpt><trkpt lat="47.26059864452441" lon="6.032473487603703"><ele>325.5</ele><time>2026-03-28T09:22:47Z</time></trkpt><trkpt lat="47.26054197187948" lon="6.032304911990903"><ele>325.0</ele><time>2026-03-28T09:22:48Z</time></trkpt><trkpt lat="47.260483860989815" lon="6.0321323400081575"><ele>324.5</ele><time>2026-03-28T09:22:49Z</time></trkpt><trkpt lat="47.26042668977781" lon="6.031964301654365"><ele>324.0</ele><time>2026-03-28T09:22:50Z</time></trkpt><trkpt lat="47.260366349700895" lon="6.031792025563794"><ele>324.75</ele><time>2026-03-28T09:22:51Z</time></trkpt><trkpt lat="47.26031033037534" lon="6.031628453350126"><ele>325.5</ele><time>2026-03-28T09:22:52Z</time></trkpt><trkpt lat="47.26025429177336" lon="6.031462789728792"><ele>326.25</ele><time>2026-03-28T09:22:53Z</time></trkpt><trkpt lat="47.260202137138094" lon="6.031304902488319"><ele>327.0</ele><time>2026-03-28T09:22:54Z</time></trkpt><trkpt lat="47.26015291921213" lon="6.031156880780516"><ele>327.0</ele><time>2026-03-28T09:22:55Z</time></trkpt><trkpt lat="47.260107709380165" lon="6.03101807450149"><ele>327.0</ele><time>2026-03-28T09:22:56Z</time></trkpt><trkpt lat="47.26006933995219" lon="6.030899520986605"><ele>327.0</ele><time>2026-03-28T09:22:57Z</time></trkpt><trkpt lat="47.260033406660696" lon="6.030786127143263"><ele>327.0</ele><time>2026-03-28T09:22:58Z</time></trkpt><trkpt lat="47.26000015735737" lon="6.030683719271178"><ele>327.0</ele><time>2026-03-28T09:22:59Z</time></trkpt><trkpt lat="47.25996454425665" lon="6.030585736012067"><ele>327.0</ele><time>2026-03-28T09:23:00Z</time></trkpt><trkpt lat="47.25993192131978" lon="6.030488132545648"><ele>327.0</ele><time>2026-03-28T09:23:01Z</time></trkpt><trkpt lat="47.25990137671349" lon="6.030391092008344"><ele>327.0</ele><time>2026-03-28T09:23:02Z</time></trkpt><trkpt lat="47.25987232159096" lon="6.030304301872763"><ele>327.0</ele><time>2026-03-28T09:23:03Z</time></trkpt><trkpt lat="47.25983209066523" lon="6.030182792008665"><ele>327.0</ele><time>2026-03-28T09:23:05Z</time></trkpt><trkpt lat="47.25980063938026" lon="6.030096315413845"><ele>327.0</ele><time>2026-03-28T09:23:08Z</time></trkpt><trkpt lat="47.259769291123526" lon="6.0300055070343"><ele>327.0</ele><time>2026-03-28T09:23:14Z</time></trkpt><trkpt lat="47.25975736774972" lon="6.0299123283327605"><ele>327.0</ele><time>2026-03-28T09:23:16Z</time></trkpt><trkpt lat="47.25972944792382" lon="6.029825350538793"><ele>326.57142857142856</ele><time>2026-03-28T09:23:18Z</time></trkpt><trkpt lat="47.25970275436867" lon="6.029737018916798"><ele>326.14285714285717</ele><time>2026-03-28T09:23:20Z</time></trkpt><trkpt lat="47.25967229048426" lon="6.029648391318118"><ele>325.7142857142857</ele><time>2026-03-28T09:23:22Z</time></trkpt><trkpt lat="47.25964432774514" lon="6.029560476482167"><ele>325.2857142857143</ele><time>2026-03-28T09:23:24Z</time></trkpt><trkpt lat="47.25961075509093" lon="6.029458275636455"><ele>324.85714285714283</ele><time>2026-03-28T09:23:27Z</time></trkpt><trkpt lat="47.25957855400945" lon="6.029360995878399"><ele>324.42857142857144</ele><time>2026-03-28T09:24:30Z</time></trkpt><trkpt lat="47.25954595363087" lon="6.029261734407635"><ele>324.0</ele><time>2026-03-28T09:24:32Z</time></trkpt><trkpt lat="47.259508435576585" lon="6.029135035058436"><ele>324.0</ele><time>2026-03-28T09:24:34Z</time></trkpt><trkpt lat="47.259466746222316" lon="6.02898364261905"><ele>324.0</ele><time>2026-03-28T09:24:36Z</time></trkpt><trkpt lat="47.25942539375317" lon="6.028853101100988"><ele>324.0</ele><time>2026-03-28T09:24:38Z</time></trkpt><trkpt lat="47.25941007048121" lon="6.028760348350847"><ele>324.0</ele><time>2026-03-28T09:24:40Z</time></trkpt><trkpt lat="47.259350915575354" lon="6.028704405619004"><ele>324.0</ele><time>2026-03-28T09:24:47Z</time></trkpt><trkpt lat="47.25929021851815" lon="6.02861122086637"><ele>324.0</ele><time>2026-03-28T09:24:53Z</time></trkpt><trkpt lat="47.25921191388557" lon="6.028594364586194"><ele>324.0</ele><time>2026-03-28T09:24:55Z</time></trkpt><trkpt lat="47.259107029237285" lon="6.028626828310599"><ele>324.0</ele><time>2026-03-28T09:24:57Z</time></trkpt><trkpt lat="47.259037003285265" lon="6.028639143237655"><ele>324.0</ele><time>2026-03-28T09:24:58Z</time></trkpt><trkpt lat="47.25895734535323" lon="6.028654724249035"><ele>324.0</ele><time>2026-03-28T09:24:59Z</time></trkpt><trkpt lat="47.25887549325808" lon="6.028670755975827"><ele>324.0</ele><time>2026-03-28T09:25:00Z</time></trkpt><trkpt lat="47.25879205124429" lon="6.028684055000362"><ele>324.0</ele><time>2026-03-28T09:25:01Z</time></trkpt><trkpt lat="47.2587030598218" lon="6.028690417355589"><ele>322.8</ele><time>2026-03-28T09:25:02Z</time></trkpt><trkpt lat="47.25861350241144" lon="6.02869716579456"><ele>321.59999999999997</ele><time>2026-03-28T09:25:03Z</time></trkpt><trkpt lat="47.25852660953186" lon="6.028679704988628"><ele>320.4</ele><time>2026-03-28T09:25:04Z</time></trkpt><trkpt lat="47.258437624004934" lon="6.028703111030837"><ele>319.2</ele><time>2026-03-28T09:25:05Z</time></trkpt><trkpt lat="47.258346641932775" lon="6.028694976312321"><ele>318.0</ele><time>2026-03-28T09:25:06Z</time></trkpt><trkpt lat="47.25825593628106" lon="6.028681607374437"><ele>318.0</ele><time>2026-03-28T09:25:07Z</time></trkpt><trkpt lat="47.25816619128413" lon="6.02866530444591"><ele>318.0</ele><time>2026-03-28T09:25:08Z</time></trkpt><trkpt lat="47.25807246520455" lon="6.028645334399195"><ele>318.0</ele><time>2026-03-28T09:25:09Z</time></trkpt><trkpt lat="47.25797941360482" lon="6.028623789347937"><ele>318.0</ele><time>2026-03-28T09:25:10Z</time></trkpt><trkpt lat="47.2578864598558" lon="6.028600569485285"><ele>318.0</ele><time>2026-03-28T09:25:11Z</time></trkpt><trkpt lat="47.257799271383334" lon="6.028546733271258"><ele>317.6666666666667</ele><time>2026-03-28T09:25:12Z</time></trkpt><trkpt lat="47.25771701170643" lon="6.028522599652062"><ele>317.3333333333333</ele><time>2026-03-28T09:25:13Z</time></trkpt><trkpt lat="47.25763483743602" lon="6.028501650037886"><ele>317.0</ele><time>2026-03-28T09:25:14Z</time></trkpt><trkpt lat="47.25755631943793" lon="6.028480292994024"><ele>316.66666666666663</ele><time>2026-03-28T09:25:15Z</time></trkpt><trkpt lat="47.25748474468259" lon="6.028461857096985"><ele>316.3333333333333</ele><time>2026-03-28T09:25:16Z</time></trkpt><trkpt lat="47.25742057749144" lon="6.028442009599113"><ele>316.0</ele><time>2026-03-28T09:25:17Z</time></trkpt><trkpt lat="47.257330833613565" lon="6.028415779283641"><ele>316.0</ele><time>2026-03-28T09:25:19Z</time></trkpt><trkpt lat="47.257261019038125" lon="6.028415221818822"><ele>316.0</ele><time>2026-03-28T09:25:21Z</time></trkpt><trkpt lat="47.25722063301971" lon="6.028503296630544"><ele>316.0</ele><time>2026-03-28T09:25:23Z</time></trkpt><trkpt lat="47.257240933516066" lon="6.028627453896021"><ele>316.0</ele><time>2026-03-28T09:25:25Z</time></trkpt><trkpt lat="47.25727886033846" lon="6.028757779819667"><ele>316.0</ele><time>2026-03-28T09:25:27Z</time></trkpt><trkpt lat="47.257316763769445" lon="6.028875243574997"><ele>316.0</ele><time>2026-03-28T09:25:29Z</time></trkpt><trkpt lat="47.25735076882182" lon="6.0289783823859615"><ele>316.0</ele><time>2026-03-28T09:25:31Z</time></trkpt><trkpt lat="47.257370397651215" lon="6.029093318850545"><ele>316.0</ele><time>2026-03-28T09:25:34Z</time></trkpt><trkpt lat="47.2574198427908" lon="6.029158003755436"><ele>316.0</ele><time>2026-03-28T09:33:28Z</time></trkpt><trkpt lat="47.257468489029385" lon="6.029231800237857"><ele>316.0</ele><time>2026-03-28T09:33:33Z</time></trkpt><trkpt lat="47.25750287107748" lon="6.029320752363839"><ele>316.0</ele><time>2026-03-28T09:33:35Z</time></trkpt><trkpt lat="47.25753915694884" lon="6.029435588972019"><ele>316.0</ele><time>2026-03-28T09:33:37Z</time></trkpt><trkpt lat="47.25757452305201" lon="6.029548443723905"><ele>316.0</ele><time>2026-03-28T09:33:39Z</time></trkpt><trkpt lat="47.25760255787799" lon="6.029634105754972"><ele>316.0</ele><time>2026-03-28T09:33:41Z</time></trkpt><trkpt lat="47.25763516812766" lon="6.029740365777365"><ele>316.0</ele><time>2026-03-28T09:33:43Z</time></trkpt><trkpt lat="47.25767725049924" lon="6.0298642071177255"><ele>316.0</ele><time>2026-03-28T09:33:45Z</time></trkpt><trkpt lat="47.257723380237415" lon="6.0300083610775665"><ele>316.0</ele><time>2026-03-28T09:33:47Z</time></trkpt><trkpt lat="47.25775915301645" lon="6.03017471414147"><ele>315.8</ele><time>2026-03-28T09:33:49Z</time></trkpt><trkpt lat="47.25782635443301" lon="6.030322898769302"><ele>315.6</ele><time>2026-03-28T09:33:51Z</time></trkpt><trkpt lat="47.257896079595675" lon="6.030478093256476"><ele>315.4</ele><time>2026-03-28T09:33:53Z</time></trkpt><trkpt lat="47.25793136006818" lon="6.030559439807503"><ele>315.2</ele><time>2026-03-28T09:33:54Z</time></trkpt><trkpt lat="47.25798557533326" lon="6.030685671243326"><ele>315.0</ele><time>2026-03-28T09:33:56Z</time></trkpt><trkpt lat="47.25802280765656" lon="6.030783272284118"><ele>315.2</ele><time>2026-03-28T09:34:09Z</time></trkpt><trkpt lat="47.2580706483787" lon="6.030893494157678"><ele>315.4</ele><time>2026-03-28T09:34:11Z</time></trkpt><trkpt lat="47.25813312994975" lon="6.031037141213504"><ele>315.6</ele><time>2026-03-28T09:34:13Z</time></trkpt><trkpt lat="47.25816710653822" lon="6.031115966056357"><ele>315.8</ele><time>2026-03-28T09:34:14Z</time></trkpt><trkpt lat="47.25820057500275" lon="6.031196578238846"><ele>316.0</ele><time>2026-03-28T09:34:15Z</time></trkpt><trkpt lat="47.258267710784544" lon="6.031349364614148"><ele>316.0</ele><time>2026-03-28T09:34:17Z</time></trkpt><trkpt lat="47.25833117822138" lon="6.031487921264448"><ele>316.0</ele><time>2026-03-28T09:34:19Z</time></trkpt><trkpt lat="47.25838950001622" lon="6.031599486715197"><ele>316.0</ele><time>2026-03-28T09:34:21Z</time></trkpt><trkpt lat="47.258445547595834" lon="6.031653960508667"><ele>316.0</ele><time>2026-03-28T09:34:23Z</time></trkpt><trkpt lat="47.25851794388177" lon="6.031713937823913"><ele>316.0</ele><time>2026-03-28T09:34:26Z</time></trkpt><trkpt lat="47.258510100311625" lon="6.031607463764112"><ele>316.0</ele><time>2026-03-28T09:34:29Z</time></trkpt><trkpt lat="47.25841746462129" lon="6.031546511520113"><ele>316.0</ele><time>2026-03-28T09:34:31Z</time></trkpt><trkpt lat="47.25832889591983" lon="6.031442277156695"><ele>316.0</ele><time>2026-03-28T09:34:33Z</time></trkpt><trkpt lat="47.25825731328302" lon="6.031307428746791"><ele>316.0</ele><time>2026-03-28T09:34:35Z</time></trkpt><trkpt lat="47.25822693167842" lon="6.031225204976989"><ele>316.0</ele><time>2026-03-28T09:34:36Z</time></trkpt><trkpt lat="47.25818892412532" lon="6.0311426889516815"><ele>316.0</ele><time>2026-03-28T09:34:37Z</time></trkpt><trkpt lat="47.2581519368219" lon="6.031051980648613"><ele>316.0</ele><time>2026-03-28T09:34:38Z</time></trkpt><trkpt lat="47.25811186211534" lon="6.030956830433506"><ele>315.8571428571429</ele><time>2026-03-28T09:34:39Z</time></trkpt><trkpt lat="47.258075612100484" lon="6.030868517694902"><ele>315.7142857142857</ele><time>2026-03-28T09:34:40Z</time></trkpt><trkpt lat="47.25804558119421" lon="6.030775548175685"><ele>315.57142857142856</ele><time>2026-03-28T09:34:41Z</time></trkpt><trkpt lat="47.25800867455481" lon="6.0306813286536824"><ele>315.42857142857144</ele><time>2026-03-28T09:34:42Z</time></trkpt><trkpt lat="47.257977687312014" lon="6.030595224930033"><ele>315.2857142857143</ele><time>2026-03-28T09:34:43Z</time></trkpt><trkpt lat="47.25793832611458" lon="6.030508859442692"><ele>315.14285714285717</ele><time>2026-03-28T09:34:44Z</time></trkpt><trkpt lat="47.25789654974858" lon="6.030417109060353"><ele>315.0</ele><time>2026-03-28T09:34:45Z</time></trkpt><trkpt lat="47.2578512993339" lon="6.0303262418766375"><ele>315.0</ele><time>2026-03-28T09:34:46Z</time></trkpt><trkpt lat="47.2578110340232" lon="6.030231050511718"><ele>315.0</ele><time>2026-03-28T09:34:47Z</time></trkpt><trkpt lat="47.257771439319214" lon="6.030137569557334"><ele>315.0</ele><time>2026-03-28T09:34:48Z</time></trkpt><trkpt lat="47.257734204565374" lon="6.030041412705273"><ele>315.0</ele><time>2026-03-28T09:34:49Z</time></trkpt><trkpt lat="47.257701671321186" lon="6.029937851148576"><ele>315.0</ele><time>2026-03-28T09:34:50Z</time></trkpt><trkpt lat="47.25767277241621" lon="6.029837106231336"><ele>315.0</ele><time>2026-03-28T09:34:51Z</time></trkpt><trkpt lat="47.257635702245274" lon="6.029733344237853"><ele>315.14285714285717</ele><time>2026-03-28T09:34:52Z</time></trkpt><trkpt lat="47.25759685553705" lon="6.0296379127518165"><ele>315.2857142857143</ele><time>2026-03-28T09:34:53Z</time></trkpt><trkpt lat="47.25755902293542" lon="6.029542673950896"><ele>315.42857142857144</ele><time>2026-03-28T09:34:54Z</time></trkpt><trkpt lat="47.25752605084505" lon="6.029444982817738"><ele>315.57142857142856</ele><time>2026-03-28T09:34:55Z</time></trkpt><trkpt lat="47.25749519094682" lon="6.029350335945785"><ele>315.7142857142857</ele><time>2026-03-28T09:34:56Z</time></trkpt><trkpt lat="47.25745836386812" lon="6.029254013531881"><ele>315.8571428571429</ele><time>2026-03-28T09:34:57Z</time></trkpt><trkpt lat="47.257428111364746" lon="6.029163020300601"><ele>316.0</ele><time>2026-03-28T09:34:58Z</time></trkpt><trkpt lat="47.25739695732529" lon="6.029077898469041"><ele>316.0</ele><time>2026-03-28T09:34:59Z</time></trkpt><trkpt lat="47.25738167843808" lon="6.028986263012783"><ele>316.0</ele><time>2026-03-28T09:35:00Z</time></trkpt><trkpt lat="47.25736157632424" lon="6.028886708440101"><ele>316.0</ele><time>2026-03-28T09:35:01Z</time></trkpt><trkpt lat="47.25734246792962" lon="6.028797365830205"><ele>316.0</ele><time>2026-03-28T09:35:02Z</time></trkpt><trkpt lat="47.257286139952896" lon="6.028656319329972"><ele>316.0</ele><time>2026-03-28T09:35:04Z</time></trkpt><trkpt lat="47.25725472148491" lon="6.0285594487717"><ele>316.0</ele><time>2026-03-28T09:35:06Z</time></trkpt><trkpt lat="47.257390901458905" lon="6.028493301586653"><ele>316.0</ele><time>2026-03-28T09:35:13Z</time></trkpt><trkpt lat="47.257491598049995" lon="6.028528794360392"><ele>316.0</ele><time>2026-03-28T09:35:15Z</time></trkpt><trkpt lat="47.25755792992566" lon="6.028542368152975"><ele>316.0</ele><time>2026-03-28T09:35:16Z</time></trkpt><trkpt lat="47.25763423199792" lon="6.0285574779729485"><ele>316.0</ele><time>2026-03-28T09:35:17Z</time></trkpt><trkpt lat="47.257715715433804" lon="6.0285756423346015"><ele>316.0</ele><time>2026-03-28T09:35:18Z</time></trkpt><trkpt lat="47.257797042513594" lon="6.028596646775219"><ele>316.0</ele><time>2026-03-28T09:35:19Z</time></trkpt><trkpt lat="47.257884516317105" lon="6.028622952458906"><ele>316.0</ele><time>2026-03-28T09:35:20Z</time></trkpt><trkpt lat="47.25797403845382" lon="6.028649194125983"><ele>316.0</ele><time>2026-03-28T09:35:21Z</time></trkpt><trkpt lat="47.258061790403666" lon="6.028674989732009"><ele>316.0</ele><time>2026-03-28T09:35:22Z</time></trkpt><trkpt lat="47.25814768499925" lon="6.028697081240456"><ele>316.0</ele><time>2026-03-28T09:35:23Z</time></trkpt><trkpt lat="47.25823487534659" lon="6.028710654501729"><ele>316.0</ele><time>2026-03-28T09:35:24Z</time></trkpt><trkpt lat="47.25831689037286" lon="6.028720740201387"><ele>316.0</ele><time>2026-03-28T09:35:25Z</time></trkpt><trkpt lat="47.2583924580168" lon="6.02872607983159"><ele>316.3333333333333</ele><time>2026-03-28T09:35:26Z</time></trkpt><trkpt lat="47.258462415379086" lon="6.028730352331836"><ele>316.66666666666663</ele><time>2026-03-28T09:35:27Z</time></trkpt><trkpt lat="47.258533618028565" lon="6.028731228642021"><ele>317.0</ele><time>2026-03-28T09:35:28Z</time></trkpt><trkpt lat="47.25864836885182" lon="6.0287253135803995"><ele>317.3333333333333</ele><time>2026-03-28T09:35:30Z</time></trkpt><trkpt lat="47.25875156734016" lon="6.028720565307705"><ele>317.6666666666667</ele><time>2026-03-28T09:35:32Z</time></trkpt><trkpt lat="47.258824476115336" lon="6.028712053943484"><ele>318.0</ele><time>2026-03-28T09:35:34Z</time></trkpt><trkpt lat="47.2588904834306" lon="6.028706413478044"><ele>319.0</ele><time>2026-03-28T09:35:37Z</time></trkpt><trkpt lat="47.25895913751417" lon="6.028702088527336"><ele>320.0</ele><time>2026-03-28T09:35:51Z</time></trkpt><trkpt lat="47.25905180469283" lon="6.028692206135595"><ele>321.0</ele><time>2026-03-28T09:35:53Z</time></trkpt><trkpt lat="47.25913261215526" lon="6.028682957871883"><ele>322.0</ele><time>2026-03-28T09:35:55Z</time></trkpt><trkpt lat="47.25921837980221" lon="6.028672135413875"><ele>323.0</ele><time>2026-03-28T09:35:57Z</time></trkpt><trkpt lat="47.25930250987516" lon="6.0286507157756715"><ele>324.0</ele><time>2026-03-28T09:36:00Z</time></trkpt><trkpt lat="47.2593500876519" lon="6.0283959781746255"><ele>324.4</ele><time>2026-03-28T09:36:03Z</time></trkpt><trkpt lat="47.25932989434623" lon="6.0282822995376515"><ele>324.79999999999995</ele><time>2026-03-28T09:36:04Z</time></trkpt><trkpt lat="47.259309446802014" lon="6.028154271415531"><ele>325.20000000000005</ele><time>2026-03-28T09:36:05Z</time></trkpt><trkpt lat="47.25928760747467" lon="6.028027365645532"><ele>325.6</ele><time>2026-03-28T09:36:06Z</time></trkpt><trkpt lat="47.25926070587389" lon="6.0278941151537015"><ele>326.0</ele><time>2026-03-28T09:36:07Z</time></trkpt><trkpt lat="47.2592348269671" lon="6.0277480081080155"><ele>326.0</ele><time>2026-03-28T09:36:08Z</time></trkpt><trkpt lat="47.259203070878364" lon="6.027587518875363"><ele>326.0</ele><time>2026-03-28T09:36:09Z</time></trkpt><trkpt lat="47.259169563228255" lon="6.027419862585245"><ele>326.0</ele><time>2026-03-28T09:36:10Z</time></trkpt><trkpt lat="47.25914030459971" lon="6.0272564961545525"><ele>326.0</ele><time>2026-03-28T09:36:11Z</time></trkpt><trkpt lat="47.25910928150913" lon="6.027086245305198"><ele>325.75</ele><time>2026-03-28T09:36:12Z</time></trkpt><trkpt lat="47.25907991980542" lon="6.026921894677295"><ele>325.5</ele><time>2026-03-28T09:36:13Z</time></trkpt><trkpt lat="47.259052543152066" lon="6.026757025712194"><ele>325.25</ele><time>2026-03-28T09:36:14Z</time></trkpt><trkpt lat="47.25902024851284" lon="6.02658556262099"><ele>325.0</ele><time>2026-03-28T09:36:15Z</time></trkpt><trkpt lat="47.25898896270511" lon="6.02641684452827"><ele>324.5</ele><time>2026-03-28T09:36:16Z</time></trkpt><trkpt lat="47.25895483372288" lon="6.026242275441427"><ele>324.0</ele><time>2026-03-28T09:36:17Z</time></trkpt><trkpt lat="47.25892196266455" lon="6.026073246916651"><ele>323.5</ele><time>2026-03-28T09:36:18Z</time></trkpt><trkpt lat="47.258890390577115" lon="6.025912746502907"><ele>323.0</ele><time>2026-03-28T09:36:19Z</time></trkpt><trkpt lat="47.258861097590945" lon="6.025746264518181"><ele>322.4</ele><time>2026-03-28T09:36:20Z</time></trkpt><trkpt lat="47.258825383412585" lon="6.025581317375531"><ele>321.79999999999995</ele><time>2026-03-28T09:36:21Z</time></trkpt><trkpt lat="47.25879125895209" lon="6.025422509302846"><ele>321.2</ele><time>2026-03-28T09:36:22Z</time></trkpt><trkpt lat="47.25876383298457" lon="6.02527198298976"><ele>320.6</ele><time>2026-03-28T09:36:23Z</time></trkpt><trkpt lat="47.25873721513628" lon="6.025127483394363"><ele>320.0</ele><time>2026-03-28T09:36:24Z</time></trkpt><trkpt lat="47.25870181007486" lon="6.024976657700847"><ele>319.8</ele><time>2026-03-28T09:36:25Z</time></trkpt><trkpt lat="47.25866762033132" lon="6.024829839555335"><ele>319.6</ele><time>2026-03-28T09:36:26Z</time></trkpt><trkpt lat="47.258634067580374" lon="6.0246877166153014"><ele>319.4</ele><time>2026-03-28T09:36:27Z</time></trkpt><trkpt lat="47.25859461147399" lon="6.024546449814633"><ele>319.2</ele><time>2026-03-28T09:36:28Z</time></trkpt><trkpt lat="47.25855221437066" lon="6.024407033763387"><ele>319.0</ele><time>2026-03-28T09:36:29Z</time></trkpt><trkpt lat="47.258509338002035" lon="6.024273496440768"><ele>318.59999999999997</ele><time>2026-03-28T09:36:30Z</time></trkpt><trkpt lat="47.258464719275565" lon="6.024141809423275"><ele>318.2</ele><time>2026-03-28T09:36:31Z</time></trkpt><trkpt lat="47.258416338020965" lon="6.024004834078427"><ele>317.79999999999995</ele><time>2026-03-28T09:36:32Z</time></trkpt><trkpt lat="47.258369305334064" lon="6.023881044407902"><ele>317.4</ele><time>2026-03-28T09:36:33Z</time></trkpt><trkpt lat="47.25832240827684" lon="6.023760269014643"><ele>317.0</ele><time>2026-03-28T09:36:34Z</time></trkpt><trkpt lat="47.258276315156344" lon="6.023639126171652"><ele>317.0</ele><time>2026-03-28T09:36:35Z</time></trkpt><trkpt lat="47.25822586987435" lon="6.023512066501345"><ele>317.0</ele><time>2026-03-28T09:36:36Z</time></trkpt><trkpt lat="47.2581788661401" lon="6.023386783077856"><ele>317.0</ele><time>2026-03-28T09:36:37Z</time></trkpt><trkpt lat="47.25813220936776" lon="6.023264294346666"><ele>317.0</ele><time>2026-03-28T09:36:38Z</time></trkpt><trkpt lat="47.258088400191966" lon="6.023149274591892"><ele>317.0</ele><time>2026-03-28T09:36:39Z</time></trkpt><trkpt lat="47.25805453806952" lon="6.023064883362028"><ele>317.0</ele><time>2026-03-28T09:36:40Z</time></trkpt><trkpt lat="47.258017634638655" lon="6.022973673079437"><ele>317.1666666666667</ele><time>2026-03-28T09:36:42Z</time></trkpt><trkpt lat="47.25797189415763" lon="6.022883829116185"><ele>317.33333333333337</ele><time>2026-03-28T09:37:22Z</time></trkpt><trkpt lat="47.25790267931722" lon="6.022743861908697"><ele>317.5</ele><time>2026-03-28T09:37:24Z</time></trkpt><trkpt lat="47.25785739152571" lon="6.022655349028675"><ele>317.6666666666667</ele><time>2026-03-28T09:37:25Z</time></trkpt><trkpt lat="47.25780768996312" lon="6.022551810931831"><ele>317.8333333333333</ele><time>2026-03-28T09:37:26Z</time></trkpt><trkpt lat="47.257751772348" lon="6.022441095725267"><ele>318.0</ele><time>2026-03-28T09:37:27Z</time></trkpt><trkpt lat="47.257700095963784" lon="6.0223307992101605"><ele>318.0</ele><time>2026-03-28T09:37:28Z</time></trkpt><trkpt lat="47.25764224678465" lon="6.02221413224364"><ele>318.0</ele><time>2026-03-28T09:37:29Z</time></trkpt><trkpt lat="47.25757794039841" lon="6.022097825379237"><ele>318.0</ele><time>2026-03-28T09:37:30Z</time></trkpt><trkpt lat="47.25751198034322" lon="6.021977561190981"><ele>318.0</ele><time>2026-03-28T09:37:31Z</time></trkpt><trkpt lat="47.257431019412174" lon="6.021857367860458"><ele>318.0</ele><time>2026-03-28T09:37:32Z</time></trkpt><trkpt lat="47.257351358357205" lon="6.0217375674617175"><ele>319.0</ele><time>2026-03-28T09:37:33Z</time></trkpt><trkpt lat="47.25726621927902" lon="6.021616082630471"><ele>320.0</ele><time>2026-03-28T09:37:34Z</time></trkpt><trkpt lat="47.25718633045648" lon="6.021501013879567"><ele>321.0</ele><time>2026-03-28T09:37:35Z</time></trkpt><trkpt lat="47.25710431257195" lon="6.021387785894652"><ele>322.0</ele><time>2026-03-28T09:37:36Z</time></trkpt><trkpt lat="47.25701839352755" lon="6.021277792538531"><ele>322.0</ele><time>2026-03-28T09:37:37Z</time></trkpt><trkpt lat="47.25693181853929" lon="6.0211721113333825"><ele>322.0</ele><time>2026-03-28T09:37:38Z</time></trkpt><trkpt lat="47.25684723200966" lon="6.021067650551001"><ele>322.0</ele><time>2026-03-28T09:37:39Z</time></trkpt><trkpt lat="47.25676470024028" lon="6.020970540476754"><ele>322.0</ele><time>2026-03-28T09:37:40Z</time></trkpt><trkpt lat="47.25668079794485" lon="6.020882543873093"><ele>322.0</ele><time>2026-03-28T09:37:41Z</time></trkpt><trkpt lat="47.25660430981865" lon="6.020795640240751"><ele>322.16666666666663</ele><time>2026-03-28T09:37:42Z</time></trkpt><trkpt lat="47.256529093137324" lon="6.020709384154153"><ele>322.3333333333333</ele><time>2026-03-28T09:37:43Z</time></trkpt><trkpt lat="47.2564639819798" lon="6.020633064464716"><ele>322.5</ele><time>2026-03-28T09:37:44Z</time></trkpt><trkpt lat="47.25640497277383" lon="6.020565864333193"><ele>322.6666666666667</ele><time>2026-03-28T09:37:45Z</time></trkpt><trkpt lat="47.256351706750394" lon="6.0205067972377675"><ele>322.83333333333337</ele><time>2026-03-28T09:37:46Z</time></trkpt><trkpt lat="47.256268161632754" lon="6.020399122826663"><ele>323.0</ele><time>2026-03-28T09:37:48Z</time></trkpt><trkpt lat="47.25621626967863" lon="6.0203374607488245"><ele>321.6666666666667</ele><time>2026-03-28T09:37:51Z</time></trkpt><trkpt lat="47.25616921354756" lon="6.020271845217477"><ele>320.33333333333337</ele><time>2026-03-28T09:37:59Z</time></trkpt><trkpt lat="47.2560996872596" lon="6.020172552238877"><ele>319.0</ele><time>2026-03-28T09:38:01Z</time></trkpt><trkpt lat="47.256053502399354" lon="6.02010904284051"><ele>317.6666666666667</ele><time>2026-03-28T09:38:02Z</time></trkpt><trkpt lat="47.2560014180286" lon="6.020039566501111"><ele>316.3333333333333</ele><time>2026-03-28T09:38:03Z</time></trkpt><trkpt lat="47.25594070371035" lon="6.019953321139246"><ele>315.0</ele><time>2026-03-28T09:38:04Z</time></trkpt><trkpt lat="47.25587278288955" lon="6.019854364315541"><ele>314.8</ele><time>2026-03-28T09:38:05Z</time></trkpt><trkpt lat="47.25580487974933" lon="6.019751648041307"><ele>314.6</ele><time>2026-03-28T09:38:06Z</time></trkpt><trkpt lat="47.255734088157354" lon="6.019644764708619"><ele>314.4</ele><time>2026-03-28T09:38:07Z</time></trkpt><trkpt lat="47.25565932056458" lon="6.019526536922761"><ele>314.2</ele><time>2026-03-28T09:38:08Z</time></trkpt><trkpt lat="47.25558693890965" lon="6.019405394735777"><ele>314.0</ele><time>2026-03-28T09:38:09Z</time></trkpt><trkpt lat="47.255519154159295" lon="6.019277723811032"><ele>313.75</ele><time>2026-03-28T09:38:10Z</time></trkpt><trkpt lat="47.2554474915265" lon="6.019142193716639"><ele>313.5</ele><time>2026-03-28T09:38:11Z</time></trkpt><trkpt lat="47.25537694755997" lon="6.01900793487244"><ele>313.25</ele><time>2026-03-28T09:38:12Z</time></trkpt><trkpt lat="47.255308559652185" lon="6.018876760619547"><ele>313.0</ele><time>2026-03-28T09:38:13Z</time></trkpt><trkpt lat="47.25523803762128" lon="6.01874009176721"><ele>313.0</ele><time>2026-03-28T09:38:14Z</time></trkpt><trkpt lat="47.25516833750596" lon="6.0186049494313645"><ele>313.0</ele><time>2026-03-28T09:38:15Z</time></trkpt><trkpt lat="47.25509489515936" lon="6.018470854494762"><ele>313.0</ele><time>2026-03-28T09:38:16Z</time></trkpt><trkpt lat="47.25502366203444" lon="6.018334748911989"><ele>313.0</ele><time>2026-03-28T09:38:17Z</time></trkpt><trkpt lat="47.25495316221792" lon="6.018199914663783"><ele>313.25</ele><time>2026-03-28T09:38:18Z</time></trkpt><trkpt lat="47.254878907047164" lon="6.018062403417822"><ele>313.5</ele><time>2026-03-28T09:38:19Z</time></trkpt><trkpt lat="47.25480403238774" lon="6.017924527664717"><ele>313.75</ele><time>2026-03-28T09:38:20Z</time></trkpt><trkpt lat="47.254728139488925" lon="6.01778908426801"><ele>314.0</ele><time>2026-03-28T09:38:21Z</time></trkpt><trkpt lat="47.254650405064524" lon="6.017653819993515"><ele>313.5</ele><time>2026-03-28T09:38:22Z</time></trkpt><trkpt lat="47.25457368890562" lon="6.017519211729406"><ele>313.0</ele><time>2026-03-28T09:38:23Z</time></trkpt><trkpt lat="47.25448205777686" lon="6.017402190098717"><ele>312.5</ele><time>2026-03-28T09:38:24Z</time></trkpt><trkpt lat="47.25439911531718" lon="6.017280040864716"><ele>312.0</ele><time>2026-03-28T09:38:25Z</time></trkpt><trkpt lat="47.254313708294774" lon="6.017151174971569"><ele>312.0</ele><time>2026-03-28T09:38:26Z</time></trkpt><trkpt lat="47.25423455073662" lon="6.0170174063923385"><ele>312.0</ele><time>2026-03-28T09:38:27Z</time></trkpt><trkpt lat="47.254158491255346" lon="6.016895415476096"><ele>312.0</ele><time>2026-03-28T09:38:28Z</time></trkpt><trkpt lat="47.25408575506913" lon="6.016772678556709"><ele>312.0</ele><time>2026-03-28T09:38:29Z</time></trkpt><trkpt lat="47.25402094128647" lon="6.016659534220982"><ele>312.0</ele><time>2026-03-28T09:38:30Z</time></trkpt><trkpt lat="47.25396157901712" lon="6.016547795477627"><ele>311.8333333333333</ele><time>2026-03-28T09:38:31Z</time></trkpt><trkpt lat="47.253893552831784" lon="6.016454834061999"><ele>311.6666666666667</ele><time>2026-03-28T09:38:32Z</time></trkpt><trkpt lat="47.253841151676" lon="6.016358451403969"><ele>311.5</ele><time>2026-03-28T09:38:33Z</time></trkpt><trkpt lat="47.25379417637016" lon="6.016272686607846"><ele>311.33333333333337</ele><time>2026-03-28T09:38:34Z</time></trkpt><trkpt lat="47.25374194402017" lon="6.0162048199692375"><ele>311.1666666666667</ele><time>2026-03-28T09:38:35Z</time></trkpt><trkpt lat="47.25368417181282" lon="6.0160936223939965"><ele>311.0</ele><time>2026-03-28T09:38:37Z</time></trkpt><trkpt lat="47.25363496889667" lon="6.016024944410747"><ele>311.0</ele><time>2026-03-28T09:38:39Z</time></trkpt><trkpt lat="47.253651190673835" lon="6.015916972879214"><ele>311.0</ele><time>2026-03-28T09:40:31Z</time></trkpt><trkpt lat="47.253624903533364" lon="6.015784045095373"><ele>311.0</ele><time>2026-03-28T09:40:33Z</time></trkpt><trkpt lat="47.253681330822054" lon="6.015631081539282"><ele>311.0</ele><time>2026-03-28T09:40:35Z</time></trkpt><trkpt lat="47.253736310843415" lon="6.015578241032972"><ele>311.0</ele><time>2026-03-28T09:40:36Z</time></trkpt><trkpt lat="47.253790315766544" lon="6.015529147015016"><ele>311.0</ele><time>2026-03-28T09:40:37Z</time></trkpt><trkpt lat="47.253848869496444" lon="6.01547273386274"><ele>311.1666666666667</ele><time>2026-03-28T09:40:38Z</time></trkpt><trkpt lat="47.25390520199519" lon="6.015417857908862"><ele>311.33333333333337</ele><time>2026-03-28T09:40:39Z</time></trkpt><trkpt lat="47.253964879341275" lon="6.015361523856067"><ele>311.5</ele><time>2026-03-28T09:40:40Z</time></trkpt><trkpt lat="47.254024257371576" lon="6.015307270014521"><ele>311.6666666666667</ele><time>2026-03-28T09:40:41Z</time></trkpt><trkpt lat="47.254113338661924" lon="6.015265152608714"><ele>311.8333333333333</ele><time>2026-03-28T09:40:43Z</time></trkpt><trkpt lat="47.25417222812454" lon="6.015184479866724"><ele>312.0</ele><time>2026-03-28T09:40:46Z</time></trkpt><trkpt lat="47.25424280142271" lon="6.015148670108975"><ele>312.5</ele><time>2026-03-28T09:40:48Z</time></trkpt><trkpt lat="47.25432963686439" lon="6.015067662442463"><ele>313.0</ele><time>2026-03-28T09:40:50Z</time></trkpt><trkpt lat="47.25438586709461" lon="6.01501520607062"><ele>313.5</ele><time>2026-03-28T09:40:51Z</time></trkpt><trkpt lat="47.2544532740489" lon="6.014948163221974"><ele>314.0</ele><time>2026-03-28T09:40:52Z</time></trkpt><trkpt lat="47.25451715708775" lon="6.014885198756873"><ele>314.5</ele><time>2026-03-28T09:40:53Z</time></trkpt><trkpt lat="47.254584607535115" lon="6.014817527821855"><ele>315.0</ele><time>2026-03-28T09:40:54Z</time></trkpt><trkpt lat="47.25464849493055" lon="6.014752833846312"><ele>315.3333333333333</ele><time>2026-03-28T09:40:55Z</time></trkpt><trkpt lat="47.25471042776495" lon="6.0146878768454926"><ele>315.6666666666667</ele><time>2026-03-28T09:40:56Z</time></trkpt><trkpt lat="47.25477118732582" lon="6.0146258943579305"><ele>316.0</ele><time>2026-03-28T09:40:57Z</time></trkpt><trkpt lat="47.254828385871775" lon="6.014567511123706"><ele>316.33333333333337</ele><time>2026-03-28T09:40:58Z</time></trkpt><trkpt lat="47.25493353809551" lon="6.01447610319728"><ele>316.6666666666667</ele><time>2026-03-28T09:41:00Z</time></trkpt><trkpt lat="47.2550071454614" lon="6.01440307324877"><ele>317.0</ele><time>2026-03-28T09:41:02Z</time></trkpt><trkpt lat="47.25506843092451" lon="6.014344692582012"><ele>318.0</ele><time>2026-03-28T09:41:04Z</time></trkpt><trkpt lat="47.255151359417205" lon="6.014269783945411"><ele>319.0</ele><time>2026-03-28T09:41:06Z</time></trkpt><trkpt lat="47.25524999387926" lon="6.01417058998937"><ele>320.0</ele><time>2026-03-28T09:41:08Z</time></trkpt><trkpt lat="47.255345128723924" lon="6.0140625119788"><ele>321.0</ele><time>2026-03-28T09:41:10Z</time></trkpt><trkpt lat="47.255395786171036" lon="6.014000042420243"><ele>322.0</ele><time>2026-03-28T09:41:11Z</time></trkpt><trkpt lat="47.255450762899706" lon="6.01393584774703"><ele>322.14285714285717</ele><time>2026-03-28T09:41:12Z</time></trkpt><trkpt lat="47.25550574182989" lon="6.013872746475849"><ele>322.2857142857143</ele><time>2026-03-28T09:41:13Z</time></trkpt><trkpt lat="47.25555961489237" lon="6.013804943618655"><ele>322.42857142857144</ele><time>2026-03-28T09:41:14Z</time></trkpt><trkpt lat="47.255612996438536" lon="6.013730750776848"><ele>322.57142857142856</ele><time>2026-03-28T09:41:15Z</time></trkpt><trkpt lat="47.25566758078223" lon="6.013654734469031"><ele>322.7142857142857</ele><time>2026-03-28T09:41:16Z</time></trkpt><trkpt lat="47.25572069762566" lon="6.013574766884567"><ele>322.8571428571429</ele><time>2026-03-28T09:41:17Z</time></trkpt><trkpt lat="47.2557780087462" lon="6.013491938831738"><ele>323.0</ele><time>2026-03-28T09:41:18Z</time></trkpt><trkpt lat="47.255833137962235" lon="6.013413441619327"><ele>323.0</ele><time>2026-03-28T09:41:19Z</time></trkpt><trkpt lat="47.25588417732895" lon="6.013343149318159"><ele>323.0</ele><time>2026-03-28T09:41:20Z</time></trkpt><trkpt lat="47.255930796035095" lon="6.013276643048073"><ele>323.0</ele><time>2026-03-28T09:41:21Z</time></trkpt><trkpt lat="47.25601228495226" lon="6.013166119617714"><ele>323.0</ele><time>2026-03-28T09:41:23Z</time></trkpt><trkpt lat="47.2560650457691" lon="6.013091837924169"><ele>323.0</ele><time>2026-03-28T09:41:25Z</time></trkpt><trkpt lat="47.25611814392545" lon="6.013041440635252"><ele>323.0</ele><time>2026-03-28T09:41:53Z</time></trkpt><trkpt lat="47.256177608913084" lon="6.012964057183597"><ele>322.83333333333337</ele><time>2026-03-28T09:41:55Z</time></trkpt><trkpt lat="47.25625407572181" lon="6.012864442650847"><ele>322.6666666666667</ele><time>2026-03-28T09:41:57Z</time></trkpt><trkpt lat="47.25630485055082" lon="6.012797375280823"><ele>322.5</ele><time>2026-03-28T09:41:58Z</time></trkpt><trkpt lat="47.256364418160096" lon="6.012718685207296"><ele>322.3333333333333</ele><time>2026-03-28T09:41:59Z</time></trkpt><trkpt lat="47.25642215779728" lon="6.012639571804351"><ele>322.16666666666663</ele><time>2026-03-28T09:42:00Z</time></trkpt><trkpt lat="47.25648741618323" lon="6.012560308096386"><ele>322.0</ele><time>2026-03-28T09:42:01Z</time></trkpt><trkpt lat="47.25655547424172" lon="6.0124770329458945"><ele>322.40000000000003</ele><time>2026-03-28T09:42:02Z</time></trkpt><trkpt lat="47.25662743967303" lon="6.012381894979217"><ele>322.8</ele><time>2026-03-28T09:42:03Z</time></trkpt><trkpt lat="47.25670392064593" lon="6.012287447270628"><ele>323.2</ele><time>2026-03-28T09:42:04Z</time></trkpt><trkpt lat="47.25677959562304" lon="6.012192184615824"><ele>323.6</ele><time>2026-03-28T09:42:05Z</time></trkpt><trkpt lat="47.25685906767416" lon="6.012097359942592"><ele>324.0</ele><time>2026-03-28T09:42:06Z</time></trkpt><trkpt lat="47.256940195147884" lon="6.011997171364281"><ele>324.0</ele><time>2026-03-28T09:42:07Z</time></trkpt><trkpt lat="47.25702418074083" lon="6.011897676744485"><ele>324.0</ele><time>2026-03-28T09:42:08Z</time></trkpt><trkpt lat="47.25710570949718" lon="6.011798185941747"><ele>324.0</ele><time>2026-03-28T09:42:09Z</time></trkpt><trkpt lat="47.25718932739016" lon="6.011699356000005"><ele>324.0</ele><time>2026-03-28T09:42:10Z</time></trkpt><trkpt lat="47.25727224804312" lon="6.01159720846174"><ele>324.0</ele><time>2026-03-28T09:42:11Z</time></trkpt><trkpt lat="47.25735797646892" lon="6.011492373622115"><ele>324.6</ele><time>2026-03-28T09:42:12Z</time></trkpt><trkpt lat="47.25744512120233" lon="6.0113849846296405"><ele>325.2</ele><time>2026-03-28T09:42:13Z</time></trkpt><trkpt lat="47.25752901071174" lon="6.011282331767455"><ele>325.8</ele><time>2026-03-28T09:42:14Z</time></trkpt><trkpt lat="47.257605314185" lon="6.011185173752476"><ele>326.40000000000003</ele><time>2026-03-28T09:42:15Z</time></trkpt><trkpt lat="47.257676917659" lon="6.011095050273873"><ele>327.0</ele><time>2026-03-28T09:42:16Z</time></trkpt><trkpt lat="47.25774961127363" lon="6.011017177331657"><ele>327.0</ele><time>2026-03-28T09:42:17Z</time></trkpt><trkpt lat="47.25782202286031" lon="6.010929183436985"><ele>327.0</ele><time>2026-03-28T09:42:18Z</time></trkpt><trkpt lat="47.25789607656199" lon="6.010842486678595"><ele>327.0</ele><time>2026-03-28T09:42:19Z</time></trkpt><trkpt lat="47.25796699639283" lon="6.010757582721593"><ele>327.0</ele><time>2026-03-28T09:42:20Z</time></trkpt><trkpt lat="47.25803841249204" lon="6.010673237848778"><ele>327.0</ele><time>2026-03-28T09:42:21Z</time></trkpt><trkpt lat="47.25811027178862" lon="6.010585627547621"><ele>327.0</ele><time>2026-03-28T09:42:22Z</time></trkpt><trkpt lat="47.258185214896926" lon="6.010496808041437"><ele>327.0</ele><time>2026-03-28T09:42:23Z</time></trkpt><trkpt lat="47.25825861292793" lon="6.010406886802175"><ele>327.0</ele><time>2026-03-28T09:42:24Z</time></trkpt><trkpt lat="47.25833479490785" lon="6.0103165586666645"><ele>327.0</ele><time>2026-03-28T09:42:25Z</time></trkpt><trkpt lat="47.258412342696644" lon="6.010227239279759"><ele>327.0</ele><time>2026-03-28T09:42:26Z</time></trkpt><trkpt lat="47.258495131756746" lon="6.0101447812689335"><ele>327.0</ele><time>2026-03-28T09:42:27Z</time></trkpt><trkpt lat="47.25857314983683" lon="6.010060151979696"><ele>327.0</ele><time>2026-03-28T09:42:28Z</time></trkpt><trkpt lat="47.25864519890513" lon="6.009962891712389"><ele>327.0</ele><time>2026-03-28T09:42:29Z</time></trkpt><trkpt lat="47.25872818703436" lon="6.009881382112481"><ele>327.0</ele><time>2026-03-28T09:42:30Z</time></trkpt><trkpt lat="47.258798613249844" lon="6.00977016729082"><ele>327.0</ele><time>2026-03-28T09:42:31Z</time></trkpt><trkpt lat="47.25887034355335" lon="6.009676612961095"><ele>326.40000000000003</ele><time>2026-03-28T09:42:32Z</time></trkpt><trkpt lat="47.25894526323818" lon="6.009589006733355"><ele>325.8</ele><time>2026-03-28T09:42:33Z</time></trkpt><trkpt lat="47.2590250661267" lon="6.009496429375476"><ele>325.2</ele><time>2026-03-28T09:42:34Z</time></trkpt><trkpt lat="47.25910243500753" lon="6.009411845497411"><ele>324.6</ele><time>2026-03-28T09:42:35Z</time></trkpt><trkpt lat="47.25917639265739" lon="6.0093321835741405"><ele>324.0</ele><time>2026-03-28T09:42:36Z</time></trkpt><trkpt lat="47.25924196307059" lon="6.009254263197149"><ele>324.14285714285717</ele><time>2026-03-28T09:42:37Z</time></trkpt><trkpt lat="47.25930531540992" lon="6.009187697820446"><ele>324.2857142857143</ele><time>2026-03-28T09:42:38Z</time></trkpt><trkpt lat="47.259367059823674" lon="6.009129314938541"><ele>324.42857142857144</ele><time>2026-03-28T09:42:39Z</time></trkpt><trkpt lat="47.25942750842013" lon="6.009075011145005"><ele>324.57142857142856</ele><time>2026-03-28T09:42:40Z</time></trkpt><trkpt lat="47.259485902809075" lon="6.00902890717242"><ele>324.7142857142857</ele><time>2026-03-28T09:42:41Z</time></trkpt><trkpt lat="47.25954627707454" lon="6.008981872769743"><ele>324.85714285714283</ele><time>2026-03-28T09:42:42Z</time></trkpt><trkpt lat="47.259612787658234" lon="6.00894060872183"><ele>325.0</ele><time>2026-03-28T09:42:43Z</time></trkpt><trkpt lat="47.2596857474709" lon="6.008911253188117"><ele>325.0</ele><time>2026-03-28T09:42:44Z</time></trkpt><trkpt lat="47.25975195614501" lon="6.008890708036639"><ele>325.0</ele><time>2026-03-28T09:42:45Z</time></trkpt><trkpt lat="47.25980645594861" lon="6.008831732553811"><ele>325.0</ele><time>2026-03-28T09:42:46Z</time></trkpt><trkpt lat="47.25984056964906" lon="6.00872090852788"><ele>325.0</ele><time>2026-03-28T09:42:47Z</time></trkpt><trkpt lat="47.25986203935058" lon="6.008604413550991"><ele>325.0</ele><time>2026-03-28T09:42:48Z</time></trkpt><trkpt lat="47.259916647064024" lon="6.008490605587422"><ele>325.0</ele><time>2026-03-28T09:42:49Z</time></trkpt><trkpt lat="47.25998953586746" lon="6.0083864217338805"><ele>323.0</ele><time>2026-03-28T09:42:50Z</time></trkpt><trkpt lat="47.26007757309178" lon="6.008293981349361"><ele>321.0</ele><time>2026-03-28T09:42:51Z</time></trkpt><trkpt lat="47.26017935013724" lon="6.00819743656119"><ele>319.0</ele><time>2026-03-28T09:42:52Z</time></trkpt><trkpt lat="47.26029248177445" lon="6.008096948402304"><ele>317.0</ele><time>2026-03-28T09:42:53Z</time></trkpt><trkpt lat="47.260406971881075" lon="6.007995323199279"><ele>317.0</ele><time>2026-03-28T09:42:54Z</time></trkpt><trkpt lat="47.26052349371839" lon="6.007895626318088"><ele>317.0</ele><time>2026-03-28T09:42:55Z</time></trkpt><trkpt lat="47.260641136265704" lon="6.00779897809116"><ele>317.0</ele><time>2026-03-28T09:42:56Z</time></trkpt><trkpt lat="47.26075286825209" lon="6.007701596794347"><ele>317.0</ele><time>2026-03-28T09:42:57Z</time></trkpt><trkpt lat="47.260862742996444" lon="6.00760910645787"><ele>316.0</ele><time>2026-03-28T09:42:58Z</time></trkpt><trkpt lat="47.26097388109819" lon="6.007516115647457"><ele>315.0</ele><time>2026-03-28T09:42:59Z</time></trkpt><trkpt lat="47.26108382067724" lon="6.0074213766830535"><ele>314.0</ele><time>2026-03-28T09:43:00Z</time></trkpt><trkpt lat="47.26119473184725" lon="6.007323011952017"><ele>313.0</ele><time>2026-03-28T09:43:01Z</time></trkpt><trkpt lat="47.26130318414658" lon="6.007229925813919"><ele>313.0</ele><time>2026-03-28T09:43:02Z</time></trkpt><trkpt lat="47.261407606742935" lon="6.007139381506276"><ele>313.0</ele><time>2026-03-28T09:43:03Z</time></trkpt><trkpt lat="47.26151198862806" lon="6.007040319689984"><ele>313.0</ele><time>2026-03-28T09:43:04Z</time></trkpt><trkpt lat="47.261614046043704" lon="6.006937462718876"><ele>313.0</ele><time>2026-03-28T09:43:05Z</time></trkpt><trkpt lat="47.26171247061298" lon="6.00683870705025"><ele>312.6</ele><time>2026-03-28T09:43:06Z</time></trkpt><trkpt lat="47.26179876716201" lon="6.006745214436112"><ele>312.20000000000005</ele><time>2026-03-28T09:43:07Z</time></trkpt><trkpt lat="47.261874860873" lon="6.00664878179301"><ele>311.8</ele><time>2026-03-28T09:43:08Z</time></trkpt><trkpt lat="47.261934578405146" lon="6.006542338363767"><ele>311.40000000000003</ele><time>2026-03-28T09:43:09Z</time></trkpt><trkpt lat="47.26196981101867" lon="6.006427728881255"><ele>311.0</ele><time>2026-03-28T09:43:10Z</time></trkpt><trkpt lat="47.26199350469042" lon="6.006311994079502"><ele>310.5</ele><time>2026-03-28T09:43:11Z</time></trkpt><trkpt lat="47.26202098376349" lon="6.00620093042541"><ele>310.0</ele><time>2026-03-28T09:43:12Z</time></trkpt><trkpt lat="47.262063743108946" lon="6.006102479294222"><ele>309.5</ele><time>2026-03-28T09:43:13Z</time></trkpt><trkpt lat="47.26212170951471" lon="6.006022576094531"><ele>309.0</ele><time>2026-03-28T09:43:14Z</time></trkpt><trkpt lat="47.26219360166828" lon="6.00597983964003"><ele>308.5</ele><time>2026-03-28T09:43:15Z</time></trkpt><trkpt lat="47.262272197305315" lon="6.005978288009788"><ele>308.0</ele><time>2026-03-28T09:43:16Z</time></trkpt><trkpt lat="47.26235902214458" lon="6.006017429591524"><ele>307.5</ele><time>2026-03-28T09:43:17Z</time></trkpt><trkpt lat="47.26244653626282" lon="6.006077031068823"><ele>307.0</ele><time>2026-03-28T09:43:18Z</time></trkpt><trkpt lat="47.26254674644996" lon="6.0061435769405715"><ele>306.5</ele><time>2026-03-28T09:43:19Z</time></trkpt><trkpt lat="47.262662044798745" lon="6.006217368229729"><ele>306.0</ele><time>2026-03-28T09:43:20Z</time></trkpt><trkpt lat="47.26279167217787" lon="6.006293769729288"><ele>306.0</ele><time>2026-03-28T09:43:21Z</time></trkpt><trkpt lat="47.26292192567561" lon="6.006360422169015"><ele>306.0</ele><time>2026-03-28T09:43:22Z</time></trkpt><trkpt lat="47.26306685966425" lon="6.006413799147516"><ele>306.0</ele><time>2026-03-28T09:43:23Z</time></trkpt><trkpt lat="47.26322090839729" lon="6.006447489648635"><ele>306.0</ele><time>2026-03-28T09:43:24Z</time></trkpt><trkpt lat="47.263375590153935" lon="6.0064520271476445"><ele>306.3333333333333</ele><time>2026-03-28T09:43:25Z</time></trkpt><trkpt lat="47.26353444098519" lon="6.006426135117537"><ele>306.66666666666663</ele><time>2026-03-28T09:43:26Z</time></trkpt><trkpt lat="47.26369507007826" lon="6.006370947722416"><ele>307.0</ele><time>2026-03-28T09:43:27Z</time></trkpt><trkpt lat="47.263865228348216" lon="6.006297150304625"><ele>308.0</ele><time>2026-03-28T09:43:28Z</time></trkpt><trkpt lat="47.264038722046294" lon="6.006214947685688"><ele>309.0</ele><time>2026-03-28T09:43:29Z</time></trkpt><trkpt lat="47.264217649060534" lon="6.006123734563772"><ele>310.0</ele><time>2026-03-28T09:43:30Z</time></trkpt><trkpt lat="47.26440061355541" lon="6.006025477517744"><ele>310.0</ele><time>2026-03-28T09:43:31Z</time></trkpt><trkpt lat="47.264586954230715" lon="6.0059213982107105"><ele>310.0</ele><time>2026-03-28T09:43:32Z</time></trkpt><trkpt lat="47.26477947576833" lon="6.00581004303121"><ele>310.0</ele><time>2026-03-28T09:43:33Z</time></trkpt><trkpt lat="47.2649695836737" lon="6.0056883439117845"><ele>312.3333333333333</ele><time>2026-03-28T09:43:34Z</time></trkpt><trkpt lat="47.26515383057512" lon="6.005561295359104"><ele>314.6666666666667</ele><time>2026-03-28T09:43:35Z</time></trkpt><trkpt lat="47.265341193384806" lon="6.005423741015645"><ele>317.0</ele><time>2026-03-28T09:43:36Z</time></trkpt><trkpt lat="47.26552445981737" lon="6.00527807863894"><ele>316.0</ele><time>2026-03-28T09:43:37Z</time></trkpt><trkpt lat="47.26570873142228" lon="6.005126740710915"><ele>315.0</ele><time>2026-03-28T09:43:38Z</time></trkpt><trkpt lat="47.26589248861664" lon="6.004974062350179"><ele>314.0</ele><time>2026-03-28T09:43:39Z</time></trkpt><trkpt lat="47.26607526569569" lon="6.004818957039139"><ele>316.0</ele><time>2026-03-28T09:43:40Z</time></trkpt><trkpt lat="47.26625128893853" lon="6.004666336877991"><ele>318.0</ele><time>2026-03-28T09:43:41Z</time></trkpt><trkpt lat="47.26642691311515" lon="6.004515870167465"><ele>320.0</ele><time>2026-03-28T09:43:42Z</time></trkpt><trkpt lat="47.266601628211546" lon="6.004361723711526"><ele>320.0</ele><time>2026-03-28T09:43:43Z</time></trkpt><trkpt lat="47.266775661875" lon="6.004206410515073"><ele>320.0</ele><time>2026-03-28T09:43:44Z</time></trkpt><trkpt lat="47.266947082612795" lon="6.00404846415113"><ele>320.0</ele><time>2026-03-28T09:43:45Z</time></trkpt><trkpt lat="47.267119951691036" lon="6.003890426378674"><ele>320.6666666666667</ele><time>2026-03-28T09:43:46Z</time></trkpt><trkpt lat="47.267296546847795" lon="6.003733540480867"><ele>321.3333333333333</ele><time>2026-03-28T09:43:47Z</time></trkpt><trkpt lat="47.267471611655296" lon="6.003576739852181"><ele>322.0</ele><time>2026-03-28T09:43:48Z</time></trkpt><trkpt lat="47.267649428163274" lon="6.0034205561240634"><ele>322.66666666666663</ele><time>2026-03-28T09:43:49Z</time></trkpt><trkpt lat="47.26783047438318" lon="6.003265346831459"><ele>323.3333333333333</ele><time>2026-03-28T09:43:50Z</time></trkpt><trkpt lat="47.268010927038176" lon="6.0031062279706005"><ele>324.0</ele><time>2026-03-28T09:43:51Z</time></trkpt><trkpt lat="47.26819337143735" lon="6.002947397328011"><ele>324.0</ele><time>2026-03-28T09:43:52Z</time></trkpt><trkpt lat="47.268376458495716" lon="6.002786054053801"><ele>324.0</ele><time>2026-03-28T09:43:53Z</time></trkpt><trkpt lat="47.26855407379534" lon="6.002626792343007"><ele>324.0</ele><time>2026-03-28T09:43:54Z</time></trkpt><trkpt lat="47.268731198685806" lon="6.002465238402402"><ele>324.6666666666667</ele><time>2026-03-28T09:43:55Z</time></trkpt><trkpt lat="47.26890596490062" lon="6.002304166899414"><ele>325.33333333333337</ele><time>2026-03-28T09:43:56Z</time></trkpt><trkpt lat="47.26907690266354" lon="6.002141181052878"><ele>326.0</ele><time>2026-03-28T09:43:57Z</time></trkpt><trkpt lat="47.26924299669932" lon="6.0019681031383225"><ele>326.0</ele><time>2026-03-28T09:43:58Z</time></trkpt><trkpt lat="47.26939969722809" lon="6.001789774094274"><ele>326.0</ele><time>2026-03-28T09:43:59Z</time></trkpt><trkpt lat="47.26955740953719" lon="6.001601415652313"><ele>326.0</ele><time>2026-03-28T09:44:00Z</time></trkpt><trkpt lat="47.26970606097774" lon="6.001405062441064"><ele>326.0</ele><time>2026-03-28T09:44:01Z</time></trkpt><trkpt lat="47.269851852949145" lon="6.001200421756197"><ele>326.0</ele><time>2026-03-28T09:44:02Z</time></trkpt><trkpt lat="47.26998935559183" lon="6.000984229169734"><ele>326.0</ele><time>2026-03-28T09:44:03Z</time></trkpt><trkpt lat="47.270128338984144" lon="6.000761826898928"><ele>326.0</ele><time>2026-03-28T09:44:04Z</time></trkpt><trkpt lat="47.270267844804586" lon="6.00053540402651"><ele>326.0</ele><time>2026-03-28T09:44:05Z</time></trkpt><trkpt lat="47.27040737113283" lon="6.000306242625539"><ele>326.0</ele><time>2026-03-28T09:44:06Z</time></trkpt><trkpt lat="47.27054693811498" lon="6.000080643837919"><ele>325.0</ele><time>2026-03-28T09:44:07Z</time></trkpt><trkpt lat="47.270687062903185" lon="5.999853935987478"><ele>324.0</ele><time>2026-03-28T09:44:08Z</time></trkpt><trkpt lat="47.27082525295544" lon="5.9996300029986624"><ele>323.0</ele><time>2026-03-28T09:44:09Z</time></trkpt><trkpt lat="47.2709634847894" lon="5.999406630052562"><ele>323.0</ele><time>2026-03-28T09:44:10Z</time></trkpt><trkpt lat="47.2711037824161" lon="5.999185122105586"><ele>323.0</ele><time>2026-03-28T09:44:11Z</time></trkpt><trkpt lat="47.27124439718882" lon="5.998964177263111"><ele>323.0</ele><time>2026-03-28T09:44:12Z</time></trkpt><trkpt lat="47.271390915024575" lon="5.9987432662821485"><ele>323.0</ele><time>2026-03-28T09:44:13Z</time></trkpt><trkpt lat="47.27154003128963" lon="5.99852593153457"><ele>323.0</ele><time>2026-03-28T09:44:14Z</time></trkpt><trkpt lat="47.27169393824776" lon="5.998311197594828"><ele>323.0</ele><time>2026-03-28T09:44:15Z</time></trkpt><trkpt lat="47.27185321501251" lon="5.998099628279859"><ele>323.0</ele><time>2026-03-28T09:44:16Z</time></trkpt><trkpt lat="47.272014863623575" lon="5.997893339747389"><ele>323.0</ele><time>2026-03-28T09:44:17Z</time></trkpt><trkpt lat="47.272176577043496" lon="5.99769305875027"><ele>323.0</ele><time>2026-03-28T09:44:18Z</time></trkpt><trkpt lat="47.27235016660256" lon="5.997502047893706"><ele>322.33333333333337</ele><time>2026-03-28T09:44:19Z</time></trkpt><trkpt lat="47.27252362701095" lon="5.997318699726762"><ele>321.6666666666667</ele><time>2026-03-28T09:44:20Z</time></trkpt><trkpt lat="47.27269847274267" lon="5.997137090831341"><ele>321.0</ele><time>2026-03-28T09:44:21Z</time></trkpt><trkpt lat="47.27287196827998" lon="5.996960112664825"><ele>321.0</ele><time>2026-03-28T09:44:22Z</time></trkpt><trkpt lat="47.27304414438006" lon="5.9967892365483655"><ele>321.0</ele><time>2026-03-28T09:44:23Z</time></trkpt><trkpt lat="47.27321709389138" lon="5.996626868514872"><ele>321.0</ele><time>2026-03-28T09:44:24Z</time></trkpt><trkpt lat="47.27339014194457" lon="5.9964729627121995"><ele>321.3333333333333</ele><time>2026-03-28T09:44:25Z</time></trkpt><trkpt lat="47.273566552553504" lon="5.9963281768048216"><ele>321.66666666666663</ele><time>2026-03-28T09:44:26Z</time></trkpt><trkpt lat="47.273742435262285" lon="5.996188928179494"><ele>322.0</ele><time>2026-03-28T09:44:27Z</time></trkpt><trkpt lat="47.27391810003851" lon="5.996055259103799"><ele>321.3333333333333</ele><time>2026-03-28T09:44:28Z</time></trkpt><trkpt lat="47.2740982276136" lon="5.995927541696256"><ele>320.6666666666667</ele><time>2026-03-28T09:44:29Z</time></trkpt><trkpt lat="47.27428092959235" lon="5.9958117555411965"><ele>320.0</ele><time>2026-03-28T09:44:30Z</time></trkpt><trkpt lat="47.274462477641336" lon="5.995700293244434"><ele>320.0</ele><time>2026-03-28T09:44:31Z</time></trkpt><trkpt lat="47.27464564524516" lon="5.995594835201349"><ele>320.0</ele><time>2026-03-28T09:44:32Z</time></trkpt><trkpt lat="47.27482353168118" lon="5.995489060308347"><ele>320.0</ele><time>2026-03-28T09:44:33Z</time></trkpt><trkpt lat="47.27499807907133" lon="5.995388884449929"><ele>320.6666666666667</ele><time>2026-03-28T09:44:34Z</time></trkpt><trkpt lat="47.27516351538729" lon="5.995291982181247"><ele>321.3333333333333</ele><time>2026-03-28T09:44:35Z</time></trkpt><trkpt lat="47.2753285229659" lon="5.995190194923921"><ele>322.0</ele><time>2026-03-28T09:44:36Z</time></trkpt><trkpt lat="47.27549390569146" lon="5.995090502131556"><ele>322.0</ele><time>2026-03-28T09:44:37Z</time></trkpt><trkpt lat="47.27565264445385" lon="5.994983849243131"><ele>322.0</ele><time>2026-03-28T09:44:38Z</time></trkpt><trkpt lat="47.275807337314056" lon="5.994882907921892"><ele>322.0</ele><time>2026-03-28T09:44:39Z</time></trkpt><trkpt lat="47.27595235411426" lon="5.994773873595159"><ele>322.0</ele><time>2026-03-28T09:44:40Z</time></trkpt><trkpt lat="47.27608496849621" lon="5.994631967118034"><ele>322.0</ele><time>2026-03-28T09:44:41Z</time></trkpt><trkpt lat="47.27621039302997" lon="5.99450454332966"><ele>322.0</ele><time>2026-03-28T09:44:42Z</time></trkpt><trkpt lat="47.27635291228453" lon="5.994421914017983"><ele>322.5</ele><time>2026-03-28T09:44:43Z</time></trkpt><trkpt lat="47.27647201958747" lon="5.994295262590827"><ele>323.0</ele><time>2026-03-28T09:44:44Z</time></trkpt><trkpt lat="47.276580032597025" lon="5.994168694185699"><ele>323.5</ele><time>2026-03-28T09:44:45Z</time></trkpt><trkpt lat="47.276676306971574" lon="5.994048479003869"><ele>324.0</ele><time>2026-03-28T09:44:46Z</time></trkpt><trkpt lat="47.27676161409493" lon="5.99393750678156"><ele>324.2</ele><time>2026-03-28T09:44:47Z</time></trkpt><trkpt lat="47.27684178637491" lon="5.993828618250703"><ele>324.4</ele><time>2026-03-28T09:44:48Z</time></trkpt><trkpt lat="47.27691294763022" lon="5.993727048385672"><ele>324.6</ele><time>2026-03-28T09:44:49Z</time></trkpt><trkpt lat="47.27697332912742" lon="5.993639114972445"><ele>324.8</ele><time>2026-03-28T09:44:50Z</time></trkpt><trkpt lat="47.27704572384084" lon="5.993538013435015"><ele>325.0</ele><time>2026-03-28T09:44:52Z</time></trkpt><trkpt lat="47.27712682109062" lon="5.993452511538974"><ele>325.0</ele><time>2026-03-28T09:44:56Z</time></trkpt><trkpt lat="47.277194611740065" lon="5.9933427046898675"><ele>325.0</ele><time>2026-03-28T09:44:58Z</time></trkpt><trkpt lat="47.277246430756215" lon="5.993275951531933"><ele>325.0</ele><time>2026-03-28T09:44:59Z</time></trkpt><trkpt lat="47.27729729904471" lon="5.9932104230988905"><ele>325.0</ele><time>2026-03-28T09:45:00Z</time></trkpt><trkpt lat="47.27735266800917" lon="5.993139096904314"><ele>325.0</ele><time>2026-03-28T09:45:01Z</time></trkpt><trkpt lat="47.27741212429265" lon="5.993081607183355"><ele>325.0</ele><time>2026-03-28T09:45:02Z</time></trkpt><trkpt lat="47.27744268746262" lon="5.992972667401962"><ele>325.5</ele><time>2026-03-28T09:45:03Z</time></trkpt><trkpt lat="47.277455281387326" lon="5.992858553888181"><ele>326.0</ele><time>2026-03-28T09:45:04Z</time></trkpt><trkpt lat="47.277455893478724" lon="5.9927404400702216"><ele>326.5</ele><time>2026-03-28T09:45:05Z</time></trkpt><trkpt lat="47.27743694464488" lon="5.992636351393937"><ele>327.0</ele><time>2026-03-28T09:45:06Z</time></trkpt><trkpt lat="47.27740431489187" lon="5.99253756106768"><ele>327.5</ele><time>2026-03-28T09:45:07Z</time></trkpt><trkpt lat="47.27735410263609" lon="5.992444113376379"><ele>328.0</ele><time>2026-03-28T09:45:08Z</time></trkpt><trkpt lat="47.27729706718236" lon="5.992359229795678"><ele>327.8333333333333</ele><time>2026-03-28T09:45:09Z</time></trkpt><trkpt lat="47.27722075924241" lon="5.992303882223125"><ele>327.66666666666663</ele><time>2026-03-28T09:45:10Z</time></trkpt><trkpt lat="47.27714213319938" lon="5.9922774097976665"><ele>327.5</ele><time>2026-03-28T09:45:11Z</time></trkpt><trkpt lat="47.27706354641417" lon="5.992262154364788"><ele>327.3333333333333</ele><time>2026-03-28T09:45:12Z</time></trkpt><trkpt lat="47.27699182573902" lon="5.992232547400277"><ele>327.1666666666667</ele><time>2026-03-28T09:45:13Z</time></trkpt><trkpt lat="47.27691652073104" lon="5.992170635233662"><ele>327.0</ele><time>2026-03-28T09:45:14Z</time></trkpt><trkpt lat="47.27684515848738" lon="5.99208090546975"><ele>327.0</ele><time>2026-03-28T09:45:15Z</time></trkpt><trkpt lat="47.276774751589556" lon="5.9919757566661795"><ele>327.0</ele><time>2026-03-28T09:45:16Z</time></trkpt><trkpt lat="47.27670303310882" lon="5.991858867376076"><ele>327.0</ele><time>2026-03-28T09:45:17Z</time></trkpt><trkpt lat="47.276631807326936" lon="5.991736555834904"><ele>327.0</ele><time>2026-03-28T09:45:18Z</time></trkpt><trkpt lat="47.27656144791847" lon="5.991616048153973"><ele>327.0</ele><time>2026-03-28T09:45:19Z</time></trkpt><trkpt lat="47.27649839589013" lon="5.991487475508508"><ele>326.6</ele><time>2026-03-28T09:45:20Z</time></trkpt><trkpt lat="47.27643947603929" lon="5.991352583543343"><ele>326.20000000000005</ele><time>2026-03-28T09:45:21Z</time></trkpt><trkpt lat="47.276392619684046" lon="5.991222771274102"><ele>325.8</ele><time>2026-03-28T09:45:22Z</time></trkpt><trkpt lat="47.27635226431004" lon="5.991090412228357"><ele>325.4</ele><time>2026-03-28T09:45:23Z</time></trkpt><trkpt lat="47.27631355337078" lon="5.9909429321263"><ele>325.0</ele><time>2026-03-28T09:45:24Z</time></trkpt><trkpt lat="47.27628428296273" lon="5.99078668794857"><ele>324.2</ele><time>2026-03-28T09:45:25Z</time></trkpt><trkpt lat="47.27626138163384" lon="5.99063050346343"><ele>323.4</ele><time>2026-03-28T09:45:26Z</time></trkpt><trkpt lat="47.27624524889756" lon="5.9904719475020425"><ele>322.6</ele><time>2026-03-28T09:45:27Z</time></trkpt><trkpt lat="47.276232683898016" lon="5.99031610449918"><ele>321.8</ele><time>2026-03-28T09:45:28Z</time></trkpt><trkpt lat="47.27622271818385" lon="5.990162020328069"><ele>321.0</ele><time>2026-03-28T09:45:29Z</time></trkpt><trkpt lat="47.276214826296396" lon="5.990007962810023"><ele>320.6666666666667</ele><time>2026-03-28T09:45:30Z</time></trkpt><trkpt lat="47.27620569558941" lon="5.989856921985198"><ele>320.3333333333333</ele><time>2026-03-28T09:45:31Z</time></trkpt><trkpt lat="47.276198973765084" lon="5.989719508027992"><ele>320.0</ele><time>2026-03-28T09:45:32Z</time></trkpt><trkpt lat="47.27619093960699" lon="5.989593961379572"><ele>319.66666666666663</ele><time>2026-03-28T09:45:33Z</time></trkpt><trkpt lat="47.27619174261573" lon="5.98947674315997"><ele>319.3333333333333</ele><time>2026-03-28T09:45:34Z</time></trkpt><trkpt lat="47.27620171380345" lon="5.989358998212784"><ele>319.0</ele><time>2026-03-28T09:45:35Z</time></trkpt><trkpt lat="47.27622291642023" lon="5.989246952575306"><ele>319.0</ele><time>2026-03-28T09:45:36Z</time></trkpt><trkpt lat="47.276249630668744" lon="5.989138607137549"><ele>319.0</ele><time>2026-03-28T09:45:37Z</time></trkpt><trkpt lat="47.27626370577895" lon="5.9890354434326145"><ele>319.0</ele><time>2026-03-28T09:45:38Z</time></trkpt><trkpt lat="47.27625940128123" lon="5.988935769056728"><ele>319.0</ele><time>2026-03-28T09:45:39Z</time></trkpt><trkpt lat="47.27624167272658" lon="5.988843439979929"><ele>319.0</ele><time>2026-03-28T09:45:40Z</time></trkpt><trkpt lat="47.27622896895047" lon="5.988737932665289"><ele>319.0</ele><time>2026-03-28T09:45:41Z</time></trkpt><trkpt lat="47.27622694323028" lon="5.988625652677077"><ele>319.0</ele><time>2026-03-28T09:45:42Z</time></trkpt><trkpt lat="47.27618996387871" lon="5.988472238864125"><ele>319.0</ele><time>2026-03-28T09:45:44Z</time></trkpt><trkpt lat="47.27620822952121" lon="5.9883476310073345"><ele>319.0</ele><time>2026-03-28T09:45:46Z</time></trkpt><trkpt lat="47.27620690926106" lon="5.988223134304421"><ele>319.0</ele><time>2026-03-28T09:45:50Z</time></trkpt><trkpt lat="47.27620183393328" lon="5.988102670182141"><ele>319.0</ele><time>2026-03-28T09:45:53Z</time></trkpt><trkpt lat="47.276198393719966" lon="5.987966258186003"><ele>319.0</ele><time>2026-03-28T09:45:58Z</time></trkpt><trkpt lat="47.276189276700805" lon="5.987818881084516"><ele>319.0</ele><time>2026-03-28T09:46:00Z</time></trkpt><trkpt lat="47.27618249360926" lon="5.987723782369634"><ele>319.0</ele><time>2026-03-28T09:46:01Z</time></trkpt><trkpt lat="47.276170647319674" lon="5.987609298029952"><ele>319.0</ele><time>2026-03-28T09:46:02Z</time></trkpt><trkpt lat="47.27615357096252" lon="5.987472422913716"><ele>319.0</ele><time>2026-03-28T09:46:03Z</time></trkpt><trkpt lat="47.27613727790829" lon="5.987326316424718"><ele>319.0</ele><time>2026-03-28T09:46:04Z</time></trkpt><trkpt lat="47.27612094234898" lon="5.987174246802057"><ele>319.0</ele><time>2026-03-28T09:46:05Z</time></trkpt><trkpt lat="47.27610272544995" lon="5.987004210660656"><ele>318.5</ele><time>2026-03-28T09:46:06Z</time></trkpt><trkpt lat="47.276084342620635" lon="5.986821013899946"><ele>318.0</ele><time>2026-03-28T09:46:07Z</time></trkpt><trkpt lat="47.27606659478661" lon="5.98661705492255"><ele>317.5</ele><time>2026-03-28T09:46:08Z</time></trkpt><trkpt lat="47.2760481078231" lon="5.986403766770764"><ele>317.0</ele><time>2026-03-28T09:46:09Z</time></trkpt><trkpt lat="47.27603657958733" lon="5.986185452662288"><ele>317.0</ele><time>2026-03-28T09:46:10Z</time></trkpt><trkpt lat="47.276041587376646" lon="5.985960691391236"><ele>317.0</ele><time>2026-03-28T09:46:11Z</time></trkpt><trkpt lat="47.27603778852591" lon="5.985744095338924"><ele>317.0</ele><time>2026-03-28T09:46:12Z</time></trkpt><trkpt lat="47.276030535279226" lon="5.985532647413377"><ele>317.0</ele><time>2026-03-28T09:46:13Z</time></trkpt><trkpt lat="47.2760251046903" lon="5.985327636916715"><ele>317.0</ele><time>2026-03-28T09:46:14Z</time></trkpt><trkpt lat="47.2760289634662" lon="5.9851268137068905"><ele>317.0</ele><time>2026-03-28T09:46:15Z</time></trkpt><trkpt lat="47.27605023399993" lon="5.984940658412693"><ele>317.0</ele><time>2026-03-28T09:46:16Z</time></trkpt><trkpt lat="47.2760897029979" lon="5.984765674948281"><ele>317.0</ele><time>2026-03-28T09:46:17Z</time></trkpt><trkpt lat="47.27614144704006" lon="5.984609970716527"><ele>317.2</ele><time>2026-03-28T09:46:18Z</time></trkpt><trkpt lat="47.27620491870325" lon="5.984474462314385"><ele>317.4</ele><time>2026-03-28T09:46:19Z</time></trkpt><trkpt lat="47.276280627326734" lon="5.9843467803718475"><ele>317.6</ele><time>2026-03-28T09:46:20Z</time></trkpt><trkpt lat="47.276358217476414" lon="5.984236625725634"><ele>317.8</ele><time>2026-03-28T09:46:21Z</time></trkpt><trkpt lat="47.276438621021384" lon="5.984141044657743"><ele>318.0</ele><time>2026-03-28T09:46:22Z</time></trkpt><trkpt lat="47.27652739661636" lon="5.984057733381772"><ele>318.4</ele><time>2026-03-28T09:46:23Z</time></trkpt><trkpt lat="47.27662393045309" lon="5.983989389163105"><ele>318.8</ele><time>2026-03-28T09:46:24Z</time></trkpt><trkpt lat="47.27672943485484" lon="5.983935579311761"><ele>319.2</ele><time>2026-03-28T09:46:25Z</time></trkpt><trkpt lat="47.2768408388341" lon="5.983895196724539"><ele>319.6</ele><time>2026-03-28T09:46:26Z</time></trkpt><trkpt lat="47.276953546526265" lon="5.983854391766053"><ele>320.0</ele><time>2026-03-28T09:46:27Z</time></trkpt><trkpt lat="47.27706590346473" lon="5.983814219073282"><ele>320.0</ele><time>2026-03-28T09:46:28Z</time></trkpt><trkpt lat="47.27718170420792" lon="5.98377360312421"><ele>320.0</ele><time>2026-03-28T09:46:29Z</time></trkpt><trkpt lat="47.277294860005576" lon="5.9837345496779974"><ele>320.0</ele><time>2026-03-28T09:46:30Z</time></trkpt><trkpt lat="47.27740270520825" lon="5.983699104724596"><ele>320.0</ele><time>2026-03-28T09:46:31Z</time></trkpt><trkpt lat="47.27751223253922" lon="5.9836621995492925"><ele>320.0</ele><time>2026-03-28T09:46:32Z</time></trkpt><trkpt lat="47.27761944510481" lon="5.9836225193533465"><ele>320.0</ele><time>2026-03-28T09:46:33Z</time></trkpt><trkpt lat="47.277723302370745" lon="5.983586747646012"><ele>320.0</ele><time>2026-03-28T09:46:34Z</time></trkpt><trkpt lat="47.277824492641344" lon="5.983552825347383"><ele>320.0</ele><time>2026-03-28T09:46:35Z</time></trkpt><trkpt lat="47.277926372349896" lon="5.983518247799067"><ele>320.0</ele><time>2026-03-28T09:46:36Z</time></trkpt><trkpt lat="47.278025476595886" lon="5.983487579281495"><ele>320.0</ele><time>2026-03-28T09:46:37Z</time></trkpt><trkpt lat="47.27812401803716" lon="5.983452642165244"><ele>320.0</ele><time>2026-03-28T09:46:38Z</time></trkpt><trkpt lat="47.27822498296974" lon="5.98341492362664"><ele>320.0</ele><time>2026-03-28T09:46:39Z</time></trkpt><trkpt lat="47.27832531700107" lon="5.983379401197281"><ele>320.0</ele><time>2026-03-28T09:46:40Z</time></trkpt><trkpt lat="47.278423960984334" lon="5.983346688978666"><ele>320.0</ele><time>2026-03-28T09:46:41Z</time></trkpt><trkpt lat="47.27852248179975" lon="5.9833155881971525"><ele>320.0</ele><time>2026-03-28T09:46:42Z</time></trkpt><trkpt lat="47.27861723745797" lon="5.983285415465719"><ele>320.0</ele><time>2026-03-28T09:46:43Z</time></trkpt><trkpt lat="47.27871145937502" lon="5.983256212134504"><ele>320.0</ele><time>2026-03-28T09:46:44Z</time></trkpt><trkpt lat="47.27880236629593" lon="5.983230498517036"><ele>320.0</ele><time>2026-03-28T09:46:45Z</time></trkpt><trkpt lat="47.278886613019594" lon="5.98320959025612"><ele>320.0</ele><time>2026-03-28T09:46:46Z</time></trkpt><trkpt lat="47.278970972576545" lon="5.983201525955436"><ele>320.1666666666667</ele><time>2026-03-28T09:46:47Z</time></trkpt><trkpt lat="47.27905092605626" lon="5.983205062503774"><ele>320.33333333333337</ele><time>2026-03-28T09:46:48Z</time></trkpt><trkpt lat="47.27912764571493" lon="5.9832207520190215"><ele>320.5</ele><time>2026-03-28T09:46:49Z</time></trkpt><trkpt lat="47.27920200060289" lon="5.983248468291198"><ele>320.6666666666667</ele><time>2026-03-28T09:46:50Z</time></trkpt><trkpt lat="47.2792719615573" lon="5.983293293959218"><ele>320.8333333333333</ele><time>2026-03-28T09:46:51Z</time></trkpt><trkpt lat="47.2793402612653" lon="5.9833553851577586"><ele>321.0</ele><time>2026-03-28T09:46:52Z</time></trkpt><trkpt lat="47.279401348183804" lon="5.983435434907652"><ele>321.6666666666667</ele><time>2026-03-28T09:46:53Z</time></trkpt><trkpt lat="47.27945618097916" lon="5.983528087174293"><ele>322.3333333333333</ele><time>2026-03-28T09:46:54Z</time></trkpt><trkpt lat="47.279503869154084" lon="5.98363679570657"><ele>323.0</ele><time>2026-03-28T09:46:55Z</time></trkpt><trkpt lat="47.27953799157376" lon="5.98375577389584"><ele>323.66666666666663</ele><time>2026-03-28T09:46:56Z</time></trkpt><trkpt lat="47.27955929759798" lon="5.9838772711395745"><ele>324.3333333333333</ele><time>2026-03-28T09:46:57Z</time></trkpt><trkpt lat="47.27957281430312" lon="5.984006560437477"><ele>325.0</ele><time>2026-03-28T09:46:58Z</time></trkpt><trkpt lat="47.279569076732116" lon="5.984138125866146"><ele>324.8333333333333</ele><time>2026-03-28T09:46:59Z</time></trkpt><trkpt lat="47.27955127762605" lon="5.984265476375071"><ele>324.66666666666663</ele><time>2026-03-28T09:47:00Z</time></trkpt><trkpt lat="47.27952346880411" lon="5.984388846716718"><ele>324.5</ele><time>2026-03-28T09:47:01Z</time></trkpt><trkpt lat="47.279479831605755" lon="5.984499090035005"><ele>324.3333333333333</ele><time>2026-03-28T09:47:02Z</time></trkpt><trkpt lat="47.27942698767677" lon="5.984602489476318"><ele>324.1666666666667</ele><time>2026-03-28T09:47:03Z</time></trkpt><trkpt lat="47.279364306817335" lon="5.984696370990751"><ele>324.0</ele><time>2026-03-28T09:47:04Z</time></trkpt><trkpt lat="47.27928963985617" lon="5.984774359561275"><ele>324.0</ele><time>2026-03-28T09:47:05Z</time></trkpt><trkpt lat="47.27920048064743" lon="5.984813905670281"><ele>324.0</ele><time>2026-03-28T09:47:06Z</time></trkpt><trkpt lat="47.27911762907007" lon="5.984874541821872"><ele>324.0</ele><time>2026-03-28T09:47:07Z</time></trkpt><trkpt lat="47.27902154124303" lon="5.984891785595946"><ele>324.0</ele><time>2026-03-28T09:47:08Z</time></trkpt><trkpt lat="47.278923640289285" lon="5.984854585267251"><ele>324.0</ele><time>2026-03-28T09:47:09Z</time></trkpt><trkpt lat="47.2788287600541" lon="5.984815036871112"><ele>322.8</ele><time>2026-03-28T09:47:10Z</time></trkpt><trkpt lat="47.27873726316298" lon="5.984753385836322"><ele>321.59999999999997</ele><time>2026-03-28T09:47:11Z</time></trkpt><trkpt lat="47.27865217462442" lon="5.984666991902818"><ele>320.4</ele><time>2026-03-28T09:47:12Z</time></trkpt><trkpt lat="47.2785625485204" lon="5.9845486880483945"><ele>319.2</ele><time>2026-03-28T09:47:13Z</time></trkpt><trkpt lat="47.2784998843898" lon="5.984404370189866"><ele>318.0</ele><time>2026-03-28T09:47:14Z</time></trkpt><trkpt lat="47.2784562741168" lon="5.984253679349252"><ele>318.25</ele><time>2026-03-28T09:47:15Z</time></trkpt><trkpt lat="47.278420313847015" lon="5.984086199852229"><ele>318.5</ele><time>2026-03-28T09:47:16Z</time></trkpt><trkpt lat="47.27838879923743" lon="5.983909736230982"><ele>318.75</ele><time>2026-03-28T09:47:17Z</time></trkpt><trkpt lat="47.27837259960328" lon="5.983714572016383"><ele>319.0</ele><time>2026-03-28T09:47:18Z</time></trkpt><trkpt lat="47.278337538985745" lon="5.9835092972731445"><ele>319.3333333333333</ele><time>2026-03-28T09:47:19Z</time></trkpt><trkpt lat="47.27828701487839" lon="5.98329220246584"><ele>319.6666666666667</ele><time>2026-03-28T09:47:20Z</time></trkpt><trkpt lat="47.27822837587061" lon="5.983058867552308"><ele>320.0</ele><time>2026-03-28T09:47:21Z</time></trkpt><trkpt lat="47.278169395978104" lon="5.98281652095186"><ele>320.0</ele><time>2026-03-28T09:47:22Z</time></trkpt><trkpt lat="47.278124515619226" lon="5.982570932455328"><ele>320.0</ele><time>2026-03-28T09:47:23Z</time></trkpt><trkpt lat="47.278078685091074" lon="5.9823143675268335"><ele>320.0</ele><time>2026-03-28T09:47:24Z</time></trkpt><trkpt lat="47.278032979377926" lon="5.982053277953383"><ele>319.33333333333337</ele><time>2026-03-28T09:47:25Z</time></trkpt><trkpt lat="47.27798637446896" lon="5.981785940945369"><ele>318.6666666666667</ele><time>2026-03-28T09:47:26Z</time></trkpt><trkpt lat="47.27793957983048" lon="5.981515100859488"><ele>318.0</ele><time>2026-03-28T09:47:27Z</time></trkpt><trkpt lat="47.2778889428584" lon="5.981242689315318"><ele>318.0</ele><time>2026-03-28T09:47:28Z</time></trkpt><trkpt lat="47.2778389014667" lon="5.980969430816065"><ele>318.0</ele><time>2026-03-28T09:47:29Z</time></trkpt><trkpt lat="47.27778250133722" lon="5.980688596350395"><ele>318.0</ele><time>2026-03-28T09:47:30Z</time></trkpt><trkpt lat="47.277719204343676" lon="5.980405144544905"><ele>315.0</ele><time>2026-03-28T09:47:31Z</time></trkpt><trkpt lat="47.27765115529114" lon="5.980116524447389"><ele>312.0</ele><time>2026-03-28T09:47:32Z</time></trkpt><trkpt lat="47.27757722064955" lon="5.979824802997104"><ele>309.0</ele><time>2026-03-28T09:47:33Z</time></trkpt><trkpt lat="47.27749296815942" lon="5.979534559658085"><ele>308.3333333333333</ele><time>2026-03-28T09:47:34Z</time></trkpt><trkpt lat="47.27740388882786" lon="5.979237993613474"><ele>307.66666666666663</ele><time>2026-03-28T09:47:35Z</time></trkpt><trkpt lat="47.27730295761319" lon="5.978934424847575"><ele>307.0</ele><time>2026-03-28T09:47:36Z</time></trkpt><trkpt lat="47.27719265265793" lon="5.978630447907702"><ele>309.5</ele><time>2026-03-28T09:47:37Z</time></trkpt><trkpt lat="47.27707019498403" lon="5.978325462545671"><ele>312.0</ele><time>2026-03-28T09:47:38Z</time></trkpt><trkpt lat="47.27694971172528" lon="5.9780125983254875"><ele>312.0</ele><time>2026-03-28T09:47:39Z</time></trkpt><trkpt lat="47.276820455737315" lon="5.977689904271693"><ele>312.0</ele><time>2026-03-28T09:47:40Z</time></trkpt><trkpt lat="47.276691765345404" lon="5.977363526199873"><ele>315.0</ele><time>2026-03-28T09:47:41Z</time></trkpt><trkpt lat="47.27655625544638" lon="5.977029461414416"><ele>318.0</ele><time>2026-03-28T09:47:42Z</time></trkpt><trkpt lat="47.27641883406164" lon="5.976688447779056"><ele>315.5</ele><time>2026-03-28T09:47:43Z</time></trkpt><trkpt lat="47.27628246962945" lon="5.976339552389991"><ele>313.0</ele><time>2026-03-28T09:47:44Z</time></trkpt><trkpt lat="47.27614703196702" lon="5.9759866164437145"><ele>309.0</ele><time>2026-03-28T09:47:45Z</time></trkpt><trkpt lat="47.27601682785556" lon="5.975626780131687"><ele>305.0</ele><time>2026-03-28T09:47:46Z</time></trkpt><trkpt lat="47.27588747134973" lon="5.9752637505309325"><ele>302.0</ele><time>2026-03-28T09:47:47Z</time></trkpt><trkpt lat="47.27577012617045" lon="5.974891774819439"><ele>299.0</ele><time>2026-03-28T09:47:48Z</time></trkpt><trkpt lat="47.27565924487436" lon="5.974520271344853"><ele>304.0</ele><time>2026-03-28T09:47:49Z</time></trkpt><trkpt lat="47.275554765946175" lon="5.974133461790962"><ele>309.0</ele><time>2026-03-28T09:47:50Z</time></trkpt><trkpt lat="47.275458820619136" lon="5.973741910449828"><ele>307.5</ele><time>2026-03-28T09:47:51Z</time></trkpt><trkpt lat="47.2753698462193" lon="5.973344095847434"><ele>306.0</ele><time>2026-03-28T09:47:52Z</time></trkpt><trkpt lat="47.27529130695314" lon="5.972942817628375"><ele>306.0</ele><time>2026-03-28T09:47:53Z</time></trkpt><trkpt lat="47.275220706139365" lon="5.972536078576757"><ele>306.0</ele><time>2026-03-28T09:47:54Z</time></trkpt><trkpt lat="47.27515799230288" lon="5.972125868574871"><ele>305.5</ele><time>2026-03-28T09:47:55Z</time></trkpt><trkpt lat="47.275106508836394" lon="5.9717075975658"><ele>305.0</ele><time>2026-03-28T09:47:56Z</time></trkpt><trkpt lat="47.27506440793813" lon="5.97129071019414"><ele>303.0</ele><time>2026-03-28T09:47:57Z</time></trkpt><trkpt lat="47.27502985552477" lon="5.970871966593179"><ele>301.0</ele><time>2026-03-28T09:47:58Z</time></trkpt><trkpt lat="47.275001597230776" lon="5.97045351254423"><ele>300.5</ele><time>2026-03-28T09:47:59Z</time></trkpt><trkpt lat="47.27498847934233" lon="5.970035274684626"><ele>300.0</ele><time>2026-03-28T09:48:00Z</time></trkpt><trkpt lat="47.274987710433614" lon="5.969619533078178"><ele>302.0</ele><time>2026-03-28T09:48:01Z</time></trkpt><trkpt lat="47.275000318869296" lon="5.96920457343122"><ele>304.0</ele><time>2026-03-28T09:48:02Z</time></trkpt><trkpt lat="47.27501779619345" lon="5.968791941823335"><ele>305.5</ele><time>2026-03-28T09:48:03Z</time></trkpt><trkpt lat="47.275040092381786" lon="5.968384170716093"><ele>307.0</ele><time>2026-03-28T09:48:04Z</time></trkpt><trkpt lat="47.27507109139578" lon="5.96798010751556"><ele>307.0</ele><time>2026-03-28T09:48:05Z</time></trkpt><trkpt lat="47.275107368488655" lon="5.9675788346470675"><ele>307.0</ele><time>2026-03-28T09:48:06Z</time></trkpt><trkpt lat="47.27515486927288" lon="5.967175939622156"><ele>308.5</ele><time>2026-03-28T09:48:07Z</time></trkpt><trkpt lat="47.275205928312126" lon="5.966770742311825"><ele>310.0</ele><time>2026-03-28T09:48:08Z</time></trkpt><trkpt lat="47.2752737587808" lon="5.966367519058207"><ele>312.5</ele><time>2026-03-28T09:48:09Z</time></trkpt><trkpt lat="47.27533940732542" lon="5.965967865804808"><ele>315.0</ele><time>2026-03-28T09:48:10Z</time></trkpt><trkpt lat="47.27540260001652" lon="5.965570942248396"><ele>316.0</ele><time>2026-03-28T09:48:11Z</time></trkpt><trkpt lat="47.27547679241885" lon="5.965175796144527"><ele>317.0</ele><time>2026-03-28T09:48:12Z</time></trkpt><trkpt lat="47.27555420404065" lon="5.9647793275938294"><ele>317.5</ele><time>2026-03-28T09:48:13Z</time></trkpt><trkpt lat="47.27563633724733" lon="5.964384476352269"><ele>318.0</ele><time>2026-03-28T09:48:14Z</time></trkpt><trkpt lat="47.275724030706336" lon="5.96399244737141"><ele>318.0</ele><time>2026-03-28T09:48:15Z</time></trkpt><trkpt lat="47.275815081010485" lon="5.963601321109196"><ele>318.0</ele><time>2026-03-28T09:48:16Z</time></trkpt><trkpt lat="47.275904619909014" lon="5.963212555797288"><ele>316.5</ele><time>2026-03-28T09:48:17Z</time></trkpt><trkpt lat="47.27599480834149" lon="5.962827312303626"><ele>315.0</ele><time>2026-03-28T09:48:18Z</time></trkpt><trkpt lat="47.27608679576333" lon="5.962439300577491"><ele>312.5</ele><time>2026-03-28T09:48:19Z</time></trkpt><trkpt lat="47.27617650609368" lon="5.962048443789328"><ele>310.0</ele><time>2026-03-28T09:48:20Z</time></trkpt><trkpt lat="47.276261311391224" lon="5.961655793822097"><ele>308.5</ele><time>2026-03-28T09:48:21Z</time></trkpt><trkpt lat="47.276347335601436" lon="5.961263527947707"><ele>307.0</ele><time>2026-03-28T09:48:22Z</time></trkpt><trkpt lat="47.276435071389066" lon="5.960873330710461"><ele>305.0</ele><time>2026-03-28T09:48:23Z</time></trkpt><trkpt lat="47.2765216697642" lon="5.96048357452676"><ele>303.0</ele><time>2026-03-28T09:48:24Z</time></trkpt><trkpt lat="47.2766120693887" lon="5.960094680635324"><ele>298.5</ele><time>2026-03-28T09:48:25Z</time></trkpt><trkpt lat="47.27670217097711" lon="5.959705476842223"><ele>294.0</ele><time>2026-03-28T09:48:26Z</time></trkpt><trkpt lat="47.27679289618215" lon="5.9593175206291455"><ele>292.5</ele><time>2026-03-28T09:48:27Z</time></trkpt><trkpt lat="47.276886074940705" lon="5.95892784643137"><ele>291.0</ele><time>2026-03-28T09:48:28Z</time></trkpt><trkpt lat="47.276978533824085" lon="5.9585390208852065"><ele>293.0</ele><time>2026-03-28T09:48:29Z</time></trkpt><trkpt lat="47.27706686980439" lon="5.9581484224923145"><ele>295.0</ele><time>2026-03-28T09:48:30Z</time></trkpt><trkpt lat="47.27715324663842" lon="5.957757902095138"><ele>293.5</ele><time>2026-03-28T09:48:31Z</time></trkpt><trkpt lat="47.27723610486863" lon="5.957365023115805"><ele>292.0</ele><time>2026-03-28T09:48:32Z</time></trkpt><trkpt lat="47.27731923201744" lon="5.956971619996107"><ele>289.5</ele><time>2026-03-28T09:48:33Z</time></trkpt><trkpt lat="47.27739630686866" lon="5.9565759382035885"><ele>287.0</ele><time>2026-03-28T09:48:34Z</time></trkpt><trkpt lat="47.27746895916912" lon="5.9561837382596545"><ele>287.0</ele><time>2026-03-28T09:48:35Z</time></trkpt><trkpt lat="47.27753431630327" lon="5.955799258991653"><ele>287.0</ele><time>2026-03-28T09:48:36Z</time></trkpt><trkpt lat="47.277591259894145" lon="5.955415238525497"><ele>287.0</ele><time>2026-03-28T09:48:37Z</time></trkpt><trkpt lat="47.27764303533502" lon="5.955038425370996"><ele>287.0</ele><time>2026-03-28T09:48:38Z</time></trkpt><trkpt lat="47.277687437547236" lon="5.954669252497581"><ele>284.5</ele><time>2026-03-28T09:48:39Z</time></trkpt><trkpt lat="47.27772479283808" lon="5.9542990270018015"><ele>282.0</ele><time>2026-03-28T09:48:40Z</time></trkpt><trkpt lat="47.27775538899454" lon="5.953921941058909"><ele>279.0</ele><time>2026-03-28T09:48:41Z</time></trkpt><trkpt lat="47.27777924597923" lon="5.953544789168604"><ele>276.0</ele><time>2026-03-28T09:48:42Z</time></trkpt><trkpt lat="47.27779544596462" lon="5.953160232589656"><ele>274.5</ele><time>2026-03-28T09:48:43Z</time></trkpt><trkpt lat="47.27780332361445" lon="5.9527737644322505"><ele>273.0</ele><time>2026-03-28T09:48:44Z</time></trkpt><trkpt lat="47.27780276871733" lon="5.952382817647616"><ele>271.5</ele><time>2026-03-28T09:48:45Z</time></trkpt><trkpt lat="47.27779395318796" lon="5.95198753532593"><ele>270.0</ele><time>2026-03-28T09:48:46Z</time></trkpt><trkpt lat="47.277778603202705" lon="5.951588864322572"><ele>269.5</ele><time>2026-03-28T09:48:47Z</time></trkpt><trkpt lat="47.277753714327226" lon="5.9511838045815075"><ele>269.0</ele><time>2026-03-28T09:48:48Z</time></trkpt><trkpt lat="47.27772383782343" lon="5.950780013079667"><ele>269.0</ele><time>2026-03-28T09:48:49Z</time></trkpt><trkpt lat="47.27768151978562" lon="5.950369105060842"><ele>269.0</ele><time>2026-03-28T09:48:50Z</time></trkpt><trkpt lat="47.27762844176486" lon="5.949956841358295"><ele>268.0</ele><time>2026-03-28T09:48:51Z</time></trkpt><trkpt lat="47.27756764876451" lon="5.949548208268188"><ele>267.0</ele><time>2026-03-28T09:48:52Z</time></trkpt><trkpt lat="47.2774962710998" lon="5.949142682481744"><ele>265.5</ele><time>2026-03-28T09:48:53Z</time></trkpt><trkpt lat="47.27741643818762" lon="5.948736055121259"><ele>264.0</ele><time>2026-03-28T09:48:54Z</time></trkpt><trkpt lat="47.27732852714263" lon="5.948337378791578"><ele>264.5</ele><time>2026-03-28T09:48:55Z</time></trkpt><trkpt lat="47.27722937714739" lon="5.9479359398284695"><ele>265.0</ele><time>2026-03-28T09:48:56Z</time></trkpt><trkpt lat="47.27712102210066" lon="5.947541106806321"><ele>265.0</ele><time>2026-03-28T09:48:57Z</time></trkpt><trkpt lat="47.277004098682944" lon="5.947149360494063"><ele>265.0</ele><time>2026-03-28T09:48:58Z</time></trkpt><trkpt lat="47.276878167931926" lon="5.94676120271782"><ele>262.0</ele><time>2026-03-28T09:48:59Z</time></trkpt><trkpt lat="47.27674243698264" lon="5.946378990586903"><ele>259.0</ele><time>2026-03-28T09:49:00Z</time></trkpt><trkpt lat="47.27659894821715" lon="5.946002090203118"><ele>260.0</ele><time>2026-03-28T09:49:01Z</time></trkpt><trkpt lat="47.276448804353315" lon="5.945626809289199"><ele>261.0</ele><time>2026-03-28T09:49:02Z</time></trkpt><trkpt lat="47.2762977500608" lon="5.94525264030267"><ele>258.0</ele><time>2026-03-28T09:49:03Z</time></trkpt><trkpt lat="47.27614247146596" lon="5.944884392802164"><ele>255.0</ele><time>2026-03-28T09:49:04Z</time></trkpt><trkpt lat="47.27598522263143" lon="5.944519281562836"><ele>253.5</ele><time>2026-03-28T09:49:05Z</time></trkpt><trkpt lat="47.27582759017468" lon="5.944156436081953"><ele>252.0</ele><time>2026-03-28T09:49:06Z</time></trkpt><trkpt lat="47.2756714081149" lon="5.943795950192563"><ele>250.5</ele><time>2026-03-28T09:49:07Z</time></trkpt><trkpt lat="47.27551761920139" lon="5.943429201731854"><ele>249.0</ele><time>2026-03-28T09:49:08Z</time></trkpt><trkpt lat="47.27536381027418" lon="5.943059340038002"><ele>249.0</ele><time>2026-03-28T09:49:09Z</time></trkpt><trkpt lat="47.27522106252297" lon="5.942687977386051"><ele>249.0</ele><time>2026-03-28T09:49:10Z</time></trkpt><trkpt lat="47.275080104461786" lon="5.942317841917898"><ele>247.5</ele><time>2026-03-28T09:49:11Z</time></trkpt><trkpt lat="47.274945190673684" lon="5.941945083125178"><ele>246.0</ele><time>2026-03-28T09:49:12Z</time></trkpt><trkpt lat="47.274815032036656" lon="5.94158352084373"><ele>245.5</ele><time>2026-03-28T09:49:13Z</time></trkpt><trkpt lat="47.27468724272132" lon="5.9412300350080525"><ele>245.0</ele><time>2026-03-28T09:49:14Z</time></trkpt><trkpt lat="47.27456494096672" lon="5.9408728744082655"><ele>245.0</ele><time>2026-03-28T09:49:15Z</time></trkpt><trkpt lat="47.274445210369024" lon="5.94051560541159"><ele>245.0</ele><time>2026-03-28T09:49:16Z</time></trkpt><trkpt lat="47.27433017790971" lon="5.940155120890565"><ele>243.5</ele><time>2026-03-28T09:49:17Z</time></trkpt><trkpt lat="47.274220319680495" lon="5.939793720522499"><ele>242.0</ele><time>2026-03-28T09:49:18Z</time></trkpt><trkpt lat="47.2741110189536" lon="5.939433062440842"><ele>242.5</ele><time>2026-03-28T09:49:19Z</time></trkpt><trkpt lat="47.27400599071252" lon="5.9390734655944915"><ele>243.0</ele><time>2026-03-28T09:49:20Z</time></trkpt><trkpt lat="47.27390202138153" lon="5.938714697460527"><ele>243.5</ele><time>2026-03-28T09:49:21Z</time></trkpt><trkpt lat="47.273806971333926" lon="5.938357719654898"><ele>244.0</ele><time>2026-03-28T09:49:22Z</time></trkpt><trkpt lat="47.27371728899473" lon="5.938003783196905"><ele>244.0</ele><time>2026-03-28T09:49:23Z</time></trkpt><trkpt lat="47.273633839347724" lon="5.937652463593453"><ele>244.0</ele><time>2026-03-28T09:49:24Z</time></trkpt><trkpt lat="47.273551507861114" lon="5.937303972992545"><ele>242.5</ele><time>2026-03-28T09:49:25Z</time></trkpt><trkpt lat="47.27346888117206" lon="5.936953151858569"><ele>241.0</ele><time>2026-03-28T09:49:26Z</time></trkpt><trkpt lat="47.27338682017656" lon="5.9366015661001335"><ele>240.5</ele><time>2026-03-28T09:49:27Z</time></trkpt><trkpt lat="47.27330419782391" lon="5.936246931921929"><ele>240.0</ele><time>2026-03-28T09:49:28Z</time></trkpt><trkpt lat="47.27322091298989" lon="5.935889013431027"><ele>239.5</ele><time>2026-03-28T09:49:29Z</time></trkpt><trkpt lat="47.273137568415684" lon="5.935526388628847"><ele>239.0</ele><time>2026-03-28T09:49:30Z</time></trkpt><trkpt lat="47.27305206971808" lon="5.935155759300048"><ele>239.5</ele><time>2026-03-28T09:49:31Z</time></trkpt><trkpt lat="47.272962832867165" lon="5.934782125367929"><ele>240.0</ele><time>2026-03-28T09:49:32Z</time></trkpt><trkpt lat="47.272870660939816" lon="5.934401434550058"><ele>239.5</ele><time>2026-03-28T09:49:33Z</time></trkpt><trkpt lat="47.27277299454309" lon="5.9340187281520755"><ele>239.0</ele><time>2026-03-28T09:49:34Z</time></trkpt><trkpt lat="47.27266980253573" lon="5.933636167252204"><ele>238.5</ele><time>2026-03-28T09:49:35Z</time></trkpt><trkpt lat="47.27256335456365" lon="5.933255345864718"><ele>238.0</ele><time>2026-03-28T09:49:36Z</time></trkpt><trkpt lat="47.27245052221917" lon="5.932875729396567"><ele>237.0</ele><time>2026-03-28T09:49:37Z</time></trkpt><trkpt lat="47.272330581097485" lon="5.932504761669341"><ele>236.0</ele><time>2026-03-28T09:49:38Z</time></trkpt><trkpt lat="47.27220211920071" lon="5.932139511668771"><ele>238.5</ele><time>2026-03-28T09:49:39Z</time></trkpt><trkpt lat="47.27206832384603" lon="5.931776090336859"><ele>241.0</ele><time>2026-03-28T09:49:40Z</time></trkpt><trkpt lat="47.27192778392377" lon="5.93141997313485"><ele>241.0</ele><time>2026-03-28T09:49:41Z</time></trkpt><trkpt lat="47.27178010803329" lon="5.931071042196782"><ele>241.0</ele><time>2026-03-28T09:49:42Z</time></trkpt><trkpt lat="47.27162543075779" lon="5.930732147813746"><ele>239.5</ele><time>2026-03-28T09:49:43Z</time></trkpt><trkpt lat="47.27146513287064" lon="5.930396515252018"><ele>238.0</ele><time>2026-03-28T09:49:44Z</time></trkpt><trkpt lat="47.27130246327948" lon="5.930067780631662"><ele>240.0</ele><time>2026-03-28T09:49:45Z</time></trkpt><trkpt lat="47.27113427640937" lon="5.929745120340825"><ele>242.0</ele><time>2026-03-28T09:49:46Z</time></trkpt><trkpt lat="47.2709604623281" lon="5.929429454097464"><ele>241.0</ele><time>2026-03-28T09:49:47Z</time></trkpt><trkpt lat="47.27077958231504" lon="5.929123722435849"><ele>240.0</ele><time>2026-03-28T09:49:48Z</time></trkpt><trkpt lat="47.270593725113656" lon="5.9288263687474"><ele>240.0</ele><time>2026-03-28T09:49:49Z</time></trkpt><trkpt lat="47.27040326707992" lon="5.928532555488966"><ele>240.0</ele><time>2026-03-28T09:49:50Z</time></trkpt><trkpt lat="47.27020777244027" lon="5.928248928685044"><ele>240.0</ele><time>2026-03-28T09:49:51Z</time></trkpt><trkpt lat="47.27000840553163" lon="5.927968666810406"><ele>240.0</ele><time>2026-03-28T09:49:52Z</time></trkpt><trkpt lat="47.26980516545738" lon="5.92769306910608"><ele>236.0</ele><time>2026-03-28T09:49:53Z</time></trkpt><trkpt lat="47.26960026267432" lon="5.9274196663964345"><ele>232.0</ele><time>2026-03-28T09:49:54Z</time></trkpt><trkpt lat="47.26939464095197" lon="5.927149982650961"><ele>232.0</ele><time>2026-03-28T09:49:55Z</time></trkpt><trkpt lat="47.26918636198754" lon="5.926891998975125"><ele>232.0</ele><time>2026-03-28T09:49:56Z</time></trkpt><trkpt lat="47.26897672387016" lon="5.926638098191177"><ele>230.5</ele><time>2026-03-28T09:49:57Z</time></trkpt><trkpt lat="47.268764902047515" lon="5.926389006404377"><ele>229.0</ele><time>2026-03-28T09:49:58Z</time></trkpt><trkpt lat="47.26854931688514" lon="5.926140355410572"><ele>229.0</ele><time>2026-03-28T09:49:59Z</time></trkpt><trkpt lat="47.2683319325126" lon="5.925897909588431"><ele>229.0</ele><time>2026-03-28T09:50:00Z</time></trkpt><trkpt lat="47.26811131995316" lon="5.925655664511016"><ele>228.5</ele><time>2026-03-28T09:50:01Z</time></trkpt><trkpt lat="47.26788856383665" lon="5.925421112265299"><ele>228.0</ele><time>2026-03-28T09:50:02Z</time></trkpt><trkpt lat="47.267662470351425" lon="5.925194463929164"><ele>227.5</ele><time>2026-03-28T09:50:03Z</time></trkpt><trkpt lat="47.26743546319093" lon="5.9249683370199495"><ele>227.0</ele><time>2026-03-28T09:50:04Z</time></trkpt><trkpt lat="47.26720541069065" lon="5.9247513900607185"><ele>227.0</ele><time>2026-03-28T09:50:05Z</time></trkpt><trkpt lat="47.266975416868696" lon="5.924541327416267"><ele>227.0</ele><time>2026-03-28T09:50:06Z</time></trkpt><trkpt lat="47.26673649387664" lon="5.924336281963209"><ele>226.5</ele><time>2026-03-28T09:50:07Z</time></trkpt><trkpt lat="47.26649990353888" lon="5.924138864510125"><ele>226.0</ele><time>2026-03-28T09:50:08Z</time></trkpt><trkpt lat="47.26626131033801" lon="5.9239451114022765"><ele>226.0</ele><time>2026-03-28T09:50:09Z</time></trkpt><trkpt lat="47.26602046214093" lon="5.923751065641121"><ele>226.0</ele><time>2026-03-28T09:50:10Z</time></trkpt><trkpt lat="47.26577775758184" lon="5.923567051381431"><ele>225.5</ele><time>2026-03-28T09:50:11Z</time></trkpt><trkpt lat="47.26553261150324" lon="5.923389593577982"><ele>225.0</ele><time>2026-03-28T09:50:12Z</time></trkpt><trkpt lat="47.2652864053361" lon="5.923211557696938"><ele>225.0</ele><time>2026-03-28T09:50:13Z</time></trkpt><trkpt lat="47.265042221502085" lon="5.923037418040858"><ele>225.0</ele><time>2026-03-28T09:50:14Z</time></trkpt><trkpt lat="47.26479631932684" lon="5.922864810333522"><ele>224.5</ele><time>2026-03-28T09:50:15Z</time></trkpt><trkpt lat="47.264551638153165" lon="5.9226959421987875"><ele>224.0</ele><time>2026-03-28T09:50:16Z</time></trkpt><trkpt lat="47.2643075763891" lon="5.9225328817885"><ele>224.0</ele><time>2026-03-28T09:50:17Z</time></trkpt><trkpt lat="47.26406034410546" lon="5.92236967424143"><ele>224.0</ele><time>2026-03-28T09:50:18Z</time></trkpt><trkpt lat="47.26381340220591" lon="5.922201901313821"><ele>224.0</ele><time>2026-03-28T09:50:19Z</time></trkpt><trkpt lat="47.26356516810015" lon="5.922036227444887"><ele>224.0</ele><time>2026-03-28T09:50:20Z</time></trkpt><trkpt lat="47.26331813455265" lon="5.921870098711531"><ele>224.0</ele><time>2026-03-28T09:50:21Z</time></trkpt><trkpt lat="47.26307073791192" lon="5.92170212677826"><ele>224.0</ele><time>2026-03-28T09:50:22Z</time></trkpt><trkpt lat="47.26282538319043" lon="5.921527146821328"><ele>224.0</ele><time>2026-03-28T09:50:23Z</time></trkpt><trkpt lat="47.26258376189946" lon="5.92134236330413"><ele>224.0</ele><time>2026-03-28T09:50:24Z</time></trkpt><trkpt lat="47.262343677885" lon="5.921148439410988"><ele>224.5</ele><time>2026-03-28T09:50:25Z</time></trkpt><trkpt lat="47.262107066271916" lon="5.920947584800728"><ele>225.0</ele><time>2026-03-28T09:50:26Z</time></trkpt><trkpt lat="47.26187434085202" lon="5.92073512406328"><ele>225.0</ele><time>2026-03-28T09:50:27Z</time></trkpt><trkpt lat="47.2616447622789" lon="5.920513959082659"><ele>225.0</ele><time>2026-03-28T09:50:28Z</time></trkpt><trkpt lat="47.261421162335544" lon="5.920282702063058"><ele>226.0</ele><time>2026-03-28T09:50:29Z</time></trkpt><trkpt lat="47.26121194340384" lon="5.920046498122066"><ele>227.0</ele><time>2026-03-28T09:50:30Z</time></trkpt><trkpt lat="47.26100171039725" lon="5.919808713479785"><ele>227.0</ele><time>2026-03-28T09:50:31Z</time></trkpt><trkpt lat="47.26079388880346" lon="5.9195579203700905"><ele>227.0</ele><time>2026-03-28T09:50:32Z</time></trkpt><trkpt lat="47.26058872525482" lon="5.919292174422943"><ele>229.5</ele><time>2026-03-28T09:50:33Z</time></trkpt><trkpt lat="47.26038869651029" lon="5.919024506617291"><ele>232.0</ele><time>2026-03-28T09:50:34Z</time></trkpt><trkpt lat="47.26019240239267" lon="5.918743319061415"><ele>232.0</ele><time>2026-03-28T09:50:35Z</time></trkpt><trkpt lat="47.260003793380925" lon="5.918450918491973"><ele>232.0</ele><time>2026-03-28T09:50:36Z</time></trkpt><trkpt lat="47.259824234065746" lon="5.918147743822368"><ele>232.0</ele><time>2026-03-28T09:50:37Z</time></trkpt><trkpt lat="47.259644515939534" lon="5.917845869597066"><ele>232.0</ele><time>2026-03-28T09:50:38Z</time></trkpt><trkpt lat="47.25947297913417" lon="5.917530190300622"><ele>232.0</ele><time>2026-03-28T09:50:39Z</time></trkpt><trkpt lat="47.25930063351162" lon="5.917220704056382"><ele>232.0</ele><time>2026-03-28T09:50:40Z</time></trkpt><trkpt lat="47.25913676265785" lon="5.916908434433113"><ele>232.0</ele><time>2026-03-28T09:50:41Z</time></trkpt><trkpt lat="47.258969227718914" lon="5.916600253394412"><ele>232.0</ele><time>2026-03-28T09:50:42Z</time></trkpt><trkpt lat="47.25880481634586" lon="5.9162888184973035"><ele>232.0</ele><time>2026-03-28T09:50:43Z</time></trkpt><trkpt lat="47.25864073295114" lon="5.915976276636005"><ele>232.0</ele><time>2026-03-28T09:50:44Z</time></trkpt><trkpt lat="47.25847289802107" lon="5.915668191396544"><ele>231.0</ele><time>2026-03-28T09:50:45Z</time></trkpt><trkpt lat="47.25831134198054" lon="5.915355122934578"><ele>230.0</ele><time>2026-03-28T09:50:46Z</time></trkpt><trkpt lat="47.25814461163318" lon="5.915040765140621"><ele>230.5</ele><time>2026-03-28T09:50:47Z</time></trkpt><trkpt lat="47.257981306648595" lon="5.91472998438715"><ele>231.0</ele><time>2026-03-28T09:50:48Z</time></trkpt><trkpt lat="47.257814377160855" lon="5.914419246671897"><ele>231.5</ele><time>2026-03-28T09:50:49Z</time></trkpt><trkpt lat="47.257648305868415" lon="5.914107358021358"><ele>232.0</ele><time>2026-03-28T09:50:50Z</time></trkpt><trkpt lat="47.25748180166624" lon="5.913796706674397"><ele>232.0</ele><time>2026-03-28T09:50:51Z</time></trkpt><trkpt lat="47.25731222943134" lon="5.913486241851188"><ele>232.0</ele><time>2026-03-28T09:50:52Z</time></trkpt><trkpt lat="47.257139311645005" lon="5.913176558600394"><ele>232.0</ele><time>2026-03-28T09:50:53Z</time></trkpt><trkpt lat="47.25696854531252" lon="5.912867542554418"><ele>232.0</ele><time>2026-03-28T09:50:54Z</time></trkpt><trkpt lat="47.25679422179773" lon="5.912563159675134"><ele>232.0</ele><time>2026-03-28T09:50:55Z</time></trkpt><trkpt lat="47.2566159658532" lon="5.9122619069674975"><ele>232.0</ele><time>2026-03-28T09:50:56Z</time></trkpt><trkpt lat="47.256435197685306" lon="5.9119693027614515"><ele>232.0</ele><time>2026-03-28T09:50:57Z</time></trkpt><trkpt lat="47.25625405770719" lon="5.911679411521376"><ele>232.0</ele><time>2026-03-28T09:50:58Z</time></trkpt><trkpt lat="47.25606831695266" lon="5.911393175897094"><ele>232.0</ele><time>2026-03-28T09:50:59Z</time></trkpt><trkpt lat="47.2558809774349" lon="5.911104356936928"><ele>232.0</ele><time>2026-03-28T09:51:00Z</time></trkpt><trkpt lat="47.25569159293918" lon="5.910821209894966"><ele>233.5</ele><time>2026-03-28T09:51:01Z</time></trkpt><trkpt lat="47.25550190469819" lon="5.910553067755566"><ele>235.0</ele><time>2026-03-28T09:51:02Z</time></trkpt><trkpt lat="47.25531023045757" lon="5.910299790715811"><ele>236.0</ele><time>2026-03-28T09:51:03Z</time></trkpt><trkpt lat="47.25511112692289" lon="5.91005166127045"><ele>237.0</ele><time>2026-03-28T09:51:04Z</time></trkpt><trkpt lat="47.25490849694594" lon="5.909815036690908"><ele>235.0</ele><time>2026-03-28T09:51:05Z</time></trkpt><trkpt lat="47.25470108647478" lon="5.909582198624972"><ele>233.0</ele><time>2026-03-28T09:51:06Z</time></trkpt><trkpt lat="47.25448845408317" lon="5.909357963960821"><ele>234.0</ele><time>2026-03-28T09:51:07Z</time></trkpt><trkpt lat="47.25427298984417" lon="5.909135823238759"><ele>235.0</ele><time>2026-03-28T09:51:08Z</time></trkpt><trkpt lat="47.25405350841909" lon="5.908915819116993"><ele>235.0</ele><time>2026-03-28T09:51:09Z</time></trkpt><trkpt lat="47.25382879486289" lon="5.908697509769744"><ele>235.0</ele><time>2026-03-28T09:51:10Z</time></trkpt><trkpt lat="47.253603118346064" lon="5.9084899700578655"><ele>236.0</ele><time>2026-03-28T09:51:11Z</time></trkpt><trkpt lat="47.25337509056269" lon="5.908284717682298"><ele>237.0</ele><time>2026-03-28T09:51:12Z</time></trkpt><trkpt lat="47.25314684618217" lon="5.908076265666939"><ele>237.0</ele><time>2026-03-28T09:51:13Z</time></trkpt><trkpt lat="47.25291429426165" lon="5.9078697460362575"><ele>237.0</ele><time>2026-03-28T09:51:14Z</time></trkpt><trkpt lat="47.25268271630028" lon="5.907666636726331"><ele>237.0</ele><time>2026-03-28T09:51:15Z</time></trkpt><trkpt lat="47.25245102495154" lon="5.907456342232095"><ele>237.0</ele><time>2026-03-28T09:51:16Z</time></trkpt><trkpt lat="47.25222007371166" lon="5.907247409844564"><ele>239.0</ele><time>2026-03-28T09:51:17Z</time></trkpt><trkpt lat="47.25198957590822" lon="5.907038973590259"><ele>241.0</ele><time>2026-03-28T09:51:18Z</time></trkpt><trkpt lat="47.25176227113616" lon="5.90682177302491"><ele>241.0</ele><time>2026-03-28T09:51:19Z</time></trkpt><trkpt lat="47.25153809033833" lon="5.906597540822768"><ele>241.0</ele><time>2026-03-28T09:51:20Z</time></trkpt><trkpt lat="47.25131794203555" lon="5.9063653767734845"><ele>242.0</ele><time>2026-03-28T09:51:21Z</time></trkpt><trkpt lat="47.25110255107451" lon="5.90612921477324"><ele>243.0</ele><time>2026-03-28T09:51:22Z</time></trkpt><trkpt lat="47.25089567378454" lon="5.905879764190473"><ele>243.5</ele><time>2026-03-28T09:51:23Z</time></trkpt><trkpt lat="47.25069305303446" lon="5.905618237997119"><ele>244.0</ele><time>2026-03-28T09:51:24Z</time></trkpt><trkpt lat="47.250493828322725" lon="5.905351866402209"><ele>244.0</ele><time>2026-03-28T09:51:25Z</time></trkpt><trkpt lat="47.25029961602245" lon="5.905082626144445"><ele>244.0</ele><time>2026-03-28T09:51:26Z</time></trkpt><trkpt lat="47.250110445167344" lon="5.904800764662602"><ele>245.5</ele><time>2026-03-28T09:51:27Z</time></trkpt><trkpt lat="47.24992834530389" lon="5.9045054723802775"><ele>247.0</ele><time>2026-03-28T09:51:28Z</time></trkpt><trkpt lat="47.2497514058312" lon="5.9042038924754285"><ele>249.0</ele><time>2026-03-28T09:51:29Z</time></trkpt><trkpt lat="47.249579778523" lon="5.9038979222155445"><ele>251.0</ele><time>2026-03-28T09:51:30Z</time></trkpt><trkpt lat="47.24941373117044" lon="5.903584497273194"><ele>254.5</ele><time>2026-03-28T09:51:31Z</time></trkpt><trkpt lat="47.24925567500554" lon="5.903258658057162"><ele>258.0</ele><time>2026-03-28T09:51:32Z</time></trkpt><trkpt lat="47.24910298657046" lon="5.902931085091032"><ele>259.0</ele><time>2026-03-28T09:51:33Z</time></trkpt><trkpt lat="47.24895471667811" lon="5.9025873449043695"><ele>260.0</ele><time>2026-03-28T09:51:34Z</time></trkpt><trkpt lat="47.24881264399783" lon="5.902251074159343"><ele>260.0</ele><time>2026-03-28T09:51:35Z</time></trkpt><trkpt lat="47.2486691838417" lon="5.901905339940303"><ele>260.0</ele><time>2026-03-28T09:51:36Z</time></trkpt><trkpt lat="47.24852453255368" lon="5.901561951527293"><ele>263.5</ele><time>2026-03-28T09:51:37Z</time></trkpt><trkpt lat="47.24838099245193" lon="5.901212329508426"><ele>267.0</ele><time>2026-03-28T09:51:38Z</time></trkpt><trkpt lat="47.248235126008645" lon="5.900864880434345"><ele>268.0</ele><time>2026-03-28T09:51:39Z</time></trkpt><trkpt lat="47.24808999797826" lon="5.900515072658517"><ele>269.0</ele><time>2026-03-28T09:51:40Z</time></trkpt><trkpt lat="47.24793876477918" lon="5.900173456191907"><ele>272.0</ele><time>2026-03-28T09:51:41Z</time></trkpt><trkpt lat="47.24778266551498" lon="5.899837259891066"><ele>275.0</ele><time>2026-03-28T09:51:42Z</time></trkpt><trkpt lat="47.24761716403842" lon="5.89950929258513"><ele>273.5</ele><time>2026-03-28T09:51:43Z</time></trkpt><trkpt lat="47.2474482315725" lon="5.899188220973998"><ele>272.0</ele><time>2026-03-28T09:51:44Z</time></trkpt><trkpt lat="47.24727130940198" lon="5.898874094384448"><ele>274.0</ele><time>2026-03-28T09:51:45Z</time></trkpt><trkpt lat="47.24708858512815" lon="5.898567530493196"><ele>276.0</ele><time>2026-03-28T09:51:46Z</time></trkpt><trkpt lat="47.24689975724905" lon="5.898271618887714"><ele>276.0</ele><time>2026-03-28T09:51:47Z</time></trkpt><trkpt lat="47.24670240781046" lon="5.8979796595612575"><ele>276.0</ele><time>2026-03-28T09:51:48Z</time></trkpt><trkpt lat="47.246500306924005" lon="5.897699406655086"><ele>277.0</ele><time>2026-03-28T09:51:49Z</time></trkpt><trkpt lat="47.24629085585363" lon="5.897428978799606"><ele>278.0</ele><time>2026-03-28T09:51:50Z</time></trkpt><trkpt lat="47.24607625129557" lon="5.897171177454784"><ele>278.0</ele><time>2026-03-28T09:51:51Z</time></trkpt><trkpt lat="47.245854143536555" lon="5.89692340552451"><ele>278.0</ele><time>2026-03-28T09:51:52Z</time></trkpt><trkpt lat="47.24562877053662" lon="5.896680711656345"><ele>278.0</ele><time>2026-03-28T09:51:53Z</time></trkpt><trkpt lat="47.245394895942525" lon="5.896452713400378"><ele>278.0</ele><time>2026-03-28T09:51:54Z</time></trkpt><trkpt lat="47.245165536779396" lon="5.896233245996109"><ele>278.0</ele><time>2026-03-28T09:51:55Z</time></trkpt><trkpt lat="47.24493154694763" lon="5.896031468882003"><ele>278.0</ele><time>2026-03-28T09:51:56Z</time></trkpt><trkpt lat="47.24469336498657" lon="5.895835947076419"><ele>277.5</ele><time>2026-03-28T09:51:57Z</time></trkpt><trkpt lat="47.24445764877036" lon="5.895658117807958"><ele>277.0</ele><time>2026-03-28T09:51:58Z</time></trkpt><trkpt lat="47.24421769110642" lon="5.895486881717176"><ele>277.0</ele><time>2026-03-28T09:51:59Z</time></trkpt><trkpt lat="47.24397594419802" lon="5.89532312232374"><ele>277.0</ele><time>2026-03-28T09:52:00Z</time></trkpt><trkpt lat="47.2437322844455" lon="5.895173161093188"><ele>277.0</ele><time>2026-03-28T09:52:01Z</time></trkpt><trkpt lat="47.243481574025296" lon="5.895034122566566"><ele>277.0</ele><time>2026-03-28T09:52:02Z</time></trkpt><trkpt lat="47.243229464410256" lon="5.894904525796271"><ele>276.0</ele><time>2026-03-28T09:52:03Z</time></trkpt><trkpt lat="47.242970603018556" lon="5.894784671120846"><ele>275.0</ele><time>2026-03-28T09:52:04Z</time></trkpt><trkpt lat="47.24271090541579" lon="5.894681965097514"><ele>275.0</ele><time>2026-03-28T09:52:05Z</time></trkpt><trkpt lat="47.24244890709101" lon="5.8945864605647085"><ele>275.0</ele><time>2026-03-28T09:52:06Z</time></trkpt><trkpt lat="47.24218513429748" lon="5.894504678968389"><ele>273.5</ele><time>2026-03-28T09:52:07Z</time></trkpt><trkpt lat="47.24191763446072" lon="5.894433151384728"><ele>272.0</ele><time>2026-03-28T09:52:08Z</time></trkpt><trkpt lat="47.24164928154572" lon="5.894375702085259"><ele>270.5</ele><time>2026-03-28T09:52:09Z</time></trkpt><trkpt lat="47.24137779190255" lon="5.894323887843979"><ele>269.0</ele><time>2026-03-28T09:52:10Z</time></trkpt><trkpt lat="47.24110266038896" lon="5.894283794748796"><ele>269.0</ele><time>2026-03-28T09:52:11Z</time></trkpt><trkpt lat="47.24083060555625" lon="5.894260761653756"><ele>269.0</ele><time>2026-03-28T09:52:12Z</time></trkpt><trkpt lat="47.24055746694428" lon="5.894252694372758"><ele>263.0</ele><time>2026-03-28T09:52:13Z</time></trkpt><trkpt lat="47.240281913321105" lon="5.894252868002036"><ele>257.0</ele><time>2026-03-28T09:52:14Z</time></trkpt><trkpt lat="47.240004809627294" lon="5.894259442301325"><ele>253.5</ele><time>2026-03-28T09:52:15Z</time></trkpt><trkpt lat="47.23972947716643" lon="5.894273822064817"><ele>250.0</ele><time>2026-03-28T09:52:16Z</time></trkpt><trkpt lat="47.23945227012892" lon="5.894299629494846"><ele>250.0</ele><time>2026-03-28T09:52:17Z</time></trkpt><trkpt lat="47.23917137691465" lon="5.894321369653265"><ele>250.0</ele><time>2026-03-28T09:52:18Z</time></trkpt><trkpt lat="47.23889259003546" lon="5.894346953485214"><ele>251.5</ele><time>2026-03-28T09:52:19Z</time></trkpt><trkpt lat="47.238614168264924" lon="5.894363290085219"><ele>253.0</ele><time>2026-03-28T09:52:20Z</time></trkpt><trkpt lat="47.238336728114824" lon="5.894377683809845"><ele>254.5</ele><time>2026-03-28T09:52:21Z</time></trkpt><trkpt lat="47.238058250718794" lon="5.89438736634483"><ele>256.0</ele><time>2026-03-28T09:52:22Z</time></trkpt><trkpt lat="47.237780593989974" lon="5.894386045003691"><ele>256.0</ele><time>2026-03-28T09:52:23Z</time></trkpt><trkpt lat="47.23750482052256" lon="5.894371726903273"><ele>256.0</ele><time>2026-03-28T09:52:24Z</time></trkpt><trkpt lat="47.23723250580416" lon="5.894346451068141"><ele>257.0</ele><time>2026-03-28T09:52:25Z</time></trkpt><trkpt lat="47.23696565263833" lon="5.89430935941076"><ele>258.0</ele><time>2026-03-28T09:52:26Z</time></trkpt><trkpt lat="47.23669788497915" lon="5.894263716817616"><ele>256.5</ele><time>2026-03-28T09:52:27Z</time></trkpt><trkpt lat="47.236429345823105" lon="5.894196712326929"><ele>255.0</ele><time>2026-03-28T09:52:28Z</time></trkpt><trkpt lat="47.236159450372625" lon="5.894122839596317"><ele>255.0</ele><time>2026-03-28T09:52:29Z</time></trkpt><trkpt lat="47.235893615052454" lon="5.894041001205302"><ele>255.0</ele><time>2026-03-28T09:52:30Z</time></trkpt><trkpt lat="47.23563059204326" lon="5.893945809920916"><ele>256.0</ele><time>2026-03-28T09:52:31Z</time></trkpt><trkpt lat="47.235366782384155" lon="5.893838656531924"><ele>257.0</ele><time>2026-03-28T09:52:32Z</time></trkpt><trkpt lat="47.235106930532744" lon="5.893716412997278"><ele>257.0</ele><time>2026-03-28T09:52:33Z</time></trkpt><trkpt lat="47.234848038650334" lon="5.8935834874331645"><ele>257.0</ele><time>2026-03-28T09:52:34Z</time></trkpt><trkpt lat="47.23459380700817" lon="5.893442928844953"><ele>256.5</ele><time>2026-03-28T09:52:35Z</time></trkpt><trkpt lat="47.234342810112096" lon="5.89328411701625"><ele>256.0</ele><time>2026-03-28T09:52:36Z</time></trkpt><trkpt lat="47.23409599439706" lon="5.893115654640746"><ele>256.0</ele><time>2026-03-28T09:52:37Z</time></trkpt><trkpt lat="47.233852496497605" lon="5.89293661592329"><ele>256.0</ele><time>2026-03-28T09:52:38Z</time></trkpt><trkpt lat="47.23361171901189" lon="5.892745307675298"><ele>258.5</ele><time>2026-03-28T09:52:39Z</time></trkpt><trkpt lat="47.23337702889202" lon="5.892547123033007"><ele>261.0</ele><time>2026-03-28T09:52:40Z</time></trkpt><trkpt lat="47.2331435388055" lon="5.892337006293598"><ele>260.0</ele><time>2026-03-28T09:52:41Z</time></trkpt><trkpt lat="47.23291586224788" lon="5.8921218750598765"><ele>259.0</ele><time>2026-03-28T09:52:42Z</time></trkpt><trkpt lat="47.232697028903324" lon="5.891899554488437"><ele>259.5</ele><time>2026-03-28T09:52:43Z</time></trkpt><trkpt lat="47.232487306636756" lon="5.891673178303485"><ele>260.0</ele><time>2026-03-28T09:52:44Z</time></trkpt><trkpt lat="47.23228273206587" lon="5.8914409805583485"><ele>260.0</ele><time>2026-03-28T09:52:45Z</time></trkpt><trkpt lat="47.23208855838886" lon="5.891205129278696"><ele>260.0</ele><time>2026-03-28T09:52:46Z</time></trkpt><trkpt lat="47.23189969450344" lon="5.890965316722745"><ele>261.0</ele><time>2026-03-28T09:52:47Z</time></trkpt><trkpt lat="47.231716643895794" lon="5.890714549051679"><ele>262.0</ele><time>2026-03-28T09:52:48Z</time></trkpt><trkpt lat="47.23153223177672" lon="5.890454622034402"><ele>262.5</ele><time>2026-03-28T09:52:49Z</time></trkpt><trkpt lat="47.231349384810144" lon="5.8901847088461246"><ele>263.0</ele><time>2026-03-28T09:52:50Z</time></trkpt><trkpt lat="47.23117255685287" lon="5.8899089177887225"><ele>263.0</ele><time>2026-03-28T09:52:51Z</time></trkpt><trkpt lat="47.23099336338036" lon="5.889621917441389"><ele>263.0</ele><time>2026-03-28T09:52:52Z</time></trkpt><trkpt lat="47.23081389629219" lon="5.889322148240507"><ele>264.0</ele><time>2026-03-28T09:52:53Z</time></trkpt><trkpt lat="47.23063981647622" lon="5.889013070443865"><ele>265.0</ele><time>2026-03-28T09:52:54Z</time></trkpt><trkpt lat="47.230472275854204" lon="5.888704601777981"><ele>267.0</ele><time>2026-03-28T09:52:55Z</time></trkpt><trkpt lat="47.230301509616496" lon="5.888393917675"><ele>269.0</ele><time>2026-03-28T09:52:56Z</time></trkpt><trkpt lat="47.23013094268442" lon="5.888083967382619"><ele>269.0</ele><time>2026-03-28T09:52:57Z</time></trkpt><trkpt lat="47.22995725876655" lon="5.887773321575276"><ele>269.0</ele><time>2026-03-28T09:52:58Z</time></trkpt><trkpt lat="47.22977873767908" lon="5.887471106127037"><ele>268.0</ele><time>2026-03-28T09:52:59Z</time></trkpt><trkpt lat="47.229597471607384" lon="5.88717308328255"><ele>267.0</ele><time>2026-03-28T09:53:00Z</time></trkpt><trkpt lat="47.22940957032187" lon="5.886878321347702"><ele>270.0</ele><time>2026-03-28T09:53:01Z</time></trkpt><trkpt lat="47.22921825348051" lon="5.886593355618457"><ele>273.0</ele><time>2026-03-28T09:53:02Z</time></trkpt><trkpt lat="47.2290204308106" lon="5.886313080675727"><ele>272.5</ele><time>2026-03-28T09:53:03Z</time></trkpt><trkpt lat="47.228814509453834" lon="5.886034523001905"><ele>272.0</ele><time>2026-03-28T09:53:04Z</time></trkpt><trkpt lat="47.22860599983811" lon="5.885775313658647"><ele>273.5</ele><time>2026-03-28T09:53:05Z</time></trkpt><trkpt lat="47.228391292032114" lon="5.88553117734933"><ele>275.0</ele><time>2026-03-28T09:53:06Z</time></trkpt><trkpt lat="47.22817108702743" lon="5.885291391482441"><ele>275.5</ele><time>2026-03-28T09:53:07Z</time></trkpt><trkpt lat="47.22794443006071" lon="5.885060428565215"><ele>276.0</ele><time>2026-03-28T09:53:08Z</time></trkpt><trkpt lat="47.22771610457352" lon="5.884845288411"><ele>276.0</ele><time>2026-03-28T09:53:09Z</time></trkpt><trkpt lat="47.22748117345785" lon="5.884634307773885"><ele>276.0</ele><time>2026-03-28T09:53:10Z</time></trkpt><trkpt lat="47.22724152712699" lon="5.884432537551772"><ele>273.5</ele><time>2026-03-28T09:53:11Z</time></trkpt><trkpt lat="47.22700117886872" lon="5.884241720477731"><ele>271.0</ele><time>2026-03-28T09:53:12Z</time></trkpt><trkpt lat="47.22676182521235" lon="5.884060100150195"><ele>271.0</ele><time>2026-03-28T09:53:13Z</time></trkpt><trkpt lat="47.22651771458693" lon="5.88387308405374"><ele>271.0</ele><time>2026-03-28T09:53:14Z</time></trkpt><trkpt lat="47.226274122003346" lon="5.883693006739721"><ele>268.5</ele><time>2026-03-28T09:53:15Z</time></trkpt><trkpt lat="47.226029332666634" lon="5.883503918288837"><ele>266.0</ele><time>2026-03-28T09:53:16Z</time></trkpt><trkpt lat="47.22578157049278" lon="5.883318297177649"><ele>263.5</ele><time>2026-03-28T09:53:17Z</time></trkpt><trkpt lat="47.22553622140603" lon="5.883127265462873"><ele>261.0</ele><time>2026-03-28T09:53:18Z</time></trkpt><trkpt lat="47.2252940849612" lon="5.882931496165305"><ele>261.0</ele><time>2026-03-28T09:53:19Z</time></trkpt><trkpt lat="47.22505404608752" lon="5.882726158074645"><ele>261.0</ele><time>2026-03-28T09:53:20Z</time></trkpt><trkpt lat="47.224814973566254" lon="5.882516577728029"><ele>260.0</ele><time>2026-03-28T09:53:21Z</time></trkpt><trkpt lat="47.224578491860306" lon="5.88229619745234"><ele>259.0</ele><time>2026-03-28T09:53:22Z</time></trkpt><trkpt lat="47.224344419478825" lon="5.882067810022128"><ele>259.0</ele><time>2026-03-28T09:53:23Z</time></trkpt><trkpt lat="47.224115480581304" lon="5.881824114909334"><ele>259.0</ele><time>2026-03-28T09:53:24Z</time></trkpt><trkpt lat="47.22389480547961" lon="5.881568022797864"><ele>256.5</ele><time>2026-03-28T09:53:25Z</time></trkpt><trkpt lat="47.223681550716215" lon="5.881306220741296"><ele>254.0</ele><time>2026-03-28T09:53:26Z</time></trkpt><trkpt lat="47.22347199898607" lon="5.8810352454726464"><ele>253.5</ele><time>2026-03-28T09:53:27Z</time></trkpt><trkpt lat="47.223269753262095" lon="5.8807564368452265"><ele>253.0</ele><time>2026-03-28T09:53:28Z</time></trkpt><trkpt lat="47.22307453637365" lon="5.880469101838298"><ele>253.0</ele><time>2026-03-28T09:53:29Z</time></trkpt><trkpt lat="47.222883450141154" lon="5.8801747427510165"><ele>253.0</ele><time>2026-03-28T09:53:30Z</time></trkpt><trkpt lat="47.22269916630207" lon="5.879867347953633"><ele>253.0</ele><time>2026-03-28T09:53:31Z</time></trkpt><trkpt lat="47.222520909887486" lon="5.879553923737848"><ele>253.0</ele><time>2026-03-28T09:53:32Z</time></trkpt><trkpt lat="47.222349828736434" lon="5.879237415369826"><ele>251.0</ele><time>2026-03-28T09:53:33Z</time></trkpt><trkpt lat="47.22218440176833" lon="5.878913857353024"><ele>249.0</ele><time>2026-03-28T09:53:34Z</time></trkpt><trkpt lat="47.22202642677319" lon="5.878584723122604"><ele>249.0</ele><time>2026-03-28T09:53:35Z</time></trkpt><trkpt lat="47.221874673519004" lon="5.87825142467074"><ele>249.0</ele><time>2026-03-28T09:53:36Z</time></trkpt><trkpt lat="47.22172996820427" lon="5.877912825813996"><ele>248.0</ele><time>2026-03-28T09:53:37Z</time></trkpt><trkpt lat="47.221589170709606" lon="5.877569182816624"><ele>247.0</ele><time>2026-03-28T09:53:38Z</time></trkpt><trkpt lat="47.22145510914068" lon="5.877221895149942"><ele>244.5</ele><time>2026-03-28T09:53:39Z</time></trkpt><trkpt lat="47.22132717532248" lon="5.876871603426196"><ele>242.0</ele><time>2026-03-28T09:53:40Z</time></trkpt><trkpt lat="47.22119979179369" lon="5.876513670348385"><ele>241.0</ele><time>2026-03-28T09:53:41Z</time></trkpt><trkpt lat="47.22108039943121" lon="5.87615691072367"><ele>240.0</ele><time>2026-03-28T09:53:42Z</time></trkpt><trkpt lat="47.22095799761442" lon="5.875801112520942"><ele>239.5</ele><time>2026-03-28T09:53:43Z</time></trkpt><trkpt lat="47.22084261880057" lon="5.875439583952764"><ele>239.0</ele><time>2026-03-28T09:53:44Z</time></trkpt><trkpt lat="47.220735174569015" lon="5.875074157210482"><ele>238.0</ele><time>2026-03-28T09:53:45Z</time></trkpt><trkpt lat="47.220629280958455" lon="5.874703717785888"><ele>237.0</ele><time>2026-03-28T09:53:46Z</time></trkpt><trkpt lat="47.220533518113" lon="5.874330300426929"><ele>237.0</ele><time>2026-03-28T09:53:47Z</time></trkpt><trkpt lat="47.22043837308299" lon="5.873951709611131"><ele>237.0</ele><time>2026-03-28T09:53:48Z</time></trkpt><trkpt lat="47.22034774131049" lon="5.873576841717931"><ele>237.5</ele><time>2026-03-28T09:53:49Z</time></trkpt><trkpt lat="47.22025790146611" lon="5.8731964378239985"><ele>238.0</ele><time>2026-03-28T09:53:50Z</time></trkpt><trkpt lat="47.22016919254956" lon="5.872814503384663"><ele>238.5</ele><time>2026-03-28T09:53:51Z</time></trkpt><trkpt lat="47.22008568935478" lon="5.872430773854271"><ele>239.0</ele><time>2026-03-28T09:53:52Z</time></trkpt><trkpt lat="47.220004734408306" lon="5.872049103392927"><ele>240.0</ele><time>2026-03-28T09:53:53Z</time></trkpt><trkpt lat="47.21992757978118" lon="5.871664847596686"><ele>241.0</ele><time>2026-03-28T09:53:54Z</time></trkpt><trkpt lat="47.21985039248963" lon="5.871282787301382"><ele>249.0</ele><time>2026-03-28T09:53:55Z</time></trkpt><trkpt lat="47.2197767702427" lon="5.8709010121673675"><ele>257.0</ele><time>2026-03-28T09:53:56Z</time></trkpt><trkpt lat="47.21970757443118" lon="5.8705174354007035"><ele>257.0</ele><time>2026-03-28T09:53:57Z</time></trkpt><trkpt lat="47.21963866304823" lon="5.8701334378469205"><ele>257.0</ele><time>2026-03-28T09:53:58Z</time></trkpt><trkpt lat="47.21957406519651" lon="5.869751123975716"><ele>259.0</ele><time>2026-03-28T09:53:59Z</time></trkpt><trkpt lat="47.21951149886822" lon="5.869371886619361"><ele>261.0</ele><time>2026-03-28T09:54:00Z</time></trkpt><trkpt lat="47.21945059366003" lon="5.868985199847192"><ele>261.0</ele><time>2026-03-28T09:54:01Z</time></trkpt><trkpt lat="47.21938726876101" lon="5.868599547678232"><ele>261.0</ele><time>2026-03-28T09:54:02Z</time></trkpt><trkpt lat="47.21932639226501" lon="5.868215406698215"><ele>257.5</ele><time>2026-03-28T09:54:03Z</time></trkpt><trkpt lat="47.219264827273065" lon="5.8678300846957665"><ele>254.0</ele><time>2026-03-28T09:54:04Z</time></trkpt><trkpt lat="47.21920265400244" lon="5.867442933329623"><ele>253.0</ele><time>2026-03-28T09:54:05Z</time></trkpt><trkpt lat="47.21913560089419" lon="5.86706020865951"><ele>252.0</ele><time>2026-03-28T09:54:06Z</time></trkpt><trkpt lat="47.21906366860358" lon="5.86667557606444"><ele>252.0</ele><time>2026-03-28T09:54:07Z</time></trkpt><trkpt lat="47.21898903727758" lon="5.866294548377195"><ele>252.0</ele><time>2026-03-28T09:54:08Z</time></trkpt><trkpt lat="47.218906463981014" lon="5.865912143381347"><ele>256.0</ele><time>2026-03-28T09:54:09Z</time></trkpt><trkpt lat="47.21882059789064" lon="5.865536245721947"><ele>260.0</ele><time>2026-03-28T09:54:10Z</time></trkpt><trkpt lat="47.21872454150828" lon="5.865162868125301"><ele>263.0</ele><time>2026-03-28T09:54:11Z</time></trkpt><trkpt lat="47.21862418861911" lon="5.864790748289735"><ele>266.0</ele><time>2026-03-28T09:54:12Z</time></trkpt><trkpt lat="47.218517716299324" lon="5.864420242375698"><ele>267.0</ele><time>2026-03-28T09:54:13Z</time></trkpt><trkpt lat="47.218400652524004" lon="5.864057467799525"><ele>268.0</ele><time>2026-03-28T09:54:14Z</time></trkpt><trkpt lat="47.21827615278736" lon="5.86369405323378"><ele>268.0</ele><time>2026-03-28T09:54:15Z</time></trkpt><trkpt lat="47.21814552494723" lon="5.863341094459422"><ele>268.0</ele><time>2026-03-28T09:54:16Z</time></trkpt><trkpt lat="47.21801151832815" lon="5.862986610235867"><ele>268.0</ele><time>2026-03-28T09:54:17Z</time></trkpt><trkpt lat="47.21787004903977" lon="5.862638869218511"><ele>268.0</ele><time>2026-03-28T09:54:18Z</time></trkpt><trkpt lat="47.21771967537575" lon="5.862299852887848"><ele>267.5</ele><time>2026-03-28T09:54:19Z</time></trkpt><trkpt lat="47.217565192716556" lon="5.861964250945831"><ele>267.0</ele><time>2026-03-28T09:54:20Z</time></trkpt><trkpt lat="47.21741034706754" lon="5.861629742165108"><ele>265.5</ele><time>2026-03-28T09:54:21Z</time></trkpt><trkpt lat="47.217252868133805" lon="5.861295984766174"><ele>264.0</ele><time>2026-03-28T09:54:22Z</time></trkpt><trkpt lat="47.21709405796505" lon="5.860960776276661"><ele>266.5</ele><time>2026-03-28T09:54:23Z</time></trkpt><trkpt lat="47.216937209135374" lon="5.8606278508765195"><ele>269.0</ele><time>2026-03-28T09:54:24Z</time></trkpt><trkpt lat="47.216774855817235" lon="5.860298171850437"><ele>270.0</ele><time>2026-03-28T09:54:25Z</time></trkpt><trkpt lat="47.21661637872565" lon="5.8599749495606375"><ele>271.0</ele><time>2026-03-28T09:54:26Z</time></trkpt><trkpt lat="47.216462093786454" lon="5.859651520784708"><ele>271.0</ele><time>2026-03-28T09:54:27Z</time></trkpt><trkpt lat="47.2163088702725" lon="5.859330557748951"><ele>271.0</ele><time>2026-03-28T09:54:28Z</time></trkpt><trkpt lat="47.216158676247865" lon="5.859014598487985"><ele>271.5</ele><time>2026-03-28T09:54:29Z</time></trkpt><trkpt lat="47.216013312315354" lon="5.858698880582903"><ele>272.0</ele><time>2026-03-28T09:54:30Z</time></trkpt><trkpt lat="47.21587183054171" lon="5.858386020092035"><ele>270.5</ele><time>2026-03-28T09:54:31Z</time></trkpt><trkpt lat="47.215734019699205" lon="5.858075781062486"><ele>269.0</ele><time>2026-03-28T09:54:32Z</time></trkpt><trkpt lat="47.21559574608116" lon="5.85775638374954"><ele>270.0</ele><time>2026-03-28T09:54:33Z</time></trkpt><trkpt lat="47.215458183604426" lon="5.857432576122926"><ele>271.0</ele><time>2026-03-28T09:54:34Z</time></trkpt><trkpt lat="47.215328174342154" lon="5.857098607511329"><ele>272.0</ele><time>2026-03-28T09:54:35Z</time></trkpt><trkpt lat="47.215202125719216" lon="5.85676175370966"><ele>273.0</ele><time>2026-03-28T09:54:36Z</time></trkpt><trkpt lat="47.21508121498771" lon="5.856426160908608"><ele>273.0</ele><time>2026-03-28T09:54:37Z</time></trkpt><trkpt lat="47.21496738456297" lon="5.856085059008832"><ele>273.0</ele><time>2026-03-28T09:54:38Z</time></trkpt><trkpt lat="47.21485974996731" lon="5.85574444127001"><ele>272.0</ele><time>2026-03-28T09:54:39Z</time></trkpt><trkpt lat="47.21476223127308" lon="5.855409498181891"><ele>271.0</ele><time>2026-03-28T09:54:40Z</time></trkpt><trkpt lat="47.214668585945894" lon="5.855071810215145"><ele>271.0</ele><time>2026-03-28T09:54:41Z</time></trkpt><trkpt lat="47.214580619309935" lon="5.854731334077161"><ele>271.0</ele><time>2026-03-28T09:54:42Z</time></trkpt><trkpt lat="47.21449703114255" lon="5.85438711735141"><ele>272.0</ele><time>2026-03-28T09:54:43Z</time></trkpt><trkpt lat="47.21442094303097" lon="5.8540493086306915"><ele>273.0</ele><time>2026-03-28T09:54:44Z</time></trkpt><trkpt lat="47.214350080270755" lon="5.853712401991323"><ele>273.5</ele><time>2026-03-28T09:54:45Z</time></trkpt><trkpt lat="47.21428946779449" lon="5.853379904063497"><ele>274.0</ele><time>2026-03-28T09:54:46Z</time></trkpt><trkpt lat="47.21423538280681" lon="5.853057514939261"><ele>274.0</ele><time>2026-03-28T09:54:47Z</time></trkpt><trkpt lat="47.21418731396608" lon="5.852734276163115"><ele>274.0</ele><time>2026-03-28T09:54:48Z</time></trkpt><trkpt lat="47.21414172974142" lon="5.852408679122763"><ele>274.0</ele><time>2026-03-28T09:54:49Z</time></trkpt><trkpt lat="47.2140974157015" lon="5.852085440509688"><ele>274.0</ele><time>2026-03-28T09:54:50Z</time></trkpt><trkpt lat="47.21405967985524" lon="5.851757784347789"><ele>274.66666666666663</ele><time>2026-03-28T09:54:51Z</time></trkpt><trkpt lat="47.21402486451102" lon="5.851431652962621"><ele>275.3333333333333</ele><time>2026-03-28T09:54:52Z</time></trkpt><trkpt lat="47.213993505211526" lon="5.851105278892048"><ele>276.0</ele><time>2026-03-28T09:54:53Z</time></trkpt><trkpt lat="47.213964516888886" lon="5.850777459585096"><ele>274.6666666666667</ele><time>2026-03-28T09:54:54Z</time></trkpt><trkpt lat="47.21393897160585" lon="5.850452535173837"><ele>273.33333333333337</ele><time>2026-03-28T09:54:55Z</time></trkpt><trkpt lat="47.213915700669446" lon="5.850125034467206"><ele>272.0</ele><time>2026-03-28T09:54:56Z</time></trkpt><trkpt lat="47.213894993801766" lon="5.849798264474991"><ele>272.0</ele><time>2026-03-28T09:54:57Z</time></trkpt><trkpt lat="47.213872598067326" lon="5.849470141894904"><ele>272.0</ele><time>2026-03-28T09:54:58Z</time></trkpt><trkpt lat="47.213852010452875" lon="5.849140899892837"><ele>272.0</ele><time>2026-03-28T09:54:59Z</time></trkpt><trkpt lat="47.213832128255376" lon="5.848814232320845"><ele>269.33333333333337</ele><time>2026-03-28T09:55:00Z</time></trkpt><trkpt lat="47.21381519613487" lon="5.848485256645097"><ele>266.6666666666667</ele><time>2026-03-28T09:55:01Z</time></trkpt><trkpt lat="47.21379991736769" lon="5.848154462880482"><ele>264.0</ele><time>2026-03-28T09:55:02Z</time></trkpt><trkpt lat="47.213780623662785" lon="5.847824815352659"><ele>264.0</ele><time>2026-03-28T09:55:03Z</time></trkpt><trkpt lat="47.21375852755144" lon="5.847503173936702"><ele>264.0</ele><time>2026-03-28T09:55:04Z</time></trkpt><trkpt lat="47.21373650682928" lon="5.847175515117406"><ele>264.0</ele><time>2026-03-28T09:55:05Z</time></trkpt><trkpt lat="47.21370970699591" lon="5.846851068978453"><ele>264.6666666666667</ele><time>2026-03-28T09:55:06Z</time></trkpt><trkpt lat="47.21368205538943" lon="5.846521933679644"><ele>265.33333333333337</ele><time>2026-03-28T09:55:07Z</time></trkpt><trkpt lat="47.21365111435007" lon="5.846196973873946"><ele>266.0</ele><time>2026-03-28T09:55:08Z</time></trkpt><trkpt lat="47.21361925985794" lon="5.845874514871703"><ele>267.0</ele><time>2026-03-28T09:55:09Z</time></trkpt><trkpt lat="47.21358061947027" lon="5.845551714999487"><ele>268.0</ele><time>2026-03-28T09:55:10Z</time></trkpt><trkpt lat="47.213537063094975" lon="5.845219577813276"><ele>266.5</ele><time>2026-03-28T09:55:11Z</time></trkpt><trkpt lat="47.213489973059524" lon="5.8448924305568895"><ele>265.0</ele><time>2026-03-28T09:55:12Z</time></trkpt><trkpt lat="47.21343861599015" lon="5.844568435686212"><ele>264.0</ele><time>2026-03-28T09:55:13Z</time></trkpt><trkpt lat="47.213382146396064" lon="5.844246518392558"><ele>263.0</ele><time>2026-03-28T09:55:14Z</time></trkpt><trkpt lat="47.213323861477726" lon="5.843931488160956"><ele>262.0</ele><time>2026-03-28T09:55:15Z</time></trkpt><trkpt lat="47.21326184600242" lon="5.843617142075387"><ele>261.66666666666663</ele><time>2026-03-28T09:55:16Z</time></trkpt><trkpt lat="47.21319496172081" lon="5.843306783878452"><ele>261.3333333333333</ele><time>2026-03-28T09:55:17Z</time></trkpt><trkpt lat="47.2131181180048" lon="5.8430024433043455"><ele>261.0</ele><time>2026-03-28T09:55:18Z</time></trkpt><trkpt lat="47.21304158702552" lon="5.842696390982059"><ele>261.0</ele><time>2026-03-28T09:55:19Z</time></trkpt><trkpt lat="47.212955482464096" lon="5.8423958236380455"><ele>261.0</ele><time>2026-03-28T09:55:20Z</time></trkpt><trkpt lat="47.21287032450826" lon="5.842096426044959"><ele>261.0</ele><time>2026-03-28T09:55:21Z</time></trkpt><trkpt lat="47.21277614042048" lon="5.841798117706241"><ele>261.3333333333333</ele><time>2026-03-28T09:55:22Z</time></trkpt><trkpt lat="47.21268643598479" lon="5.841496914936954"><ele>261.66666666666663</ele><time>2026-03-28T09:55:23Z</time></trkpt><trkpt lat="47.212587494301744" lon="5.841201340396769"><ele>262.0</ele><time>2026-03-28T09:55:24Z</time></trkpt><trkpt lat="47.21248659898185" lon="5.840904124366853"><ele>262.0</ele><time>2026-03-28T09:55:25Z</time></trkpt><trkpt lat="47.21237880637216" lon="5.840613453993953"><ele>262.0</ele><time>2026-03-28T09:55:26Z</time></trkpt><trkpt lat="47.21226702833858" lon="5.840332560930294"><ele>262.0</ele><time>2026-03-28T09:55:27Z</time></trkpt><trkpt lat="47.21215224080829" lon="5.840052604152358"><ele>262.3333333333333</ele><time>2026-03-28T09:55:28Z</time></trkpt><trkpt lat="47.212033835401506" lon="5.839774184659595"><ele>262.6666666666667</ele><time>2026-03-28T09:55:29Z</time></trkpt><trkpt lat="47.21191029509804" lon="5.839504283796696"><ele>263.0</ele><time>2026-03-28T09:55:30Z</time></trkpt><trkpt lat="47.211780742247996" lon="5.8392362314281785"><ele>263.0</ele><time>2026-03-28T09:55:31Z</time></trkpt><trkpt lat="47.21164825892289" lon="5.838971024836985"><ele>263.0</ele><time>2026-03-28T09:55:32Z</time></trkpt><trkpt lat="47.211515434145326" lon="5.838711731646404"><ele>263.0</ele><time>2026-03-28T09:55:33Z</time></trkpt><trkpt lat="47.21138012527219" lon="5.838451501680931"><ele>262.33333333333337</ele><time>2026-03-28T09:55:34Z</time></trkpt><trkpt lat="47.2112450699716" lon="5.8381938207897255"><ele>261.6666666666667</ele><time>2026-03-28T09:55:35Z</time></trkpt><trkpt lat="47.21110664899068" lon="5.837940654020777"><ele>261.0</ele><time>2026-03-28T09:55:36Z</time></trkpt><trkpt lat="47.2109651405036" lon="5.837693823217801"><ele>261.0</ele><time>2026-03-28T09:55:37Z</time></trkpt><trkpt lat="47.21082059788192" lon="5.837448442983117"><ele>261.0</ele><time>2026-03-28T09:55:38Z</time></trkpt><trkpt lat="47.21067508853458" lon="5.83720552001028"><ele>261.0</ele><time>2026-03-28T09:55:39Z</time></trkpt><trkpt lat="47.21052531727675" lon="5.836965301930785"><ele>261.6666666666667</ele><time>2026-03-28T09:55:40Z</time></trkpt><trkpt lat="47.21037208108357" lon="5.836725714018476"><ele>262.33333333333337</ele><time>2026-03-28T09:55:41Z</time></trkpt><trkpt lat="47.210215862787415" lon="5.836490011189954"><ele>263.0</ele><time>2026-03-28T09:55:42Z</time></trkpt><trkpt lat="47.21005731208595" lon="5.8362597559871245"><ele>263.0</ele><time>2026-03-28T09:55:43Z</time></trkpt><trkpt lat="47.20989632333167" lon="5.836028981276437"><ele>263.0</ele><time>2026-03-28T09:55:44Z</time></trkpt><trkpt lat="47.209735400477875" lon="5.835800559336627"><ele>263.0</ele><time>2026-03-28T09:55:45Z</time></trkpt><trkpt lat="47.209574139278004" lon="5.83558072243734"><ele>262.33333333333337</ele><time>2026-03-28T09:55:46Z</time></trkpt><trkpt lat="47.209410544563376" lon="5.8353650405059385"><ele>261.6666666666667</ele><time>2026-03-28T09:55:47Z</time></trkpt><trkpt lat="47.20924669563845" lon="5.835147679917627"><ele>261.0</ele><time>2026-03-28T09:55:48Z</time></trkpt><trkpt lat="47.209079268864805" lon="5.8349347269369245"><ele>260.3333333333333</ele><time>2026-03-28T09:55:49Z</time></trkpt><trkpt lat="47.20891098501334" lon="5.834724715016746"><ele>259.66666666666663</ele><time>2026-03-28T09:55:50Z</time></trkpt><trkpt lat="47.20874076957628" lon="5.834521826421402"><ele>259.0</ele><time>2026-03-28T09:55:51Z</time></trkpt><trkpt lat="47.20857056156762" lon="5.8343188940044675"><ele>258.3333333333333</ele><time>2026-03-28T09:55:52Z</time></trkpt><trkpt lat="47.2084001095605" lon="5.834114687828278"><ele>257.6666666666667</ele><time>2026-03-28T09:55:53Z</time></trkpt><trkpt lat="47.20822982331386" lon="5.833909319531132"><ele>257.0</ele><time>2026-03-28T09:55:54Z</time></trkpt><trkpt lat="47.208057213925294" lon="5.833705309947561"><ele>256.6666666666667</ele><time>2026-03-28T09:55:55Z</time></trkpt><trkpt lat="47.207880761085754" lon="5.833503738334818"><ele>256.3333333333333</ele><time>2026-03-28T09:55:56Z</time></trkpt><trkpt lat="47.20770267025295" lon="5.833302519590304"><ele>256.0</ele><time>2026-03-28T09:55:57Z</time></trkpt><trkpt lat="47.20752412292634" lon="5.8331005186934055"><ele>255.66666666666666</ele><time>2026-03-28T09:55:58Z</time></trkpt><trkpt lat="47.20734747159587" lon="5.832898973883407"><ele>255.33333333333331</ele><time>2026-03-28T09:55:59Z</time></trkpt><trkpt lat="47.20716818575864" lon="5.832704366655482"><ele>255.0</ele><time>2026-03-28T09:56:00Z</time></trkpt><trkpt lat="47.20698468074192" lon="5.832504164828583"><ele>254.0</ele><time>2026-03-28T09:56:01Z</time></trkpt><trkpt lat="47.20680358126487" lon="5.832305675808871"><ele>253.0</ele><time>2026-03-28T09:56:02Z</time></trkpt><trkpt lat="47.206620989905794" lon="5.83211030975691"><ele>252.66666666666666</ele><time>2026-03-28T09:56:03Z</time></trkpt><trkpt lat="47.20644015043378" lon="5.8319173956471"><ele>252.33333333333331</ele><time>2026-03-28T09:56:04Z</time></trkpt><trkpt lat="47.20625625527856" lon="5.831724531313873"><ele>252.0</ele><time>2026-03-28T09:56:05Z</time></trkpt><trkpt lat="47.206076476992195" lon="5.831535885792844"><ele>252.0</ele><time>2026-03-28T09:56:06Z</time></trkpt><trkpt lat="47.205898119882605" lon="5.831349579225484"><ele>252.0</ele><time>2026-03-28T09:56:07Z</time></trkpt><trkpt lat="47.205721477052414" lon="5.831166838374656"><ele>252.0</ele><time>2026-03-28T09:56:08Z</time></trkpt><trkpt lat="47.20554613410689" lon="5.830981301344316"><ele>251.33333333333331</ele><time>2026-03-28T09:56:09Z</time></trkpt><trkpt lat="47.20537035773931" lon="5.830793236266628"><ele>250.66666666666666</ele><time>2026-03-28T09:56:10Z</time></trkpt><trkpt lat="47.20519477765896" lon="5.830603886887498"><ele>250.0</ele><time>2026-03-28T09:56:11Z</time></trkpt><trkpt lat="47.20501659763739" lon="5.830408988689697"><ele>250.0</ele><time>2026-03-28T09:56:12Z</time></trkpt><trkpt lat="47.20483922509423" lon="5.8302233401356345"><ele>250.0</ele><time>2026-03-28T09:56:13Z</time></trkpt><trkpt lat="47.204660661765935" lon="5.830031891590432"><ele>250.0</ele><time>2026-03-28T09:56:14Z</time></trkpt><trkpt lat="47.204479715746714" lon="5.829832812451904"><ele>250.0</ele><time>2026-03-28T09:56:15Z</time></trkpt><trkpt lat="47.20430047210366" lon="5.8296389136104425"><ele>250.0</ele><time>2026-03-28T09:56:16Z</time></trkpt><trkpt lat="47.20411908685111" lon="5.829443532026875"><ele>250.0</ele><time>2026-03-28T09:56:17Z</time></trkpt><trkpt lat="47.20394011561573" lon="5.829245101462798"><ele>250.66666666666666</ele><time>2026-03-28T09:56:18Z</time></trkpt><trkpt lat="47.20376330070224" lon="5.829045817125627"><ele>251.33333333333331</ele><time>2026-03-28T09:56:19Z</time></trkpt><trkpt lat="47.20358499876631" lon="5.828839623279118"><ele>252.0</ele><time>2026-03-28T09:56:20Z</time></trkpt><trkpt lat="47.203407400364725" lon="5.828634707884915"><ele>253.0</ele><time>2026-03-28T09:56:21Z</time></trkpt><trkpt lat="47.20323356416662" lon="5.828427584314273"><ele>254.0</ele><time>2026-03-28T09:56:22Z</time></trkpt><trkpt lat="47.20305449114459" lon="5.8282139051590605"><ele>255.5</ele><time>2026-03-28T09:56:23Z</time></trkpt><trkpt lat="47.20287616974334" lon="5.827991743241957"><ele>257.0</ele><time>2026-03-28T09:56:24Z</time></trkpt><trkpt lat="47.20269446589864" lon="5.827759566513018"><ele>257.0</ele><time>2026-03-28T09:56:25Z</time></trkpt><trkpt lat="47.20251017752088" lon="5.827535092033002"><ele>257.0</ele><time>2026-03-28T09:56:26Z</time></trkpt><trkpt lat="47.202326710552434" lon="5.827292742249544"><ele>259.0</ele><time>2026-03-28T09:56:27Z</time></trkpt><trkpt lat="47.20214270161131" lon="5.827046251624266"><ele>261.0</ele><time>2026-03-28T09:56:28Z</time></trkpt><trkpt lat="47.20195837210398" lon="5.8267913509632665"><ele>261.0</ele><time>2026-03-28T09:56:29Z</time></trkpt><trkpt lat="47.201775310965175" lon="5.826531364237447"><ele>261.0</ele><time>2026-03-28T09:56:30Z</time></trkpt><trkpt lat="47.20159376380779" lon="5.82626066605252"><ele>262.5</ele><time>2026-03-28T09:56:31Z</time></trkpt><trkpt lat="47.2014124261854" lon="5.825979962619731"><ele>264.0</ele><time>2026-03-28T09:56:32Z</time></trkpt><trkpt lat="47.201236224074314" lon="5.825687888330772"><ele>264.0</ele><time>2026-03-28T09:56:33Z</time></trkpt><trkpt lat="47.201059743025574" lon="5.825387612301827"><ele>264.0</ele><time>2026-03-28T09:56:34Z</time></trkpt><trkpt lat="47.20088803850281" lon="5.8250809987715035"><ele>263.0</ele><time>2026-03-28T09:56:35Z</time></trkpt><trkpt lat="47.20072819199584" lon="5.824761361340022"><ele>262.0</ele><time>2026-03-28T09:56:36Z</time></trkpt><trkpt lat="47.20057162426697" lon="5.824435973591091"><ele>263.0</ele><time>2026-03-28T09:56:37Z</time></trkpt><trkpt lat="47.200412853469636" lon="5.824098682580657"><ele>264.0</ele><time>2026-03-28T09:56:38Z</time></trkpt><trkpt lat="47.200258560137485" lon="5.823753699012117"><ele>263.0</ele><time>2026-03-28T09:56:39Z</time></trkpt><trkpt lat="47.200110382395415" lon="5.823414916743061"><ele>262.0</ele><time>2026-03-28T09:56:40Z</time></trkpt><trkpt lat="47.19996790286954" lon="5.823067927374493"><ele>261.5</ele><time>2026-03-28T09:56:41Z</time></trkpt><trkpt lat="47.19983104472324" lon="5.82271689037317"><ele>261.0</ele><time>2026-03-28T09:56:42Z</time></trkpt><trkpt lat="47.199701220098135" lon="5.822361536651394"><ele>262.0</ele><time>2026-03-28T09:56:43Z</time></trkpt><trkpt lat="47.19958201901219" lon="5.821999347544525"><ele>263.0</ele><time>2026-03-28T09:56:44Z</time></trkpt><trkpt lat="47.19947008915035" lon="5.821634093841681"><ele>263.0</ele><time>2026-03-28T09:56:45Z</time></trkpt><trkpt lat="47.1993653837631" lon="5.821260471740155"><ele>263.0</ele><time>2026-03-28T09:56:46Z</time></trkpt><trkpt lat="47.1992707026338" lon="5.820882786916836"><ele>263.0</ele><time>2026-03-28T09:56:47Z</time></trkpt><trkpt lat="47.19918556500621" lon="5.820496668053881"><ele>263.0</ele><time>2026-03-28T09:56:48Z</time></trkpt><trkpt lat="47.19910558633" lon="5.820105764733924"><ele>265.0</ele><time>2026-03-28T09:56:49Z</time></trkpt><trkpt lat="47.19903337653387" lon="5.819710867728021"><ele>267.0</ele><time>2026-03-28T09:56:50Z</time></trkpt><trkpt lat="47.19897065526082" lon="5.819313253607465"><ele>269.0</ele><time>2026-03-28T09:56:51Z</time></trkpt><trkpt lat="47.198917033614464" lon="5.8189116348548175"><ele>271.0</ele><time>2026-03-28T09:56:52Z</time></trkpt><trkpt lat="47.19887003498413" lon="5.818508455026547"><ele>270.0</ele><time>2026-03-28T09:56:53Z</time></trkpt><trkpt lat="47.19883398084209" lon="5.818104914583347"><ele>269.0</ele><time>2026-03-28T09:56:54Z</time></trkpt><trkpt lat="47.198805143565465" lon="5.817699760613003"><ele>268.0</ele><time>2026-03-28T09:56:55Z</time></trkpt><trkpt lat="47.198783766776124" lon="5.817294179924252"><ele>267.0</ele><time>2026-03-28T09:56:56Z</time></trkpt><trkpt lat="47.198769828582634" lon="5.816886546007385"><ele>265.5</ele><time>2026-03-28T09:56:57Z</time></trkpt><trkpt lat="47.198762535039315" lon="5.816480031043002"><ele>264.0</ele><time>2026-03-28T09:56:58Z</time></trkpt><trkpt lat="47.19876446978629" lon="5.816072063809032"><ele>263.0</ele><time>2026-03-28T09:56:59Z</time></trkpt><trkpt lat="47.19876753977494" lon="5.815668335332056"><ele>262.0</ele><time>2026-03-28T09:57:00Z</time></trkpt><trkpt lat="47.198775295641575" lon="5.815263699602966"><ele>263.0</ele><time>2026-03-28T09:57:01Z</time></trkpt><trkpt lat="47.198780246274424" lon="5.814862961100843"><ele>264.0</ele><time>2026-03-28T09:57:02Z</time></trkpt><trkpt lat="47.198787556542904" lon="5.814460882587118"><ele>266.5</ele><time>2026-03-28T09:57:03Z</time></trkpt><trkpt lat="47.19879771011882" lon="5.814067175836476"><ele>269.0</ele><time>2026-03-28T09:57:04Z</time></trkpt><trkpt lat="47.19880886977158" lon="5.813671697760139"><ele>269.0</ele><time>2026-03-28T09:57:05Z</time></trkpt><trkpt lat="47.19881724163305" lon="5.813273533632119"><ele>269.0</ele><time>2026-03-28T09:57:06Z</time></trkpt><trkpt lat="47.19882489243447" lon="5.812878151754861"><ele>268.0</ele><time>2026-03-28T09:57:07Z</time></trkpt><trkpt lat="47.198826295642576" lon="5.812480443537707"><ele>267.0</ele><time>2026-03-28T09:57:08Z</time></trkpt><trkpt lat="47.198823759936126" lon="5.812086999169465"><ele>267.5</ele><time>2026-03-28T09:57:09Z</time></trkpt><trkpt lat="47.198820474587386" lon="5.81169430633541"><ele>268.0</ele><time>2026-03-28T09:57:10Z</time></trkpt><trkpt lat="47.198811562408146" lon="5.811295885092169"><ele>268.0</ele><time>2026-03-28T09:57:11Z</time></trkpt><trkpt lat="47.198796190536264" lon="5.810897582133941"><ele>268.0</ele><time>2026-03-28T09:57:12Z</time></trkpt><trkpt lat="47.198773909537465" lon="5.810502305591689"><ele>269.0</ele><time>2026-03-28T09:57:13Z</time></trkpt><trkpt lat="47.198746756142896" lon="5.81010817486972"><ele>270.0</ele><time>2026-03-28T09:57:14Z</time></trkpt><trkpt lat="47.198711988216665" lon="5.809718266808961"><ele>270.0</ele><time>2026-03-28T09:57:15Z</time></trkpt><trkpt lat="47.19866352891766" lon="5.809326304723597"><ele>270.0</ele><time>2026-03-28T09:57:16Z</time></trkpt><trkpt lat="47.198607826306045" lon="5.808943543958583"><ele>270.5</ele><time>2026-03-28T09:57:17Z</time></trkpt><trkpt lat="47.19855157408665" lon="5.808557328683841"><ele>271.0</ele><time>2026-03-28T09:57:18Z</time></trkpt><trkpt lat="47.19847927479702" lon="5.808178645286181"><ele>273.5</ele><time>2026-03-28T09:57:19Z</time></trkpt><trkpt lat="47.19839890916106" lon="5.807797341935406"><ele>276.0</ele><time>2026-03-28T09:57:20Z</time></trkpt><trkpt lat="47.19831249400101" lon="5.807418441557084"><ele>279.5</ele><time>2026-03-28T09:57:21Z</time></trkpt><trkpt lat="47.198216260763864" lon="5.8070436886919765"><ele>283.0</ele><time>2026-03-28T09:57:22Z</time></trkpt><trkpt lat="47.198112468953866" lon="5.806669535455634"><ele>285.0</ele><time>2026-03-28T09:57:23Z</time></trkpt><trkpt lat="47.198001661143266" lon="5.806303654332212"><ele>287.0</ele><time>2026-03-28T09:57:24Z</time></trkpt><trkpt lat="47.19788144386852" lon="5.80594307353051"><ele>287.5</ele><time>2026-03-28T09:57:25Z</time></trkpt><trkpt lat="47.19775320476745" lon="5.805587476219388"><ele>288.0</ele><time>2026-03-28T09:57:26Z</time></trkpt><trkpt lat="47.19761764183532" lon="5.805238422058697"><ele>287.5</ele><time>2026-03-28T09:57:27Z</time></trkpt><trkpt lat="47.197476704118294" lon="5.804887459582556"><ele>287.0</ele><time>2026-03-28T09:57:28Z</time></trkpt><trkpt lat="47.19732831215474" lon="5.804544557817779"><ele>287.0</ele><time>2026-03-28T09:57:29Z</time></trkpt><trkpt lat="47.19717648493607" lon="5.804209709149829"><ele>287.0</ele><time>2026-03-28T09:57:30Z</time></trkpt><trkpt lat="47.197015342947275" lon="5.8038805046615884"><ele>287.0</ele><time>2026-03-28T09:57:31Z</time></trkpt><trkpt lat="47.19685157726365" lon="5.8035582402276855"><ele>287.0</ele><time>2026-03-28T09:57:32Z</time></trkpt><trkpt lat="47.19668378155441" lon="5.8032369238214665"><ele>287.0</ele><time>2026-03-28T09:57:33Z</time></trkpt><trkpt lat="47.196511772160434" lon="5.80292263280535"><ele>287.0</ele><time>2026-03-28T09:57:34Z</time></trkpt><trkpt lat="47.196336284768314" lon="5.802612144124648"><ele>287.0</ele><time>2026-03-28T09:57:35Z</time></trkpt><trkpt lat="47.196163933563675" lon="5.8023049539105065"><ele>287.0</ele><time>2026-03-28T09:57:36Z</time></trkpt><trkpt lat="47.19599213068377" lon="5.801997675895307"><ele>285.5</ele><time>2026-03-28T09:57:37Z</time></trkpt><trkpt lat="47.1958187421719" lon="5.801686910850424"><ele>284.0</ele><time>2026-03-28T09:57:38Z</time></trkpt><trkpt lat="47.195644035681866" lon="5.80137649397716"><ele>284.5</ele><time>2026-03-28T09:57:39Z</time></trkpt><trkpt lat="47.19547081573278" lon="5.801067957358797"><ele>285.0</ele><time>2026-03-28T09:57:40Z</time></trkpt><trkpt lat="47.19529461622181" lon="5.800754081120801"><ele>285.0</ele><time>2026-03-28T09:57:41Z</time></trkpt><trkpt lat="47.19511856585819" lon="5.80044919380441"><ele>285.0</ele><time>2026-03-28T09:57:42Z</time></trkpt><trkpt lat="47.19494163640483" lon="5.800139134237973"><ele>284.0</ele><time>2026-03-28T09:57:43Z</time></trkpt><trkpt lat="47.194772079047766" lon="5.799821797056519"><ele>283.0</ele><time>2026-03-28T09:57:44Z</time></trkpt><trkpt lat="47.19460383731216" lon="5.799498788144545"><ele>280.0</ele><time>2026-03-28T09:57:45Z</time></trkpt><trkpt lat="47.19443872307294" lon="5.79916672143258"><ele>277.0</ele><time>2026-03-28T09:57:46Z</time></trkpt><trkpt lat="47.19427919101189" lon="5.798830566835851"><ele>276.5</ele><time>2026-03-28T09:57:47Z</time></trkpt><trkpt lat="47.194125656261264" lon="5.798476904330402"><ele>276.0</ele><time>2026-03-28T09:57:48Z</time></trkpt><trkpt lat="47.19397722851522" lon="5.798123537798892"><ele>277.5</ele><time>2026-03-28T09:57:49Z</time></trkpt><trkpt lat="47.193837971938365" lon="5.797760726061707"><ele>279.0</ele><time>2026-03-28T09:57:50Z</time></trkpt><trkpt lat="47.193710077239054" lon="5.797395875557481"><ele>279.0</ele><time>2026-03-28T09:57:51Z</time></trkpt><trkpt lat="47.19359305414016" lon="5.797022295058422"><ele>279.0</ele><time>2026-03-28T09:57:52Z</time></trkpt><trkpt lat="47.19347865494111" lon="5.796647888540038"><ele>279.5</ele><time>2026-03-28T09:57:53Z</time></trkpt><trkpt lat="47.193370879927414" lon="5.796274527131051"><ele>280.0</ele><time>2026-03-28T09:57:54Z</time></trkpt><trkpt lat="47.19326419222781" lon="5.795894240991038"><ele>280.0</ele><time>2026-03-28T09:57:55Z</time></trkpt><trkpt lat="47.1931657870627" lon="5.795515191090076"><ele>280.0</ele><time>2026-03-28T09:57:56Z</time></trkpt><trkpt lat="47.19307346861149" lon="5.79513586925067"><ele>280.0</ele><time>2026-03-28T09:57:57Z</time></trkpt><trkpt lat="47.19299058013531" lon="5.794748201790353"><ele>280.0</ele><time>2026-03-28T09:57:58Z</time></trkpt><trkpt lat="47.192913967626104" lon="5.79435935848807"><ele>280.5</ele><time>2026-03-28T09:57:59Z</time></trkpt><trkpt lat="47.19284491703266" lon="5.793968092788924"><ele>281.0</ele><time>2026-03-28T09:58:00Z</time></trkpt><trkpt lat="47.1927802295674" lon="5.793576408502702"><ele>279.0</ele><time>2026-03-28T09:58:01Z</time></trkpt><trkpt lat="47.19272262772594" lon="5.793185742790941"><ele>277.0</ele><time>2026-03-28T09:58:02Z</time></trkpt><trkpt lat="47.19266944404407" lon="5.792790320144638"><ele>275.5</ele><time>2026-03-28T09:58:03Z</time></trkpt><trkpt lat="47.19262400551439" lon="5.792390106861598"><ele>274.0</ele><time>2026-03-28T09:58:04Z</time></trkpt><trkpt lat="47.19258838370059" lon="5.791993672032248"><ele>273.5</ele><time>2026-03-28T09:58:05Z</time></trkpt><trkpt lat="47.192553627828175" lon="5.791595106253956"><ele>273.0</ele><time>2026-03-28T09:58:06Z</time></trkpt><trkpt lat="47.19252683679048" lon="5.791194045895673"><ele>272.5</ele><time>2026-03-28T09:58:07Z</time></trkpt><trkpt lat="47.19251209297457" lon="5.790793613545458"><ele>272.0</ele><time>2026-03-28T09:58:08Z</time></trkpt><trkpt lat="47.19249825796949" lon="5.790394648917264"><ele>273.0</ele><time>2026-03-28T09:58:09Z</time></trkpt><trkpt lat="47.19248807883478" lon="5.789990475937362"><ele>274.0</ele><time>2026-03-28T09:58:10Z</time></trkpt><trkpt lat="47.1924885023374" lon="5.789593758889786"><ele>275.0</ele><time>2026-03-28T09:58:11Z</time></trkpt><trkpt lat="47.19249295552023" lon="5.789195185897856"><ele>276.0</ele><time>2026-03-28T09:58:12Z</time></trkpt><trkpt lat="47.19249734178217" lon="5.788791970549644"><ele>276.5</ele><time>2026-03-28T09:58:13Z</time></trkpt><trkpt lat="47.19250556874842" lon="5.788387361868038"><ele>277.0</ele><time>2026-03-28T09:58:14Z</time></trkpt><trkpt lat="47.19252345967702" lon="5.787985537561224"><ele>274.5</ele><time>2026-03-28T09:58:15Z</time></trkpt><trkpt lat="47.19254221951182" lon="5.787586241847116"><ele>272.0</ele><time>2026-03-28T09:58:16Z</time></trkpt><trkpt lat="47.192566848150534" lon="5.787184964886155"><ele>269.5</ele><time>2026-03-28T09:58:17Z</time></trkpt><trkpt lat="47.19259525673825" lon="5.786786185577965"><ele>267.0</ele><time>2026-03-28T09:58:18Z</time></trkpt><trkpt lat="47.19262221031039" lon="5.786384484598478"><ele>266.0</ele><time>2026-03-28T09:58:19Z</time></trkpt><trkpt lat="47.192653072927" lon="5.785983807583804"><ele>265.0</ele><time>2026-03-28T09:58:20Z</time></trkpt><trkpt lat="47.192688396139616" lon="5.785581600200472"><ele>265.0</ele><time>2026-03-28T09:58:21Z</time></trkpt><trkpt lat="47.192721510888575" lon="5.785184297141967"><ele>265.0</ele><time>2026-03-28T09:58:22Z</time></trkpt><trkpt lat="47.19276099020174" lon="5.784784880940363"><ele>263.5</ele><time>2026-03-28T09:58:23Z</time></trkpt><trkpt lat="47.19279945183981" lon="5.7843837628390125"><ele>262.0</ele><time>2026-03-28T09:58:24Z</time></trkpt><trkpt lat="47.19283704021767" lon="5.783984198466349"><ele>260.5</ele><time>2026-03-28T09:58:25Z</time></trkpt><trkpt lat="47.19287428697313" lon="5.783584856803778"><ele>259.0</ele><time>2026-03-28T09:58:26Z</time></trkpt><trkpt lat="47.19291186884278" lon="5.783186660736886"><ele>258.0</ele><time>2026-03-28T09:58:27Z</time></trkpt><trkpt lat="47.19295200308728" lon="5.782788344380141"><ele>257.0</ele><time>2026-03-28T09:58:28Z</time></trkpt><trkpt lat="47.192988588618775" lon="5.782391283843949"><ele>256.5</ele><time>2026-03-28T09:58:29Z</time></trkpt><trkpt lat="47.19303165321797" lon="5.781995331434375"><ele>256.0</ele><time>2026-03-28T09:58:30Z</time></trkpt><trkpt lat="47.19306735053014" lon="5.781597727875336"><ele>256.0</ele><time>2026-03-28T09:58:31Z</time></trkpt><trkpt lat="47.193110141183176" lon="5.78120098489917"><ele>256.0</ele><time>2026-03-28T09:58:32Z</time></trkpt><trkpt lat="47.193145646250635" lon="5.780809158759736"><ele>256.0</ele><time>2026-03-28T09:58:33Z</time></trkpt><trkpt lat="47.19318498410336" lon="5.7804138895067245"><ele>256.0</ele><time>2026-03-28T09:58:34Z</time></trkpt><trkpt lat="47.19321917127819" lon="5.780021058875858"><ele>257.5</ele><time>2026-03-28T09:58:35Z</time></trkpt><trkpt lat="47.19325492151236" lon="5.779625173565726"><ele>259.0</ele><time>2026-03-28T09:58:36Z</time></trkpt><trkpt lat="47.193289256393655" lon="5.77923068288917"><ele>259.5</ele><time>2026-03-28T09:58:37Z</time></trkpt><trkpt lat="47.19332057089038" lon="5.7788335232716745"><ele>260.0</ele><time>2026-03-28T09:58:38Z</time></trkpt><trkpt lat="47.193357431855" lon="5.778438100791523"><ele>260.0</ele><time>2026-03-28T09:58:39Z</time></trkpt><trkpt lat="47.19339033963674" lon="5.7780420561296415"><ele>260.0</ele><time>2026-03-28T09:58:40Z</time></trkpt><trkpt lat="47.19342168942165" lon="5.777644636524086"><ele>259.5</ele><time>2026-03-28T09:58:41Z</time></trkpt><trkpt lat="47.193454916191094" lon="5.777246105580682"><ele>259.0</ele><time>2026-03-28T09:58:42Z</time></trkpt><trkpt lat="47.19348443556189" lon="5.776849343456756"><ele>259.0</ele><time>2026-03-28T09:58:43Z</time></trkpt><trkpt lat="47.193515200002935" lon="5.7764509928752865"><ele>259.0</ele><time>2026-03-28T09:58:44Z</time></trkpt><trkpt lat="47.19354372788169" lon="5.776053054420189"><ele>259.5</ele><time>2026-03-28T09:58:45Z</time></trkpt><trkpt lat="47.19357072222432" lon="5.775654392159604"><ele>260.0</ele><time>2026-03-28T09:58:46Z</time></trkpt><trkpt lat="47.19359471480594" lon="5.775257260096548"><ele>259.5</ele><time>2026-03-28T09:58:47Z</time></trkpt><trkpt lat="47.193617731950695" lon="5.774858727612437"><ele>259.0</ele><time>2026-03-28T09:58:48Z</time></trkpt><trkpt lat="47.19363578674505" lon="5.774461366137367"><ele>260.5</ele><time>2026-03-28T09:58:49Z</time></trkpt><trkpt lat="47.19365541510605" lon="5.77406644885225"><ele>262.0</ele><time>2026-03-28T09:58:50Z</time></trkpt><trkpt lat="47.19367500710467" lon="5.7736673668198675"><ele>262.5</ele><time>2026-03-28T09:58:51Z</time></trkpt><trkpt lat="47.19369345203445" lon="5.773269342141701"><ele>263.0</ele><time>2026-03-28T09:58:52Z</time></trkpt><trkpt lat="47.19371119066167" lon="5.772867455943526"><ele>262.0</ele><time>2026-03-28T09:58:53Z</time></trkpt><trkpt lat="47.193727553784186" lon="5.7724670850556965"><ele>261.0</ele><time>2026-03-28T09:58:54Z</time></trkpt><trkpt lat="47.1937400185054" lon="5.772064821022934"><ele>260.0</ele><time>2026-03-28T09:58:55Z</time></trkpt><trkpt lat="47.193751718845725" lon="5.771660965835517"><ele>259.0</ele><time>2026-03-28T09:58:56Z</time></trkpt><trkpt lat="47.193756876330845" lon="5.77125527831525"><ele>258.0</ele><time>2026-03-28T09:58:57Z</time></trkpt><trkpt lat="47.19375866408589" lon="5.770855165620812"><ele>257.0</ele><time>2026-03-28T09:58:58Z</time></trkpt><trkpt lat="47.19375642953209" lon="5.770449131229627"><ele>256.5</ele><time>2026-03-28T09:58:59Z</time></trkpt><trkpt lat="47.19375766768493" lon="5.770044636439091"><ele>256.0</ele><time>2026-03-28T09:59:00Z</time></trkpt><trkpt lat="47.19375287755917" lon="5.769632026574974"><ele>257.0</ele><time>2026-03-28T09:59:01Z</time></trkpt><trkpt lat="47.19374592426043" lon="5.769219729686884"><ele>258.0</ele><time>2026-03-28T09:59:02Z</time></trkpt><trkpt lat="47.193740572181795" lon="5.768812850286844"><ele>258.0</ele><time>2026-03-28T09:59:03Z</time></trkpt><trkpt lat="47.19373682910759" lon="5.768401923159611"><ele>258.0</ele><time>2026-03-28T09:59:04Z</time></trkpt><trkpt lat="47.193727589102664" lon="5.767999235391592"><ele>259.0</ele><time>2026-03-28T09:59:05Z</time></trkpt><trkpt lat="47.193712371147775" lon="5.767597201146194"><ele>260.0</ele><time>2026-03-28T09:59:06Z</time></trkpt><trkpt lat="47.19369530523493" lon="5.767194159832766"><ele>261.0</ele><time>2026-03-28T09:59:07Z</time></trkpt><trkpt lat="47.19367065974552" lon="5.766788692663383"><ele>262.0</ele><time>2026-03-28T09:59:08Z</time></trkpt><trkpt lat="47.19364444821964" lon="5.766383874469983"><ele>261.5</ele><time>2026-03-28T09:59:09Z</time></trkpt><trkpt lat="47.193611623695936" lon="5.765979820466143"><ele>261.0</ele><time>2026-03-28T09:59:10Z</time></trkpt><trkpt lat="47.19357503466717" lon="5.7655691131581825"><ele>259.0</ele><time>2026-03-28T09:59:11Z</time></trkpt><trkpt lat="47.19353788419227" lon="5.765159355007786"><ele>257.0</ele><time>2026-03-28T09:59:12Z</time></trkpt><trkpt lat="47.19349749338255" lon="5.764745677106352"><ele>255.0</ele><time>2026-03-28T09:59:13Z</time></trkpt><trkpt lat="47.19345907966783" lon="5.764340895354935"><ele>253.0</ele><time>2026-03-28T09:59:14Z</time></trkpt><trkpt lat="47.193417948381175" lon="5.76393297958776"><ele>253.0</ele><time>2026-03-28T09:59:15Z</time></trkpt><trkpt lat="47.19337347393324" lon="5.763530640873713"><ele>253.0</ele><time>2026-03-28T09:59:16Z</time></trkpt><trkpt lat="47.19332615390576" lon="5.763127609429423"><ele>251.0</ele><time>2026-03-28T09:59:17Z</time></trkpt><trkpt lat="47.19327063011764" lon="5.762728416159401"><ele>249.0</ele><time>2026-03-28T09:59:18Z</time></trkpt><trkpt lat="47.19321477815088" lon="5.762337119783247"><ele>248.5</ele><time>2026-03-28T09:59:19Z</time></trkpt><trkpt lat="47.19315305432419" lon="5.7619462832483"><ele>248.0</ele><time>2026-03-28T09:59:20Z</time></trkpt><trkpt lat="47.193092440877834" lon="5.761555921281043"><ele>249.0</ele><time>2026-03-28T09:59:21Z</time></trkpt><trkpt lat="47.19303019936918" lon="5.761167088900692"><ele>250.0</ele><time>2026-03-28T09:59:22Z</time></trkpt><trkpt lat="47.19296504204553" lon="5.760773719029782"><ele>251.5</ele><time>2026-03-28T09:59:23Z</time></trkpt><trkpt lat="47.192897610234304" lon="5.760386691534699"><ele>253.0</ele><time>2026-03-28T09:59:24Z</time></trkpt><trkpt lat="47.19282884293297" lon="5.759997190223313"><ele>254.0</ele><time>2026-03-28T09:59:25Z</time></trkpt><trkpt lat="47.19276650828638" lon="5.7596102427504725"><ele>255.0</ele><time>2026-03-28T09:59:26Z</time></trkpt><trkpt lat="47.19269048243349" lon="5.759226464489995"><ele>255.0</ele><time>2026-03-28T09:59:27Z</time></trkpt><trkpt lat="47.19261449674525" lon="5.7588424622747905"><ele>255.0</ele><time>2026-03-28T09:59:28Z</time></trkpt><trkpt lat="47.192532437289344" lon="5.758464525127502"><ele>255.5</ele><time>2026-03-28T09:59:29Z</time></trkpt><trkpt lat="47.19244068888592" lon="5.758086099056555"><ele>256.0</ele><time>2026-03-28T09:59:30Z</time></trkpt><trkpt lat="47.19234827005262" lon="5.7577103539182914"><ele>259.5</ele><time>2026-03-28T09:59:31Z</time></trkpt><trkpt lat="47.192254045795195" lon="5.757334377231697"><ele>263.0</ele><time>2026-03-28T09:59:32Z</time></trkpt><trkpt lat="47.19215483766742" lon="5.756963064214419"><ele>262.0</ele><time>2026-03-28T09:59:33Z</time></trkpt><trkpt lat="47.192057146020694" lon="5.756587969504602"><ele>261.0</ele><time>2026-03-28T09:59:34Z</time></trkpt><trkpt lat="47.19195016425723" lon="5.756215601823353"><ele>261.0</ele><time>2026-03-28T09:59:35Z</time></trkpt><trkpt lat="47.191840608866215" lon="5.755841452688666"><ele>261.0</ele><time>2026-03-28T09:59:36Z</time></trkpt><trkpt lat="47.1917308075945" lon="5.755473173171215"><ele>261.5</ele><time>2026-03-28T09:59:37Z</time></trkpt><trkpt lat="47.19161277701469" lon="5.755113141621765"><ele>262.0</ele><time>2026-03-28T09:59:38Z</time></trkpt><trkpt lat="47.19149419166539" lon="5.754749798185823"><ele>263.5</ele><time>2026-03-28T09:59:39Z</time></trkpt><trkpt lat="47.19137592068189" lon="5.7543880903640705"><ele>265.0</ele><time>2026-03-28T09:59:40Z</time></trkpt><trkpt lat="47.19125388597671" lon="5.754026724907559"><ele>265.0</ele><time>2026-03-28T09:59:41Z</time></trkpt><trkpt lat="47.19112729599723" lon="5.753670443001195"><ele>265.0</ele><time>2026-03-28T09:59:42Z</time></trkpt><trkpt lat="47.19099695141319" lon="5.753316450915968"><ele>265.0</ele><time>2026-03-28T09:59:43Z</time></trkpt><trkpt lat="47.19086121345807" lon="5.752968290116657"><ele>265.0</ele><time>2026-03-28T09:59:44Z</time></trkpt><trkpt lat="47.19072157506778" lon="5.752616864273806"><ele>267.0</ele><time>2026-03-28T09:59:45Z</time></trkpt><trkpt lat="47.19058405240299" lon="5.752258596600221"><ele>269.0</ele><time>2026-03-28T09:59:46Z</time></trkpt><trkpt lat="47.19044345777907" lon="5.751899472405139"><ele>266.5</ele><time>2026-03-28T09:59:47Z</time></trkpt><trkpt lat="47.19030382833107" lon="5.75154174995562"><ele>264.0</ele><time>2026-03-28T09:59:48Z</time></trkpt><trkpt lat="47.19016196069867" lon="5.75118488793923"><ele>261.0</ele><time>2026-03-28T09:59:49Z</time></trkpt><trkpt lat="47.19001336526628" lon="5.750831710666745"><ele>258.0</ele><time>2026-03-28T09:59:50Z</time></trkpt><trkpt lat="47.189867087995964" lon="5.750475754747549"><ele>261.0</ele><time>2026-03-28T09:59:51Z</time></trkpt><trkpt lat="47.189718640315085" lon="5.7501223119304825"><ele>264.0</ele><time>2026-03-28T09:59:52Z</time></trkpt><trkpt lat="47.18957187129783" lon="5.749770909337367"><ele>264.0</ele><time>2026-03-28T09:59:53Z</time></trkpt><trkpt lat="47.189421809443644" lon="5.749420012554162"><ele>264.0</ele><time>2026-03-28T09:59:54Z</time></trkpt><trkpt lat="47.18927359872566" lon="5.74907071461751"><ele>266.0</ele><time>2026-03-28T09:59:55Z</time></trkpt><trkpt lat="47.18912705435685" lon="5.748722876070173"><ele>268.0</ele><time>2026-03-28T09:59:56Z</time></trkpt><trkpt lat="47.18897856758801" lon="5.748377100703434"><ele>268.0</ele><time>2026-03-28T09:59:57Z</time></trkpt><trkpt lat="47.188831480175885" lon="5.7480326287880645"><ele>268.0</ele><time>2026-03-28T09:59:58Z</time></trkpt><trkpt lat="47.18868462635963" lon="5.747688076171511"><ele>263.5</ele><time>2026-03-28T09:59:59Z</time></trkpt><trkpt lat="47.18854022064913" lon="5.74734357436255"><ele>259.0</ele><time>2026-03-28T10:00:00Z</time></trkpt><trkpt lat="47.188396985147946" lon="5.746999946962371"><ele>258.5</ele><time>2026-03-28T10:00:01Z</time></trkpt><trkpt lat="47.18825630183106" lon="5.746655614611323"><ele>258.0</ele><time>2026-03-28T10:00:02Z</time></trkpt><trkpt lat="47.18811847123758" lon="5.746306617347811"><ele>259.5</ele><time>2026-03-28T10:00:03Z</time></trkpt><trkpt lat="47.187985782741706" lon="5.745950703231341"><ele>261.0</ele><time>2026-03-28T10:00:04Z</time></trkpt><trkpt lat="47.18785527619579" lon="5.745596143302819"><ele>261.0</ele><time>2026-03-28T10:00:05Z</time></trkpt><trkpt lat="47.18772681126143" lon="5.74524063427084"><ele>261.0</ele><time>2026-03-28T10:00:06Z</time></trkpt><trkpt lat="47.18759970598584" lon="5.744881946750062"><ele>255.5</ele><time>2026-03-28T10:00:07Z</time></trkpt><trkpt lat="47.187475764268775" lon="5.744520747340297"><ele>250.0</ele><time>2026-03-28T10:00:08Z</time></trkpt><trkpt lat="47.18735330128939" lon="5.7441557141890875"><ele>249.5</ele><time>2026-03-28T10:00:09Z</time></trkpt><trkpt lat="47.18723927644621" lon="5.743790631065719"><ele>249.0</ele><time>2026-03-28T10:00:10Z</time></trkpt><trkpt lat="47.18713311255339" lon="5.743421633450597"><ele>249.0</ele><time>2026-03-28T10:00:11Z</time></trkpt><trkpt lat="47.18703433560025" lon="5.743051606512579"><ele>249.0</ele><time>2026-03-28T10:00:12Z</time></trkpt><trkpt lat="47.18693801684985" lon="5.742678779257222"><ele>247.0</ele><time>2026-03-28T10:00:13Z</time></trkpt><trkpt lat="47.186849288295875" lon="5.742300406339765"><ele>245.0</ele><time>2026-03-28T10:00:14Z</time></trkpt><trkpt lat="47.1867685263003" lon="5.7419169794104326"><ele>245.0</ele><time>2026-03-28T10:00:15Z</time></trkpt><trkpt lat="47.18669510053747" lon="5.741533996750005"><ele>245.0</ele><time>2026-03-28T10:00:16Z</time></trkpt><trkpt lat="47.186632793405664" lon="5.741150346205031"><ele>245.0</ele><time>2026-03-28T10:00:17Z</time></trkpt><trkpt lat="47.186573309687496" lon="5.740765292128667"><ele>245.0</ele><time>2026-03-28T10:00:18Z</time></trkpt><trkpt lat="47.18652331251292" lon="5.740376010576396"><ele>245.5</ele><time>2026-03-28T10:00:19Z</time></trkpt><trkpt lat="47.18647797173184" lon="5.739986014009063"><ele>246.0</ele><time>2026-03-28T10:00:20Z</time></trkpt><trkpt lat="47.186442555873356" lon="5.739590779691406"><ele>249.5</ele><time>2026-03-28T10:00:21Z</time></trkpt><trkpt lat="47.18640942150211" lon="5.73919432045196"><ele>253.0</ele><time>2026-03-28T10:00:22Z</time></trkpt><trkpt lat="47.186381832956116" lon="5.738797452340966"><ele>256.0</ele><time>2026-03-28T10:00:23Z</time></trkpt><trkpt lat="47.18636026578636" lon="5.738399679901465"><ele>259.0</ele><time>2026-03-28T10:00:24Z</time></trkpt><trkpt lat="47.186346659508516" lon="5.738000893164836"><ele>260.0</ele><time>2026-03-28T10:00:25Z</time></trkpt><trkpt lat="47.18634125090128" lon="5.737599693513881"><ele>261.0</ele><time>2026-03-28T10:00:26Z</time></trkpt><trkpt lat="47.18634266172409" lon="5.737198146433643"><ele>261.5</ele><time>2026-03-28T10:00:27Z</time></trkpt><trkpt lat="47.18635211043393" lon="5.736799005621295"><ele>262.0</ele><time>2026-03-28T10:00:28Z</time></trkpt><trkpt lat="47.18636685780102" lon="5.736396330620855"><ele>264.5</ele><time>2026-03-28T10:00:29Z</time></trkpt><trkpt lat="47.18638852294474" lon="5.73599747630617"><ele>267.0</ele><time>2026-03-28T10:00:30Z</time></trkpt><trkpt lat="47.18641299866328" lon="5.735601200488394"><ele>267.5</ele><time>2026-03-28T10:00:31Z</time></trkpt><trkpt lat="47.18644400698799" lon="5.735199870732564"><ele>268.0</ele><time>2026-03-28T10:00:32Z</time></trkpt><trkpt lat="47.18648263427496" lon="5.734804136857167"><ele>265.5</ele><time>2026-03-28T10:00:33Z</time></trkpt><trkpt lat="47.18652887857777" lon="5.734408945805014"><ele>263.0</ele><time>2026-03-28T10:00:34Z</time></trkpt><trkpt lat="47.18657346837383" lon="5.7340133755945555"><ele>263.0</ele><time>2026-03-28T10:00:35Z</time></trkpt><trkpt lat="47.18662914835638" lon="5.733619912879265"><ele>263.0</ele><time>2026-03-28T10:00:36Z</time></trkpt><trkpt lat="47.18668489399222" lon="5.733220748539239"><ele>263.0</ele><time>2026-03-28T10:00:37Z</time></trkpt><trkpt lat="47.186731614097326" lon="5.732821706813433"><ele>263.0</ele><time>2026-03-28T10:00:38Z</time></trkpt><trkpt lat="47.18678440680846" lon="5.732417991665001"><ele>263.0</ele><time>2026-03-28T10:00:39Z</time></trkpt><trkpt lat="47.18684034767868" lon="5.732021111293373"><ele>263.0</ele><time>2026-03-28T10:00:40Z</time></trkpt><trkpt lat="47.186902013300084" lon="5.731621905186024"><ele>264.0</ele><time>2026-03-28T10:00:41Z</time></trkpt><trkpt lat="47.18696385238236" lon="5.731218258011524"><ele>265.0</ele><time>2026-03-28T10:00:42Z</time></trkpt><trkpt lat="47.187016384935085" lon="5.730818354098802"><ele>265.5</ele><time>2026-03-28T10:00:43Z</time></trkpt><trkpt lat="47.18707897791187" lon="5.730419729965396"><ele>266.0</ele><time>2026-03-28T10:00:44Z</time></trkpt><trkpt lat="47.18714446216601" lon="5.730020846153328"><ele>264.5</ele><time>2026-03-28T10:00:45Z</time></trkpt><trkpt lat="47.187202471051975" lon="5.729623729681473"><ele>263.0</ele><time>2026-03-28T10:00:46Z</time></trkpt><trkpt lat="47.187259612044215" lon="5.729223934992548"><ele>262.0</ele><time>2026-03-28T10:00:47Z</time></trkpt><trkpt lat="47.187306751234146" lon="5.728819932852878"><ele>261.0</ele><time>2026-03-28T10:00:48Z</time></trkpt><trkpt lat="47.18735059346062" lon="5.728417747819138"><ele>258.0</ele><time>2026-03-28T10:00:49Z</time></trkpt><trkpt lat="47.1873858192438" lon="5.72802030333086"><ele>255.0</ele><time>2026-03-28T10:00:50Z</time></trkpt><trkpt lat="47.187418078198675" lon="5.727621034540511"><ele>254.5</ele><time>2026-03-28T10:00:51Z</time></trkpt><trkpt lat="47.18744662492404" lon="5.727217163536374"><ele>254.0</ele><time>2026-03-28T10:00:52Z</time></trkpt><trkpt lat="47.187466691768314" lon="5.726814881907968"><ele>254.0</ele><time>2026-03-28T10:00:53Z</time></trkpt><trkpt lat="47.18747873616541" lon="5.726416396461108"><ele>254.0</ele><time>2026-03-28T10:00:54Z</time></trkpt><trkpt lat="47.18749187884923" lon="5.726021705970407"><ele>254.5</ele><time>2026-03-28T10:00:55Z</time></trkpt><trkpt lat="47.187499103896734" lon="5.725633812365977"><ele>255.0</ele><time>2026-03-28T10:00:56Z</time></trkpt><trkpt lat="47.187497310852955" lon="5.725249628195546"><ele>253.5</ele><time>2026-03-28T10:00:57Z</time></trkpt><trkpt lat="47.18749132593145" lon="5.724870955916074"><ele>252.0</ele><time>2026-03-28T10:00:58Z</time></trkpt><trkpt lat="47.187477823593746" lon="5.724497721786355"><ele>253.0</ele><time>2026-03-28T10:00:59Z</time></trkpt><trkpt lat="47.18746274822724" lon="5.724127689264326"><ele>254.0</ele><time>2026-03-28T10:01:00Z</time></trkpt><trkpt lat="47.18744128446406" lon="5.723766444722191"><ele>253.5</ele><time>2026-03-28T10:01:01Z</time></trkpt><trkpt lat="47.18741453079599" lon="5.723401270138885"><ele>253.0</ele><time>2026-03-28T10:01:02Z</time></trkpt><trkpt lat="47.18737944168493" lon="5.723040192483473"><ele>258.5</ele><time>2026-03-28T10:01:03Z</time></trkpt><trkpt lat="47.18734357930861" lon="5.722685247979527"><ele>264.0</ele><time>2026-03-28T10:01:04Z</time></trkpt><trkpt lat="47.1872999043182" lon="5.722337880964998"><ele>264.0</ele><time>2026-03-28T10:01:05Z</time></trkpt><trkpt lat="47.18725126695887" lon="5.721991763069762"><ele>264.0</ele><time>2026-03-28T10:01:06Z</time></trkpt><trkpt lat="47.18720095839432" lon="5.721656123553051"><ele>261.5</ele><time>2026-03-28T10:01:07Z</time></trkpt><trkpt lat="47.18714880655167" lon="5.721319364954457"><ele>259.0</ele><time>2026-03-28T10:01:08Z</time></trkpt><trkpt lat="47.187089351184746" lon="5.7209790663804085"><ele>255.0</ele><time>2026-03-28T10:01:09Z</time></trkpt><trkpt lat="47.18702515871865" lon="5.720638230001459"><ele>251.0</ele><time>2026-03-28T10:01:10Z</time></trkpt><trkpt lat="47.186961246332764" lon="5.720296154947393"><ele>248.5</ele><time>2026-03-28T10:01:11Z</time></trkpt><trkpt lat="47.186894047652515" lon="5.719948900053192"><ele>246.0</ele><time>2026-03-28T10:01:12Z</time></trkpt><trkpt lat="47.186821541748365" lon="5.719602910073705"><ele>244.5</ele><time>2026-03-28T10:01:13Z</time></trkpt><trkpt lat="47.18675134694651" lon="5.719255351195205"><ele>243.0</ele><time>2026-03-28T10:01:14Z</time></trkpt><trkpt lat="47.186678320400326" lon="5.7189092438725275"><ele>241.5</ele><time>2026-03-28T10:01:15Z</time></trkpt><trkpt lat="47.18660709608454" lon="5.718560846218258"><ele>240.0</ele><time>2026-03-28T10:01:16Z</time></trkpt><trkpt lat="47.18653142366421" lon="5.7182081423910445"><ele>244.0</ele><time>2026-03-28T10:01:17Z</time></trkpt><trkpt lat="47.186453506103824" lon="5.717852826597709"><ele>248.0</ele><time>2026-03-28T10:01:18Z</time></trkpt><trkpt lat="47.18638103035587" lon="5.71749991631964"><ele>248.0</ele><time>2026-03-28T10:01:19Z</time></trkpt><trkpt lat="47.18631427020987" lon="5.717146755094704"><ele>248.0</ele><time>2026-03-28T10:01:20Z</time></trkpt><trkpt lat="47.186250462072664" lon="5.716786727341723"><ele>246.5</ele><time>2026-03-28T10:01:21Z</time></trkpt><trkpt lat="47.18619178867781" lon="5.716426043314887"><ele>245.0</ele><time>2026-03-28T10:01:22Z</time></trkpt><trkpt lat="47.186140627535714" lon="5.7160633010976145"><ele>242.5</ele><time>2026-03-28T10:01:23Z</time></trkpt><trkpt lat="47.18609578097484" lon="5.7156999784728315"><ele>240.0</ele><time>2026-03-28T10:01:24Z</time></trkpt><trkpt lat="47.18605520092099" lon="5.715332987036417"><ele>241.0</ele><time>2026-03-28T10:01:25Z</time></trkpt><trkpt lat="47.18602239105424" lon="5.714961376118297"><ele>242.0</ele><time>2026-03-28T10:01:26Z</time></trkpt><trkpt lat="47.18599950433269" lon="5.714593948648497"><ele>241.0</ele><time>2026-03-28T10:01:27Z</time></trkpt><trkpt lat="47.18597951984511" lon="5.714220552692682"><ele>240.0</ele><time>2026-03-28T10:01:28Z</time></trkpt><trkpt lat="47.18597085272864" lon="5.713845141196461"><ele>238.5</ele><time>2026-03-28T10:01:29Z</time></trkpt><trkpt lat="47.18596702390774" lon="5.713469641127131"><ele>237.0</ele><time>2026-03-28T10:01:30Z</time></trkpt><trkpt lat="47.18597304062398" lon="5.713091787389596"><ele>238.0</ele><time>2026-03-28T10:01:31Z</time></trkpt><trkpt lat="47.1859843546467" lon="5.71271071761546"><ele>239.0</ele><time>2026-03-28T10:01:32Z</time></trkpt><trkpt lat="47.18600052450783" lon="5.712333596662271"><ele>239.0</ele><time>2026-03-28T10:01:33Z</time></trkpt><trkpt lat="47.1860236313396" lon="5.711953941947251"><ele>239.0</ele><time>2026-03-28T10:01:34Z</time></trkpt><trkpt lat="47.18604723971435" lon="5.711576094566722"><ele>239.5</ele><time>2026-03-28T10:01:35Z</time></trkpt><trkpt lat="47.186078020394774" lon="5.711202507201729"><ele>240.0</ele><time>2026-03-28T10:01:36Z</time></trkpt><trkpt lat="47.18611248256742" lon="5.710830738436765"><ele>241.5</ele><time>2026-03-28T10:01:37Z</time></trkpt><trkpt lat="47.18614336879923" lon="5.710464210283102"><ele>243.0</ele><time>2026-03-28T10:01:38Z</time></trkpt><trkpt lat="47.186179470101585" lon="5.710102372459691"><ele>243.5</ele><time>2026-03-28T10:01:39Z</time></trkpt><trkpt lat="47.18621317483492" lon="5.709747841224132"><ele>244.0</ele><time>2026-03-28T10:01:40Z</time></trkpt><trkpt lat="47.18624215582637" lon="5.709392445753495"><ele>244.0</ele><time>2026-03-28T10:01:41Z</time></trkpt><trkpt lat="47.186276230960324" lon="5.709039214010924"><ele>244.0</ele><time>2026-03-28T10:01:42Z</time></trkpt><trkpt lat="47.18630440881473" lon="5.7086889750276795"><ele>242.5</ele><time>2026-03-28T10:01:43Z</time></trkpt><trkpt lat="47.18633671138194" lon="5.708336592780954"><ele>241.0</ele><time>2026-03-28T10:01:44Z</time></trkpt><trkpt lat="47.18635689438209" lon="5.707987118924233"><ele>241.5</ele><time>2026-03-28T10:01:45Z</time></trkpt><trkpt lat="47.18637638560449" lon="5.707632972770094"><ele>242.0</ele><time>2026-03-28T10:01:46Z</time></trkpt><trkpt lat="47.1863968567077" lon="5.7072729957971475"><ele>244.0</ele><time>2026-03-28T10:01:47Z</time></trkpt><trkpt lat="47.186409676003514" lon="5.706910124944792"><ele>246.0</ele><time>2026-03-28T10:01:48Z</time></trkpt><trkpt lat="47.18641583262067" lon="5.70654431791413"><ele>246.0</ele><time>2026-03-28T10:01:49Z</time></trkpt><trkpt lat="47.18641772729601" lon="5.706174616415399"><ele>246.0</ele><time>2026-03-28T10:01:50Z</time></trkpt><trkpt lat="47.186409327915506" lon="5.705804273495498"><ele>247.5</ele><time>2026-03-28T10:01:51Z</time></trkpt><trkpt lat="47.186391321227674" lon="5.705429739670012"><ele>249.0</ele><time>2026-03-28T10:01:52Z</time></trkpt><trkpt lat="47.18637089614327" lon="5.705052232817906"><ele>249.0</ele><time>2026-03-28T10:01:53Z</time></trkpt><trkpt lat="47.18633888471874" lon="5.704677506394786"><ele>249.0</ele><time>2026-03-28T10:01:54Z</time></trkpt><trkpt lat="47.18630498084536" lon="5.704302569982438"><ele>249.0</ele><time>2026-03-28T10:01:55Z</time></trkpt><trkpt lat="47.18625774672575" lon="5.703924368390537"><ele>249.0</ele><time>2026-03-28T10:01:56Z</time></trkpt><trkpt lat="47.18620451804068" lon="5.703547691637961"><ele>246.5</ele><time>2026-03-28T10:01:57Z</time></trkpt><trkpt lat="47.18614212589417" lon="5.703174815947628"><ele>244.0</ele><time>2026-03-28T10:01:58Z</time></trkpt><trkpt lat="47.18607484301867" lon="5.70280617071375"><ele>244.0</ele><time>2026-03-28T10:01:59Z</time></trkpt><trkpt lat="47.18599929776602" lon="5.702437143379067"><ele>244.0</ele><time>2026-03-28T10:02:00Z</time></trkpt><trkpt lat="47.185921626920965" lon="5.70207715781479"><ele>245.5</ele><time>2026-03-28T10:02:01Z</time></trkpt><trkpt lat="47.185834287409364" lon="5.701727711286858"><ele>247.0</ele><time>2026-03-28T10:02:02Z</time></trkpt><trkpt lat="47.18573899095736" lon="5.70137999118003"><ele>251.5</ele><time>2026-03-28T10:02:03Z</time></trkpt><trkpt lat="47.18563781129369" lon="5.701037514668288"><ele>256.0</ele><time>2026-03-28T10:02:04Z</time></trkpt><trkpt lat="47.18553632876796" lon="5.700699840150017"><ele>256.0</ele><time>2026-03-28T10:02:05Z</time></trkpt><trkpt lat="47.18543032034215" lon="5.70037030091581"><ele>256.0</ele><time>2026-03-28T10:02:06Z</time></trkpt><trkpt lat="47.18532310320257" lon="5.700044667654092"><ele>252.0</ele><time>2026-03-28T10:02:07Z</time></trkpt><trkpt lat="47.18521345739465" lon="5.699719733700551"><ele>248.0</ele><time>2026-03-28T10:02:08Z</time></trkpt><trkpt lat="47.18510503599513" lon="5.699393108500332"><ele>247.0</ele><time>2026-03-28T10:02:09Z</time></trkpt><trkpt lat="47.184993363355005" lon="5.699066517649644"><ele>246.0</ele><time>2026-03-28T10:02:10Z</time></trkpt><trkpt lat="47.1848812966081" lon="5.698734245763182"><ele>248.5</ele><time>2026-03-28T10:02:11Z</time></trkpt><trkpt lat="47.184765709003635" lon="5.69840211723001"><ele>251.0</ele><time>2026-03-28T10:02:12Z</time></trkpt><trkpt lat="47.18465577903324" lon="5.698058169774876"><ele>247.5</ele><time>2026-03-28T10:02:13Z</time></trkpt><trkpt lat="47.18454517432222" lon="5.697720326230164"><ele>244.0</ele><time>2026-03-28T10:02:14Z</time></trkpt><trkpt lat="47.18443735931871" lon="5.697378123897229"><ele>244.0</ele><time>2026-03-28T10:02:15Z</time></trkpt><trkpt lat="47.18433493755655" lon="5.697036486468034"><ele>244.0</ele><time>2026-03-28T10:02:16Z</time></trkpt><trkpt lat="47.18423732721401" lon="5.696683219993008"><ele>241.0</ele><time>2026-03-28T10:02:17Z</time></trkpt><trkpt lat="47.18414725139531" lon="5.696319229311933"><ele>238.0</ele><time>2026-03-28T10:02:18Z</time></trkpt><trkpt lat="47.18406326761503" lon="5.69595070572053"><ele>238.5</ele><time>2026-03-28T10:02:19Z</time></trkpt><trkpt lat="47.18398430426913" lon="5.695572746577309"><ele>239.0</ele><time>2026-03-28T10:02:20Z</time></trkpt><trkpt lat="47.18391201891781" lon="5.695189922076405"><ele>239.0</ele><time>2026-03-28T10:02:21Z</time></trkpt><trkpt lat="47.1838469428434" lon="5.694802160139971"><ele>239.0</ele><time>2026-03-28T10:02:22Z</time></trkpt><trkpt lat="47.183786188618825" lon="5.694408316462078"><ele>238.5</ele><time>2026-03-28T10:02:23Z</time></trkpt><trkpt lat="47.18373688791964" lon="5.694018098829572"><ele>238.0</ele><time>2026-03-28T10:02:24Z</time></trkpt><trkpt lat="47.18368874253894" lon="5.693613764497386"><ele>239.5</ele><time>2026-03-28T10:02:25Z</time></trkpt><trkpt lat="47.18364374820291" lon="5.693204778478383"><ele>241.0</ele><time>2026-03-28T10:02:26Z</time></trkpt><trkpt lat="47.183592375346926" lon="5.692801052174118"><ele>242.5</ele><time>2026-03-28T10:02:27Z</time></trkpt><trkpt lat="47.1835474292032" lon="5.692399122958115"><ele>244.0</ele><time>2026-03-28T10:02:28Z</time></trkpt><trkpt lat="47.18349732782884" lon="5.691996323738742"><ele>244.0</ele><time>2026-03-28T10:02:29Z</time></trkpt><trkpt lat="47.18344822428506" lon="5.691592836128031"><ele>244.0</ele><time>2026-03-28T10:02:30Z</time></trkpt><trkpt lat="47.183393685570046" lon="5.6911901359043915"><ele>245.0</ele><time>2026-03-28T10:02:31Z</time></trkpt><trkpt lat="47.183338906323335" lon="5.690796512191125"><ele>246.0</ele><time>2026-03-28T10:02:32Z</time></trkpt><trkpt lat="47.18328001478941" lon="5.690406807114799"><ele>245.5</ele><time>2026-03-28T10:02:33Z</time></trkpt><trkpt lat="47.183218461649425" lon="5.690018639753006"><ele>245.0</ele><time>2026-03-28T10:02:34Z</time></trkpt><trkpt lat="47.18316066428506" lon="5.689638398196913"><ele>247.0</ele><time>2026-03-28T10:02:35Z</time></trkpt><trkpt lat="47.18309490219124" lon="5.68925953395459"><ele>249.0</ele><time>2026-03-28T10:02:36Z</time></trkpt><trkpt lat="47.183022555356345" lon="5.688878838803874"><ele>247.0</ele><time>2026-03-28T10:02:37Z</time></trkpt><trkpt lat="47.18294408779459" lon="5.688506999206686"><ele>245.0</ele><time>2026-03-28T10:02:38Z</time></trkpt><trkpt lat="47.182852299772534" lon="5.688141377850581"><ele>245.0</ele><time>2026-03-28T10:02:39Z</time></trkpt><trkpt lat="47.18275103501111" lon="5.687777617119513"><ele>245.0</ele><time>2026-03-28T10:02:40Z</time></trkpt><trkpt lat="47.1826471439156" lon="5.687409663518578"><ele>241.5</ele><time>2026-03-28T10:02:41Z</time></trkpt><trkpt lat="47.18253965291684" lon="5.687046669654408"><ele>238.0</ele><time>2026-03-28T10:02:42Z</time></trkpt><trkpt lat="47.18242023125029" lon="5.686686281281443"><ele>239.0</ele><time>2026-03-28T10:02:43Z</time></trkpt><trkpt lat="47.18229423981771" lon="5.686332261771077"><ele>240.0</ele><time>2026-03-28T10:02:44Z</time></trkpt><trkpt lat="47.182165817930766" lon="5.68598211539984"><ele>240.0</ele><time>2026-03-28T10:02:45Z</time></trkpt><trkpt lat="47.18203596207127" lon="5.685642239201908"><ele>240.0</ele><time>2026-03-28T10:02:46Z</time></trkpt><trkpt lat="47.18189187208958" lon="5.685304651187"><ele>239.5</ele><time>2026-03-28T10:02:47Z</time></trkpt><trkpt lat="47.18174755714216" lon="5.684969865581266"><ele>239.0</ele><time>2026-03-28T10:02:48Z</time></trkpt><trkpt lat="47.18159531013269" lon="5.684646546434861"><ele>243.5</ele><time>2026-03-28T10:02:49Z</time></trkpt><trkpt lat="47.181437391426236" lon="5.684322496518912"><ele>248.0</ele><time>2026-03-28T10:02:50Z</time></trkpt><trkpt lat="47.181270550039" lon="5.684003996360433"><ele>248.0</ele><time>2026-03-28T10:02:51Z</time></trkpt><trkpt lat="47.18110179291454" lon="5.683689384471183"><ele>248.0</ele><time>2026-03-28T10:02:52Z</time></trkpt><trkpt lat="47.18092501114651" lon="5.6833849523063495"><ele>243.5</ele><time>2026-03-28T10:02:53Z</time></trkpt><trkpt lat="47.18074523786512" lon="5.68308430823457"><ele>239.0</ele><time>2026-03-28T10:02:54Z</time></trkpt><trkpt lat="47.18056709056617" lon="5.6827841192618935"><ele>241.5</ele><time>2026-03-28T10:02:55Z</time></trkpt><trkpt lat="47.18038351416997" lon="5.682487310723525"><ele>244.0</ele><time>2026-03-28T10:02:56Z</time></trkpt><trkpt lat="47.18019814199876" lon="5.68218882271223"><ele>246.0</ele><time>2026-03-28T10:02:57Z</time></trkpt><trkpt lat="47.18001372030532" lon="5.68189210363278"><ele>248.0</ele><time>2026-03-28T10:02:58Z</time></trkpt><trkpt lat="47.17983099198407" lon="5.6815934368933165"><ele>248.0</ele><time>2026-03-28T10:02:59Z</time></trkpt><trkpt lat="47.179647216832194" lon="5.6812947751453295"><ele>248.0</ele><time>2026-03-28T10:03:00Z</time></trkpt><trkpt lat="47.17946633225134" lon="5.680996014163799"><ele>242.5</ele><time>2026-03-28T10:03:01Z</time></trkpt><trkpt lat="47.179285886469536" lon="5.680692752786739"><ele>237.0</ele><time>2026-03-28T10:03:02Z</time></trkpt><trkpt lat="47.179104224614484" lon="5.6803765581583345"><ele>241.0</ele><time>2026-03-28T10:03:03Z</time></trkpt><trkpt lat="47.17893029434772" lon="5.680064918429388"><ele>245.0</ele><time>2026-03-28T10:03:04Z</time></trkpt><trkpt lat="47.17875725250726" lon="5.6797484637487745"><ele>241.0</ele><time>2026-03-28T10:03:05Z</time></trkpt><trkpt lat="47.17859161471662" lon="5.679431108671871"><ele>237.0</ele><time>2026-03-28T10:03:06Z</time></trkpt><trkpt lat="47.17843067227755" lon="5.679099509970575"><ele>237.0</ele><time>2026-03-28T10:03:07Z</time></trkpt><trkpt lat="47.17827409936649" lon="5.678766127612276"><ele>237.0</ele><time>2026-03-28T10:03:08Z</time></trkpt><trkpt lat="47.178118802207436" lon="5.6784245554564095"><ele>236.5</ele><time>2026-03-28T10:03:09Z</time></trkpt><trkpt lat="47.17797093261499" lon="5.678078726273328"><ele>236.0</ele><time>2026-03-28T10:03:10Z</time></trkpt><trkpt lat="47.17782985746978" lon="5.6777296542221825"><ele>236.0</ele><time>2026-03-28T10:03:11Z</time></trkpt><trkpt lat="47.177696607358705" lon="5.677375517230062"><ele>236.0</ele><time>2026-03-28T10:03:12Z</time></trkpt><trkpt lat="47.177569790914966" lon="5.677015267868736"><ele>237.5</ele><time>2026-03-28T10:03:13Z</time></trkpt><trkpt lat="47.17744748367273" lon="5.6766479232628475"><ele>239.0</ele><time>2026-03-28T10:03:14Z</time></trkpt><trkpt lat="47.17733464706374" lon="5.676279111523354"><ele>235.0</ele><time>2026-03-28T10:03:15Z</time></trkpt><trkpt lat="47.17722909449109" lon="5.675899541853071"><ele>231.0</ele><time>2026-03-28T10:03:16Z</time></trkpt><trkpt lat="47.177126861615264" lon="5.675519806982631"><ele>229.5</ele><time>2026-03-28T10:03:17Z</time></trkpt><trkpt lat="47.17702960866387" lon="5.675136996547748"><ele>228.0</ele><time>2026-03-28T10:03:18Z</time></trkpt><trkpt lat="47.176939418445684" lon="5.6747563023422325"><ele>228.5</ele><time>2026-03-28T10:03:19Z</time></trkpt><trkpt lat="47.1768578015543" lon="5.674372758728167"><ele>229.0</ele><time>2026-03-28T10:03:20Z</time></trkpt><trkpt lat="47.17678166651146" lon="5.6739861589096305"><ele>229.5</ele><time>2026-03-28T10:03:21Z</time></trkpt><trkpt lat="47.176707626140164" lon="5.67359786513999"><ele>230.0</ele><time>2026-03-28T10:03:22Z</time></trkpt><trkpt lat="47.17663620804795" lon="5.673204716405862"><ele>230.0</ele><time>2026-03-28T10:03:23Z</time></trkpt><trkpt lat="47.176566937221885" lon="5.67281752151447"><ele>230.0</ele><time>2026-03-28T10:03:24Z</time></trkpt><trkpt lat="47.176501366363304" lon="5.672425436504554"><ele>237.0</ele><time>2026-03-28T10:03:25Z</time></trkpt><trkpt lat="47.17643729397473" lon="5.6720314644346885"><ele>244.0</ele><time>2026-03-28T10:03:26Z</time></trkpt><trkpt lat="47.17637321295832" lon="5.671633639418661"><ele>244.0</ele><time>2026-03-28T10:03:27Z</time></trkpt><trkpt lat="47.176311975606396" lon="5.671238537881997"><ele>244.0</ele><time>2026-03-28T10:03:28Z</time></trkpt><trkpt lat="47.176251424880874" lon="5.6708365430955725"><ele>241.0</ele><time>2026-03-28T10:03:29Z</time></trkpt><trkpt lat="47.17618656436971" lon="5.670440783079754"><ele>238.0</ele><time>2026-03-28T10:03:30Z</time></trkpt><trkpt lat="47.1761175482357" lon="5.670052452412936"><ele>236.0</ele><time>2026-03-28T10:03:31Z</time></trkpt><trkpt lat="47.17604155967276" lon="5.669662878274637"><ele>234.0</ele><time>2026-03-28T10:03:32Z</time></trkpt><trkpt lat="47.17596694008279" lon="5.669269729767299"><ele>230.5</ele><time>2026-03-28T10:03:33Z</time></trkpt><trkpt lat="47.17589079588115" lon="5.668881118038222"><ele>227.0</ele><time>2026-03-28T10:03:34Z</time></trkpt><trkpt lat="47.17581123502987" lon="5.668491893466647"><ele>225.5</ele><time>2026-03-28T10:03:35Z</time></trkpt><trkpt lat="47.175726092646244" lon="5.668107297820796"><ele>224.0</ele><time>2026-03-28T10:03:36Z</time></trkpt><trkpt lat="47.17563285905783" lon="5.667729118333243"><ele>231.5</ele><time>2026-03-28T10:03:37Z</time></trkpt><trkpt lat="47.17553011679437" lon="5.667360370965032"><ele>239.0</ele><time>2026-03-28T10:03:38Z</time></trkpt><trkpt lat="47.17541956720855" lon="5.666991915045356"><ele>236.0</ele><time>2026-03-28T10:03:39Z</time></trkpt><trkpt lat="47.17530301873992" lon="5.666630787993"><ele>233.0</ele><time>2026-03-28T10:03:40Z</time></trkpt><trkpt lat="47.17518104094374" lon="5.666277167211796"><ele>228.5</ele><time>2026-03-28T10:03:41Z</time></trkpt><trkpt lat="47.17505121376165" lon="5.665926353774516"><ele>224.0</ele><time>2026-03-28T10:03:42Z</time></trkpt><trkpt lat="47.17491767121322" lon="5.665582084761052"><ele>228.5</ele><time>2026-03-28T10:03:43Z</time></trkpt><trkpt lat="47.17478205871339" lon="5.66523814605476"><ele>233.0</ele><time>2026-03-28T10:03:44Z</time></trkpt><trkpt lat="47.17464183411288" lon="5.664896634212869"><ele>233.0</ele><time>2026-03-28T10:03:45Z</time></trkpt><trkpt lat="47.17449545097646" lon="5.664560813747182"><ele>233.0</ele><time>2026-03-28T10:03:46Z</time></trkpt><trkpt lat="47.17434666710572" lon="5.664223297720782"><ele>229.5</ele><time>2026-03-28T10:03:47Z</time></trkpt><trkpt lat="47.174194045123905" lon="5.663894353334807"><ele>226.0</ele><time>2026-03-28T10:03:48Z</time></trkpt><trkpt lat="47.17404101212801" lon="5.663563625472066"><ele>229.5</ele><time>2026-03-28T10:03:49Z</time></trkpt><trkpt lat="47.17388578776349" lon="5.6632310824180845"><ele>233.0</ele><time>2026-03-28T10:03:50Z</time></trkpt><trkpt lat="47.17373084321578" lon="5.662900672010195"><ele>230.0</ele><time>2026-03-28T10:03:51Z</time></trkpt><trkpt lat="47.17357135804715" lon="5.662574614459004"><ele>227.0</ele><time>2026-03-28T10:03:52Z</time></trkpt><trkpt lat="47.17341086866202" lon="5.662249034858707"><ele>224.5</ele><time>2026-03-28T10:03:53Z</time></trkpt><trkpt lat="47.1732516326408" lon="5.66192658642516"><ele>222.0</ele><time>2026-03-28T10:03:54Z</time></trkpt><trkpt lat="47.1730903792892" lon="5.661604421133676"><ele>225.5</ele><time>2026-03-28T10:03:55Z</time></trkpt><trkpt lat="47.17293072207696" lon="5.6612811772023"><ele>229.0</ele><time>2026-03-28T10:03:56Z</time></trkpt><trkpt lat="47.172775600770585" lon="5.660957579018511"><ele>229.0</ele><time>2026-03-28T10:03:57Z</time></trkpt><trkpt lat="47.172619041111126" lon="5.660639333003942"><ele>229.0</ele><time>2026-03-28T10:03:58Z</time></trkpt><trkpt lat="47.172460604366854" lon="5.6603213997137"><ele>233.0</ele><time>2026-03-28T10:03:59Z</time></trkpt><trkpt lat="47.17229554159068" lon="5.660001356661656"><ele>237.0</ele><time>2026-03-28T10:04:00Z</time></trkpt><trkpt lat="47.17213586830511" lon="5.6596835539407735"><ele>233.0</ele><time>2026-03-28T10:04:01Z</time></trkpt><trkpt lat="47.17197388307719" lon="5.659370270876836"><ele>229.0</ele><time>2026-03-28T10:04:02Z</time></trkpt><trkpt lat="47.171815542107694" lon="5.65905431399825"><ele>229.0</ele><time>2026-03-28T10:04:03Z</time></trkpt><trkpt lat="47.17165722668261" lon="5.65873711259564"><ele>229.0</ele><time>2026-03-28T10:04:04Z</time></trkpt><trkpt lat="47.171497213145685" lon="5.658417510084033"><ele>227.5</ele><time>2026-03-28T10:04:05Z</time></trkpt><trkpt lat="47.17133769736724" lon="5.65809584592711"><ele>226.0</ele><time>2026-03-28T10:04:06Z</time></trkpt><trkpt lat="47.17117763125415" lon="5.6577719841587415"><ele>226.0</ele><time>2026-03-28T10:04:07Z</time></trkpt><trkpt lat="47.17101717398241" lon="5.657450456075711"><ele>226.0</ele><time>2026-03-28T10:04:08Z</time></trkpt><trkpt lat="47.170859418740655" lon="5.657124093501225"><ele>228.0</ele><time>2026-03-28T10:04:09Z</time></trkpt><trkpt lat="47.170697715730086" lon="5.656803079834178"><ele>230.0</ele><time>2026-03-28T10:04:10Z</time></trkpt><trkpt lat="47.17053762724693" lon="5.656478368677162"><ele>232.0</ele><time>2026-03-28T10:04:11Z</time></trkpt><trkpt lat="47.17038034767592" lon="5.656151241995411"><ele>234.0</ele><time>2026-03-28T10:04:12Z</time></trkpt><trkpt lat="47.170220460924675" lon="5.655827285896403"><ele>234.0</ele><time>2026-03-28T10:04:13Z</time></trkpt><trkpt lat="47.17006330450965" lon="5.655498518222755"><ele>234.0</ele><time>2026-03-28T10:04:14Z</time></trkpt><trkpt lat="47.16990309700704" lon="5.655174256488999"><ele>236.0</ele><time>2026-03-28T10:04:15Z</time></trkpt><trkpt lat="47.16974806393569" lon="5.654843826063949"><ele>238.0</ele><time>2026-03-28T10:04:16Z</time></trkpt><trkpt lat="47.169594239426125" lon="5.654516101212497"><ele>237.5</ele><time>2026-03-28T10:04:17Z</time></trkpt><trkpt lat="47.169445017618905" lon="5.654181692064619"><ele>237.0</ele><time>2026-03-28T10:04:18Z</time></trkpt><trkpt lat="47.16929559499841" lon="5.653846468813688"><ele>239.5</ele><time>2026-03-28T10:04:19Z</time></trkpt><trkpt lat="47.16914718284088" lon="5.653513391519173"><ele>242.0</ele><time>2026-03-28T10:04:20Z</time></trkpt><trkpt lat="47.16899448416229" lon="5.6531783234024315"><ele>243.5</ele><time>2026-03-28T10:04:21Z</time></trkpt><trkpt lat="47.16884150056963" lon="5.65284615162581"><ele>245.0</ele><time>2026-03-28T10:04:22Z</time></trkpt><trkpt lat="47.16869112639494" lon="5.652511359435727"><ele>245.0</ele><time>2026-03-28T10:04:23Z</time></trkpt><trkpt lat="47.16854876454819" lon="5.652171449793433"><ele>245.0</ele><time>2026-03-28T10:04:24Z</time></trkpt><trkpt lat="47.16840770903264" lon="5.651828462573674"><ele>245.0</ele><time>2026-03-28T10:04:25Z</time></trkpt><trkpt lat="47.16826847658241" lon="5.651479479470871"><ele>245.0</ele><time>2026-03-28T10:04:26Z</time></trkpt><trkpt lat="47.16813380172355" lon="5.651128733091058"><ele>248.5</ele><time>2026-03-28T10:04:27Z</time></trkpt><trkpt lat="47.167998998479064" lon="5.650779624433341"><ele>252.0</ele><time>2026-03-28T10:04:28Z</time></trkpt><trkpt lat="47.16786890892136" lon="5.650425028534335"><ele>250.5</ele><time>2026-03-28T10:04:29Z</time></trkpt><trkpt lat="47.16774123353021" lon="5.650066676155011"><ele>249.0</ele><time>2026-03-28T10:04:30Z</time></trkpt><trkpt lat="47.167616097765304" lon="5.64970229048606"><ele>247.5</ele><time>2026-03-28T10:04:31Z</time></trkpt><trkpt lat="47.16749303283528" lon="5.649336190893971"><ele>246.0</ele><time>2026-03-28T10:04:32Z</time></trkpt><trkpt lat="47.16737649432118" lon="5.648965969869048"><ele>247.5</ele><time>2026-03-28T10:04:33Z</time></trkpt><trkpt lat="47.16726524294145" lon="5.648594064954469"><ele>249.0</ele><time>2026-03-28T10:04:34Z</time></trkpt><trkpt lat="47.167158787629646" lon="5.6482182493133175"><ele>249.0</ele><time>2026-03-28T10:04:35Z</time></trkpt><trkpt lat="47.16705686589473" lon="5.647838398497424"><ele>249.0</ele><time>2026-03-28T10:04:36Z</time></trkpt><trkpt lat="47.166962719917194" lon="5.647451585043215"><ele>246.0</ele><time>2026-03-28T10:04:37Z</time></trkpt><trkpt lat="47.16687176056875" lon="5.6470635391074815"><ele>243.0</ele><time>2026-03-28T10:04:38Z</time></trkpt><trkpt lat="47.16678306461102" lon="5.64667570666836"><ele>241.5</ele><time>2026-03-28T10:04:39Z</time></trkpt><trkpt lat="47.166695520860436" lon="5.64628569637542"><ele>240.0</ele><time>2026-03-28T10:04:40Z</time></trkpt><trkpt lat="47.166613912398745" lon="5.6458956664447175"><ele>238.5</ele><time>2026-03-28T10:04:41Z</time></trkpt><trkpt lat="47.166538409600726" lon="5.64550316276088"><ele>237.0</ele><time>2026-03-28T10:04:42Z</time></trkpt><trkpt lat="47.166476001375514" lon="5.645103138010278"><ele>236.5</ele><time>2026-03-28T10:04:43Z</time></trkpt><trkpt lat="47.166418181411" lon="5.644708496243188"><ele>236.0</ele><time>2026-03-28T10:04:44Z</time></trkpt><trkpt lat="47.16636534207843" lon="5.644306290297651"><ele>234.5</ele><time>2026-03-28T10:04:45Z</time></trkpt><trkpt lat="47.16631689407503" lon="5.643912343664431"><ele>233.0</ele><time>2026-03-28T10:04:46Z</time></trkpt><trkpt lat="47.16627408720416" lon="5.643513178693441"><ele>232.5</ele><time>2026-03-28T10:04:47Z</time></trkpt><trkpt lat="47.16623445587154" lon="5.643109971381554"><ele>232.0</ele><time>2026-03-28T10:04:48Z</time></trkpt><trkpt lat="47.16619648659554" lon="5.642707250798655"><ele>231.0</ele><time>2026-03-28T10:04:49Z</time></trkpt><trkpt lat="47.16616151000152" lon="5.642297092772992"><ele>230.0</ele><time>2026-03-28T10:04:50Z</time></trkpt><trkpt lat="47.16612801811571" lon="5.641886948758726"><ele>230.0</ele><time>2026-03-28T10:04:51Z</time></trkpt><trkpt lat="47.166096932280134" lon="5.641471694356481"><ele>230.0</ele><time>2026-03-28T10:04:52Z</time></trkpt><trkpt lat="47.1660645660312" lon="5.641056423368806"><ele>229.0</ele><time>2026-03-28T10:04:53Z</time></trkpt><trkpt lat="47.16603751773516" lon="5.640639403606609"><ele>228.0</ele><time>2026-03-28T10:04:54Z</time></trkpt><trkpt lat="47.166012866824445" lon="5.640220434796276"><ele>228.0</ele><time>2026-03-28T10:04:55Z</time></trkpt><trkpt lat="47.165992471729226" lon="5.639802220965562"><ele>228.0</ele><time>2026-03-28T10:04:56Z</time></trkpt><trkpt lat="47.16597748412772" lon="5.6393872193631625"><ele>228.0</ele><time>2026-03-28T10:04:57Z</time></trkpt><trkpt lat="47.165963668071036" lon="5.638972273606807"><ele>228.0</ele><time>2026-03-28T10:04:58Z</time></trkpt><trkpt lat="47.16595349385867" lon="5.6385556318920305"><ele>227.5</ele><time>2026-03-28T10:04:59Z</time></trkpt><trkpt lat="47.16594404264591" lon="5.638138977440573"><ele>227.0</ele><time>2026-03-28T10:05:00Z</time></trkpt><trkpt lat="47.165934694816656" lon="5.637716199234724"><ele>226.5</ele><time>2026-03-28T10:05:01Z</time></trkpt><trkpt lat="47.16592468878773" lon="5.63729609084672"><ele>226.0</ele><time>2026-03-28T10:05:02Z</time></trkpt><trkpt lat="47.16591596075491" lon="5.63687239842001"><ele>224.5</ele><time>2026-03-28T10:05:03Z</time></trkpt><trkpt lat="47.16590528417935" lon="5.636447804791847"><ele>223.0</ele><time>2026-03-28T10:05:04Z</time></trkpt><trkpt lat="47.165897072811674" lon="5.636027474946554"><ele>222.5</ele><time>2026-03-28T10:05:05Z</time></trkpt><trkpt lat="47.165892212893" lon="5.635603487851368"><ele>222.0</ele><time>2026-03-28T10:05:06Z</time></trkpt><trkpt lat="47.165880312514105" lon="5.635188095976693"><ele>220.0</ele><time>2026-03-28T10:05:07Z</time></trkpt><trkpt lat="47.16587184003914" lon="5.634765796987234"><ele>218.0</ele><time>2026-03-28T10:05:08Z</time></trkpt><trkpt lat="47.16585968647312" lon="5.634345468262469"><ele>217.5</ele><time>2026-03-28T10:05:09Z</time></trkpt><trkpt lat="47.16584649276184" lon="5.633926773232994"><ele>217.0</ele><time>2026-03-28T10:05:10Z</time></trkpt><trkpt lat="47.16583427483106" lon="5.633509538950979"><ele>217.0</ele><time>2026-03-28T10:05:11Z</time></trkpt><trkpt lat="47.165822991495645" lon="5.633090514027021"><ele>217.0</ele><time>2026-03-28T10:05:12Z</time></trkpt><trkpt lat="47.16580979246395" lon="5.632673730323406"><ele>216.5</ele><time>2026-03-28T10:05:13Z</time></trkpt><trkpt lat="47.16579682290084" lon="5.632257972287201"><ele>216.0</ele><time>2026-03-28T10:05:14Z</time></trkpt><trkpt lat="47.16577612364319" lon="5.631845365200721"><ele>215.5</ele><time>2026-03-28T10:05:15Z</time></trkpt><trkpt lat="47.165758801163726" lon="5.631433502821669"><ele>215.0</ele><time>2026-03-28T10:05:16Z</time></trkpt><trkpt lat="47.16573892490861" lon="5.631021191296013"><ele>214.5</ele><time>2026-03-28T10:05:17Z</time></trkpt><trkpt lat="47.16572220580694" lon="5.630608425917831"><ele>214.0</ele><time>2026-03-28T10:05:18Z</time></trkpt><trkpt lat="47.16569660811091" lon="5.630203126987763"><ele>214.0</ele><time>2026-03-28T10:05:19Z</time></trkpt><trkpt lat="47.165669254781356" lon="5.62979878370717"><ele>214.0</ele><time>2026-03-28T10:05:20Z</time></trkpt><trkpt lat="47.16564514047461" lon="5.62939624201836"><ele>214.0</ele><time>2026-03-28T10:05:21Z</time></trkpt><trkpt lat="47.16562037166567" lon="5.62899253579944"><ele>214.0</ele><time>2026-03-28T10:05:22Z</time></trkpt><trkpt lat="47.16559132165076" lon="5.628593506916922"><ele>215.5</ele><time>2026-03-28T10:05:23Z</time></trkpt><trkpt lat="47.165557051278135" lon="5.628196561010897"><ele>217.0</ele><time>2026-03-28T10:05:24Z</time></trkpt><trkpt lat="47.16552078783382" lon="5.627802418009152"><ele>218.5</ele><time>2026-03-28T10:05:25Z</time></trkpt><trkpt lat="47.16547709523376" lon="5.6274084501946104"><ele>220.0</ele><time>2026-03-28T10:05:26Z</time></trkpt><trkpt lat="47.16543292221434" lon="5.627015100307162"><ele>221.5</ele><time>2026-03-28T10:05:27Z</time></trkpt><trkpt lat="47.165386173435905" lon="5.626625691511867"><ele>223.0</ele><time>2026-03-28T10:05:28Z</time></trkpt><trkpt lat="47.16533476226026" lon="5.626234956839545"><ele>224.0</ele><time>2026-03-28T10:05:29Z</time></trkpt><trkpt lat="47.165280043792265" lon="5.625844967707182"><ele>225.0</ele><time>2026-03-28T10:05:30Z</time></trkpt><trkpt lat="47.16521923011628" lon="5.625457143640336"><ele>225.0</ele><time>2026-03-28T10:05:31Z</time></trkpt><trkpt lat="47.16515429061279" lon="5.6250671837648785"><ele>225.0</ele><time>2026-03-28T10:05:32Z</time></trkpt><trkpt lat="47.1650870372506" lon="5.624681345938053"><ele>225.0</ele><time>2026-03-28T10:05:33Z</time></trkpt><trkpt lat="47.165016475377165" lon="5.624294175765683"><ele>225.0</ele><time>2026-03-28T10:05:34Z</time></trkpt><trkpt lat="47.164941476661795" lon="5.623912033063559"><ele>225.0</ele><time>2026-03-28T10:05:35Z</time></trkpt><trkpt lat="47.16486070075779" lon="5.623528810704181"><ele>225.0</ele><time>2026-03-28T10:05:36Z</time></trkpt><trkpt lat="47.16477736524584" lon="5.623145009301221"><ele>225.0</ele><time>2026-03-28T10:05:37Z</time></trkpt><trkpt lat="47.16468865504536" lon="5.622768878488363"><ele>225.0</ele><time>2026-03-28T10:05:38Z</time></trkpt><trkpt lat="47.16459564904482" lon="5.6223954492657"><ele>225.0</ele><time>2026-03-28T10:05:39Z</time></trkpt><trkpt lat="47.164501851433464" lon="5.622022160148857"><ele>225.0</ele><time>2026-03-28T10:05:40Z</time></trkpt><trkpt lat="47.16440109779014" lon="5.621655421487813"><ele>225.0</ele><time>2026-03-28T10:05:41Z</time></trkpt><trkpt lat="47.16429716950731" lon="5.621288966080962"><ele>225.0</ele><time>2026-03-28T10:05:42Z</time></trkpt><trkpt lat="47.16418727567657" lon="5.620924765624406"><ele>225.0</ele><time>2026-03-28T10:05:43Z</time></trkpt><trkpt lat="47.16407703322182" lon="5.6205601206367195"><ele>225.0</ele><time>2026-03-28T10:05:44Z</time></trkpt><trkpt lat="47.16396244578443" lon="5.620197427183889"><ele>225.0</ele><time>2026-03-28T10:05:45Z</time></trkpt><trkpt lat="47.163843747723234" lon="5.619835714893603"><ele>225.0</ele><time>2026-03-28T10:05:46Z</time></trkpt><trkpt lat="47.16372452077245" lon="5.619479347831024"><ele>226.5</ele><time>2026-03-28T10:05:47Z</time></trkpt><trkpt lat="47.16360129241421" lon="5.619125835954403"><ele>228.0</ele><time>2026-03-28T10:05:48Z</time></trkpt><trkpt lat="47.16347382343491" lon="5.618774186688328"><ele>229.5</ele><time>2026-03-28T10:05:49Z</time></trkpt><trkpt lat="47.16334132887067" lon="5.618426014284404"><ele>231.0</ele><time>2026-03-28T10:05:50Z</time></trkpt><trkpt lat="47.16320478021692" lon="5.6180798298442305"><ele>231.0</ele><time>2026-03-28T10:05:51Z</time></trkpt><trkpt lat="47.16306553343717" lon="5.617731428174244"><ele>231.0</ele><time>2026-03-28T10:05:52Z</time></trkpt><trkpt lat="47.16292283583073" lon="5.61738881149461"><ele>231.0</ele><time>2026-03-28T10:05:53Z</time></trkpt><trkpt lat="47.16277585126436" lon="5.61704683510597"><ele>231.0</ele><time>2026-03-28T10:05:54Z</time></trkpt><trkpt lat="47.16262547557109" lon="5.6167061306032275"><ele>231.0</ele><time>2026-03-28T10:05:55Z</time></trkpt><trkpt lat="47.16246941167222" lon="5.616373853901216"><ele>231.0</ele><time>2026-03-28T10:05:56Z</time></trkpt><trkpt lat="47.1623099855342" lon="5.616044030795101"><ele>230.0</ele><time>2026-03-28T10:05:57Z</time></trkpt><trkpt lat="47.16214640610491" lon="5.615716616465789"><ele>229.0</ele><time>2026-03-28T10:05:58Z</time></trkpt><trkpt lat="47.16198114405447" lon="5.615391501644456"><ele>230.0</ele><time>2026-03-28T10:05:59Z</time></trkpt><trkpt lat="47.16181195859785" lon="5.615075840122805"><ele>231.0</ele><time>2026-03-28T10:06:00Z</time></trkpt><trkpt lat="47.161640630396086" lon="5.614766225229012"><ele>230.0</ele><time>2026-03-28T10:06:01Z</time></trkpt><trkpt lat="47.16146409892526" lon="5.614461721876634"><ele>229.0</ele><time>2026-03-28T10:06:02Z</time></trkpt><trkpt lat="47.1612820002422" lon="5.61415947740015"><ele>229.0</ele><time>2026-03-28T10:06:03Z</time></trkpt><trkpt lat="47.16109647784658" lon="5.613860071959399"><ele>229.0</ele><time>2026-03-28T10:06:04Z</time></trkpt><trkpt lat="47.16090626277421" lon="5.613567244607251"><ele>229.5</ele><time>2026-03-28T10:06:05Z</time></trkpt><trkpt lat="47.16071342651438" lon="5.613273663995451"><ele>230.0</ele><time>2026-03-28T10:06:06Z</time></trkpt><trkpt lat="47.16051900116839" lon="5.61298087975795"><ele>228.5</ele><time>2026-03-28T10:06:07Z</time></trkpt><trkpt lat="47.16032400822768" lon="5.612691479251297"><ele>227.0</ele><time>2026-03-28T10:06:08Z</time></trkpt><trkpt lat="47.16012328974127" lon="5.612405155718755"><ele>227.0</ele><time>2026-03-28T10:06:09Z</time></trkpt><trkpt lat="47.159918448062214" lon="5.612126333808855"><ele>227.0</ele><time>2026-03-28T10:06:10Z</time></trkpt><trkpt lat="47.15970875811347" lon="5.611848444833579"><ele>225.5</ele><time>2026-03-28T10:06:11Z</time></trkpt><trkpt lat="47.15949702213025" lon="5.611571842786419"><ele>224.0</ele><time>2026-03-28T10:06:12Z</time></trkpt><trkpt lat="47.159281554415465" lon="5.6113011521414835"><ele>224.0</ele><time>2026-03-28T10:06:13Z</time></trkpt><trkpt lat="47.15906161645309" lon="5.611037448440616"><ele>224.0</ele><time>2026-03-28T10:06:14Z</time></trkpt><trkpt lat="47.15884457610569" lon="5.610777699158822"><ele>223.0</ele><time>2026-03-28T10:06:15Z</time></trkpt><trkpt lat="47.15862538085861" lon="5.6105262114612335"><ele>222.0</ele><time>2026-03-28T10:06:16Z</time></trkpt><trkpt lat="47.15839870973538" lon="5.610276324883939"><ele>220.5</ele><time>2026-03-28T10:06:17Z</time></trkpt><trkpt lat="47.15817018932646" lon="5.6100266502625065"><ele>219.0</ele><time>2026-03-28T10:06:18Z</time></trkpt><trkpt lat="47.15794674064876" lon="5.609772141194759"><ele>219.0</ele><time>2026-03-28T10:06:19Z</time></trkpt><trkpt lat="47.15772333849061" lon="5.609516262343484"><ele>219.0</ele><time>2026-03-28T10:06:20Z</time></trkpt><trkpt lat="47.15750171621017" lon="5.609265414165774"><ele>217.5</ele><time>2026-03-28T10:06:21Z</time></trkpt><trkpt lat="47.15727851831682" lon="5.609013402208808"><ele>216.0</ele><time>2026-03-28T10:06:22Z</time></trkpt><trkpt lat="47.157056209849095" lon="5.6087668913294575"><ele>217.5</ele><time>2026-03-28T10:06:23Z</time></trkpt><trkpt lat="47.15682940525808" lon="5.60852408904108"><ele>219.0</ele><time>2026-03-28T10:06:24Z</time></trkpt><trkpt lat="47.15660157684657" lon="5.608283713860067"><ele>217.5</ele><time>2026-03-28T10:06:25Z</time></trkpt><trkpt lat="47.156376574594134" lon="5.608042939035549"><ele>216.0</ele><time>2026-03-28T10:06:26Z</time></trkpt><trkpt lat="47.156154625681815" lon="5.607796363243889"><ele>216.0</ele><time>2026-03-28T10:06:27Z</time></trkpt><trkpt lat="47.15593408397674" lon="5.607548434049223"><ele>216.0</ele><time>2026-03-28T10:06:28Z</time></trkpt><trkpt lat="47.15571688941678" lon="5.607297623905359"><ele>215.5</ele><time>2026-03-28T10:06:29Z</time></trkpt><trkpt lat="47.15550238599006" lon="5.607041022153842"><ele>215.0</ele><time>2026-03-28T10:06:30Z</time></trkpt><trkpt lat="47.15528851272269" lon="5.606784371335313"><ele>215.0</ele><time>2026-03-28T10:06:31Z</time></trkpt><trkpt lat="47.155076106408735" lon="5.606522777595695"><ele>215.0</ele><time>2026-03-28T10:06:32Z</time></trkpt><trkpt lat="47.154867287368724" lon="5.606256169304099"><ele>213.0</ele><time>2026-03-28T10:06:33Z</time></trkpt><trkpt lat="47.154665811752984" lon="5.6059770624228005"><ele>211.0</ele><time>2026-03-28T10:06:34Z</time></trkpt><trkpt lat="47.15446955180336" lon="5.605697295627014"><ele>211.0</ele><time>2026-03-28T10:06:35Z</time></trkpt><trkpt lat="47.15427077145392" lon="5.605420469004633"><ele>211.0</ele><time>2026-03-28T10:06:36Z</time></trkpt><trkpt lat="47.15407433632273" lon="5.605143585404971"><ele>212.5</ele><time>2026-03-28T10:06:37Z</time></trkpt><trkpt lat="47.15388204115603" lon="5.6048623610787205"><ele>214.0</ele><time>2026-03-28T10:06:38Z</time></trkpt><trkpt lat="47.15369431650117" lon="5.604581069624254"><ele>214.5</ele><time>2026-03-28T10:06:39Z</time></trkpt><trkpt lat="47.153510810155616" lon="5.604286889323182"><ele>215.0</ele><time>2026-03-28T10:06:40Z</time></trkpt><trkpt lat="47.15333130686749" lon="5.603990617220049"><ele>218.0</ele><time>2026-03-28T10:06:41Z</time></trkpt><trkpt lat="47.15315542237192" lon="5.603689284988013"><ele>221.0</ele><time>2026-03-28T10:06:42Z</time></trkpt><trkpt lat="47.15298506658948" lon="5.603384515457966"><ele>221.0</ele><time>2026-03-28T10:06:43Z</time></trkpt><trkpt lat="47.15281866256975" lon="5.603082182753608"><ele>221.0</ele><time>2026-03-28T10:06:44Z</time></trkpt><trkpt lat="47.15265140135597" lon="5.602771118684974"><ele>220.5</ele><time>2026-03-28T10:06:45Z</time></trkpt><trkpt lat="47.15248951454146" lon="5.6024604829786195"><ele>220.0</ele><time>2026-03-28T10:06:46Z</time></trkpt><trkpt lat="47.15232880934355" lon="5.60213820001888"><ele>225.5</ele><time>2026-03-28T10:06:47Z</time></trkpt><trkpt lat="47.15217170608619" lon="5.601815211871563"><ele>231.0</ele><time>2026-03-28T10:06:48Z</time></trkpt><trkpt lat="47.152015087214295" lon="5.601486935525644"><ele>227.5</ele><time>2026-03-28T10:06:49Z</time></trkpt><trkpt lat="47.1518625275805" lon="5.601152357981078"><ele>224.0</ele><time>2026-03-28T10:06:50Z</time></trkpt><trkpt lat="47.151714739687094" lon="5.6008168132343465"><ele>224.0</ele><time>2026-03-28T10:06:51Z</time></trkpt><trkpt lat="47.151567090090026" lon="5.600476088864276"><ele>224.0</ele><time>2026-03-28T10:06:52Z</time></trkpt><trkpt lat="47.15142299488053" lon="5.600130523713478"><ele>228.0</ele><time>2026-03-28T10:06:53Z</time></trkpt><trkpt lat="47.15128148089427" lon="5.599784799426456"><ele>232.0</ele><time>2026-03-28T10:06:54Z</time></trkpt><trkpt lat="47.151145658502585" lon="5.599441177084569"><ele>232.0</ele><time>2026-03-28T10:06:55Z</time></trkpt><trkpt lat="47.15101097668594" lon="5.599092572818123"><ele>232.0</ele><time>2026-03-28T10:06:56Z</time></trkpt><trkpt lat="47.15088323825605" lon="5.598745585491037"><ele>231.5</ele><time>2026-03-28T10:06:57Z</time></trkpt><trkpt lat="47.15075877194154" lon="5.598391365886255"><ele>231.0</ele><time>2026-03-28T10:06:58Z</time></trkpt><trkpt lat="47.15063853883686" lon="5.598036356136331"><ele>235.0</ele><time>2026-03-28T10:06:59Z</time></trkpt><trkpt lat="47.150519894733485" lon="5.597681375667041"><ele>239.0</ele><time>2026-03-28T10:07:00Z</time></trkpt><trkpt lat="47.15040410719211" lon="5.597325063030247"><ele>238.5</ele><time>2026-03-28T10:07:01Z</time></trkpt><trkpt lat="47.150292036746556" lon="5.59696595882367"><ele>238.0</ele><time>2026-03-28T10:07:02Z</time></trkpt><trkpt lat="47.15018182769805" lon="5.596601290320808"><ele>238.0</ele><time>2026-03-28T10:07:03Z</time></trkpt><trkpt lat="47.15007635124331" lon="5.596232277872012"><ele>238.0</ele><time>2026-03-28T10:07:04Z</time></trkpt><trkpt lat="47.14997466245106" lon="5.595860562173857"><ele>239.5</ele><time>2026-03-28T10:07:05Z</time></trkpt><trkpt lat="47.14987919975333" lon="5.595484695086406"><ele>241.0</ele><time>2026-03-28T10:07:06Z</time></trkpt><trkpt lat="47.149784110930305" lon="5.595111339522479"><ele>242.5</ele><time>2026-03-28T10:07:07Z</time></trkpt><trkpt lat="47.1496953572425" lon="5.594733560617367"><ele>244.0</ele><time>2026-03-28T10:07:08Z</time></trkpt><trkpt lat="47.14961153968231" lon="5.5943484445425"><ele>244.0</ele><time>2026-03-28T10:07:09Z</time></trkpt><trkpt lat="47.14953185724942" lon="5.5939636327358695"><ele>244.0</ele><time>2026-03-28T10:07:10Z</time></trkpt><trkpt lat="47.14945726994231" lon="5.593581426091864"><ele>243.5</ele><time>2026-03-28T10:07:11Z</time></trkpt><trkpt lat="47.14939141786348" lon="5.593194725628645"><ele>243.0</ele><time>2026-03-28T10:07:12Z</time></trkpt><trkpt lat="47.14932539092132" lon="5.5928062219588695"><ele>243.0</ele><time>2026-03-28T10:07:13Z</time></trkpt><trkpt lat="47.1492665757441" lon="5.592415256104504"><ele>243.0</ele><time>2026-03-28T10:07:14Z</time></trkpt><trkpt lat="47.14920956593629" lon="5.592026795136076"><ele>243.0</ele><time>2026-03-28T10:07:15Z</time></trkpt><trkpt lat="47.149155053590306" lon="5.591637468714163"><ele>243.0</ele><time>2026-03-28T10:07:16Z</time></trkpt><trkpt lat="47.149104011533346" lon="5.591243502020457"><ele>244.0</ele><time>2026-03-28T10:07:17Z</time></trkpt><trkpt lat="47.14905545056521" lon="5.590849790917538"><ele>245.0</ele><time>2026-03-28T10:07:18Z</time></trkpt><trkpt lat="47.14901070979338" lon="5.590455138273848"><ele>244.0</ele><time>2026-03-28T10:07:19Z</time></trkpt><trkpt lat="47.14896512904506" lon="5.590058873606018"><ele>243.0</ele><time>2026-03-28T10:07:20Z</time></trkpt><trkpt lat="47.14892231653053" lon="5.589659308839445"><ele>243.5</ele><time>2026-03-28T10:07:21Z</time></trkpt><trkpt lat="47.14888471979882" lon="5.589261581808086"><ele>244.0</ele><time>2026-03-28T10:07:22Z</time></trkpt><trkpt lat="47.14884360384565" lon="5.588863495890825"><ele>244.0</ele><time>2026-03-28T10:07:23Z</time></trkpt><trkpt lat="47.14880674405055" lon="5.588465493503657"><ele>244.0</ele><time>2026-03-28T10:07:24Z</time></trkpt><trkpt lat="47.148771567449586" lon="5.588065275847595"><ele>243.5</ele><time>2026-03-28T10:07:25Z</time></trkpt><trkpt lat="47.148734516219456" lon="5.587663070288095"><ele>243.0</ele><time>2026-03-28T10:07:26Z</time></trkpt><trkpt lat="47.1487017026121" lon="5.587261266568876"><ele>242.5</ele><time>2026-03-28T10:07:27Z</time></trkpt><trkpt lat="47.14866547458129" lon="5.586858868821116"><ele>242.0</ele><time>2026-03-28T10:07:28Z</time></trkpt><trkpt lat="47.1486355835013" lon="5.586453285037143"><ele>242.5</ele><time>2026-03-28T10:07:29Z</time></trkpt><trkpt lat="47.148597615261544" lon="5.586053329841866"><ele>243.0</ele><time>2026-03-28T10:07:30Z</time></trkpt><trkpt lat="47.14856219943259" lon="5.585650100965113"><ele>243.0</ele><time>2026-03-28T10:07:31Z</time></trkpt><trkpt lat="47.14852416306976" lon="5.585242602440632"><ele>243.0</ele><time>2026-03-28T10:07:32Z</time></trkpt><trkpt lat="47.14848755900391" lon="5.5848412578737685"><ele>242.0</ele><time>2026-03-28T10:07:33Z</time></trkpt><trkpt lat="47.14845694826684" lon="5.5844384476110065"><ele>241.0</ele><time>2026-03-28T10:07:34Z</time></trkpt><trkpt lat="47.148422129145224" lon="5.584040136654831"><ele>241.0</ele><time>2026-03-28T10:07:35Z</time></trkpt><trkpt lat="47.14839322957238" lon="5.583631455511876"><ele>241.0</ele><time>2026-03-28T10:07:36Z</time></trkpt><trkpt lat="47.14835829858966" lon="5.5832278653083645"><ele>242.5</ele><time>2026-03-28T10:07:37Z</time></trkpt><trkpt lat="47.14832324774556" lon="5.582827872324309"><ele>244.0</ele><time>2026-03-28T10:07:38Z</time></trkpt><trkpt lat="47.14828620968487" lon="5.582426972102396"><ele>244.0</ele><time>2026-03-28T10:07:39Z</time></trkpt><trkpt lat="47.14824464848474" lon="5.582027121923068"><ele>244.0</ele><time>2026-03-28T10:07:40Z</time></trkpt><trkpt lat="47.14820162205754" lon="5.581620181481909"><ele>241.0</ele><time>2026-03-28T10:07:41Z</time></trkpt><trkpt lat="47.148152145405355" lon="5.581220313659985"><ele>238.0</ele><time>2026-03-28T10:07:42Z</time></trkpt><trkpt lat="47.148101377918664" lon="5.580816830194923"><ele>238.0</ele><time>2026-03-28T10:07:43Z</time></trkpt><trkpt lat="47.14804822844076" lon="5.58041147167313"><ele>238.0</ele><time>2026-03-28T10:07:44Z</time></trkpt><trkpt lat="47.147990384872216" lon="5.580011454363165"><ele>237.5</ele><time>2026-03-28T10:07:45Z</time></trkpt><trkpt lat="47.14792995417476" lon="5.579614937438031"><ele>237.0</ele><time>2026-03-28T10:07:46Z</time></trkpt><trkpt lat="47.14786729898577" lon="5.579214462596335"><ele>235.5</ele><time>2026-03-28T10:07:47Z</time></trkpt><trkpt lat="47.147802371688655" lon="5.578818394240618"><ele>234.0</ele><time>2026-03-28T10:07:48Z</time></trkpt><trkpt lat="47.14773663506356" lon="5.57842213226578"><ele>234.0</ele><time>2026-03-28T10:07:49Z</time></trkpt><trkpt lat="47.14766779332684" lon="5.578026149081832"><ele>234.0</ele><time>2026-03-28T10:07:50Z</time></trkpt><trkpt lat="47.14759927846969" lon="5.577638600277792"><ele>234.0</ele><time>2026-03-28T10:07:51Z</time></trkpt><trkpt lat="47.147527273278286" lon="5.577252646904849"><ele>234.0</ele><time>2026-03-28T10:07:52Z</time></trkpt><trkpt lat="47.14745169125571" lon="5.57686314619783"><ele>234.0</ele><time>2026-03-28T10:07:53Z</time></trkpt><trkpt lat="47.14737148005461" lon="5.576477855347272"><ele>234.0</ele><time>2026-03-28T10:07:54Z</time></trkpt><trkpt lat="47.14728784077739" lon="5.576097025083854"><ele>234.0</ele><time>2026-03-28T10:07:55Z</time></trkpt><trkpt lat="47.147203921845055" lon="5.575714170589185"><ele>234.0</ele><time>2026-03-28T10:07:56Z</time></trkpt><trkpt lat="47.147120783701695" lon="5.575330733386632"><ele>235.0</ele><time>2026-03-28T10:07:57Z</time></trkpt><trkpt lat="47.1470405755054" lon="5.57494497854235"><ele>236.0</ele><time>2026-03-28T10:07:58Z</time></trkpt><trkpt lat="47.14695824619977" lon="5.574561192123439"><ele>236.0</ele><time>2026-03-28T10:07:59Z</time></trkpt><trkpt lat="47.146873999076895" lon="5.574179544633915"><ele>236.0</ele><time>2026-03-28T10:08:00Z</time></trkpt><trkpt lat="47.1467901518938" lon="5.573800244167926"><ele>234.0</ele><time>2026-03-28T10:08:01Z</time></trkpt><trkpt lat="47.146701679726796" lon="5.5734227504443705"><ele>232.0</ele><time>2026-03-28T10:08:02Z</time></trkpt><trkpt lat="47.14661420912959" lon="5.573048401256204"><ele>231.5</ele><time>2026-03-28T10:08:03Z</time></trkpt><trkpt lat="47.146523654231245" lon="5.572670634093522"><ele>231.0</ele><time>2026-03-28T10:08:04Z</time></trkpt><trkpt lat="47.146431671643086" lon="5.572296025606923"><ele>229.5</ele><time>2026-03-28T10:08:05Z</time></trkpt><trkpt lat="47.14633643686803" lon="5.571917687507193"><ele>228.0</ele><time>2026-03-28T10:08:06Z</time></trkpt><trkpt lat="47.14624313617384" lon="5.571543958073835"><ele>227.5</ele><time>2026-03-28T10:08:07Z</time></trkpt><trkpt lat="47.14614777314479" lon="5.571171315199407"><ele>227.0</ele><time>2026-03-28T10:08:08Z</time></trkpt><trkpt lat="47.14605311438872" lon="5.57079928993359"><ele>227.0</ele><time>2026-03-28T10:08:09Z</time></trkpt><trkpt lat="47.1459560236051" lon="5.570427185327958"><ele>227.0</ele><time>2026-03-28T10:08:10Z</time></trkpt><trkpt lat="47.145861349619025" lon="5.570053391499363"><ele>227.0</ele><time>2026-03-28T10:08:11Z</time></trkpt><trkpt lat="47.14576989437495" lon="5.569676829002226"><ele>227.0</ele><time>2026-03-28T10:08:12Z</time></trkpt><trkpt lat="47.14567356934016" lon="5.569302560795397"><ele>229.5</ele><time>2026-03-28T10:08:13Z</time></trkpt><trkpt lat="47.145574123666464" lon="5.56893259343677"><ele>232.0</ele><time>2026-03-28T10:08:14Z</time></trkpt><trkpt lat="47.14547277624868" lon="5.568560153065637"><ele>232.0</ele><time>2026-03-28T10:08:15Z</time></trkpt><trkpt lat="47.14537192092069" lon="5.568183525345924"><ele>232.0</ele><time>2026-03-28T10:08:16Z</time></trkpt><trkpt lat="47.14526882530113" lon="5.56781374436822"><ele>230.5</ele><time>2026-03-28T10:08:17Z</time></trkpt><trkpt lat="47.145162494831965" lon="5.567441599299341"><ele>229.0</ele><time>2026-03-28T10:08:18Z</time></trkpt><trkpt lat="47.1450564533697" lon="5.567069267854824"><ele>228.5</ele><time>2026-03-28T10:08:19Z</time></trkpt><trkpt lat="47.14494814179967" lon="5.5666993300853855"><ele>228.0</ele><time>2026-03-28T10:08:20Z</time></trkpt><trkpt lat="47.144836452277225" lon="5.566329753100471"><ele>225.5</ele><time>2026-03-28T10:08:21Z</time></trkpt><trkpt lat="47.14472291368328" lon="5.565957703381936"><ele>223.0</ele><time>2026-03-28T10:08:22Z</time></trkpt><trkpt lat="47.14460941791187" lon="5.565585310041778"><ele>221.5</ele><time>2026-03-28T10:08:23Z</time></trkpt><trkpt lat="47.14449392810195" lon="5.565219659932811"><ele>220.0</ele><time>2026-03-28T10:08:24Z</time></trkpt><trkpt lat="47.144375497200876" lon="5.56484781673476"><ele>219.0</ele><time>2026-03-28T10:08:25Z</time></trkpt><trkpt lat="47.14425740041809" lon="5.564474947212821"><ele>218.0</ele><time>2026-03-28T10:08:26Z</time></trkpt><trkpt lat="47.14414250195506" lon="5.5641067682976"><ele>216.5</ele><time>2026-03-28T10:08:27Z</time></trkpt><trkpt lat="47.144025737965706" lon="5.563738252577338"><ele>215.0</ele><time>2026-03-28T10:08:28Z</time></trkpt><trkpt lat="47.14390370907261" lon="5.563372944795402"><ele>214.0</ele><time>2026-03-28T10:08:29Z</time></trkpt><trkpt lat="47.143784689913076" lon="5.563005311944563"><ele>213.0</ele><time>2026-03-28T10:08:30Z</time></trkpt><trkpt lat="47.14366653172119" lon="5.562636896086855"><ele>213.0</ele><time>2026-03-28T10:08:31Z</time></trkpt><trkpt lat="47.14354861744282" lon="5.562266772855201"><ele>213.0</ele><time>2026-03-28T10:08:32Z</time></trkpt><trkpt lat="47.14342818955087" lon="5.56190044293456"><ele>212.0</ele><time>2026-03-28T10:08:33Z</time></trkpt><trkpt lat="47.14330599188981" lon="5.561533489382427"><ele>211.0</ele><time>2026-03-28T10:08:34Z</time></trkpt><trkpt lat="47.143184097055375" lon="5.561165134230135"><ele>210.0</ele><time>2026-03-28T10:08:35Z</time></trkpt><trkpt lat="47.14306133994611" lon="5.560797654309649"><ele>209.0</ele><time>2026-03-28T10:08:36Z</time></trkpt><trkpt lat="47.14293855538854" lon="5.560435222150195"><ele>209.0</ele><time>2026-03-28T10:08:37Z</time></trkpt><trkpt lat="47.14281749990288" lon="5.560070926085563"><ele>209.0</ele><time>2026-03-28T10:08:38Z</time></trkpt><trkpt lat="47.14269572407208" lon="5.5597063851254696"><ele>209.0</ele><time>2026-03-28T10:08:39Z</time></trkpt><trkpt lat="47.14257413389432" lon="5.559342822381813"><ele>209.0</ele><time>2026-03-28T10:08:40Z</time></trkpt><trkpt lat="47.1424537173161" lon="5.5589770998923616"><ele>207.5</ele><time>2026-03-28T10:08:41Z</time></trkpt><trkpt lat="47.14233109051915" lon="5.558615986295735"><ele>206.0</ele><time>2026-03-28T10:08:42Z</time></trkpt><trkpt lat="47.14220775789937" lon="5.558253765865626"><ele>206.0</ele><time>2026-03-28T10:08:43Z</time></trkpt><trkpt lat="47.1420830609956" lon="5.557893342798547"><ele>206.0</ele><time>2026-03-28T10:08:44Z</time></trkpt><trkpt lat="47.141959266220745" lon="5.557533886484333"><ele>206.0</ele><time>2026-03-28T10:08:45Z</time></trkpt><trkpt lat="47.14183596692371" lon="5.557174168967081"><ele>206.0</ele><time>2026-03-28T10:08:46Z</time></trkpt><trkpt lat="47.14171395421135" lon="5.556813853649333"><ele>206.0</ele><time>2026-03-28T10:08:47Z</time></trkpt><trkpt lat="47.14159063958781" lon="5.556456056373272"><ele>206.0</ele><time>2026-03-28T10:08:48Z</time></trkpt><trkpt lat="47.14146774177437" lon="5.556095714122952"><ele>207.0</ele><time>2026-03-28T10:08:49Z</time></trkpt><trkpt lat="47.14134218246358" lon="5.5557406742170095"><ele>208.0</ele><time>2026-03-28T10:08:50Z</time></trkpt><trkpt lat="47.141219990229274" lon="5.555381455230509"><ele>207.5</ele><time>2026-03-28T10:08:51Z</time></trkpt><trkpt lat="47.14109766153634" lon="5.555027284007156"><ele>207.0</ele><time>2026-03-28T10:08:52Z</time></trkpt><trkpt lat="47.1409801116997" lon="5.554677370754243"><ele>207.0</ele><time>2026-03-28T10:08:53Z</time></trkpt><trkpt lat="47.140866779492455" lon="5.5543307254500895"><ele>207.0</ele><time>2026-03-28T10:08:54Z</time></trkpt><trkpt lat="47.14075751027866" lon="5.553990783364726"><ele>208.0</ele><time>2026-03-28T10:08:55Z</time></trkpt><trkpt lat="47.14064871966742" lon="5.553653441669012"><ele>209.0</ele><time>2026-03-28T10:08:56Z</time></trkpt><trkpt lat="47.140539232797565" lon="5.553314372185519"><ele>209.0</ele><time>2026-03-28T10:08:57Z</time></trkpt><trkpt lat="47.14042926660354" lon="5.5529775400917325"><ele>209.0</ele><time>2026-03-28T10:08:58Z</time></trkpt><trkpt lat="47.14031614194354" lon="5.552643403447541"><ele>210.5</ele><time>2026-03-28T10:08:59Z</time></trkpt><trkpt lat="47.140208602312455" lon="5.552312106040712"><ele>212.0</ele><time>2026-03-28T10:09:00Z</time></trkpt><trkpt lat="47.14010086784649" lon="5.551987823499515"><ele>213.0</ele><time>2026-03-28T10:09:01Z</time></trkpt><trkpt lat="47.139997551237556" lon="5.551663836753257"><ele>214.0</ele><time>2026-03-28T10:09:02Z</time></trkpt><trkpt lat="47.139896149889914" lon="5.551346299527244"><ele>213.5</ele><time>2026-03-28T10:09:03Z</time></trkpt><trkpt lat="47.139795496390335" lon="5.55103166924808"><ele>213.0</ele><time>2026-03-28T10:09:04Z</time></trkpt><trkpt lat="47.13969393342336" lon="5.5507128837223965"><ele>213.0</ele><time>2026-03-28T10:09:05Z</time></trkpt><trkpt lat="47.13959244231701" lon="5.550387529486179"><ele>213.0</ele><time>2026-03-28T10:09:06Z</time></trkpt><trkpt lat="47.13949007990691" lon="5.550052756486807"><ele>213.5</ele><time>2026-03-28T10:09:07Z</time></trkpt><trkpt lat="47.139387502628026" lon="5.549715457220438"><ele>214.0</ele><time>2026-03-28T10:09:08Z</time></trkpt><trkpt lat="47.13928602218273" lon="5.54937431077372"><ele>215.5</ele><time>2026-03-28T10:09:09Z</time></trkpt><trkpt lat="47.13918190145782" lon="5.549028382349621"><ele>217.0</ele><time>2026-03-28T10:09:10Z</time></trkpt><trkpt lat="47.139081351801316" lon="5.548673650028577"><ele>216.5</ele><time>2026-03-28T10:09:11Z</time></trkpt><trkpt lat="47.138974675722714" lon="5.548317041424182"><ele>216.0</ele><time>2026-03-28T10:09:12Z</time></trkpt><trkpt lat="47.13887086911065" lon="5.547955342631662"><ele>216.0</ele><time>2026-03-28T10:09:13Z</time></trkpt><trkpt lat="47.13876613937062" lon="5.54758734861866"><ele>216.0</ele><time>2026-03-28T10:09:14Z</time></trkpt><trkpt lat="47.138664159359045" lon="5.547224696385405"><ele>217.0</ele><time>2026-03-28T10:09:15Z</time></trkpt><trkpt lat="47.13856328011089" lon="5.546853703786805"><ele>218.0</ele><time>2026-03-28T10:09:16Z</time></trkpt><trkpt lat="47.138457996346716" lon="5.546484275283524"><ele>218.5</ele><time>2026-03-28T10:09:17Z</time></trkpt><trkpt lat="47.13835936991259" lon="5.546111015762383"><ele>219.0</ele><time>2026-03-28T10:09:18Z</time></trkpt><trkpt lat="47.138263120507546" lon="5.5457329084490325"><ele>221.0</ele><time>2026-03-28T10:09:19Z</time></trkpt><trkpt lat="47.138168110988495" lon="5.5453571643828585"><ele>223.0</ele><time>2026-03-28T10:09:20Z</time></trkpt><trkpt lat="47.13807079943769" lon="5.544974513583631"><ele>223.0</ele><time>2026-03-28T10:09:21Z</time></trkpt><trkpt lat="47.137978924035906" lon="5.544590080624514"><ele>223.0</ele><time>2026-03-28T10:09:22Z</time></trkpt><trkpt lat="47.13788594585141" lon="5.54420505893136"><ele>223.5</ele><time>2026-03-28T10:09:23Z</time></trkpt><trkpt lat="47.13779638461445" lon="5.543813628851265"><ele>224.0</ele><time>2026-03-28T10:09:24Z</time></trkpt><trkpt lat="47.13770890392601" lon="5.543421889117283"><ele>224.5</ele><time>2026-03-28T10:09:25Z</time></trkpt><trkpt lat="47.13762298179317" lon="5.54303234054405"><ele>225.0</ele><time>2026-03-28T10:09:26Z</time></trkpt><trkpt lat="47.13753987102809" lon="5.542645336496836"><ele>225.0</ele><time>2026-03-28T10:09:27Z</time></trkpt><trkpt lat="47.1374584903834" lon="5.542255545978436"><ele>225.0</ele><time>2026-03-28T10:09:28Z</time></trkpt><trkpt lat="47.137380347462056" lon="5.54186523512139"><ele>227.5</ele><time>2026-03-28T10:09:29Z</time></trkpt><trkpt lat="47.13730681402329" lon="5.541473380564134"><ele>230.0</ele><time>2026-03-28T10:09:30Z</time></trkpt><trkpt lat="47.137237646452434" lon="5.5410782630726745"><ele>231.0</ele><time>2026-03-28T10:09:31Z</time></trkpt><trkpt lat="47.13716732681974" lon="5.540685495140164"><ele>232.0</ele><time>2026-03-28T10:09:32Z</time></trkpt><trkpt lat="47.137103960037166" lon="5.5402956246761725"><ele>232.0</ele><time>2026-03-28T10:09:33Z</time></trkpt><trkpt lat="47.13703876873418" lon="5.539906764686972"><ele>232.0</ele><time>2026-03-28T10:09:34Z</time></trkpt><trkpt lat="47.13697927239066" lon="5.539513216128079"><ele>232.0</ele><time>2026-03-28T10:09:35Z</time></trkpt><trkpt lat="47.13692371820063" lon="5.539121304783383"><ele>232.0</ele><time>2026-03-28T10:09:36Z</time></trkpt><trkpt lat="47.136869165125134" lon="5.538729608493211"><ele>230.5</ele><time>2026-03-28T10:09:37Z</time></trkpt><trkpt lat="47.13681788663577" lon="5.538337903325926"><ele>229.0</ele><time>2026-03-28T10:09:38Z</time></trkpt><trkpt lat="47.136774961419405" lon="5.537942454868198"><ele>228.5</ele><time>2026-03-28T10:09:39Z</time></trkpt><trkpt lat="47.136735175956225" lon="5.537550346786474"><ele>228.0</ele><time>2026-03-28T10:09:40Z</time></trkpt><trkpt lat="47.13669568155161" lon="5.537157204291847"><ele>228.0</ele><time>2026-03-28T10:09:41Z</time></trkpt><trkpt lat="47.13665605646913" lon="5.536759139203628"><ele>228.0</ele><time>2026-03-28T10:09:42Z</time></trkpt><trkpt lat="47.13661888788636" lon="5.536364360981434"><ele>228.0</ele><time>2026-03-28T10:09:43Z</time></trkpt><trkpt lat="47.13658151108635" lon="5.535964960863989"><ele>228.0</ele><time>2026-03-28T10:09:44Z</time></trkpt><trkpt lat="47.13654791501963" lon="5.535561737975011"><ele>230.0</ele><time>2026-03-28T10:09:45Z</time></trkpt><trkpt lat="47.13651498701608" lon="5.5351594784638465"><ele>232.0</ele><time>2026-03-28T10:09:46Z</time></trkpt><trkpt lat="47.13648778866209" lon="5.534759185342265"><ele>232.0</ele><time>2026-03-28T10:09:47Z</time></trkpt><trkpt lat="47.13646163639834" lon="5.5343503489393076"><ele>232.0</ele><time>2026-03-28T10:09:48Z</time></trkpt><trkpt lat="47.13643951874812" lon="5.533944405138416"><ele>232.5</ele><time>2026-03-28T10:09:49Z</time></trkpt><trkpt lat="47.13641735828963" lon="5.53353928884063"><ele>233.0</ele><time>2026-03-28T10:09:50Z</time></trkpt><trkpt lat="47.13639782701927" lon="5.533134273738749"><ele>233.0</ele><time>2026-03-28T10:09:51Z</time></trkpt><trkpt lat="47.13638513774231" lon="5.5327245679185575"><ele>233.0</ele><time>2026-03-28T10:09:52Z</time></trkpt><trkpt lat="47.13637498552011" lon="5.532315185508538"><ele>232.0</ele><time>2026-03-28T10:09:53Z</time></trkpt><trkpt lat="47.13636703482405" lon="5.531911526814858"><ele>231.0</ele><time>2026-03-28T10:09:54Z</time></trkpt><trkpt lat="47.13636117893039" lon="5.531505207654226"><ele>231.0</ele><time>2026-03-28T10:09:55Z</time></trkpt><trkpt lat="47.13635865251332" lon="5.531097754360314"><ele>231.0</ele><time>2026-03-28T10:09:56Z</time></trkpt><trkpt lat="47.13636059472332" lon="5.530690651620186"><ele>230.5</ele><time>2026-03-28T10:09:57Z</time></trkpt><trkpt lat="47.13636436207896" lon="5.530287775699053"><ele>230.0</ele><time>2026-03-28T10:09:58Z</time></trkpt><trkpt lat="47.13637275488464" lon="5.529883671638112"><ele>230.0</ele><time>2026-03-28T10:09:59Z</time></trkpt><trkpt lat="47.13638049700864" lon="5.529479681825703"><ele>230.0</ele><time>2026-03-28T10:10:00Z</time></trkpt><trkpt lat="47.13638958614806" lon="5.5290787955506495"><ele>230.0</ele><time>2026-03-28T10:10:01Z</time></trkpt><trkpt lat="47.13640359305849" lon="5.528677024663183"><ele>230.0</ele><time>2026-03-28T10:10:02Z</time></trkpt><trkpt lat="47.136421091527616" lon="5.528274652795156"><ele>231.5</ele><time>2026-03-28T10:10:03Z</time></trkpt><trkpt lat="47.136441295994445" lon="5.527869134905357"><ele>233.0</ele><time>2026-03-28T10:10:04Z</time></trkpt><trkpt lat="47.13646217664446" lon="5.527464296469046"><ele>233.0</ele><time>2026-03-28T10:10:05Z</time></trkpt><trkpt lat="47.136485630205044" lon="5.527061189384103"><ele>233.0</ele><time>2026-03-28T10:10:06Z</time></trkpt><trkpt lat="47.13651454638889" lon="5.52665689053312"><ele>233.0</ele><time>2026-03-28T10:10:07Z</time></trkpt><trkpt lat="47.13654398208737" lon="5.526250176278349"><ele>233.0</ele><time>2026-03-28T10:10:08Z</time></trkpt><trkpt lat="47.136578418394386" lon="5.5258501416992285"><ele>236.0</ele><time>2026-03-28T10:10:09Z</time></trkpt><trkpt lat="47.13661619826551" lon="5.525446202197393"><ele>239.0</ele><time>2026-03-28T10:10:10Z</time></trkpt><trkpt lat="47.13665465394433" lon="5.525043042612353"><ele>239.0</ele><time>2026-03-28T10:10:11Z</time></trkpt><trkpt lat="47.13669743032022" lon="5.524640590763879"><ele>239.0</ele><time>2026-03-28T10:10:12Z</time></trkpt><trkpt lat="47.13674127668309" lon="5.524242058844512"><ele>239.0</ele><time>2026-03-28T10:10:13Z</time></trkpt><trkpt lat="47.13678790529488" lon="5.523842415527219"><ele>239.0</ele><time>2026-03-28T10:10:14Z</time></trkpt><trkpt lat="47.13683661286848" lon="5.523440036157363"><ele>239.0</ele><time>2026-03-28T10:10:15Z</time></trkpt><trkpt lat="47.13688562016637" lon="5.523039434566766"><ele>239.0</ele><time>2026-03-28T10:10:16Z</time></trkpt><trkpt lat="47.136939777763416" lon="5.5226406964049035"><ele>238.5</ele><time>2026-03-28T10:10:17Z</time></trkpt><trkpt lat="47.13699312216294" lon="5.522239444998832"><ele>238.0</ele><time>2026-03-28T10:10:18Z</time></trkpt><trkpt lat="47.137049226243654" lon="5.521836992298161"><ele>238.0</ele><time>2026-03-28T10:10:19Z</time></trkpt><trkpt lat="47.13710685868582" lon="5.521434539341927"><ele>238.0</ele><time>2026-03-28T10:10:20Z</time></trkpt><trkpt lat="47.13716401847214" lon="5.521034685613551"><ele>239.5</ele><time>2026-03-28T10:10:21Z</time></trkpt><trkpt lat="47.13722113941445" lon="5.520631720111337"><ele>241.0</ele><time>2026-03-28T10:10:22Z</time></trkpt><trkpt lat="47.13727837594578" lon="5.520230434247267"><ele>241.0</ele><time>2026-03-28T10:10:23Z</time></trkpt><trkpt lat="47.13733536041512" lon="5.519829158704108"><ele>241.0</ele><time>2026-03-28T10:10:24Z</time></trkpt><trkpt lat="47.137393719344075" lon="5.519428469454562"><ele>243.0</ele><time>2026-03-28T10:10:25Z</time></trkpt><trkpt lat="47.13745400259365" lon="5.519029138937755"><ele>245.0</ele><time>2026-03-28T10:10:26Z</time></trkpt><trkpt lat="47.137518059470324" lon="5.518630248428232"><ele>245.0</ele><time>2026-03-28T10:10:27Z</time></trkpt><trkpt lat="47.13758236094277" lon="5.518232926193377"><ele>245.0</ele><time>2026-03-28T10:10:28Z</time></trkpt><trkpt lat="47.13764613685602" lon="5.517834772405158"><ele>245.0</ele><time>2026-03-28T10:10:29Z</time></trkpt><trkpt lat="47.137707515809744" lon="5.517437190286147"><ele>245.0</ele><time>2026-03-28T10:10:30Z</time></trkpt><trkpt lat="47.13777080457901" lon="5.51704060594726"><ele>244.5</ele><time>2026-03-28T10:10:31Z</time></trkpt><trkpt lat="47.13783155020373" lon="5.516643612818868"><ele>244.0</ele><time>2026-03-28T10:10:32Z</time></trkpt><trkpt lat="47.13788730309165" lon="5.516243023963903"><ele>244.5</ele><time>2026-03-28T10:10:33Z</time></trkpt><trkpt lat="47.13794669799385" lon="5.515844434138011"><ele>245.0</ele><time>2026-03-28T10:10:34Z</time></trkpt><trkpt lat="47.13799963273342" lon="5.515446941175913"><ele>246.0</ele><time>2026-03-28T10:10:35Z</time></trkpt><trkpt lat="47.13805271795623" lon="5.515056196400414"><ele>247.0</ele><time>2026-03-28T10:10:36Z</time></trkpt><trkpt lat="47.13809939833713" lon="5.514666346327541"><ele>248.5</ele><time>2026-03-28T10:10:37Z</time></trkpt><trkpt lat="47.13815315294758" lon="5.514278527559274"><ele>250.0</ele><time>2026-03-28T10:10:38Z</time></trkpt><trkpt lat="47.13819723262621" lon="5.513883993904485"><ele>253.0</ele><time>2026-03-28T10:10:39Z</time></trkpt><trkpt lat="47.1382448906982" lon="5.513494355775147"><ele>256.0</ele><time>2026-03-28T10:10:40Z</time></trkpt><trkpt lat="47.13828617609669" lon="5.5131025041058095"><ele>257.0</ele><time>2026-03-28T10:10:41Z</time></trkpt><trkpt lat="47.13832796370551" lon="5.512711193638186"><ele>258.0</ele><time>2026-03-28T10:10:42Z</time></trkpt><trkpt lat="47.13836600496692" lon="5.512314467774762"><ele>256.0</ele><time>2026-03-28T10:10:43Z</time></trkpt><trkpt lat="47.138404267793" lon="5.51192110940289"><ele>254.0</ele><time>2026-03-28T10:10:44Z</time></trkpt><trkpt lat="47.13843904843126" lon="5.511522522586339"><ele>254.5</ele><time>2026-03-28T10:10:45Z</time></trkpt><trkpt lat="47.138465947187136" lon="5.511123658100897"><ele>255.0</ele><time>2026-03-28T10:10:46Z</time></trkpt><trkpt lat="47.13849481885541" lon="5.510724754915513"><ele>255.0</ele><time>2026-03-28T10:10:47Z</time></trkpt><trkpt lat="47.1385192566033" lon="5.510326627506813"><ele>255.0</ele><time>2026-03-28T10:10:48Z</time></trkpt><trkpt lat="47.13853909048072" lon="5.509928426120105"><ele>254.0</ele><time>2026-03-28T10:10:49Z</time></trkpt><trkpt lat="47.1385583048417" lon="5.509534243610048"><ele>253.0</ele><time>2026-03-28T10:10:50Z</time></trkpt><trkpt lat="47.138571725415034" lon="5.509134321058088"><ele>252.0</ele><time>2026-03-28T10:10:51Z</time></trkpt><trkpt lat="47.138584671683375" lon="5.508738276213637"><ele>251.0</ele><time>2026-03-28T10:10:52Z</time></trkpt><trkpt lat="47.138594737498394" lon="5.508337608215298"><ele>251.0</ele><time>2026-03-28T10:10:53Z</time></trkpt><trkpt lat="47.13859834577447" lon="5.507933774403064"><ele>251.0</ele><time>2026-03-28T10:10:54Z</time></trkpt><trkpt lat="47.13859746696457" lon="5.507532702186563"><ele>251.0</ele><time>2026-03-28T10:10:55Z</time></trkpt><trkpt lat="47.13859671195426" lon="5.507134210383233"><ele>251.0</ele><time>2026-03-28T10:10:56Z</time></trkpt><trkpt lat="47.138594342821065" lon="5.506736349379623"><ele>251.0</ele><time>2026-03-28T10:10:57Z</time></trkpt><trkpt lat="47.13858825429096" lon="5.5063425894836735"><ele>251.0</ele><time>2026-03-28T10:10:58Z</time></trkpt><trkpt lat="47.13857761556753" lon="5.505950651303023"><ele>251.5</ele><time>2026-03-28T10:10:59Z</time></trkpt><trkpt lat="47.138561983167975" lon="5.505556621757926"><ele>252.0</ele><time>2026-03-28T10:11:00Z</time></trkpt><trkpt lat="47.138544309974144" lon="5.505164567656318"><ele>253.0</ele><time>2026-03-28T10:11:01Z</time></trkpt><trkpt lat="47.13851934105493" lon="5.504772493044586"><ele>254.0</ele><time>2026-03-28T10:11:02Z</time></trkpt><trkpt lat="47.13849498775873" lon="5.504376362795212"><ele>254.0</ele><time>2026-03-28T10:11:03Z</time></trkpt><trkpt lat="47.13846774906408" lon="5.503982611956862"><ele>254.0</ele><time>2026-03-28T10:11:04Z</time></trkpt><trkpt lat="47.13843900998467" lon="5.503589647788413"><ele>254.0</ele><time>2026-03-28T10:11:05Z</time></trkpt><trkpt lat="47.13840472653471" lon="5.503205683069586"><ele>254.0</ele><time>2026-03-28T10:11:06Z</time></trkpt><trkpt lat="47.13836700787884" lon="5.502832893956963"><ele>252.0</ele><time>2026-03-28T10:11:07Z</time></trkpt><trkpt lat="47.13832590842239" lon="5.502464023895932"><ele>250.0</ele><time>2026-03-28T10:11:08Z</time></trkpt><trkpt lat="47.13828062680615" lon="5.5020952133406675"><ele>249.0</ele><time>2026-03-28T10:11:09Z</time></trkpt><trkpt lat="47.138231234079115" lon="5.50172490246545"><ele>248.0</ele><time>2026-03-28T10:11:10Z</time></trkpt><trkpt lat="47.13817452024724" lon="5.501352591095225"><ele>250.5</ele><time>2026-03-28T10:11:11Z</time></trkpt><trkpt lat="47.13811819592727" lon="5.500976400054496"><ele>253.0</ele><time>2026-03-28T10:11:12Z</time></trkpt><trkpt lat="47.13806006802222" lon="5.500596807187031"><ele>254.5</ele><time>2026-03-28T10:11:13Z</time></trkpt><trkpt lat="47.138002123166814" lon="5.5002186705083345"><ele>256.0</ele><time>2026-03-28T10:11:14Z</time></trkpt><trkpt lat="47.137940156341635" lon="5.499840376805483"><ele>257.5</ele><time>2026-03-28T10:11:15Z</time></trkpt><trkpt lat="47.1378797898811" lon="5.499464246448802"><ele>259.0</ele><time>2026-03-28T10:11:16Z</time></trkpt><trkpt lat="47.137816370555356" lon="5.499087272870892"><ele>261.0</ele><time>2026-03-28T10:11:17Z</time></trkpt><trkpt lat="47.137748255840954" lon="5.4987093628232175"><ele>263.0</ele><time>2026-03-28T10:11:18Z</time></trkpt><trkpt lat="47.13767547982456" lon="5.498324238148888"><ele>263.0</ele><time>2026-03-28T10:11:19Z</time></trkpt><trkpt lat="47.137601428823885" lon="5.497943704398859"><ele>263.0</ele><time>2026-03-28T10:11:20Z</time></trkpt><trkpt lat="47.13752054458916" lon="5.497561869721489"><ele>262.0</ele><time>2026-03-28T10:11:21Z</time></trkpt><trkpt lat="47.137435286759846" lon="5.497166847646729"><ele>261.0</ele><time>2026-03-28T10:11:22Z</time></trkpt><trkpt lat="47.1373539797615" lon="5.4967812753975895"><ele>263.0</ele><time>2026-03-28T10:11:23Z</time></trkpt><trkpt lat="47.137270344283934" lon="5.4964035884357605"><ele>265.0</ele><time>2026-03-28T10:11:24Z</time></trkpt><trkpt lat="47.13718620072389" lon="5.4960189968844935"><ele>265.0</ele><time>2026-03-28T10:11:25Z</time></trkpt><trkpt lat="47.13710105541627" lon="5.495636337756677"><ele>265.0</ele><time>2026-03-28T10:11:26Z</time></trkpt><trkpt lat="47.13701281166426" lon="5.495255376448488"><ele>264.5</ele><time>2026-03-28T10:11:27Z</time></trkpt><trkpt lat="47.136926504363394" lon="5.4948735558887645"><ele>264.0</ele><time>2026-03-28T10:11:28Z</time></trkpt><trkpt lat="47.136842441633156" lon="5.4944884044641675"><ele>263.5</ele><time>2026-03-28T10:11:29Z</time></trkpt><trkpt lat="47.136756673176585" lon="5.494108582279897"><ele>263.0</ele><time>2026-03-28T10:11:30Z</time></trkpt><trkpt lat="47.136676821965374" lon="5.493720231170459"><ele>264.0</ele><time>2026-03-28T10:11:31Z</time></trkpt><trkpt lat="47.136594498274015" lon="5.493332510703143"><ele>265.0</ele><time>2026-03-28T10:11:32Z</time></trkpt><trkpt lat="47.13651585685496" lon="5.492941219234292"><ele>267.0</ele><time>2026-03-28T10:11:33Z</time></trkpt><trkpt lat="47.13643763293032" lon="5.492550040991651"><ele>269.0</ele><time>2026-03-28T10:11:34Z</time></trkpt><trkpt lat="47.136362882246075" lon="5.492157940841064"><ele>266.5</ele><time>2026-03-28T10:11:35Z</time></trkpt><trkpt lat="47.13628413946417" lon="5.491766279389192"><ele>264.0</ele><time>2026-03-28T10:11:36Z</time></trkpt><trkpt lat="47.13620596678463" lon="5.491374721134593"><ele>261.0</ele><time>2026-03-28T10:11:37Z</time></trkpt><trkpt lat="47.136134850078165" lon="5.490982932337247"><ele>258.0</ele><time>2026-03-28T10:11:38Z</time></trkpt><trkpt lat="47.13606573691258" lon="5.490584838395385"><ele>257.5</ele><time>2026-03-28T10:11:39Z</time></trkpt><trkpt lat="47.135998912609985" lon="5.490186640372074"><ele>257.0</ele><time>2026-03-28T10:11:40Z</time></trkpt><trkpt lat="47.13594204242764" lon="5.489783918420262"><ele>254.5</ele><time>2026-03-28T10:11:41Z</time></trkpt><trkpt lat="47.13587902491005" lon="5.48938715599802"><ele>252.0</ele><time>2026-03-28T10:11:42Z</time></trkpt><trkpt lat="47.13582497063248" lon="5.488988809720145"><ele>250.0</ele><time>2026-03-28T10:11:43Z</time></trkpt><trkpt lat="47.13577818361102" lon="5.4885904646050685"><ele>248.0</ele><time>2026-03-28T10:11:44Z</time></trkpt><trkpt lat="47.13573358275524" lon="5.488187046410818"><ele>257.0</ele><time>2026-03-28T10:11:45Z</time></trkpt><trkpt lat="47.13569486721383" lon="5.487784737229697"><ele>266.0</ele><time>2026-03-28T10:11:46Z</time></trkpt><trkpt lat="47.13565684061399" lon="5.487378022867823"><ele>266.0</ele><time>2026-03-28T10:11:47Z</time></trkpt><trkpt lat="47.13562753300543" lon="5.48697167770288"><ele>266.0</ele><time>2026-03-28T10:11:48Z</time></trkpt><trkpt lat="47.13559927065183" lon="5.486569997755881"><ele>264.5</ele><time>2026-03-28T10:11:49Z</time></trkpt><trkpt lat="47.13557529357361" lon="5.4861628812436924"><ele>263.0</ele><time>2026-03-28T10:11:50Z</time></trkpt><trkpt lat="47.13555475100474" lon="5.4857567603118165"><ele>260.5</ele><time>2026-03-28T10:11:51Z</time></trkpt><trkpt lat="47.135539707648" lon="5.485346152871221"><ele>258.0</ele><time>2026-03-28T10:11:52Z</time></trkpt><trkpt lat="47.13552956437274" lon="5.484937343765482"><ele>254.5</ele><time>2026-03-28T10:11:53Z</time></trkpt><trkpt lat="47.13552539223294" lon="5.484525174544076"><ele>251.0</ele><time>2026-03-28T10:11:54Z</time></trkpt><trkpt lat="47.135524264141836" lon="5.484114926859142"><ele>245.5</ele><time>2026-03-28T10:11:55Z</time></trkpt><trkpt lat="47.13552596405113" lon="5.4837069694113545"><ele>240.0</ele><time>2026-03-28T10:11:56Z</time></trkpt><trkpt lat="47.135531464835026" lon="5.483296629105549"><ele>238.0</ele><time>2026-03-28T10:11:57Z</time></trkpt><trkpt lat="47.13554196154986" lon="5.482886815455836"><ele>236.0</ele><time>2026-03-28T10:11:58Z</time></trkpt><trkpt lat="47.13555624707512" lon="5.482478779882435"><ele>231.5</ele><time>2026-03-28T10:11:59Z</time></trkpt><trkpt lat="47.13557500982053" lon="5.482071970556916"><ele>227.0</ele><time>2026-03-28T10:12:00Z</time></trkpt><trkpt lat="47.135597077236135" lon="5.481663408083323"><ele>224.5</ele><time>2026-03-28T10:12:01Z</time></trkpt><trkpt lat="47.13562305871846" lon="5.481257911941722"><ele>222.0</ele><time>2026-03-28T10:12:02Z</time></trkpt><trkpt lat="47.13565528644094" lon="5.480852678039326"><ele>222.0</ele><time>2026-03-28T10:12:03Z</time></trkpt><trkpt lat="47.13568803014508" lon="5.480449310212115"><ele>222.0</ele><time>2026-03-28T10:12:04Z</time></trkpt><trkpt lat="47.1357202979137" lon="5.480046465491177"><ele>220.0</ele><time>2026-03-28T10:12:05Z</time></trkpt><trkpt lat="47.13575763711133" lon="5.479645195364657"><ele>218.0</ele><time>2026-03-28T10:12:06Z</time></trkpt><trkpt lat="47.13579671173285" lon="5.479252386324786"><ele>217.0</ele><time>2026-03-28T10:12:07Z</time></trkpt><trkpt lat="47.13583098990711" lon="5.478856242185908"><ele>216.0</ele><time>2026-03-28T10:12:08Z</time></trkpt><trkpt lat="47.13586782691559" lon="5.478461047876747"><ele>215.5</ele><time>2026-03-28T10:12:09Z</time></trkpt><trkpt lat="47.13590080634402" lon="5.478065581789634"><ele>215.0</ele><time>2026-03-28T10:12:10Z</time></trkpt><trkpt lat="47.13593439772839" lon="5.477668596614481"><ele>214.0</ele><time>2026-03-28T10:12:11Z</time></trkpt><trkpt lat="47.13596863333132" lon="5.477274747734544"><ele>213.0</ele><time>2026-03-28T10:12:12Z</time></trkpt><trkpt lat="47.13599676117442" lon="5.476879294498655"><ele>213.0</ele><time>2026-03-28T10:12:13Z</time></trkpt><trkpt lat="47.13602531117413" lon="5.476484727103229"><ele>213.0</ele><time>2026-03-28T10:12:14Z</time></trkpt><trkpt lat="47.1360499376847" lon="5.476090438059693"><ele>213.0</ele><time>2026-03-28T10:12:15Z</time></trkpt><trkpt lat="47.13607064558985" lon="5.475698152042447"><ele>213.0</ele><time>2026-03-28T10:12:16Z</time></trkpt><trkpt lat="47.136092387598936" lon="5.475297476448717"><ele>213.5</ele><time>2026-03-28T10:12:17Z</time></trkpt><trkpt lat="47.136114583942245" lon="5.47490215639566"><ele>214.0</ele><time>2026-03-28T10:12:18Z</time></trkpt><trkpt lat="47.13612756247094" lon="5.474508770195117"><ele>214.5</ele><time>2026-03-28T10:12:19Z</time></trkpt><trkpt lat="47.136140643331125" lon="5.4741142365561135"><ele>215.0</ele><time>2026-03-28T10:12:20Z</time></trkpt><trkpt lat="47.1361539183812" lon="5.473722269171971"><ele>215.5</ele><time>2026-03-28T10:12:21Z</time></trkpt><trkpt lat="47.13616391539187" lon="5.473321853914582"><ele>216.0</ele><time>2026-03-28T10:12:22Z</time></trkpt><trkpt lat="47.13617244950667" lon="5.4729264206662664"><ele>217.5</ele><time>2026-03-28T10:12:23Z</time></trkpt><trkpt lat="47.13617998250502" lon="5.472524729899006"><ele>219.0</ele><time>2026-03-28T10:12:24Z</time></trkpt><trkpt lat="47.13618012196345" lon="5.472130669667391"><ele>219.0</ele><time>2026-03-28T10:12:25Z</time></trkpt><trkpt lat="47.136179945670904" lon="5.471736885355035"><ele>219.0</ele><time>2026-03-28T10:12:26Z</time></trkpt><trkpt lat="47.13617362600786" lon="5.4713448078172275"><ele>219.0</ele><time>2026-03-28T10:12:27Z</time></trkpt><trkpt lat="47.13616389890382" lon="5.470954895302213"><ele>219.0</ele><time>2026-03-28T10:12:28Z</time></trkpt><trkpt lat="47.13615147009757" lon="5.470560208897711"><ele>219.0</ele><time>2026-03-28T10:12:29Z</time></trkpt><trkpt lat="47.13613797245399" lon="5.470164031470363"><ele>219.0</ele><time>2026-03-28T10:12:30Z</time></trkpt><trkpt lat="47.1361181761636" lon="5.469768820496219"><ele>220.0</ele><time>2026-03-28T10:12:31Z</time></trkpt><trkpt lat="47.13610129462711" lon="5.469374239869722"><ele>221.0</ele><time>2026-03-28T10:12:32Z</time></trkpt><trkpt lat="47.136081888645016" lon="5.468981604444093"><ele>221.5</ele><time>2026-03-28T10:12:33Z</time></trkpt><trkpt lat="47.136056831453544" lon="5.4685906150707195"><ele>222.0</ele><time>2026-03-28T10:12:34Z</time></trkpt><trkpt lat="47.13602959139441" lon="5.468193589539465"><ele>221.0</ele><time>2026-03-28T10:12:35Z</time></trkpt><trkpt lat="47.13599954508445" lon="5.4677988469344285"><ele>220.0</ele><time>2026-03-28T10:12:36Z</time></trkpt><trkpt lat="47.13596943480157" lon="5.467404765142366"><ele>219.0</ele><time>2026-03-28T10:12:37Z</time></trkpt><trkpt lat="47.13593474268154" lon="5.467006738680561"><ele>218.0</ele><time>2026-03-28T10:12:38Z</time></trkpt><trkpt lat="47.135894882403136" lon="5.466611835244818"><ele>215.5</ele><time>2026-03-28T10:12:39Z</time></trkpt><trkpt lat="47.13585191155278" lon="5.4662184377178935"><ele>213.0</ele><time>2026-03-28T10:12:40Z</time></trkpt><trkpt lat="47.135808264413235" lon="5.465824172959515"><ele>213.5</ele><time>2026-03-28T10:12:41Z</time></trkpt><trkpt lat="47.13576155708719" lon="5.465432437327407"><ele>214.0</ele><time>2026-03-28T10:12:42Z</time></trkpt><trkpt lat="47.13571277092862" lon="5.465040362533329"><ele>214.0</ele><time>2026-03-28T10:12:43Z</time></trkpt><trkpt lat="47.13566160538698" lon="5.4646459055038115"><ele>214.0</ele><time>2026-03-28T10:12:44Z</time></trkpt><trkpt lat="47.13560686633106" lon="5.4642544560318775"><ele>214.0</ele><time>2026-03-28T10:12:45Z</time></trkpt><trkpt lat="47.13554958871137" lon="5.463862062423587"><ele>214.0</ele><time>2026-03-28T10:12:46Z</time></trkpt><trkpt lat="47.13549024361026" lon="5.463468379028073"><ele>213.5</ele><time>2026-03-28T10:12:47Z</time></trkpt><trkpt lat="47.135425397491716" lon="5.463065635736313"><ele>213.0</ele><time>2026-03-28T10:12:48Z</time></trkpt><trkpt lat="47.13536162328949" lon="5.462672396541302"><ele>212.5</ele><time>2026-03-28T10:12:49Z</time></trkpt><trkpt lat="47.1352920765791" lon="5.462282025620368"><ele>212.0</ele><time>2026-03-28T10:12:50Z</time></trkpt><trkpt lat="47.13522217097575" lon="5.461889883369846"><ele>212.0</ele><time>2026-03-28T10:12:51Z</time></trkpt><trkpt lat="47.135148648400026" lon="5.46150221855858"><ele>212.0</ele><time>2026-03-28T10:12:52Z</time></trkpt><trkpt lat="47.13507091169503" lon="5.461117692509698"><ele>211.5</ele><time>2026-03-28T10:12:53Z</time></trkpt><trkpt lat="47.13499003704089" lon="5.46074006058124"><ele>211.0</ele><time>2026-03-28T10:12:54Z</time></trkpt><trkpt lat="47.13490772743373" lon="5.460353710334793"><ele>211.5</ele><time>2026-03-28T10:12:55Z</time></trkpt><trkpt lat="47.134820200917936" lon="5.459968446966437"><ele>212.0</ele><time>2026-03-28T10:12:56Z</time></trkpt><trkpt lat="47.13472921565896" lon="5.459583456741492"><ele>212.0</ele><time>2026-03-28T10:12:57Z</time></trkpt><trkpt lat="47.13463596119373" lon="5.4591965637781446"><ele>212.0</ele><time>2026-03-28T10:12:58Z</time></trkpt><trkpt lat="47.13454218142321" lon="5.458811110404124"><ele>212.5</ele><time>2026-03-28T10:12:59Z</time></trkpt><trkpt lat="47.13444623018534" lon="5.458433078054806"><ele>213.0</ele><time>2026-03-28T10:13:00Z</time></trkpt><trkpt lat="47.134353898496414" lon="5.458049709907928"><ele>213.0</ele><time>2026-03-28T10:13:01Z</time></trkpt><trkpt lat="47.134262162756045" lon="5.457664981049989"><ele>213.0</ele><time>2026-03-28T10:13:02Z</time></trkpt><trkpt lat="47.134166385203315" lon="5.45728513143546"><ele>213.0</ele><time>2026-03-28T10:13:03Z</time></trkpt><trkpt lat="47.13407026297517" lon="5.4569053435317345"><ele>213.0</ele><time>2026-03-28T10:13:04Z</time></trkpt><trkpt lat="47.13397332763807" lon="5.456526140286737"><ele>212.5</ele><time>2026-03-28T10:13:05Z</time></trkpt><trkpt lat="47.13387683637569" lon="5.456146455926944"><ele>212.0</ele><time>2026-03-28T10:13:06Z</time></trkpt><trkpt lat="47.13377799255244" lon="5.4557660655881435"><ele>212.0</ele><time>2026-03-28T10:13:07Z</time></trkpt><trkpt lat="47.13368195174307" lon="5.455382498671717"><ele>212.0</ele><time>2026-03-28T10:13:08Z</time></trkpt><trkpt lat="47.13357946420167" lon="5.4550023186392895"><ele>212.0</ele><time>2026-03-28T10:13:09Z</time></trkpt><trkpt lat="47.13348109339492" lon="5.454624469078411"><ele>212.0</ele><time>2026-03-28T10:13:10Z</time></trkpt><trkpt lat="47.13338469702618" lon="5.454242399397723"><ele>211.5</ele><time>2026-03-28T10:13:11Z</time></trkpt><trkpt lat="47.133285018463575" lon="5.453862668066712"><ele>211.0</ele><time>2026-03-28T10:13:12Z</time></trkpt><trkpt lat="47.13318853753568" lon="5.453478273296556"><ele>210.5</ele><time>2026-03-28T10:13:13Z</time></trkpt><trkpt lat="47.13309042744915" lon="5.453093852496616"><ele>210.0</ele><time>2026-03-28T10:13:14Z</time></trkpt><trkpt lat="47.13299335150404" lon="5.452713631516814"><ele>209.5</ele><time>2026-03-28T10:13:15Z</time></trkpt><trkpt lat="47.13289148708546" lon="5.4523341709423025"><ele>209.0</ele><time>2026-03-28T10:13:16Z</time></trkpt><trkpt lat="47.13279403283509" lon="5.451951113575249"><ele>209.0</ele><time>2026-03-28T10:13:17Z</time></trkpt><trkpt lat="47.132697288567535" lon="5.451571934616211"><ele>209.0</ele><time>2026-03-28T10:13:18Z</time></trkpt><trkpt lat="47.132604331383895" lon="5.451190909028332"><ele>208.5</ele><time>2026-03-28T10:13:19Z</time></trkpt><trkpt lat="47.13250914553864" lon="5.450807496531065"><ele>208.0</ele><time>2026-03-28T10:13:20Z</time></trkpt><trkpt lat="47.13241649269843" lon="5.450427493056319"><ele>207.0</ele><time>2026-03-28T10:13:21Z</time></trkpt><trkpt lat="47.13232468555381" lon="5.450042896640627"><ele>206.0</ele><time>2026-03-28T10:13:22Z</time></trkpt><trkpt lat="47.132236806230615" lon="5.449654850490076"><ele>205.5</ele><time>2026-03-28T10:13:23Z</time></trkpt><trkpt lat="47.13214718529424" lon="5.449268068810818"><ele>205.0</ele><time>2026-03-28T10:13:24Z</time></trkpt><trkpt lat="47.132061632140356" lon="5.448877318612705"><ele>204.0</ele><time>2026-03-28T10:13:25Z</time></trkpt><trkpt lat="47.13198041782416" lon="5.448486110645851"><ele>203.0</ele><time>2026-03-28T10:13:26Z</time></trkpt><trkpt lat="47.13190005840126" lon="5.448098989594654"><ele>203.0</ele><time>2026-03-28T10:13:27Z</time></trkpt><trkpt lat="47.13182238317016" lon="5.44771327729691"><ele>203.0</ele><time>2026-03-28T10:13:28Z</time></trkpt><trkpt lat="47.13174393145068" lon="5.447321821785994"><ele>203.0</ele><time>2026-03-28T10:13:29Z</time></trkpt><trkpt lat="47.13166604268694" lon="5.446931161708503"><ele>203.0</ele><time>2026-03-28T10:13:30Z</time></trkpt><trkpt lat="47.13159198049796" lon="5.446537337651515"><ele>205.0</ele><time>2026-03-28T10:13:31Z</time></trkpt><trkpt lat="47.1315257711761" lon="5.446146702294968"><ele>207.0</ele><time>2026-03-28T10:13:32Z</time></trkpt><trkpt lat="47.13145702749895" lon="5.445760260820551"><ele>206.5</ele><time>2026-03-28T10:13:33Z</time></trkpt><trkpt lat="47.131393625136084" lon="5.4453686167550055"><ele>206.0</ele><time>2026-03-28T10:13:34Z</time></trkpt><trkpt lat="47.131328246571954" lon="5.444980332023567"><ele>205.0</ele><time>2026-03-28T10:13:35Z</time></trkpt><trkpt lat="47.131266379156" lon="5.444593048821999"><ele>204.0</ele><time>2026-03-28T10:13:36Z</time></trkpt><trkpt lat="47.13120585571187" lon="5.444201132370024"><ele>204.0</ele><time>2026-03-28T10:13:37Z</time></trkpt><trkpt lat="47.13114807415261" lon="5.443810009932614"><ele>204.0</ele><time>2026-03-28T10:13:38Z</time></trkpt><trkpt lat="47.13109263325102" lon="5.44341957502656"><ele>204.5</ele><time>2026-03-28T10:13:39Z</time></trkpt><trkpt lat="47.13104090377877" lon="5.4430290947992"><ele>205.0</ele><time>2026-03-28T10:13:40Z</time></trkpt><trkpt lat="47.13098801083966" lon="5.442639966528063"><ele>205.0</ele><time>2026-03-28T10:13:41Z</time></trkpt><trkpt lat="47.130936555954946" lon="5.4422465787800824"><ele>205.0</ele><time>2026-03-28T10:13:42Z</time></trkpt><trkpt lat="47.13088836803322" lon="5.441854469658276"><ele>205.5</ele><time>2026-03-28T10:13:43Z</time></trkpt><trkpt lat="47.13084203600191" lon="5.4414673144949655"><ele>206.0</ele><time>2026-03-28T10:13:44Z</time></trkpt><trkpt lat="47.13079833709448" lon="5.4410767250657575"><ele>206.5</ele><time>2026-03-28T10:13:45Z</time></trkpt><trkpt lat="47.130757387280354" lon="5.440683879264137"><ele>207.0</ele><time>2026-03-28T10:13:46Z</time></trkpt><trkpt lat="47.13071765066418" lon="5.440293794766159"><ele>207.5</ele><time>2026-03-28T10:13:47Z</time></trkpt><trkpt lat="47.13067949477553" lon="5.439899697350616"><ele>208.0</ele><time>2026-03-28T10:13:48Z</time></trkpt><trkpt lat="47.1306423123468" lon="5.439506255859922"><ele>208.0</ele><time>2026-03-28T10:13:49Z</time></trkpt><trkpt lat="47.130605252634076" lon="5.439112569598533"><ele>208.0</ele><time>2026-03-28T10:13:50Z</time></trkpt><trkpt lat="47.13057136122216" lon="5.438720013692321"><ele>208.0</ele><time>2026-03-28T10:13:51Z</time></trkpt><trkpt lat="47.13054216474629" lon="5.4383257235602"><ele>208.0</ele><time>2026-03-28T10:13:52Z</time></trkpt><trkpt lat="47.130513908099246" lon="5.437934773820892"><ele>209.0</ele><time>2026-03-28T10:13:53Z</time></trkpt><trkpt lat="47.130485080588294" lon="5.437538773231673"><ele>210.0</ele><time>2026-03-28T10:13:54Z</time></trkpt><trkpt lat="47.1304569027681" lon="5.437144462721358"><ele>210.0</ele><time>2026-03-28T10:13:55Z</time></trkpt><trkpt lat="47.13043478502263" lon="5.436745456798174"><ele>210.0</ele><time>2026-03-28T10:13:56Z</time></trkpt><trkpt lat="47.130416043298005" lon="5.436347691514854"><ele>210.0</ele><time>2026-03-28T10:13:57Z</time></trkpt><trkpt lat="47.13039463450856" lon="5.435947475627102"><ele>210.0</ele><time>2026-03-28T10:13:58Z</time></trkpt><trkpt lat="47.130376583684125" lon="5.435542304819986"><ele>209.5</ele><time>2026-03-28T10:13:59Z</time></trkpt><trkpt lat="47.13036019567063" lon="5.435134700422336"><ele>209.0</ele><time>2026-03-28T10:14:00Z</time></trkpt><trkpt lat="47.13033859503831" lon="5.43473192290908"><ele>210.0</ele><time>2026-03-28T10:14:01Z</time></trkpt><trkpt lat="47.130316660512264" lon="5.434328764262541"><ele>211.0</ele><time>2026-03-28T10:14:02Z</time></trkpt><trkpt lat="47.13029757889279" lon="5.433924184522682"><ele>211.5</ele><time>2026-03-28T10:14:03Z</time></trkpt><trkpt lat="47.130280143603954" lon="5.433516562677829"><ele>212.0</ele><time>2026-03-28T10:14:04Z</time></trkpt><trkpt lat="47.13026369459216" lon="5.433106490825677"><ele>211.5</ele><time>2026-03-28T10:14:05Z</time></trkpt><trkpt lat="47.13025106226472" lon="5.432698343408298"><ele>211.0</ele><time>2026-03-28T10:14:06Z</time></trkpt><trkpt lat="47.1302384351267" lon="5.432289210771845"><ele>210.5</ele><time>2026-03-28T10:14:07Z</time></trkpt><trkpt lat="47.13022635782002" lon="5.431881824365888"><ele>210.0</ele><time>2026-03-28T10:14:08Z</time></trkpt><trkpt lat="47.13021162147358" lon="5.431476275597052"><ele>210.5</ele><time>2026-03-28T10:14:09Z</time></trkpt><trkpt lat="47.13019696697765" lon="5.431071902185064"><ele>211.0</ele><time>2026-03-28T10:14:10Z</time></trkpt><trkpt lat="47.13017889670751" lon="5.430668628031795"><ele>211.5</ele><time>2026-03-28T10:14:11Z</time></trkpt><trkpt lat="47.130163255793185" lon="5.4302654916455255"><ele>212.0</ele><time>2026-03-28T10:14:12Z</time></trkpt><trkpt lat="47.130148892118456" lon="5.429862275784282"><ele>212.5</ele><time>2026-03-28T10:14:13Z</time></trkpt><trkpt lat="47.13013349519775" lon="5.429458777941034"><ele>213.0</ele><time>2026-03-28T10:14:14Z</time></trkpt><trkpt lat="47.13011803878423" lon="5.429056277240481"><ele>212.0</ele><time>2026-03-28T10:14:15Z</time></trkpt><trkpt lat="47.130102875391046" lon="5.428653983797117"><ele>211.0</ele><time>2026-03-28T10:14:16Z</time></trkpt><trkpt lat="47.1300874126433" lon="5.428253100157773"><ele>210.5</ele><time>2026-03-28T10:14:17Z</time></trkpt><trkpt lat="47.130071468569476" lon="5.4278495148686075"><ele>210.0</ele><time>2026-03-28T10:14:18Z</time></trkpt><trkpt lat="47.13005797988183" lon="5.4274473833940915"><ele>209.0</ele><time>2026-03-28T10:14:19Z</time></trkpt><trkpt lat="47.130048311776136" lon="5.427044577176921"><ele>208.0</ele><time>2026-03-28T10:14:20Z</time></trkpt><trkpt lat="47.130032232473454" lon="5.426643181629133"><ele>208.0</ele><time>2026-03-28T10:14:21Z</time></trkpt><trkpt lat="47.13001563201515" lon="5.426241902531332"><ele>208.0</ele><time>2026-03-28T10:14:22Z</time></trkpt><trkpt lat="47.12999945113107" lon="5.425843169493497"><ele>208.0</ele><time>2026-03-28T10:14:23Z</time></trkpt><trkpt lat="47.129988045598246" lon="5.425442398002988"><ele>208.0</ele><time>2026-03-28T10:14:24Z</time></trkpt><trkpt lat="47.129973010784475" lon="5.425039768360207"><ele>208.0</ele><time>2026-03-28T10:14:25Z</time></trkpt><trkpt lat="47.12995943294802" lon="5.424638122478154"><ele>208.0</ele><time>2026-03-28T10:14:26Z</time></trkpt><trkpt lat="47.12994619851471" lon="5.424236640481712"><ele>208.0</ele><time>2026-03-28T10:14:27Z</time></trkpt><trkpt lat="47.129931815547636" lon="5.423836166322462"><ele>208.0</ele><time>2026-03-28T10:14:28Z</time></trkpt><trkpt lat="47.12991914612" lon="5.423435217169436"><ele>207.0</ele><time>2026-03-28T10:14:29Z</time></trkpt><trkpt lat="47.1299056434783" lon="5.4230329478763615"><ele>206.0</ele><time>2026-03-28T10:14:30Z</time></trkpt><trkpt lat="47.129891728481034" lon="5.422633116954034"><ele>205.0</ele><time>2026-03-28T10:14:31Z</time></trkpt><trkpt lat="47.12988191435298" lon="5.422229763376311"><ele>204.0</ele><time>2026-03-28T10:14:32Z</time></trkpt><trkpt lat="47.129870290566885" lon="5.421827736406674"><ele>204.0</ele><time>2026-03-28T10:14:33Z</time></trkpt><trkpt lat="47.12985773486777" lon="5.421426514073556"><ele>204.0</ele><time>2026-03-28T10:14:34Z</time></trkpt><trkpt lat="47.12984613507452" lon="5.421025023650353"><ele>203.5</ele><time>2026-03-28T10:14:35Z</time></trkpt><trkpt lat="47.12983145887836" lon="5.420622548689546"><ele>203.0</ele><time>2026-03-28T10:14:36Z</time></trkpt><trkpt lat="47.12981603683979" lon="5.420220667101174"><ele>202.0</ele><time>2026-03-28T10:14:37Z</time></trkpt><trkpt lat="47.12980075208071" lon="5.419817679564492"><ele>201.0</ele><time>2026-03-28T10:14:38Z</time></trkpt><trkpt lat="47.12978125176947" lon="5.419416790131424"><ele>199.0</ele><time>2026-03-28T10:14:39Z</time></trkpt><trkpt lat="47.12975404873571" lon="5.4190188943564435"><ele>197.0</ele><time>2026-03-28T10:14:40Z</time></trkpt><trkpt lat="47.129726402006014" lon="5.418618687357451"><ele>194.5</ele><time>2026-03-28T10:14:41Z</time></trkpt><trkpt lat="47.1296983686184" lon="5.418217976476059"><ele>192.0</ele><time>2026-03-28T10:14:42Z</time></trkpt><trkpt lat="47.12966890188809" lon="5.417820444510004"><ele>192.0</ele><time>2026-03-28T10:14:43Z</time></trkpt><trkpt lat="47.12964002948" lon="5.417424101166874"><ele>192.0</ele><time>2026-03-28T10:14:44Z</time></trkpt><trkpt lat="47.12960862007471" lon="5.417028667698569"><ele>193.5</ele><time>2026-03-28T10:14:45Z</time></trkpt><trkpt lat="47.129573125774264" lon="5.416635440101957"><ele>195.0</ele><time>2026-03-28T10:14:46Z</time></trkpt><trkpt lat="47.129535558348465" lon="5.416240804665961"><ele>196.5</ele><time>2026-03-28T10:14:47Z</time></trkpt><trkpt lat="47.129498283965404" lon="5.415846389287454"><ele>198.0</ele><time>2026-03-28T10:14:48Z</time></trkpt><trkpt lat="47.12945710623941" lon="5.415452609065066"><ele>198.0</ele><time>2026-03-28T10:14:49Z</time></trkpt><trkpt lat="47.12941535225932" lon="5.415057017801927"><ele>198.0</ele><time>2026-03-28T10:14:50Z</time></trkpt><trkpt lat="47.129369852412935" lon="5.414662245211462"><ele>199.0</ele><time>2026-03-28T10:14:51Z</time></trkpt><trkpt lat="47.12932352652396" lon="5.414271570918029"><ele>200.0</ele><time>2026-03-28T10:14:52Z</time></trkpt><trkpt lat="47.129275181228316" lon="5.413880664420703"><ele>200.5</ele><time>2026-03-28T10:14:53Z</time></trkpt><trkpt lat="47.1292260691849" lon="5.413487950999945"><ele>201.0</ele><time>2026-03-28T10:14:54Z</time></trkpt><trkpt lat="47.1291763864404" lon="5.413097111825944"><ele>202.5</ele><time>2026-03-28T10:14:55Z</time></trkpt><trkpt lat="47.1291242421061" lon="5.4127091216105505"><ele>204.0</ele><time>2026-03-28T10:14:56Z</time></trkpt><trkpt lat="47.12906772114148" lon="5.412317573692676"><ele>208.5</ele><time>2026-03-28T10:14:57Z</time></trkpt><trkpt lat="47.129012788850126" lon="5.411927032273097"><ele>213.0</ele><time>2026-03-28T10:14:58Z</time></trkpt><trkpt lat="47.128953852394346" lon="5.411540032273425"><ele>212.0</ele><time>2026-03-28T10:14:59Z</time></trkpt><trkpt lat="47.128893030633904" lon="5.411151443893708"><ele>211.0</ele><time>2026-03-28T10:15:00Z</time></trkpt><trkpt lat="47.12882821075153" lon="5.410762797719736"><ele>210.0</ele><time>2026-03-28T10:15:01Z</time></trkpt><trkpt lat="47.12875904111354" lon="5.410377853848497"><ele>209.0</ele><time>2026-03-28T10:15:02Z</time></trkpt><trkpt lat="47.128690049027625" lon="5.409990682558352"><ele>206.5</ele><time>2026-03-28T10:15:03Z</time></trkpt><trkpt lat="47.12862262437969" lon="5.409605374503448"><ele>204.0</ele><time>2026-03-28T10:15:04Z</time></trkpt><trkpt lat="47.128552413793344" lon="5.40921911700163"><ele>204.0</ele><time>2026-03-28T10:15:05Z</time></trkpt><trkpt lat="47.12848079595302" lon="5.408835078642813"><ele>204.0</ele><time>2026-03-28T10:15:06Z</time></trkpt><trkpt lat="47.128405699080574" lon="5.408450801886689"><ele>202.5</ele><time>2026-03-28T10:15:07Z</time></trkpt><trkpt lat="47.12832711566366" lon="5.4080701198434795"><ele>201.0</ele><time>2026-03-28T10:15:08Z</time></trkpt><trkpt lat="47.12824607531578" lon="5.407691003083593"><ele>201.5</ele><time>2026-03-28T10:15:09Z</time></trkpt><trkpt lat="47.12816433524709" lon="5.4073121360431635"><ele>202.0</ele><time>2026-03-28T10:15:10Z</time></trkpt><trkpt lat="47.128080346717596" lon="5.40693496162243"><ele>202.5</ele><time>2026-03-28T10:15:11Z</time></trkpt><trkpt lat="47.12799589663708" lon="5.406560898637014"><ele>203.0</ele><time>2026-03-28T10:15:12Z</time></trkpt><trkpt lat="47.12790902081114" lon="5.406183474271157"><ele>204.5</ele><time>2026-03-28T10:15:13Z</time></trkpt><trkpt lat="47.12782063127265" lon="5.405804352540346"><ele>206.0</ele><time>2026-03-28T10:15:14Z</time></trkpt><trkpt lat="47.12772847580313" lon="5.405428808298961"><ele>206.5</ele><time>2026-03-28T10:15:15Z</time></trkpt><trkpt lat="47.12763497664108" lon="5.405055791670325"><ele>207.0</ele><time>2026-03-28T10:15:16Z</time></trkpt><trkpt lat="47.12753948056671" lon="5.4046786187491636"><ele>208.0</ele><time>2026-03-28T10:15:17Z</time></trkpt><trkpt lat="47.127443641716766" lon="5.404301933154661"><ele>209.0</ele><time>2026-03-28T10:15:18Z</time></trkpt><trkpt lat="47.12734476188813" lon="5.403920637106493"><ele>210.0</ele><time>2026-03-28T10:15:19Z</time></trkpt><trkpt lat="47.12724410631788" lon="5.403548926873506"><ele>211.0</ele><time>2026-03-28T10:15:20Z</time></trkpt><trkpt lat="47.127139453823034" lon="5.403176655534503"><ele>210.0</ele><time>2026-03-28T10:15:21Z</time></trkpt><trkpt lat="47.12703380053756" lon="5.402805450702502"><ele>209.0</ele><time>2026-03-28T10:15:22Z</time></trkpt><trkpt lat="47.12692694548503" lon="5.402437791740084"><ele>208.5</ele><time>2026-03-28T10:15:23Z</time></trkpt><trkpt lat="47.12681666699494" lon="5.402070315659792"><ele>208.0</ele><time>2026-03-28T10:15:24Z</time></trkpt><trkpt lat="47.126705305859545" lon="5.401703709373918"><ele>208.0</ele><time>2026-03-28T10:15:25Z</time></trkpt><trkpt lat="47.126593294388194" lon="5.401342864701895"><ele>208.0</ele><time>2026-03-28T10:15:26Z</time></trkpt><trkpt lat="47.126478751348344" lon="5.400982964129264"><ele>208.0</ele><time>2026-03-28T10:15:27Z</time></trkpt><trkpt lat="47.12636253792327" lon="5.400623978269283"><ele>208.0</ele><time>2026-03-28T10:15:28Z</time></trkpt><trkpt lat="47.12624623433646" lon="5.400268068704829"><ele>207.5</ele><time>2026-03-28T10:15:29Z</time></trkpt><trkpt lat="47.12612738707034" lon="5.3999166409125845"><ele>207.0</ele><time>2026-03-28T10:15:30Z</time></trkpt><trkpt lat="47.12600688484692" lon="5.399566269126281"><ele>207.0</ele><time>2026-03-28T10:15:31Z</time></trkpt><trkpt lat="47.125883755030635" lon="5.399217923742954"><ele>207.0</ele><time>2026-03-28T10:15:32Z</time></trkpt><trkpt lat="47.12576053379542" lon="5.39886993324099"><ele>206.5</ele><time>2026-03-28T10:15:33Z</time></trkpt><trkpt lat="47.12563409332099" lon="5.398521672444314"><ele>206.0</ele><time>2026-03-28T10:15:34Z</time></trkpt><trkpt lat="47.125505240352034" lon="5.398176284671666"><ele>205.0</ele><time>2026-03-28T10:15:35Z</time></trkpt><trkpt lat="47.12537718964017" lon="5.39783766486597"><ele>204.0</ele><time>2026-03-28T10:15:36Z</time></trkpt><trkpt lat="47.125250285151125" lon="5.397504189080858"><ele>204.0</ele><time>2026-03-28T10:15:37Z</time></trkpt><trkpt lat="47.12512732237603" lon="5.397175297300676"><ele>204.0</ele><time>2026-03-28T10:15:38Z</time></trkpt><trkpt lat="47.1250072320645" lon="5.396851646350906"><ele>204.0</ele><time>2026-03-28T10:15:39Z</time></trkpt><trkpt lat="47.12489062611169" lon="5.396534775153857"><ele>204.0</ele><time>2026-03-28T10:15:40Z</time></trkpt><trkpt lat="47.12477439422223" lon="5.396225473767939"><ele>204.0</ele><time>2026-03-28T10:15:41Z</time></trkpt><trkpt lat="47.12465757940379" lon="5.395923498823195"><ele>204.0</ele><time>2026-03-28T10:15:42Z</time></trkpt><trkpt lat="47.12454457116242" lon="5.395625517403478"><ele>202.5</ele><time>2026-03-28T10:15:43Z</time></trkpt><trkpt lat="47.12443548758326" lon="5.395329845174321"><ele>201.0</ele><time>2026-03-28T10:15:44Z</time></trkpt><trkpt lat="47.12433898953136" lon="5.395035115128444"><ele>201.0</ele><time>2026-03-28T10:15:45Z</time></trkpt><trkpt lat="47.12426281542458" lon="5.394739289450012"><ele>201.0</ele><time>2026-03-28T10:15:46Z</time></trkpt><trkpt lat="47.12420300400297" lon="5.394441267638504"><ele>201.0</ele><time>2026-03-28T10:15:47Z</time></trkpt><trkpt lat="47.12416546958939" lon="5.394143083560947"><ele>201.0</ele><time>2026-03-28T10:15:48Z</time></trkpt><trkpt lat="47.124143885907095" lon="5.393845060314717"><ele>201.0</ele><time>2026-03-28T10:15:49Z</time></trkpt><trkpt lat="47.12414130931333" lon="5.393546755801697"><ele>201.0</ele><time>2026-03-28T10:15:50Z</time></trkpt><trkpt lat="47.12414606466483" lon="5.3932516905053856"><ele>200.66666666666669</ele><time>2026-03-28T10:15:51Z</time></trkpt><trkpt lat="47.12414943939071" lon="5.392960800395681"><ele>200.33333333333334</ele><time>2026-03-28T10:15:52Z</time></trkpt><trkpt lat="47.124152578184706" lon="5.392672075389366"><ele>200.0</ele><time>2026-03-28T10:15:53Z</time></trkpt><trkpt lat="47.124151722745" lon="5.392387331724182"><ele>199.0</ele><time>2026-03-28T10:15:54Z</time></trkpt><trkpt lat="47.12415546062752" lon="5.39210845124841"><ele>198.0</ele><time>2026-03-28T10:15:55Z</time></trkpt><trkpt lat="47.124156323395944" lon="5.39183283195298"><ele>197.0</ele><time>2026-03-28T10:15:56Z</time></trkpt><trkpt lat="47.12415556155631" lon="5.391558647242036"><ele>195.33333333333334</ele><time>2026-03-28T10:15:57Z</time></trkpt><trkpt lat="47.1241556578039" lon="5.391285261673581"><ele>193.66666666666669</ele><time>2026-03-28T10:15:58Z</time></trkpt><trkpt lat="47.12415597626544" lon="5.39100550011825"><ele>192.0</ele><time>2026-03-28T10:15:59Z</time></trkpt><trkpt lat="47.12415592486014" lon="5.390723018744023"><ele>191.66666666666666</ele><time>2026-03-28T10:16:00Z</time></trkpt><trkpt lat="47.12415374393892" lon="5.390446871718887"><ele>191.33333333333331</ele><time>2026-03-28T10:16:01Z</time></trkpt><trkpt lat="47.124142126094846" lon="5.390178796957534"><ele>191.0</ele><time>2026-03-28T10:16:02Z</time></trkpt><trkpt lat="47.124123234919246" lon="5.389914220028459"><ele>191.0</ele><time>2026-03-28T10:16:03Z</time></trkpt><trkpt lat="47.1240884552364" lon="5.389653768066824"><ele>191.0</ele><time>2026-03-28T10:16:04Z</time></trkpt><trkpt lat="47.12404606229786" lon="5.389394124807201"><ele>191.0</ele><time>2026-03-28T10:16:05Z</time></trkpt><trkpt lat="47.12399016513152" lon="5.38914113713922"><ele>191.33333333333331</ele><time>2026-03-28T10:16:06Z</time></trkpt><trkpt lat="47.12391725340013" lon="5.388898356377954"><ele>191.66666666666666</ele><time>2026-03-28T10:16:07Z</time></trkpt><trkpt lat="47.12383236326293" lon="5.3886647029690105"><ele>192.0</ele><time>2026-03-28T10:16:08Z</time></trkpt><trkpt lat="47.12373185058795" lon="5.388441946268874"><ele>193.66666666666669</ele><time>2026-03-28T10:16:09Z</time></trkpt><trkpt lat="47.12361958452025" lon="5.388233301035889"><ele>195.33333333333334</ele><time>2026-03-28T10:16:10Z</time></trkpt><trkpt lat="47.123498796723965" lon="5.388034994324801"><ele>197.0</ele><time>2026-03-28T10:16:11Z</time></trkpt><trkpt lat="47.12336826841003" lon="5.38785427390608"><ele>198.0</ele><time>2026-03-28T10:16:12Z</time></trkpt><trkpt lat="47.12322815502016" lon="5.38769432297159"><ele>199.0</ele><time>2026-03-28T10:16:13Z</time></trkpt><trkpt lat="47.12307848267266" lon="5.387549246177114"><ele>200.0</ele><time>2026-03-28T10:16:14Z</time></trkpt><trkpt lat="47.122923351246854" lon="5.3874214562641525"><ele>200.0</ele><time>2026-03-28T10:16:15Z</time></trkpt><trkpt lat="47.12275708550432" lon="5.387314935399312"><ele>200.0</ele><time>2026-03-28T10:16:16Z</time></trkpt><trkpt lat="47.12258517031905" lon="5.3872250698628275"><ele>200.0</ele><time>2026-03-28T10:16:17Z</time></trkpt><trkpt lat="47.12240949266371" lon="5.3871605047072"><ele>200.66666666666669</ele><time>2026-03-28T10:16:18Z</time></trkpt><trkpt lat="47.12223193274719" lon="5.387112092521376"><ele>201.33333333333331</ele><time>2026-03-28T10:16:19Z</time></trkpt><trkpt lat="47.12204957996043" lon="5.387083792416401"><ele>202.0</ele><time>2026-03-28T10:16:20Z</time></trkpt><trkpt lat="47.12186599957478" lon="5.387082424000545"><ele>202.0</ele><time>2026-03-28T10:16:21Z</time></trkpt><trkpt lat="47.121686475468486" lon="5.387103617624028"><ele>202.0</ele><time>2026-03-28T10:16:22Z</time></trkpt><trkpt lat="47.12150813802759" lon="5.387143267913496"><ele>202.0</ele><time>2026-03-28T10:16:23Z</time></trkpt><trkpt lat="47.12133641278241" lon="5.387212373560282"><ele>200.66666666666666</ele><time>2026-03-28T10:16:24Z</time></trkpt><trkpt lat="47.1211648503999" lon="5.3872961998759505"><ele>199.33333333333331</ele><time>2026-03-28T10:16:25Z</time></trkpt><trkpt lat="47.12099740878374" lon="5.387401260427049"><ele>198.0</ele><time>2026-03-28T10:16:26Z</time></trkpt><trkpt lat="47.120834972257285" lon="5.387528546937086"><ele>198.0</ele><time>2026-03-28T10:16:27Z</time></trkpt><trkpt lat="47.12068501348138" lon="5.387672309839842"><ele>198.0</ele><time>2026-03-28T10:16:28Z</time></trkpt><trkpt lat="47.120541873651966" lon="5.387835430698579"><ele>198.0</ele><time>2026-03-28T10:16:29Z</time></trkpt><trkpt lat="47.12040905553308" lon="5.3880169024636295"><ele>199.0</ele><time>2026-03-28T10:16:30Z</time></trkpt><trkpt lat="47.120283372334754" lon="5.388216128573392"><ele>200.0</ele><time>2026-03-28T10:16:31Z</time></trkpt><trkpt lat="47.12015589114854" lon="5.388412738836793"><ele>201.0</ele><time>2026-03-28T10:16:32Z</time></trkpt><trkpt lat="47.12004392619873" lon="5.388643201133207"><ele>203.0</ele><time>2026-03-28T10:16:33Z</time></trkpt><trkpt lat="47.119936932505354" lon="5.388881681863148"><ele>205.0</ele><time>2026-03-28T10:16:34Z</time></trkpt><trkpt lat="47.11982987805895" lon="5.389121850294325"><ele>207.0</ele><time>2026-03-28T10:16:35Z</time></trkpt><trkpt lat="47.1197186294511" lon="5.389372429336325"><ele>206.33333333333331</ele><time>2026-03-28T10:16:36Z</time></trkpt><trkpt lat="47.11960681728905" lon="5.389625261856682"><ele>205.66666666666666</ele><time>2026-03-28T10:16:37Z</time></trkpt><trkpt lat="47.119491001643716" lon="5.3898871471528"><ele>205.0</ele><time>2026-03-28T10:16:38Z</time></trkpt><trkpt lat="47.119370256517776" lon="5.3901485577778185"><ele>205.0</ele><time>2026-03-28T10:16:39Z</time></trkpt><trkpt lat="47.11923624762771" lon="5.390412700538178"><ele>205.0</ele><time>2026-03-28T10:16:40Z</time></trkpt><trkpt lat="47.119108180074115" lon="5.390697033837235"><ele>208.0</ele><time>2026-03-28T10:16:41Z</time></trkpt><trkpt lat="47.11897865555227" lon="5.390989502545561"><ele>211.0</ele><time>2026-03-28T10:16:42Z</time></trkpt><trkpt lat="47.11884658326644" lon="5.391287882861938"><ele>209.0</ele><time>2026-03-28T10:16:43Z</time></trkpt><trkpt lat="47.11871358968254" lon="5.3915995151475204"><ele>207.0</ele><time>2026-03-28T10:16:44Z</time></trkpt><trkpt lat="47.1185832015698" lon="5.391916628753"><ele>203.5</ele><time>2026-03-28T10:16:45Z</time></trkpt><trkpt lat="47.11844487259726" lon="5.392231570327355"><ele>200.0</ele><time>2026-03-28T10:16:46Z</time></trkpt><trkpt lat="47.118293811667826" lon="5.392527669289374"><ele>200.5</ele><time>2026-03-28T10:16:47Z</time></trkpt><trkpt lat="47.118127716598394" lon="5.392794194722545"><ele>201.0</ele><time>2026-03-28T10:16:48Z</time></trkpt><trkpt lat="47.11794563035757" lon="5.393029398351383"><ele>201.0</ele><time>2026-03-28T10:16:49Z</time></trkpt><trkpt lat="47.11775122127675" lon="5.39322238860962"><ele>201.0</ele><time>2026-03-28T10:16:50Z</time></trkpt><trkpt lat="47.11754104546026" lon="5.393388494911922"><ele>202.0</ele><time>2026-03-28T10:16:51Z</time></trkpt><trkpt lat="47.117327489575636" lon="5.3935428037056905"><ele>203.0</ele><time>2026-03-28T10:16:52Z</time></trkpt><trkpt lat="47.11711461611603" lon="5.393693027750227"><ele>201.5</ele><time>2026-03-28T10:16:53Z</time></trkpt><trkpt lat="47.11690858740112" lon="5.39387763516239"><ele>200.0</ele><time>2026-03-28T10:16:54Z</time></trkpt><trkpt lat="47.11668825304527" lon="5.394021480568237"><ele>201.0</ele><time>2026-03-28T10:16:55Z</time></trkpt><trkpt lat="47.11647086229944" lon="5.394165912157834"><ele>202.0</ele><time>2026-03-28T10:16:56Z</time></trkpt><trkpt lat="47.11624731192683" lon="5.394317753480968"><ele>202.0</ele><time>2026-03-28T10:16:57Z</time></trkpt><trkpt lat="47.116019179737535" lon="5.394467754307219"><ele>202.0</ele><time>2026-03-28T10:16:58Z</time></trkpt><trkpt lat="47.115788177267206" lon="5.394611937738331"><ele>202.5</ele><time>2026-03-28T10:16:59Z</time></trkpt><trkpt lat="47.11555243806837" lon="5.394756144490747"><ele>203.0</ele><time>2026-03-28T10:17:00Z</time></trkpt><trkpt lat="47.115315554081974" lon="5.394901070341183"><ele>203.0</ele><time>2026-03-28T10:17:01Z</time></trkpt><trkpt lat="47.11507129352372" lon="5.395045589308417"><ele>203.0</ele><time>2026-03-28T10:17:02Z</time></trkpt><trkpt lat="47.1148255118374" lon="5.395192166333741"><ele>203.0</ele><time>2026-03-28T10:17:03Z</time></trkpt><trkpt lat="47.11457945952245" lon="5.395334842334815"><ele>203.0</ele><time>2026-03-28T10:17:04Z</time></trkpt><trkpt lat="47.11432827719015" lon="5.395477113707533"><ele>203.0</ele><time>2026-03-28T10:17:05Z</time></trkpt><trkpt lat="47.11407600124049" lon="5.395615330344506"><ele>203.0</ele><time>2026-03-28T10:17:06Z</time></trkpt><trkpt lat="47.113823139787335" lon="5.395751443113915"><ele>203.5</ele><time>2026-03-28T10:17:07Z</time></trkpt><trkpt lat="47.113568037206406" lon="5.395890711598741"><ele>204.0</ele><time>2026-03-28T10:17:08Z</time></trkpt><trkpt lat="47.113310013191104" lon="5.396023270417254"><ele>204.0</ele><time>2026-03-28T10:17:09Z</time></trkpt><trkpt lat="47.113050450252004" lon="5.3961531593180725"><ele>204.0</ele><time>2026-03-28T10:17:10Z</time></trkpt><trkpt lat="47.11278667333469" lon="5.396281417034339"><ele>203.5</ele><time>2026-03-28T10:17:11Z</time></trkpt><trkpt lat="47.112521960633146" lon="5.39640934942762"><ele>203.0</ele><time>2026-03-28T10:17:12Z</time></trkpt><trkpt lat="47.11226128199536" lon="5.3965256674350846"><ele>204.5</ele><time>2026-03-28T10:17:13Z</time></trkpt><trkpt lat="47.11199396650871" lon="5.396641862499534"><ele>206.0</ele><time>2026-03-28T10:17:14Z</time></trkpt><trkpt lat="47.111729303658635" lon="5.396757101639737"><ele>207.0</ele><time>2026-03-28T10:17:15Z</time></trkpt><trkpt lat="47.11146313788277" lon="5.396867684862826"><ele>208.0</ele><time>2026-03-28T10:17:16Z</time></trkpt><trkpt lat="47.11119472103271" lon="5.396971014243584"><ele>208.0</ele><time>2026-03-28T10:17:17Z</time></trkpt><trkpt lat="47.11092454819984" lon="5.397070249064305"><ele>208.0</ele><time>2026-03-28T10:17:18Z</time></trkpt><trkpt lat="47.11065321727074" lon="5.3971681608954425"><ele>207.5</ele><time>2026-03-28T10:17:19Z</time></trkpt><trkpt lat="47.11038421045786" lon="5.39726165963785"><ele>207.0</ele><time>2026-03-28T10:17:20Z</time></trkpt><trkpt lat="47.11011365977122" lon="5.397354784528139"><ele>205.5</ele><time>2026-03-28T10:17:21Z</time></trkpt><trkpt lat="47.10984429604116" lon="5.397445608728719"><ele>204.0</ele><time>2026-03-28T10:17:22Z</time></trkpt><trkpt lat="47.10957190196308" lon="5.3975315895619"><ele>204.0</ele><time>2026-03-28T10:17:23Z</time></trkpt><trkpt lat="47.109304331713716" lon="5.397615312967183"><ele>204.0</ele><time>2026-03-28T10:17:24Z</time></trkpt><trkpt lat="47.109032495068675" lon="5.397697381802797"><ele>204.0</ele><time>2026-03-28T10:17:25Z</time></trkpt><trkpt lat="47.10876039520747" lon="5.397776836300738"><ele>204.0</ele><time>2026-03-28T10:17:26Z</time></trkpt><trkpt lat="47.10848657832367" lon="5.3978588642624175"><ele>203.5</ele><time>2026-03-28T10:17:27Z</time></trkpt><trkpt lat="47.10821308120252" lon="5.39794087556677"><ele>203.0</ele><time>2026-03-28T10:17:28Z</time></trkpt><trkpt lat="47.107939704428816" lon="5.398015672563007"><ele>203.0</ele><time>2026-03-28T10:17:29Z</time></trkpt><trkpt lat="47.107669118436576" lon="5.398094710189958"><ele>203.0</ele><time>2026-03-28T10:17:30Z</time></trkpt><trkpt lat="47.10739171947445" lon="5.398177111937879"><ele>203.5</ele><time>2026-03-28T10:17:31Z</time></trkpt><trkpt lat="47.107117015080085" lon="5.398258436800587"><ele>204.0</ele><time>2026-03-28T10:17:32Z</time></trkpt><trkpt lat="47.10684422689701" lon="5.398341949483558"><ele>203.5</ele><time>2026-03-28T10:17:33Z</time></trkpt><trkpt lat="47.1065686250537" lon="5.39842773710717"><ele>203.0</ele><time>2026-03-28T10:17:34Z</time></trkpt><trkpt lat="47.10629382783882" lon="5.39851223002185"><ele>203.0</ele><time>2026-03-28T10:17:35Z</time></trkpt><trkpt lat="47.10602018686322" lon="5.398603508095618"><ele>203.0</ele><time>2026-03-28T10:17:36Z</time></trkpt><trkpt lat="47.1057461358217" lon="5.398692253866171"><ele>204.5</ele><time>2026-03-28T10:17:37Z</time></trkpt><trkpt lat="47.10547234268329" lon="5.398788303005557"><ele>206.0</ele><time>2026-03-28T10:17:38Z</time></trkpt><trkpt lat="47.105198671155996" lon="5.3988828087025675"><ele>207.5</ele><time>2026-03-28T10:17:39Z</time></trkpt><trkpt lat="47.104925428725466" lon="5.398979825256669"><ele>209.0</ele><time>2026-03-28T10:17:40Z</time></trkpt><trkpt lat="47.10465482861436" lon="5.399082153793793"><ele>209.0</ele><time>2026-03-28T10:17:41Z</time></trkpt><trkpt lat="47.104389128275336" lon="5.399191835188607"><ele>209.0</ele><time>2026-03-28T10:17:42Z</time></trkpt><trkpt lat="47.104121141658005" lon="5.3993098844061755"><ele>209.5</ele><time>2026-03-28T10:17:43Z</time></trkpt><trkpt lat="47.10385293354928" lon="5.399419072448905"><ele>210.0</ele><time>2026-03-28T10:17:44Z</time></trkpt><trkpt lat="47.103586007944564" lon="5.399536352184182"><ele>210.0</ele><time>2026-03-28T10:17:45Z</time></trkpt><trkpt lat="47.10331878706834" lon="5.39965678906481"><ele>210.0</ele><time>2026-03-28T10:17:46Z</time></trkpt><trkpt lat="47.10305290335955" lon="5.3997826509054505"><ele>210.5</ele><time>2026-03-28T10:17:47Z</time></trkpt><trkpt lat="47.10278950475396" lon="5.399915036773299"><ele>211.0</ele><time>2026-03-28T10:17:48Z</time></trkpt><trkpt lat="47.102526718574794" lon="5.400050394807072"><ele>210.5</ele><time>2026-03-28T10:17:49Z</time></trkpt><trkpt lat="47.102265293262555" lon="5.400184365882878"><ele>210.0</ele><time>2026-03-28T10:17:50Z</time></trkpt><trkpt lat="47.10200380252733" lon="5.400324385431892"><ele>210.0</ele><time>2026-03-28T10:17:51Z</time></trkpt><trkpt lat="47.10174702619001" lon="5.400470575891739"><ele>210.0</ele><time>2026-03-28T10:17:52Z</time></trkpt><trkpt lat="47.10148903827543" lon="5.400618603682942"><ele>209.0</ele><time>2026-03-28T10:17:53Z</time></trkpt><trkpt lat="47.10123076236608" lon="5.4007781189335144"><ele>208.0</ele><time>2026-03-28T10:17:54Z</time></trkpt><trkpt lat="47.10097663815594" lon="5.400934078555706"><ele>210.0</ele><time>2026-03-28T10:17:55Z</time></trkpt><trkpt lat="47.10072056359203" lon="5.401095946011732"><ele>212.0</ele><time>2026-03-28T10:17:56Z</time></trkpt><trkpt lat="47.10047314238052" lon="5.401259212541348"><ele>211.0</ele><time>2026-03-28T10:17:57Z</time></trkpt><trkpt lat="47.100234354014724" lon="5.40141131261975"><ele>210.0</ele><time>2026-03-28T10:17:58Z</time></trkpt><trkpt lat="47.10000968426344" lon="5.401563970720062"><ele>210.5</ele><time>2026-03-28T10:17:59Z</time></trkpt><trkpt lat="47.09979690231617" lon="5.4017116577475495"><ele>211.0</ele><time>2026-03-28T10:18:00Z</time></trkpt><trkpt lat="47.09960190022732" lon="5.4018519283099415"><ele>211.0</ele><time>2026-03-28T10:18:01Z</time></trkpt><trkpt lat="47.099413851924986" lon="5.401992491705399"><ele>211.0</ele><time>2026-03-28T10:18:02Z</time></trkpt><trkpt lat="47.09923584992772" lon="5.4021256135926095"><ele>211.0</ele><time>2026-03-28T10:18:03Z</time></trkpt><trkpt lat="47.09905730662681" lon="5.402257373736567"><ele>210.66666666666666</ele><time>2026-03-28T10:18:04Z</time></trkpt><trkpt lat="47.09888305151221" lon="5.402388679302453"><ele>210.33333333333331</ele><time>2026-03-28T10:18:05Z</time></trkpt><trkpt lat="47.098712286992104" lon="5.402520317382743"><ele>210.0</ele><time>2026-03-28T10:18:06Z</time></trkpt><trkpt lat="47.0985392886592" lon="5.402662098000332"><ele>210.0</ele><time>2026-03-28T10:18:07Z</time></trkpt><trkpt lat="47.09836613876972" lon="5.40280554250241"><ele>210.0</ele><time>2026-03-28T10:18:08Z</time></trkpt><trkpt lat="47.09819457708478" lon="5.402946842658132"><ele>210.0</ele><time>2026-03-28T10:18:09Z</time></trkpt><trkpt lat="47.09802520778426" lon="5.403087181769512"><ele>209.66666666666669</ele><time>2026-03-28T10:18:10Z</time></trkpt><trkpt lat="47.09785918531418" lon="5.403226668598676"><ele>209.33333333333334</ele><time>2026-03-28T10:18:11Z</time></trkpt><trkpt lat="47.097700840056945" lon="5.403361648859991"><ele>209.0</ele><time>2026-03-28T10:18:12Z</time></trkpt><trkpt lat="47.0975517340401" lon="5.403488465836102"><ele>209.0</ele><time>2026-03-28T10:18:13Z</time></trkpt><trkpt lat="47.09740818746512" lon="5.403613261810837"><ele>209.0</ele><time>2026-03-28T10:18:14Z</time></trkpt><trkpt lat="47.097268350707" lon="5.403735295537066"><ele>209.0</ele><time>2026-03-28T10:18:15Z</time></trkpt><trkpt lat="47.09713410665405" lon="5.403854244713447"><ele>209.0</ele><time>2026-03-28T10:18:16Z</time></trkpt><trkpt lat="47.09701153681984" lon="5.403963455546167"><ele>209.0</ele><time>2026-03-28T10:18:17Z</time></trkpt><trkpt lat="47.09690001280387" lon="5.404065938368639"><ele>209.0</ele><time>2026-03-28T10:18:18Z</time></trkpt><trkpt lat="47.09679682269113" lon="5.404163224055764"><ele>209.0</ele><time>2026-03-28T10:18:19Z</time></trkpt><trkpt lat="47.096701636552666" lon="5.4042514787592095"><ele>209.00000000000003</ele><time>2026-03-28T10:18:20Z</time></trkpt><trkpt lat="47.09661651113918" lon="5.404332804167194"><ele>209.0</ele><time>2026-03-28T10:18:21Z</time></trkpt><trkpt lat="47.09653633825523" lon="5.404406638432696"><ele>209.0</ele><time>2026-03-28T10:18:22Z</time></trkpt><trkpt lat="47.09646258750871" lon="5.404477781942109"><ele>209.0</ele><time>2026-03-28T10:18:23Z</time></trkpt><trkpt lat="47.09639461882049" lon="5.404542330241171"><ele>209.00000000000003</ele><time>2026-03-28T10:18:24Z</time></trkpt><trkpt lat="47.096333512749986" lon="5.404600031186209"><ele>209.0</ele><time>2026-03-28T10:18:25Z</time></trkpt><trkpt lat="47.096276469553544" lon="5.4046561339441554"><ele>209.33333333333334</ele><time>2026-03-28T10:18:26Z</time></trkpt><trkpt lat="47.09622172405087" lon="5.404710716714166"><ele>209.66666666666669</ele><time>2026-03-28T10:18:27Z</time></trkpt><trkpt lat="47.09612124784553" lon="5.404812703203899"><ele>210.0</ele><time>2026-03-28T10:18:29Z</time></trkpt><trkpt lat="47.096016195351986" lon="5.404909842726493"><ele>210.33333333333331</ele><time>2026-03-28T10:18:31Z</time></trkpt><trkpt lat="47.09596139333572" lon="5.404961328113917"><ele>210.66666666666666</ele><time>2026-03-28T10:18:32Z</time></trkpt><trkpt lat="47.095908660307444" lon="5.405015418241266"><ele>211.0</ele><time>2026-03-28T10:18:33Z</time></trkpt><trkpt lat="47.095807467690676" lon="5.405116423896007"><ele>210.8</ele><time>2026-03-28T10:18:35Z</time></trkpt><trkpt lat="47.095719432094754" lon="5.405205469187015"><ele>210.60000000000002</ele><time>2026-03-28T10:18:37Z</time></trkpt><trkpt lat="47.09563475071051" lon="5.405292048734564"><ele>210.4</ele><time>2026-03-28T10:18:39Z</time></trkpt><trkpt lat="47.095553036990445" lon="5.405373458921491"><ele>210.2</ele><time>2026-03-28T10:18:41Z</time></trkpt><trkpt lat="47.09547587694729" lon="5.405447497487626"><ele>210.0</ele><time>2026-03-28T10:18:43Z</time></trkpt><trkpt lat="47.095408471719665" lon="5.405521666976234"><ele>210.0</ele><time>2026-03-28T10:18:45Z</time></trkpt><trkpt lat="47.09534334406213" lon="5.405596476267174"><ele>210.0</ele><time>2026-03-28T10:18:47Z</time></trkpt><trkpt lat="47.09527366030138" lon="5.405668549674301"><ele>210.0</ele><time>2026-03-28T10:18:49Z</time></trkpt><trkpt lat="47.095205077646405" lon="5.405741825141287"><ele>210.0</ele><time>2026-03-28T10:18:51Z</time></trkpt><trkpt lat="47.09513621392054" lon="5.405814828263995"><ele>210.0</ele><time>2026-03-28T10:18:53Z</time></trkpt><trkpt lat="47.09506635488032" lon="5.4058959966104325"><ele>210.0</ele><time>2026-03-28T10:18:55Z</time></trkpt><trkpt lat="47.09499646106409" lon="5.4059713654417445"><ele>210.0</ele><time>2026-03-28T10:18:57Z</time></trkpt><trkpt lat="47.09493270407973" lon="5.406041821798732"><ele>210.0</ele><time>2026-03-28T10:18:59Z</time></trkpt><trkpt lat="47.09487087053412" lon="5.40610558558885"><ele>210.0</ele><time>2026-03-28T10:19:01Z</time></trkpt><trkpt lat="47.09480101640121" lon="5.4061817430551224"><ele>210.0</ele><time>2026-03-28T10:19:03Z</time></trkpt><trkpt lat="47.09471854812141" lon="5.4062752045474065"><ele>210.0</ele><time>2026-03-28T10:19:05Z</time></trkpt><trkpt lat="47.0946397027721" lon="5.4063683689127044"><ele>210.0</ele><time>2026-03-28T10:19:07Z</time></trkpt><trkpt lat="47.0945655253437" lon="5.406450192498082"><ele>210.4</ele><time>2026-03-28T10:19:09Z</time></trkpt><trkpt lat="47.09449689282293" lon="5.406528016370263"><ele>210.8</ele><time>2026-03-28T10:19:11Z</time></trkpt><trkpt lat="47.09442335384782" lon="5.406608513391422"><ele>211.2</ele><time>2026-03-28T10:19:13Z</time></trkpt><trkpt lat="47.09435200581538" lon="5.406690707116353"><ele>211.6</ele><time>2026-03-28T10:19:15Z</time></trkpt><trkpt lat="47.09427959410791" lon="5.406773071888882"><ele>212.0</ele><time>2026-03-28T10:19:17Z</time></trkpt><trkpt lat="47.09420822255128" lon="5.406861181546507"><ele>212.0</ele><time>2026-03-28T10:19:19Z</time></trkpt><trkpt lat="47.094141921406234" lon="5.406939160026529"><ele>212.0</ele><time>2026-03-28T10:19:21Z</time></trkpt><trkpt lat="47.09408024508746" lon="5.407012302301187"><ele>212.0</ele><time>2026-03-28T10:19:23Z</time></trkpt><trkpt lat="47.09402329497415" lon="5.407081546049478"><ele>212.0</ele><time>2026-03-28T10:19:25Z</time></trkpt><trkpt lat="47.09396950908394" lon="5.407144688889511"><ele>212.0</ele><time>2026-03-28T10:19:27Z</time></trkpt><trkpt lat="47.09391812907086" lon="5.407206766130708"><ele>212.0</ele><time>2026-03-28T10:19:29Z</time></trkpt><trkpt lat="47.09386452529991" lon="5.407282427536381"><ele>212.0</ele><time>2026-03-28T10:19:32Z</time></trkpt><trkpt lat="47.09381274908833" lon="5.407344258116888"><ele>212.00000000000003</ele><time>2026-03-28T10:19:37Z</time></trkpt><trkpt lat="47.093746824988436" lon="5.407421461816916"><ele>212.0</ele><time>2026-03-28T10:19:40Z</time></trkpt><trkpt lat="47.09369825418128" lon="5.407482718100831"><ele>212.0</ele><time>2026-03-28T10:19:42Z</time></trkpt><trkpt lat="47.093643068573755" lon="5.40755460767387"><ele>212.0</ele><time>2026-03-28T10:19:44Z</time></trkpt><trkpt lat="47.09359437139934" lon="5.407615566047317"><ele>212.00000000000003</ele><time>2026-03-28T10:19:46Z</time></trkpt><trkpt lat="47.09352237629382" lon="5.40770048021326"><ele>212.0</ele><time>2026-03-28T10:19:49Z</time></trkpt><trkpt lat="47.09345759888312" lon="5.407787764378467"><ele>212.0</ele><time>2026-03-28T10:19:52Z</time></trkpt><trkpt lat="47.09340369038408" lon="5.407858133500226"><ele>212.0</ele><time>2026-03-28T10:19:55Z</time></trkpt><trkpt lat="47.093353894369415" lon="5.40792333396406"><ele>212.0</ele><time>2026-03-28T10:19:58Z</time></trkpt><trkpt lat="47.09329243778777" lon="5.408006896092868"><ele>212.0</ele><time>2026-03-28T10:20:01Z</time></trkpt><trkpt lat="47.09323931598511" lon="5.4080799116185085"><ele>212.0</ele><time>2026-03-28T10:20:04Z</time></trkpt><trkpt lat="47.09318226463422" lon="5.408156639248405"><ele>212.0</ele><time>2026-03-28T10:20:08Z</time></trkpt><trkpt lat="47.093131960673595" lon="5.408217459046639"><ele>212.0</ele><time>2026-03-28T10:20:11Z</time></trkpt><trkpt lat="47.09307292931207" lon="5.40829300094665"><ele>211.71428571428572</ele><time>2026-03-28T10:20:15Z</time></trkpt><trkpt lat="47.09302401064946" lon="5.408357972141256"><ele>211.42857142857142</ele><time>2026-03-28T10:20:18Z</time></trkpt><trkpt lat="47.092966378173536" lon="5.408437323992148"><ele>211.14285714285714</ele><time>2026-03-28T10:20:22Z</time></trkpt><trkpt lat="47.09290494037259" lon="5.408521339127097"><ele>210.85714285714286</ele><time>2026-03-28T10:20:26Z</time></trkpt><trkpt lat="47.09284452020023" lon="5.408609093221462"><ele>210.57142857142856</ele><time>2026-03-28T10:20:30Z</time></trkpt><trkpt lat="47.0927927226535" lon="5.408677969196867"><ele>210.28571428571428</ele><time>2026-03-28T10:20:33Z</time></trkpt><trkpt lat="47.092747028005824" lon="5.4087433234388405"><ele>210.0</ele><time>2026-03-28T10:20:36Z</time></trkpt><trkpt lat="47.092693697332244" lon="5.408809139270543"><ele>210.0</ele><time>2026-03-28T10:20:41Z</time></trkpt><trkpt lat="47.09263738885991" lon="5.408885946905233"><ele>210.0</ele><time>2026-03-28T10:20:46Z</time></trkpt><trkpt lat="47.09258029088106" lon="5.408961944950399"><ele>210.0</ele><time>2026-03-28T10:20:49Z</time></trkpt><trkpt lat="47.092521969066674" lon="5.409043901839968"><ele>210.0</ele><time>2026-03-28T10:20:53Z</time></trkpt><trkpt lat="47.092461113228076" lon="5.409129788784465"><ele>210.0</ele><time>2026-03-28T10:20:56Z</time></trkpt><trkpt lat="47.09239638699463" lon="5.409219027566847"><ele>210.0</ele><time>2026-03-28T10:20:59Z</time></trkpt><trkpt lat="47.09234386688221" lon="5.409296211494434"><ele>210.0</ele><time>2026-03-28T10:21:02Z</time></trkpt><trkpt lat="47.0922925397989" lon="5.409370475212068"><ele>210.0</ele><time>2026-03-28T10:21:05Z</time></trkpt><trkpt lat="47.092239771031316" lon="5.409443594986558"><ele>210.0</ele><time>2026-03-28T10:21:08Z</time></trkpt><trkpt lat="47.092174859747544" lon="5.409535778088583"><ele>210.0</ele><time>2026-03-28T10:21:11Z</time></trkpt><trkpt lat="47.09213060330719" lon="5.40960431896713"><ele>210.0</ele><time>2026-03-28T10:21:13Z</time></trkpt><trkpt lat="47.09207158345047" lon="5.409682718708088"><ele>210.0</ele><time>2026-03-28T10:21:16Z</time></trkpt><trkpt lat="47.09201468392259" lon="5.409766652450821"><ele>209.66666666666666</ele><time>2026-03-28T10:21:19Z</time></trkpt><trkpt lat="47.0919492738946" lon="5.409864718193328"><ele>209.33333333333331</ele><time>2026-03-28T10:21:22Z</time></trkpt><trkpt lat="47.09189458309449" lon="5.409943448908313"><ele>209.0</ele><time>2026-03-28T10:21:24Z</time></trkpt><trkpt lat="47.09183993675153" lon="5.41001823110294"><ele>208.66666666666666</ele><time>2026-03-28T10:21:26Z</time></trkpt><trkpt lat="47.09179199572763" lon="5.410084438550986"><ele>208.33333333333331</ele><time>2026-03-28T10:21:28Z</time></trkpt><trkpt lat="47.091723739193434" lon="5.4101843989480605"><ele>208.0</ele><time>2026-03-28T10:21:31Z</time></trkpt><trkpt lat="47.0916718961633" lon="5.410261516113646"><ele>207.99999999999997</ele><time>2026-03-28T10:21:33Z</time></trkpt><trkpt lat="47.091622026329645" lon="5.410336532988847"><ele>208.0</ele><time>2026-03-28T10:21:35Z</time></trkpt><trkpt lat="47.091577568260654" lon="5.410405173233698"><ele>208.0</ele><time>2026-03-28T10:21:37Z</time></trkpt><trkpt lat="47.09151498739454" lon="5.410502265189324"><ele>208.0</ele><time>2026-03-28T10:21:40Z</time></trkpt><trkpt lat="47.091453041349894" lon="5.410592101234918"><ele>207.99999999999997</ele><time>2026-03-28T10:21:43Z</time></trkpt><trkpt lat="47.09140101523734" lon="5.410666670326689"><ele>208.0</ele><time>2026-03-28T10:21:46Z</time></trkpt><trkpt lat="47.09134523106283" lon="5.410757211570707"><ele>207.60000000000002</ele><time>2026-03-28T10:21:49Z</time></trkpt><trkpt lat="47.091301355295876" lon="5.4108254729613"><ele>207.20000000000002</ele><time>2026-03-28T10:21:51Z</time></trkpt><trkpt lat="47.091255193650774" lon="5.410896722214561"><ele>206.8</ele><time>2026-03-28T10:21:53Z</time></trkpt><trkpt lat="47.091195813191874" lon="5.410990863795343"><ele>206.4</ele><time>2026-03-28T10:21:55Z</time></trkpt><trkpt lat="47.09111650513915" lon="5.411109680483374"><ele>206.0</ele><time>2026-03-28T10:21:57Z</time></trkpt><trkpt lat="47.091029736573574" lon="5.4112557660653735"><ele>205.99999999999997</ele><time>2026-03-28T10:21:59Z</time></trkpt><trkpt lat="47.090983969670305" lon="5.4113314630257054"><ele>206.0</ele><time>2026-03-28T10:22:00Z</time></trkpt><trkpt lat="47.090934806979035" lon="5.411407432979929"><ele>206.0</ele><time>2026-03-28T10:22:01Z</time></trkpt><trkpt lat="47.09088440111352" lon="5.4114857676361705"><ele>206.0</ele><time>2026-03-28T10:22:02Z</time></trkpt><trkpt lat="47.090837300374496" lon="5.411559899546983"><ele>206.0</ele><time>2026-03-28T10:22:03Z</time></trkpt><trkpt lat="47.090791330643945" lon="5.411632018068107"><ele>205.99999999999997</ele><time>2026-03-28T10:22:04Z</time></trkpt><trkpt lat="47.09074457250247" lon="5.411704361736971"><ele>206.0</ele><time>2026-03-28T10:22:05Z</time></trkpt><trkpt lat="47.09070111539488" lon="5.411773202341839"><ele>206.20000000000002</ele><time>2026-03-28T10:22:06Z</time></trkpt><trkpt lat="47.09062098769041" lon="5.411903677520244"><ele>206.4</ele><time>2026-03-28T10:22:08Z</time></trkpt><trkpt lat="47.09054364434067" lon="5.41202716918699"><ele>206.6</ele><time>2026-03-28T10:22:10Z</time></trkpt><trkpt lat="47.090469698368686" lon="5.412144894413044"><ele>206.8</ele><time>2026-03-28T10:22:12Z</time></trkpt><trkpt lat="47.090400629505034" lon="5.412263032448649"><ele>207.0</ele><time>2026-03-28T10:22:14Z</time></trkpt><trkpt lat="47.09033975007879" lon="5.412370811316256"><ele>207.0</ele><time>2026-03-28T10:22:16Z</time></trkpt><trkpt lat="47.090276318889615" lon="5.412464686593463"><ele>207.0</ele><time>2026-03-28T10:22:18Z</time></trkpt><trkpt lat="47.09022884338816" lon="5.41255289277828"><ele>207.0</ele><time>2026-03-28T10:22:20Z</time></trkpt><trkpt lat="47.09018834738172" lon="5.4126252035457405"><ele>207.0</ele><time>2026-03-28T10:22:22Z</time></trkpt><trkpt lat="47.090133194568224" lon="5.412728731594495"><ele>207.0</ele><time>2026-03-28T10:22:25Z</time></trkpt><trkpt lat="47.09008145057202" lon="5.412822577232026"><ele>207.0</ele><time>2026-03-28T10:22:28Z</time></trkpt><trkpt lat="47.09002455528181" lon="5.412925878904203"><ele>207.14285714285717</ele><time>2026-03-28T10:22:31Z</time></trkpt><trkpt lat="47.08998411836827" lon="5.412998700556021"><ele>207.28571428571428</ele><time>2026-03-28T10:22:33Z</time></trkpt><trkpt lat="47.08992962141747" lon="5.41309074064094"><ele>207.42857142857144</ele><time>2026-03-28T10:22:36Z</time></trkpt><trkpt lat="47.089886995045184" lon="5.413163567251822"><ele>207.57142857142858</ele><time>2026-03-28T10:22:39Z</time></trkpt><trkpt lat="47.08984292122438" lon="5.413252109612296"><ele>207.71428571428572</ele><time>2026-03-28T10:22:43Z</time></trkpt><trkpt lat="47.08980061331616" lon="5.413327982881661"><ele>207.85714285714286</ele><time>2026-03-28T10:22:46Z</time></trkpt><trkpt lat="47.089753024378034" lon="5.413411460062891"><ele>208.0</ele><time>2026-03-28T10:22:50Z</time></trkpt><trkpt lat="47.089711158080796" lon="5.413493691458964"><ele>208.85714285714286</ele><time>2026-03-28T10:22:55Z</time></trkpt><trkpt lat="47.08967318208546" lon="5.413578428291951"><ele>209.71428571428572</ele><time>2026-03-28T10:23:00Z</time></trkpt><trkpt lat="47.089635053940675" lon="5.41365470956345"><ele>210.57142857142858</ele><time>2026-03-28T10:23:04Z</time></trkpt><trkpt lat="47.08959006677735" lon="5.4137406529108745"><ele>211.42857142857144</ele><time>2026-03-28T10:23:09Z</time></trkpt><trkpt lat="47.08954035238014" lon="5.4138242184140974"><ele>212.28571428571428</ele><time>2026-03-28T10:23:14Z</time></trkpt><trkpt lat="47.08949350950902" lon="5.413901706468431"><ele>213.14285714285717</ele><time>2026-03-28T10:23:18Z</time></trkpt><trkpt lat="47.08944236555148" lon="5.414002024244439"><ele>214.0</ele><time>2026-03-28T10:23:21Z</time></trkpt><trkpt lat="47.089403463285244" lon="5.414084129870229"><ele>214.00000000000003</ele><time>2026-03-28T10:23:23Z</time></trkpt><trkpt lat="47.089361015880776" lon="5.41417167826603"><ele>214.0</ele><time>2026-03-28T10:23:25Z</time></trkpt><trkpt lat="47.08931647266824" lon="5.414250463079275"><ele>214.0</ele><time>2026-03-28T10:23:27Z</time></trkpt><trkpt lat="47.08927813523521" lon="5.4143291159635"><ele>214.0</ele><time>2026-03-28T10:23:29Z</time></trkpt><trkpt lat="47.08922333165451" lon="5.414439415024564"><ele>214.0</ele><time>2026-03-28T10:23:32Z</time></trkpt><trkpt lat="47.08918146059892" lon="5.4145193921946575"><ele>214.00000000000003</ele><time>2026-03-28T10:23:34Z</time></trkpt><trkpt lat="47.089140096264764" lon="5.414599812619994"><ele>214.0</ele><time>2026-03-28T10:23:36Z</time></trkpt><trkpt lat="47.08909982270412" lon="5.414681335455006"><ele>213.99999999999997</ele><time>2026-03-28T10:23:38Z</time></trkpt><trkpt lat="47.089060056687714" lon="5.41475750645503"><ele>214.0</ele><time>2026-03-28T10:23:40Z</time></trkpt><trkpt lat="47.08901912769116" lon="5.414845526124927"><ele>214.0</ele><time>2026-03-28T10:23:42Z</time></trkpt><trkpt lat="47.08897538487122" lon="5.414929781758721"><ele>214.0</ele><time>2026-03-28T10:23:44Z</time></trkpt><trkpt lat="47.088936351907776" lon="5.415007148940015"><ele>213.99999999999997</ele><time>2026-03-28T10:23:46Z</time></trkpt><trkpt lat="47.088882540854115" lon="5.415111281433077"><ele>214.0</ele><time>2026-03-28T10:23:49Z</time></trkpt><trkpt lat="47.088830994206816" lon="5.4152166415755065"><ele>213.99999999999997</ele><time>2026-03-28T10:23:52Z</time></trkpt><trkpt lat="47.088788326060445" lon="5.415302285654043"><ele>214.0</ele><time>2026-03-28T10:23:54Z</time></trkpt><trkpt lat="47.08874591638927" lon="5.415392051561969"><ele>214.0</ele><time>2026-03-28T10:23:56Z</time></trkpt><trkpt lat="47.088699227481975" lon="5.4154922774827545"><ele>214.0</ele><time>2026-03-28T10:23:58Z</time></trkpt><trkpt lat="47.088650190333944" lon="5.415598903859487"><ele>213.99999999999997</ele><time>2026-03-28T10:24:00Z</time></trkpt><trkpt lat="47.08859711111299" lon="5.415705732358465"><ele>214.0</ele><time>2026-03-28T10:24:02Z</time></trkpt><trkpt lat="47.08854719983631" lon="5.415815027589919"><ele>213.99999999999997</ele><time>2026-03-28T10:24:04Z</time></trkpt><trkpt lat="47.08849652185535" lon="5.415922020250853"><ele>214.0</ele><time>2026-03-28T10:24:06Z</time></trkpt><trkpt lat="47.0884485943967" lon="5.41603605567462"><ele>214.0</ele><time>2026-03-28T10:24:08Z</time></trkpt><trkpt lat="47.08839926661683" lon="5.416143516743942"><ele>214.0</ele><time>2026-03-28T10:24:10Z</time></trkpt><trkpt lat="47.08835643952717" lon="5.416244531273357"><ele>213.99999999999997</ele><time>2026-03-28T10:24:12Z</time></trkpt><trkpt lat="47.08830930387559" lon="5.416340822070231"><ele>214.0</ele><time>2026-03-28T10:24:14Z</time></trkpt><trkpt lat="47.08827017034556" lon="5.416427646424441"><ele>213.6</ele><time>2026-03-28T10:24:16Z</time></trkpt><trkpt lat="47.08823037170518" lon="5.416517406794137"><ele>213.2</ele><time>2026-03-28T10:24:18Z</time></trkpt><trkpt lat="47.08818451291931" lon="5.416622243476225"><ele>212.79999999999998</ele><time>2026-03-28T10:24:20Z</time></trkpt><trkpt lat="47.08812971003852" lon="5.416749725899457"><ele>212.39999999999998</ele><time>2026-03-28T10:24:22Z</time></trkpt><trkpt lat="47.08807177964749" lon="5.416875614334686"><ele>212.0</ele><time>2026-03-28T10:24:24Z</time></trkpt><trkpt lat="47.08801672360238" lon="5.417014629398304"><ele>212.00000000000003</ele><time>2026-03-28T10:24:26Z</time></trkpt><trkpt lat="47.08796736225454" lon="5.417124943927389"><ele>212.0</ele><time>2026-03-28T10:24:28Z</time></trkpt><trkpt lat="47.08792307127232" lon="5.417225816924011"><ele>212.0</ele><time>2026-03-28T10:24:30Z</time></trkpt><trkpt lat="47.08788614064769" lon="5.417307899614703"><ele>212.0</ele><time>2026-03-28T10:24:32Z</time></trkpt><trkpt lat="47.087843055405315" lon="5.417403526039018"><ele>212.00000000000003</ele><time>2026-03-28T10:24:35Z</time></trkpt><trkpt lat="47.08779875246518" lon="5.4174941887997585"><ele>212.0</ele><time>2026-03-28T10:24:38Z</time></trkpt><trkpt lat="47.08774969594616" lon="5.417607115626054"><ele>212.16666666666669</ele><time>2026-03-28T10:24:41Z</time></trkpt><trkpt lat="47.08771101288698" lon="5.41771260328569"><ele>212.33333333333334</ele><time>2026-03-28T10:24:44Z</time></trkpt><trkpt lat="47.087675896432934" lon="5.417795664025587"><ele>212.5</ele><time>2026-03-28T10:24:47Z</time></trkpt><trkpt lat="47.087639879932574" lon="5.41788601282969"><ele>212.66666666666669</ele><time>2026-03-28T10:24:50Z</time></trkpt><trkpt lat="47.08759039580203" lon="5.418006664930517"><ele>212.83333333333334</ele><time>2026-03-28T10:24:53Z</time></trkpt><trkpt lat="47.087550565051174" lon="5.418109875605118"><ele>213.0</ele><time>2026-03-28T10:24:56Z</time></trkpt><trkpt lat="47.08751559518758" lon="5.418198058954642"><ele>213.33333333333334</ele><time>2026-03-28T10:24:59Z</time></trkpt><trkpt lat="47.08747275025527" lon="5.418322132766502"><ele>213.66666666666669</ele><time>2026-03-28T10:25:02Z</time></trkpt><trkpt lat="47.08743667702116" lon="5.418409384471036"><ele>214.0</ele><time>2026-03-28T10:25:04Z</time></trkpt><trkpt lat="47.08739207067468" lon="5.418522159218527"><ele>214.33333333333334</ele><time>2026-03-28T10:25:07Z</time></trkpt><trkpt lat="47.08734748993415" lon="5.418630983079255"><ele>214.66666666666669</ele><time>2026-03-28T10:25:10Z</time></trkpt><trkpt lat="47.087310945023276" lon="5.418719449851381"><ele>215.0</ele><time>2026-03-28T10:25:12Z</time></trkpt><trkpt lat="47.08727406588115" lon="5.418808029878201"><ele>215.66666666666669</ele><time>2026-03-28T10:25:14Z</time></trkpt><trkpt lat="47.087243129804925" lon="5.418889236200018"><ele>216.33333333333334</ele><time>2026-03-28T10:25:16Z</time></trkpt><trkpt lat="47.087193519009574" lon="5.41900752846761"><ele>217.0</ele><time>2026-03-28T10:25:19Z</time></trkpt><trkpt lat="47.087150969142435" lon="5.419113672093909"><ele>217.66666666666669</ele><time>2026-03-28T10:25:21Z</time></trkpt><trkpt lat="47.087102642279895" lon="5.419233081682373"><ele>218.33333333333334</ele><time>2026-03-28T10:25:23Z</time></trkpt><trkpt lat="47.08706891069777" lon="5.4193158536805415"><ele>219.0</ele><time>2026-03-28T10:25:24Z</time></trkpt><trkpt lat="47.087014800363" lon="5.41945147080312"><ele>219.0</ele><time>2026-03-28T10:25:26Z</time></trkpt><trkpt lat="47.08696481567723" lon="5.4195790186892285"><ele>218.99999999999997</ele><time>2026-03-28T10:25:28Z</time></trkpt><trkpt lat="47.08691221485605" lon="5.4197149439168015"><ele>218.99999999999997</ele><time>2026-03-28T10:25:30Z</time></trkpt><trkpt lat="47.086853737358176" lon="5.419864316874505"><ele>219.0</ele><time>2026-03-28T10:25:32Z</time></trkpt><trkpt lat="47.086794217990054" lon="5.420016313409351"><ele>219.0</ele><time>2026-03-28T10:25:34Z</time></trkpt><trkpt lat="47.08676321171755" lon="5.420097581831631"><ele>219.16666666666666</ele><time>2026-03-28T10:25:35Z</time></trkpt><trkpt lat="47.086725551102035" lon="5.420193039305952"><ele>219.33333333333331</ele><time>2026-03-28T10:25:36Z</time></trkpt><trkpt lat="47.086686276729644" lon="5.4202889917974115"><ele>219.5</ele><time>2026-03-28T10:25:37Z</time></trkpt><trkpt lat="47.086644885153994" lon="5.420385874362777"><ele>219.66666666666666</ele><time>2026-03-28T10:25:38Z</time></trkpt><trkpt lat="47.08660127613719" lon="5.420489247087552"><ele>219.83333333333331</ele><time>2026-03-28T10:25:39Z</time></trkpt><trkpt lat="47.086561023701556" lon="5.420593564885675"><ele>220.0</ele><time>2026-03-28T10:25:40Z</time></trkpt><trkpt lat="47.086524712072034" lon="5.420687569367264"><ele>220.66666666666666</ele><time>2026-03-28T10:25:41Z</time></trkpt><trkpt lat="47.08649225609399" lon="5.420773375865181"><ele>221.33333333333331</ele><time>2026-03-28T10:25:42Z</time></trkpt><trkpt lat="47.08643733017856" lon="5.420911496204883"><ele>222.0</ele><time>2026-03-28T10:25:44Z</time></trkpt><trkpt lat="47.08639325732321" lon="5.421020455109992"><ele>222.66666666666669</ele><time>2026-03-28T10:25:46Z</time></trkpt><trkpt lat="47.08635880498858" lon="5.421106314158951"><ele>223.33333333333334</ele><time>2026-03-28T10:25:48Z</time></trkpt><trkpt lat="47.086320906680214" lon="5.421207739348247"><ele>224.0</ele><time>2026-03-28T10:25:51Z</time></trkpt><trkpt lat="47.08628805942544" lon="5.421289550713513"><ele>224.14285714285714</ele><time>2026-03-28T10:26:05Z</time></trkpt><trkpt lat="47.08624241211622" lon="5.421408665862272"><ele>224.28571428571428</ele><time>2026-03-28T10:26:08Z</time></trkpt><trkpt lat="47.086214378611444" lon="5.421494030119415"><ele>224.42857142857144</ele><time>2026-03-28T10:26:10Z</time></trkpt><trkpt lat="47.086179344136" lon="5.4215963635154605"><ele>224.57142857142858</ele><time>2026-03-28T10:26:13Z</time></trkpt><trkpt lat="47.08614709858886" lon="5.421694092180718"><ele>224.71428571428572</ele><time>2026-03-28T10:26:17Z</time></trkpt><trkpt lat="47.08611362287356" lon="5.4217735622374885"><ele>224.8571428571429</ele><time>2026-03-28T10:26:23Z</time></trkpt><trkpt lat="47.08607633693045" lon="5.421849926658277"><ele>225.00000000000003</ele><time>2026-03-28T10:26:29Z</time></trkpt><trkpt lat="47.086044158893124" lon="5.421939589081987"><ele>225.00000000000003</ele><time>2026-03-28T10:26:53Z</time></trkpt><trkpt lat="47.086010374618795" lon="5.422037664318489"><ele>225.0</ele><time>2026-03-28T10:26:55Z</time></trkpt><trkpt lat="47.08597901103601" lon="5.422134625951201"><ele>225.00000000000003</ele><time>2026-03-28T10:26:58Z</time></trkpt><trkpt lat="47.08595354867991" lon="5.4222333859154155"><ele>225.00000000000003</ele><time>2026-03-28T10:27:03Z</time></trkpt><trkpt lat="47.08591701019067" lon="5.422321930360136"><ele>225.0</ele><time>2026-03-28T10:27:07Z</time></trkpt><trkpt lat="47.08587587896773" lon="5.422423207419438"><ele>225.00000000000003</ele><time>2026-03-28T10:29:27Z</time></trkpt><trkpt lat="47.085830071093" lon="5.422513345214279"><ele>225.00000000000003</ele><time>2026-03-28T10:29:45Z</time></trkpt><trkpt lat="47.085790292956375" lon="5.422609657575153"><ele>225.0</ele><time>2026-03-28T10:30:06Z</time></trkpt><trkpt lat="47.08574142351191" lon="5.422734994335137"><ele>225.0</ele><time>2026-03-28T10:30:09Z</time></trkpt><trkpt lat="47.08570219173426" lon="5.422848655500741"><ele>225.0</ele><time>2026-03-28T10:30:12Z</time></trkpt><trkpt lat="47.085661860449385" lon="5.422946300343254"><ele>225.0</ele><time>2026-03-28T10:30:15Z</time></trkpt><trkpt lat="47.08562823703237" lon="5.423026449678891"><ele>225.0</ele><time>2026-03-28T10:30:18Z</time></trkpt><trkpt lat="47.08559641859185" lon="5.423107745639057"><ele>225.0</ele><time>2026-03-28T10:30:21Z</time></trkpt><trkpt lat="47.085550168052606" lon="5.423209340064502"><ele>225.0</ele><time>2026-03-28T10:30:53Z</time></trkpt><trkpt lat="47.08550725649062" lon="5.423318857061558"><ele>225.0</ele><time>2026-03-28T10:30:56Z</time></trkpt><trkpt lat="47.08546600642382" lon="5.423421036477787"><ele>225.0</ele><time>2026-03-28T10:30:59Z</time></trkpt><trkpt lat="47.085433792895095" lon="5.423507730170504"><ele>225.0</ele><time>2026-03-28T10:31:02Z</time></trkpt><trkpt lat="47.08539989381816" lon="5.42359757767826"><ele>225.0</ele><time>2026-03-28T10:31:04Z</time></trkpt><trkpt lat="47.085357529890445" lon="5.423712471673488"><ele>225.0</ele><time>2026-03-28T10:31:06Z</time></trkpt><trkpt lat="47.085306890157646" lon="5.423838744654185"><ele>224.66666666666666</ele><time>2026-03-28T10:31:08Z</time></trkpt><trkpt lat="47.08525933682591" lon="5.423965353041065"><ele>224.33333333333331</ele><time>2026-03-28T10:31:10Z</time></trkpt><trkpt lat="47.08521005650679" lon="5.424090866928174"><ele>224.0</ele><time>2026-03-28T10:31:12Z</time></trkpt><trkpt lat="47.08516984073197" lon="5.424197546424131"><ele>223.66666666666666</ele><time>2026-03-28T10:31:14Z</time></trkpt><trkpt lat="47.0851348834089" lon="5.424283023229005"><ele>223.33333333333331</ele><time>2026-03-28T10:31:16Z</time></trkpt><trkpt lat="47.08510493387311" lon="5.424366385819733"><ele>223.0</ele><time>2026-03-28T10:31:19Z</time></trkpt><trkpt lat="47.085065639315616" lon="5.4244498217438615"><ele>222.99999999999997</ele><time>2026-03-28T10:31:32Z</time></trkpt><trkpt lat="47.085027690359645" lon="5.424555032156996"><ele>223.0</ele><time>2026-03-28T10:31:36Z</time></trkpt><trkpt lat="47.08499239170407" lon="5.424641494694354"><ele>223.0</ele><time>2026-03-28T10:31:39Z</time></trkpt><trkpt lat="47.08496051894725" lon="5.424724830558244"><ele>223.0</ele><time>2026-03-28T10:31:41Z</time></trkpt><trkpt lat="47.084930112759636" lon="5.424805806782738"><ele>222.99999999999997</ele><time>2026-03-28T10:31:43Z</time></trkpt><trkpt lat="47.0848976159868" lon="5.424936535976172"><ele>223.0</ele><time>2026-03-28T10:31:46Z</time></trkpt><trkpt lat="47.0848580748512" lon="5.42505585085501"><ele>224.0</ele><time>2026-03-28T10:31:48Z</time></trkpt><trkpt lat="47.084805983867874" lon="5.425198958709298"><ele>225.0</ele><time>2026-03-28T10:31:50Z</time></trkpt><trkpt lat="47.084752499692115" lon="5.425337825305277"><ele>226.0</ele><time>2026-03-28T10:31:52Z</time></trkpt><trkpt lat="47.08469530674016" lon="5.425487252125913"><ele>227.0</ele><time>2026-03-28T10:31:54Z</time></trkpt><trkpt lat="47.08464059937048" lon="5.425628588556589"><ele>228.0</ele><time>2026-03-28T10:31:56Z</time></trkpt><trkpt lat="47.08458339760459" lon="5.425758890866991"><ele>228.0</ele><time>2026-03-28T10:31:58Z</time></trkpt><trkpt lat="47.08453187178185" lon="5.425890407690148"><ele>228.0</ele><time>2026-03-28T10:32:00Z</time></trkpt><trkpt lat="47.08448493090338" lon="5.426007091359952"><ele>228.0</ele><time>2026-03-28T10:32:02Z</time></trkpt><trkpt lat="47.084444376818105" lon="5.426108596438005"><ele>228.0</ele><time>2026-03-28T10:32:04Z</time></trkpt><trkpt lat="47.084407256422416" lon="5.426211265301788"><ele>228.0</ele><time>2026-03-28T10:32:06Z</time></trkpt><trkpt lat="47.08436184100861" lon="5.426316304566619"><ele>228.0</ele><time>2026-03-28T10:32:08Z</time></trkpt><trkpt lat="47.08431638968715" lon="5.4264289259884935"><ele>228.16666666666666</ele><time>2026-03-28T10:32:10Z</time></trkpt><trkpt lat="47.0842704280276" lon="5.426544063582808"><ele>228.33333333333331</ele><time>2026-03-28T10:32:12Z</time></trkpt><trkpt lat="47.08422583718759" lon="5.426651302533942"><ele>228.5</ele><time>2026-03-28T10:32:14Z</time></trkpt><trkpt lat="47.08418702189655" lon="5.426743154607431"><ele>228.66666666666666</ele><time>2026-03-28T10:32:16Z</time></trkpt><trkpt lat="47.084150541150215" lon="5.426835066781373"><ele>228.83333333333331</ele><time>2026-03-28T10:32:18Z</time></trkpt><trkpt lat="47.084114546373165" lon="5.426927299488819"><ele>229.0</ele><time>2026-03-28T10:32:20Z</time></trkpt><trkpt lat="47.08407829359587" lon="5.427008373611792"><ele>230.42857142857142</ele><time>2026-03-28T10:32:23Z</time></trkpt><trkpt lat="47.08403492111756" lon="5.427112438425291"><ele>231.8571428571429</ele><time>2026-03-28T10:32:43Z</time></trkpt><trkpt lat="47.08399758470046" lon="5.427208236421494"><ele>233.2857142857143</ele><time>2026-03-28T10:32:47Z</time></trkpt><trkpt lat="47.08396151178273" lon="5.4273026844237275"><ele>234.71428571428572</ele><time>2026-03-28T10:32:51Z</time></trkpt><trkpt lat="47.083927290073554" lon="5.427381763655433"><ele>236.14285714285717</ele><time>2026-03-28T10:32:53Z</time></trkpt><trkpt lat="47.08388413428624" lon="5.427471188214473"><ele>237.5714285714286</ele><time>2026-03-28T10:32:55Z</time></trkpt><trkpt lat="47.08383864557937" lon="5.4275656154878"><ele>239.00000000000003</ele><time>2026-03-28T10:32:57Z</time></trkpt><trkpt lat="47.08379751826933" lon="5.42766151213275"><ele>239.00000000000003</ele><time>2026-03-28T10:32:59Z</time></trkpt><trkpt lat="47.083758778533614" lon="5.4277437902514505"><ele>239.0</ele><time>2026-03-28T10:33:01Z</time></trkpt><trkpt lat="47.08371946616815" lon="5.427822534020236"><ele>239.0</ele><time>2026-03-28T10:33:03Z</time></trkpt><trkpt lat="47.08367230554915" lon="5.427927440265807"><ele>239.0</ele><time>2026-03-28T10:33:06Z</time></trkpt><trkpt lat="47.08361829593335" lon="5.4280391131781425"><ele>239.00000000000003</ele><time>2026-03-28T10:33:09Z</time></trkpt><trkpt lat="47.08357117188471" lon="5.428122583723641"><ele>239.0</ele><time>2026-03-28T10:33:11Z</time></trkpt><trkpt lat="47.08351958410231" lon="5.428227258159006"><ele>239.16666666666669</ele><time>2026-03-28T10:33:14Z</time></trkpt><trkpt lat="47.083475510388055" lon="5.428321486608322"><ele>239.33333333333334</ele><time>2026-03-28T10:33:17Z</time></trkpt><trkpt lat="47.083430515927475" lon="5.428425297487365"><ele>239.5</ele><time>2026-03-28T10:33:20Z</time></trkpt><trkpt lat="47.083387372649035" lon="5.428516192592058"><ele>239.66666666666669</ele><time>2026-03-28T10:33:22Z</time></trkpt><trkpt lat="47.08333641906436" lon="5.428615720247705"><ele>239.83333333333334</ele><time>2026-03-28T10:33:24Z</time></trkpt><trkpt lat="47.08328077029" lon="5.42873555440875"><ele>240.0</ele><time>2026-03-28T10:33:26Z</time></trkpt><trkpt lat="47.08321940486253" lon="5.428862649011733"><ele>240.0</ele><time>2026-03-28T10:33:28Z</time></trkpt><trkpt lat="47.083145259296536" lon="5.42901735352588"><ele>240.0</ele><time>2026-03-28T10:33:30Z</time></trkpt><trkpt lat="47.08310191269007" lon="5.429103537682755"><ele>240.0</ele><time>2026-03-28T10:33:31Z</time></trkpt><trkpt lat="47.083059799616336" lon="5.429192134791801"><ele>240.0</ele><time>2026-03-28T10:33:32Z</time></trkpt><trkpt lat="47.08301307890588" lon="5.429282245143956"><ele>240.0</ele><time>2026-03-28T10:33:33Z</time></trkpt><trkpt lat="47.08296163327495" lon="5.42937762510202"><ele>240.0</ele><time>2026-03-28T10:33:34Z</time></trkpt><trkpt lat="47.08291204613515" lon="5.429472593141756"><ele>240.0</ele><time>2026-03-28T10:33:35Z</time></trkpt><trkpt lat="47.08286079960747" lon="5.4295639250889565"><ele>240.0</ele><time>2026-03-28T10:33:36Z</time></trkpt><trkpt lat="47.08280821093368" lon="5.429662426652615"><ele>240.0</ele><time>2026-03-28T10:33:37Z</time></trkpt><trkpt lat="47.08275352185951" lon="5.42976152705528"><ele>240.0</ele><time>2026-03-28T10:33:38Z</time></trkpt><trkpt lat="47.08269468727991" lon="5.429862613906007"><ele>240.0</ele><time>2026-03-28T10:33:39Z</time></trkpt><trkpt lat="47.0826320071151" lon="5.429972423044047"><ele>240.0</ele><time>2026-03-28T10:33:40Z</time></trkpt><trkpt lat="47.08257039675982" lon="5.430080511919581"><ele>239.4</ele><time>2026-03-28T10:33:41Z</time></trkpt><trkpt lat="47.08250642962495" lon="5.430191287762529"><ele>238.8</ele><time>2026-03-28T10:33:42Z</time></trkpt><trkpt lat="47.082436271582395" lon="5.430307648665938"><ele>238.2</ele><time>2026-03-28T10:33:43Z</time></trkpt><trkpt lat="47.08236744837985" lon="5.430427510185313"><ele>237.6</ele><time>2026-03-28T10:33:44Z</time></trkpt><trkpt lat="47.08229741031533" lon="5.430545538971682"><ele>237.0</ele><time>2026-03-28T10:33:45Z</time></trkpt><trkpt lat="47.08222582625354" lon="5.4306648602948115"><ele>237.0</ele><time>2026-03-28T10:33:46Z</time></trkpt><trkpt lat="47.08215227689353" lon="5.430782620001837"><ele>237.0</ele><time>2026-03-28T10:33:47Z</time></trkpt><trkpt lat="47.082079858767834" lon="5.430899530510362"><ele>237.0</ele><time>2026-03-28T10:33:48Z</time></trkpt><trkpt lat="47.08200550754315" lon="5.431016320183383"><ele>237.0</ele><time>2026-03-28T10:33:49Z</time></trkpt><trkpt lat="47.081928903079174" lon="5.43113147196028"><ele>237.0</ele><time>2026-03-28T10:33:50Z</time></trkpt><trkpt lat="47.08185583701999" lon="5.431245764119639"><ele>237.6</ele><time>2026-03-28T10:33:51Z</time></trkpt><trkpt lat="47.08178175660266" lon="5.431355910361295"><ele>238.2</ele><time>2026-03-28T10:33:52Z</time></trkpt><trkpt lat="47.081709636821905" lon="5.43146564029981"><ele>238.8</ele><time>2026-03-28T10:33:53Z</time></trkpt><trkpt lat="47.08163572690525" lon="5.431572178180592"><ele>239.4</ele><time>2026-03-28T10:33:54Z</time></trkpt><trkpt lat="47.08156220873877" lon="5.4316818231067705"><ele>240.0</ele><time>2026-03-28T10:33:55Z</time></trkpt><trkpt lat="47.081489212913404" lon="5.431786817578266"><ele>240.0</ele><time>2026-03-28T10:33:56Z</time></trkpt><trkpt lat="47.08141163864827" lon="5.431893640699513"><ele>240.0</ele><time>2026-03-28T10:33:57Z</time></trkpt><trkpt lat="47.08133711800564" lon="5.432004962404382"><ele>240.0</ele><time>2026-03-28T10:33:58Z</time></trkpt><trkpt lat="47.081260330854" lon="5.432118075162956"><ele>240.0</ele><time>2026-03-28T10:33:59Z</time></trkpt><trkpt lat="47.08117888538656" lon="5.432228949835995"><ele>240.0</ele><time>2026-03-28T10:34:00Z</time></trkpt><trkpt lat="47.08109731998085" lon="5.4323399732348046"><ele>238.25</ele><time>2026-03-28T10:34:01Z</time></trkpt><trkpt lat="47.0810223036408" lon="5.432460059490917"><ele>236.5</ele><time>2026-03-28T10:34:02Z</time></trkpt><trkpt lat="47.080935179628106" lon="5.4325716732960085"><ele>234.75</ele><time>2026-03-28T10:34:03Z</time></trkpt><trkpt lat="47.08084485946764" lon="5.432685158585321"><ele>233.0</ele><time>2026-03-28T10:34:04Z</time></trkpt><trkpt lat="47.08075650221077" lon="5.432805164836904"><ele>233.0</ele><time>2026-03-28T10:34:05Z</time></trkpt><trkpt lat="47.080665588733986" lon="5.432922765538391"><ele>233.0</ele><time>2026-03-28T10:34:06Z</time></trkpt><trkpt lat="47.08057189076015" lon="5.433042907158117"><ele>233.0</ele><time>2026-03-28T10:34:07Z</time></trkpt><trkpt lat="47.080478604419376" lon="5.4331653519828755"><ele>233.0</ele><time>2026-03-28T10:34:08Z</time></trkpt><trkpt lat="47.08038196732395" lon="5.433283833742524"><ele>232.25</ele><time>2026-03-28T10:34:09Z</time></trkpt><trkpt lat="47.080284644104694" lon="5.433400756692208"><ele>231.5</ele><time>2026-03-28T10:34:10Z</time></trkpt><trkpt lat="47.08018717384637" lon="5.433520501600078"><ele>230.75</ele><time>2026-03-28T10:34:11Z</time></trkpt><trkpt lat="47.080082937632355" lon="5.433634394744237"><ele>230.0</ele><time>2026-03-28T10:34:12Z</time></trkpt><trkpt lat="47.07997843169853" lon="5.433754092451375"><ele>229.5</ele><time>2026-03-28T10:34:13Z</time></trkpt><trkpt lat="47.07987496874277" lon="5.433869329881073"><ele>229.0</ele><time>2026-03-28T10:34:14Z</time></trkpt><trkpt lat="47.07976638875884" lon="5.433992689735009"><ele>228.5</ele><time>2026-03-28T10:34:15Z</time></trkpt><trkpt lat="47.079653832743325" lon="5.434120684920896"><ele>228.0</ele><time>2026-03-28T10:34:16Z</time></trkpt><trkpt lat="47.07953724105511" lon="5.43424652774585"><ele>228.0</ele><time>2026-03-28T10:34:17Z</time></trkpt><trkpt lat="47.079420613292356" lon="5.434376744767691"><ele>228.0</ele><time>2026-03-28T10:34:18Z</time></trkpt><trkpt lat="47.07929563510402" lon="5.4345057225331885"><ele>228.0</ele><time>2026-03-28T10:34:19Z</time></trkpt><trkpt lat="47.07917142291917" lon="5.434632602591434"><ele>227.33333333333331</ele><time>2026-03-28T10:34:20Z</time></trkpt><trkpt lat="47.0790442204905" lon="5.434756909096986"><ele>226.66666666666666</ele><time>2026-03-28T10:34:21Z</time></trkpt><trkpt lat="47.078917012060344" lon="5.434877618501766"><ele>226.0</ele><time>2026-03-28T10:34:22Z</time></trkpt><trkpt lat="47.078790655186765" lon="5.43500131014022"><ele>226.0</ele><time>2026-03-28T10:34:23Z</time></trkpt><trkpt lat="47.07866073922385" lon="5.435118468287034"><ele>226.0</ele><time>2026-03-28T10:34:24Z</time></trkpt><trkpt lat="47.078531545704" lon="5.435240849159481"><ele>226.0</ele><time>2026-03-28T10:34:25Z</time></trkpt><trkpt lat="47.07840052701288" lon="5.435360158739071"><ele>225.0</ele><time>2026-03-28T10:34:26Z</time></trkpt><trkpt lat="47.07826578249956" lon="5.435473863361299"><ele>224.0</ele><time>2026-03-28T10:34:27Z</time></trkpt><trkpt lat="47.07812963600361" lon="5.4355863071495625"><ele>223.0</ele><time>2026-03-28T10:34:28Z</time></trkpt><trkpt lat="47.077992532380414" lon="5.435699058190191"><ele>223.0</ele><time>2026-03-28T10:34:29Z</time></trkpt><trkpt lat="47.077854738559715" lon="5.435811845748865"><ele>223.0</ele><time>2026-03-28T10:34:30Z</time></trkpt><trkpt lat="47.07771133432805" lon="5.435923762153665"><ele>223.0</ele><time>2026-03-28T10:34:31Z</time></trkpt><trkpt lat="47.07756883895147" lon="5.436032471697321"><ele>223.0</ele><time>2026-03-28T10:34:32Z</time></trkpt><trkpt lat="47.077423852908765" lon="5.436137975429433"><ele>223.0</ele><time>2026-03-28T10:34:33Z</time></trkpt><trkpt lat="47.07727852590658" lon="5.43624207134806"><ele>223.0</ele><time>2026-03-28T10:34:34Z</time></trkpt><trkpt lat="47.077132257023635" lon="5.436345376498984"><ele>223.0</ele><time>2026-03-28T10:34:35Z</time></trkpt><trkpt lat="47.07698399455188" lon="5.43644734270128"><ele>223.0</ele><time>2026-03-28T10:34:36Z</time></trkpt><trkpt lat="47.07683373730493" lon="5.436548771985505"><ele>223.0</ele><time>2026-03-28T10:34:37Z</time></trkpt><trkpt lat="47.07668264315223" lon="5.4366482765886195"><ele>222.66666666666666</ele><time>2026-03-28T10:34:38Z</time></trkpt><trkpt lat="47.076530167263115" lon="5.43674726632322"><ele>222.33333333333331</ele><time>2026-03-28T10:34:39Z</time></trkpt><trkpt lat="47.07637571664075" lon="5.436842331543238"><ele>222.0</ele><time>2026-03-28T10:34:40Z</time></trkpt><trkpt lat="47.076217206261994" lon="5.436939856786629"><ele>222.0</ele><time>2026-03-28T10:34:41Z</time></trkpt><trkpt lat="47.076057398460755" lon="5.437033628535418"><ele>222.0</ele><time>2026-03-28T10:34:42Z</time></trkpt><trkpt lat="47.0758945771554" lon="5.4371226790391205"><ele>222.0</ele><time>2026-03-28T10:34:43Z</time></trkpt><trkpt lat="47.07572913558864" lon="5.437213399431019"><ele>221.0</ele><time>2026-03-28T10:34:44Z</time></trkpt><trkpt lat="47.07555997083814" lon="5.437301269526368"><ele>220.0</ele><time>2026-03-28T10:34:45Z</time></trkpt><trkpt lat="47.075389227826" lon="5.437387731627464"><ele>219.0</ele><time>2026-03-28T10:34:46Z</time></trkpt><trkpt lat="47.07521843464929" lon="5.4374713642772825"><ele>219.0</ele><time>2026-03-28T10:34:47Z</time></trkpt><trkpt lat="47.075049695945886" lon="5.4375532230821655"><ele>219.0</ele><time>2026-03-28T10:34:48Z</time></trkpt><trkpt lat="47.07487650157319" lon="5.437634537045256"><ele>219.0</ele><time>2026-03-28T10:34:49Z</time></trkpt><trkpt lat="47.074698456830724" lon="5.437712730634879"><ele>219.66666666666669</ele><time>2026-03-28T10:34:50Z</time></trkpt><trkpt lat="47.07452038642044" lon="5.437785387373331"><ele>220.33333333333334</ele><time>2026-03-28T10:34:51Z</time></trkpt><trkpt lat="47.074341540858924" lon="5.437858472956499"><ele>221.0</ele><time>2026-03-28T10:34:52Z</time></trkpt><trkpt lat="47.07415933447722" lon="5.437926853808311"><ele>219.0</ele><time>2026-03-28T10:34:53Z</time></trkpt><trkpt lat="47.07397665100306" lon="5.437992116337346"><ele>217.0</ele><time>2026-03-28T10:34:54Z</time></trkpt><trkpt lat="47.0737953092953" lon="5.438055802230197"><ele>215.0</ele><time>2026-03-28T10:34:55Z</time></trkpt><trkpt lat="47.07361565943963" lon="5.438116136991191"><ele>215.0</ele><time>2026-03-28T10:34:56Z</time></trkpt><trkpt lat="47.073437485365" lon="5.438167870825867"><ele>215.0</ele><time>2026-03-28T10:34:57Z</time></trkpt><trkpt lat="47.07326057023017" lon="5.438217105665343"><ele>215.0</ele><time>2026-03-28T10:34:58Z</time></trkpt><trkpt lat="47.07308208588074" lon="5.438268943110697"><ele>216.0</ele><time>2026-03-28T10:34:59Z</time></trkpt><trkpt lat="47.0729016193132" lon="5.438315397907575"><ele>217.0</ele><time>2026-03-28T10:35:00Z</time></trkpt><trkpt lat="47.07272121862189" lon="5.438360335863885"><ele>218.0</ele><time>2026-03-28T10:35:01Z</time></trkpt><trkpt lat="47.07254255966542" lon="5.438400982611199"><ele>218.33333333333334</ele><time>2026-03-28T10:35:02Z</time></trkpt><trkpt lat="47.07236226670361" lon="5.438438096379601"><ele>218.66666666666669</ele><time>2026-03-28T10:35:03Z</time></trkpt><trkpt lat="47.07218314194996" lon="5.438472802463682"><ele>219.0</ele><time>2026-03-28T10:35:04Z</time></trkpt><trkpt lat="47.072004568096155" lon="5.4385078898663135"><ele>219.0</ele><time>2026-03-28T10:35:05Z</time></trkpt><trkpt lat="47.07182695698526" lon="5.438535548550395"><ele>219.0</ele><time>2026-03-28T10:35:06Z</time></trkpt><trkpt lat="47.07165101390825" lon="5.438558972179824"><ele>219.0</ele><time>2026-03-28T10:35:07Z</time></trkpt><trkpt lat="47.0714724488314" lon="5.438579340488622"><ele>219.33333333333331</ele><time>2026-03-28T10:35:08Z</time></trkpt><trkpt lat="47.0712966134921" lon="5.438598845062111"><ele>219.66666666666666</ele><time>2026-03-28T10:35:09Z</time></trkpt><trkpt lat="47.07112128540086" lon="5.438619647494108"><ele>220.0</ele><time>2026-03-28T10:35:10Z</time></trkpt><trkpt lat="47.07094751144057" lon="5.438635469054178"><ele>220.33333333333331</ele><time>2026-03-28T10:35:11Z</time></trkpt><trkpt lat="47.07077096258834" lon="5.438646191120184"><ele>220.66666666666669</ele><time>2026-03-28T10:35:12Z</time></trkpt><trkpt lat="47.070592719603646" lon="5.438656191666558"><ele>221.0</ele><time>2026-03-28T10:35:13Z</time></trkpt><trkpt lat="47.070416058198056" lon="5.438664608041979"><ele>221.0</ele><time>2026-03-28T10:35:14Z</time></trkpt><trkpt lat="47.070239551363656" lon="5.438666281898825"><ele>221.0</ele><time>2026-03-28T10:35:15Z</time></trkpt><trkpt lat="47.07006200727714" lon="5.43866366516561"><ele>221.0</ele><time>2026-03-28T10:35:16Z</time></trkpt><trkpt lat="47.06988888581863" lon="5.438662172943775"><ele>219.33333333333334</ele><time>2026-03-28T10:35:17Z</time></trkpt><trkpt lat="47.06971822329589" lon="5.438654492473852"><ele>217.66666666666669</ele><time>2026-03-28T10:35:18Z</time></trkpt><trkpt lat="47.0695526213954" lon="5.438650415425454"><ele>216.0</ele><time>2026-03-28T10:35:19Z</time></trkpt><trkpt lat="47.06938659099906" lon="5.438641586567153"><ele>216.0</ele><time>2026-03-28T10:35:20Z</time></trkpt><trkpt lat="47.06922115367692" lon="5.438631250709502"><ele>216.0</ele><time>2026-03-28T10:35:21Z</time></trkpt><trkpt lat="47.06905480250696" lon="5.438617868033605"><ele>216.0</ele><time>2026-03-28T10:35:22Z</time></trkpt><trkpt lat="47.0688872855435" lon="5.438598742609956"><ele>214.66666666666669</ele><time>2026-03-28T10:35:23Z</time></trkpt><trkpt lat="47.068720448361724" lon="5.438576984651189"><ele>213.33333333333334</ele><time>2026-03-28T10:35:24Z</time></trkpt><trkpt lat="47.06855407797685" lon="5.438563091643647"><ele>212.0</ele><time>2026-03-28T10:35:25Z</time></trkpt><trkpt lat="47.068390583458" lon="5.438539210757618"><ele>211.33333333333334</ele><time>2026-03-28T10:35:26Z</time></trkpt><trkpt lat="47.06822942489751" lon="5.438515682221668"><ele>210.66666666666669</ele><time>2026-03-28T10:35:27Z</time></trkpt><trkpt lat="47.06806654336199" lon="5.438487773288366"><ele>210.0</ele><time>2026-03-28T10:35:28Z</time></trkpt><trkpt lat="47.06790460015109" lon="5.43846103880175"><ele>210.0</ele><time>2026-03-28T10:35:29Z</time></trkpt><trkpt lat="47.067743539604926" lon="5.438433067565826"><ele>210.0</ele><time>2026-03-28T10:35:30Z</time></trkpt><trkpt lat="47.06758375142654" lon="5.438402104857447"><ele>210.0</ele><time>2026-03-28T10:35:31Z</time></trkpt><trkpt lat="47.06742201123058" lon="5.438369909727095"><ele>210.33333333333331</ele><time>2026-03-28T10:35:32Z</time></trkpt><trkpt lat="47.06725616345274" lon="5.438336605481826"><ele>210.66666666666666</ele><time>2026-03-28T10:35:33Z</time></trkpt><trkpt lat="47.06708983701702" lon="5.438299886285239"><ele>211.0</ele><time>2026-03-28T10:35:34Z</time></trkpt><trkpt lat="47.06692528670079" lon="5.4382637849181625"><ele>211.0</ele><time>2026-03-28T10:35:35Z</time></trkpt><trkpt lat="47.06675994267223" lon="5.438224765445323"><ele>211.0</ele><time>2026-03-28T10:35:36Z</time></trkpt><trkpt lat="47.066594551494276" lon="5.438182988517879"><ele>211.0</ele><time>2026-03-28T10:35:37Z</time></trkpt><trkpt lat="47.06642858197443" lon="5.438143055311462"><ele>210.33333333333331</ele><time>2026-03-28T10:35:38Z</time></trkpt><trkpt lat="47.06626098896024" lon="5.43810151068847"><ele>209.66666666666669</ele><time>2026-03-28T10:35:39Z</time></trkpt><trkpt lat="47.0660953066055" lon="5.438060306850307"><ele>209.0</ele><time>2026-03-28T10:35:40Z</time></trkpt><trkpt lat="47.06593072068691" lon="5.438019884110809"><ele>209.33333333333334</ele><time>2026-03-28T10:35:41Z</time></trkpt><trkpt lat="47.06576374873041" lon="5.437979755929104"><ele>209.66666666666669</ele><time>2026-03-28T10:35:42Z</time></trkpt><trkpt lat="47.065603755456536" lon="5.437936493665296"><ele>210.0</ele><time>2026-03-28T10:35:43Z</time></trkpt><trkpt lat="47.065443890888986" lon="5.437892329007627"><ele>210.0</ele><time>2026-03-28T10:35:44Z</time></trkpt><trkpt lat="47.065290109947234" lon="5.43785053912333"><ele>210.0</ele><time>2026-03-28T10:35:45Z</time></trkpt><trkpt lat="47.06513559198906" lon="5.437811853475993"><ele>210.0</ele><time>2026-03-28T10:35:46Z</time></trkpt><trkpt lat="47.06498471023467" lon="5.437770792807968"><ele>208.66666666666669</ele><time>2026-03-28T10:35:47Z</time></trkpt><trkpt lat="47.064835827767915" lon="5.437733443342387"><ele>207.33333333333334</ele><time>2026-03-28T10:35:48Z</time></trkpt><trkpt lat="47.06468654105172" lon="5.437697858719808"><ele>206.0</ele><time>2026-03-28T10:35:49Z</time></trkpt><trkpt lat="47.06453268837379" lon="5.437660773254301"><ele>206.0</ele><time>2026-03-28T10:35:50Z</time></trkpt><trkpt lat="47.06437353009987" lon="5.4376191636255795"><ele>206.0</ele><time>2026-03-28T10:35:51Z</time></trkpt><trkpt lat="47.064214490027474" lon="5.437582257049655"><ele>206.0</ele><time>2026-03-28T10:35:52Z</time></trkpt><trkpt lat="47.064053342283856" lon="5.437543634097557"><ele>205.0</ele><time>2026-03-28T10:35:53Z</time></trkpt><trkpt lat="47.063893911687565" lon="5.437507336127952"><ele>204.0</ele><time>2026-03-28T10:35:54Z</time></trkpt><trkpt lat="47.06373269316655" lon="5.43747237427291"><ele>203.0</ele><time>2026-03-28T10:35:55Z</time></trkpt><trkpt lat="47.06357369785053" lon="5.4374371952126745"><ele>203.0</ele><time>2026-03-28T10:35:56Z</time></trkpt><trkpt lat="47.06341420965235" lon="5.437405097572858"><ele>203.0</ele><time>2026-03-28T10:35:57Z</time></trkpt><trkpt lat="47.06325438820526" lon="5.437372301942572"><ele>203.0</ele><time>2026-03-28T10:35:58Z</time></trkpt><trkpt lat="47.063095782332795" lon="5.437340565602773"><ele>201.66666666666669</ele><time>2026-03-28T10:35:59Z</time></trkpt><trkpt lat="47.06293841726228" lon="5.4373096527516225"><ele>200.33333333333331</ele><time>2026-03-28T10:36:00Z</time></trkpt><trkpt lat="47.062783655888055" lon="5.4372800758320965"><ele>199.0</ele><time>2026-03-28T10:36:01Z</time></trkpt><trkpt lat="47.06262855513636" lon="5.437253839231537"><ele>199.0</ele><time>2026-03-28T10:36:02Z</time></trkpt><trkpt lat="47.06247592256987" lon="5.437227116341226"><ele>199.0</ele><time>2026-03-28T10:36:03Z</time></trkpt><trkpt lat="47.06232203442264" lon="5.437201632977193"><ele>199.0</ele><time>2026-03-28T10:36:04Z</time></trkpt><trkpt lat="47.06216408881139" lon="5.437177393874433"><ele>198.66666666666666</ele><time>2026-03-28T10:36:05Z</time></trkpt><trkpt lat="47.06200660753432" lon="5.437153251412562"><ele>198.33333333333331</ele><time>2026-03-28T10:36:06Z</time></trkpt><trkpt lat="47.06185075521662" lon="5.43713390691824"><ele>198.0</ele><time>2026-03-28T10:36:07Z</time></trkpt><trkpt lat="47.06169458830704" lon="5.437114388754379"><ele>197.33333333333331</ele><time>2026-03-28T10:36:08Z</time></trkpt><trkpt lat="47.06154142030563" lon="5.437098457931135"><ele>196.66666666666666</ele><time>2026-03-28T10:36:09Z</time></trkpt><trkpt lat="47.06139015874937" lon="5.437081174871786"><ele>196.0</ele><time>2026-03-28T10:36:10Z</time></trkpt><trkpt lat="47.061239637698975" lon="5.437067857770296"><ele>196.0</ele><time>2026-03-28T10:36:11Z</time></trkpt><trkpt lat="47.061089560722976" lon="5.43705559838236"><ele>196.0</ele><time>2026-03-28T10:36:12Z</time></trkpt><trkpt lat="47.0609389880866" lon="5.4370456421970195"><ele>196.0</ele><time>2026-03-28T10:36:13Z</time></trkpt><trkpt lat="47.0607871469326" lon="5.437038410074897"><ele>195.66666666666666</ele><time>2026-03-28T10:36:14Z</time></trkpt><trkpt lat="47.0606342881159" lon="5.437032935815828"><ele>195.33333333333331</ele><time>2026-03-28T10:36:15Z</time></trkpt><trkpt lat="47.06048089875889" lon="5.437031158352277"><ele>195.0</ele><time>2026-03-28T10:36:16Z</time></trkpt><trkpt lat="47.06032632663009" lon="5.437030201679611"><ele>195.0</ele><time>2026-03-28T10:36:17Z</time></trkpt><trkpt lat="47.060171456726714" lon="5.437034996302032"><ele>195.0</ele><time>2026-03-28T10:36:18Z</time></trkpt><trkpt lat="47.06001406455733" lon="5.43704366056539"><ele>195.0</ele><time>2026-03-28T10:36:19Z</time></trkpt><trkpt lat="47.059853540148374" lon="5.437054350882617"><ele>195.33333333333331</ele><time>2026-03-28T10:36:20Z</time></trkpt><trkpt lat="47.059694507918834" lon="5.437074630435514"><ele>195.66666666666666</ele><time>2026-03-28T10:36:21Z</time></trkpt><trkpt lat="47.059531452069685" lon="5.437093074721405"><ele>196.0</ele><time>2026-03-28T10:36:22Z</time></trkpt><trkpt lat="47.0593665763699" lon="5.4371127268203745"><ele>196.0</ele><time>2026-03-28T10:36:23Z</time></trkpt><trkpt lat="47.05918486883298" lon="5.4371353667744975"><ele>196.0</ele><time>2026-03-28T10:36:24Z</time></trkpt><trkpt lat="47.05901300567709" lon="5.437156936762004"><ele>196.0</ele><time>2026-03-28T10:36:25Z</time></trkpt><trkpt lat="47.05884493356795" lon="5.437187215864218"><ele>196.0</ele><time>2026-03-28T10:36:26Z</time></trkpt><trkpt lat="47.058676976177054" lon="5.4372199727140025"><ele>196.0</ele><time>2026-03-28T10:36:27Z</time></trkpt><trkpt lat="47.05850643865461" lon="5.437249599641673"><ele>196.0</ele><time>2026-03-28T10:36:28Z</time></trkpt><trkpt lat="47.058338034314225" lon="5.437284309176749"><ele>197.0</ele><time>2026-03-28T10:36:29Z</time></trkpt><trkpt lat="47.05816827582909" lon="5.437317458392454"><ele>198.0</ele><time>2026-03-28T10:36:30Z</time></trkpt><trkpt lat="47.05799843286576" lon="5.437356133506592"><ele>199.0</ele><time>2026-03-28T10:36:31Z</time></trkpt><trkpt lat="47.057827462229746" lon="5.437399395493255"><ele>199.0</ele><time>2026-03-28T10:36:32Z</time></trkpt><trkpt lat="47.057653059615895" lon="5.437446875433763"><ele>199.0</ele><time>2026-03-28T10:36:33Z</time></trkpt><trkpt lat="47.057480765171675" lon="5.4374922945708875"><ele>199.0</ele><time>2026-03-28T10:36:34Z</time></trkpt><trkpt lat="47.05731287297304" lon="5.437540636638513"><ele>199.0</ele><time>2026-03-28T10:36:35Z</time></trkpt><trkpt lat="47.057145948775414" lon="5.437591799605954"><ele>199.0</ele><time>2026-03-28T10:36:36Z</time></trkpt><trkpt lat="47.05697857457926" lon="5.437641695619052"><ele>199.0</ele><time>2026-03-28T10:36:37Z</time></trkpt><trkpt lat="47.056813281062304" lon="5.437701715191186"><ele>199.0</ele><time>2026-03-28T10:36:38Z</time></trkpt><trkpt lat="47.05664730335974" lon="5.437762743137735"><ele>199.0</ele><time>2026-03-28T10:36:39Z</time></trkpt><trkpt lat="47.05648008548626" lon="5.437825252953322"><ele>199.0</ele><time>2026-03-28T10:36:40Z</time></trkpt><trkpt lat="47.05631264489896" lon="5.437888753029999"><ele>198.66666666666666</ele><time>2026-03-28T10:36:41Z</time></trkpt><trkpt lat="47.0561424478711" lon="5.437954828177507"><ele>198.33333333333331</ele><time>2026-03-28T10:36:42Z</time></trkpt><trkpt lat="47.05597312882429" lon="5.43802557734961"><ele>198.0</ele><time>2026-03-28T10:36:43Z</time></trkpt><trkpt lat="47.05580462945702" lon="5.438102262168891"><ele>197.66666666666669</ele><time>2026-03-28T10:36:44Z</time></trkpt><trkpt lat="47.055632982172355" lon="5.438179714279407"><ele>197.33333333333334</ele><time>2026-03-28T10:36:45Z</time></trkpt><trkpt lat="47.05546160281132" lon="5.438259138635561"><ele>197.0</ele><time>2026-03-28T10:36:46Z</time></trkpt><trkpt lat="47.0552913314882" lon="5.438342946007094"><ele>197.0</ele><time>2026-03-28T10:36:47Z</time></trkpt><trkpt lat="47.05512349707498" lon="5.438431260131418"><ele>197.0</ele><time>2026-03-28T10:36:48Z</time></trkpt><trkpt lat="47.05495412851616" lon="5.438517623998672"><ele>197.0</ele><time>2026-03-28T10:36:49Z</time></trkpt><trkpt lat="47.054785714472956" lon="5.438612532006603"><ele>197.0</ele><time>2026-03-28T10:36:50Z</time></trkpt><trkpt lat="47.05462008710783" lon="5.438710065773281"><ele>197.0</ele><time>2026-03-28T10:36:51Z</time></trkpt><trkpt lat="47.054459408117744" lon="5.438805469297647"><ele>197.0</ele><time>2026-03-28T10:36:52Z</time></trkpt><trkpt lat="47.05430229757849" lon="5.438899222600807"><ele>198.0</ele><time>2026-03-28T10:36:53Z</time></trkpt><trkpt lat="47.054151171839656" lon="5.438992221675112"><ele>199.0</ele><time>2026-03-28T10:36:54Z</time></trkpt><trkpt lat="47.05400162638665" lon="5.439090052023958"><ele>200.0</ele><time>2026-03-28T10:36:55Z</time></trkpt><trkpt lat="47.05385302391087" lon="5.439190827093338"><ele>200.0</ele><time>2026-03-28T10:36:56Z</time></trkpt><trkpt lat="47.0537052204549" lon="5.4392922666529575"><ele>200.0</ele><time>2026-03-28T10:36:57Z</time></trkpt><trkpt lat="47.05355639415872" lon="5.439397854790949"><ele>200.0</ele><time>2026-03-28T10:36:58Z</time></trkpt><trkpt lat="47.053408173855225" lon="5.439501625883658"><ele>199.66666666666669</ele><time>2026-03-28T10:36:59Z</time></trkpt><trkpt lat="47.05326767115539" lon="5.439605388545856"><ele>199.33333333333331</ele><time>2026-03-28T10:37:00Z</time></trkpt><trkpt lat="47.053128100195295" lon="5.439710335882727"><ele>199.0</ele><time>2026-03-28T10:37:01Z</time></trkpt><trkpt lat="47.05298811897682" lon="5.439818502595956"><ele>199.0</ele><time>2026-03-28T10:37:02Z</time></trkpt><trkpt lat="47.05284846184457" lon="5.439928464695363"><ele>199.0</ele><time>2026-03-28T10:37:03Z</time></trkpt><trkpt lat="47.05270914950459" lon="5.440040651535906"><ele>199.0</ele><time>2026-03-28T10:37:04Z</time></trkpt><trkpt lat="47.052566234028504" lon="5.440155739276521"><ele>198.66666666666666</ele><time>2026-03-28T10:37:05Z</time></trkpt><trkpt lat="47.052422669658036" lon="5.4402730939303385"><ele>198.33333333333331</ele><time>2026-03-28T10:37:06Z</time></trkpt><trkpt lat="47.05228021527094" lon="5.4403851742442875"><ele>198.0</ele><time>2026-03-28T10:37:07Z</time></trkpt><trkpt lat="47.05214668688927" lon="5.440499206062707"><ele>198.0</ele><time>2026-03-28T10:37:08Z</time></trkpt><trkpt lat="47.05201051438699" lon="5.440612542716591"><ele>198.0</ele><time>2026-03-28T10:37:09Z</time></trkpt><trkpt lat="47.05187454333944" lon="5.440730191002958"><ele>198.0</ele><time>2026-03-28T10:37:10Z</time></trkpt><trkpt lat="47.051735366988446" lon="5.440851458351018"><ele>198.0</ele><time>2026-03-28T10:37:11Z</time></trkpt><trkpt lat="47.051594164030014" lon="5.440973275611108"><ele>198.0</ele><time>2026-03-28T10:37:12Z</time></trkpt><trkpt lat="47.05145507900372" lon="5.441095475945159"><ele>198.0</ele><time>2026-03-28T10:37:13Z</time></trkpt><trkpt lat="47.05131827726266" lon="5.441222411728929"><ele>198.33333333333331</ele><time>2026-03-28T10:37:14Z</time></trkpt><trkpt lat="47.051180831057074" lon="5.4413465474159155"><ele>198.66666666666666</ele><time>2026-03-28T10:37:15Z</time></trkpt><trkpt lat="47.05104162740668" lon="5.441473932194599"><ele>199.0</ele><time>2026-03-28T10:37:16Z</time></trkpt><trkpt lat="47.05090084935117" lon="5.441602405146756"><ele>197.66666666666666</ele><time>2026-03-28T10:37:17Z</time></trkpt><trkpt lat="47.050761656448614" lon="5.441730758094138"><ele>196.33333333333331</ele><time>2026-03-28T10:37:18Z</time></trkpt><trkpt lat="47.050624392449656" lon="5.441860157833722"><ele>195.0</ele><time>2026-03-28T10:37:19Z</time></trkpt><trkpt lat="47.050488821871795" lon="5.441985956693996"><ele>195.0</ele><time>2026-03-28T10:37:20Z</time></trkpt><trkpt lat="47.05035592704005" lon="5.442110784361756"><ele>195.0</ele><time>2026-03-28T10:37:21Z</time></trkpt><trkpt lat="47.05022871230582" lon="5.442234207824976"><ele>195.0</ele><time>2026-03-28T10:37:22Z</time></trkpt><trkpt lat="47.05010308840144" lon="5.442350957192219"><ele>195.0</ele><time>2026-03-28T10:37:23Z</time></trkpt><trkpt lat="47.049977696274425" lon="5.442470072836693"><ele>195.0</ele><time>2026-03-28T10:37:24Z</time></trkpt><trkpt lat="47.04984856712797" lon="5.442593338045581"><ele>195.0</ele><time>2026-03-28T10:37:25Z</time></trkpt><trkpt lat="47.049719151089356" lon="5.442719133572407"><ele>195.0</ele><time>2026-03-28T10:37:26Z</time></trkpt><trkpt lat="47.049584869802736" lon="5.442846999812227"><ele>195.0</ele><time>2026-03-28T10:37:27Z</time></trkpt><trkpt lat="47.04944647608424" lon="5.442973436875148"><ele>195.0</ele><time>2026-03-28T10:37:28Z</time></trkpt><trkpt lat="47.049307631559465" lon="5.443104048252811"><ele>195.0</ele><time>2026-03-28T10:37:29Z</time></trkpt><trkpt lat="47.0491675986636" lon="5.443235885293871"><ele>195.0</ele><time>2026-03-28T10:37:30Z</time></trkpt><trkpt lat="47.049030665256524" lon="5.4433663497209075"><ele>195.0</ele><time>2026-03-28T10:37:31Z</time></trkpt><trkpt lat="47.048890594448615" lon="5.443501542601798"><ele>194.66666666666669</ele><time>2026-03-28T10:37:32Z</time></trkpt><trkpt lat="47.04874738879998" lon="5.443638137924267"><ele>194.33333333333334</ele><time>2026-03-28T10:37:33Z</time></trkpt><trkpt lat="47.048599337146534" lon="5.443774190065804"><ele>194.0</ele><time>2026-03-28T10:37:34Z</time></trkpt><trkpt lat="47.04844893451279" lon="5.443918873879427"><ele>194.33333333333334</ele><time>2026-03-28T10:37:35Z</time></trkpt><trkpt lat="47.04830061427405" lon="5.4440599243847485"><ele>194.66666666666669</ele><time>2026-03-28T10:37:36Z</time></trkpt><trkpt lat="47.048153194249316" lon="5.444199823738538"><ele>195.0</ele><time>2026-03-28T10:37:37Z</time></trkpt><trkpt lat="47.04800985980806" lon="5.444337963860703"><ele>195.0</ele><time>2026-03-28T10:37:38Z</time></trkpt><trkpt lat="47.0478658609316" lon="5.4444730991614145"><ele>195.0</ele><time>2026-03-28T10:37:39Z</time></trkpt><trkpt lat="47.04772537472194" lon="5.444608563626914"><ele>195.0</ele><time>2026-03-28T10:37:40Z</time></trkpt><trkpt lat="47.047582522194624" lon="5.444742672990676"><ele>195.0</ele><time>2026-03-28T10:37:41Z</time></trkpt><trkpt lat="47.04744091164891" lon="5.444876978165811"><ele>195.0</ele><time>2026-03-28T10:37:42Z</time></trkpt><trkpt lat="47.04729955319326" lon="5.445008960435751"><ele>195.0</ele><time>2026-03-28T10:37:43Z</time></trkpt><trkpt lat="47.04715512819885" lon="5.4451439502043755"><ele>195.0</ele><time>2026-03-28T10:37:44Z</time></trkpt><trkpt lat="47.04701160104404" lon="5.445282026315163"><ele>195.0</ele><time>2026-03-28T10:37:45Z</time></trkpt><trkpt lat="47.046870037643934" lon="5.445414060106297"><ele>195.0</ele><time>2026-03-28T10:37:46Z</time></trkpt><trkpt lat="47.04672939617345" lon="5.445549849164346"><ele>195.0</ele><time>2026-03-28T10:37:47Z</time></trkpt><trkpt lat="47.046592173204644" lon="5.445684870290877"><ele>195.0</ele><time>2026-03-28T10:37:48Z</time></trkpt><trkpt lat="47.04645194336561" lon="5.445820845327908"><ele>195.0</ele><time>2026-03-28T10:37:49Z</time></trkpt><trkpt lat="47.046313196478835" lon="5.445960505490872"><ele>195.0</ele><time>2026-03-28T10:37:50Z</time></trkpt><trkpt lat="47.04617222215287" lon="5.446095501764854"><ele>195.0</ele><time>2026-03-28T10:37:51Z</time></trkpt><trkpt lat="47.04603373264826" lon="5.446238114966152"><ele>195.0</ele><time>2026-03-28T10:37:52Z</time></trkpt><trkpt lat="47.04588979666134" lon="5.4463840444296165"><ele>194.33333333333331</ele><time>2026-03-28T10:37:53Z</time></trkpt><trkpt lat="47.04574346253248" lon="5.4465343876620445"><ele>193.66666666666666</ele><time>2026-03-28T10:37:54Z</time></trkpt><trkpt lat="47.04559817950863" lon="5.446684840316682"><ele>193.0</ele><time>2026-03-28T10:37:55Z</time></trkpt><trkpt lat="47.045450058122285" lon="5.446842781931826"><ele>193.0</ele><time>2026-03-28T10:37:56Z</time></trkpt><trkpt lat="47.045299386013994" lon="5.44700483180145"><ele>193.0</ele><time>2026-03-28T10:37:57Z</time></trkpt><trkpt lat="47.04514889001629" lon="5.447169361843427"><ele>193.0</ele><time>2026-03-28T10:37:58Z</time></trkpt><trkpt lat="47.04499740360178" lon="5.447336565525766"><ele>193.33333333333331</ele><time>2026-03-28T10:37:59Z</time></trkpt><trkpt lat="47.044846089154056" lon="5.447506023701639"><ele>193.66666666666669</ele><time>2026-03-28T10:38:00Z</time></trkpt><trkpt lat="47.04469525209287" lon="5.447678229822466"><ele>194.0</ele><time>2026-03-28T10:38:01Z</time></trkpt><trkpt lat="47.04454532135566" lon="5.447851811505309"><ele>194.33333333333334</ele><time>2026-03-28T10:38:02Z</time></trkpt><trkpt lat="47.04439523520354" lon="5.4480332331394195"><ele>194.66666666666669</ele><time>2026-03-28T10:38:03Z</time></trkpt><trkpt lat="47.044242786333434" lon="5.448222502837562"><ele>195.0</ele><time>2026-03-28T10:38:04Z</time></trkpt><trkpt lat="47.044092557668336" lon="5.448414963424249"><ele>194.66666666666669</ele><time>2026-03-28T10:38:05Z</time></trkpt><trkpt lat="47.043941110795096" lon="5.448610212047477"><ele>194.33333333333334</ele><time>2026-03-28T10:38:06Z</time></trkpt><trkpt lat="47.04379234864606" lon="5.4488082834812674"><ele>194.0</ele><time>2026-03-28T10:38:07Z</time></trkpt><trkpt lat="47.0436459744906" lon="5.449009381718522"><ele>194.0</ele><time>2026-03-28T10:38:08Z</time></trkpt><trkpt lat="47.043502034388595" lon="5.449209296419288"><ele>194.0</ele><time>2026-03-28T10:38:09Z</time></trkpt><trkpt lat="47.043357845994144" lon="5.449415315815866"><ele>194.0</ele><time>2026-03-28T10:38:10Z</time></trkpt><trkpt lat="47.04321274809716" lon="5.449630586157475"><ele>194.33333333333334</ele><time>2026-03-28T10:38:11Z</time></trkpt><trkpt lat="47.04307144151475" lon="5.449847319841038"><ele>194.66666666666669</ele><time>2026-03-28T10:38:12Z</time></trkpt><trkpt lat="47.04292976222459" lon="5.450065285759122"><ele>195.0</ele><time>2026-03-28T10:38:13Z</time></trkpt><trkpt lat="47.0427896881551" lon="5.450288495223165"><ele>195.0</ele><time>2026-03-28T10:38:14Z</time></trkpt><trkpt lat="47.04265218115186" lon="5.450510966921141"><ele>195.0</ele><time>2026-03-28T10:38:15Z</time></trkpt><trkpt lat="47.042517539322596" lon="5.450732690277686"><ele>195.0</ele><time>2026-03-28T10:38:16Z</time></trkpt><trkpt lat="47.042386682595385" lon="5.450956614475181"><ele>195.0</ele><time>2026-03-28T10:38:17Z</time></trkpt><trkpt lat="47.042256309213975" lon="5.451180581579085"><ele>195.0</ele><time>2026-03-28T10:38:18Z</time></trkpt><trkpt lat="47.04213041857672" lon="5.451402816817154"><ele>195.0</ele><time>2026-03-28T10:38:19Z</time></trkpt><trkpt lat="47.04200694565499" lon="5.451626572286765"><ele>195.0</ele><time>2026-03-28T10:38:20Z</time></trkpt><trkpt lat="47.0418850047791" lon="5.451847477481732"><ele>195.0</ele><time>2026-03-28T10:38:21Z</time></trkpt><trkpt lat="47.04176293596847" lon="5.452072005600944"><ele>195.0</ele><time>2026-03-28T10:38:22Z</time></trkpt><trkpt lat="47.04164124407038" lon="5.452301279236704"><ele>195.0</ele><time>2026-03-28T10:38:23Z</time></trkpt><trkpt lat="47.041517980348004" lon="5.452531655399515"><ele>195.0</ele><time>2026-03-28T10:38:24Z</time></trkpt><trkpt lat="47.041397143730485" lon="5.452761604820339"><ele>195.0</ele><time>2026-03-28T10:38:25Z</time></trkpt><trkpt lat="47.04127879943029" lon="5.452988262791766"><ele>195.33333333333331</ele><time>2026-03-28T10:38:26Z</time></trkpt><trkpt lat="47.04116180847468" lon="5.453211949657685"><ele>195.66666666666666</ele><time>2026-03-28T10:38:27Z</time></trkpt><trkpt lat="47.04104641979827" lon="5.4534379963902655"><ele>196.0</ele><time>2026-03-28T10:38:28Z</time></trkpt><trkpt lat="47.040931448019705" lon="5.453665480090618"><ele>196.33333333333331</ele><time>2026-03-28T10:38:29Z</time></trkpt><trkpt lat="47.040814654687985" lon="5.453895706410893"><ele>196.66666666666669</ele><time>2026-03-28T10:38:30Z</time></trkpt><trkpt lat="47.04069761854591" lon="5.454125634023667"><ele>197.0</ele><time>2026-03-28T10:38:31Z</time></trkpt><trkpt lat="47.04058241007814" lon="5.454355230493498"><ele>196.33333333333334</ele><time>2026-03-28T10:38:32Z</time></trkpt><trkpt lat="47.04046835078534" lon="5.454584262312029"><ele>195.66666666666669</ele><time>2026-03-28T10:38:33Z</time></trkpt><trkpt lat="47.04035184377871" lon="5.454812130145007"><ele>195.0</ele><time>2026-03-28T10:38:34Z</time></trkpt><trkpt lat="47.04023568738656" lon="5.45504060427465"><ele>195.0</ele><time>2026-03-28T10:38:35Z</time></trkpt><trkpt lat="47.04011714301696" lon="5.455268978523155"><ele>195.0</ele><time>2026-03-28T10:38:36Z</time></trkpt><trkpt lat="47.03999609097912" lon="5.45549578688265"><ele>195.0</ele><time>2026-03-28T10:38:37Z</time></trkpt><trkpt lat="47.03987736526433" lon="5.455720106260424"><ele>195.0</ele><time>2026-03-28T10:38:38Z</time></trkpt><trkpt lat="47.03975627019915" lon="5.455942756202126"><ele>195.0</ele><time>2026-03-28T10:38:39Z</time></trkpt><trkpt lat="47.0396335545572" lon="5.456163238980919"><ele>195.0</ele><time>2026-03-28T10:38:40Z</time></trkpt><trkpt lat="47.03950746808268" lon="5.4563845993189055"><ele>195.0</ele><time>2026-03-28T10:38:41Z</time></trkpt><trkpt lat="47.039382885716066" lon="5.4566003034784"><ele>195.0</ele><time>2026-03-28T10:38:42Z</time></trkpt><trkpt lat="47.03925566381326" lon="5.456816920650041"><ele>195.0</ele><time>2026-03-28T10:38:43Z</time></trkpt><trkpt lat="47.03913220544774" lon="5.457029958900294"><ele>194.66666666666669</ele><time>2026-03-28T10:38:44Z</time></trkpt><trkpt lat="47.039005623469144" lon="5.457237737610873"><ele>194.33333333333334</ele><time>2026-03-28T10:38:45Z</time></trkpt><trkpt lat="47.038876118468295" lon="5.457443223317799"><ele>194.0</ele><time>2026-03-28T10:38:46Z</time></trkpt><trkpt lat="47.038747086219" lon="5.4576410290295305"><ele>194.0</ele><time>2026-03-28T10:38:47Z</time></trkpt><trkpt lat="47.0386187665001" lon="5.4578335088174175"><ele>194.0</ele><time>2026-03-28T10:38:48Z</time></trkpt><trkpt lat="47.03849010526446" lon="5.458026692156165"><ele>194.0</ele><time>2026-03-28T10:38:49Z</time></trkpt><trkpt lat="47.03835323776582" lon="5.458220225105385"><ele>193.66666666666669</ele><time>2026-03-28T10:38:50Z</time></trkpt><trkpt lat="47.03821957019915" lon="5.458408780898287"><ele>193.33333333333331</ele><time>2026-03-28T10:38:51Z</time></trkpt><trkpt lat="47.038084942977584" lon="5.458597389876202"><ele>193.0</ele><time>2026-03-28T10:38:52Z</time></trkpt><trkpt lat="47.03795041464752" lon="5.458779056887836"><ele>193.33333333333331</ele><time>2026-03-28T10:38:53Z</time></trkpt><trkpt lat="47.03781518680541" lon="5.4589572857105235"><ele>193.66666666666669</ele><time>2026-03-28T10:38:54Z</time></trkpt><trkpt lat="47.03767884027428" lon="5.45913062534159"><ele>194.0</ele><time>2026-03-28T10:38:55Z</time></trkpt><trkpt lat="47.03754168043642" lon="5.459303957176881"><ele>193.66666666666669</ele><time>2026-03-28T10:38:56Z</time></trkpt><trkpt lat="47.037403584920824" lon="5.459474998530739"><ele>193.33333333333331</ele><time>2026-03-28T10:38:57Z</time></trkpt><trkpt lat="47.03726688887279" lon="5.459642908834145"><ele>193.0</ele><time>2026-03-28T10:38:58Z</time></trkpt><trkpt lat="47.037126904048044" lon="5.459806951216663"><ele>192.66666666666666</ele><time>2026-03-28T10:38:59Z</time></trkpt><trkpt lat="47.036987554837815" lon="5.459967185766171"><ele>192.33333333333331</ele><time>2026-03-28T10:39:00Z</time></trkpt><trkpt lat="47.03684586515397" lon="5.460126836869421"><ele>192.0</ele><time>2026-03-28T10:39:01Z</time></trkpt><trkpt lat="47.03670706564556" lon="5.460284144469571"><ele>191.66666666666666</ele><time>2026-03-28T10:39:02Z</time></trkpt><trkpt lat="47.03656439927139" lon="5.460435787187501"><ele>191.33333333333331</ele><time>2026-03-28T10:39:03Z</time></trkpt><trkpt lat="47.036422339527476" lon="5.460584869268142"><ele>191.0</ele><time>2026-03-28T10:39:04Z</time></trkpt><trkpt lat="47.036274337096536" lon="5.460732831271792"><ele>191.66666666666666</ele><time>2026-03-28T10:39:05Z</time></trkpt><trkpt lat="47.0361255271059" lon="5.4608807327058955"><ele>192.33333333333331</ele><time>2026-03-28T10:39:06Z</time></trkpt><trkpt lat="47.03597562378188" lon="5.461029078510649"><ele>193.0</ele><time>2026-03-28T10:39:07Z</time></trkpt><trkpt lat="47.03582233848752" lon="5.461177291839875"><ele>193.33333333333331</ele><time>2026-03-28T10:39:08Z</time></trkpt><trkpt lat="47.035663656620926" lon="5.461323558518307"><ele>193.66666666666669</ele><time>2026-03-28T10:39:09Z</time></trkpt><trkpt lat="47.03550606499087" lon="5.461465616011857"><ele>194.0</ele><time>2026-03-28T10:39:10Z</time></trkpt><trkpt lat="47.03534611619204" lon="5.461603933873081"><ele>194.0</ele><time>2026-03-28T10:39:11Z</time></trkpt><trkpt lat="47.03518383217027" lon="5.461746361653916"><ele>194.0</ele><time>2026-03-28T10:39:12Z</time></trkpt><trkpt lat="47.03502045592059" lon="5.461881458053547"><ele>194.0</ele><time>2026-03-28T10:39:13Z</time></trkpt><trkpt lat="47.03485362597508" lon="5.462015308341472"><ele>194.0</ele><time>2026-03-28T10:39:14Z</time></trkpt><trkpt lat="47.03468410869021" lon="5.462148063700295"><ele>194.0</ele><time>2026-03-28T10:39:15Z</time></trkpt><trkpt lat="47.034515408749066" lon="5.462277065271283"><ele>194.0</ele><time>2026-03-28T10:39:16Z</time></trkpt><trkpt lat="47.0343474886242" lon="5.462404265336091"><ele>194.0</ele><time>2026-03-28T10:39:17Z</time></trkpt><trkpt lat="47.03417905982622" lon="5.462526107383901"><ele>194.0</ele><time>2026-03-28T10:39:18Z</time></trkpt><trkpt lat="47.03401228122325" lon="5.4626482507119345"><ele>194.0</ele><time>2026-03-28T10:39:19Z</time></trkpt><trkpt lat="47.033844372608435" lon="5.462767809739614"><ele>194.0</ele><time>2026-03-28T10:39:20Z</time></trkpt><trkpt lat="47.03367837504224" lon="5.462882450768466"><ele>194.0</ele><time>2026-03-28T10:39:21Z</time></trkpt><trkpt lat="47.03351282610991" lon="5.462989744732803"><ele>194.0</ele><time>2026-03-28T10:39:22Z</time></trkpt><trkpt lat="47.03334694175997" lon="5.463093455311498"><ele>194.0</ele><time>2026-03-28T10:39:23Z</time></trkpt><trkpt lat="47.03318092756654" lon="5.463197718141011"><ele>194.0</ele><time>2026-03-28T10:39:24Z</time></trkpt><trkpt lat="47.03300927065708" lon="5.463294272245048"><ele>194.0</ele><time>2026-03-28T10:39:25Z</time></trkpt><trkpt lat="47.032836508178846" lon="5.463393166033866"><ele>194.0</ele><time>2026-03-28T10:39:26Z</time></trkpt><trkpt lat="47.032659248303794" lon="5.463489927927124"><ele>194.0</ele><time>2026-03-28T10:39:27Z</time></trkpt><trkpt lat="47.03247995232022" lon="5.463580151443717"><ele>194.0</ele><time>2026-03-28T10:39:28Z</time></trkpt><trkpt lat="47.03230169639393" lon="5.463670981304062"><ele>194.0</ele><time>2026-03-28T10:39:29Z</time></trkpt><trkpt lat="47.03211584791355" lon="5.463758666713654"><ele>194.0</ele><time>2026-03-28T10:39:30Z</time></trkpt><trkpt lat="47.031928354908906" lon="5.463843467420819"><ele>194.0</ele><time>2026-03-28T10:39:31Z</time></trkpt><trkpt lat="47.03173906452483" lon="5.463929518937756"><ele>194.33333333333334</ele><time>2026-03-28T10:39:32Z</time></trkpt><trkpt lat="47.031546089405275" lon="5.4640145757175675"><ele>194.66666666666669</ele><time>2026-03-28T10:39:33Z</time></trkpt><trkpt lat="47.03134796430089" lon="5.464095177252463"><ele>195.0</ele><time>2026-03-28T10:39:34Z</time></trkpt><trkpt lat="47.03114951180192" lon="5.464175102816784"><ele>195.0</ele><time>2026-03-28T10:39:35Z</time></trkpt><trkpt lat="47.030951592142145" lon="5.464252307726559"><ele>195.0</ele><time>2026-03-28T10:39:36Z</time></trkpt><trkpt lat="47.03075054623735" lon="5.4643233200269705"><ele>195.0</ele><time>2026-03-28T10:39:37Z</time></trkpt><trkpt lat="47.030549984022315" lon="5.464391544068056"><ele>194.33333333333331</ele><time>2026-03-28T10:39:38Z</time></trkpt><trkpt lat="47.03034747224936" lon="5.464459684622036"><ele>193.66666666666666</ele><time>2026-03-28T10:39:39Z</time></trkpt><trkpt lat="47.030143333346636" lon="5.464527206463814"><ele>193.0</ele><time>2026-03-28T10:39:40Z</time></trkpt><trkpt lat="47.02993928522814" lon="5.464591789531746"><ele>193.0</ele><time>2026-03-28T10:39:41Z</time></trkpt><trkpt lat="47.029735822720944" lon="5.464651801356438"><ele>193.0</ele><time>2026-03-28T10:39:42Z</time></trkpt><trkpt lat="47.02952885986175" lon="5.464713234675385"><ele>193.0</ele><time>2026-03-28T10:39:43Z</time></trkpt><trkpt lat="47.0293200510141" lon="5.464774188611228"><ele>193.0</ele><time>2026-03-28T10:39:44Z</time></trkpt><trkpt lat="47.0291133604143" lon="5.464834053304415"><ele>193.0</ele><time>2026-03-28T10:39:45Z</time></trkpt><trkpt lat="47.02890603493826" lon="5.464895363285096"><ele>193.0</ele><time>2026-03-28T10:39:46Z</time></trkpt><trkpt lat="47.02869864487538" lon="5.464958489542379"><ele>193.0</ele><time>2026-03-28T10:39:47Z</time></trkpt><trkpt lat="47.02848783024423" lon="5.465021456675742"><ele>193.0</ele><time>2026-03-28T10:39:48Z</time></trkpt><trkpt lat="47.02827918952331" lon="5.4650872925692076"><ele>193.0</ele><time>2026-03-28T10:39:49Z</time></trkpt><trkpt lat="47.028069846760125" lon="5.465150070702563"><ele>194.0</ele><time>2026-03-28T10:39:50Z</time></trkpt><trkpt lat="47.02786336473482" lon="5.465213422341643"><ele>195.0</ele><time>2026-03-28T10:39:51Z</time></trkpt><trkpt lat="47.0276556197501" lon="5.465274837359917"><ele>196.0</ele><time>2026-03-28T10:39:52Z</time></trkpt><trkpt lat="47.02744903479205" lon="5.4653364357354315"><ele>196.0</ele><time>2026-03-28T10:39:53Z</time></trkpt><trkpt lat="47.02724067903415" lon="5.4653992279006225"><ele>196.0</ele><time>2026-03-28T10:39:54Z</time></trkpt><trkpt lat="47.02703406615165" lon="5.465462389474143"><ele>196.0</ele><time>2026-03-28T10:39:55Z</time></trkpt><trkpt lat="47.02682531436389" lon="5.465525647981758"><ele>195.33333333333331</ele><time>2026-03-28T10:39:56Z</time></trkpt><trkpt lat="47.026621230847375" lon="5.4655919512984"><ele>194.66666666666669</ele><time>2026-03-28T10:39:57Z</time></trkpt><trkpt lat="47.026418430773845" lon="5.465652396206813"><ele>194.0</ele><time>2026-03-28T10:39:58Z</time></trkpt><trkpt lat="47.02621905810524" lon="5.465716657389542"><ele>194.0</ele><time>2026-03-28T10:39:59Z</time></trkpt><trkpt lat="47.026020869422695" lon="5.465777816969594"><ele>194.0</ele><time>2026-03-28T10:40:00Z</time></trkpt><trkpt lat="47.0258213868156" lon="5.465837895170602"><ele>194.0</ele><time>2026-03-28T10:40:01Z</time></trkpt><trkpt lat="47.02562463662193" lon="5.465898904691983"><ele>194.0</ele><time>2026-03-28T10:40:02Z</time></trkpt><trkpt lat="47.025430018383226" lon="5.465959525816023"><ele>194.0</ele><time>2026-03-28T10:40:03Z</time></trkpt><trkpt lat="47.025235898202325" lon="5.466017452925967"><ele>194.0</ele><time>2026-03-28T10:40:04Z</time></trkpt><trkpt lat="47.025045773103116" lon="5.46607813330987"><ele>194.0</ele><time>2026-03-28T10:40:05Z</time></trkpt><trkpt lat="47.02486258227311" lon="5.466135341001135"><ele>194.0</ele><time>2026-03-28T10:40:06Z</time></trkpt><trkpt lat="47.02468464800302" lon="5.4661927182198315"><ele>194.0</ele><time>2026-03-28T10:40:07Z</time></trkpt><trkpt lat="47.02450745107148" lon="5.466249916888943"><ele>193.66666666666669</ele><time>2026-03-28T10:40:08Z</time></trkpt><trkpt lat="47.02432873839897" lon="5.466306133849725"><ele>193.33333333333331</ele><time>2026-03-28T10:40:09Z</time></trkpt><trkpt lat="47.024148573881554" lon="5.466359752243721"><ele>193.0</ele><time>2026-03-28T10:40:10Z</time></trkpt><trkpt lat="47.02396918973153" lon="5.466417192634908"><ele>193.0</ele><time>2026-03-28T10:40:11Z</time></trkpt><trkpt lat="47.023789172103896" lon="5.466472701585277"><ele>193.0</ele><time>2026-03-28T10:40:12Z</time></trkpt><trkpt lat="47.02360819943536" lon="5.466529964308721"><ele>193.0</ele><time>2026-03-28T10:40:13Z</time></trkpt><trkpt lat="47.02342819451598" lon="5.466587385394078"><ele>193.0</ele><time>2026-03-28T10:40:14Z</time></trkpt><trkpt lat="47.023249285661656" lon="5.466646908191014"><ele>193.0</ele><time>2026-03-28T10:40:15Z</time></trkpt><trkpt lat="47.02306754270583" lon="5.4667078371786095"><ele>193.0</ele><time>2026-03-28T10:40:16Z</time></trkpt><trkpt lat="47.02288650451397" lon="5.466766442014157"><ele>193.0</ele><time>2026-03-28T10:40:17Z</time></trkpt><trkpt lat="47.02270174119028" lon="5.466824943863746"><ele>193.0</ele><time>2026-03-28T10:40:18Z</time></trkpt><trkpt lat="47.02251834407483" lon="5.466886870517035"><ele>193.0</ele><time>2026-03-28T10:40:19Z</time></trkpt><trkpt lat="47.022333770097596" lon="5.4669459586770675"><ele>193.33333333333331</ele><time>2026-03-28T10:40:20Z</time></trkpt><trkpt lat="47.02215262225784" lon="5.467004971733002"><ele>193.66666666666669</ele><time>2026-03-28T10:40:21Z</time></trkpt><trkpt lat="47.02196888740137" lon="5.467066000212246"><ele>194.0</ele><time>2026-03-28T10:40:22Z</time></trkpt><trkpt lat="47.02177929706897" lon="5.467120850696415"><ele>194.0</ele><time>2026-03-28T10:40:23Z</time></trkpt><trkpt lat="47.02158933001637" lon="5.467176419528984"><ele>194.0</ele><time>2026-03-28T10:40:24Z</time></trkpt><trkpt lat="47.02140075874336" lon="5.467233909950506"><ele>194.0</ele><time>2026-03-28T10:40:25Z</time></trkpt><trkpt lat="47.02121168454414" lon="5.467290365383809"><ele>194.0</ele><time>2026-03-28T10:40:26Z</time></trkpt><trkpt lat="47.0210249381701" lon="5.467347859392091"><ele>194.0</ele><time>2026-03-28T10:40:27Z</time></trkpt><trkpt lat="47.02083769522909" lon="5.4674034970500065"><ele>194.0</ele><time>2026-03-28T10:40:28Z</time></trkpt><trkpt lat="47.020650954958725" lon="5.467461875752981"><ele>194.66666666666669</ele><time>2026-03-28T10:40:29Z</time></trkpt><trkpt lat="47.02046529791341" lon="5.467523589535896"><ele>195.33333333333331</ele><time>2026-03-28T10:40:30Z</time></trkpt><trkpt lat="47.02027905614497" lon="5.467584475460657"><ele>196.0</ele><time>2026-03-28T10:40:31Z</time></trkpt><trkpt lat="47.02009080432606" lon="5.467643102451857"><ele>195.33333333333331</ele><time>2026-03-28T10:40:32Z</time></trkpt><trkpt lat="47.019904569107005" lon="5.467703654952511"><ele>194.66666666666669</ele><time>2026-03-28T10:40:33Z</time></trkpt><trkpt lat="47.019718208274746" lon="5.467761092284739"><ele>194.0</ele><time>2026-03-28T10:40:34Z</time></trkpt><trkpt lat="47.01953652897294" lon="5.467821018627431"><ele>194.0</ele><time>2026-03-28T10:40:35Z</time></trkpt><trkpt lat="47.019352280003716" lon="5.467883508275818"><ele>194.0</ele><time>2026-03-28T10:40:36Z</time></trkpt><trkpt lat="47.01917191267216" lon="5.467950674369571"><ele>194.0</ele><time>2026-03-28T10:40:37Z</time></trkpt><trkpt lat="47.01898976093174" lon="5.468012676475022"><ele>194.66666666666669</ele><time>2026-03-28T10:40:38Z</time></trkpt><trkpt lat="47.01881092843187" lon="5.468080045241732"><ele>195.33333333333331</ele><time>2026-03-28T10:40:39Z</time></trkpt><trkpt lat="47.01863650468169" lon="5.468150309028967"><ele>196.0</ele><time>2026-03-28T10:40:40Z</time></trkpt><trkpt lat="47.018463966460025" lon="5.468219954232105"><ele>195.66666666666666</ele><time>2026-03-28T10:40:41Z</time></trkpt><trkpt lat="47.01829037142456" lon="5.468289714133844"><ele>195.33333333333331</ele><time>2026-03-28T10:40:42Z</time></trkpt><trkpt lat="47.01811780933753" lon="5.468363131324318"><ele>195.0</ele><time>2026-03-28T10:40:43Z</time></trkpt><trkpt lat="47.01794627129882" lon="5.468442370338497"><ele>195.0</ele><time>2026-03-28T10:40:44Z</time></trkpt><trkpt lat="47.01777578669759" lon="5.46852568565965"><ele>195.0</ele><time>2026-03-28T10:40:45Z</time></trkpt><trkpt lat="47.01760538491022" lon="5.46861163049653"><ele>195.0</ele><time>2026-03-28T10:40:46Z</time></trkpt><trkpt lat="47.017434218491914" lon="5.468699462197125"><ele>195.33333333333331</ele><time>2026-03-28T10:40:47Z</time></trkpt><trkpt lat="47.01726177081573" lon="5.468787679289842"><ele>195.66666666666666</ele><time>2026-03-28T10:40:48Z</time></trkpt><trkpt lat="47.017091974754585" lon="5.468878201224603"><ele>196.0</ele><time>2026-03-28T10:40:49Z</time></trkpt><trkpt lat="47.016924713445285" lon="5.468974857261464"><ele>196.0</ele><time>2026-03-28T10:40:50Z</time></trkpt><trkpt lat="47.01675976158175" lon="5.46907287363793"><ele>196.0</ele><time>2026-03-28T10:40:51Z</time></trkpt><trkpt lat="47.016594817556" lon="5.469173022034432"><ele>196.0</ele><time>2026-03-28T10:40:52Z</time></trkpt><trkpt lat="47.01643058243262" lon="5.469273450270181"><ele>196.0</ele><time>2026-03-28T10:40:53Z</time></trkpt><trkpt lat="47.01627063667111" lon="5.469376999228026"><ele>196.0</ele><time>2026-03-28T10:40:54Z</time></trkpt><trkpt lat="47.01611444516589" lon="5.4694794872048575"><ele>196.0</ele><time>2026-03-28T10:40:55Z</time></trkpt><trkpt lat="47.01595984120456" lon="5.469587361391697"><ele>196.0</ele><time>2026-03-28T10:40:56Z</time></trkpt><trkpt lat="47.015804902450256" lon="5.46969507868357"><ele>196.0</ele><time>2026-03-28T10:40:57Z</time></trkpt><trkpt lat="47.015646474172314" lon="5.469809707651491"><ele>196.0</ele><time>2026-03-28T10:40:58Z</time></trkpt><trkpt lat="47.01548928785559" lon="5.469929686120841"><ele>196.0</ele><time>2026-03-28T10:40:59Z</time></trkpt><trkpt lat="47.015333083097666" lon="5.470054460043991"><ele>196.0</ele><time>2026-03-28T10:41:00Z</time></trkpt><trkpt lat="47.01517300088242" lon="5.470176458272996"><ele>196.0</ele><time>2026-03-28T10:41:01Z</time></trkpt><trkpt lat="47.01501199639914" lon="5.47030823523189"><ele>196.66666666666666</ele><time>2026-03-28T10:41:02Z</time></trkpt><trkpt lat="47.014846036202094" lon="5.470451142379924"><ele>197.33333333333331</ele><time>2026-03-28T10:41:03Z</time></trkpt><trkpt lat="47.01467733980756" lon="5.470597283138315"><ele>198.0</ele><time>2026-03-28T10:41:04Z</time></trkpt><trkpt lat="47.01450827366966" lon="5.470759985427611"><ele>198.0</ele><time>2026-03-28T10:41:05Z</time></trkpt><trkpt lat="47.01433577945869" lon="5.470930774057425"><ele>198.0</ele><time>2026-03-28T10:41:06Z</time></trkpt><trkpt lat="47.01415863232121" lon="5.471106494355761"><ele>198.0</ele><time>2026-03-28T10:41:07Z</time></trkpt><trkpt lat="47.013970006559006" lon="5.471274407722895"><ele>197.5</ele><time>2026-03-28T10:41:08Z</time></trkpt><trkpt lat="47.01377822951902" lon="5.471450699574779"><ele>197.0</ele><time>2026-03-28T10:41:09Z</time></trkpt><trkpt lat="47.013584714271154" lon="5.471637867189765"><ele>197.0</ele><time>2026-03-28T10:41:10Z</time></trkpt><trkpt lat="47.01338773357228" lon="5.471830938816485"><ele>197.0</ele><time>2026-03-28T10:41:11Z</time></trkpt><trkpt lat="47.013190470401376" lon="5.472036992530466"><ele>197.0</ele><time>2026-03-28T10:41:12Z</time></trkpt><trkpt lat="47.01299061631372" lon="5.472247172228119"><ele>197.0</ele><time>2026-03-28T10:41:13Z</time></trkpt><trkpt lat="47.01279386364586" lon="5.472467080128592"><ele>197.0</ele><time>2026-03-28T10:41:14Z</time></trkpt><trkpt lat="47.01259486216213" lon="5.4726996297411725"><ele>197.0</ele><time>2026-03-28T10:41:15Z</time></trkpt><trkpt lat="47.012397831385535" lon="5.472939363959339"><ele>198.0</ele><time>2026-03-28T10:41:16Z</time></trkpt><trkpt lat="47.01219820514937" lon="5.473190870752841"><ele>199.0</ele><time>2026-03-28T10:41:17Z</time></trkpt><trkpt lat="47.01199965061367" lon="5.4734486397738715"><ele>199.0</ele><time>2026-03-28T10:41:18Z</time></trkpt><trkpt lat="47.01180346192733" lon="5.473713790801328"><ele>199.0</ele><time>2026-03-28T10:41:19Z</time></trkpt><trkpt lat="47.011609767478895" lon="5.473984563359008"><ele>198.0</ele><time>2026-03-28T10:41:20Z</time></trkpt><trkpt lat="47.0114172080034" lon="5.474258046920781"><ele>197.0</ele><time>2026-03-28T10:41:21Z</time></trkpt><trkpt lat="47.011226129353055" lon="5.4745375543661146"><ele>198.5</ele><time>2026-03-28T10:41:22Z</time></trkpt><trkpt lat="47.0110394284383" lon="5.474823179600018"><ele>200.0</ele><time>2026-03-28T10:41:23Z</time></trkpt><trkpt lat="47.01085241277532" lon="5.475117023061147"><ele>203.5</ele><time>2026-03-28T10:41:24Z</time></trkpt><trkpt lat="47.01067283533184" lon="5.475414780981247"><ele>207.0</ele><time>2026-03-28T10:41:25Z</time></trkpt><trkpt lat="47.010495477515676" lon="5.475720291653157"><ele>207.0</ele><time>2026-03-28T10:41:26Z</time></trkpt><trkpt lat="47.01032051723102" lon="5.4760295581778475"><ele>207.0</ele><time>2026-03-28T10:41:27Z</time></trkpt><trkpt lat="47.01014946933867" lon="5.476341412379034"><ele>213.5</ele><time>2026-03-28T10:41:28Z</time></trkpt><trkpt lat="47.00998443186084" lon="5.476660651286596"><ele>220.0</ele><time>2026-03-28T10:41:29Z</time></trkpt><trkpt lat="47.00982002731023" lon="5.476980038441599"><ele>216.5</ele><time>2026-03-28T10:41:30Z</time></trkpt><trkpt lat="47.00965769903502" lon="5.477305439249541"><ele>213.0</ele><time>2026-03-28T10:41:31Z</time></trkpt><trkpt lat="47.009498483812706" lon="5.4776288415947185"><ele>211.0</ele><time>2026-03-28T10:41:32Z</time></trkpt><trkpt lat="47.00934108859664" lon="5.4779591773843865"><ele>209.0</ele><time>2026-03-28T10:41:33Z</time></trkpt><trkpt lat="47.00919142187681" lon="5.478292181282995"><ele>213.0</ele><time>2026-03-28T10:41:34Z</time></trkpt><trkpt lat="47.00904379586648" lon="5.478632574586424"><ele>217.0</ele><time>2026-03-28T10:41:35Z</time></trkpt><trkpt lat="47.00889966794255" lon="5.478975771656776"><ele>217.0</ele><time>2026-03-28T10:41:36Z</time></trkpt><trkpt lat="47.00876215543145" lon="5.479324348650604"><ele>217.0</ele><time>2026-03-28T10:41:37Z</time></trkpt><trkpt lat="47.00862684532408" lon="5.479675752146512"><ele>216.0</ele><time>2026-03-28T10:41:38Z</time></trkpt><trkpt lat="47.00849563372859" lon="5.480030781955284"><ele>215.0</ele><time>2026-03-28T10:41:39Z</time></trkpt><trkpt lat="47.00836885507876" lon="5.48038612176425"><ele>218.0</ele><time>2026-03-28T10:41:40Z</time></trkpt><trkpt lat="47.008242391313885" lon="5.480744963520972"><ele>221.0</ele><time>2026-03-28T10:41:41Z</time></trkpt><trkpt lat="47.008118892807516" lon="5.481103764111149"><ele>219.0</ele><time>2026-03-28T10:41:42Z</time></trkpt><trkpt lat="47.007994478549314" lon="5.481465901895914"><ele>217.0</ele><time>2026-03-28T10:41:43Z</time></trkpt><trkpt lat="47.00787223585275" lon="5.481829324634238"><ele>216.0</ele><time>2026-03-28T10:41:44Z</time></trkpt><trkpt lat="47.007749209319606" lon="5.482189212759503"><ele>215.0</ele><time>2026-03-28T10:41:45Z</time></trkpt><trkpt lat="47.00762387629099" lon="5.482551933181835"><ele>215.0</ele><time>2026-03-28T10:41:46Z</time></trkpt><trkpt lat="47.007497528699744" lon="5.482912835470449"><ele>215.0</ele><time>2026-03-28T10:41:47Z</time></trkpt><trkpt lat="47.00737374666933" lon="5.483276410050515"><ele>218.5</ele><time>2026-03-28T10:41:48Z</time></trkpt><trkpt lat="47.00724741903623" lon="5.483634727815181"><ele>222.0</ele><time>2026-03-28T10:41:49Z</time></trkpt><trkpt lat="47.00712012078198" lon="5.4839955629715496"><ele>222.0</ele><time>2026-03-28T10:41:50Z</time></trkpt><trkpt lat="47.00699421298505" lon="5.484355313462511"><ele>222.0</ele><time>2026-03-28T10:41:51Z</time></trkpt><trkpt lat="47.00686543692464" lon="5.484714491171845"><ele>221.0</ele><time>2026-03-28T10:41:52Z</time></trkpt><trkpt lat="47.006732468196596" lon="5.485071250513528"><ele>220.0</ele><time>2026-03-28T10:41:53Z</time></trkpt><trkpt lat="47.006594760405335" lon="5.485423790014215"><ele>223.0</ele><time>2026-03-28T10:41:54Z</time></trkpt><trkpt lat="47.00645874321336" lon="5.48577677731096"><ele>226.0</ele><time>2026-03-28T10:41:55Z</time></trkpt><trkpt lat="47.00631953407268" lon="5.4861275522286075"><ele>225.5</ele><time>2026-03-28T10:41:56Z</time></trkpt><trkpt lat="47.006177680455195" lon="5.4864774922379285"><ele>225.0</ele><time>2026-03-28T10:41:57Z</time></trkpt><trkpt lat="47.00603230819338" lon="5.486822323550602"><ele>224.5</ele><time>2026-03-28T10:41:58Z</time></trkpt><trkpt lat="47.005884565911366" lon="5.48716209055093"><ele>224.0</ele><time>2026-03-28T10:41:59Z</time></trkpt><trkpt lat="47.00573291773645" lon="5.4874990858727335"><ele>226.0</ele><time>2026-03-28T10:42:00Z</time></trkpt><trkpt lat="47.00557897615923" lon="5.487835048912511"><ele>228.0</ele><time>2026-03-28T10:42:01Z</time></trkpt><trkpt lat="47.00542390215593" lon="5.488169117824028"><ele>228.0</ele><time>2026-03-28T10:42:02Z</time></trkpt><trkpt lat="47.00526663025251" lon="5.488501447100527"><ele>228.0</ele><time>2026-03-28T10:42:03Z</time></trkpt><trkpt lat="47.00510908653398" lon="5.488830103310973"><ele>231.0</ele><time>2026-03-28T10:42:04Z</time></trkpt><trkpt lat="47.004944803517304" lon="5.489157401626961"><ele>234.0</ele><time>2026-03-28T10:42:05Z</time></trkpt><trkpt lat="47.00477727802658" lon="5.4894785507956785"><ele>230.0</ele><time>2026-03-28T10:42:06Z</time></trkpt><trkpt lat="47.0046079399791" lon="5.489800716000542"><ele>226.0</ele><time>2026-03-28T10:42:07Z</time></trkpt><trkpt lat="47.00443480559677" lon="5.490117738476612"><ele>225.5</ele><time>2026-03-28T10:42:08Z</time></trkpt><trkpt lat="47.00426370352689" lon="5.490434166412929"><ele>225.0</ele><time>2026-03-28T10:42:09Z</time></trkpt><trkpt lat="47.00408675463932" lon="5.490747564235981"><ele>226.0</ele><time>2026-03-28T10:42:10Z</time></trkpt><trkpt lat="47.00390923716615" lon="5.491061008467592"><ele>227.0</ele><time>2026-03-28T10:42:11Z</time></trkpt><trkpt lat="47.00373084698739" lon="5.491368698253871"><ele>227.0</ele><time>2026-03-28T10:42:12Z</time></trkpt><trkpt lat="47.00354574257594" lon="5.491670330011275"><ele>227.0</ele><time>2026-03-28T10:42:13Z</time></trkpt><trkpt lat="47.00335873063598" lon="5.491969255430724"><ele>228.5</ele><time>2026-03-28T10:42:14Z</time></trkpt><trkpt lat="47.00316708098227" lon="5.492263894576045"><ele>230.0</ele><time>2026-03-28T10:42:15Z</time></trkpt><trkpt lat="47.00297437625704" lon="5.492551792240357"><ele>230.0</ele><time>2026-03-28T10:42:16Z</time></trkpt><trkpt lat="47.002781010035" lon="5.492838907062106"><ele>230.0</ele><time>2026-03-28T10:42:17Z</time></trkpt><trkpt lat="47.002584572576346" lon="5.4931228536466765"><ele>233.0</ele><time>2026-03-28T10:42:18Z</time></trkpt><trkpt lat="47.00238410310276" lon="5.493402240093667"><ele>236.0</ele><time>2026-03-28T10:42:19Z</time></trkpt><trkpt lat="47.00218849234882" lon="5.4936810241137675"><ele>232.5</ele><time>2026-03-28T10:42:20Z</time></trkpt><trkpt lat="47.00198320139801" lon="5.49394905533842"><ele>229.0</ele><time>2026-03-28T10:42:21Z</time></trkpt><trkpt lat="47.00177720536439" lon="5.494222470433636"><ele>232.0</ele><time>2026-03-28T10:42:22Z</time></trkpt><trkpt lat="47.001565776069555" lon="5.4944861151798445"><ele>235.0</ele><time>2026-03-28T10:42:23Z</time></trkpt><trkpt lat="47.00134968526149" lon="5.494739606956989"><ele>235.0</ele><time>2026-03-28T10:42:24Z</time></trkpt><trkpt lat="47.001132634266554" lon="5.49499238155915"><ele>235.0</ele><time>2026-03-28T10:42:25Z</time></trkpt><trkpt lat="47.00091496624988" lon="5.4952439106737305"><ele>235.5</ele><time>2026-03-28T10:42:26Z</time></trkpt><trkpt lat="47.000697034020604" lon="5.495496306983935"><ele>236.0</ele><time>2026-03-28T10:42:27Z</time></trkpt><trkpt lat="47.000475398079274" lon="5.495740084386434"><ele>236.0</ele><time>2026-03-28T10:42:28Z</time></trkpt><trkpt lat="47.000255324254844" lon="5.495981190023475"><ele>236.0</ele><time>2026-03-28T10:42:29Z</time></trkpt><trkpt lat="47.00002909206565" lon="5.496212744234649"><ele>236.5</ele><time>2026-03-28T10:42:30Z</time></trkpt><trkpt lat="46.99980417550635" lon="5.4964402100314205"><ele>237.0</ele><time>2026-03-28T10:42:31Z</time></trkpt><trkpt lat="46.99957931306327" lon="5.4966673280143"><ele>237.0</ele><time>2026-03-28T10:42:32Z</time></trkpt><trkpt lat="46.99934560546086" lon="5.496889757126211"><ele>237.0</ele><time>2026-03-28T10:42:33Z</time></trkpt><trkpt lat="46.999113428049455" lon="5.497097268881006"><ele>237.0</ele><time>2026-03-28T10:42:34Z</time></trkpt><trkpt lat="46.99887659439953" lon="5.497298707407669"><ele>237.0</ele><time>2026-03-28T10:42:35Z</time></trkpt><trkpt lat="46.99863794142108" lon="5.4975039771811325"><ele>237.0</ele><time>2026-03-28T10:42:36Z</time></trkpt><trkpt lat="46.99839862289963" lon="5.497705581834271"><ele>237.0</ele><time>2026-03-28T10:42:37Z</time></trkpt><trkpt lat="46.998158203136775" lon="5.497904808903883"><ele>234.0</ele><time>2026-03-28T10:42:38Z</time></trkpt><trkpt lat="46.99791571080036" lon="5.498102347200967"><ele>231.0</ele><time>2026-03-28T10:42:39Z</time></trkpt><trkpt lat="46.99766916451962" lon="5.498300980507909"><ele>233.0</ele><time>2026-03-28T10:42:40Z</time></trkpt><trkpt lat="46.99742362572816" lon="5.498490590806223"><ele>235.0</ele><time>2026-03-28T10:42:41Z</time></trkpt><trkpt lat="46.99717458807691" lon="5.498675936279914"><ele>236.5</ele><time>2026-03-28T10:42:42Z</time></trkpt><trkpt lat="46.996922748624996" lon="5.498861262277024"><ele>238.0</ele><time>2026-03-28T10:42:43Z</time></trkpt><trkpt lat="46.996669992212986" lon="5.4990414203934055"><ele>239.0</ele><time>2026-03-28T10:42:44Z</time></trkpt><trkpt lat="46.996416719467334" lon="5.499214183293918"><ele>240.0</ele><time>2026-03-28T10:42:45Z</time></trkpt><trkpt lat="46.99616322554039" lon="5.499380909637877"><ele>240.0</ele><time>2026-03-28T10:42:46Z</time></trkpt><trkpt lat="46.99591038529854" lon="5.499544623262111"><ele>240.0</ele><time>2026-03-28T10:42:47Z</time></trkpt><trkpt lat="46.995652663039394" lon="5.499704454337647"><ele>239.5</ele><time>2026-03-28T10:42:48Z</time></trkpt><trkpt lat="46.99539615398748" lon="5.499858804858214"><ele>239.0</ele><time>2026-03-28T10:42:49Z</time></trkpt><trkpt lat="46.995137403919685" lon="5.500010994829167"><ele>239.5</ele><time>2026-03-28T10:42:50Z</time></trkpt><trkpt lat="46.994875446485416" lon="5.500160537893349"><ele>240.0</ele><time>2026-03-28T10:42:51Z</time></trkpt><trkpt lat="46.99461238648074" lon="5.500304963779045"><ele>240.5</ele><time>2026-03-28T10:42:52Z</time></trkpt><trkpt lat="46.9943489307196" lon="5.500439711589067"><ele>241.0</ele><time>2026-03-28T10:42:53Z</time></trkpt><trkpt lat="46.994083374862605" lon="5.500573354293199"><ele>241.0</ele><time>2026-03-28T10:42:54Z</time></trkpt><trkpt lat="46.9938175245007" lon="5.500705811680515"><ele>241.0</ele><time>2026-03-28T10:42:55Z</time></trkpt><trkpt lat="46.993554343483865" lon="5.500834729919998"><ele>240.5</ele><time>2026-03-28T10:42:56Z</time></trkpt><trkpt lat="46.993290509084304" lon="5.500959379557506"><ele>240.0</ele><time>2026-03-28T10:42:57Z</time></trkpt><trkpt lat="46.993024210048155" lon="5.50108629639035"><ele>240.0</ele><time>2026-03-28T10:42:58Z</time></trkpt><trkpt lat="46.99275709191847" lon="5.5012087531569405"><ele>240.0</ele><time>2026-03-28T10:42:59Z</time></trkpt><trkpt lat="46.99248975928862" lon="5.501329065665594"><ele>238.5</ele><time>2026-03-28T10:43:00Z</time></trkpt><trkpt lat="46.99222334519027" lon="5.501452401153907"><ele>237.0</ele><time>2026-03-28T10:43:01Z</time></trkpt><trkpt lat="46.99195800537341" lon="5.501576015631288"><ele>237.0</ele><time>2026-03-28T10:43:02Z</time></trkpt><trkpt lat="46.99168959487601" lon="5.501698903155387"><ele>237.0</ele><time>2026-03-28T10:43:03Z</time></trkpt><trkpt lat="46.99142266329603" lon="5.501823192443853"><ele>236.5</ele><time>2026-03-28T10:43:04Z</time></trkpt><trkpt lat="46.9911566035465" lon="5.501948200962727"><ele>236.0</ele><time>2026-03-28T10:43:05Z</time></trkpt><trkpt lat="46.99088935979216" lon="5.502073378059903"><ele>238.5</ele><time>2026-03-28T10:43:06Z</time></trkpt><trkpt lat="46.99062169646" lon="5.502196249540861"><ele>241.0</ele><time>2026-03-28T10:43:07Z</time></trkpt><trkpt lat="46.990355864631404" lon="5.502318676084737"><ele>241.0</ele><time>2026-03-28T10:43:08Z</time></trkpt><trkpt lat="46.99009080441329" lon="5.502440099730497"><ele>241.0</ele><time>2026-03-28T10:43:09Z</time></trkpt><trkpt lat="46.98982689631955" lon="5.502565945693175"><ele>238.0</ele><time>2026-03-28T10:43:10Z</time></trkpt><trkpt lat="46.989559602198824" lon="5.5026864818384436"><ele>235.0</ele><time>2026-03-28T10:43:11Z</time></trkpt><trkpt lat="46.9892943780952" lon="5.502810743669571"><ele>231.5</ele><time>2026-03-28T10:43:12Z</time></trkpt><trkpt lat="46.98902991043269" lon="5.50293355370229"><ele>228.0</ele><time>2026-03-28T10:43:13Z</time></trkpt><trkpt lat="46.988764911037805" lon="5.503054835211827"><ele>228.0</ele><time>2026-03-28T10:43:14Z</time></trkpt><trkpt lat="46.98850106587361" lon="5.503174416543659"><ele>228.0</ele><time>2026-03-28T10:43:15Z</time></trkpt><trkpt lat="46.988236535075146" lon="5.503297318500377"><ele>229.0</ele><time>2026-03-28T10:43:16Z</time></trkpt><trkpt lat="46.9879718662657" lon="5.503422990195472"><ele>230.0</ele><time>2026-03-28T10:43:17Z</time></trkpt><trkpt lat="46.987706165337976" lon="5.5035454242564485"><ele>230.0</ele><time>2026-03-28T10:43:18Z</time></trkpt><trkpt lat="46.98744095460217" lon="5.503667537393987"><ele>230.0</ele><time>2026-03-28T10:43:19Z</time></trkpt><trkpt lat="46.98717527418097" lon="5.503789949319918"><ele>228.5</ele><time>2026-03-28T10:43:20Z</time></trkpt><trkpt lat="46.986911267759936" lon="5.503907013241563"><ele>227.0</ele><time>2026-03-28T10:43:21Z</time></trkpt><trkpt lat="46.986647475684634" lon="5.504033798269832"><ele>227.0</ele><time>2026-03-28T10:43:22Z</time></trkpt><trkpt lat="46.98638242474851" lon="5.504160694572672"><ele>227.0</ele><time>2026-03-28T10:43:23Z</time></trkpt><trkpt lat="46.986115611760155" lon="5.504290786770576"><ele>227.0</ele><time>2026-03-28T10:43:24Z</time></trkpt><trkpt lat="46.98584904252581" lon="5.504421953149117"><ele>227.0</ele><time>2026-03-28T10:43:25Z</time></trkpt><trkpt lat="46.98558245290433" lon="5.50455280822139"><ele>228.0</ele><time>2026-03-28T10:43:26Z</time></trkpt><trkpt lat="46.985316526014564" lon="5.50468442816174"><ele>229.0</ele><time>2026-03-28T10:43:27Z</time></trkpt><trkpt lat="46.98505027304334" lon="5.504813842613966"><ele>228.0</ele><time>2026-03-28T10:43:28Z</time></trkpt><trkpt lat="46.98478364876149" lon="5.504941345942496"><ele>227.0</ele><time>2026-03-28T10:43:29Z</time></trkpt><trkpt lat="46.98451749275087" lon="5.505064463247024"><ele>227.0</ele><time>2026-03-28T10:43:30Z</time></trkpt><trkpt lat="46.984253413136614" lon="5.505188360026412"><ele>227.0</ele><time>2026-03-28T10:43:31Z</time></trkpt><trkpt lat="46.98398754917303" lon="5.505315246180222"><ele>228.0</ele><time>2026-03-28T10:43:32Z</time></trkpt><trkpt lat="46.98372318067638" lon="5.505437865240474"><ele>229.0</ele><time>2026-03-28T10:43:33Z</time></trkpt><trkpt lat="46.98346097606474" lon="5.50556432987505"><ele>226.0</ele><time>2026-03-28T10:43:34Z</time></trkpt><trkpt lat="46.983204865019054" lon="5.505691584707512"><ele>223.0</ele><time>2026-03-28T10:43:35Z</time></trkpt><trkpt lat="46.98295278465361" lon="5.505816964210942"><ele>223.0</ele><time>2026-03-28T10:43:36Z</time></trkpt><trkpt lat="46.982707653275085" lon="5.505942461477856"><ele>223.0</ele><time>2026-03-28T10:43:37Z</time></trkpt><trkpt lat="46.98246619688356" lon="5.506069612711142"><ele>223.5</ele><time>2026-03-28T10:43:38Z</time></trkpt><trkpt lat="46.98223105155393" lon="5.506197661629808"><ele>224.0</ele><time>2026-03-28T10:43:39Z</time></trkpt><trkpt lat="46.9820003994415" lon="5.506326269105651"><ele>224.0</ele><time>2026-03-28T10:43:40Z</time></trkpt><trkpt lat="46.9817739460943" lon="5.5064510936952535"><ele>224.0</ele><time>2026-03-28T10:43:41Z</time></trkpt><trkpt lat="46.98154711427367" lon="5.506584464065976"><ele>221.5</ele><time>2026-03-28T10:43:42Z</time></trkpt><trkpt lat="46.98131499709665" lon="5.50671865557883"><ele>219.0</ele><time>2026-03-28T10:43:43Z</time></trkpt><trkpt lat="46.98108211642275" lon="5.506859820997754"><ele>215.0</ele><time>2026-03-28T10:43:44Z</time></trkpt><trkpt lat="46.98084752071774" lon="5.5070012625352565"><ele>211.0</ele><time>2026-03-28T10:43:45Z</time></trkpt><trkpt lat="46.98061282790432" lon="5.50714761548221"><ele>209.5</ele><time>2026-03-28T10:43:46Z</time></trkpt><trkpt lat="46.98038133014268" lon="5.507297265990083"><ele>208.0</ele><time>2026-03-28T10:43:47Z</time></trkpt><trkpt lat="46.98014798315131" lon="5.507414533105717"><ele>211.5</ele><time>2026-03-28T10:43:48Z</time></trkpt><trkpt lat="46.97991190848812" lon="5.50753222895109"><ele>215.0</ele><time>2026-03-28T10:43:49Z</time></trkpt><trkpt lat="46.97969584042438" lon="5.50775715614729"><ele>218.5</ele><time>2026-03-28T10:43:50Z</time></trkpt><trkpt lat="46.97946631497944" lon="5.507918181311327"><ele>222.0</ele><time>2026-03-28T10:43:51Z</time></trkpt><trkpt lat="46.9792349986523" lon="5.508082276602466"><ele>220.5</ele><time>2026-03-28T10:43:52Z</time></trkpt><trkpt lat="46.97900355847722" lon="5.508253880921256"><ele>219.0</ele><time>2026-03-28T10:43:53Z</time></trkpt><trkpt lat="46.97877169302694" lon="5.5084261772083885"><ele>219.0</ele><time>2026-03-28T10:43:54Z</time></trkpt><trkpt lat="46.97853589101579" lon="5.508597895030411"><ele>219.0</ele><time>2026-03-28T10:43:55Z</time></trkpt><trkpt lat="46.97829905370681" lon="5.508777414140486"><ele>221.0</ele><time>2026-03-28T10:43:56Z</time></trkpt><trkpt lat="46.97806213463005" lon="5.508956492701802"><ele>223.0</ele><time>2026-03-28T10:43:57Z</time></trkpt><trkpt lat="46.977825404578645" lon="5.509141132160669"><ele>223.0</ele><time>2026-03-28T10:43:58Z</time></trkpt><trkpt lat="46.977588508209884" lon="5.509328573586668"><ele>223.0</ele><time>2026-03-28T10:43:59Z</time></trkpt><trkpt lat="46.977351157118655" lon="5.509516391338028"><ele>222.5</ele><time>2026-03-28T10:44:00Z</time></trkpt><trkpt lat="46.977118526062114" lon="5.509709616258721"><ele>222.0</ele><time>2026-03-28T10:44:01Z</time></trkpt><trkpt lat="46.97688616856201" lon="5.50990779288439"><ele>221.5</ele><time>2026-03-28T10:44:02Z</time></trkpt><trkpt lat="46.97665349326368" lon="5.510106080442906"><ele>221.0</ele><time>2026-03-28T10:44:03Z</time></trkpt><trkpt lat="46.97642305884634" lon="5.510308092542343"><ele>221.0</ele><time>2026-03-28T10:44:04Z</time></trkpt><trkpt lat="46.97619396981592" lon="5.5105133093743035"><ele>221.0</ele><time>2026-03-28T10:44:05Z</time></trkpt><trkpt lat="46.975962684395235" lon="5.510713900232355"><ele>222.0</ele><time>2026-03-28T10:44:06Z</time></trkpt><trkpt lat="46.97573210506589" lon="5.510917027930622"><ele>223.0</ele><time>2026-03-28T10:44:07Z</time></trkpt><trkpt lat="46.97550082253526" lon="5.511120075915677"><ele>225.0</ele><time>2026-03-28T10:44:08Z</time></trkpt><trkpt lat="46.975265239784946" lon="5.511321143857213"><ele>227.0</ele><time>2026-03-28T10:44:09Z</time></trkpt><trkpt lat="46.975032586094365" lon="5.511532334968966"><ele>224.0</ele><time>2026-03-28T10:44:10Z</time></trkpt><trkpt lat="46.97480247103882" lon="5.511749275956996"><ele>221.0</ele><time>2026-03-28T10:44:11Z</time></trkpt><trkpt lat="46.97457728041255" lon="5.51197333402477"><ele>221.0</ele><time>2026-03-28T10:44:12Z</time></trkpt><trkpt lat="46.97435372290917" lon="5.512200200697784"><ele>221.0</ele><time>2026-03-28T10:44:13Z</time></trkpt><trkpt lat="46.974129776847064" lon="5.5124328478755915"><ele>221.0</ele><time>2026-03-28T10:44:14Z</time></trkpt><trkpt lat="46.973903961546746" lon="5.51266934575321"><ele>221.0</ele><time>2026-03-28T10:44:15Z</time></trkpt><trkpt lat="46.97367999309178" lon="5.512907376482135"><ele>222.5</ele><time>2026-03-28T10:44:16Z</time></trkpt><trkpt lat="46.97345533256877" lon="5.513149411152752"><ele>224.0</ele><time>2026-03-28T10:44:17Z</time></trkpt><trkpt lat="46.97322962118915" lon="5.513390429625726"><ele>224.0</ele><time>2026-03-28T10:44:18Z</time></trkpt><trkpt lat="46.97301193793968" lon="5.513639744168276"><ele>224.0</ele><time>2026-03-28T10:44:19Z</time></trkpt><trkpt lat="46.972788043977644" lon="5.513887382691803"><ele>225.5</ele><time>2026-03-28T10:44:20Z</time></trkpt><trkpt lat="46.97257009336112" lon="5.514142795231405"><ele>227.0</ele><time>2026-03-28T10:44:21Z</time></trkpt><trkpt lat="46.9723515492804" lon="5.514397574759431"><ele>228.0</ele><time>2026-03-28T10:44:22Z</time></trkpt><trkpt lat="46.972137016807636" lon="5.514659608195855"><ele>229.0</ele><time>2026-03-28T10:44:23Z</time></trkpt><trkpt lat="46.9719223217408" lon="5.514923674573767"><ele>229.0</ele><time>2026-03-28T10:44:24Z</time></trkpt><trkpt lat="46.97170967705406" lon="5.515190797740779"><ele>229.0</ele><time>2026-03-28T10:44:25Z</time></trkpt><trkpt lat="46.97149580758255" lon="5.515456191189638"><ele>228.5</ele><time>2026-03-28T10:44:26Z</time></trkpt><trkpt lat="46.97128478159389" lon="5.515724457904127"><ele>228.0</ele><time>2026-03-28T10:44:27Z</time></trkpt><trkpt lat="46.97107319352362" lon="5.515997242574023"><ele>228.0</ele><time>2026-03-28T10:44:28Z</time></trkpt><trkpt lat="46.97086362206516" lon="5.516270701118842"><ele>228.0</ele><time>2026-03-28T10:44:29Z</time></trkpt><trkpt lat="46.970658374766124" lon="5.516545482725198"><ele>228.0</ele><time>2026-03-28T10:44:30Z</time></trkpt><trkpt lat="46.9704564038712" lon="5.516822879104108"><ele>228.0</ele><time>2026-03-28T10:44:31Z</time></trkpt><trkpt lat="46.97025564649148" lon="5.517098724282422"><ele>228.5</ele><time>2026-03-28T10:44:32Z</time></trkpt><trkpt lat="46.97005787324193" lon="5.517373887189643"><ele>229.0</ele><time>2026-03-28T10:44:33Z</time></trkpt><trkpt lat="46.96985923465915" lon="5.51765066603073"><ele>229.5</ele><time>2026-03-28T10:44:34Z</time></trkpt><trkpt lat="46.969660345756246" lon="5.517927801146611"><ele>230.0</ele><time>2026-03-28T10:44:35Z</time></trkpt><trkpt lat="46.969462004507086" lon="5.518203540197949"><ele>230.0</ele><time>2026-03-28T10:44:36Z</time></trkpt><trkpt lat="46.96926588192601" lon="5.518478280081106"><ele>230.0</ele><time>2026-03-28T10:44:37Z</time></trkpt><trkpt lat="46.969069076215085" lon="5.518752958397759"><ele>231.5</ele><time>2026-03-28T10:44:38Z</time></trkpt><trkpt lat="46.96887299746962" lon="5.519027861204226"><ele>233.0</ele><time>2026-03-28T10:44:39Z</time></trkpt><trkpt lat="46.96867683204904" lon="5.5193004996778585"><ele>231.5</ele><time>2026-03-28T10:44:40Z</time></trkpt><trkpt lat="46.96847871679893" lon="5.519573271908351"><ele>230.0</ele><time>2026-03-28T10:44:41Z</time></trkpt><trkpt lat="46.968279976179126" lon="5.519845350078633"><ele>230.0</ele><time>2026-03-28T10:44:42Z</time></trkpt><trkpt lat="46.96808118856151" lon="5.520118101946488"><ele>230.0</ele><time>2026-03-28T10:44:43Z</time></trkpt><trkpt lat="46.96788400610168" lon="5.520390197900387"><ele>231.0</ele><time>2026-03-28T10:44:44Z</time></trkpt><trkpt lat="46.967687107037726" lon="5.52066261078865"><ele>232.0</ele><time>2026-03-28T10:44:45Z</time></trkpt><trkpt lat="46.967493431111826" lon="5.520935090903997"><ele>232.0</ele><time>2026-03-28T10:44:46Z</time></trkpt><trkpt lat="46.96729828773814" lon="5.521208711284757"><ele>232.0</ele><time>2026-03-28T10:44:47Z</time></trkpt><trkpt lat="46.9671017905845" lon="5.521479867406042"><ele>233.0</ele><time>2026-03-28T10:44:48Z</time></trkpt><trkpt lat="46.96690501680552" lon="5.521751446578661"><ele>234.0</ele><time>2026-03-28T10:44:49Z</time></trkpt><trkpt lat="46.96670872403444" lon="5.522024386503472"><ele>233.0</ele><time>2026-03-28T10:44:50Z</time></trkpt><trkpt lat="46.96651308358486" lon="5.522295722849762"><ele>232.0</ele><time>2026-03-28T10:44:51Z</time></trkpt><trkpt lat="46.96631853413837" lon="5.52256869445266"><ele>232.0</ele><time>2026-03-28T10:44:52Z</time></trkpt><trkpt lat="46.96612142525901" lon="5.522841029015572"><ele>232.0</ele><time>2026-03-28T10:44:53Z</time></trkpt><trkpt lat="46.96592553716439" lon="5.523110901043997"><ele>232.0</ele><time>2026-03-28T10:44:54Z</time></trkpt><trkpt lat="46.965730113232986" lon="5.523381574920406"><ele>232.0</ele><time>2026-03-28T10:44:55Z</time></trkpt><trkpt lat="46.965534005448504" lon="5.5236518483030945"><ele>232.5</ele><time>2026-03-28T10:44:56Z</time></trkpt><trkpt lat="46.965341161422394" lon="5.523921707574231"><ele>233.0</ele><time>2026-03-28T10:44:57Z</time></trkpt><trkpt lat="46.96514660612111" lon="5.524192921492457"><ele>231.5</ele><time>2026-03-28T10:44:58Z</time></trkpt><trkpt lat="46.96495039374457" lon="5.524464439146291"><ele>230.0</ele><time>2026-03-28T10:44:59Z</time></trkpt><trkpt lat="46.96475530102449" lon="5.524737647351196"><ele>230.0</ele><time>2026-03-28T10:45:00Z</time></trkpt><trkpt lat="46.96456046129852" lon="5.525012254975263"><ele>230.0</ele><time>2026-03-28T10:45:01Z</time></trkpt><trkpt lat="46.964363797687476" lon="5.52528616668015"><ele>230.5</ele><time>2026-03-28T10:45:02Z</time></trkpt><trkpt lat="46.96416686697369" lon="5.525554205277575"><ele>231.0</ele><time>2026-03-28T10:45:03Z</time></trkpt><trkpt lat="46.96396811831155" lon="5.525826973658009"><ele>231.0</ele><time>2026-03-28T10:45:04Z</time></trkpt><trkpt lat="46.96377002783457" lon="5.526098628098353"><ele>231.0</ele><time>2026-03-28T10:45:05Z</time></trkpt><trkpt lat="46.96357197165988" lon="5.526369589752457"><ele>230.5</ele><time>2026-03-28T10:45:06Z</time></trkpt><trkpt lat="46.9633758824637" lon="5.52664157112747"><ele>230.0</ele><time>2026-03-28T10:45:07Z</time></trkpt><trkpt lat="46.96317800019486" lon="5.526910731604401"><ele>231.5</ele><time>2026-03-28T10:45:08Z</time></trkpt><trkpt lat="46.962978312241624" lon="5.5271758484727105"><ele>233.0</ele><time>2026-03-28T10:45:09Z</time></trkpt><trkpt lat="46.9627762905858" lon="5.527440197369856"><ele>233.0</ele><time>2026-03-28T10:45:10Z</time></trkpt><trkpt lat="46.962573345899685" lon="5.527705218715037"><ele>233.0</ele><time>2026-03-28T10:45:11Z</time></trkpt><trkpt lat="46.96237130884077" lon="5.527967784851832"><ele>232.0</ele><time>2026-03-28T10:45:12Z</time></trkpt><trkpt lat="46.96216765323769" lon="5.52823107009219"><ele>231.0</ele><time>2026-03-28T10:45:13Z</time></trkpt><trkpt lat="46.96196378813244" lon="5.528490247787669"><ele>230.5</ele><time>2026-03-28T10:45:14Z</time></trkpt><trkpt lat="46.961759670512386" lon="5.528749394529862"><ele>230.0</ele><time>2026-03-28T10:45:15Z</time></trkpt><trkpt lat="46.96155434811068" lon="5.529008584720216"><ele>230.0</ele><time>2026-03-28T10:45:16Z</time></trkpt><trkpt lat="46.96134860947122" lon="5.529269227196921"><ele>230.0</ele><time>2026-03-28T10:45:17Z</time></trkpt><trkpt lat="46.96114518169539" lon="5.529526449288786"><ele>230.0</ele><time>2026-03-28T10:45:18Z</time></trkpt><trkpt lat="46.96094210989592" lon="5.529788557920153"><ele>230.0</ele><time>2026-03-28T10:45:19Z</time></trkpt><trkpt lat="46.96073896073952" lon="5.530049166626803"><ele>230.0</ele><time>2026-03-28T10:45:20Z</time></trkpt><trkpt lat="46.9605367497309" lon="5.530308856296612"><ele>230.0</ele><time>2026-03-28T10:45:21Z</time></trkpt><trkpt lat="46.960333356938875" lon="5.530569214216298"><ele>230.5</ele><time>2026-03-28T10:45:22Z</time></trkpt><trkpt lat="46.96012952934326" lon="5.530832398676249"><ele>231.0</ele><time>2026-03-28T10:45:23Z</time></trkpt><trkpt lat="46.95992556220115" lon="5.5310925323157685"><ele>233.0</ele><time>2026-03-28T10:45:24Z</time></trkpt><trkpt lat="46.959721445160866" lon="5.531351401657389"><ele>235.0</ele><time>2026-03-28T10:45:25Z</time></trkpt><trkpt lat="46.95951801735894" lon="5.531611922594492"><ele>235.0</ele><time>2026-03-28T10:45:26Z</time></trkpt><trkpt lat="46.95931242403693" lon="5.531871531389147"><ele>235.0</ele><time>2026-03-28T10:45:27Z</time></trkpt><trkpt lat="46.959108750497734" lon="5.532134069488127"><ele>232.5</ele><time>2026-03-28T10:45:28Z</time></trkpt><trkpt lat="46.95890289618492" lon="5.532395060743631"><ele>230.0</ele><time>2026-03-28T10:45:29Z</time></trkpt><trkpt lat="46.95869953987952" lon="5.532655943924304"><ele>231.0</ele><time>2026-03-28T10:45:30Z</time></trkpt><trkpt lat="46.958495728080656" lon="5.532915343951639"><ele>232.0</ele><time>2026-03-28T10:45:31Z</time></trkpt><trkpt lat="46.958290437819926" lon="5.53317865392444"><ele>232.0</ele><time>2026-03-28T10:45:32Z</time></trkpt><trkpt lat="46.95808682572299" lon="5.533441512128123"><ele>232.0</ele><time>2026-03-28T10:45:33Z</time></trkpt><trkpt lat="46.95788195946081" lon="5.5337040433538665"><ele>232.5</ele><time>2026-03-28T10:45:34Z</time></trkpt><trkpt lat="46.95767507053905" lon="5.53396631880051"><ele>233.0</ele><time>2026-03-28T10:45:35Z</time></trkpt><trkpt lat="46.95746457255118" lon="5.534231695044586"><ele>233.0</ele><time>2026-03-28T10:45:36Z</time></trkpt><trkpt lat="46.95725837124097" lon="5.534488379676572"><ele>233.0</ele><time>2026-03-28T10:45:37Z</time></trkpt><trkpt lat="46.95705440572704" lon="5.534750219814367"><ele>234.0</ele><time>2026-03-28T10:45:38Z</time></trkpt><trkpt lat="46.956850305639634" lon="5.535008134389817"><ele>235.0</ele><time>2026-03-28T10:45:39Z</time></trkpt><trkpt lat="46.956645864986314" lon="5.535269745896268"><ele>236.5</ele><time>2026-03-28T10:45:40Z</time></trkpt><trkpt lat="46.95644290000764" lon="5.535534753594071"><ele>238.0</ele><time>2026-03-28T10:45:41Z</time></trkpt><trkpt lat="46.956239785981076" lon="5.535796719279443"><ele>238.0</ele><time>2026-03-28T10:45:42Z</time></trkpt><trkpt lat="46.95603394412128" lon="5.536059003361912"><ele>238.0</ele><time>2026-03-28T10:45:43Z</time></trkpt><trkpt lat="46.9558244221614" lon="5.536317535069799"><ele>236.5</ele><time>2026-03-28T10:45:44Z</time></trkpt><trkpt lat="46.955619335139545" lon="5.536579129463976"><ele>235.0</ele><time>2026-03-28T10:45:45Z</time></trkpt><trkpt lat="46.955413517803024" lon="5.536841616335678"><ele>235.5</ele><time>2026-03-28T10:45:46Z</time></trkpt><trkpt lat="46.95521018788675" lon="5.537100880487967"><ele>236.0</ele><time>2026-03-28T10:45:47Z</time></trkpt><trkpt lat="46.95500216904495" lon="5.537362351775645"><ele>234.5</ele><time>2026-03-28T10:45:48Z</time></trkpt><trkpt lat="46.95479877949674" lon="5.53762643783938"><ele>233.0</ele><time>2026-03-28T10:45:49Z</time></trkpt><trkpt lat="46.95459188034202" lon="5.537885332372437"><ele>233.5</ele><time>2026-03-28T10:45:50Z</time></trkpt><trkpt lat="46.95438767651457" lon="5.538151438372353"><ele>234.0</ele><time>2026-03-28T10:45:51Z</time></trkpt><trkpt lat="46.95418562822616" lon="5.538421840385313"><ele>234.0</ele><time>2026-03-28T10:45:52Z</time></trkpt><trkpt lat="46.95398033156988" lon="5.538689010926002"><ele>234.0</ele><time>2026-03-28T10:45:53Z</time></trkpt><trkpt lat="46.953775834948765" lon="5.538957398431522"><ele>234.0</ele><time>2026-03-28T10:45:54Z</time></trkpt><trkpt lat="46.95357074642462" lon="5.539218469422872"><ele>234.0</ele><time>2026-03-28T10:45:55Z</time></trkpt><trkpt lat="46.95336401429921" lon="5.5394839023666735"><ele>229.5</ele><time>2026-03-28T10:45:56Z</time></trkpt><trkpt lat="46.95315801485257" lon="5.539748459790758"><ele>225.0</ele><time>2026-03-28T10:45:57Z</time></trkpt><trkpt lat="46.95295204104826" lon="5.540014004508745"><ele>225.0</ele><time>2026-03-28T10:45:58Z</time></trkpt><trkpt lat="46.95274643872826" lon="5.540281587408952"><ele>225.0</ele><time>2026-03-28T10:45:59Z</time></trkpt><trkpt lat="46.95254350801997" lon="5.540552222671233"><ele>227.5</ele><time>2026-03-28T10:46:00Z</time></trkpt><trkpt lat="46.952343993026595" lon="5.540826519930912"><ele>230.0</ele><time>2026-03-28T10:46:01Z</time></trkpt><trkpt lat="46.952142158390075" lon="5.541103189727179"><ele>232.0</ele><time>2026-03-28T10:46:02Z</time></trkpt><trkpt lat="46.95194193603899" lon="5.5413807735319764"><ele>234.0</ele><time>2026-03-28T10:46:03Z</time></trkpt><trkpt lat="46.951742551964955" lon="5.541661041115123"><ele>234.0</ele><time>2026-03-28T10:46:04Z</time></trkpt><trkpt lat="46.95154650161379" lon="5.5419420849888335"><ele>234.0</ele><time>2026-03-28T10:46:05Z</time></trkpt><trkpt lat="46.951351754197496" lon="5.542227942295152"><ele>235.5</ele><time>2026-03-28T10:46:06Z</time></trkpt><trkpt lat="46.95115985569703" lon="5.542516353156248"><ele>237.0</ele><time>2026-03-28T10:46:07Z</time></trkpt><trkpt lat="46.95097028213108" lon="5.542805729758956"><ele>234.5</ele><time>2026-03-28T10:46:08Z</time></trkpt><trkpt lat="46.950783863651715" lon="5.54309785075062"><ele>232.0</ele><time>2026-03-28T10:46:09Z</time></trkpt><trkpt lat="46.95059790845212" lon="5.543392693779312"><ele>232.0</ele><time>2026-03-28T10:46:10Z</time></trkpt><trkpt lat="46.95041556302318" lon="5.543691044332446"><ele>232.0</ele><time>2026-03-28T10:46:11Z</time></trkpt><trkpt lat="46.950233569907255" lon="5.543993254365704"><ele>233.0</ele><time>2026-03-28T10:46:12Z</time></trkpt><trkpt lat="46.95005526060382" lon="5.5442948825583835"><ele>234.0</ele><time>2026-03-28T10:46:13Z</time></trkpt><trkpt lat="46.94987543716122" lon="5.544601179659845"><ele>234.0</ele><time>2026-03-28T10:46:14Z</time></trkpt><trkpt lat="46.94969702655186" lon="5.544907526410855"><ele>234.0</ele><time>2026-03-28T10:46:15Z</time></trkpt><trkpt lat="46.94951787501251" lon="5.5452113786522546"><ele>234.5</ele><time>2026-03-28T10:46:16Z</time></trkpt><trkpt lat="46.94933984866714" lon="5.5455183614619825"><ele>235.0</ele><time>2026-03-28T10:46:17Z</time></trkpt><trkpt lat="46.94916073244228" lon="5.545823139042271"><ele>234.0</ele><time>2026-03-28T10:46:18Z</time></trkpt><trkpt lat="46.94898144360962" lon="5.54612659701975"><ele>233.0</ele><time>2026-03-28T10:46:19Z</time></trkpt><trkpt lat="46.948800492630156" lon="5.546429027316656"><ele>233.0</ele><time>2026-03-28T10:46:20Z</time></trkpt><trkpt lat="46.94861719662146" lon="5.546729224353473"><ele>233.0</ele><time>2026-03-28T10:46:21Z</time></trkpt><trkpt lat="46.94843056518025" lon="5.547031737158426"><ele>232.5</ele><time>2026-03-28T10:46:22Z</time></trkpt><trkpt lat="46.94824213603891" lon="5.5473301146064635"><ele>232.0</ele><time>2026-03-28T10:46:23Z</time></trkpt><trkpt lat="46.948053021490715" lon="5.547624027274721"><ele>232.5</ele><time>2026-03-28T10:46:24Z</time></trkpt><trkpt lat="46.94786185424438" lon="5.547911691042369"><ele>233.0</ele><time>2026-03-28T10:46:25Z</time></trkpt><trkpt lat="46.947664003347235" lon="5.548194459401994"><ele>232.5</ele><time>2026-03-28T10:46:26Z</time></trkpt><trkpt lat="46.94746551739883" lon="5.54847276138203"><ele>232.0</ele><time>2026-03-28T10:46:27Z</time></trkpt><trkpt lat="46.9472645181389" lon="5.548744344601595"><ele>233.0</ele><time>2026-03-28T10:46:28Z</time></trkpt><trkpt lat="46.947057875072126" lon="5.5490140020112735"><ele>234.0</ele><time>2026-03-28T10:46:29Z</time></trkpt><trkpt lat="46.946849648731884" lon="5.549274879796445"><ele>232.5</ele><time>2026-03-28T10:46:30Z</time></trkpt><trkpt lat="46.94663665764185" lon="5.549530749982123"><ele>231.0</ele><time>2026-03-28T10:46:31Z</time></trkpt><trkpt lat="46.94641868283755" lon="5.549778186934191"><ele>229.5</ele><time>2026-03-28T10:46:32Z</time></trkpt><trkpt lat="46.94620334159934" lon="5.550023146312043"><ele>228.0</ele><time>2026-03-28T10:46:33Z</time></trkpt><trkpt lat="46.945982571858536" lon="5.550261925527642"><ele>227.0</ele><time>2026-03-28T10:46:34Z</time></trkpt><trkpt lat="46.94575766909872" lon="5.550496019368206"><ele>226.0</ele><time>2026-03-28T10:46:35Z</time></trkpt><trkpt lat="46.945532119899255" lon="5.550726693777403"><ele>226.0</ele><time>2026-03-28T10:46:36Z</time></trkpt><trkpt lat="46.94530153265299" lon="5.550951160605598"><ele>226.0</ele><time>2026-03-28T10:46:37Z</time></trkpt><trkpt lat="46.94507116297887" lon="5.551168326909567"><ele>227.0</ele><time>2026-03-28T10:46:38Z</time></trkpt><trkpt lat="46.94483775448116" lon="5.551380425390772"><ele>228.0</ele><time>2026-03-28T10:46:39Z</time></trkpt><trkpt lat="46.94460123988207" lon="5.551592213060928"><ele>228.0</ele><time>2026-03-28T10:46:40Z</time></trkpt><trkpt lat="46.944365325795225" lon="5.551794583101255"><ele>228.0</ele><time>2026-03-28T10:46:41Z</time></trkpt><trkpt lat="46.944125060888695" lon="5.55198916961931"><ele>228.5</ele><time>2026-03-28T10:46:42Z</time></trkpt><trkpt lat="46.943881325580826" lon="5.552175246324605"><ele>229.0</ele><time>2026-03-28T10:46:43Z</time></trkpt><trkpt lat="46.94363725337049" lon="5.552356186014593"><ele>229.0</ele><time>2026-03-28T10:46:44Z</time></trkpt><trkpt lat="46.94338912564484" lon="5.55252915437908"><ele>229.0</ele><time>2026-03-28T10:46:45Z</time></trkpt><trkpt lat="46.94314057013812" lon="5.55269616874757"><ele>229.0</ele><time>2026-03-28T10:46:46Z</time></trkpt><trkpt lat="46.94288683862253" lon="5.552861716875823"><ele>229.0</ele><time>2026-03-28T10:46:47Z</time></trkpt><trkpt lat="46.94263412439516" lon="5.553019030597888"><ele>228.5</ele><time>2026-03-28T10:46:48Z</time></trkpt><trkpt lat="46.94238062072336" lon="5.553167473123752"><ele>228.0</ele><time>2026-03-28T10:46:49Z</time></trkpt><trkpt lat="46.94212286550107" lon="5.553312925808327"><ele>228.0</ele><time>2026-03-28T10:46:50Z</time></trkpt><trkpt lat="46.941866306866565" lon="5.553447586766308"><ele>228.0</ele><time>2026-03-28T10:46:51Z</time></trkpt><trkpt lat="46.941602437310465" lon="5.5535757768984295"><ele>227.5</ele><time>2026-03-28T10:46:52Z</time></trkpt><trkpt lat="46.94134030460331" lon="5.553697321085727"><ele>227.0</ele><time>2026-03-28T10:46:53Z</time></trkpt><trkpt lat="46.941076294752314" lon="5.553817168786361"><ele>225.5</ele><time>2026-03-28T10:46:54Z</time></trkpt><trkpt lat="46.94081249792271" lon="5.553925029526295"><ele>224.0</ele><time>2026-03-28T10:46:55Z</time></trkpt><trkpt lat="46.940544660072455" lon="5.554030030306605"><ele>224.0</ele><time>2026-03-28T10:46:56Z</time></trkpt><trkpt lat="46.94027612598332" lon="5.55412727084615"><ele>224.0</ele><time>2026-03-28T10:46:57Z</time></trkpt><trkpt lat="46.94000734994405" lon="5.554221645628091"><ele>223.0</ele><time>2026-03-28T10:46:58Z</time></trkpt><trkpt lat="46.939737498382705" lon="5.554306073118722"><ele>222.0</ele><time>2026-03-28T10:46:59Z</time></trkpt><trkpt lat="46.9394646892077" lon="5.554386129522341"><ele>222.0</ele><time>2026-03-28T10:47:00Z</time></trkpt><trkpt lat="46.93919232016434" lon="5.554455213865367"><ele>222.0</ele><time>2026-03-28T10:47:01Z</time></trkpt><trkpt lat="46.938920902553484" lon="5.554522839230489"><ele>223.5</ele><time>2026-03-28T10:47:02Z</time></trkpt><trkpt lat="46.93864903029416" lon="5.554583573773524"><ele>225.0</ele><time>2026-03-28T10:47:03Z</time></trkpt><trkpt lat="46.9383765770168" lon="5.55463534650746"><ele>225.5</ele><time>2026-03-28T10:47:04Z</time></trkpt><trkpt lat="46.93810366907534" lon="5.554681693498857"><ele>226.0</ele><time>2026-03-28T10:47:05Z</time></trkpt><trkpt lat="46.93783178790815" lon="5.554720788791668"><ele>226.0</ele><time>2026-03-28T10:47:06Z</time></trkpt><trkpt lat="46.93755829279009" lon="5.554751361189331"><ele>226.0</ele><time>2026-03-28T10:47:07Z</time></trkpt><trkpt lat="46.93728419750984" lon="5.554777152274547"><ele>226.5</ele><time>2026-03-28T10:47:08Z</time></trkpt><trkpt lat="46.93701068070824" lon="5.554792329631131"><ele>227.0</ele><time>2026-03-28T10:47:09Z</time></trkpt><trkpt lat="46.936735622410595" lon="5.5548042795660315"><ele>226.5</ele><time>2026-03-28T10:47:10Z</time></trkpt><trkpt lat="46.936461026819856" lon="5.5548078233296145"><ele>226.0</ele><time>2026-03-28T10:47:11Z</time></trkpt><trkpt lat="46.93618642979344" lon="5.554810731680841"><ele>226.0</ele><time>2026-03-28T10:47:12Z</time></trkpt><trkpt lat="46.93591270193235" lon="5.554798543917029"><ele>226.0</ele><time>2026-03-28T10:47:13Z</time></trkpt><trkpt lat="46.93563812313907" lon="5.554787374631944"><ele>226.5</ele><time>2026-03-28T10:47:14Z</time></trkpt><trkpt lat="46.935365321535514" lon="5.554775209370329"><ele>227.0</ele><time>2026-03-28T10:47:15Z</time></trkpt><trkpt lat="46.935090867597474" lon="5.55476313332726"><ele>227.0</ele><time>2026-03-28T10:47:16Z</time></trkpt><trkpt lat="46.93481640017123" lon="5.554754197074695"><ele>227.0</ele><time>2026-03-28T10:47:17Z</time></trkpt><trkpt lat="46.93454154558039" lon="5.554738323894134"><ele>227.0</ele><time>2026-03-28T10:47:18Z</time></trkpt><trkpt lat="46.9342672999662" lon="5.554722585194894"><ele>227.0</ele><time>2026-03-28T10:47:19Z</time></trkpt><trkpt lat="46.93399305202671" lon="5.554703111787874"><ele>227.0</ele><time>2026-03-28T10:47:20Z</time></trkpt><trkpt lat="46.9337186191393" lon="5.554687983926809"><ele>227.0</ele><time>2026-03-28T10:47:21Z</time></trkpt><trkpt lat="46.93344427093826" lon="5.55467329149738"><ele>227.0</ele><time>2026-03-28T10:47:22Z</time></trkpt><trkpt lat="46.93316968589511" lon="5.554658898545216"><ele>227.0</ele><time>2026-03-28T10:47:23Z</time></trkpt><trkpt lat="46.93289421022862" lon="5.554643804981703"><ele>227.0</ele><time>2026-03-28T10:47:24Z</time></trkpt><trkpt lat="46.932619488214854" lon="5.5546309305226655"><ele>227.0</ele><time>2026-03-28T10:47:25Z</time></trkpt><trkpt lat="46.93234432762634" lon="5.554619533093669"><ele>226.5</ele><time>2026-03-28T10:47:26Z</time></trkpt><trkpt lat="46.93206957991612" lon="5.554608712834382"><ele>226.0</ele><time>2026-03-28T10:47:27Z</time></trkpt><trkpt lat="46.93179489995026" lon="5.5545938102053585"><ele>225.5</ele><time>2026-03-28T10:47:28Z</time></trkpt><trkpt lat="46.93151990518819" lon="5.554580205037703"><ele>225.0</ele><time>2026-03-28T10:47:29Z</time></trkpt><trkpt lat="46.931243574834554" lon="5.5545689291558835"><ele>225.0</ele><time>2026-03-28T10:47:30Z</time></trkpt><trkpt lat="46.930968809498665" lon="5.554553200636452"><ele>225.0</ele><time>2026-03-28T10:47:31Z</time></trkpt><trkpt lat="46.930694309167244" lon="5.554537704301793"><ele>225.0</ele><time>2026-03-28T10:47:32Z</time></trkpt><trkpt lat="46.93041938412355" lon="5.554523777279752"><ele>225.0</ele><time>2026-03-28T10:47:33Z</time></trkpt><trkpt lat="46.93014458940782" lon="5.554507988146131"><ele>224.0</ele><time>2026-03-28T10:47:34Z</time></trkpt><trkpt lat="46.92986990630253" lon="5.554494733629314"><ele>223.0</ele><time>2026-03-28T10:47:35Z</time></trkpt><trkpt lat="46.92959417666179" lon="5.554482337287122"><ele>223.0</ele><time>2026-03-28T10:47:36Z</time></trkpt><trkpt lat="46.92931771382261" lon="5.554469770194554"><ele>223.0</ele><time>2026-03-28T10:47:37Z</time></trkpt><trkpt lat="46.929043514106276" lon="5.554452884499835"><ele>223.0</ele><time>2026-03-28T10:47:38Z</time></trkpt><trkpt lat="46.92876830875012" lon="5.5544383958546355"><ele>223.0</ele><time>2026-03-28T10:47:39Z</time></trkpt><trkpt lat="46.92849446264015" lon="5.55442297917533"><ele>222.5</ele><time>2026-03-28T10:47:40Z</time></trkpt><trkpt lat="46.92821930588423" lon="5.554410582833594"><ele>222.0</ele><time>2026-03-28T10:47:41Z</time></trkpt><trkpt lat="46.927941921183994" lon="5.554401661291207"><ele>222.0</ele><time>2026-03-28T10:47:42Z</time></trkpt><trkpt lat="46.92766646021927" lon="5.554390337894545"><ele>222.0</ele><time>2026-03-28T10:47:43Z</time></trkpt><trkpt lat="46.92738841512738" lon="5.554377546934816"><ele>222.0</ele><time>2026-03-28T10:47:44Z</time></trkpt><trkpt lat="46.92711034303206" lon="5.554365517719509"><ele>222.0</ele><time>2026-03-28T10:47:45Z</time></trkpt><trkpt lat="46.9268326692444" lon="5.554351705583298"><ele>220.5</ele><time>2026-03-28T10:47:46Z</time></trkpt><trkpt lat="46.92655688047763" lon="5.554340418154099"><ele>219.0</ele><time>2026-03-28T10:47:47Z</time></trkpt><trkpt lat="46.92627999738952" lon="5.554333261006764"><ele>219.0</ele><time>2026-03-28T10:47:48Z</time></trkpt><trkpt lat="46.92600100961562" lon="5.554329112453784"><ele>219.0</ele><time>2026-03-28T10:47:49Z</time></trkpt><trkpt lat="46.92572191531995" lon="5.55433244734576"><ele>219.0</ele><time>2026-03-28T10:47:50Z</time></trkpt><trkpt lat="46.92544399902153" lon="5.55433674004334"><ele>219.0</ele><time>2026-03-28T10:47:51Z</time></trkpt><trkpt lat="46.925165581088365" lon="5.554345024550155"><ele>217.5</ele><time>2026-03-28T10:47:52Z</time></trkpt><trkpt lat="46.92488720220413" lon="5.55435912294929"><ele>216.0</ele><time>2026-03-28T10:47:53Z</time></trkpt><trkpt lat="46.92460837999429" lon="5.554378183736183"><ele>216.0</ele><time>2026-03-28T10:47:54Z</time></trkpt><trkpt lat="46.92432981238619" lon="5.554401399222001"><ele>216.0</ele><time>2026-03-28T10:47:55Z</time></trkpt><trkpt lat="46.924053745338874" lon="5.554426411980461"><ele>216.5</ele><time>2026-03-28T10:47:56Z</time></trkpt><trkpt lat="46.92377852279522" lon="5.554455117009228"><ele>217.0</ele><time>2026-03-28T10:47:57Z</time></trkpt><trkpt lat="46.92350310697716" lon="5.554489071837471"><ele>216.5</ele><time>2026-03-28T10:47:58Z</time></trkpt><trkpt lat="46.923226316116455" lon="5.554526211945188"><ele>216.0</ele><time>2026-03-28T10:47:59Z</time></trkpt><trkpt lat="46.922952185363286" lon="5.554568388148795"><ele>216.0</ele><time>2026-03-28T10:48:00Z</time></trkpt><trkpt lat="46.92267896518507" lon="5.554616707427233"><ele>216.0</ele><time>2026-03-28T10:48:01Z</time></trkpt><trkpt lat="46.92240515556526" lon="5.554667311838747"><ele>215.5</ele><time>2026-03-28T10:48:02Z</time></trkpt><trkpt lat="46.922133118828356" lon="5.554724686098443"><ele>215.0</ele><time>2026-03-28T10:48:03Z</time></trkpt><trkpt lat="46.92186148287992" lon="5.554785980939958"><ele>215.5</ele><time>2026-03-28T10:48:04Z</time></trkpt><trkpt lat="46.92159077439693" lon="5.554855480095088"><ele>216.0</ele><time>2026-03-28T10:48:05Z</time></trkpt><trkpt lat="46.9213213417984" lon="5.554925485264432"><ele>216.0</ele><time>2026-03-28T10:48:06Z</time></trkpt><trkpt lat="46.921050991865116" lon="5.555005431370587"><ele>216.0</ele><time>2026-03-28T10:48:07Z</time></trkpt><trkpt lat="46.920782081340235" lon="5.555084725759204"><ele>216.0</ele><time>2026-03-28T10:48:08Z</time></trkpt><trkpt lat="46.92051217911444" lon="5.555170337151793"><ele>216.0</ele><time>2026-03-28T10:48:09Z</time></trkpt><trkpt lat="46.920243146491124" lon="5.555261315619"><ele>215.5</ele><time>2026-03-28T10:48:10Z</time></trkpt><trkpt lat="46.91997382035683" lon="5.555357161666573"><ele>215.0</ele><time>2026-03-28T10:48:11Z</time></trkpt><trkpt lat="46.919705144192505" lon="5.555460021397676"><ele>215.0</ele><time>2026-03-28T10:48:12Z</time></trkpt><trkpt lat="46.91943666494841" lon="5.555567576917926"><ele>215.0</ele><time>2026-03-28T10:48:13Z</time></trkpt><trkpt lat="46.91916770493817" lon="5.555677445523936"><ele>215.0</ele><time>2026-03-28T10:48:14Z</time></trkpt><trkpt lat="46.9188990646053" lon="5.555792687456495"><ele>215.0</ele><time>2026-03-28T10:48:15Z</time></trkpt><trkpt lat="46.91863116721066" lon="5.555911313301348"><ele>214.5</ele><time>2026-03-28T10:48:16Z</time></trkpt><trkpt lat="46.91836603767509" lon="5.556039035333328"><ele>214.0</ele><time>2026-03-28T10:48:17Z</time></trkpt><trkpt lat="46.91809934735136" lon="5.556169991136726"><ele>214.0</ele><time>2026-03-28T10:48:18Z</time></trkpt><trkpt lat="46.91783253589464" lon="5.55630701483778"><ele>214.0</ele><time>2026-03-28T10:48:19Z</time></trkpt><trkpt lat="46.91756600051213" lon="5.556452326819234"><ele>215.0</ele><time>2026-03-28T10:48:20Z</time></trkpt><trkpt lat="46.91730214340427" lon="5.556602408913733"><ele>216.0</ele><time>2026-03-28T10:48:21Z</time></trkpt><trkpt lat="46.917032509632" lon="5.556756419881196"><ele>216.0</ele><time>2026-03-28T10:48:22Z</time></trkpt><trkpt lat="46.91676759609453" lon="5.556911943465483"><ele>216.0</ele><time>2026-03-28T10:48:23Z</time></trkpt><trkpt lat="46.91650534978886" lon="5.55707789057428"><ele>216.5</ele><time>2026-03-28T10:48:24Z</time></trkpt><trkpt lat="46.916240964068635" lon="5.557241771153263"><ele>217.0</ele><time>2026-03-28T10:48:25Z</time></trkpt><trkpt lat="46.91597898914778" lon="5.557415066298001"><ele>217.0</ele><time>2026-03-28T10:48:26Z</time></trkpt><trkpt lat="46.91571658524455" lon="5.557595678029107"><ele>217.0</ele><time>2026-03-28T10:48:27Z</time></trkpt><trkpt lat="46.91545575857693" lon="5.557778374136023"><ele>216.5</ele><time>2026-03-28T10:48:28Z</time></trkpt><trkpt lat="46.915195405927165" lon="5.5579693629099705"><ele>216.0</ele><time>2026-03-28T10:48:29Z</time></trkpt><trkpt lat="46.91493973280758" lon="5.558164978116621"><ele>216.0</ele><time>2026-03-28T10:48:30Z</time></trkpt><trkpt lat="46.914685541907595" lon="5.558367952959916"><ele>216.0</ele><time>2026-03-28T10:48:31Z</time></trkpt><trkpt lat="46.91443444087193" lon="5.558578722453619"><ele>215.5</ele><time>2026-03-28T10:48:32Z</time></trkpt><trkpt lat="46.914178422366795" lon="5.558785014574887"><ele>215.0</ele><time>2026-03-28T10:48:33Z</time></trkpt><trkpt lat="46.91392813523536" lon="5.559000538062488"><ele>215.0</ele><time>2026-03-28T10:48:34Z</time></trkpt><trkpt lat="46.913678381207404" lon="5.5592174418043605"><ele>215.0</ele><time>2026-03-28T10:48:35Z</time></trkpt><trkpt lat="46.91343016461331" lon="5.559439437547534"><ele>215.5</ele><time>2026-03-28T10:48:36Z</time></trkpt><trkpt lat="46.91318696160449" lon="5.559664418679505"><ele>216.0</ele><time>2026-03-28T10:48:37Z</time></trkpt><trkpt lat="46.9129438953604" lon="5.559896592337931"><ele>216.0</ele><time>2026-03-28T10:48:38Z</time></trkpt><trkpt lat="46.91270201126997" lon="5.560132560904591"><ele>216.0</ele><time>2026-03-28T10:48:39Z</time></trkpt><trkpt lat="46.912462369492644" lon="5.560376418014111"><ele>217.0</ele><time>2026-03-28T10:48:40Z</time></trkpt><trkpt lat="46.912226093670554" lon="5.560616858903219"><ele>218.0</ele><time>2026-03-28T10:48:41Z</time></trkpt><trkpt lat="46.91199117402542" lon="5.560868716694735"><ele>218.0</ele><time>2026-03-28T10:48:42Z</time></trkpt><trkpt lat="46.91175646026147" lon="5.561123969013729"><ele>218.0</ele><time>2026-03-28T10:48:43Z</time></trkpt><trkpt lat="46.91152572103736" lon="5.561386368412215"><ele>217.5</ele><time>2026-03-28T10:48:44Z</time></trkpt><trkpt lat="46.911295756858955" lon="5.561651545437595"><ele>217.0</ele><time>2026-03-28T10:48:45Z</time></trkpt><trkpt lat="46.9110689583653" lon="5.561922432041995"><ele>217.0</ele><time>2026-03-28T10:48:46Z</time></trkpt><trkpt lat="46.910844445449754" lon="5.562197363799529"><ele>217.0</ele><time>2026-03-28T10:48:47Z</time></trkpt><trkpt lat="46.91062280704346" lon="5.562476108453119"><ele>217.0</ele><time>2026-03-28T10:48:48Z</time></trkpt><trkpt lat="46.91040539570974" lon="5.562758383259088"><ele>217.0</ele><time>2026-03-28T10:48:49Z</time></trkpt><trkpt lat="46.91019100664788" lon="5.563042587235056"><ele>218.0</ele><time>2026-03-28T10:48:50Z</time></trkpt><trkpt lat="46.90997973967413" lon="5.563330247105295"><ele>219.0</ele><time>2026-03-28T10:48:51Z</time></trkpt><trkpt lat="46.909774098260606" lon="5.563619435054406"><ele>218.5</ele><time>2026-03-28T10:48:52Z</time></trkpt><trkpt lat="46.909568215761524" lon="5.563918378564691"><ele>218.0</ele><time>2026-03-28T10:48:53Z</time></trkpt><trkpt lat="46.90936320039847" lon="5.564219442566604"><ele>218.0</ele><time>2026-03-28T10:48:54Z</time></trkpt><trkpt lat="46.90916119080329" lon="5.564521160759413"><ele>218.0</ele><time>2026-03-28T10:48:55Z</time></trkpt><trkpt lat="46.90896044773022" lon="5.564826372333886"><ele>218.0</ele><time>2026-03-28T10:48:56Z</time></trkpt><trkpt lat="46.908762919610545" lon="5.565133501930413"><ele>218.0</ele><time>2026-03-28T10:48:57Z</time></trkpt><trkpt lat="46.90857013775193" lon="5.565446510466981"><ele>218.0</ele><time>2026-03-28T10:48:58Z</time></trkpt><trkpt lat="46.908383738854766" lon="5.565755500655237"><ele>218.0</ele><time>2026-03-28T10:48:59Z</time></trkpt><trkpt lat="46.90819467536384" lon="5.566059498063407"><ele>218.0</ele><time>2026-03-28T10:49:00Z</time></trkpt><trkpt lat="46.908006809237584" lon="5.5663587495233084"><ele>218.0</ele><time>2026-03-28T10:49:01Z</time></trkpt><trkpt lat="46.90782355899521" lon="5.566660954092168"><ele>218.0</ele><time>2026-03-28T10:49:02Z</time></trkpt><trkpt lat="46.90764270037364" lon="5.566968131178608"><ele>218.0</ele><time>2026-03-28T10:49:03Z</time></trkpt><trkpt lat="46.90746552547496" lon="5.567280106633872"><ele>217.5</ele><time>2026-03-28T10:49:04Z</time></trkpt><trkpt lat="46.907291113784815" lon="5.567590934632935"><ele>217.0</ele><time>2026-03-28T10:49:05Z</time></trkpt><trkpt lat="46.90711498559337" lon="5.567904588243558"><ele>217.0</ele><time>2026-03-28T10:49:06Z</time></trkpt><trkpt lat="46.90694213883624" lon="5.568216620428353"><ele>217.0</ele><time>2026-03-28T10:49:07Z</time></trkpt><trkpt lat="46.9067678957687" lon="5.56852771683242"><ele>217.0</ele><time>2026-03-28T10:49:08Z</time></trkpt><trkpt lat="46.90659815638857" lon="5.568841981381161"><ele>217.0</ele><time>2026-03-28T10:49:09Z</time></trkpt><trkpt lat="46.90642732314271" lon="5.569149790317874"><ele>217.0</ele><time>2026-03-28T10:49:10Z</time></trkpt><trkpt lat="46.90625444419855" lon="5.5694594397273836"><ele>217.0</ele><time>2026-03-28T10:49:11Z</time></trkpt><trkpt lat="46.906082643505904" lon="5.569767627348141"><ele>217.0</ele><time>2026-03-28T10:49:12Z</time></trkpt><trkpt lat="46.905911948183224" lon="5.570077083395113"><ele>217.0</ele><time>2026-03-28T10:49:13Z</time></trkpt><trkpt lat="46.90573958361786" lon="5.57038615375032"><ele>218.0</ele><time>2026-03-28T10:49:14Z</time></trkpt><trkpt lat="46.9055683358184" lon="5.570696160196444"><ele>219.0</ele><time>2026-03-28T10:49:15Z</time></trkpt><trkpt lat="46.9053955672922" lon="5.571005588446666"><ele>218.5</ele><time>2026-03-28T10:49:16Z</time></trkpt><trkpt lat="46.90522557827083" lon="5.5713122633359164"><ele>218.0</ele><time>2026-03-28T10:49:17Z</time></trkpt><trkpt lat="46.90505488830699" lon="5.5716212911852425"><ele>218.5</ele><time>2026-03-28T10:49:18Z</time></trkpt><trkpt lat="46.904882469896755" lon="5.5719305247305035"><ele>219.0</ele><time>2026-03-28T10:49:19Z</time></trkpt><trkpt lat="46.904711014218634" lon="5.572239188492524"><ele>219.0</ele><time>2026-03-28T10:49:20Z</time></trkpt><trkpt lat="46.90453921964618" lon="5.5725477917174855"><ele>219.0</ele><time>2026-03-28T10:49:21Z</time></trkpt><trkpt lat="46.90436896343784" lon="5.5728546110379815"><ele>219.0</ele><time>2026-03-28T10:49:22Z</time></trkpt><trkpt lat="46.904196391950016" lon="5.5731630546866135"><ele>219.0</ele><time>2026-03-28T10:49:23Z</time></trkpt><trkpt lat="46.90402561159818" lon="5.5734724815526375"><ele>218.5</ele><time>2026-03-28T10:49:24Z</time></trkpt><trkpt lat="46.90385334011999" lon="5.573779206190923"><ele>218.0</ele><time>2026-03-28T10:49:25Z</time></trkpt><trkpt lat="46.90368280442405" lon="5.574086519590851"><ele>218.0</ele><time>2026-03-28T10:49:26Z</time></trkpt><trkpt lat="46.90350923347939" lon="5.574394586412661"><ele>218.0</ele><time>2026-03-28T10:49:27Z</time></trkpt><trkpt lat="46.903338252640424" lon="5.574701207052185"><ele>219.0</ele><time>2026-03-28T10:49:28Z</time></trkpt><trkpt lat="46.90316630708912" lon="5.575009007582842"><ele>220.0</ele><time>2026-03-28T10:49:29Z</time></trkpt><trkpt lat="46.9029945091377" lon="5.57531708708904"><ele>219.5</ele><time>2026-03-28T10:49:30Z</time></trkpt><trkpt lat="46.90282271131814" lon="5.575626753406783"><ele>219.0</ele><time>2026-03-28T10:49:31Z</time></trkpt><trkpt lat="46.9026507876291" lon="5.575934675389808"><ele>219.5</ele><time>2026-03-28T10:49:32Z</time></trkpt><trkpt lat="46.902477781485175" lon="5.576244485580315"><ele>220.0</ele><time>2026-03-28T10:49:33Z</time></trkpt><trkpt lat="46.902303282874236" lon="5.5765543363176056"><ele>220.0</ele><time>2026-03-28T10:49:34Z</time></trkpt><trkpt lat="46.90213074444687" lon="5.576865386798655"><ele>220.0</ele><time>2026-03-28T10:49:35Z</time></trkpt><trkpt lat="46.901956893153006" lon="5.577174946397314"><ele>220.0</ele><time>2026-03-28T10:49:36Z</time></trkpt><trkpt lat="46.901785963410966" lon="5.577485079447079"><ele>220.0</ele><time>2026-03-28T10:49:37Z</time></trkpt><trkpt lat="46.901612904609145" lon="5.5777958303165915"><ele>220.5</ele><time>2026-03-28T10:49:38Z</time></trkpt><trkpt lat="46.90144048983324" lon="5.578105163527499"><ele>221.0</ele><time>2026-03-28T10:49:39Z</time></trkpt><trkpt lat="46.901268344986605" lon="5.578414440170469"><ele>220.5</ele><time>2026-03-28T10:49:40Z</time></trkpt><trkpt lat="46.901095031896205" lon="5.578722234121967"><ele>220.0</ele><time>2026-03-28T10:49:41Z</time></trkpt><trkpt lat="46.9009181888115" lon="5.579026410290405"><ele>220.0</ele><time>2026-03-28T10:49:42Z</time></trkpt><trkpt lat="46.900738697293974" lon="5.579329466114761"><ele>220.0</ele><time>2026-03-28T10:49:43Z</time></trkpt><trkpt lat="46.90055605467108" lon="5.579624416590245"><ele>219.5</ele><time>2026-03-28T10:49:44Z</time></trkpt><trkpt lat="46.900371178166104" lon="5.579918419794066"><ele>219.0</ele><time>2026-03-28T10:49:45Z</time></trkpt><trkpt lat="46.90018468819549" lon="5.580211754954882"><ele>219.0</ele><time>2026-03-28T10:49:46Z</time></trkpt><trkpt lat="46.899992038750305" lon="5.580500006593124"><ele>219.0</ele><time>2026-03-28T10:49:47Z</time></trkpt><trkpt lat="46.89979608758468" lon="5.5807796860084675"><ele>219.0</ele><time>2026-03-28T10:49:48Z</time></trkpt><trkpt lat="46.89959878594566" lon="5.581055819300961"><ele>219.0</ele><time>2026-03-28T10:49:49Z</time></trkpt><trkpt lat="46.89939664186623" lon="5.581326954202921"><ele>219.5</ele><time>2026-03-28T10:49:50Z</time></trkpt><trkpt lat="46.89919379413587" lon="5.581590239760679"><ele>220.0</ele><time>2026-03-28T10:49:51Z</time></trkpt><trkpt lat="46.89898856133499" lon="5.581851350183039"><ele>220.5</ele><time>2026-03-28T10:49:52Z</time></trkpt><trkpt lat="46.898778508464325" lon="5.582106895074081"><ele>221.0</ele><time>2026-03-28T10:49:53Z</time></trkpt><trkpt lat="46.89856544892143" lon="5.582354401607771"><ele>221.0</ele><time>2026-03-28T10:49:54Z</time></trkpt><trkpt lat="46.89834952050448" lon="5.58260089023449"><ele>221.0</ele><time>2026-03-28T10:49:55Z</time></trkpt><trkpt lat="46.89813053906604" lon="5.5828429110784565"><ele>221.0</ele><time>2026-03-28T10:49:56Z</time></trkpt><trkpt lat="46.897911546938694" lon="5.583078766411036"><ele>221.0</ele><time>2026-03-28T10:49:57Z</time></trkpt><trkpt lat="46.89768952216102" lon="5.5833101214052805"><ele>221.0</ele><time>2026-03-28T10:49:58Z</time></trkpt><trkpt lat="46.89746597090196" lon="5.5835302538930645"><ele>221.0</ele><time>2026-03-28T10:49:59Z</time></trkpt><trkpt lat="46.89723878573742" lon="5.5837460091315005"><ele>221.0</ele><time>2026-03-28T10:50:00Z</time></trkpt><trkpt lat="46.89700611054677" lon="5.583954694748221"><ele>221.0</ele><time>2026-03-28T10:50:01Z</time></trkpt><trkpt lat="46.89677240383643" lon="5.584162895545851"><ele>221.0</ele><time>2026-03-28T10:50:02Z</time></trkpt><trkpt lat="46.89653748117078" lon="5.584363035367463"><ele>221.0</ele><time>2026-03-28T10:50:03Z</time></trkpt><trkpt lat="46.89629936833085" lon="5.584559100079722"><ele>221.0</ele><time>2026-03-28T10:50:04Z</time></trkpt><trkpt lat="46.89606111396985" lon="5.584748352869103"><ele>221.0</ele><time>2026-03-28T10:50:05Z</time></trkpt><trkpt lat="46.89581936412687" lon="5.584932442244491"><ele>221.0</ele><time>2026-03-28T10:50:06Z</time></trkpt><trkpt lat="46.89557532805249" lon="5.58510986533695"><ele>221.0</ele><time>2026-03-28T10:50:07Z</time></trkpt><trkpt lat="46.895332226172904" lon="5.585279398618823"><ele>220.5</ele><time>2026-03-28T10:50:08Z</time></trkpt><trkpt lat="46.895086176422055" lon="5.585442938763953"><ele>220.0</ele><time>2026-03-28T10:50:09Z</time></trkpt><trkpt lat="46.89483555066829" lon="5.585598454777573"><ele>220.0</ele><time>2026-03-28T10:50:10Z</time></trkpt><trkpt lat="46.89458393510279" lon="5.58575054306771"><ele>220.0</ele><time>2026-03-28T10:50:11Z</time></trkpt><trkpt lat="46.89433196100048" lon="5.585897470896335"><ele>220.5</ele><time>2026-03-28T10:50:12Z</time></trkpt><trkpt lat="46.89407880625108" lon="5.586035992684359"><ele>221.0</ele><time>2026-03-28T10:50:13Z</time></trkpt><trkpt lat="46.893822383930186" lon="5.586167605595892"><ele>221.0</ele><time>2026-03-28T10:50:14Z</time></trkpt><trkpt lat="46.89356696295104" lon="5.586291499083682"><ele>221.0</ele><time>2026-03-28T10:50:15Z</time></trkpt><trkpt lat="46.8933089227806" lon="5.586408239905598"><ele>221.0</ele><time>2026-03-28T10:50:16Z</time></trkpt><trkpt lat="46.8930497042683" lon="5.586519882886085"><ele>221.0</ele><time>2026-03-28T10:50:17Z</time></trkpt><trkpt lat="46.89279020360303" lon="5.586626220922074"><ele>220.5</ele><time>2026-03-28T10:50:18Z</time></trkpt><trkpt lat="46.89252991122147" lon="5.586726808841702"><ele>220.0</ele><time>2026-03-28T10:50:19Z</time></trkpt><trkpt lat="46.892267504597264" lon="5.586822372112852"><ele>220.0</ele><time>2026-03-28T10:50:20Z</time></trkpt><trkpt lat="46.892001932150976" lon="5.586912228121255"><ele>220.0</ele><time>2026-03-28T10:50:21Z</time></trkpt><trkpt lat="46.89173798516396" lon="5.586993752596864"><ele>221.0</ele><time>2026-03-28T10:50:22Z</time></trkpt><trkpt lat="46.89147361071929" lon="5.587067455071291"><ele>222.0</ele><time>2026-03-28T10:50:23Z</time></trkpt><trkpt lat="46.891208589663165" lon="5.587139159850313"><ele>222.0</ele><time>2026-03-28T10:50:24Z</time></trkpt><trkpt lat="46.89094378673422" lon="5.587200129334312"><ele>222.0</ele><time>2026-03-28T10:50:25Z</time></trkpt><trkpt lat="46.890676974222465" lon="5.587258040904907"><ele>222.0</ele><time>2026-03-28T10:50:26Z</time></trkpt><trkpt lat="46.89041036051234" lon="5.587308941938157"><ele>222.0</ele><time>2026-03-28T10:50:27Z</time></trkpt><trkpt lat="46.89014318016523" lon="5.58734987930423"><ele>222.0</ele><time>2026-03-28T10:50:28Z</time></trkpt><trkpt lat="46.88987602018179" lon="5.587385873680223"><ele>222.0</ele><time>2026-03-28T10:50:29Z</time></trkpt><trkpt lat="46.88960825441516" lon="5.587418407896238"><ele>222.0</ele><time>2026-03-28T10:50:30Z</time></trkpt><trkpt lat="46.88934031060667" lon="5.587436090687579"><ele>222.0</ele><time>2026-03-28T10:50:31Z</time></trkpt><trkpt lat="46.88907190218185" lon="5.587450339290754"><ele>222.5</ele><time>2026-03-28T10:50:32Z</time></trkpt><trkpt lat="46.8888040270397" lon="5.587458848473683"><ele>223.0</ele><time>2026-03-28T10:50:33Z</time></trkpt><trkpt lat="46.88853516816416" lon="5.587462180885446"><ele>223.0</ele><time>2026-03-28T10:50:34Z</time></trkpt><trkpt lat="46.888264569063885" lon="5.587459038336026"><ele>223.0</ele><time>2026-03-28T10:50:35Z</time></trkpt><trkpt lat="46.887994176143344" lon="5.587448262205524"><ele>223.0</ele><time>2026-03-28T10:50:36Z</time></trkpt><trkpt lat="46.88772532565158" lon="5.587429671889254"><ele>223.0</ele><time>2026-03-28T10:50:37Z</time></trkpt><trkpt lat="46.887454776621084" lon="5.587407887546464"><ele>223.5</ele><time>2026-03-28T10:50:38Z</time></trkpt><trkpt lat="46.8871848325205" lon="5.587380043806809"><ele>224.0</ele><time>2026-03-28T10:50:39Z</time></trkpt><trkpt lat="46.88691578223672" lon="5.587351138257084"><ele>223.5</ele><time>2026-03-28T10:50:40Z</time></trkpt><trkpt lat="46.886644743185585" lon="5.587308392230297"><ele>223.0</ele><time>2026-03-28T10:50:41Z</time></trkpt><trkpt lat="46.88637569021991" lon="5.587259720570659"><ele>223.0</ele><time>2026-03-28T10:50:42Z</time></trkpt><trkpt lat="46.886107835778496" lon="5.587202851648954"><ele>223.0</ele><time>2026-03-28T10:50:43Z</time></trkpt><trkpt lat="46.88584067949202" lon="5.587136436295049"><ele>223.0</ele><time>2026-03-28T10:50:44Z</time></trkpt><trkpt lat="46.88557400955283" lon="5.587070746054299"><ele>223.0</ele><time>2026-03-28T10:50:45Z</time></trkpt><trkpt lat="46.88530623583921" lon="5.586993867077434"><ele>223.0</ele><time>2026-03-28T10:50:46Z</time></trkpt><trkpt lat="46.885039645047314" lon="5.58691117661138"><ele>223.0</ele><time>2026-03-28T10:50:47Z</time></trkpt><trkpt lat="46.88477398587968" lon="5.586818786281278"><ele>223.0</ele><time>2026-03-28T10:50:48Z</time></trkpt><trkpt lat="46.884510314747345" lon="5.586723184547351"><ele>223.0</ele><time>2026-03-28T10:50:49Z</time></trkpt><trkpt lat="46.88424758122379" lon="5.58662495299756"><ele>223.5</ele><time>2026-03-28T10:50:50Z</time></trkpt><trkpt lat="46.883984375275155" lon="5.586521911586985"><ele>224.0</ele><time>2026-03-28T10:50:51Z</time></trkpt><trkpt lat="46.883723668238076" lon="5.586420045143803"><ele>224.0</ele><time>2026-03-28T10:50:52Z</time></trkpt><trkpt lat="46.883460895245435" lon="5.586312805129137"><ele>224.0</ele><time>2026-03-28T10:50:53Z</time></trkpt><trkpt lat="46.883200760120104" lon="5.586206101755497"><ele>224.5</ele><time>2026-03-28T10:50:54Z</time></trkpt><trkpt lat="46.88294027397423" lon="5.586101165469209"><ele>225.0</ele><time>2026-03-28T10:50:55Z</time></trkpt><trkpt lat="46.88267778710687" lon="5.585996803289211"><ele>225.0</ele><time>2026-03-28T10:50:56Z</time></trkpt><trkpt lat="46.88241295988819" lon="5.585892446913981"><ele>225.0</ele><time>2026-03-28T10:50:57Z</time></trkpt><trkpt lat="46.882149654230886" lon="5.585792180008231"><ele>225.0</ele><time>2026-03-28T10:50:58Z</time></trkpt><trkpt lat="46.88188619396098" lon="5.585692899687395"><ele>225.0</ele><time>2026-03-28T10:50:59Z</time></trkpt><trkpt lat="46.88162252370787" lon="5.585589498709282"><ele>225.0</ele><time>2026-03-28T10:51:00Z</time></trkpt><trkpt lat="46.881361568981674" lon="5.5854878280230995"><ele>225.0</ele><time>2026-03-28T10:51:01Z</time></trkpt><trkpt lat="46.88109480246788" lon="5.585383210369914"><ele>225.0</ele><time>2026-03-28T10:51:02Z</time></trkpt><trkpt lat="46.880834910184106" lon="5.58528013663764"><ele>225.0</ele><time>2026-03-28T10:51:03Z</time></trkpt><trkpt lat="46.88057324189945" lon="5.585174054779222"><ele>225.0</ele><time>2026-03-28T10:51:04Z</time></trkpt><trkpt lat="46.880311617885695" lon="5.585069763331473"><ele>225.0</ele><time>2026-03-28T10:51:05Z</time></trkpt><trkpt lat="46.88004993059851" lon="5.584969251221621"><ele>225.5</ele><time>2026-03-28T10:51:06Z</time></trkpt><trkpt lat="46.87978730590836" lon="5.584867567485456"><ele>226.0</ele><time>2026-03-28T10:51:07Z</time></trkpt><trkpt lat="46.879525803165336" lon="5.584765895242609"><ele>226.0</ele><time>2026-03-28T10:51:08Z</time></trkpt><trkpt lat="46.87926589974394" lon="5.584663296898593"><ele>226.0</ele><time>2026-03-28T10:51:09Z</time></trkpt><trkpt lat="46.87900068779762" lon="5.584561168958956"><ele>226.0</ele><time>2026-03-28T10:51:10Z</time></trkpt><trkpt lat="46.878736277416664" lon="5.58445906160568"><ele>226.0</ele><time>2026-03-28T10:51:11Z</time></trkpt><trkpt lat="46.87847364759508" lon="5.584356321735298"><ele>226.0</ele><time>2026-03-28T10:51:12Z</time></trkpt><trkpt lat="46.87820899276343" lon="5.584251394455867"><ele>226.0</ele><time>2026-03-28T10:51:13Z</time></trkpt><trkpt lat="46.87794747656297" lon="5.584147895302699"><ele>226.0</ele><time>2026-03-28T10:51:14Z</time></trkpt><trkpt lat="46.877682626949756" lon="5.584044548191431"><ele>226.0</ele><time>2026-03-28T10:51:15Z</time></trkpt><trkpt lat="46.8774237606804" lon="5.583945197952366"><ele>226.0</ele><time>2026-03-28T10:51:16Z</time></trkpt><trkpt lat="46.87716188075191" lon="5.5838458139560405"><ele>226.0</ele><time>2026-03-28T10:51:17Z</time></trkpt><trkpt lat="46.87690119766983" lon="5.583743045765339"><ele>225.5</ele><time>2026-03-28T10:51:18Z</time></trkpt><trkpt lat="46.87663880084994" lon="5.583638797421718"><ele>225.0</ele><time>2026-03-28T10:51:19Z</time></trkpt><trkpt lat="46.87637784644576" lon="5.583536721979665"><ele>225.0</ele><time>2026-03-28T10:51:20Z</time></trkpt><trkpt lat="46.87611682315564" lon="5.583433058450827"><ele>225.0</ele><time>2026-03-28T10:51:21Z</time></trkpt><trkpt lat="46.87585851125761" lon="5.583332970810782"><ele>226.0</ele><time>2026-03-28T10:51:22Z</time></trkpt><trkpt lat="46.87559723498303" lon="5.583230245242749"><ele>227.0</ele><time>2026-03-28T10:51:23Z</time></trkpt><trkpt lat="46.87533394269908" lon="5.583127175227356"><ele>227.0</ele><time>2026-03-28T10:51:24Z</time></trkpt><trkpt lat="46.87507053222332" lon="5.583021048433207"><ele>227.0</ele><time>2026-03-28T10:51:25Z</time></trkpt><trkpt lat="46.874806698285546" lon="5.582919270605406"><ele>227.5</ele><time>2026-03-28T10:51:26Z</time></trkpt><trkpt lat="46.87454423188177" lon="5.582818832439622"><ele>228.0</ele><time>2026-03-28T10:51:27Z</time></trkpt><trkpt lat="46.874281636636546" lon="5.582717875437745"><ele>230.0</ele><time>2026-03-28T10:51:28Z</time></trkpt><trkpt lat="46.87402008957936" lon="5.582615529086426"><ele>232.0</ele><time>2026-03-28T10:51:29Z</time></trkpt><trkpt lat="46.87375736817613" lon="5.582516428497736"><ele>232.0</ele><time>2026-03-28T10:51:30Z</time></trkpt><trkpt lat="46.87349490127996" lon="5.582416702710484"><ele>232.0</ele><time>2026-03-28T10:51:31Z</time></trkpt><trkpt lat="46.87323068181681" lon="5.58231247984242"><ele>233.5</ele><time>2026-03-28T10:51:32Z</time></trkpt><trkpt lat="46.872970248672964" lon="5.5822108585859604"><ele>235.0</ele><time>2026-03-28T10:51:33Z</time></trkpt><trkpt lat="46.8727094669188" lon="5.582109275771783"><ele>235.0</ele><time>2026-03-28T10:51:34Z</time></trkpt><trkpt lat="46.87245001580752" lon="5.582009235027372"><ele>235.0</ele><time>2026-03-28T10:51:35Z</time></trkpt><trkpt lat="46.87218768825688" lon="5.5819042653971165"><ele>235.0</ele><time>2026-03-28T10:51:36Z</time></trkpt><trkpt lat="46.87192794003982" lon="5.581803585156895"><ele>235.0</ele><time>2026-03-28T10:51:37Z</time></trkpt><trkpt lat="46.87166356148371" lon="5.581697246632633"><ele>235.0</ele><time>2026-03-28T10:51:38Z</time></trkpt><trkpt lat="46.87140186022212" lon="5.581591297648393"><ele>235.0</ele><time>2026-03-28T10:51:39Z</time></trkpt><trkpt lat="46.871142950883645" lon="5.581492253893856"><ele>233.5</ele><time>2026-03-28T10:51:40Z</time></trkpt><trkpt lat="46.87088109489866" lon="5.581388915034988"><ele>232.0</ele><time>2026-03-28T10:51:41Z</time></trkpt><trkpt lat="46.87062027268697" lon="5.581284517477514"><ele>231.0</ele><time>2026-03-28T10:51:42Z</time></trkpt><trkpt lat="46.87036103285522" lon="5.58118131013293"><ele>230.0</ele><time>2026-03-28T10:51:43Z</time></trkpt><trkpt lat="46.87009965373491" lon="5.581075116171074"><ele>229.5</ele><time>2026-03-28T10:51:44Z</time></trkpt><trkpt lat="46.86984037114958" lon="5.580976073019535"><ele>229.0</ele><time>2026-03-28T10:51:45Z</time></trkpt><trkpt lat="46.8695780052315" lon="5.580871509407711"><ele>229.0</ele><time>2026-03-28T10:51:46Z</time></trkpt><trkpt lat="46.869319264870335" lon="5.580772292640535"><ele>229.0</ele><time>2026-03-28T10:51:47Z</time></trkpt><trkpt lat="46.86905947941584" lon="5.580674112895561"><ele>228.5</ele><time>2026-03-28T10:51:48Z</time></trkpt><trkpt lat="46.86880024996985" lon="5.580574023627551"><ele>228.0</ele><time>2026-03-28T10:51:49Z</time></trkpt><trkpt lat="46.86853897502591" lon="5.580471534442749"><ele>228.5</ele><time>2026-03-28T10:51:50Z</time></trkpt><trkpt lat="46.86827856259623" lon="5.580366545022992"><ele>229.0</ele><time>2026-03-28T10:51:51Z</time></trkpt><trkpt lat="46.86801845792121" lon="5.58026362574726"><ele>229.0</ele><time>2026-03-28T10:51:52Z</time></trkpt><trkpt lat="46.86775855790899" lon="5.5801613991103745"><ele>229.0</ele><time>2026-03-28T10:51:53Z</time></trkpt><trkpt lat="46.8674980275472" lon="5.580060946591887"><ele>230.5</ele><time>2026-03-28T10:51:54Z</time></trkpt><trkpt lat="46.867237013409785" lon="5.579960316115602"><ele>232.0</ele><time>2026-03-28T10:51:55Z</time></trkpt><trkpt lat="46.86697328366202" lon="5.5798587757672555"><ele>233.0</ele><time>2026-03-28T10:51:56Z</time></trkpt><trkpt lat="46.86670993216122" lon="5.579754689003621"><ele>234.0</ele><time>2026-03-28T10:51:57Z</time></trkpt><trkpt lat="46.8664465402509" lon="5.579652750549361"><ele>234.0</ele><time>2026-03-28T10:51:58Z</time></trkpt><trkpt lat="46.866181314907735" lon="5.579548301302826"><ele>234.0</ele><time>2026-03-28T10:51:59Z</time></trkpt><trkpt lat="46.865919982121504" lon="5.579445944762157"><ele>233.0</ele><time>2026-03-28T10:52:00Z</time></trkpt><trkpt lat="46.86565936920898" lon="5.579340224244884"><ele>232.0</ele><time>2026-03-28T10:52:01Z</time></trkpt><trkpt lat="46.865398900583656" lon="5.579234184801096"><ele>232.0</ele><time>2026-03-28T10:52:02Z</time></trkpt><trkpt lat="46.86513865781359" lon="5.579135071741081"><ele>232.0</ele><time>2026-03-28T10:52:03Z</time></trkpt><trkpt lat="46.86487283660837" lon="5.579031406748444"><ele>231.5</ele><time>2026-03-28T10:52:04Z</time></trkpt><trkpt lat="46.864611088577966" lon="5.5789324758590375"><ele>231.0</ele><time>2026-03-28T10:52:05Z</time></trkpt><trkpt lat="46.86434642793002" lon="5.578826766274817"><ele>231.5</ele><time>2026-03-28T10:52:06Z</time></trkpt><trkpt lat="46.864085049989725" lon="5.578726107009933"><ele>232.0</ele><time>2026-03-28T10:52:07Z</time></trkpt><trkpt lat="46.86382177293986" lon="5.578623229823767"><ele>232.0</ele><time>2026-03-28T10:52:08Z</time></trkpt><trkpt lat="46.86355853287198" lon="5.578517013589058"><ele>232.0</ele><time>2026-03-28T10:52:09Z</time></trkpt><trkpt lat="46.86329400313913" lon="5.578414582591726"><ele>229.5</ele><time>2026-03-28T10:52:10Z</time></trkpt><trkpt lat="46.86302607378263" lon="5.578304848742577"><ele>227.0</ele><time>2026-03-28T10:52:11Z</time></trkpt><trkpt lat="46.8627602152939" lon="5.578189867735766"><ele>227.0</ele><time>2026-03-28T10:52:12Z</time></trkpt><trkpt lat="46.862495682605825" lon="5.578072771313264"><ele>227.0</ele><time>2026-03-28T10:52:13Z</time></trkpt><trkpt lat="46.862232835314515" lon="5.577952240918448"><ele>229.0</ele><time>2026-03-28T10:52:14Z</time></trkpt><trkpt lat="46.86197291652231" lon="5.577831398384808"><ele>231.0</ele><time>2026-03-28T10:52:15Z</time></trkpt><trkpt lat="46.861711729923265" lon="5.577707152325814"><ele>231.0</ele><time>2026-03-28T10:52:16Z</time></trkpt><trkpt lat="46.86145301963075" lon="5.577577710934122"><ele>231.0</ele><time>2026-03-28T10:52:17Z</time></trkpt><trkpt lat="46.861195455643085" lon="5.577442602385875"><ele>232.0</ele><time>2026-03-28T10:52:18Z</time></trkpt><trkpt lat="46.86093840241922" lon="5.577306090431395"><ele>233.0</ele><time>2026-03-28T10:52:19Z</time></trkpt><trkpt lat="46.86068242135435" lon="5.57716318827109"><ele>233.0</ele><time>2026-03-28T10:52:20Z</time></trkpt><trkpt lat="46.86042948081333" lon="5.5770207939560725"><ele>233.0</ele><time>2026-03-28T10:52:21Z</time></trkpt><trkpt lat="46.860172887316864" lon="5.576873773955506"><ele>232.5</ele><time>2026-03-28T10:52:22Z</time></trkpt><trkpt lat="46.859920616581036" lon="5.576724291250296"><ele>232.0</ele><time>2026-03-28T10:52:23Z</time></trkpt><trkpt lat="46.85966786170176" lon="5.5765703723806395"><ele>232.0</ele><time>2026-03-28T10:52:24Z</time></trkpt><trkpt lat="46.85941405631137" lon="5.5764081254566475"><ele>232.0</ele><time>2026-03-28T10:52:25Z</time></trkpt><trkpt lat="46.85916421167528" lon="5.576247921599086"><ele>232.5</ele><time>2026-03-28T10:52:26Z</time></trkpt><trkpt lat="46.858918123229024" lon="5.576078027877464"><ele>233.0</ele><time>2026-03-28T10:52:27Z</time></trkpt><trkpt lat="46.858670944885596" lon="5.57590960351834"><ele>231.0</ele><time>2026-03-28T10:52:28Z</time></trkpt><trkpt lat="46.85842510812981" lon="5.575733934354314"><ele>229.0</ele><time>2026-03-28T10:52:29Z</time></trkpt><trkpt lat="46.858178162761774" lon="5.575558461148237"><ele>229.0</ele><time>2026-03-28T10:52:30Z</time></trkpt><trkpt lat="46.857938064735315" lon="5.575374388128435"><ele>229.0</ele><time>2026-03-28T10:52:31Z</time></trkpt><trkpt lat="46.85769460252816" lon="5.575190713581406"><ele>227.5</ele><time>2026-03-28T10:52:32Z</time></trkpt><trkpt lat="46.857456002636184" lon="5.575004375103157"><ele>226.0</ele><time>2026-03-28T10:52:33Z</time></trkpt><trkpt lat="46.857217729933225" lon="5.574815156486391"><ele>226.0</ele><time>2026-03-28T10:52:34Z</time></trkpt><trkpt lat="46.85697903695171" lon="5.574624417794091"><ele>226.0</ele><time>2026-03-28T10:52:35Z</time></trkpt><trkpt lat="46.85673996202789" lon="5.5744283577716995"><ele>224.5</ele><time>2026-03-28T10:52:36Z</time></trkpt><trkpt lat="46.85650322002161" lon="5.574230351054351"><ele>223.0</ele><time>2026-03-28T10:52:37Z</time></trkpt><trkpt lat="46.85626761458211" lon="5.574034432460013"><ele>223.0</ele><time>2026-03-28T10:52:38Z</time></trkpt><trkpt lat="46.85602977988747" lon="5.573837450131394"><ele>223.0</ele><time>2026-03-28T10:52:39Z</time></trkpt><trkpt lat="46.855793701157964" lon="5.573637952952031"><ele>226.0</ele><time>2026-03-28T10:52:40Z</time></trkpt><trkpt lat="46.855557354249605" lon="5.57344175320747"><ele>229.0</ele><time>2026-03-28T10:52:41Z</time></trkpt><trkpt lat="46.85532120413509" lon="5.573244057775595"><ele>229.0</ele><time>2026-03-28T10:52:42Z</time></trkpt><trkpt lat="46.85508487110006" lon="5.57304660596674"><ele>229.0</ele><time>2026-03-28T10:52:43Z</time></trkpt><trkpt lat="46.85484917526282" lon="5.5728486204815235"><ele>230.5</ele><time>2026-03-28T10:52:44Z</time></trkpt><trkpt lat="46.85461206339949" lon="5.572652549942328"><ele>232.0</ele><time>2026-03-28T10:52:45Z</time></trkpt><trkpt lat="46.85437616258016" lon="5.572457162717594"><ele>230.5</ele><time>2026-03-28T10:52:46Z</time></trkpt><trkpt lat="46.85413956491309" lon="5.572259283399105"><ele>229.0</ele><time>2026-03-28T10:52:47Z</time></trkpt><trkpt lat="46.85390445918242" lon="5.572058737250188"><ele>229.5</ele><time>2026-03-28T10:52:48Z</time></trkpt><trkpt lat="46.85366757857154" lon="5.571866247304548"><ele>230.0</ele><time>2026-03-28T10:52:49Z</time></trkpt><trkpt lat="46.853433394280835" lon="5.571669463895827"><ele>230.0</ele><time>2026-03-28T10:52:50Z</time></trkpt><trkpt lat="46.853197078463516" lon="5.571478470280755"><ele>230.0</ele><time>2026-03-28T10:52:51Z</time></trkpt><trkpt lat="46.85296002873326" lon="5.571288528913881"><ele>230.5</ele><time>2026-03-28T10:52:52Z</time></trkpt><trkpt lat="46.85271980247423" lon="5.571101943344079"><ele>231.0</ele><time>2026-03-28T10:52:53Z</time></trkpt><trkpt lat="46.85247941570155" lon="5.570919412418498"><ele>231.0</ele><time>2026-03-28T10:52:54Z</time></trkpt><trkpt lat="46.85223859821679" lon="5.57074447374734"><ele>231.0</ele><time>2026-03-28T10:52:55Z</time></trkpt><trkpt lat="46.85199565678507" lon="5.570569218406276"><ele>230.5</ele><time>2026-03-28T10:52:56Z</time></trkpt><trkpt lat="46.85175071986837" lon="5.570396115725695"><ele>230.0</ele><time>2026-03-28T10:52:57Z</time></trkpt><trkpt lat="46.85150552032505" lon="5.5702303276290985"><ele>230.0</ele><time>2026-03-28T10:52:58Z</time></trkpt><trkpt lat="46.85126081242735" lon="5.570068105650653"><ele>230.0</ele><time>2026-03-28T10:52:59Z</time></trkpt><trkpt lat="46.851014166105706" lon="5.56991034566648"><ele>228.5</ele><time>2026-03-28T10:53:00Z</time></trkpt><trkpt lat="46.85076785257072" lon="5.569755151279053"><ele>227.0</ele><time>2026-03-28T10:53:01Z</time></trkpt><trkpt lat="46.85052036084442" lon="5.569597772295926"><ele>227.0</ele><time>2026-03-28T10:53:02Z</time></trkpt><trkpt lat="46.85027294672161" lon="5.5694362149980625"><ele>227.0</ele><time>2026-03-28T10:53:03Z</time></trkpt><trkpt lat="46.850028511644936" lon="5.569267602214839"><ele>227.0</ele><time>2026-03-28T10:53:04Z</time></trkpt><trkpt lat="46.84978468378658" lon="5.569100772453141"><ele>227.0</ele><time>2026-03-28T10:53:05Z</time></trkpt><trkpt lat="46.84954045552402" lon="5.568928789769228"><ele>227.0</ele><time>2026-03-28T10:53:06Z</time></trkpt><trkpt lat="46.84929701915272" lon="5.568753405327826"><ele>227.0</ele><time>2026-03-28T10:53:07Z</time></trkpt><trkpt lat="46.849052434066905" lon="5.568576680426387"><ele>227.0</ele><time>2026-03-28T10:53:08Z</time></trkpt><trkpt lat="46.84881109210596" lon="5.5683975364740155"><ele>227.0</ele><time>2026-03-28T10:53:09Z</time></trkpt><trkpt lat="46.848572693654766" lon="5.568209819016027"><ele>227.0</ele><time>2026-03-28T10:53:10Z</time></trkpt><trkpt lat="46.848336536174436" lon="5.568016785537523"><ele>227.0</ele><time>2026-03-28T10:53:11Z</time></trkpt><trkpt lat="46.8481028665587" lon="5.5678177525751185"><ele>228.0</ele><time>2026-03-28T10:53:12Z</time></trkpt><trkpt lat="46.84787160446176" lon="5.567616600571823"><ele>229.0</ele><time>2026-03-28T10:53:13Z</time></trkpt><trkpt lat="46.84764391933642" lon="5.56740963939764"><ele>230.0</ele><time>2026-03-28T10:53:14Z</time></trkpt><trkpt lat="46.847415607707894" lon="5.56719830984605"><ele>231.0</ele><time>2026-03-28T10:53:15Z</time></trkpt><trkpt lat="46.84719122250426" lon="5.5669823386219734"><ele>231.0</ele><time>2026-03-28T10:53:16Z</time></trkpt><trkpt lat="46.846966260908566" lon="5.566762082105174"><ele>231.0</ele><time>2026-03-28T10:53:17Z</time></trkpt><trkpt lat="46.84674377437562" lon="5.56653462566825"><ele>232.0</ele><time>2026-03-28T10:53:18Z</time></trkpt><trkpt lat="46.84652369518756" lon="5.566306774654428"><ele>233.0</ele><time>2026-03-28T10:53:19Z</time></trkpt><trkpt lat="46.846306364544965" lon="5.5660759617439375"><ele>233.0</ele><time>2026-03-28T10:53:20Z</time></trkpt><trkpt lat="46.84609153868958" lon="5.565836776232231"><ele>233.0</ele><time>2026-03-28T10:53:21Z</time></trkpt><trkpt lat="46.84587941571565" lon="5.565593949696895"><ele>234.5</ele><time>2026-03-28T10:53:22Z</time></trkpt><trkpt lat="46.84566876427907" lon="5.5653457479056865"><ele>236.0</ele><time>2026-03-28T10:53:23Z</time></trkpt><trkpt lat="46.84546190455602" lon="5.565095886085093"><ele>236.0</ele><time>2026-03-28T10:53:24Z</time></trkpt><trkpt lat="46.84525417460652" lon="5.564845911477852"><ele>236.0</ele><time>2026-03-28T10:53:25Z</time></trkpt><trkpt lat="46.84505044365448" lon="5.56459457825652"><ele>238.0</ele><time>2026-03-28T10:53:26Z</time></trkpt><trkpt lat="46.844843703979826" lon="5.564342710293019"><ele>240.0</ele><time>2026-03-28T10:53:27Z</time></trkpt><trkpt lat="46.84463683889139" lon="5.5640875524473605"><ele>240.0</ele><time>2026-03-28T10:53:28Z</time></trkpt><trkpt lat="46.844430466956496" lon="5.563833045405687"><ele>240.0</ele><time>2026-03-28T10:53:29Z</time></trkpt><trkpt lat="46.84422440835913" lon="5.563577667519511"><ele>242.0</ele><time>2026-03-28T10:53:30Z</time></trkpt><trkpt lat="46.84402071919509" lon="5.563323962333773"><ele>244.0</ele><time>2026-03-28T10:53:31Z</time></trkpt><trkpt lat="46.84381297742334" lon="5.5630721946853825"><ele>245.0</ele><time>2026-03-28T10:53:32Z</time></trkpt><trkpt lat="46.843607373024525" lon="5.562815948048811"><ele>246.0</ele><time>2026-03-28T10:53:33Z</time></trkpt><trkpt lat="46.8434023124375" lon="5.562562199087658"><ele>246.0</ele><time>2026-03-28T10:53:34Z</time></trkpt><trkpt lat="46.843197242265994" lon="5.562307180319877"><ele>246.0</ele><time>2026-03-28T10:53:35Z</time></trkpt><trkpt lat="46.84299141549995" lon="5.5620505892229035"><ele>246.0</ele><time>2026-03-28T10:53:36Z</time></trkpt><trkpt lat="46.84278498089709" lon="5.561792734839474"><ele>246.0</ele><time>2026-03-28T10:53:37Z</time></trkpt><trkpt lat="46.84257980064303" lon="5.561534379961044"><ele>246.0</ele><time>2026-03-28T10:53:38Z</time></trkpt><trkpt lat="46.84237819934806" lon="5.561275416566114"><ele>246.0</ele><time>2026-03-28T10:53:39Z</time></trkpt><trkpt lat="46.842175552591485" lon="5.56101832078936"><ele>246.0</ele><time>2026-03-28T10:53:40Z</time></trkpt><trkpt lat="46.84197023142359" lon="5.560758028373934"><ele>246.0</ele><time>2026-03-28T10:53:41Z</time></trkpt><trkpt lat="46.84176641673296" lon="5.560489411067773"><ele>247.0</ele><time>2026-03-28T10:53:42Z</time></trkpt><trkpt lat="46.84156382622118" lon="5.56021727592907"><ele>248.0</ele><time>2026-03-28T10:53:43Z</time></trkpt><trkpt lat="46.84136336079794" lon="5.559943760207555"><ele>248.0</ele><time>2026-03-28T10:53:44Z</time></trkpt><trkpt lat="46.841161416005356" lon="5.559666210952669"><ele>248.0</ele><time>2026-03-28T10:53:45Z</time></trkpt><trkpt lat="46.84096479346763" lon="5.559384736441759"><ele>246.0</ele><time>2026-03-28T10:53:46Z</time></trkpt><trkpt lat="46.84076810976506" lon="5.55910175817135"><ele>244.0</ele><time>2026-03-28T10:53:47Z</time></trkpt><trkpt lat="46.84057205090382" lon="5.558821127526612"><ele>244.0</ele><time>2026-03-28T10:53:48Z</time></trkpt><trkpt lat="46.8403731006621" lon="5.5585419983207816"><ele>244.0</ele><time>2026-03-28T10:53:49Z</time></trkpt><trkpt lat="46.84017647063557" lon="5.5582588806187365"><ele>243.5</ele><time>2026-03-28T10:53:50Z</time></trkpt><trkpt lat="46.83998140572648" lon="5.557975086363853"><ele>243.0</ele><time>2026-03-28T10:53:51Z</time></trkpt><trkpt lat="46.83978406236922" lon="5.557689307100933"><ele>242.0</ele><time>2026-03-28T10:53:52Z</time></trkpt><trkpt lat="46.83958749458504" lon="5.557411406214376"><ele>241.0</ele><time>2026-03-28T10:53:53Z</time></trkpt><trkpt lat="46.83938984700553" lon="5.557125835424985"><ele>239.5</ele><time>2026-03-28T10:53:54Z</time></trkpt><trkpt lat="46.83919386602036" lon="5.556840325684725"><ele>238.0</ele><time>2026-03-28T10:53:55Z</time></trkpt><trkpt lat="46.83900032929194" lon="5.556558535698476"><ele>238.0</ele><time>2026-03-28T10:53:56Z</time></trkpt><trkpt lat="46.83880689635009" lon="5.556272469811071"><ele>238.0</ele><time>2026-03-28T10:53:57Z</time></trkpt><trkpt lat="46.83860998182316" lon="5.555989823945079"><ele>236.0</ele><time>2026-03-28T10:53:58Z</time></trkpt><trkpt lat="46.8384125939932" lon="5.555709707342665"><ele>234.0</ele><time>2026-03-28T10:53:59Z</time></trkpt><trkpt lat="46.838208371159745" lon="5.5554387488445345"><ele>233.0</ele><time>2026-03-28T10:54:00Z</time></trkpt><trkpt lat="46.83799905001563" lon="5.5551768101048005"><ele>232.0</ele><time>2026-03-28T10:54:01Z</time></trkpt><trkpt lat="46.83779572862786" lon="5.55491395019832"><ele>232.0</ele><time>2026-03-28T10:54:02Z</time></trkpt><trkpt lat="46.83759144159088" lon="5.554651822965063"><ele>232.0</ele><time>2026-03-28T10:54:03Z</time></trkpt><trkpt lat="46.83738601233367" lon="5.554388767832412"><ele>232.0</ele><time>2026-03-28T10:54:04Z</time></trkpt><trkpt lat="46.8371769295301" lon="5.554129574815324"><ele>232.0</ele><time>2026-03-28T10:54:05Z</time></trkpt><trkpt lat="46.83696806260517" lon="5.553871088458691"><ele>232.0</ele><time>2026-03-28T10:54:06Z</time></trkpt><trkpt lat="46.83675840390224" lon="5.553616880762153"><ele>232.0</ele><time>2026-03-28T10:54:07Z</time></trkpt><trkpt lat="46.83654675248781" lon="5.553363379693197"><ele>232.0</ele><time>2026-03-28T10:54:08Z</time></trkpt><trkpt lat="46.83633456327047" lon="5.55310687239281"><ele>232.0</ele><time>2026-03-28T10:54:09Z</time></trkpt><trkpt lat="46.83612309730536" lon="5.552859505379582"><ele>231.5</ele><time>2026-03-28T10:54:10Z</time></trkpt><trkpt lat="46.83591039024476" lon="5.552613613542166"><ele>231.0</ele><time>2026-03-28T10:54:11Z</time></trkpt><trkpt lat="46.83569702006986" lon="5.552370476200577"><ele>231.0</ele><time>2026-03-28T10:54:12Z</time></trkpt><trkpt lat="46.83548101304751" lon="5.552129228265696"><ele>231.0</ele><time>2026-03-28T10:54:13Z</time></trkpt><trkpt lat="46.835262076553555" lon="5.551886632018454"><ele>229.5</ele><time>2026-03-28T10:54:14Z</time></trkpt><trkpt lat="46.83504425675322" lon="5.551649420199676"><ele>228.0</ele><time>2026-03-28T10:54:15Z</time></trkpt><trkpt lat="46.83482701910718" lon="5.5514150313435575"><ele>227.0</ele><time>2026-03-28T10:54:16Z</time></trkpt><trkpt lat="46.834606974278664" lon="5.5511799698065865"><ele>226.0</ele><time>2026-03-28T10:54:17Z</time></trkpt><trkpt lat="46.83438653762569" lon="5.550945461878693"><ele>226.0</ele><time>2026-03-28T10:54:18Z</time></trkpt><trkpt lat="46.834163681984734" lon="5.550713956651494"><ele>226.0</ele><time>2026-03-28T10:54:19Z</time></trkpt><trkpt lat="46.8339399958567" lon="5.550485939030655"><ele>226.5</ele><time>2026-03-28T10:54:20Z</time></trkpt><trkpt lat="46.83371564946578" lon="5.550261213162523"><ele>227.0</ele><time>2026-03-28T10:54:21Z</time></trkpt><trkpt lat="46.83349223330841" lon="5.55004069468053"><ele>225.5</ele><time>2026-03-28T10:54:22Z</time></trkpt><trkpt lat="46.83326805256788" lon="5.549823963247613"><ele>224.0</ele><time>2026-03-28T10:54:23Z</time></trkpt><trkpt lat="46.833043927904555" lon="5.549603559128121"><ele>223.5</ele><time>2026-03-28T10:54:24Z</time></trkpt><trkpt lat="46.83281697969615" lon="5.549389204251945"><ele>223.0</ele><time>2026-03-28T10:54:25Z</time></trkpt><trkpt lat="46.83259131067329" lon="5.549171186439184"><ele>223.0</ele><time>2026-03-28T10:54:26Z</time></trkpt><trkpt lat="46.83236123383227" lon="5.54896149610757"><ele>223.0</ele><time>2026-03-28T10:54:27Z</time></trkpt><trkpt lat="46.83213186323437" lon="5.5487514699931095"><ele>222.5</ele><time>2026-03-28T10:54:28Z</time></trkpt><trkpt lat="46.83190250062953" lon="5.548542987936026"><ele>222.0</ele><time>2026-03-28T10:54:29Z</time></trkpt><trkpt lat="46.83167372729341" lon="5.548333547782423"><ele>222.0</ele><time>2026-03-28T10:54:30Z</time></trkpt><trkpt lat="46.83144147072645" lon="5.5481308248462256"><ele>222.0</ele><time>2026-03-28T10:54:31Z</time></trkpt><trkpt lat="46.83121127779871" lon="5.547937156597342"><ele>222.5</ele><time>2026-03-28T10:54:32Z</time></trkpt><trkpt lat="46.83097931997193" lon="5.547740380194529"><ele>223.0</ele><time>2026-03-28T10:54:33Z</time></trkpt><trkpt lat="46.83074404987605" lon="5.547544344808025"><ele>221.0</ele><time>2026-03-28T10:54:34Z</time></trkpt><trkpt lat="46.83050627875446" lon="5.547350938326204"><ele>219.0</ele><time>2026-03-28T10:54:35Z</time></trkpt><trkpt lat="46.83027236692541" lon="5.5471618221273165"><ele>217.0</ele><time>2026-03-28T10:54:36Z</time></trkpt><trkpt lat="46.830036224536286" lon="5.54697243618571"><ele>215.0</ele><time>2026-03-28T10:54:37Z</time></trkpt><trkpt lat="46.82980064376696" lon="5.546789145215164"><ele>215.0</ele><time>2026-03-28T10:54:38Z</time></trkpt><trkpt lat="46.82956276090259" lon="5.546603218112106"><ele>215.0</ele><time>2026-03-28T10:54:39Z</time></trkpt><trkpt lat="46.829321169570306" lon="5.546417850924155"><ele>214.5</ele><time>2026-03-28T10:54:40Z</time></trkpt><trkpt lat="46.82907848255921" lon="5.546236781181922"><ele>214.0</ele><time>2026-03-28T10:54:41Z</time></trkpt><trkpt lat="46.82883729811221" lon="5.546063210071934"><ele>213.5</ele><time>2026-03-28T10:54:42Z</time></trkpt><trkpt lat="46.828595031297446" lon="5.545892573970997"><ele>213.0</ele><time>2026-03-28T10:54:43Z</time></trkpt><trkpt lat="46.82835016203929" lon="5.54572314218313"><ele>212.5</ele><time>2026-03-28T10:54:44Z</time></trkpt><trkpt lat="46.82810571475308" lon="5.545553525488819"><ele>212.0</ele><time>2026-03-28T10:54:45Z</time></trkpt><trkpt lat="46.82786315171329" lon="5.545387613566937"><ele>211.5</ele><time>2026-03-28T10:54:46Z</time></trkpt><trkpt lat="46.827618009244766" lon="5.545219737385143"><ele>211.0</ele><time>2026-03-28T10:54:47Z</time></trkpt><trkpt lat="46.82737380980206" lon="5.545058401103495"><ele>211.0</ele><time>2026-03-28T10:54:48Z</time></trkpt><trkpt lat="46.82712747442128" lon="5.544898939255241"><ele>211.0</ele><time>2026-03-28T10:54:49Z</time></trkpt><trkpt lat="46.82688163708237" lon="5.544734387902576"><ele>210.5</ele><time>2026-03-28T10:54:50Z</time></trkpt><trkpt lat="46.826636068356905" lon="5.544579155361664"><ele>210.0</ele><time>2026-03-28T10:54:51Z</time></trkpt><trkpt lat="46.82638675582561" lon="5.544430160445004"><ele>210.0</ele><time>2026-03-28T10:54:52Z</time></trkpt><trkpt lat="46.826137634896796" lon="5.544282020090919"><ele>210.0</ele><time>2026-03-28T10:54:53Z</time></trkpt><trkpt lat="46.82588883760834" lon="5.544131649678987"><ele>211.0</ele><time>2026-03-28T10:54:54Z</time></trkpt><trkpt lat="46.825640055060525" lon="5.543979592654795"><ele>212.0</ele><time>2026-03-28T10:54:55Z</time></trkpt><trkpt lat="46.825390160923114" lon="5.543826451536623"><ele>212.0</ele><time>2026-03-28T10:54:56Z</time></trkpt><trkpt lat="46.82514204383048" lon="5.543670437534926"><ele>212.0</ele><time>2026-03-28T10:54:57Z</time></trkpt><trkpt lat="46.82489416929224" lon="5.543515508960611"><ele>212.0</ele><time>2026-03-28T10:54:58Z</time></trkpt><trkpt lat="46.824645687188514" lon="5.5433601169849185"><ele>212.0</ele><time>2026-03-28T10:54:59Z</time></trkpt><trkpt lat="46.82439974647812" lon="5.54320565103478"><ele>213.5</ele><time>2026-03-28T10:55:00Z</time></trkpt><trkpt lat="46.82415374067154" lon="5.543037844530833"><ele>215.0</ele><time>2026-03-28T10:55:01Z</time></trkpt><trkpt lat="46.82390844708983" lon="5.542869313660319"><ele>215.5</ele><time>2026-03-28T10:55:02Z</time></trkpt><trkpt lat="46.82366624685708" lon="5.542694449527337"><ele>216.0</ele><time>2026-03-28T10:55:03Z</time></trkpt><trkpt lat="46.82342503905344" lon="5.542521773503929"><ele>216.0</ele><time>2026-03-28T10:55:04Z</time></trkpt><trkpt lat="46.82318844482977" lon="5.542343655479869"><ele>216.0</ele><time>2026-03-28T10:55:05Z</time></trkpt><trkpt lat="46.82294966503444" lon="5.542163402046786"><ele>216.0</ele><time>2026-03-28T10:55:06Z</time></trkpt><trkpt lat="46.82271226666842" lon="5.541979208809002"><ele>216.0</ele><time>2026-03-28T10:55:07Z</time></trkpt><trkpt lat="46.82248120346181" lon="5.5417906526144325"><ele>216.0</ele><time>2026-03-28T10:55:08Z</time></trkpt><trkpt lat="46.8222467274398" lon="5.541602314362821"><ele>216.0</ele><time>2026-03-28T10:55:09Z</time></trkpt><trkpt lat="46.82201209726474" lon="5.54141053037989"><ele>214.5</ele><time>2026-03-28T10:55:10Z</time></trkpt><trkpt lat="46.82177674904973" lon="5.5412151054858985"><ele>213.0</ele><time>2026-03-28T10:55:11Z</time></trkpt><trkpt lat="46.82154750847358" lon="5.541021618133119"><ele>213.0</ele><time>2026-03-28T10:55:12Z</time></trkpt><trkpt lat="46.82131536695686" lon="5.540827722431157"><ele>213.0</ele><time>2026-03-28T10:55:13Z</time></trkpt><trkpt lat="46.82108312525903" lon="5.54062309817884"><ele>213.5</ele><time>2026-03-28T10:55:14Z</time></trkpt><trkpt lat="46.82085289364234" lon="5.540420979846538"><ele>214.0</ele><time>2026-03-28T10:55:15Z</time></trkpt><trkpt lat="46.82062244165743" lon="5.540219183296991"><ele>212.5</ele><time>2026-03-28T10:55:16Z</time></trkpt><trkpt lat="46.820392517727484" lon="5.540019058996585"><ele>211.0</ele><time>2026-03-28T10:55:17Z</time></trkpt><trkpt lat="46.82016397358783" lon="5.539816435811898"><ele>211.5</ele><time>2026-03-28T10:55:18Z</time></trkpt><trkpt lat="46.819935913672765" lon="5.539617129385606"><ele>212.0</ele><time>2026-03-28T10:55:19Z</time></trkpt><trkpt lat="46.81970857875594" lon="5.539417342034936"><ele>212.0</ele><time>2026-03-28T10:55:20Z</time></trkpt><trkpt lat="46.81947755762104" lon="5.539223623494111"><ele>212.0</ele><time>2026-03-28T10:55:21Z</time></trkpt><trkpt lat="46.81924387915354" lon="5.539028604910969"><ele>212.0</ele><time>2026-03-28T10:55:22Z</time></trkpt><trkpt lat="46.819010111192114" lon="5.538830941482619"><ele>212.0</ele><time>2026-03-28T10:55:23Z</time></trkpt><trkpt lat="46.81877760981965" lon="5.538643533255888"><ele>212.0</ele><time>2026-03-28T10:55:24Z</time></trkpt><trkpt lat="46.81854058552705" lon="5.538452259872223"><ele>212.0</ele><time>2026-03-28T10:55:25Z</time></trkpt><trkpt lat="46.818303560673286" lon="5.538268388521125"><ele>212.0</ele><time>2026-03-28T10:55:26Z</time></trkpt><trkpt lat="46.81806257060918" lon="5.538084693891104"><ele>212.0</ele><time>2026-03-28T10:55:27Z</time></trkpt><trkpt lat="46.81782480312277" lon="5.537904214753727"><ele>212.0</ele><time>2026-03-28T10:55:28Z</time></trkpt><trkpt lat="46.817583484515936" lon="5.537727288229992"><ele>212.0</ele><time>2026-03-28T10:55:29Z</time></trkpt><trkpt lat="46.8173420427023" lon="5.537554742794051"><ele>212.0</ele><time>2026-03-28T10:55:30Z</time></trkpt><trkpt lat="46.81710204268672" lon="5.537378320813892"><ele>212.0</ele><time>2026-03-28T10:55:31Z</time></trkpt><trkpt lat="46.816859847471065" lon="5.537212550397285"><ele>212.5</ele><time>2026-03-28T10:55:32Z</time></trkpt><trkpt lat="46.81661496897714" lon="5.537051786843574"><ele>213.0</ele><time>2026-03-28T10:55:33Z</time></trkpt><trkpt lat="46.816369057861195" lon="5.536884469705276"><ele>213.0</ele><time>2026-03-28T10:55:34Z</time></trkpt><trkpt lat="46.81612439345558" lon="5.536731948201852"><ele>213.0</ele><time>2026-03-28T10:55:35Z</time></trkpt><trkpt lat="46.81587985955202" lon="5.536577171075476"><ele>214.0</ele><time>2026-03-28T10:55:36Z</time></trkpt><trkpt lat="46.81562860159859" lon="5.536424502758746"><ele>215.0</ele><time>2026-03-28T10:55:37Z</time></trkpt><trkpt lat="46.815379110797046" lon="5.536275883027893"><ele>214.5</ele><time>2026-03-28T10:55:38Z</time></trkpt><trkpt lat="46.81512849688561" lon="5.536130626323922"><ele>214.0</ele><time>2026-03-28T10:55:39Z</time></trkpt><trkpt lat="46.814874470256285" lon="5.535991418432707"><ele>214.0</ele><time>2026-03-28T10:55:40Z</time></trkpt><trkpt lat="46.814620810514064" lon="5.53585378284164"><ele>214.0</ele><time>2026-03-28T10:55:41Z</time></trkpt><trkpt lat="46.814366857130636" lon="5.53572059933582"><ele>216.0</ele><time>2026-03-28T10:55:42Z</time></trkpt><trkpt lat="46.814111581650124" lon="5.535588584522419"><ele>218.0</ele><time>2026-03-28T10:55:43Z</time></trkpt><trkpt lat="46.81385796149086" lon="5.535464344221182"><ele>216.5</ele><time>2026-03-28T10:55:44Z</time></trkpt><trkpt lat="46.813599037689" lon="5.535339899886089"><ele>215.0</ele><time>2026-03-28T10:55:45Z</time></trkpt><trkpt lat="46.81334116078114" lon="5.535225999426037"><ele>215.0</ele><time>2026-03-28T10:55:46Z</time></trkpt><trkpt lat="46.813081374448515" lon="5.535116353377494"><ele>215.0</ele><time>2026-03-28T10:55:47Z</time></trkpt><trkpt lat="46.81282058803628" lon="5.535014795380396"><ele>217.0</ele><time>2026-03-28T10:55:48Z</time></trkpt><trkpt lat="46.81255952071643" lon="5.534919118691801"><ele>219.0</ele><time>2026-03-28T10:55:49Z</time></trkpt><trkpt lat="46.81229863583517" lon="5.534826793201422"><ele>219.0</ele><time>2026-03-28T10:55:50Z</time></trkpt><trkpt lat="46.81203699258072" lon="5.534731206293378"><ele>219.0</ele><time>2026-03-28T10:55:51Z</time></trkpt><trkpt lat="46.811773779468865" lon="5.53464934844562"><ele>217.0</ele><time>2026-03-28T10:55:52Z</time></trkpt><trkpt lat="46.81150443979213" lon="5.534531601593855"><ele>215.0</ele><time>2026-03-28T10:55:53Z</time></trkpt><trkpt lat="46.81124923330135" lon="5.534437065798566"><ele>214.5</ele><time>2026-03-28T10:55:54Z</time></trkpt><trkpt lat="46.810986563918526" lon="5.534347310029431"><ele>214.0</ele><time>2026-03-28T10:55:55Z</time></trkpt><trkpt lat="46.8107235459655" lon="5.534265020878835"><ele>214.0</ele><time>2026-03-28T10:55:56Z</time></trkpt><trkpt lat="46.81046381426244" lon="5.5341940893108506"><ele>214.0</ele><time>2026-03-28T10:55:57Z</time></trkpt><trkpt lat="46.81019982821557" lon="5.534117752589807"><ele>215.0</ele><time>2026-03-28T10:55:58Z</time></trkpt><trkpt lat="46.80993511402626" lon="5.534055149546764"><ele>216.0</ele><time>2026-03-28T10:55:59Z</time></trkpt><trkpt lat="46.80966992346318" lon="5.533989522597508"><ele>216.0</ele><time>2026-03-28T10:56:00Z</time></trkpt><trkpt lat="46.809407402924755" lon="5.533925245701805"><ele>216.0</ele><time>2026-03-28T10:56:01Z</time></trkpt><trkpt lat="46.809141280088674" lon="5.533862565963978"><ele>218.0</ele><time>2026-03-28T10:56:02Z</time></trkpt><trkpt lat="46.8088753167396" lon="5.533805722220752"><ele>220.0</ele><time>2026-03-28T10:56:03Z</time></trkpt><trkpt lat="46.80860938815097" lon="5.533750759201789"><ele>222.0</ele><time>2026-03-28T10:56:04Z</time></trkpt><trkpt lat="46.80834070629049" lon="5.533697504513224"><ele>224.0</ele><time>2026-03-28T10:56:05Z</time></trkpt><trkpt lat="46.80807521561906" lon="5.533641716430858"><ele>224.0</ele><time>2026-03-28T10:56:06Z</time></trkpt><trkpt lat="46.80780848310409" lon="5.533591255651534"><ele>224.0</ele><time>2026-03-28T10:56:07Z</time></trkpt><trkpt lat="46.80754349446712" lon="5.53354190446663"><ele>222.5</ele><time>2026-03-28T10:56:08Z</time></trkpt><trkpt lat="46.80727689037923" lon="5.533494166419527"><ele>221.0</ele><time>2026-03-28T10:56:09Z</time></trkpt><trkpt lat="46.80701211685873" lon="5.533442897657396"><ele>220.5</ele><time>2026-03-28T10:56:10Z</time></trkpt><trkpt lat="46.80674485395852" lon="5.533391156340122"><ele>220.0</ele><time>2026-03-28T10:56:11Z</time></trkpt><trkpt lat="46.80647733887639" lon="5.533338033458834"><ele>220.0</ele><time>2026-03-28T10:56:12Z</time></trkpt><trkpt lat="46.80620906740235" lon="5.533284867773508"><ele>220.0</ele><time>2026-03-28T10:56:13Z</time></trkpt><trkpt lat="46.80594247145408" lon="5.533233777286998"><ele>220.0</ele><time>2026-03-28T10:56:14Z</time></trkpt><trkpt lat="46.805675311584324" lon="5.533183781208233"><ele>220.0</ele><time>2026-03-28T10:56:15Z</time></trkpt><trkpt lat="46.80541020695142" lon="5.533135851641304"><ele>220.5</ele><time>2026-03-28T10:56:16Z</time></trkpt><trkpt lat="46.80514288277724" lon="5.533083441927449"><ele>221.0</ele><time>2026-03-28T10:56:17Z</time></trkpt><trkpt lat="46.80487580556351" lon="5.5330308024809"><ele>221.0</ele><time>2026-03-28T10:56:18Z</time></trkpt><trkpt lat="46.80460875528067" lon="5.532978812699203"><ele>221.0</ele><time>2026-03-28T10:56:19Z</time></trkpt><trkpt lat="46.80434257562341" lon="5.532927040930856"><ele>221.5</ele><time>2026-03-28T10:56:20Z</time></trkpt><trkpt lat="46.80407602734269" lon="5.532873491988694"><ele>222.0</ele><time>2026-03-28T10:56:21Z</time></trkpt><trkpt lat="46.80381105850577" lon="5.532819944707852"><ele>222.0</ele><time>2026-03-28T10:56:22Z</time></trkpt><trkpt lat="46.80355021988805" lon="5.532766285754076"><ele>222.0</ele><time>2026-03-28T10:56:23Z</time></trkpt><trkpt lat="46.80328286796836" lon="5.532709312433191"><ele>221.5</ele><time>2026-03-28T10:56:24Z</time></trkpt><trkpt lat="46.80301711457324" lon="5.5326532770723675"><ele>221.0</ele><time>2026-03-28T10:56:25Z</time></trkpt><trkpt lat="46.80274942610971" lon="5.532596309207718"><ele>220.5</ele><time>2026-03-28T10:56:26Z</time></trkpt><trkpt lat="46.802483844494674" lon="5.532533929504858"><ele>220.0</ele><time>2026-03-28T10:56:27Z</time></trkpt><trkpt lat="46.80221767693097" lon="5.532469827257921"><ele>220.0</ele><time>2026-03-28T10:56:28Z</time></trkpt><trkpt lat="46.80195295853174" lon="5.532403951436927"><ele>220.0</ele><time>2026-03-28T10:56:29Z</time></trkpt><trkpt lat="46.80168934327232" lon="5.532335597021476"><ele>219.0</ele><time>2026-03-28T10:56:30Z</time></trkpt><trkpt lat="46.8014245287608" lon="5.532259566674463"><ele>218.0</ele><time>2026-03-28T10:56:31Z</time></trkpt><trkpt lat="46.80116034335512" lon="5.532181940042277"><ele>218.0</ele><time>2026-03-28T10:56:32Z</time></trkpt><trkpt lat="46.80089714690322" lon="5.532103569251475"><ele>218.0</ele><time>2026-03-28T10:56:33Z</time></trkpt><trkpt lat="46.80063566152822" lon="5.53202040790269"><ele>218.5</ele><time>2026-03-28T10:56:34Z</time></trkpt><trkpt lat="46.80037398871216" lon="5.531932480743198"><ele>219.0</ele><time>2026-03-28T10:56:35Z</time></trkpt><trkpt lat="46.80011373583833" lon="5.53183937011054"><ele>220.0</ele><time>2026-03-28T10:56:36Z</time></trkpt><trkpt lat="46.79985375782684" lon="5.531743117165289"><ele>221.0</ele><time>2026-03-28T10:56:37Z</time></trkpt><trkpt lat="46.79959426846127" lon="5.531642700664248"><ele>221.5</ele><time>2026-03-28T10:56:38Z</time></trkpt><trkpt lat="46.799332998976354" lon="5.53154289110205"><ele>222.0</ele><time>2026-03-28T10:56:39Z</time></trkpt><trkpt lat="46.799072929257584" lon="5.531441656060872"><ele>222.0</ele><time>2026-03-28T10:56:40Z</time></trkpt><trkpt lat="46.79881340019187" lon="5.531339529548692"><ele>222.0</ele><time>2026-03-28T10:56:41Z</time></trkpt><trkpt lat="46.79855359265041" lon="5.531236121811625"><ele>222.0</ele><time>2026-03-28T10:56:42Z</time></trkpt><trkpt lat="46.79829316781482" lon="5.531122827197672"><ele>222.0</ele><time>2026-03-28T10:56:43Z</time></trkpt><trkpt lat="46.79803441695544" lon="5.531018775641509"><ele>222.0</ele><time>2026-03-28T10:56:44Z</time></trkpt><trkpt lat="46.79777638942854" lon="5.5309147062451265"><ele>222.0</ele><time>2026-03-28T10:56:45Z</time></trkpt><trkpt lat="46.79752124392939" lon="5.530806634516591"><ele>222.5</ele><time>2026-03-28T10:56:46Z</time></trkpt><trkpt lat="46.797264423314786" lon="5.530704437670946"><ele>223.0</ele><time>2026-03-28T10:56:47Z</time></trkpt><trkpt lat="46.79700606280196" lon="5.5306020633174295"><ele>223.5</ele><time>2026-03-28T10:56:48Z</time></trkpt><trkpt lat="46.79674881096045" lon="5.530501987206463"><ele>224.0</ele><time>2026-03-28T10:56:49Z</time></trkpt><trkpt lat="46.79649167830087" lon="5.530400542817688"><ele>226.5</ele><time>2026-03-28T10:56:50Z</time></trkpt><trkpt lat="46.796235088509604" lon="5.530292713231905"><ele>229.0</ele><time>2026-03-28T10:56:51Z</time></trkpt><trkpt lat="46.79597399483792" lon="5.530189557328592"><ele>229.0</ele><time>2026-03-28T10:56:52Z</time></trkpt><trkpt lat="46.79570549665517" lon="5.53008409609497"><ele>229.0</ele><time>2026-03-28T10:56:53Z</time></trkpt><trkpt lat="46.795446792519996" lon="5.529989763672192"><ele>229.0</ele><time>2026-03-28T10:56:54Z</time></trkpt><trkpt lat="46.79518115680465" lon="5.529893871970752"><ele>229.0</ele><time>2026-03-28T10:56:55Z</time></trkpt><trkpt lat="46.79492007844415" lon="5.529808395108673"><ele>229.5</ele><time>2026-03-28T10:56:56Z</time></trkpt><trkpt lat="46.79465764644143" lon="5.529725842037111"><ele>230.0</ele><time>2026-03-28T10:56:57Z</time></trkpt><trkpt lat="46.79439480766166" lon="5.529647639849384"><ele>230.5</ele><time>2026-03-28T10:56:58Z</time></trkpt><trkpt lat="46.79412971973907" lon="5.529564865207207"><ele>231.0</ele><time>2026-03-28T10:56:59Z</time></trkpt><trkpt lat="46.79386303868461" lon="5.529491289743564"><ele>233.0</ele><time>2026-03-28T10:57:00Z</time></trkpt><trkpt lat="46.79359611935094" lon="5.529423663915528"><ele>235.0</ele><time>2026-03-28T10:57:01Z</time></trkpt><trkpt lat="46.793328446699746" lon="5.529359886415783"><ele>235.5</ele><time>2026-03-28T10:57:02Z</time></trkpt><trkpt lat="46.79306385308009" lon="5.529293998965319"><ele>236.0</ele><time>2026-03-28T10:57:03Z</time></trkpt><trkpt lat="46.792796866903835" lon="5.529235211858065"><ele>237.0</ele><time>2026-03-28T10:57:04Z</time></trkpt><trkpt lat="46.79253087103273" lon="5.529186495510232"><ele>238.0</ele><time>2026-03-28T10:57:05Z</time></trkpt><trkpt lat="46.79226258564455" lon="5.529134334556388"><ele>238.0</ele><time>2026-03-28T10:57:06Z</time></trkpt><trkpt lat="46.79199250001347" lon="5.529083348558031"><ele>238.0</ele><time>2026-03-28T10:57:07Z</time></trkpt><trkpt lat="46.791721391967" lon="5.529035635206271"><ele>238.0</ele><time>2026-03-28T10:57:08Z</time></trkpt><trkpt lat="46.79145123551479" lon="5.528990483404045"><ele>238.0</ele><time>2026-03-28T10:57:09Z</time></trkpt><trkpt lat="46.79117936013456" lon="5.5289484360045416"><ele>241.0</ele><time>2026-03-28T10:57:10Z</time></trkpt><trkpt lat="46.79090527578119" lon="5.5289074764058155"><ele>244.0</ele><time>2026-03-28T10:57:11Z</time></trkpt><trkpt lat="46.79063025987581" lon="5.528873532914096"><ele>244.0</ele><time>2026-03-28T10:57:12Z</time></trkpt><trkpt lat="46.79035711439879" lon="5.5288362175368215"><ele>244.0</ele><time>2026-03-28T10:57:13Z</time></trkpt><trkpt lat="46.79008253493052" lon="5.528796898320954"><ele>244.5</ele><time>2026-03-28T10:57:14Z</time></trkpt><trkpt lat="46.78980757915668" lon="5.528760267440472"><ele>245.0</ele><time>2026-03-28T10:57:15Z</time></trkpt><trkpt lat="46.78953173764794" lon="5.528721092670952"><ele>243.5</ele><time>2026-03-28T10:57:16Z</time></trkpt><trkpt lat="46.789256304783" lon="5.528684203518941"><ele>242.0</ele><time>2026-03-28T10:57:17Z</time></trkpt><trkpt lat="46.788981074720006" lon="5.528642982901196"><ele>242.0</ele><time>2026-03-28T10:57:18Z</time></trkpt><trkpt lat="46.788706092517046" lon="5.528602955131706"><ele>242.0</ele><time>2026-03-28T10:57:19Z</time></trkpt><trkpt lat="46.788432950320846" lon="5.528561179752927"><ele>240.0</ele><time>2026-03-28T10:57:20Z</time></trkpt><trkpt lat="46.78816113811421" lon="5.528515335848915"><ele>238.0</ele><time>2026-03-28T10:57:21Z</time></trkpt><trkpt lat="46.78788813403923" lon="5.5284636622423"><ele>238.0</ele><time>2026-03-28T10:57:22Z</time></trkpt><trkpt lat="46.787614912552435" lon="5.528410782426973"><ele>238.0</ele><time>2026-03-28T10:57:23Z</time></trkpt><trkpt lat="46.78734067772344" lon="5.528350424350823"><ele>238.0</ele><time>2026-03-28T10:57:24Z</time></trkpt><trkpt lat="46.78706749908922" lon="5.528282380944515"><ele>238.0</ele><time>2026-03-28T10:57:25Z</time></trkpt><trkpt lat="46.7867962276401" lon="5.528208595750964"><ele>241.0</ele><time>2026-03-28T10:57:26Z</time></trkpt><trkpt lat="46.786527853813915" lon="5.528130074656852"><ele>244.0</ele><time>2026-03-28T10:57:27Z</time></trkpt><trkpt lat="46.78625634593512" lon="5.528045347727805"><ele>245.5</ele><time>2026-03-28T10:57:28Z</time></trkpt><trkpt lat="46.7859846140999" lon="5.527950691021812"><ele>247.0</ele><time>2026-03-28T10:57:29Z</time></trkpt><trkpt lat="46.785715864397915" lon="5.527857033264555"><ele>249.5</ele><time>2026-03-28T10:57:30Z</time></trkpt><trkpt lat="46.78544735781282" lon="5.5277588055561475"><ele>252.0</ele><time>2026-03-28T10:57:31Z</time></trkpt><trkpt lat="46.78517847893251" lon="5.527652129755831"><ele>252.5</ele><time>2026-03-28T10:57:32Z</time></trkpt><trkpt lat="46.78491328699457" lon="5.527545259164367"><ele>253.0</ele><time>2026-03-28T10:57:33Z</time></trkpt><trkpt lat="46.784649726266615" lon="5.527434078990818"><ele>253.0</ele><time>2026-03-28T10:57:34Z</time></trkpt><trkpt lat="46.784386058250654" lon="5.527316082868386"><ele>253.0</ele><time>2026-03-28T10:57:35Z</time></trkpt><trkpt lat="46.78412509283722" lon="5.5271910943479545"><ele>252.0</ele><time>2026-03-28T10:57:36Z</time></trkpt><trkpt lat="46.78386276229514" lon="5.527060386814696"><ele>251.0</ele><time>2026-03-28T10:57:37Z</time></trkpt><trkpt lat="46.78360575113452" lon="5.526929760726423"><ele>248.5</ele><time>2026-03-28T10:57:38Z</time></trkpt><trkpt lat="46.78334453140577" lon="5.5267883748561815"><ele>246.0</ele><time>2026-03-28T10:57:39Z</time></trkpt><trkpt lat="46.78308648101921" lon="5.526643624001619"><ele>246.0</ele><time>2026-03-28T10:57:40Z</time></trkpt><trkpt lat="46.78282812636114" lon="5.526495408523926"><ele>246.0</ele><time>2026-03-28T10:57:41Z</time></trkpt><trkpt lat="46.78257077180369" lon="5.526338414708486"><ele>250.5</ele><time>2026-03-28T10:57:42Z</time></trkpt><trkpt lat="46.782318088762075" lon="5.526179123317592"><ele>255.0</ele><time>2026-03-28T10:57:43Z</time></trkpt><trkpt lat="46.78206230054175" lon="5.526013763167062"><ele>257.5</ele><time>2026-03-28T10:57:44Z</time></trkpt><trkpt lat="46.78181185353865" lon="5.525846965152678"><ele>260.0</ele><time>2026-03-28T10:57:45Z</time></trkpt><trkpt lat="46.78155738635376" lon="5.525672088772007"><ele>260.0</ele><time>2026-03-28T10:57:46Z</time></trkpt><trkpt lat="46.781310734733985" lon="5.525494910371867"><ele>260.0</ele><time>2026-03-28T10:57:47Z</time></trkpt><trkpt lat="46.78106266829747" lon="5.525311318236233"><ele>259.0</ele><time>2026-03-28T10:57:48Z</time></trkpt><trkpt lat="46.780820106659974" lon="5.525127861591924"><ele>258.0</ele><time>2026-03-28T10:57:49Z</time></trkpt><trkpt lat="46.780576497044976" lon="5.5249377820728"><ele>258.0</ele><time>2026-03-28T10:57:50Z</time></trkpt><trkpt lat="46.7803360617071" lon="5.524743531228999"><ele>258.0</ele><time>2026-03-28T10:57:51Z</time></trkpt><trkpt lat="46.780094465227926" lon="5.524543769986056"><ele>254.0</ele><time>2026-03-28T10:57:52Z</time></trkpt><trkpt lat="46.77985633140895" lon="5.524339279714282"><ele>250.0</ele><time>2026-03-28T10:57:53Z</time></trkpt><trkpt lat="46.779616393788096" lon="5.524129261662548"><ele>250.0</ele><time>2026-03-28T10:57:54Z</time></trkpt><trkpt lat="46.77938117686824" lon="5.523915960864493"><ele>250.0</ele><time>2026-03-28T10:57:55Z</time></trkpt><trkpt lat="46.779147085057794" lon="5.523697348644885"><ele>247.0</ele><time>2026-03-28T10:57:56Z</time></trkpt><trkpt lat="46.778914975740335" lon="5.523474141456215"><ele>244.0</ele><time>2026-03-28T10:57:57Z</time></trkpt><trkpt lat="46.77868264683627" lon="5.523245623658455"><ele>246.0</ele><time>2026-03-28T10:57:58Z</time></trkpt><trkpt lat="46.778452443438965" lon="5.523014992049693"><ele>248.0</ele><time>2026-03-28T10:57:59Z</time></trkpt><trkpt lat="46.77822616111889" lon="5.522778994252203"><ele>249.0</ele><time>2026-03-28T10:58:00Z</time></trkpt><trkpt lat="46.77800579944664" lon="5.5225357494214595"><ele>250.0</ele><time>2026-03-28T10:58:01Z</time></trkpt><trkpt lat="46.77778435597821" lon="5.522292614417057"><ele>249.5</ele><time>2026-03-28T10:58:02Z</time></trkpt><trkpt lat="46.77756316594607" lon="5.522045088591787"><ele>249.0</ele><time>2026-03-28T10:58:03Z</time></trkpt><trkpt lat="46.777342500651976" lon="5.52179693058705"><ele>249.0</ele><time>2026-03-28T10:58:04Z</time></trkpt><trkpt lat="46.77712480438958" lon="5.521551427667314"><ele>249.0</ele><time>2026-03-28T10:58:05Z</time></trkpt><trkpt lat="46.77744764112693" lon="5.520899508642446"><ele>248.5</ele><time>2026-03-28T10:58:06Z</time></trkpt><trkpt lat="46.77729437645422" lon="5.520607987751591"><ele>248.0</ele><time>2026-03-28T10:58:07Z</time></trkpt><trkpt lat="46.77647826288812" lon="5.520806379034544"><ele>248.0</ele><time>2026-03-28T10:58:08Z</time></trkpt><trkpt lat="46.77626013416947" lon="5.5205533075653745"><ele>248.0</ele><time>2026-03-28T10:58:09Z</time></trkpt><trkpt lat="46.776045980134576" lon="5.520301442463915"><ele>246.5</ele><time>2026-03-28T10:58:10Z</time></trkpt><trkpt lat="46.77582681139283" lon="5.52004392989781"><ele>245.0</ele><time>2026-03-28T10:58:11Z</time></trkpt><trkpt lat="46.77561051329242" lon="5.519791178249929"><ele>243.0</ele><time>2026-03-28T10:58:12Z</time></trkpt><trkpt lat="46.77539163237131" lon="5.51954193728217"><ele>241.0</ele><time>2026-03-28T10:58:13Z</time></trkpt><trkpt lat="46.77517404421226" lon="5.519287897997386"><ele>241.0</ele><time>2026-03-28T10:58:14Z</time></trkpt><trkpt lat="46.77495603326035" lon="5.51903823951457"><ele>241.0</ele><time>2026-03-28T10:58:15Z</time></trkpt><trkpt lat="46.774735595085104" lon="5.518785498282026"><ele>239.5</ele><time>2026-03-28T10:58:16Z</time></trkpt><trkpt lat="46.77451616622761" lon="5.518538401325212"><ele>238.0</ele><time>2026-03-28T10:58:17Z</time></trkpt><trkpt lat="46.77429753494538" lon="5.518294103500693"><ele>238.0</ele><time>2026-03-28T10:58:18Z</time></trkpt><trkpt lat="46.774076527291385" lon="5.518051339466752"><ele>238.0</ele><time>2026-03-28T10:58:19Z</time></trkpt><trkpt lat="46.7738577310055" lon="5.517812584000267"><ele>239.0</ele><time>2026-03-28T10:58:20Z</time></trkpt><trkpt lat="46.77363528885138" lon="5.517576651042325"><ele>240.0</ele><time>2026-03-28T10:58:21Z</time></trkpt><trkpt lat="46.77340938235237" lon="5.51734723937704"><ele>237.0</ele><time>2026-03-28T10:58:22Z</time></trkpt><trkpt lat="46.773182431094284" lon="5.517116978894372"><ele>234.0</ele><time>2026-03-28T10:58:23Z</time></trkpt><trkpt lat="46.77295477557117" lon="5.516892246858708"><ele>232.5</ele><time>2026-03-28T10:58:24Z</time></trkpt><trkpt lat="46.77272749571125" lon="5.516668388526267"><ele>231.0</ele><time>2026-03-28T10:58:25Z</time></trkpt><trkpt lat="46.772499444340156" lon="5.516450014012841"><ele>228.0</ele><time>2026-03-28T10:58:26Z</time></trkpt><trkpt lat="46.77226750736607" lon="5.516230755873701"><ele>225.0</ele><time>2026-03-28T10:58:27Z</time></trkpt><trkpt lat="46.7720386669615" lon="5.516015846691117"><ele>224.0</ele><time>2026-03-28T10:58:28Z</time></trkpt><trkpt lat="46.77180564080646" lon="5.515804368629087"><ele>223.0</ele><time>2026-03-28T10:58:29Z</time></trkpt><trkpt lat="46.77157116128368" lon="5.515591031528572"><ele>221.0</ele><time>2026-03-28T10:58:30Z</time></trkpt><trkpt lat="46.7713362467351" lon="5.5153899259208075"><ele>219.0</ele><time>2026-03-28T10:58:31Z</time></trkpt><trkpt lat="46.7711001565313" lon="5.515189599631973"><ele>219.5</ele><time>2026-03-28T10:58:32Z</time></trkpt><trkpt lat="46.77086115002707" lon="5.514991901371009"><ele>220.0</ele><time>2026-03-28T10:58:33Z</time></trkpt><trkpt lat="46.7706212554647" lon="5.514796905939545"><ele>220.0</ele><time>2026-03-28T10:58:34Z</time></trkpt><trkpt lat="46.770382854464735" lon="5.514609455546709"><ele>220.0</ele><time>2026-03-28T10:58:35Z</time></trkpt><trkpt lat="46.77014355326818" lon="5.514421573545077"><ele>218.5</ele><time>2026-03-28T10:58:36Z</time></trkpt><trkpt lat="46.769906365886186" lon="5.514236254867394"><ele>217.0</ele><time>2026-03-28T10:58:37Z</time></trkpt><trkpt lat="46.769667145909466" lon="5.514051117796914"><ele>217.0</ele><time>2026-03-28T10:58:38Z</time></trkpt><trkpt lat="46.76942882486909" lon="5.513862147785616"><ele>217.0</ele><time>2026-03-28T10:58:39Z</time></trkpt><trkpt lat="46.769190308035625" lon="5.513678461668312"><ele>215.5</ele><time>2026-03-28T10:58:40Z</time></trkpt><trkpt lat="46.76895053272068" lon="5.513497544506438"><ele>214.0</ele><time>2026-03-28T10:58:41Z</time></trkpt><trkpt lat="46.76870901684425" lon="5.513319545547249"><ele>214.5</ele><time>2026-03-28T10:58:42Z</time></trkpt><trkpt lat="46.76846789064665" lon="5.513147409494529"><ele>215.0</ele><time>2026-03-28T10:58:43Z</time></trkpt><trkpt lat="46.76822403018903" lon="5.51297457173532"><ele>214.0</ele><time>2026-03-28T10:58:44Z</time></trkpt><trkpt lat="46.76798074054499" lon="5.512812923006843"><ele>213.0</ele><time>2026-03-28T10:58:45Z</time></trkpt><trkpt lat="46.76773415318153" lon="5.512652833264596"><ele>213.0</ele><time>2026-03-28T10:58:46Z</time></trkpt><trkpt lat="46.76749132163261" lon="5.512495455939794"><ele>213.0</ele><time>2026-03-28T10:58:47Z</time></trkpt><trkpt lat="46.767247365671466" lon="5.512343973248356"><ele>213.0</ele><time>2026-03-28T10:58:48Z</time></trkpt><trkpt lat="46.76699948389667" lon="5.512193186003712"><ele>213.0</ele><time>2026-03-28T10:58:49Z</time></trkpt><trkpt lat="46.76675437610959" lon="5.512047906382828"><ele>213.0</ele><time>2026-03-28T10:58:50Z</time></trkpt><trkpt lat="46.766507545278316" lon="5.51190713181022"><ele>213.0</ele><time>2026-03-28T10:58:51Z</time></trkpt><trkpt lat="46.766258687531234" lon="5.511767028164673"><ele>212.5</ele><time>2026-03-28T10:58:52Z</time></trkpt><trkpt lat="46.76600996426217" lon="5.511630033819639"><ele>212.0</ele><time>2026-03-28T10:58:53Z</time></trkpt><trkpt lat="46.76575826877854" lon="5.511500679659914"><ele>212.0</ele><time>2026-03-28T10:58:54Z</time></trkpt><trkpt lat="46.7655054244185" lon="5.511372820867967"><ele>212.0</ele><time>2026-03-28T10:58:55Z</time></trkpt><trkpt lat="46.765249663131456" lon="5.511247601414038"><ele>212.0</ele><time>2026-03-28T10:58:56Z</time></trkpt><trkpt lat="46.764996881620064" lon="5.511122945264512"><ele>212.0</ele><time>2026-03-28T10:58:57Z</time></trkpt><trkpt lat="46.764744031030176" lon="5.511003852381484"><ele>212.0</ele><time>2026-03-28T10:58:58Z</time></trkpt><trkpt lat="46.764489188406465" lon="5.510888543992873"><ele>212.0</ele><time>2026-03-28T10:58:59Z</time></trkpt><trkpt lat="46.76423122980178" lon="5.510778011157472"><ele>213.5</ele><time>2026-03-28T10:59:00Z</time></trkpt><trkpt lat="46.76397377250196" lon="5.510677261061756"><ele>215.0</ele><time>2026-03-28T10:59:01Z</time></trkpt><trkpt lat="46.76371220645924" lon="5.510579294886654"><ele>214.5</ele><time>2026-03-28T10:59:02Z</time></trkpt><trkpt lat="46.76345108149029" lon="5.510485259505334"><ele>214.0</ele><time>2026-03-28T10:59:03Z</time></trkpt><trkpt lat="46.76319395326267" lon="5.510398050390261"><ele>213.5</ele><time>2026-03-28T10:59:04Z</time></trkpt><trkpt lat="46.76293424526331" lon="5.51030655898349"><ele>213.0</ele><time>2026-03-28T10:59:05Z</time></trkpt><trkpt lat="46.76267288633787" lon="5.510223158520583"><ele>213.0</ele><time>2026-03-28T10:59:06Z</time></trkpt><trkpt lat="46.76240825920948" lon="5.510138664730582"><ele>213.0</ele><time>2026-03-28T10:59:07Z</time></trkpt><trkpt lat="46.76214248710237" lon="5.5100570282759485"><ele>213.0</ele><time>2026-03-28T10:59:08Z</time></trkpt><trkpt lat="46.76187810548166" lon="5.509977995791669"><ele>213.0</ele><time>2026-03-28T10:59:09Z</time></trkpt><trkpt lat="46.761612694846875" lon="5.509898422622349"><ele>213.0</ele><time>2026-03-28T10:59:10Z</time></trkpt><trkpt lat="46.76134685403175" lon="5.509821442128159"><ele>213.0</ele><time>2026-03-28T10:59:11Z</time></trkpt><trkpt lat="46.76108459315132" lon="5.509748128900627"><ele>214.0</ele><time>2026-03-28T10:59:12Z</time></trkpt><trkpt lat="46.76081690516676" lon="5.509680440400218"><ele>215.0</ele><time>2026-03-28T10:59:13Z</time></trkpt><trkpt lat="46.76054977622383" lon="5.509618318085017"><ele>214.0</ele><time>2026-03-28T10:59:14Z</time></trkpt><trkpt lat="46.76028058426076" lon="5.509559059549705"><ele>213.0</ele><time>2026-03-28T10:59:15Z</time></trkpt><trkpt lat="46.76001222839125" lon="5.5095032447800625"><ele>213.0</ele><time>2026-03-28T10:59:16Z</time></trkpt><trkpt lat="46.759744061267796" lon="5.509448004154012"><ele>213.0</ele><time>2026-03-28T10:59:17Z</time></trkpt><trkpt lat="46.75947374179298" lon="5.509396670355823"><ele>214.5</ele><time>2026-03-28T10:59:18Z</time></trkpt><trkpt lat="46.75920327455892" lon="5.50934355292954"><ele>216.0</ele><time>2026-03-28T10:59:19Z</time></trkpt><trkpt lat="46.75893648456208" lon="5.509291334705683"><ele>216.0</ele><time>2026-03-28T10:59:20Z</time></trkpt><trkpt lat="46.75866692261408" lon="5.5092372226339545"><ele>216.0</ele><time>2026-03-28T10:59:21Z</time></trkpt><trkpt lat="46.75840056871497" lon="5.5091854078998095"><ele>216.0</ele><time>2026-03-28T10:59:22Z</time></trkpt><trkpt lat="46.75812826335132" lon="5.509144204451503"><ele>216.0</ele><time>2026-03-28T10:59:23Z</time></trkpt><trkpt lat="46.757854770584224" lon="5.509110099143863"><ele>214.0</ele><time>2026-03-28T10:59:24Z</time></trkpt><trkpt lat="46.75758326582396" lon="5.509081345160845"><ele>212.0</ele><time>2026-03-28T10:59:25Z</time></trkpt><trkpt lat="46.75731152288771" lon="5.50905367058655"><ele>212.0</ele><time>2026-03-28T10:59:26Z</time></trkpt><trkpt lat="46.75703871848772" lon="5.509033855999546"><ele>212.0</ele><time>2026-03-28T10:59:27Z</time></trkpt><trkpt lat="46.75676451229322" lon="5.509017591986553"><ele>213.0</ele><time>2026-03-28T10:59:28Z</time></trkpt><trkpt lat="46.75649015749479" lon="5.509006456753266"><ele>214.0</ele><time>2026-03-28T10:59:29Z</time></trkpt><trkpt lat="46.75621826856692" lon="5.508997046748059"><ele>214.0</ele><time>2026-03-28T10:59:30Z</time></trkpt><trkpt lat="46.75594446178909" lon="5.508988687787164"><ele>214.0</ele><time>2026-03-28T10:59:31Z</time></trkpt><trkpt lat="46.75567127342157" lon="5.508983170250294"><ele>214.0</ele><time>2026-03-28T10:59:32Z</time></trkpt><trkpt lat="46.75539949764688" lon="5.5089849757367855"><ele>214.0</ele><time>2026-03-28T10:59:33Z</time></trkpt><trkpt lat="46.75512820919215" lon="5.5089877993306"><ele>214.0</ele><time>2026-03-28T10:59:34Z</time></trkpt><trkpt lat="46.75485511741464" lon="5.508993361358198"><ele>214.0</ele><time>2026-03-28T10:59:35Z</time></trkpt><trkpt lat="46.75458096560675" lon="5.509003837389484"><ele>213.0</ele><time>2026-03-28T10:59:36Z</time></trkpt><trkpt lat="46.75430924525512" lon="5.509015997503678"><ele>212.0</ele><time>2026-03-28T10:59:37Z</time></trkpt><trkpt lat="46.75403728606891" lon="5.509029234954814"><ele>212.0</ele><time>2026-03-28T10:59:38Z</time></trkpt><trkpt lat="46.7537654438923" lon="5.509050295705853"><ele>212.0</ele><time>2026-03-28T10:59:39Z</time></trkpt><trkpt lat="46.753493191559386" lon="5.509075859639118"><ele>211.5</ele><time>2026-03-28T10:59:40Z</time></trkpt><trkpt lat="46.75322095753418" lon="5.509103335785063"><ele>211.0</ele><time>2026-03-28T10:59:41Z</time></trkpt><trkpt lat="46.752946378504966" lon="5.509135907767926"><ele>211.5</ele><time>2026-03-28T10:59:42Z</time></trkpt><trkpt lat="46.752673957593544" lon="5.509172633929008"><ele>212.0</ele><time>2026-03-28T10:59:43Z</time></trkpt><trkpt lat="46.75240043087154" lon="5.509214150721198"><ele>212.0</ele><time>2026-03-28T10:59:44Z</time></trkpt><trkpt lat="46.75212801328835" lon="5.509257738048157"><ele>212.0</ele><time>2026-03-28T10:59:45Z</time></trkpt><trkpt lat="46.75185347577971" lon="5.509304850811024"><ele>212.0</ele><time>2026-03-28T10:59:46Z</time></trkpt><trkpt lat="46.75157815847983" lon="5.50935548001525"><ele>212.0</ele><time>2026-03-28T10:59:47Z</time></trkpt><trkpt lat="46.75130340572398" lon="5.50940868124824"><ele>212.0</ele><time>2026-03-28T10:59:48Z</time></trkpt><trkpt lat="46.751030356684964" lon="5.509466964005036"><ele>212.0</ele><time>2026-03-28T10:59:49Z</time></trkpt><trkpt lat="46.750757686283265" lon="5.509524649929355"><ele>211.5</ele><time>2026-03-28T10:59:50Z</time></trkpt><trkpt lat="46.750486993304236" lon="5.509586519604611"><ele>211.0</ele><time>2026-03-28T10:59:51Z</time></trkpt><trkpt lat="46.75021601843083" lon="5.509650826646348"><ele>210.5</ele><time>2026-03-28T10:59:52Z</time></trkpt><trkpt lat="46.74994328576644" lon="5.509716371341608"><ele>210.0</ele><time>2026-03-28T10:59:53Z</time></trkpt><trkpt lat="46.74967071674392" lon="5.509782563589446"><ele>210.0</ele><time>2026-03-28T10:59:54Z</time></trkpt><trkpt lat="46.749399868815445" lon="5.509851888061356"><ele>210.0</ele><time>2026-03-28T10:59:55Z</time></trkpt><trkpt lat="46.74913066760333" lon="5.50992041275928"><ele>210.5</ele><time>2026-03-28T10:59:56Z</time></trkpt><trkpt lat="46.748860335678316" lon="5.509988977597906"><ele>211.0</ele><time>2026-03-28T10:59:57Z</time></trkpt><trkpt lat="46.74859162021178" lon="5.5100557118992475"><ele>211.0</ele><time>2026-03-28T10:59:58Z</time></trkpt><trkpt lat="46.74832357091518" lon="5.510127701110006"><ele>211.0</ele><time>2026-03-28T10:59:59Z</time></trkpt><trkpt lat="46.748054795603004" lon="5.510197653011485"><ele>211.0</ele><time>2026-03-28T11:00:00Z</time></trkpt><trkpt lat="46.747786965746506" lon="5.510267407831972"><ele>211.0</ele><time>2026-03-28T11:00:01Z</time></trkpt><trkpt lat="46.74751903216831" lon="5.510338917064467"><ele>211.0</ele><time>2026-03-28T11:00:02Z</time></trkpt><trkpt lat="46.74725170573922" lon="5.510406055271575"><ele>211.0</ele><time>2026-03-28T11:00:03Z</time></trkpt><trkpt lat="46.74698439339335" lon="5.510473823877712"><ele>211.5</ele><time>2026-03-28T11:00:04Z</time></trkpt><trkpt lat="46.74671542714981" lon="5.510536117265424"><ele>212.0</ele><time>2026-03-28T11:00:05Z</time></trkpt><trkpt lat="46.74644624908145" lon="5.510600203763443"><ele>212.0</ele><time>2026-03-28T11:00:06Z</time></trkpt><trkpt lat="46.74617945237124" lon="5.510661693070191"><ele>212.0</ele><time>2026-03-28T11:00:07Z</time></trkpt><trkpt lat="46.74591265618616" lon="5.510714445326642"><ele>214.0</ele><time>2026-03-28T11:00:08Z</time></trkpt><trkpt lat="46.74564576003365" lon="5.510766648564146"><ele>216.0</ele><time>2026-03-28T11:00:09Z</time></trkpt><trkpt lat="46.74537548776727" lon="5.510817058494156"><ele>217.0</ele><time>2026-03-28T11:00:10Z</time></trkpt><trkpt lat="46.74510667773338" lon="5.51086240620844"><ele>218.0</ele><time>2026-03-28T11:00:11Z</time></trkpt><trkpt lat="46.74483743273874" lon="5.510903360680031"><ele>218.0</ele><time>2026-03-28T11:00:12Z</time></trkpt><trkpt lat="46.7445690944786" lon="5.51093865609627"><ele>218.0</ele><time>2026-03-28T11:00:13Z</time></trkpt><trkpt lat="46.74430079440416" lon="5.510966226594961"><ele>220.5</ele><time>2026-03-28T11:00:14Z</time></trkpt><trkpt lat="46.744031543809434" lon="5.51099262181312"><ele>223.0</ele><time>2026-03-28T11:00:15Z</time></trkpt><trkpt lat="46.743763993716335" lon="5.511009443944441"><ele>223.0</ele><time>2026-03-28T11:00:16Z</time></trkpt><trkpt lat="46.7434965402089" lon="5.511020552273173"><ele>223.0</ele><time>2026-03-28T11:00:17Z</time></trkpt><trkpt lat="46.74322723586851" lon="5.511027612863291"><ele>223.0</ele><time>2026-03-28T11:00:18Z</time></trkpt><trkpt lat="46.742958582838874" lon="5.511031821140164"><ele>223.0</ele><time>2026-03-28T11:00:19Z</time></trkpt><trkpt lat="46.742688898900276" lon="5.511026063544711"><ele>223.5</ele><time>2026-03-28T11:00:20Z</time></trkpt><trkpt lat="46.742419582818606" lon="5.511018073515281"><ele>224.0</ele><time>2026-03-28T11:00:21Z</time></trkpt><trkpt lat="46.742148308551535" lon="5.511008295234085"><ele>223.0</ele><time>2026-03-28T11:00:22Z</time></trkpt><trkpt lat="46.74187938951549" lon="5.510991890973469"><ele>222.0</ele><time>2026-03-28T11:00:23Z</time></trkpt><trkpt lat="46.74160759446909" lon="5.510968431441801"><ele>222.0</ele><time>2026-03-28T11:00:24Z</time></trkpt><trkpt lat="46.74133583724041" lon="5.510944481862926"><ele>222.0</ele><time>2026-03-28T11:00:25Z</time></trkpt><trkpt lat="46.7410649530617" lon="5.510907958650857"><ele>223.0</ele><time>2026-03-28T11:00:26Z</time></trkpt><trkpt lat="46.74079306641365" lon="5.510870007162764"><ele>224.0</ele><time>2026-03-28T11:00:27Z</time></trkpt><trkpt lat="46.740522200201234" lon="5.510831146330269"><ele>224.0</ele><time>2026-03-28T11:00:28Z</time></trkpt><trkpt lat="46.74025201620909" lon="5.510780047442412"><ele>224.0</ele><time>2026-03-28T11:00:29Z</time></trkpt><trkpt lat="46.73998146795639" lon="5.510725279176756"><ele>224.5</ele><time>2026-03-28T11:00:30Z</time></trkpt><trkpt lat="46.73970977963065" lon="5.510666636532896"><ele>225.0</ele><time>2026-03-28T11:00:31Z</time></trkpt><trkpt lat="46.7394371016453" lon="5.510608009920443"><ele>225.0</ele><time>2026-03-28T11:00:32Z</time></trkpt><trkpt lat="46.7391721046888" lon="5.510553212145741"><ele>225.0</ele><time>2026-03-28T11:00:33Z</time></trkpt><trkpt lat="46.738904004466406" lon="5.510492191970759"><ele>225.0</ele><time>2026-03-28T11:00:34Z</time></trkpt><trkpt lat="46.738636403587954" lon="5.5104194732118845"><ele>225.0</ele><time>2026-03-28T11:00:35Z</time></trkpt><trkpt lat="46.73837010845701" lon="5.51034193660363"><ele>224.5</ele><time>2026-03-28T11:00:36Z</time></trkpt><trkpt lat="46.738102053252966" lon="5.510259322973589"><ele>224.0</ele><time>2026-03-28T11:00:37Z</time></trkpt><trkpt lat="46.7378292936563" lon="5.510181996373755"><ele>224.0</ele><time>2026-03-28T11:00:38Z</time></trkpt><trkpt lat="46.73756090337507" lon="5.510114293047243"><ele>224.0</ele><time>2026-03-28T11:00:39Z</time></trkpt><trkpt lat="46.737294625006804" lon="5.5100378547799345"><ele>224.0</ele><time>2026-03-28T11:00:40Z</time></trkpt><trkpt lat="46.73702750708323" lon="5.509958071013222"><ele>224.0</ele><time>2026-03-28T11:00:41Z</time></trkpt><trkpt lat="46.736758154581494" lon="5.509868334234341"><ele>226.0</ele><time>2026-03-28T11:00:42Z</time></trkpt><trkpt lat="46.736487566223616" lon="5.509782716946255"><ele>228.0</ele><time>2026-03-28T11:00:43Z</time></trkpt><trkpt lat="46.73621810314326" lon="5.509689965786494"><ele>228.5</ele><time>2026-03-28T11:00:44Z</time></trkpt><trkpt lat="46.735947859691784" lon="5.509599335042608"><ele>229.0</ele><time>2026-03-28T11:00:45Z</time></trkpt><trkpt lat="46.735678126079925" lon="5.5095067102090605"><ele>229.0</ele><time>2026-03-28T11:00:46Z</time></trkpt><trkpt lat="46.735406498038884" lon="5.509411135815208"><ele>229.0</ele><time>2026-03-28T11:00:47Z</time></trkpt><trkpt lat="46.73513798642952" lon="5.509311172938517"><ele>230.0</ele><time>2026-03-28T11:00:48Z</time></trkpt><trkpt lat="46.73487140127876" lon="5.509221052004343"><ele>231.0</ele><time>2026-03-28T11:00:49Z</time></trkpt><trkpt lat="46.73460637479129" lon="5.509130466904823"><ele>230.0</ele><time>2026-03-28T11:00:50Z</time></trkpt><trkpt lat="46.73433846768061" lon="5.509038125515061"><ele>229.0</ele><time>2026-03-28T11:00:51Z</time></trkpt><trkpt lat="46.73407133222284" lon="5.508948333943694"><ele>229.0</ele><time>2026-03-28T11:00:52Z</time></trkpt><trkpt lat="46.733804495961664" lon="5.5088584436043"><ele>229.0</ele><time>2026-03-28T11:00:53Z</time></trkpt><trkpt lat="46.733539513368626" lon="5.508769471260197"><ele>230.5</ele><time>2026-03-28T11:00:54Z</time></trkpt><trkpt lat="46.733275685473814" lon="5.508683327387665"><ele>232.0</ele><time>2026-03-28T11:00:55Z</time></trkpt><trkpt lat="46.73301301370919" lon="5.5085946223359175"><ele>232.0</ele><time>2026-03-28T11:00:56Z</time></trkpt><trkpt lat="46.73275161282855" lon="5.508506499046293"><ele>232.0</ele><time>2026-03-28T11:00:57Z</time></trkpt><trkpt lat="46.73248455900688" lon="5.508409281331668"><ele>232.0</ele><time>2026-03-28T11:00:58Z</time></trkpt><trkpt lat="46.732224191951154" lon="5.508325703957381"><ele>232.0</ele><time>2026-03-28T11:00:59Z</time></trkpt><trkpt lat="46.73196110389154" lon="5.508235539589134"><ele>230.5</ele><time>2026-03-28T11:01:00Z</time></trkpt><trkpt lat="46.73170005131871" lon="5.50815252081107"><ele>229.0</ele><time>2026-03-28T11:01:01Z</time></trkpt><trkpt lat="46.73143831630387" lon="5.508062669400837"><ele>229.0</ele><time>2026-03-28T11:01:02Z</time></trkpt><trkpt lat="46.73117717996444" lon="5.507973844042689"><ele>229.0</ele><time>2026-03-28T11:01:03Z</time></trkpt><trkpt lat="46.73091375240777" lon="5.507884908852662"><ele>226.0</ele><time>2026-03-28T11:01:04Z</time></trkpt><trkpt lat="46.73065078770212" lon="5.507796073211394"><ele>223.0</ele><time>2026-03-28T11:01:05Z</time></trkpt><trkpt lat="46.73038906973211" lon="5.507709017403762"><ele>223.0</ele><time>2026-03-28T11:01:06Z</time></trkpt><trkpt lat="46.730128110040596" lon="5.5076186749049905"><ele>223.0</ele><time>2026-03-28T11:01:07Z</time></trkpt><trkpt lat="46.72987044849927" lon="5.507534513507271"><ele>223.0</ele><time>2026-03-28T11:01:08Z</time></trkpt><trkpt lat="46.72961444260059" lon="5.507450145980535"><ele>223.0</ele><time>2026-03-28T11:01:09Z</time></trkpt><trkpt lat="46.72936363190411" lon="5.507366733298333"><ele>225.0</ele><time>2026-03-28T11:01:10Z</time></trkpt><trkpt lat="46.72911582977866" lon="5.507284990851213"><ele>227.0</ele><time>2026-03-28T11:01:11Z</time></trkpt><trkpt lat="46.72887070359384" lon="5.507199609194097"><ele>227.0</ele><time>2026-03-28T11:01:12Z</time></trkpt><trkpt lat="46.728630118821236" lon="5.507116754433689"><ele>227.0</ele><time>2026-03-28T11:01:13Z</time></trkpt><trkpt lat="46.72839206690204" lon="5.507032165694563"><ele>229.5</ele><time>2026-03-28T11:01:14Z</time></trkpt><trkpt lat="46.72815897164336" lon="5.506947032736045"><ele>232.0</ele><time>2026-03-28T11:01:15Z</time></trkpt><trkpt lat="46.7279287976767" lon="5.506862356283027"><ele>232.0</ele><time>2026-03-28T11:01:16Z</time></trkpt><trkpt lat="46.72770031178871" lon="5.50677736346245"><ele>232.0</ele><time>2026-03-28T11:01:17Z</time></trkpt><trkpt lat="46.72747305569586" lon="5.506684816705009"><ele>232.0</ele><time>2026-03-28T11:01:18Z</time></trkpt><trkpt lat="46.72724978381016" lon="5.506586900567906"><ele>232.0</ele><time>2026-03-28T11:01:19Z</time></trkpt><trkpt lat="46.72702786212706" lon="5.506488602353209"><ele>231.5</ele><time>2026-03-28T11:01:20Z</time></trkpt><trkpt lat="46.726803975779916" lon="5.506390267543952"><ele>231.0</ele><time>2026-03-28T11:01:21Z</time></trkpt><trkpt lat="46.72658146960627" lon="5.5062811372257245"><ele>230.0</ele><time>2026-03-28T11:01:22Z</time></trkpt><trkpt lat="46.72636362403833" lon="5.506171436353919"><ele>229.0</ele><time>2026-03-28T11:01:23Z</time></trkpt><trkpt lat="46.72614283158728" lon="5.506066060533045"><ele>228.0</ele><time>2026-03-28T11:01:24Z</time></trkpt><trkpt lat="46.72592375658522" lon="5.505947681717213"><ele>227.0</ele><time>2026-03-28T11:01:25Z</time></trkpt><trkpt lat="46.725708363345554" lon="5.50583204671538"><ele>227.0</ele><time>2026-03-28T11:01:26Z</time></trkpt><trkpt lat="46.725488757655235" lon="5.505714758380808"><ele>227.0</ele><time>2026-03-28T11:01:27Z</time></trkpt><trkpt lat="46.725263740087904" lon="5.505587422261535"><ele>228.0</ele><time>2026-03-28T11:01:28Z</time></trkpt><trkpt lat="46.725035541777984" lon="5.505454790093038"><ele>229.0</ele><time>2026-03-28T11:01:29Z</time></trkpt><trkpt lat="46.72480156124095" lon="5.505321714108011"><ele>230.0</ele><time>2026-03-28T11:01:30Z</time></trkpt><trkpt lat="46.72456826267185" lon="5.505168965069904"><ele>231.0</ele><time>2026-03-28T11:01:31Z</time></trkpt><trkpt lat="46.72432823849877" lon="5.505013231819818"><ele>231.0</ele><time>2026-03-28T11:01:32Z</time></trkpt><trkpt lat="46.724092491239595" lon="5.504854978856512"><ele>231.0</ele><time>2026-03-28T11:01:33Z</time></trkpt><trkpt lat="46.72385555752881" lon="5.504689752949536"><ele>231.5</ele><time>2026-03-28T11:01:34Z</time></trkpt><trkpt lat="46.723616946494545" lon="5.504516900048578"><ele>232.0</ele><time>2026-03-28T11:01:35Z</time></trkpt><trkpt lat="46.7233791646496" lon="5.504339091761193"><ele>231.0</ele><time>2026-03-28T11:01:36Z</time></trkpt><trkpt lat="46.723140906075784" lon="5.504159283278234"><ele>230.0</ele><time>2026-03-28T11:01:37Z</time></trkpt><trkpt lat="46.72290353438012" lon="5.5039757676646435"><ele>230.5</ele><time>2026-03-28T11:01:38Z</time></trkpt><trkpt lat="46.722670390027005" lon="5.503784706574999"><ele>231.0</ele><time>2026-03-28T11:01:39Z</time></trkpt><trkpt lat="46.72243900400906" lon="5.503591563222044"><ele>231.0</ele><time>2026-03-28T11:01:40Z</time></trkpt><trkpt lat="46.72220534889698" lon="5.503395669757565"><ele>231.0</ele><time>2026-03-28T11:01:41Z</time></trkpt><trkpt lat="46.721972848317506" lon="5.503192073532344"><ele>231.5</ele><time>2026-03-28T11:01:42Z</time></trkpt><trkpt lat="46.72174180991329" lon="5.502980013981469"><ele>232.0</ele><time>2026-03-28T11:01:43Z</time></trkpt><trkpt lat="46.72151061873779" lon="5.502764523270052"><ele>232.0</ele><time>2026-03-28T11:01:44Z</time></trkpt><trkpt lat="46.721284435762186" lon="5.502549323405518"><ele>232.0</ele><time>2026-03-28T11:01:45Z</time></trkpt><trkpt lat="46.72105838702482" lon="5.5023267832754135"><ele>232.0</ele><time>2026-03-28T11:01:46Z</time></trkpt><trkpt lat="46.72083233687754" lon="5.502097391956856"><ele>232.0</ele><time>2026-03-28T11:01:47Z</time></trkpt><trkpt lat="46.720609496385684" lon="5.501865724389528"><ele>233.0</ele><time>2026-03-28T11:01:48Z</time></trkpt><trkpt lat="46.7203880167672" lon="5.501627057532822"><ele>234.0</ele><time>2026-03-28T11:01:49Z</time></trkpt><trkpt lat="46.72017384530746" lon="5.5013873175286525"><ele>231.5</ele><time>2026-03-28T11:01:50Z</time></trkpt><trkpt lat="46.719957423005894" lon="5.501142433744449"><ele>229.0</ele><time>2026-03-28T11:01:51Z</time></trkpt><trkpt lat="46.71974071629464" lon="5.500891366394003"><ele>229.0</ele><time>2026-03-28T11:01:52Z</time></trkpt><trkpt lat="46.71952274308256" lon="5.500636551052778"><ele>229.0</ele><time>2026-03-28T11:01:53Z</time></trkpt><trkpt lat="46.719314247101394" lon="5.500382448637358"><ele>228.5</ele><time>2026-03-28T11:01:54Z</time></trkpt><trkpt lat="46.719108546024955" lon="5.5001233939701235"><ele>228.0</ele><time>2026-03-28T11:01:55Z</time></trkpt><trkpt lat="46.71890918220115" lon="5.499859332728226"><ele>228.5</ele><time>2026-03-28T11:01:56Z</time></trkpt><trkpt lat="46.71871428572356" lon="5.499582753609645"><ele>229.0</ele><time>2026-03-28T11:01:57Z</time></trkpt><trkpt lat="46.71852384818975" lon="5.4993083072941955"><ele>229.0</ele><time>2026-03-28T11:01:58Z</time></trkpt><trkpt lat="46.7183301235454" lon="5.499026931036746"><ele>229.0</ele><time>2026-03-28T11:01:59Z</time></trkpt><trkpt lat="46.71813698811151" lon="5.498751462716897"><ele>229.0</ele><time>2026-03-28T11:02:00Z</time></trkpt><trkpt lat="46.71794048083629" lon="5.4984624417651515"><ele>229.0</ele><time>2026-03-28T11:02:01Z</time></trkpt><trkpt lat="46.71775535330678" lon="5.4981761802940365"><ele>229.0</ele><time>2026-03-28T11:02:02Z</time></trkpt><trkpt lat="46.71756756426374" lon="5.497895895387512"><ele>229.0</ele><time>2026-03-28T11:02:03Z</time></trkpt><trkpt lat="46.71738488825568" lon="5.497605892278727"><ele>229.0</ele><time>2026-03-28T11:02:04Z</time></trkpt><trkpt lat="46.71719681995241" lon="5.497307948829443"><ele>229.0</ele><time>2026-03-28T11:02:05Z</time></trkpt><trkpt lat="46.71701922247869" lon="5.497009762007208"><ele>229.0</ele><time>2026-03-28T11:02:06Z</time></trkpt><trkpt lat="46.71684260019772" lon="5.49670848160538"><ele>229.0</ele><time>2026-03-28T11:02:07Z</time></trkpt><trkpt lat="46.71666711388832" lon="5.49640044637472"><ele>229.5</ele><time>2026-03-28T11:02:08Z</time></trkpt><trkpt lat="46.716492544456095" lon="5.496087955210001"><ele>230.0</ele><time>2026-03-28T11:02:09Z</time></trkpt><trkpt lat="46.71632171453166" lon="5.4957746415396365"><ele>230.0</ele><time>2026-03-28T11:02:10Z</time></trkpt><trkpt lat="46.71615625879382" lon="5.4954634315988"><ele>230.0</ele><time>2026-03-28T11:02:11Z</time></trkpt><trkpt lat="46.715990185054125" lon="5.495145148427363"><ele>229.5</ele><time>2026-03-28T11:02:12Z</time></trkpt><trkpt lat="46.71582710201302" lon="5.494828277626612"><ele>229.0</ele><time>2026-03-28T11:02:13Z</time></trkpt><trkpt lat="46.715668602012705" lon="5.494507538133275"><ele>230.5</ele><time>2026-03-28T11:02:14Z</time></trkpt><trkpt lat="46.715512389279425" lon="5.494185088067989"><ele>232.0</ele><time>2026-03-28T11:02:15Z</time></trkpt><trkpt lat="46.715361547335" lon="5.493861452296298"><ele>230.5</ele><time>2026-03-28T11:02:16Z</time></trkpt><trkpt lat="46.715212988890215" lon="5.493538310105725"><ele>229.0</ele><time>2026-03-28T11:02:17Z</time></trkpt><trkpt lat="46.71506538899503" lon="5.493211592448489"><ele>230.5</ele><time>2026-03-28T11:02:18Z</time></trkpt><trkpt lat="46.71491606495604" lon="5.49288091631623"><ele>232.0</ele><time>2026-03-28T11:02:19Z</time></trkpt><trkpt lat="46.7147692296478" lon="5.492553590895695"><ele>232.0</ele><time>2026-03-28T11:02:20Z</time></trkpt><trkpt lat="46.71462465793027" lon="5.492223777277448"><ele>232.0</ele><time>2026-03-28T11:02:21Z</time></trkpt><trkpt lat="46.714481404260795" lon="5.4918913983094315"><ele>229.0</ele><time>2026-03-28T11:02:22Z</time></trkpt><trkpt lat="46.71434305848212" lon="5.49155067967854"><ele>226.0</ele><time>2026-03-28T11:02:23Z</time></trkpt><trkpt lat="46.71420367822589" lon="5.49120688801742"><ele>226.0</ele><time>2026-03-28T11:02:24Z</time></trkpt><trkpt lat="46.71406372615004" lon="5.490859128680471"><ele>226.0</ele><time>2026-03-28T11:02:25Z</time></trkpt><trkpt lat="46.71392206021068" lon="5.490513078941234"><ele>228.5</ele><time>2026-03-28T11:02:26Z</time></trkpt><trkpt lat="46.713782734557135" lon="5.4901666871201495"><ele>231.0</ele><time>2026-03-28T11:02:27Z</time></trkpt><trkpt lat="46.71365021941388" lon="5.48981807864088"><ele>228.0</ele><time>2026-03-28T11:02:28Z</time></trkpt><trkpt lat="46.713516736173936" lon="5.489470906343827"><ele>225.0</ele><time>2026-03-28T11:02:29Z</time></trkpt><trkpt lat="46.713383268430505" lon="5.489122825882429"><ele>225.0</ele><time>2026-03-28T11:02:30Z</time></trkpt><trkpt lat="46.713241026272684" lon="5.4887778793549264"><ele>225.0</ele><time>2026-03-28T11:02:31Z</time></trkpt><trkpt lat="46.71309272646067" lon="5.488447033870811"><ele>227.0</ele><time>2026-03-28T11:02:32Z</time></trkpt><trkpt lat="46.712941993347364" lon="5.488126286206866"><ele>229.0</ele><time>2026-03-28T11:02:33Z</time></trkpt><trkpt lat="46.712784246086976" lon="5.487808796725241"><ele>226.5</ele><time>2026-03-28T11:02:34Z</time></trkpt><trkpt lat="46.71262668490465" lon="5.487491589606887"><ele>224.0</ele><time>2026-03-28T11:02:35Z</time></trkpt><trkpt lat="46.7124647473218" lon="5.48717796075235"><ele>225.0</ele><time>2026-03-28T11:02:36Z</time></trkpt><trkpt lat="46.71229940076833" lon="5.486875138538144"><ele>226.0</ele><time>2026-03-28T11:02:37Z</time></trkpt><trkpt lat="46.71213279159386" lon="5.486569597031572"><ele>226.0</ele><time>2026-03-28T11:02:38Z</time></trkpt><trkpt lat="46.71196863872378" lon="5.486265477874953"><ele>226.0</ele><time>2026-03-28T11:02:39Z</time></trkpt><trkpt lat="46.71179372677289" lon="5.485973001386062"><ele>225.0</ele><time>2026-03-28T11:02:40Z</time></trkpt><trkpt lat="46.71162182344292" lon="5.485682386939723"><ele>224.0</ele><time>2026-03-28T11:02:41Z</time></trkpt><trkpt lat="46.71144636757552" lon="5.485392785380532"><ele>224.0</ele><time>2026-03-28T11:02:42Z</time></trkpt><trkpt lat="46.71126518993885" lon="5.485109523317381"><ele>224.0</ele><time>2026-03-28T11:02:43Z</time></trkpt><trkpt lat="46.711080579615675" lon="5.484831549347508"><ele>223.0</ele><time>2026-03-28T11:02:44Z</time></trkpt><trkpt lat="46.710892093697296" lon="5.48455891166586"><ele>222.0</ele><time>2026-03-28T11:02:45Z</time></trkpt><trkpt lat="46.71069841452845" lon="5.484288822865396"><ele>222.0</ele><time>2026-03-28T11:02:46Z</time></trkpt><trkpt lat="46.710500080338385" lon="5.484023399252386"><ele>222.0</ele><time>2026-03-28T11:02:47Z</time></trkpt><trkpt lat="46.71030077442294" lon="5.483763731901882"><ele>217.5</ele><time>2026-03-28T11:02:48Z</time></trkpt><trkpt lat="46.710097096409804" lon="5.483507073613398"><ele>213.0</ele><time>2026-03-28T11:02:49Z</time></trkpt><trkpt lat="46.709891941472904" lon="5.483257349956683"><ele>213.0</ele><time>2026-03-28T11:02:50Z</time></trkpt><trkpt lat="46.709682739439494" lon="5.48301093529406"><ele>213.0</ele><time>2026-03-28T11:02:51Z</time></trkpt><trkpt lat="46.709472054590464" lon="5.482766994481395"><ele>212.5</ele><time>2026-03-28T11:02:52Z</time></trkpt><trkpt lat="46.709256482175306" lon="5.4825306673173655"><ele>212.0</ele><time>2026-03-28T11:02:53Z</time></trkpt><trkpt lat="46.70903986007858" lon="5.482299177184686"><ele>214.5</ele><time>2026-03-28T11:02:54Z</time></trkpt><trkpt lat="46.70882150851777" lon="5.482072201106913"><ele>217.0</ele><time>2026-03-28T11:02:55Z</time></trkpt><trkpt lat="46.70859744736369" lon="5.481846944331736"><ele>217.5</ele><time>2026-03-28T11:02:56Z</time></trkpt><trkpt lat="46.70837240513933" lon="5.481632622577534"><ele>218.0</ele><time>2026-03-28T11:02:57Z</time></trkpt><trkpt lat="46.70814600993166" lon="5.481422379075367"><ele>217.5</ele><time>2026-03-28T11:02:58Z</time></trkpt><trkpt lat="46.70791976780641" lon="5.481219268305855"><ele>217.0</ele><time>2026-03-28T11:02:59Z</time></trkpt><trkpt lat="46.70768908843022" lon="5.481015826243312"><ele>218.5</ele><time>2026-03-28T11:03:00Z</time></trkpt><trkpt lat="46.707457250431275" lon="5.480816018112421"><ele>220.0</ele><time>2026-03-28T11:03:01Z</time></trkpt><trkpt lat="46.707225957468" lon="5.480619395945122"><ele>219.5</ele><time>2026-03-28T11:03:02Z</time></trkpt><trkpt lat="46.70699083938851" lon="5.480424964952065"><ele>219.0</ele><time>2026-03-28T11:03:03Z</time></trkpt><trkpt lat="46.706759632163354" lon="5.480227930291944"><ele>220.5</ele><time>2026-03-28T11:03:04Z</time></trkpt><trkpt lat="46.70653110880421" lon="5.480035244703312"><ele>222.0</ele><time>2026-03-28T11:03:05Z</time></trkpt><trkpt lat="46.70630675499228" lon="5.4798474911362485"><ele>222.0</ele><time>2026-03-28T11:03:06Z</time></trkpt><trkpt lat="46.70608748627165" lon="5.479661083027041"><ele>222.0</ele><time>2026-03-28T11:03:07Z</time></trkpt><trkpt lat="46.7058685601885" lon="5.479475419582595"><ele>222.5</ele><time>2026-03-28T11:03:08Z</time></trkpt><trkpt lat="46.70564898112171" lon="5.479289793356724"><ele>223.0</ele><time>2026-03-28T11:03:09Z</time></trkpt><trkpt lat="46.705431509776496" lon="5.479111604599964"><ele>223.0</ele><time>2026-03-28T11:03:10Z</time></trkpt><trkpt lat="46.70521794441679" lon="5.47893174303282"><ele>223.0</ele><time>2026-03-28T11:03:11Z</time></trkpt><trkpt lat="46.705000262043676" lon="5.47875466616976"><ele>223.0</ele><time>2026-03-28T11:03:12Z</time></trkpt><trkpt lat="46.70478371790963" lon="5.478575651253804"><ele>223.0</ele><time>2026-03-28T11:03:13Z</time></trkpt><trkpt lat="46.70456154153673" lon="5.478394052042294"><ele>222.5</ele><time>2026-03-28T11:03:14Z</time></trkpt><trkpt lat="46.704334422093574" lon="5.478212559300167"><ele>222.0</ele><time>2026-03-28T11:03:15Z</time></trkpt><trkpt lat="46.70410605109815" lon="5.478033890105279"><ele>222.0</ele><time>2026-03-28T11:03:16Z</time></trkpt><trkpt lat="46.703878362570656" lon="5.477847903005328"><ele>222.0</ele><time>2026-03-28T11:03:17Z</time></trkpt><trkpt lat="46.703649945382374" lon="5.477662596845857"><ele>223.0</ele><time>2026-03-28T11:03:18Z</time></trkpt><trkpt lat="46.703418104536716" lon="5.4774673668800515"><ele>224.0</ele><time>2026-03-28T11:03:19Z</time></trkpt><trkpt lat="46.70318667342789" lon="5.4772629115442175"><ele>224.5</ele><time>2026-03-28T11:03:20Z</time></trkpt><trkpt lat="46.702958513706704" lon="5.477055312440678"><ele>225.0</ele><time>2026-03-28T11:03:21Z</time></trkpt><trkpt lat="46.70272713659478" lon="5.47684333835015"><ele>225.0</ele><time>2026-03-28T11:03:22Z</time></trkpt><trkpt lat="46.7025011823033" lon="5.476624789042413"><ele>225.0</ele><time>2026-03-28T11:03:23Z</time></trkpt><trkpt lat="46.702281959142404" lon="5.476401247719716"><ele>226.0</ele><time>2026-03-28T11:03:24Z</time></trkpt><trkpt lat="46.70207132416566" lon="5.476165735807663"><ele>227.0</ele><time>2026-03-28T11:03:25Z</time></trkpt><trkpt lat="46.70186031524802" lon="5.475924273442581"><ele>225.0</ele><time>2026-03-28T11:03:26Z</time></trkpt><trkpt lat="46.70165142394299" lon="5.475688544966016"><ele>223.0</ele><time>2026-03-28T11:03:27Z</time></trkpt><trkpt lat="46.7014407827603" lon="5.475452632583716"><ele>223.0</ele><time>2026-03-28T11:03:28Z</time></trkpt><trkpt lat="46.701233700480216" lon="5.475211618138132"><ele>223.0</ele><time>2026-03-28T11:03:29Z</time></trkpt><trkpt lat="46.701027234796626" lon="5.474973435638067"><ele>222.5</ele><time>2026-03-28T11:03:30Z</time></trkpt><trkpt lat="46.70082492230858" lon="5.474725501335645"><ele>222.0</ele><time>2026-03-28T11:03:31Z</time></trkpt><trkpt lat="46.700621856804936" lon="5.474470829824652"><ele>222.0</ele><time>2026-03-28T11:03:32Z</time></trkpt><trkpt lat="46.700421691479924" lon="5.474205368517303"><ele>222.0</ele><time>2026-03-28T11:03:33Z</time></trkpt><trkpt lat="46.70022185732858" lon="5.473939848166212"><ele>221.0</ele><time>2026-03-28T11:03:34Z</time></trkpt><trkpt lat="46.70002627934169" lon="5.473669336975643"><ele>220.0</ele><time>2026-03-28T11:03:35Z</time></trkpt><trkpt lat="46.69983767683078" lon="5.473396556550104"><ele>220.0</ele><time>2026-03-28T11:03:36Z</time></trkpt><trkpt lat="46.699648685526746" lon="5.473118629392307"><ele>220.0</ele><time>2026-03-28T11:03:37Z</time></trkpt><trkpt lat="46.69946089863519" lon="5.4728351765828815"><ele>220.5</ele><time>2026-03-28T11:03:38Z</time></trkpt><trkpt lat="46.69927684298092" lon="5.472551062284365"><ele>221.0</ele><time>2026-03-28T11:03:39Z</time></trkpt><trkpt lat="46.699096741645796" lon="5.472256200927442"><ele>220.5</ele><time>2026-03-28T11:03:40Z</time></trkpt><trkpt lat="46.69891596539109" lon="5.471958697165657"><ele>220.0</ele><time>2026-03-28T11:03:41Z</time></trkpt><trkpt lat="46.698737974356995" lon="5.471654433335633"><ele>219.0</ele><time>2026-03-28T11:03:42Z</time></trkpt><trkpt lat="46.6985592604222" lon="5.4713535987625805"><ele>218.0</ele><time>2026-03-28T11:03:43Z</time></trkpt><trkpt lat="46.69838115786406" lon="5.47104522312245"><ele>217.5</ele><time>2026-03-28T11:03:44Z</time></trkpt><trkpt lat="46.69820597709252" lon="5.470736758348091"><ele>217.0</ele><time>2026-03-28T11:03:45Z</time></trkpt><trkpt lat="46.69803107926244" lon="5.470426973628242"><ele>218.5</ele><time>2026-03-28T11:03:46Z</time></trkpt><trkpt lat="46.69785746796634" lon="5.470113909407096"><ele>220.0</ele><time>2026-03-28T11:03:47Z</time></trkpt><trkpt lat="46.69768277698748" lon="5.469800881968073"><ele>223.0</ele><time>2026-03-28T11:03:48Z</time></trkpt><trkpt lat="46.69750808266693" lon="5.469488646657266"><ele>226.0</ele><time>2026-03-28T11:03:49Z</time></trkpt><trkpt lat="46.697330998567345" lon="5.469173579373376"><ele>226.0</ele><time>2026-03-28T11:03:50Z</time></trkpt><trkpt lat="46.69715659741632" lon="5.468861422639687"><ele>226.0</ele><time>2026-03-28T11:03:51Z</time></trkpt><trkpt lat="46.69698017397395" lon="5.468547725231265"><ele>226.5</ele><time>2026-03-28T11:03:52Z</time></trkpt><trkpt lat="46.69680728973795" lon="5.468233459149031"><ele>227.0</ele><time>2026-03-28T11:03:53Z</time></trkpt><trkpt lat="46.696633974581935" lon="5.467922065308426"><ele>227.0</ele><time>2026-03-28T11:03:54Z</time></trkpt><trkpt lat="46.69646134550695" lon="5.467611929958839"><ele>227.0</ele><time>2026-03-28T11:03:55Z</time></trkpt><trkpt lat="46.69628874228836" lon="5.467301576014669"><ele>228.0</ele><time>2026-03-28T11:03:56Z</time></trkpt><trkpt lat="46.696112206989" lon="5.466986041672355"><ele>229.0</ele><time>2026-03-28T11:03:57Z</time></trkpt><trkpt lat="46.69593932596596" lon="5.466674799896099"><ele>227.5</ele><time>2026-03-28T11:03:58Z</time></trkpt><trkpt lat="46.69576722673029" lon="5.466367841574184"><ele>226.0</ele><time>2026-03-28T11:03:59Z</time></trkpt><trkpt lat="46.69559436229526" lon="5.466065448043153"><ele>226.0</ele><time>2026-03-28T11:04:00Z</time></trkpt><trkpt lat="46.69541873606176" lon="5.465760926666453"><ele>226.0</ele><time>2026-03-28T11:04:01Z</time></trkpt><trkpt lat="46.695242888375844" lon="5.465457729141429"><ele>224.5</ele><time>2026-03-28T11:04:02Z</time></trkpt><trkpt lat="46.695066912191486" lon="5.465153018047277"><ele>223.0</ele><time>2026-03-28T11:04:03Z</time></trkpt><trkpt lat="46.69489032691886" lon="5.464848322396214"><ele>226.0</ele><time>2026-03-28T11:04:04Z</time></trkpt><trkpt lat="46.69471264408073" lon="5.464540501803626"><ele>229.0</ele><time>2026-03-28T11:04:05Z</time></trkpt><trkpt lat="46.69453760436576" lon="5.464233905110783"><ele>228.5</ele><time>2026-03-28T11:04:06Z</time></trkpt><trkpt lat="46.694363453433226" lon="5.463929419012381"><ele>228.0</ele><time>2026-03-28T11:04:07Z</time></trkpt><trkpt lat="46.69418980621383" lon="5.463620596077679"><ele>228.0</ele><time>2026-03-28T11:04:08Z</time></trkpt><trkpt lat="46.69401585369264" lon="5.463314572629355"><ele>228.0</ele><time>2026-03-28T11:04:09Z</time></trkpt><trkpt lat="46.693839348665364" lon="5.463003547934107"><ele>229.0</ele><time>2026-03-28T11:04:10Z</time></trkpt><trkpt lat="46.69366741189965" lon="5.462692742372448"><ele>230.0</ele><time>2026-03-28T11:04:11Z</time></trkpt><trkpt lat="46.693494928092996" lon="5.462383085361934"><ele>226.5</ele><time>2026-03-28T11:04:12Z</time></trkpt><trkpt lat="46.69332009425364" lon="5.462073188896419"><ele>223.0</ele><time>2026-03-28T11:04:13Z</time></trkpt><trkpt lat="46.69315052356521" lon="5.461757526970395"><ele>223.0</ele><time>2026-03-28T11:04:14Z</time></trkpt><trkpt lat="46.692981206453744" lon="5.461446747748376"><ele>223.0</ele><time>2026-03-28T11:04:15Z</time></trkpt><trkpt lat="46.69281371890907" lon="5.46113232506984"><ele>222.5</ele><time>2026-03-28T11:04:16Z</time></trkpt><trkpt lat="46.69264710079272" lon="5.460814933090894"><ele>222.0</ele><time>2026-03-28T11:04:17Z</time></trkpt><trkpt lat="46.69248232931088" lon="5.460498311247829"><ele>223.0</ele><time>2026-03-28T11:04:18Z</time></trkpt><trkpt lat="46.692320773593174" lon="5.460179619633361"><ele>224.0</ele><time>2026-03-28T11:04:19Z</time></trkpt><trkpt lat="46.69215811096642" lon="5.459856483565407"><ele>223.0</ele><time>2026-03-28T11:04:20Z</time></trkpt><trkpt lat="46.691996666535935" lon="5.459532568194515"><ele>222.0</ele><time>2026-03-28T11:04:21Z</time></trkpt><trkpt lat="46.691837905541625" lon="5.459205424559828"><ele>222.0</ele><time>2026-03-28T11:04:22Z</time></trkpt><trkpt lat="46.69168680441708" lon="5.458874163797042"><ele>222.0</ele><time>2026-03-28T11:04:23Z</time></trkpt><trkpt lat="46.69153752509284" lon="5.458542709635131"><ele>223.0</ele><time>2026-03-28T11:04:24Z</time></trkpt><trkpt lat="46.69138677430769" lon="5.4582110025713035"><ele>224.0</ele><time>2026-03-28T11:04:25Z</time></trkpt><trkpt lat="46.69123541461606" lon="5.45787909311694"><ele>222.0</ele><time>2026-03-28T11:04:26Z</time></trkpt><trkpt lat="46.69108749453295" lon="5.457545387783147"><ele>220.0</ele><time>2026-03-28T11:04:27Z</time></trkpt><trkpt lat="46.69093687916206" lon="5.457210313920805"><ele>220.5</ele><time>2026-03-28T11:04:28Z</time></trkpt><trkpt lat="46.6907877386372" lon="5.456875096069423"><ele>221.0</ele><time>2026-03-28T11:04:29Z</time></trkpt><trkpt lat="46.69063714635583" lon="5.456540746122518"><ele>221.5</ele><time>2026-03-28T11:04:30Z</time></trkpt><trkpt lat="46.69048701940961" lon="5.456205482169062"><ele>222.0</ele><time>2026-03-28T11:04:31Z</time></trkpt><trkpt lat="46.690336854440005" lon="5.455870378105119"><ele>220.5</ele><time>2026-03-28T11:04:32Z</time></trkpt><trkpt lat="46.69018535611397" lon="5.455537257381183"><ele>219.0</ele><time>2026-03-28T11:04:33Z</time></trkpt><trkpt lat="46.69003353856221" lon="5.455199357587859"><ele>219.0</ele><time>2026-03-28T11:04:34Z</time></trkpt><trkpt lat="46.68988519831792" lon="5.454863254407879"><ele>219.0</ele><time>2026-03-28T11:04:35Z</time></trkpt><trkpt lat="46.68973297364601" lon="5.454527712068707"><ele>219.0</ele><time>2026-03-28T11:04:36Z</time></trkpt><trkpt lat="46.68958065222203" lon="5.454194600925888"><ele>219.0</ele><time>2026-03-28T11:04:37Z</time></trkpt><trkpt lat="46.68942683760536" lon="5.453864000618968"><ele>216.0</ele><time>2026-03-28T11:04:38Z</time></trkpt><trkpt lat="46.68927157528141" lon="5.453535247210005"><ele>213.0</ele><time>2026-03-28T11:04:39Z</time></trkpt><trkpt lat="46.689115087184085" lon="5.453207691610662"><ele>212.0</ele><time>2026-03-28T11:04:40Z</time></trkpt><trkpt lat="46.68895588877068" lon="5.452877611349609"><ele>211.0</ele><time>2026-03-28T11:04:41Z</time></trkpt><trkpt lat="46.68879985649635" lon="5.452551930364456"><ele>211.0</ele><time>2026-03-28T11:04:42Z</time></trkpt><trkpt lat="46.68863775728933" lon="5.452227591930903"><ele>211.0</ele><time>2026-03-28T11:04:43Z</time></trkpt><trkpt lat="46.68847031069141" lon="5.45191003607643"><ele>211.5</ele><time>2026-03-28T11:04:44Z</time></trkpt><trkpt lat="46.68830102772107" lon="5.45159058917062"><ele>212.0</ele><time>2026-03-28T11:04:45Z</time></trkpt><trkpt lat="46.68812870812661" lon="5.4512826243997665"><ele>214.0</ele><time>2026-03-28T11:04:46Z</time></trkpt><trkpt lat="46.687954898164044" lon="5.450972288354667"><ele>216.0</ele><time>2026-03-28T11:04:47Z</time></trkpt><trkpt lat="46.687781024758834" lon="5.450667102311322"><ele>215.5</ele><time>2026-03-28T11:04:48Z</time></trkpt><trkpt lat="46.68760504863637" lon="5.450362621706828"><ele>215.0</ele><time>2026-03-28T11:04:49Z</time></trkpt><trkpt lat="46.6874281601933" lon="5.4500659070677235"><ele>215.0</ele><time>2026-03-28T11:04:50Z</time></trkpt><trkpt lat="46.6872485488003" lon="5.449770677668229"><ele>215.0</ele><time>2026-03-28T11:04:51Z</time></trkpt><trkpt lat="46.68706773016763" lon="5.449474682441968"><ele>215.5</ele><time>2026-03-28T11:04:52Z</time></trkpt><trkpt lat="46.686888530920186" lon="5.4491759653527305"><ele>216.0</ele><time>2026-03-28T11:04:53Z</time></trkpt><trkpt lat="46.686710671698336" lon="5.448883186319964"><ele>216.0</ele><time>2026-03-28T11:04:54Z</time></trkpt><trkpt lat="46.68653146275493" lon="5.448594761904544"><ele>216.0</ele><time>2026-03-28T11:04:55Z</time></trkpt><trkpt lat="46.686351460227094" lon="5.448303264820133"><ele>216.0</ele><time>2026-03-28T11:04:56Z</time></trkpt><trkpt lat="46.68617222222252" lon="5.448016063242871"><ele>216.0</ele><time>2026-03-28T11:04:57Z</time></trkpt><trkpt lat="46.68598890454617" lon="5.447730102441326"><ele>216.5</ele><time>2026-03-28T11:04:58Z</time></trkpt><trkpt lat="46.685809163531744" lon="5.447439977975773"><ele>217.0</ele><time>2026-03-28T11:04:59Z</time></trkpt><trkpt lat="46.6856301224589" lon="5.447151605493005"><ele>219.5</ele><time>2026-03-28T11:05:00Z</time></trkpt><trkpt lat="46.68545064810258" lon="5.446859593139533"><ele>222.0</ele><time>2026-03-28T11:05:01Z</time></trkpt><trkpt lat="46.68527148289194" lon="5.446567546167793"><ele>221.5</ele><time>2026-03-28T11:05:02Z</time></trkpt><trkpt lat="46.68509306665868" lon="5.446273456166715"><ele>221.0</ele><time>2026-03-28T11:05:03Z</time></trkpt><trkpt lat="46.68491176354111" lon="5.445983228732179"><ele>221.0</ele><time>2026-03-28T11:05:04Z</time></trkpt><trkpt lat="46.68473201461216" lon="5.445694382755655"><ele>221.0</ele><time>2026-03-28T11:05:05Z</time></trkpt><trkpt lat="46.68455361362256" lon="5.445405177294846"><ele>221.5</ele><time>2026-03-28T11:05:06Z</time></trkpt><trkpt lat="46.68437291120011" lon="5.445113924405207"><ele>222.0</ele><time>2026-03-28T11:05:07Z</time></trkpt><trkpt lat="46.68419155303757" lon="5.444823426254119"><ele>223.5</ele><time>2026-03-28T11:05:08Z</time></trkpt><trkpt lat="46.684011509663925" lon="5.444531384473035"><ele>225.0</ele><time>2026-03-28T11:05:09Z</time></trkpt><trkpt lat="46.68383072985706" lon="5.44424069644649"><ele>225.0</ele><time>2026-03-28T11:05:10Z</time></trkpt><trkpt lat="46.68365076600915" lon="5.443949688628916"><ele>225.0</ele><time>2026-03-28T11:05:11Z</time></trkpt><trkpt lat="46.68346872703168" lon="5.443657067407226"><ele>225.0</ele><time>2026-03-28T11:05:12Z</time></trkpt><trkpt lat="46.68329303116672" lon="5.443360950046218"><ele>225.0</ele><time>2026-03-28T11:05:13Z</time></trkpt><trkpt lat="46.6831119191044" lon="5.443070672933508"><ele>224.5</ele><time>2026-03-28T11:05:14Z</time></trkpt><trkpt lat="46.68293306722328" lon="5.442781333185447"><ele>224.0</ele><time>2026-03-28T11:05:15Z</time></trkpt><trkpt lat="46.682751093214996" lon="5.442494042336601"><ele>224.0</ele><time>2026-03-28T11:05:16Z</time></trkpt><trkpt lat="46.68256616208578" lon="5.4422063141881045"><ele>224.0</ele><time>2026-03-28T11:05:17Z</time></trkpt><trkpt lat="46.682384542224874" lon="5.441917066346419"><ele>223.5</ele><time>2026-03-28T11:05:18Z</time></trkpt><trkpt lat="46.68220029944389" lon="5.441627363959724"><ele>223.0</ele><time>2026-03-28T11:05:19Z</time></trkpt><trkpt lat="46.6820115793562" lon="5.441326590618803"><ele>222.5</ele><time>2026-03-28T11:05:20Z</time></trkpt><trkpt lat="46.681820338118364" lon="5.441024565199431"><ele>222.0</ele><time>2026-03-28T11:05:21Z</time></trkpt><trkpt lat="46.681630620294285" lon="5.440719609855179"><ele>222.5</ele><time>2026-03-28T11:05:22Z</time></trkpt><trkpt lat="46.68144259512603" lon="5.440418023567368"><ele>223.0</ele><time>2026-03-28T11:05:23Z</time></trkpt><trkpt lat="46.681259126693206" lon="5.4401178864336766"><ele>221.5</ele><time>2026-03-28T11:05:24Z</time></trkpt><trkpt lat="46.68107273543527" lon="5.439815458612902"><ele>220.0</ele><time>2026-03-28T11:05:25Z</time></trkpt><trkpt lat="46.680884108095256" lon="5.439510114410018"><ele>220.0</ele><time>2026-03-28T11:05:26Z</time></trkpt><trkpt lat="46.680695571487654" lon="5.439207477919438"><ele>220.0</ele><time>2026-03-28T11:05:27Z</time></trkpt><trkpt lat="46.68050367520242" lon="5.438900518525073"><ele>220.0</ele><time>2026-03-28T11:05:28Z</time></trkpt><trkpt lat="46.68031440482315" lon="5.438595444303522"><ele>220.0</ele><time>2026-03-28T11:05:29Z</time></trkpt><trkpt lat="46.68012635400528" lon="5.438290911018519"><ele>220.0</ele><time>2026-03-28T11:05:30Z</time></trkpt><trkpt lat="46.679935707219855" lon="5.437986189108057"><ele>220.0</ele><time>2026-03-28T11:05:31Z</time></trkpt><trkpt lat="46.67974990524729" lon="5.43768240263244"><ele>220.5</ele><time>2026-03-28T11:05:32Z</time></trkpt><trkpt lat="46.679561466792606" lon="5.437376488137122"><ele>221.0</ele><time>2026-03-28T11:05:33Z</time></trkpt><trkpt lat="46.679370111013355" lon="5.4370685397578145"><ele>221.0</ele><time>2026-03-28T11:05:34Z</time></trkpt><trkpt lat="46.6791788290782" lon="5.43676303109347"><ele>221.0</ele><time>2026-03-28T11:05:35Z</time></trkpt><trkpt lat="46.67899238488603" lon="5.436458971806645"><ele>221.5</ele><time>2026-03-28T11:05:36Z</time></trkpt><trkpt lat="46.67880824625587" lon="5.4361570831107295"><ele>222.0</ele><time>2026-03-28T11:05:37Z</time></trkpt><trkpt lat="46.678623389823414" lon="5.435858689207413"><ele>222.0</ele><time>2026-03-28T11:05:38Z</time></trkpt><trkpt lat="46.67843596242709" lon="5.435563425338154"><ele>222.0</ele><time>2026-03-28T11:05:39Z</time></trkpt><trkpt lat="46.67825117091585" lon="5.435271595733813"><ele>222.0</ele><time>2026-03-28T11:05:40Z</time></trkpt><trkpt lat="46.67806990299656" lon="5.434991240903865"><ele>222.0</ele><time>2026-03-28T11:05:41Z</time></trkpt><trkpt lat="46.67789753478825" lon="5.434720546993553"><ele>220.5</ele><time>2026-03-28T11:05:42Z</time></trkpt><trkpt lat="46.677729255337525" lon="5.4344571050977875"><ele>219.0</ele><time>2026-03-28T11:05:43Z</time></trkpt><trkpt lat="46.677562180526614" lon="5.434206504278942"><ele>219.0</ele><time>2026-03-28T11:05:44Z</time></trkpt><trkpt lat="46.67739923345879" lon="5.433961830477124"><ele>219.0</ele><time>2026-03-28T11:05:45Z</time></trkpt><trkpt lat="46.677234091734434" lon="5.433725089010432"><ele>219.0</ele><time>2026-03-28T11:05:46Z</time></trkpt><trkpt lat="46.67707376284899" lon="5.433494056576014"><ele>219.0</ele><time>2026-03-28T11:05:47Z</time></trkpt><trkpt lat="46.6769091155931" lon="5.433265281769745"><ele>219.0</ele><time>2026-03-28T11:05:48Z</time></trkpt><trkpt lat="46.67673968213609" lon="5.433035445751713"><ele>219.0</ele><time>2026-03-28T11:05:49Z</time></trkpt><trkpt lat="46.67657153550712" lon="5.432809357963448"><ele>218.66666666666669</ele><time>2026-03-28T11:05:50Z</time></trkpt><trkpt lat="46.67640837057026" lon="5.432590053789214"><ele>218.33333333333334</ele><time>2026-03-28T11:05:51Z</time></trkpt><trkpt lat="46.67624184922384" lon="5.432378970329603"><ele>218.0</ele><time>2026-03-28T11:05:52Z</time></trkpt><trkpt lat="46.67607755809009" lon="5.43217474305301"><ele>217.0</ele><time>2026-03-28T11:05:53Z</time></trkpt><trkpt lat="46.67591436950555" lon="5.431972999037931"><ele>216.0</ele><time>2026-03-28T11:05:54Z</time></trkpt><trkpt lat="46.67575691823249" lon="5.43178163887351"><ele>215.0</ele><time>2026-03-28T11:05:55Z</time></trkpt><trkpt lat="46.67560416209071" lon="5.431595341013506"><ele>215.0</ele><time>2026-03-28T11:05:56Z</time></trkpt><trkpt lat="46.6754520396953" lon="5.431413415790254"><ele>215.0</ele><time>2026-03-28T11:05:57Z</time></trkpt><trkpt lat="46.67530467400969" lon="5.43123977923463"><ele>215.0</ele><time>2026-03-28T11:05:58Z</time></trkpt><trkpt lat="46.67515162269219" lon="5.431065270768403"><ele>214.33333333333334</ele><time>2026-03-28T11:05:59Z</time></trkpt><trkpt lat="46.67499929620131" lon="5.4308936236776395"><ele>213.66666666666669</ele><time>2026-03-28T11:06:00Z</time></trkpt><trkpt lat="46.67484371675757" lon="5.430713637408784"><ele>213.0</ele><time>2026-03-28T11:06:01Z</time></trkpt><trkpt lat="46.67468539069654" lon="5.430540101029331"><ele>213.0</ele><time>2026-03-28T11:06:02Z</time></trkpt><trkpt lat="46.67452929525696" lon="5.430366817420688"><ele>213.0</ele><time>2026-03-28T11:06:03Z</time></trkpt><trkpt lat="46.67437077571833" lon="5.430198890337053"><ele>213.0</ele><time>2026-03-28T11:06:04Z</time></trkpt><trkpt lat="46.6742125796262" lon="5.430031070804093"><ele>213.0</ele><time>2026-03-28T11:06:05Z</time></trkpt><trkpt lat="46.674053337142794" lon="5.429863640186828"><ele>213.0</ele><time>2026-03-28T11:06:06Z</time></trkpt><trkpt lat="46.673891191234866" lon="5.429699757760219"><ele>213.0</ele><time>2026-03-28T11:06:07Z</time></trkpt><trkpt lat="46.673723718078854" lon="5.429531626668666"><ele>213.33333333333331</ele><time>2026-03-28T11:06:08Z</time></trkpt><trkpt lat="46.67355252793472" lon="5.429360087094012"><ele>213.66666666666666</ele><time>2026-03-28T11:06:09Z</time></trkpt><trkpt lat="46.67337235924539" lon="5.429186475294212"><ele>214.0</ele><time>2026-03-28T11:06:10Z</time></trkpt><trkpt lat="46.67319199178413" lon="5.429011576126145"><ele>214.0</ele><time>2026-03-28T11:06:11Z</time></trkpt><trkpt lat="46.67300497200086" lon="5.428839459594033"><ele>214.0</ele><time>2026-03-28T11:06:12Z</time></trkpt><trkpt lat="46.672812800305444" lon="5.428662261791394"><ele>214.0</ele><time>2026-03-28T11:06:13Z</time></trkpt><trkpt lat="46.672619690844456" lon="5.428488056710631"><ele>214.0</ele><time>2026-03-28T11:06:14Z</time></trkpt><trkpt lat="46.67242849618166" lon="5.428315534619594"><ele>214.0</ele><time>2026-03-28T11:06:15Z</time></trkpt><trkpt lat="46.67223247707858" lon="5.428140285925961"><ele>214.5</ele><time>2026-03-28T11:06:16Z</time></trkpt><trkpt lat="46.67203729806376" lon="5.427966637401554"><ele>215.0</ele><time>2026-03-28T11:06:17Z</time></trkpt><trkpt lat="46.67184755944944" lon="5.427797907798025"><ele>215.33333333333334</ele><time>2026-03-28T11:06:18Z</time></trkpt><trkpt lat="46.671658007041025" lon="5.427637894194733"><ele>215.66666666666669</ele><time>2026-03-28T11:06:19Z</time></trkpt><trkpt lat="46.67146512074523" lon="5.42747726075532"><ele>216.0</ele><time>2026-03-28T11:06:20Z</time></trkpt><trkpt lat="46.67127359685168" lon="5.427318054600451"><ele>216.33333333333331</ele><time>2026-03-28T11:06:21Z</time></trkpt><trkpt lat="46.67107916169513" lon="5.427164039722182"><ele>216.66666666666666</ele><time>2026-03-28T11:06:22Z</time></trkpt><trkpt lat="46.67088649119908" lon="5.427013684702906"><ele>217.0</ele><time>2026-03-28T11:06:23Z</time></trkpt><trkpt lat="46.67068943402487" lon="5.426867671949367"><ele>217.0</ele><time>2026-03-28T11:06:24Z</time></trkpt><trkpt lat="46.67048915239159" lon="5.4267191031416075"><ele>217.0</ele><time>2026-03-28T11:06:25Z</time></trkpt><trkpt lat="46.67028496104744" lon="5.4265699486155965"><ele>217.0</ele><time>2026-03-28T11:06:26Z</time></trkpt><trkpt lat="46.670079738890365" lon="5.426420600448235"><ele>217.0</ele><time>2026-03-28T11:06:27Z</time></trkpt><trkpt lat="46.66987242523619" lon="5.426277122851282"><ele>217.0</ele><time>2026-03-28T11:06:28Z</time></trkpt><trkpt lat="46.66966435895035" lon="5.42613363094794"><ele>217.0</ele><time>2026-03-28T11:06:29Z</time></trkpt><trkpt lat="46.669458347807776" lon="5.425993820380873"><ele>216.5</ele><time>2026-03-28T11:06:30Z</time></trkpt><trkpt lat="46.66925256458188" lon="5.425859086569984"><ele>216.0</ele><time>2026-03-28T11:06:31Z</time></trkpt><trkpt lat="46.66904306619514" lon="5.425725939784526"><ele>216.0</ele><time>2026-03-28T11:06:32Z</time></trkpt><trkpt lat="46.66883413174653" lon="5.425597048431701"><ele>216.0</ele><time>2026-03-28T11:06:33Z</time></trkpt><trkpt lat="46.66862535753749" lon="5.425468176765788"><ele>215.5</ele><time>2026-03-28T11:06:34Z</time></trkpt><trkpt lat="46.66841209707883" lon="5.42533746361578"><ele>215.0</ele><time>2026-03-28T11:06:35Z</time></trkpt><trkpt lat="46.6681976238902" lon="5.425209080126593"><ele>215.0</ele><time>2026-03-28T11:06:36Z</time></trkpt><trkpt lat="46.66798201365009" lon="5.425078923686374"><ele>215.0</ele><time>2026-03-28T11:06:37Z</time></trkpt><trkpt lat="46.66777055265443" lon="5.424955603495857"><ele>214.5</ele><time>2026-03-28T11:06:38Z</time></trkpt><trkpt lat="46.6675586735161" lon="5.42483346161955"><ele>214.0</ele><time>2026-03-28T11:06:39Z</time></trkpt><trkpt lat="46.667345882501664" lon="5.424715903425414"><ele>213.5</ele><time>2026-03-28T11:06:40Z</time></trkpt><trkpt lat="46.66713470716773" lon="5.424594716229288"><ele>213.0</ele><time>2026-03-28T11:06:41Z</time></trkpt><trkpt lat="46.66692017629547" lon="5.424471683272264"><ele>212.0</ele><time>2026-03-28T11:06:42Z</time></trkpt><trkpt lat="46.666706352358474" lon="5.424350426087444"><ele>211.0</ele><time>2026-03-28T11:06:43Z</time></trkpt><trkpt lat="46.66648535171766" lon="5.4242270083545465"><ele>211.0</ele><time>2026-03-28T11:06:44Z</time></trkpt><trkpt lat="46.666264023678465" lon="5.424096144080627"><ele>211.0</ele><time>2026-03-28T11:06:45Z</time></trkpt><trkpt lat="46.666038721929695" lon="5.423965533058179"><ele>210.5</ele><time>2026-03-28T11:06:46Z</time></trkpt><trkpt lat="46.665815379199586" lon="5.423831987427606"><ele>210.0</ele><time>2026-03-28T11:06:47Z</time></trkpt><trkpt lat="46.66558766982302" lon="5.423690351793956"><ele>210.0</ele><time>2026-03-28T11:06:48Z</time></trkpt><trkpt lat="46.66536242620629" lon="5.423546915386046"><ele>210.0</ele><time>2026-03-28T11:06:49Z</time></trkpt><trkpt lat="46.665143650173526" lon="5.423409377823313"><ele>210.0</ele><time>2026-03-28T11:06:50Z</time></trkpt><trkpt lat="46.664917647448135" lon="5.423268578851924"><ele>210.0</ele><time>2026-03-28T11:06:51Z</time></trkpt><trkpt lat="46.66469430544278" lon="5.42312260144577"><ele>211.0</ele><time>2026-03-28T11:06:52Z</time></trkpt><trkpt lat="46.66447230855667" lon="5.422977272194342"><ele>212.0</ele><time>2026-03-28T11:06:53Z</time></trkpt><trkpt lat="46.66424768646311" lon="5.422823413407823"><ele>210.0</ele><time>2026-03-28T11:06:54Z</time></trkpt><trkpt lat="46.664025534046154" lon="5.422670023220582"><ele>208.0</ele><time>2026-03-28T11:06:55Z</time></trkpt><trkpt lat="46.663802612100135" lon="5.422518829274571"><ele>208.5</ele><time>2026-03-28T11:06:56Z</time></trkpt><trkpt lat="46.66357926312714" lon="5.422362879850068"><ele>209.0</ele><time>2026-03-28T11:06:57Z</time></trkpt><trkpt lat="46.66335087113486" lon="5.422207484369125"><ele>207.5</ele><time>2026-03-28T11:06:58Z</time></trkpt><trkpt lat="46.663120814829114" lon="5.422045739155446"><ele>206.0</ele><time>2026-03-28T11:06:59Z</time></trkpt><trkpt lat="46.66289326421998" lon="5.421879965243617"><ele>207.5</ele><time>2026-03-28T11:07:00Z</time></trkpt><trkpt lat="46.66266439614224" lon="5.4217158010170134"><ele>209.0</ele><time>2026-03-28T11:07:01Z</time></trkpt><trkpt lat="46.662434704661976" lon="5.421543146518194"><ele>209.0</ele><time>2026-03-28T11:07:02Z</time></trkpt><trkpt lat="46.66220224985171" lon="5.421372397199064"><ele>209.0</ele><time>2026-03-28T11:07:03Z</time></trkpt><trkpt lat="46.66197709404441" lon="5.42120191524702"><ele>209.0</ele><time>2026-03-28T11:07:04Z</time></trkpt><trkpt lat="46.661754309447325" lon="5.4210297673368855"><ele>209.0</ele><time>2026-03-28T11:07:05Z</time></trkpt><trkpt lat="46.661526464171175" lon="5.420850879823156"><ele>209.0</ele><time>2026-03-28T11:07:06Z</time></trkpt><trkpt lat="46.66129956407486" lon="5.420670555179979"><ele>209.0</ele><time>2026-03-28T11:07:07Z</time></trkpt><trkpt lat="46.66107588914695" lon="5.420488031526478"><ele>208.5</ele><time>2026-03-28T11:07:08Z</time></trkpt><trkpt lat="46.66085308107303" lon="5.420301322615835"><ele>208.0</ele><time>2026-03-28T11:07:09Z</time></trkpt><trkpt lat="46.660633600864514" lon="5.420118559995401"><ele>208.0</ele><time>2026-03-28T11:07:10Z</time></trkpt><trkpt lat="46.660414196387904" lon="5.4199301378998515"><ele>208.0</ele><time>2026-03-28T11:07:11Z</time></trkpt><trkpt lat="46.66019541396238" lon="5.419739028139466"><ele>209.5</ele><time>2026-03-28T11:07:12Z</time></trkpt><trkpt lat="46.659977246514636" lon="5.419549704614655"><ele>211.0</ele><time>2026-03-28T11:07:13Z</time></trkpt><trkpt lat="46.65975986214834" lon="5.419359167338507"><ele>211.0</ele><time>2026-03-28T11:07:14Z</time></trkpt><trkpt lat="46.65954361793348" lon="5.419165830076853"><ele>211.0</ele><time>2026-03-28T11:07:15Z</time></trkpt><trkpt lat="46.659325640708936" lon="5.4189675735022105"><ele>211.5</ele><time>2026-03-28T11:07:16Z</time></trkpt><trkpt lat="46.659103262180345" lon="5.4187630587438615"><ele>212.0</ele><time>2026-03-28T11:07:17Z</time></trkpt><trkpt lat="46.65888397744809" lon="5.418559190631362"><ele>212.0</ele><time>2026-03-28T11:07:18Z</time></trkpt><trkpt lat="46.658663759917225" lon="5.41835463049378"><ele>212.0</ele><time>2026-03-28T11:07:19Z</time></trkpt><trkpt lat="46.658446046071525" lon="5.418148921989992"><ele>212.5</ele><time>2026-03-28T11:07:20Z</time></trkpt><trkpt lat="46.65822236831224" lon="5.41793539182333"><ele>213.0</ele><time>2026-03-28T11:07:21Z</time></trkpt><trkpt lat="46.65800295835343" lon="5.417725749328927"><ele>213.0</ele><time>2026-03-28T11:07:22Z</time></trkpt><trkpt lat="46.65778686833166" lon="5.417512782915229"><ele>213.0</ele><time>2026-03-28T11:07:23Z</time></trkpt><trkpt lat="46.65757254285892" lon="5.417299586806324"><ele>211.5</ele><time>2026-03-28T11:07:24Z</time></trkpt><trkpt lat="46.65735743244576" lon="5.417084602355503"><ele>210.0</ele><time>2026-03-28T11:07:25Z</time></trkpt><trkpt lat="46.65714288865024" lon="5.416863977919239"><ele>207.5</ele><time>2026-03-28T11:07:26Z</time></trkpt><trkpt lat="46.656926868051805" lon="5.416640289120181"><ele>205.0</ele><time>2026-03-28T11:07:27Z</time></trkpt><trkpt lat="46.656710530289736" lon="5.416410153357708"><ele>206.0</ele><time>2026-03-28T11:07:28Z</time></trkpt><trkpt lat="46.6564937059863" lon="5.416178870656625"><ele>207.0</ele><time>2026-03-28T11:07:29Z</time></trkpt><trkpt lat="46.65628000249018" lon="5.415947636227458"><ele>205.5</ele><time>2026-03-28T11:07:30Z</time></trkpt><trkpt lat="46.65606525038151" lon="5.4157142701333605"><ele>204.0</ele><time>2026-03-28T11:07:31Z</time></trkpt><trkpt lat="46.655855461986256" lon="5.415479432615285"><ele>204.0</ele><time>2026-03-28T11:07:32Z</time></trkpt><trkpt lat="46.65564429676271" lon="5.415239735680764"><ele>204.0</ele><time>2026-03-28T11:07:33Z</time></trkpt><trkpt lat="46.65543322738606" lon="5.415005550825153"><ele>203.5</ele><time>2026-03-28T11:07:34Z</time></trkpt><trkpt lat="46.65522461801522" lon="5.414766365438648"><ele>203.0</ele><time>2026-03-28T11:07:35Z</time></trkpt><trkpt lat="46.65501650533758" lon="5.414523642857696"><ele>203.0</ele><time>2026-03-28T11:07:36Z</time></trkpt><trkpt lat="46.65480981295141" lon="5.414280257114786"><ele>203.0</ele><time>2026-03-28T11:07:37Z</time></trkpt><trkpt lat="46.65460017429278" lon="5.414031057546373"><ele>203.0</ele><time>2026-03-28T11:07:38Z</time></trkpt><trkpt lat="46.654393289213516" lon="5.413783579869117"><ele>203.0</ele><time>2026-03-28T11:07:39Z</time></trkpt><trkpt lat="46.65418872278516" lon="5.413537698272652"><ele>203.0</ele><time>2026-03-28T11:07:40Z</time></trkpt><trkpt lat="46.65398391218559" lon="5.413286272176196"><ele>203.0</ele><time>2026-03-28T11:07:41Z</time></trkpt><trkpt lat="46.653780774462234" lon="5.413033533673235"><ele>203.5</ele><time>2026-03-28T11:07:42Z</time></trkpt><trkpt lat="46.653579937482206" lon="5.412780665858788"><ele>204.0</ele><time>2026-03-28T11:07:43Z</time></trkpt><trkpt lat="46.653378947797314" lon="5.412522290126357"><ele>204.0</ele><time>2026-03-28T11:07:44Z</time></trkpt><trkpt lat="46.65317850265096" lon="5.412264128610543"><ele>204.0</ele><time>2026-03-28T11:07:45Z</time></trkpt><trkpt lat="46.65297916738432" lon="5.412004726700405"><ele>206.0</ele><time>2026-03-28T11:07:46Z</time></trkpt><trkpt lat="46.652782650669096" lon="5.411743065590913"><ele>208.0</ele><time>2026-03-28T11:07:47Z</time></trkpt><trkpt lat="46.65258850815623" lon="5.41148112279933"><ele>207.5</ele><time>2026-03-28T11:07:48Z</time></trkpt><trkpt lat="46.652396860779774" lon="5.4112211598052"><ele>207.0</ele><time>2026-03-28T11:07:49Z</time></trkpt><trkpt lat="46.652211787126596" lon="5.410966288187229"><ele>207.0</ele><time>2026-03-28T11:07:50Z</time></trkpt><trkpt lat="46.652028209412535" lon="5.410714447279237"><ele>207.0</ele><time>2026-03-28T11:07:51Z</time></trkpt><trkpt lat="46.65184808196506" lon="5.410461039958387"><ele>207.5</ele><time>2026-03-28T11:07:52Z</time></trkpt><trkpt lat="46.651670543937676" lon="5.410210512586707"><ele>208.0</ele><time>2026-03-28T11:07:53Z</time></trkpt><trkpt lat="46.65149650105563" lon="5.409960568074096"><ele>208.0</ele><time>2026-03-28T11:07:54Z</time></trkpt><trkpt lat="46.651326062305756" lon="5.409710525015553"><ele>208.0</ele><time>2026-03-28T11:07:55Z</time></trkpt><trkpt lat="46.651152770441506" lon="5.409460931197245"><ele>206.5</ele><time>2026-03-28T11:07:56Z</time></trkpt><trkpt lat="46.65097771975714" lon="5.409211826676339"><ele>205.0</ele><time>2026-03-28T11:07:57Z</time></trkpt><trkpt lat="46.65080365884783" lon="5.408962971039858"><ele>203.5</ele><time>2026-03-28T11:07:58Z</time></trkpt><trkpt lat="46.65063052252615" lon="5.408718041430988"><ele>202.0</ele><time>2026-03-28T11:07:59Z</time></trkpt><trkpt lat="46.65045616618615" lon="5.408472962775368"><ele>201.5</ele><time>2026-03-28T11:08:00Z</time></trkpt><trkpt lat="46.65028232975781" lon="5.4082220663955045"><ele>201.0</ele><time>2026-03-28T11:08:01Z</time></trkpt><trkpt lat="46.65010628476687" lon="5.407968253452255"><ele>201.0</ele><time>2026-03-28T11:08:02Z</time></trkpt><trkpt lat="46.64992545499438" lon="5.40771475679459"><ele>201.0</ele><time>2026-03-28T11:08:03Z</time></trkpt><trkpt lat="46.64974651988922" lon="5.407457656814104"><ele>201.0</ele><time>2026-03-28T11:08:04Z</time></trkpt><trkpt lat="46.64956429449749" lon="5.407200830815106"><ele>201.0</ele><time>2026-03-28T11:08:05Z</time></trkpt><trkpt lat="46.6493778707218" lon="5.406946940682989"><ele>202.0</ele><time>2026-03-28T11:08:06Z</time></trkpt><trkpt lat="46.6491915835468" lon="5.406688796303813"><ele>203.0</ele><time>2026-03-28T11:08:07Z</time></trkpt><trkpt lat="46.64900046625544" lon="5.406434938971052"><ele>203.0</ele><time>2026-03-28T11:08:08Z</time></trkpt><trkpt lat="46.64880994598758" lon="5.406180773296683"><ele>203.0</ele><time>2026-03-28T11:08:09Z</time></trkpt><trkpt lat="46.648616774982756" lon="5.405922251048396"><ele>203.0</ele><time>2026-03-28T11:08:10Z</time></trkpt><trkpt lat="46.648424235159645" lon="5.405669381392643"><ele>203.0</ele><time>2026-03-28T11:08:11Z</time></trkpt><trkpt lat="46.648227193152145" lon="5.405417538720758"><ele>202.5</ele><time>2026-03-28T11:08:12Z</time></trkpt><trkpt lat="46.64802562962995" lon="5.405170825321532"><ele>202.0</ele><time>2026-03-28T11:08:13Z</time></trkpt><trkpt lat="46.647820462717235" lon="5.404920656393494"><ele>202.0</ele><time>2026-03-28T11:08:14Z</time></trkpt><trkpt lat="46.6476170792856" lon="5.4046763781171485"><ele>202.0</ele><time>2026-03-28T11:08:15Z</time></trkpt><trkpt lat="46.64740915291292" lon="5.404436801418389"><ele>202.5</ele><time>2026-03-28T11:08:16Z</time></trkpt><trkpt lat="46.64720305330359" lon="5.404202053059628"><ele>203.0</ele><time>2026-03-28T11:08:17Z</time></trkpt><trkpt lat="46.646994293095226" lon="5.4039757149949335"><ele>202.0</ele><time>2026-03-28T11:08:18Z</time></trkpt><trkpt lat="46.646782753832355" lon="5.403750118349001"><ele>201.0</ele><time>2026-03-28T11:08:19Z</time></trkpt><trkpt lat="46.64656684521189" lon="5.403524138031427"><ele>201.0</ele><time>2026-03-28T11:08:20Z</time></trkpt><trkpt lat="46.64634886515347" lon="5.403306664829175"><ele>201.0</ele><time>2026-03-28T11:08:21Z</time></trkpt><trkpt lat="46.64612983355331" lon="5.4030804471712965"><ele>203.0</ele><time>2026-03-28T11:08:22Z</time></trkpt><trkpt lat="46.64590630776999" lon="5.402857910490884"><ele>205.0</ele><time>2026-03-28T11:08:23Z</time></trkpt><trkpt lat="46.64568128773611" lon="5.402641142251252"><ele>205.0</ele><time>2026-03-28T11:08:24Z</time></trkpt><trkpt lat="46.64545669653477" lon="5.402432991185852"><ele>205.0</ele><time>2026-03-28T11:08:25Z</time></trkpt><trkpt lat="46.64523485005611" lon="5.402215438594693"><ele>206.5</ele><time>2026-03-28T11:08:26Z</time></trkpt><trkpt lat="46.64501304280713" lon="5.402001270468288"><ele>208.0</ele><time>2026-03-28T11:08:27Z</time></trkpt><trkpt lat="46.64478978078021" lon="5.401793249394972"><ele>208.0</ele><time>2026-03-28T11:08:28Z</time></trkpt><trkpt lat="46.64456341034056" lon="5.401595476854201"><ele>208.0</ele><time>2026-03-28T11:08:29Z</time></trkpt><trkpt lat="46.64433308640564" lon="5.40139927374688"><ele>210.5</ele><time>2026-03-28T11:08:30Z</time></trkpt><trkpt lat="46.644099998237365" lon="5.401209115716863"><ele>213.0</ele><time>2026-03-28T11:08:31Z</time></trkpt><trkpt lat="46.643863970197906" lon="5.401021834368012"><ele>213.0</ele><time>2026-03-28T11:08:32Z</time></trkpt><trkpt lat="46.643627225000095" lon="5.400837632905803"><ele>213.0</ele><time>2026-03-28T11:08:33Z</time></trkpt><trkpt lat="46.64338985554077" lon="5.4006509119482535"><ele>213.5</ele><time>2026-03-28T11:08:34Z</time></trkpt><trkpt lat="46.64315030166593" lon="5.400459896352713"><ele>214.0</ele><time>2026-03-28T11:08:35Z</time></trkpt><trkpt lat="46.6429122106743" lon="5.400273066366332"><ele>212.0</ele><time>2026-03-28T11:08:36Z</time></trkpt><trkpt lat="46.64267601361476" lon="5.400086111127771"><ele>210.0</ele><time>2026-03-28T11:08:37Z</time></trkpt><trkpt lat="46.642440378868834" lon="5.399897853227907"><ele>210.0</ele><time>2026-03-28T11:08:38Z</time></trkpt><trkpt lat="46.64220133968279" lon="5.399706197797225"><ele>210.0</ele><time>2026-03-28T11:08:39Z</time></trkpt><trkpt lat="46.64196710497408" lon="5.399507600825832"><ele>209.5</ele><time>2026-03-28T11:08:40Z</time></trkpt><trkpt lat="46.64173511169223" lon="5.399313193046356"><ele>209.0</ele><time>2026-03-28T11:08:41Z</time></trkpt><trkpt lat="46.641501004327324" lon="5.399111043990369"><ele>209.0</ele><time>2026-03-28T11:08:42Z</time></trkpt><trkpt lat="46.64126799454358" lon="5.398903393600458"><ele>209.0</ele><time>2026-03-28T11:08:43Z</time></trkpt><trkpt lat="46.64103724994836" lon="5.3986889136933085"><ele>210.0</ele><time>2026-03-28T11:08:44Z</time></trkpt><trkpt lat="46.640807066306245" lon="5.398467681034765"><ele>211.0</ele><time>2026-03-28T11:08:45Z</time></trkpt><trkpt lat="46.64058436461767" lon="5.398242869697696"><ele>211.0</ele><time>2026-03-28T11:08:46Z</time></trkpt><trkpt lat="46.6403645923383" lon="5.398008292119296"><ele>211.0</ele><time>2026-03-28T11:08:47Z</time></trkpt><trkpt lat="46.64014558231351" lon="5.397771007590337"><ele>212.5</ele><time>2026-03-28T11:08:48Z</time></trkpt><trkpt lat="46.63993231418416" lon="5.397534777744013"><ele>214.0</ele><time>2026-03-28T11:08:49Z</time></trkpt><trkpt lat="46.639717514632245" lon="5.397298618674083"><ele>214.0</ele><time>2026-03-28T11:08:50Z</time></trkpt><trkpt lat="46.63950517005779" lon="5.397057233296288"><ele>214.0</ele><time>2026-03-28T11:08:51Z</time></trkpt><trkpt lat="46.63929523609412" lon="5.396817842112366"><ele>214.0</ele><time>2026-03-28T11:08:52Z</time></trkpt><trkpt lat="46.63908911877543" lon="5.396580615769313"><ele>214.0</ele><time>2026-03-28T11:08:53Z</time></trkpt><trkpt lat="46.638892915173045" lon="5.396348961512468"><ele>214.0</ele><time>2026-03-28T11:08:54Z</time></trkpt><trkpt lat="46.63870135153531" lon="5.396121262984642"><ele>214.0</ele><time>2026-03-28T11:08:55Z</time></trkpt><trkpt lat="46.638518485553774" lon="5.395902291536981"><ele>214.33333333333331</ele><time>2026-03-28T11:08:56Z</time></trkpt><trkpt lat="46.63834869304762" lon="5.395698764579264"><ele>214.66666666666669</ele><time>2026-03-28T11:08:57Z</time></trkpt><trkpt lat="46.638181804852366" lon="5.39550249931621"><ele>215.0</ele><time>2026-03-28T11:08:58Z</time></trkpt><trkpt lat="46.63801917594814" lon="5.395314153021835"><ele>215.66666666666669</ele><time>2026-03-28T11:08:59Z</time></trkpt><trkpt lat="46.637858238348265" lon="5.395129513614097"><ele>216.33333333333331</ele><time>2026-03-28T11:09:00Z</time></trkpt><trkpt lat="46.637691227330286" lon="5.394939004751735"><ele>217.0</ele><time>2026-03-28T11:09:01Z</time></trkpt><trkpt lat="46.63752216118216" lon="5.3947489665575725"><ele>217.33333333333331</ele><time>2026-03-28T11:09:02Z</time></trkpt><trkpt lat="46.63734782246214" lon="5.394563055613493"><ele>217.66666666666669</ele><time>2026-03-28T11:09:03Z</time></trkpt><trkpt lat="46.63716757663447" lon="5.394374933625845"><ele>218.0</ele><time>2026-03-28T11:09:04Z</time></trkpt><trkpt lat="46.636982565697814" lon="5.394181123757579"><ele>215.5</ele><time>2026-03-28T11:09:05Z</time></trkpt><trkpt lat="46.63679209667708" lon="5.393986877151252"><ele>213.0</ele><time>2026-03-28T11:09:06Z</time></trkpt><trkpt lat="46.63659829312995" lon="5.39379569420436"><ele>212.0</ele><time>2026-03-28T11:09:07Z</time></trkpt><trkpt lat="46.636396988856006" lon="5.3936030386481235"><ele>211.0</ele><time>2026-03-28T11:09:08Z</time></trkpt><trkpt lat="46.6361971516483" lon="5.393415789042791"><ele>211.5</ele><time>2026-03-28T11:09:09Z</time></trkpt><trkpt lat="46.63599512165277" lon="5.3932352400259544"><ele>212.0</ele><time>2026-03-28T11:09:10Z</time></trkpt><trkpt lat="46.635788705957864" lon="5.393053055096918"><ele>215.0</ele><time>2026-03-28T11:09:11Z</time></trkpt><trkpt lat="46.635575675795195" lon="5.392866434374492"><ele>218.0</ele><time>2026-03-28T11:09:12Z</time></trkpt><trkpt lat="46.635357109194075" lon="5.392682006143157"><ele>216.0</ele><time>2026-03-28T11:09:13Z</time></trkpt><trkpt lat="46.63514129390066" lon="5.392498221942916"><ele>214.0</ele><time>2026-03-28T11:09:14Z</time></trkpt><trkpt lat="46.63492794124813" lon="5.392321039543009"><ele>217.5</ele><time>2026-03-28T11:09:15Z</time></trkpt><trkpt lat="46.63471611136066" lon="5.39214669784186"><ele>221.0</ele><time>2026-03-28T11:09:16Z</time></trkpt><trkpt lat="46.63450404787065" lon="5.391973834039606"><ele>216.0</ele><time>2026-03-28T11:09:17Z</time></trkpt><trkpt lat="46.634295561883796" lon="5.391807768040066"><ele>211.0</ele><time>2026-03-28T11:09:18Z</time></trkpt><trkpt lat="46.63409112572937" lon="5.391643406277358"><ele>211.0</ele><time>2026-03-28T11:09:19Z</time></trkpt><trkpt lat="46.633884584169145" lon="5.3914802164022015"><ele>211.0</ele><time>2026-03-28T11:09:20Z</time></trkpt><trkpt lat="46.63367973488505" lon="5.391316167038847"><ele>209.5</ele><time>2026-03-28T11:09:21Z</time></trkpt><trkpt lat="46.63346846429081" lon="5.391148253048686"><ele>208.0</ele><time>2026-03-28T11:09:22Z</time></trkpt><trkpt lat="46.633256956686154" lon="5.39097670651278"><ele>208.0</ele><time>2026-03-28T11:09:23Z</time></trkpt><trkpt lat="46.63304270828965" lon="5.390808722839547"><ele>208.0</ele><time>2026-03-28T11:09:24Z</time></trkpt><trkpt lat="46.63282465263279" lon="5.390634484646345"><ele>206.0</ele><time>2026-03-28T11:09:25Z</time></trkpt><trkpt lat="46.632602058413575" lon="5.390467399361682"><ele>204.0</ele><time>2026-03-28T11:09:26Z</time></trkpt><trkpt lat="46.63238191030404" lon="5.390301308289025"><ele>204.0</ele><time>2026-03-28T11:09:27Z</time></trkpt><trkpt lat="46.632162966656985" lon="5.3901446118991405"><ele>204.0</ele><time>2026-03-28T11:09:28Z</time></trkpt><trkpt lat="46.63194509216358" lon="5.389980961940477"><ele>203.0</ele><time>2026-03-28T11:09:29Z</time></trkpt><trkpt lat="46.63172902227766" lon="5.389816159453906"><ele>202.0</ele><time>2026-03-28T11:09:30Z</time></trkpt><trkpt lat="46.63151695296366" lon="5.389651548249256"><ele>202.0</ele><time>2026-03-28T11:09:31Z</time></trkpt><trkpt lat="46.63130477439166" lon="5.3894895331087005"><ele>202.0</ele><time>2026-03-28T11:09:32Z</time></trkpt><trkpt lat="46.631094422380116" lon="5.389320478296841"><ele>201.0</ele><time>2026-03-28T11:09:33Z</time></trkpt><trkpt lat="46.630881782462225" lon="5.389156621206815"><ele>200.0</ele><time>2026-03-28T11:09:34Z</time></trkpt><trkpt lat="46.630671111702185" lon="5.388991009464752"><ele>199.5</ele><time>2026-03-28T11:09:35Z</time></trkpt><trkpt lat="46.630462282805674" lon="5.388826719016465"><ele>199.0</ele><time>2026-03-28T11:09:36Z</time></trkpt><trkpt lat="46.63025043813485" lon="5.3886547102693605"><ele>198.0</ele><time>2026-03-28T11:09:37Z</time></trkpt><trkpt lat="46.63004003163721" lon="5.388482088748912"><ele>197.0</ele><time>2026-03-28T11:09:38Z</time></trkpt><trkpt lat="46.629830843765966" lon="5.388311707173136"><ele>197.0</ele><time>2026-03-28T11:09:39Z</time></trkpt><trkpt lat="46.62962401828726" lon="5.388132044416139"><ele>197.0</ele><time>2026-03-28T11:09:40Z</time></trkpt><trkpt lat="46.62941109368213" lon="5.387952302186929"><ele>196.5</ele><time>2026-03-28T11:09:41Z</time></trkpt><trkpt lat="46.62919945694877" lon="5.387766021922666"><ele>196.0</ele><time>2026-03-28T11:09:42Z</time></trkpt><trkpt lat="46.628986237881364" lon="5.387574710718605"><ele>196.0</ele><time>2026-03-28T11:09:43Z</time></trkpt><trkpt lat="46.62877546258125" lon="5.387379318508456"><ele>196.0</ele><time>2026-03-28T11:09:44Z</time></trkpt><trkpt lat="46.62856845034266" lon="5.387178836666101"><ele>197.0</ele><time>2026-03-28T11:09:45Z</time></trkpt><trkpt lat="46.628360122986784" lon="5.386979629730415"><ele>198.0</ele><time>2026-03-28T11:09:46Z</time></trkpt><trkpt lat="46.62815551187927" lon="5.386774284585519"><ele>198.0</ele><time>2026-03-28T11:09:47Z</time></trkpt><trkpt lat="46.62795228499831" lon="5.386568521099031"><ele>198.0</ele><time>2026-03-28T11:09:48Z</time></trkpt><trkpt lat="46.62775005818186" lon="5.38635605666699"><ele>198.5</ele><time>2026-03-28T11:09:49Z</time></trkpt><trkpt lat="46.62754862961886" lon="5.386139604448825"><ele>199.0</ele><time>2026-03-28T11:09:50Z</time></trkpt><trkpt lat="46.627345976473634" lon="5.3859225689460395"><ele>199.0</ele><time>2026-03-28T11:09:51Z</time></trkpt><trkpt lat="46.62714637867675" lon="5.385701318185065"><ele>199.0</ele><time>2026-03-28T11:09:52Z</time></trkpt><trkpt lat="46.626950101584214" lon="5.385480396018869"><ele>198.0</ele><time>2026-03-28T11:09:53Z</time></trkpt><trkpt lat="46.626752616051654" lon="5.385253478661303"><ele>197.0</ele><time>2026-03-28T11:09:54Z</time></trkpt><trkpt lat="46.62656042898681" lon="5.385024930126665"><ele>197.0</ele><time>2026-03-28T11:09:55Z</time></trkpt><trkpt lat="46.62636783497195" lon="5.384797273581458"><ele>197.0</ele><time>2026-03-28T11:09:56Z</time></trkpt><trkpt lat="46.62617678829834" lon="5.384562253521669"><ele>197.5</ele><time>2026-03-28T11:09:57Z</time></trkpt><trkpt lat="46.62598926556058" lon="5.384331067337964"><ele>198.0</ele><time>2026-03-28T11:09:58Z</time></trkpt><trkpt lat="46.62580155765364" lon="5.384095800858815"><ele>198.0</ele><time>2026-03-28T11:09:59Z</time></trkpt><trkpt lat="46.62561335030946" lon="5.383850606546645"><ele>198.0</ele><time>2026-03-28T11:10:00Z</time></trkpt><trkpt lat="46.62542467719765" lon="5.383602524623171"><ele>197.5</ele><time>2026-03-28T11:10:01Z</time></trkpt><trkpt lat="46.62524077887417" lon="5.383351935782153"><ele>197.0</ele><time>2026-03-28T11:10:02Z</time></trkpt><trkpt lat="46.62505504384124" lon="5.383099841959389"><ele>198.0</ele><time>2026-03-28T11:10:03Z</time></trkpt><trkpt lat="46.624873538964344" lon="5.382846599573572"><ele>199.0</ele><time>2026-03-28T11:10:04Z</time></trkpt><trkpt lat="46.62469676431132" lon="5.3825926013599865"><ele>199.0</ele><time>2026-03-28T11:10:05Z</time></trkpt><trkpt lat="46.62451994219841" lon="5.382333714532611"><ele>199.0</ele><time>2026-03-28T11:10:06Z</time></trkpt><trkpt lat="46.62434281459112" lon="5.382071038724517"><ele>198.0</ele><time>2026-03-28T11:10:07Z</time></trkpt><trkpt lat="46.62416715306754" lon="5.3818037508590315"><ele>197.0</ele><time>2026-03-28T11:10:08Z</time></trkpt><trkpt lat="46.623995540850935" lon="5.381537237627829"><ele>197.5</ele><time>2026-03-28T11:10:09Z</time></trkpt><trkpt lat="46.62382559269984" lon="5.381269363880882"><ele>198.0</ele><time>2026-03-28T11:10:10Z</time></trkpt><trkpt lat="46.623658700629896" lon="5.381002581230228"><ele>198.0</ele><time>2026-03-28T11:10:11Z</time></trkpt><trkpt lat="46.623492311921325" lon="5.380734189705724"><ele>198.0</ele><time>2026-03-28T11:10:12Z</time></trkpt><trkpt lat="46.62332756980881" lon="5.380463254644268"><ele>198.0</ele><time>2026-03-28T11:10:13Z</time></trkpt><trkpt lat="46.623167573632024" lon="5.38019504636167"><ele>198.0</ele><time>2026-03-28T11:10:14Z</time></trkpt><trkpt lat="46.62301097805418" lon="5.379930918493979"><ele>198.0</ele><time>2026-03-28T11:10:15Z</time></trkpt><trkpt lat="46.622861111827135" lon="5.37967600023504"><ele>198.0</ele><time>2026-03-28T11:10:16Z</time></trkpt><trkpt lat="46.62272238990658" lon="5.379440586823666"><ele>198.0</ele><time>2026-03-28T11:10:17Z</time></trkpt><trkpt lat="46.622585995758186" lon="5.379209589243662"><ele>197.66666666666669</ele><time>2026-03-28T11:10:18Z</time></trkpt><trkpt lat="46.62245238739339" lon="5.378980229679736"><ele>197.33333333333334</ele><time>2026-03-28T11:10:19Z</time></trkpt><trkpt lat="46.62231467495302" lon="5.378748597946025"><ele>197.0</ele><time>2026-03-28T11:10:20Z</time></trkpt><trkpt lat="46.62217479523643" lon="5.378512514594809"><ele>197.0</ele><time>2026-03-28T11:10:21Z</time></trkpt><trkpt lat="46.622035609008" lon="5.37827623889958"><ele>197.0</ele><time>2026-03-28T11:10:22Z</time></trkpt><trkpt lat="46.62189502597048" lon="5.378039679597656"><ele>197.0</ele><time>2026-03-28T11:10:23Z</time></trkpt><trkpt lat="46.621754410338575" lon="5.377802788077242"><ele>196.66666666666669</ele><time>2026-03-28T11:10:24Z</time></trkpt><trkpt lat="46.621614243512006" lon="5.377565957129988"><ele>196.33333333333331</ele><time>2026-03-28T11:10:25Z</time></trkpt><trkpt lat="46.62146981195649" lon="5.377329749553048"><ele>196.0</ele><time>2026-03-28T11:10:26Z</time></trkpt><trkpt lat="46.62132541438509" lon="5.377094278185391"><ele>195.66666666666666</ele><time>2026-03-28T11:10:27Z</time></trkpt><trkpt lat="46.62118072799287" lon="5.37686595016972"><ele>195.33333333333331</ele><time>2026-03-28T11:10:28Z</time></trkpt><trkpt lat="46.62103827471332" lon="5.3766343912898185"><ele>195.0</ele><time>2026-03-28T11:10:29Z</time></trkpt><trkpt lat="46.62089714987357" lon="5.376407021160982"><ele>195.0</ele><time>2026-03-28T11:10:30Z</time></trkpt><trkpt lat="46.62075439883042" lon="5.376181248583901"><ele>195.0</ele><time>2026-03-28T11:10:31Z</time></trkpt><trkpt lat="46.62061405988263" lon="5.37596594798659"><ele>195.0</ele><time>2026-03-28T11:10:32Z</time></trkpt><trkpt lat="46.62047224830607" lon="5.3757493106046885"><ele>195.0</ele><time>2026-03-28T11:10:33Z</time></trkpt><trkpt lat="46.6203271540623" lon="5.375535424510027"><ele>195.0</ele><time>2026-03-28T11:10:34Z</time></trkpt><trkpt lat="46.62018174611415" lon="5.3753204077505075"><ele>195.0</ele><time>2026-03-28T11:10:35Z</time></trkpt><trkpt lat="46.620031818261175" lon="5.375101482279505"><ele>195.0</ele><time>2026-03-28T11:10:36Z</time></trkpt><trkpt lat="46.61987671639231" lon="5.374883026390735"><ele>195.0</ele><time>2026-03-28T11:10:37Z</time></trkpt><trkpt lat="46.619723665075135" lon="5.374666216621143"><ele>195.0</ele><time>2026-03-28T11:10:38Z</time></trkpt><trkpt lat="46.61956620060583" lon="5.374447179275302"><ele>194.33333333333331</ele><time>2026-03-28T11:10:39Z</time></trkpt><trkpt lat="46.61941014201669" lon="5.3742342162589996"><ele>193.66666666666666</ele><time>2026-03-28T11:10:40Z</time></trkpt><trkpt lat="46.61925275568892" lon="5.37402206823324"><ele>193.0</ele><time>2026-03-28T11:10:41Z</time></trkpt><trkpt lat="46.61909407428585" lon="5.37381477968714"><ele>193.0</ele><time>2026-03-28T11:10:42Z</time></trkpt><trkpt lat="46.618936550861925" lon="5.373609916605906"><ele>193.0</ele><time>2026-03-28T11:10:43Z</time></trkpt><trkpt lat="46.61877707507903" lon="5.373405652356216"><ele>193.0</ele><time>2026-03-28T11:10:44Z</time></trkpt><trkpt lat="46.6186164465391" lon="5.373208043311247"><ele>192.33333333333331</ele><time>2026-03-28T11:10:45Z</time></trkpt><trkpt lat="46.6184526114912" lon="5.3730102155354205"><ele>191.66666666666666</ele><time>2026-03-28T11:10:46Z</time></trkpt><trkpt lat="46.61828915311368" lon="5.372813019746859"><ele>191.0</ele><time>2026-03-28T11:10:47Z</time></trkpt><trkpt lat="46.618124319572686" lon="5.372618425590015"><ele>191.0</ele><time>2026-03-28T11:10:48Z</time></trkpt><trkpt lat="46.6179581623439" lon="5.372427866016556"><ele>191.0</ele><time>2026-03-28T11:10:49Z</time></trkpt><trkpt lat="46.61778996628232" lon="5.372238267746043"><ele>191.0</ele><time>2026-03-28T11:10:50Z</time></trkpt><trkpt lat="46.617616838" lon="5.372052204855738"><ele>190.0</ele><time>2026-03-28T11:10:51Z</time></trkpt><trkpt lat="46.61744623698001" lon="5.371863096535788"><ele>189.0</ele><time>2026-03-28T11:10:52Z</time></trkpt><trkpt lat="46.61727228276566" lon="5.371681814884609"><ele>188.0</ele><time>2026-03-28T11:10:53Z</time></trkpt><trkpt lat="46.61709857207253" lon="5.371506913603241"><ele>188.66666666666666</ele><time>2026-03-28T11:10:54Z</time></trkpt><trkpt lat="46.616921327424954" lon="5.371330885761205"><ele>189.33333333333334</ele><time>2026-03-28T11:10:55Z</time></trkpt><trkpt lat="46.61674763673474" lon="5.371154962065273"><ele>190.0</ele><time>2026-03-28T11:10:56Z</time></trkpt><trkpt lat="46.616571392216194" lon="5.370979758432929"><ele>190.0</ele><time>2026-03-28T11:10:57Z</time></trkpt><trkpt lat="46.61639426712508" lon="5.370813044421431"><ele>190.0</ele><time>2026-03-28T11:10:58Z</time></trkpt><trkpt lat="46.61621523542188" lon="5.370650578784752"><ele>190.0</ele><time>2026-03-28T11:10:59Z</time></trkpt><trkpt lat="46.61604261627095" lon="5.370491192011574"><ele>190.33333333333334</ele><time>2026-03-28T11:11:00Z</time></trkpt><trkpt lat="46.61587232883026" lon="5.370330965203112"><ele>190.66666666666666</ele><time>2026-03-28T11:11:01Z</time></trkpt><trkpt lat="46.61570501921154" lon="5.370186814518662"><ele>191.0</ele><time>2026-03-28T11:11:02Z</time></trkpt><trkpt lat="46.61553869437441" lon="5.370039412511925"><ele>191.0</ele><time>2026-03-28T11:11:03Z</time></trkpt><trkpt lat="46.61536645287134" lon="5.369890509904504"><ele>191.0</ele><time>2026-03-28T11:11:04Z</time></trkpt><trkpt lat="46.615189877558414" lon="5.369744165138446"><ele>191.0</ele><time>2026-03-28T11:11:05Z</time></trkpt><trkpt lat="46.61501747527588" lon="5.369599564974605"><ele>190.66666666666666</ele><time>2026-03-28T11:11:06Z</time></trkpt><trkpt lat="46.61484264572058" lon="5.369450429905444"><ele>190.33333333333334</ele><time>2026-03-28T11:11:07Z</time></trkpt><trkpt lat="46.614672062567706" lon="5.369303092261034"><ele>190.0</ele><time>2026-03-28T11:11:08Z</time></trkpt><trkpt lat="46.61450037365263" lon="5.369164853876088"><ele>190.66666666666669</ele><time>2026-03-28T11:11:09Z</time></trkpt><trkpt lat="46.61432895981328" lon="5.369024345423385"><ele>191.33333333333334</ele><time>2026-03-28T11:11:10Z</time></trkpt><trkpt lat="46.614156082080875" lon="5.368883692674364"><ele>192.0</ele><time>2026-03-28T11:11:11Z</time></trkpt><trkpt lat="46.61397849321387" lon="5.368749113894128"><ele>192.0</ele><time>2026-03-28T11:11:12Z</time></trkpt><trkpt lat="46.61380073397927" lon="5.368611090978777"><ele>192.0</ele><time>2026-03-28T11:11:13Z</time></trkpt><trkpt lat="46.613621705149306" lon="5.368481404695988"><ele>192.0</ele><time>2026-03-28T11:11:14Z</time></trkpt><trkpt lat="46.613441920570295" lon="5.368354400379349"><ele>191.66666666666666</ele><time>2026-03-28T11:11:15Z</time></trkpt><trkpt lat="46.61325751630991" lon="5.368225146780972"><ele>191.33333333333331</ele><time>2026-03-28T11:11:16Z</time></trkpt><trkpt lat="46.61307317260259" lon="5.368098455474029"><ele>191.0</ele><time>2026-03-28T11:11:17Z</time></trkpt><trkpt lat="46.612884381230344" lon="5.367970686580343"><ele>190.66666666666666</ele><time>2026-03-28T11:11:18Z</time></trkpt><trkpt lat="46.61269608695652" lon="5.367843582837832"><ele>190.33333333333334</ele><time>2026-03-28T11:11:19Z</time></trkpt><trkpt lat="46.61250532297232" lon="5.3677208286843054"><ele>190.0</ele><time>2026-03-28T11:11:20Z</time></trkpt><trkpt lat="46.61231160816465" lon="5.367596356033541"><ele>190.0</ele><time>2026-03-28T11:11:21Z</time></trkpt><trkpt lat="46.612112671935805" lon="5.36747073990565"><ele>190.0</ele><time>2026-03-28T11:11:22Z</time></trkpt><trkpt lat="46.611908267516576" lon="5.367346886196567"><ele>190.0</ele><time>2026-03-28T11:11:23Z</time></trkpt><trkpt lat="46.61169867631755" lon="5.367223612639942"><ele>189.5</ele><time>2026-03-28T11:11:24Z</time></trkpt><trkpt lat="46.611486651139046" lon="5.367098690797114"><ele>189.0</ele><time>2026-03-28T11:11:25Z</time></trkpt><trkpt lat="46.61127456842766" lon="5.366976666462797"><ele>189.5</ele><time>2026-03-28T11:11:26Z</time></trkpt><trkpt lat="46.61105851928947" lon="5.366856555358798"><ele>190.0</ele><time>2026-03-28T11:11:27Z</time></trkpt><trkpt lat="46.610839950224445" lon="5.366739092504441"><ele>190.0</ele><time>2026-03-28T11:11:28Z</time></trkpt><trkpt lat="46.61062014174509" lon="5.366627600524609"><ele>190.0</ele><time>2026-03-28T11:11:29Z</time></trkpt><trkpt lat="46.61039782966029" lon="5.366511891604876"><ele>189.5</ele><time>2026-03-28T11:11:30Z</time></trkpt><trkpt lat="46.610171500757" lon="5.366397647742869"><ele>189.0</ele><time>2026-03-28T11:11:31Z</time></trkpt><trkpt lat="46.60994496700586" lon="5.366286459062682"><ele>188.5</ele><time>2026-03-28T11:11:32Z</time></trkpt><trkpt lat="46.60971526498553" lon="5.366173933152319"><ele>188.0</ele><time>2026-03-28T11:11:33Z</time></trkpt><trkpt lat="46.609477788904826" lon="5.366058711336714"><ele>188.0</ele><time>2026-03-28T11:11:34Z</time></trkpt><trkpt lat="46.60923600485082" lon="5.365942522820028"><ele>188.0</ele><time>2026-03-28T11:11:35Z</time></trkpt><trkpt lat="46.60899706425507" lon="5.365830131036918"><ele>188.0</ele><time>2026-03-28T11:11:36Z</time></trkpt><trkpt lat="46.608759583102724" lon="5.365718010839837"><ele>188.0</ele><time>2026-03-28T11:11:37Z</time></trkpt><trkpt lat="46.60852163698079" lon="5.3656027397120365"><ele>188.0</ele><time>2026-03-28T11:11:38Z</time></trkpt><trkpt lat="46.608283663402986" lon="5.365486438281521"><ele>188.0</ele><time>2026-03-28T11:11:39Z</time></trkpt><trkpt lat="46.608043896460245" lon="5.3653697693540785"><ele>187.5</ele><time>2026-03-28T11:11:40Z</time></trkpt><trkpt lat="46.60780349106153" lon="5.365257556297756"><ele>187.0</ele><time>2026-03-28T11:11:41Z</time></trkpt><trkpt lat="46.60756455466512" lon="5.3651430346343085"><ele>187.0</ele><time>2026-03-28T11:11:42Z</time></trkpt><trkpt lat="46.60732708508015" lon="5.365026009206283"><ele>187.0</ele><time>2026-03-28T11:11:43Z</time></trkpt><trkpt lat="46.607091424785466" lon="5.364914806080042"><ele>187.0</ele><time>2026-03-28T11:11:44Z</time></trkpt><trkpt lat="46.60685927532829" lon="5.364801642976543"><ele>187.0</ele><time>2026-03-28T11:11:45Z</time></trkpt><trkpt lat="46.606628464291006" lon="5.364694227246203"><ele>187.0</ele><time>2026-03-28T11:11:46Z</time></trkpt><trkpt lat="46.60639596959916" lon="5.364583116476982"><ele>187.0</ele><time>2026-03-28T11:11:47Z</time></trkpt><trkpt lat="46.606162508063385" lon="5.364470786772039"><ele>187.5</ele><time>2026-03-28T11:11:48Z</time></trkpt><trkpt lat="46.60593000962179" lon="5.364362141891222"><ele>188.0</ele><time>2026-03-28T11:11:49Z</time></trkpt><trkpt lat="46.60569352597766" lon="5.364250652540029"><ele>188.0</ele><time>2026-03-28T11:11:50Z</time></trkpt><trkpt lat="46.60545797685029" lon="5.364136748782835"><ele>188.0</ele><time>2026-03-28T11:11:51Z</time></trkpt><trkpt lat="46.60522264120138" lon="5.364024052500271"><ele>188.0</ele><time>2026-03-28T11:11:52Z</time></trkpt><trkpt lat="46.604988514176235" lon="5.3639115625670675"><ele>188.0</ele><time>2026-03-28T11:11:53Z</time></trkpt><trkpt lat="46.60475060719893" lon="5.363797683476388"><ele>188.0</ele><time>2026-03-28T11:11:54Z</time></trkpt><trkpt lat="46.60451172340173" lon="5.363682808593066"><ele>188.0</ele><time>2026-03-28T11:11:55Z</time></trkpt><trkpt lat="46.60427479005768" lon="5.363572333785139"><ele>190.0</ele><time>2026-03-28T11:11:56Z</time></trkpt><trkpt lat="46.604035627271784" lon="5.363458582911952"><ele>192.0</ele><time>2026-03-28T11:11:57Z</time></trkpt><trkpt lat="46.6038003601249" lon="5.363353580238263"><ele>193.0</ele><time>2026-03-28T11:11:58Z</time></trkpt><trkpt lat="46.60357009472945" lon="5.363245182386004"><ele>194.0</ele><time>2026-03-28T11:11:59Z</time></trkpt><trkpt lat="46.603345880973045" lon="5.3631384200006025"><ele>194.0</ele><time>2026-03-28T11:12:00Z</time></trkpt><trkpt lat="46.60311792366528" lon="5.363035267937145"><ele>194.0</ele><time>2026-03-28T11:12:01Z</time></trkpt><trkpt lat="46.602887679328845" lon="5.362937306602598"><ele>193.5</ele><time>2026-03-28T11:12:02Z</time></trkpt><trkpt lat="46.602652152467336" lon="5.362837429720781"><ele>193.0</ele><time>2026-03-28T11:12:03Z</time></trkpt><trkpt lat="46.60241355934397" lon="5.3627352135906055"><ele>193.0</ele><time>2026-03-28T11:12:04Z</time></trkpt><trkpt lat="46.602173852603684" lon="5.362640864331254"><ele>193.0</ele><time>2026-03-28T11:12:05Z</time></trkpt><trkpt lat="46.60192927063751" lon="5.362546598759431"><ele>194.5</ele><time>2026-03-28T11:12:06Z</time></trkpt><trkpt lat="46.6016819571913" lon="5.362455401332517"><ele>196.0</ele><time>2026-03-28T11:12:07Z</time></trkpt><trkpt lat="46.601436973337655" lon="5.3623716428467745"><ele>196.0</ele><time>2026-03-28T11:12:08Z</time></trkpt><trkpt lat="46.60119263520696" lon="5.362291533302135"><ele>196.0</ele><time>2026-03-28T11:12:09Z</time></trkpt><trkpt lat="46.60094296601572" lon="5.36221205515533"><ele>198.0</ele><time>2026-03-28T11:12:10Z</time></trkpt><trkpt lat="46.600691369391534" lon="5.3621387785891255"><ele>200.0</ele><time>2026-03-28T11:12:11Z</time></trkpt><trkpt lat="46.60044204699763" lon="5.362071048535652"><ele>200.5</ele><time>2026-03-28T11:12:12Z</time></trkpt><trkpt lat="46.600196577881405" lon="5.362004306521764"><ele>201.0</ele><time>2026-03-28T11:12:13Z</time></trkpt><trkpt lat="46.59995265805289" lon="5.361944961492046"><ele>201.0</ele><time>2026-03-28T11:12:14Z</time></trkpt><trkpt lat="46.5997083465359" lon="5.361889778860669"><ele>201.0</ele><time>2026-03-28T11:12:15Z</time></trkpt><trkpt lat="46.599464637862035" lon="5.361835990024407"><ele>202.0</ele><time>2026-03-28T11:12:16Z</time></trkpt><trkpt lat="46.59921999027799" lon="5.3617871362630165"><ele>203.0</ele><time>2026-03-28T11:12:17Z</time></trkpt><trkpt lat="46.598975740610115" lon="5.3617427822177195"><ele>203.0</ele><time>2026-03-28T11:12:18Z</time></trkpt><trkpt lat="46.59873057613591" lon="5.361701710958258"><ele>203.0</ele><time>2026-03-28T11:12:19Z</time></trkpt><trkpt lat="46.59848494851046" lon="5.361663736071161"><ele>204.5</ele><time>2026-03-28T11:12:20Z</time></trkpt><trkpt lat="46.598238291232434" lon="5.3616233516099925"><ele>206.0</ele><time>2026-03-28T11:12:21Z</time></trkpt><trkpt lat="46.597991407037604" lon="5.361588099225786"><ele>206.5</ele><time>2026-03-28T11:12:22Z</time></trkpt><trkpt lat="46.59774598283495" lon="5.361552381921536"><ele>207.0</ele><time>2026-03-28T11:12:23Z</time></trkpt><trkpt lat="46.597497929165044" lon="5.361519299376688"><ele>207.0</ele><time>2026-03-28T11:12:24Z</time></trkpt><trkpt lat="46.59724761976637" lon="5.361490696687353"><ele>207.0</ele><time>2026-03-28T11:12:25Z</time></trkpt><trkpt lat="46.59699448570932" lon="5.361451064916197"><ele>207.0</ele><time>2026-03-28T11:12:26Z</time></trkpt><trkpt lat="46.59673935435824" lon="5.361405585384037"><ele>207.0</ele><time>2026-03-28T11:12:27Z</time></trkpt><trkpt lat="46.5964821633094" lon="5.361359264655453"><ele>207.0</ele><time>2026-03-28T11:12:28Z</time></trkpt><trkpt lat="46.59622232588547" lon="5.3613195290546"><ele>207.0</ele><time>2026-03-28T11:12:29Z</time></trkpt><trkpt lat="46.59596259682351" lon="5.36127540175729"><ele>206.0</ele><time>2026-03-28T11:12:30Z</time></trkpt><trkpt lat="46.5957014611944" lon="5.361225936255255"><ele>205.0</ele><time>2026-03-28T11:12:31Z</time></trkpt><trkpt lat="46.59543700385577" lon="5.361173262803642"><ele>205.5</ele><time>2026-03-28T11:12:32Z</time></trkpt><trkpt lat="46.59517003842812" lon="5.361111909278181"><ele>206.0</ele><time>2026-03-28T11:12:33Z</time></trkpt><trkpt lat="46.59490349051291" lon="5.361048686585827"><ele>206.0</ele><time>2026-03-28T11:12:34Z</time></trkpt><trkpt lat="46.59463827857897" lon="5.360986412727967"><ele>206.0</ele><time>2026-03-28T11:12:35Z</time></trkpt><trkpt lat="46.594373160262336" lon="5.360920071696043"><ele>206.5</ele><time>2026-03-28T11:12:36Z</time></trkpt><trkpt lat="46.594107159666564" lon="5.360848639140783"><ele>207.0</ele><time>2026-03-28T11:12:37Z</time></trkpt><trkpt lat="46.59384174587938" lon="5.360771745012012"><ele>209.0</ele><time>2026-03-28T11:12:38Z</time></trkpt><trkpt lat="46.59357357951691" lon="5.360685865712223"><ele>211.0</ele><time>2026-03-28T11:12:39Z</time></trkpt><trkpt lat="46.593307464460324" lon="5.3605990719227075"><ele>210.0</ele><time>2026-03-28T11:12:40Z</time></trkpt><trkpt lat="46.593040652565584" lon="5.360504113787156"><ele>209.0</ele><time>2026-03-28T11:12:41Z</time></trkpt><trkpt lat="46.59277283922384" lon="5.360403519621483"><ele>208.0</ele><time>2026-03-28T11:12:42Z</time></trkpt><trkpt lat="46.59250437611518" lon="5.360296782189321"><ele>207.0</ele><time>2026-03-28T11:12:43Z</time></trkpt><trkpt lat="46.59223744187298" lon="5.36018341048535"><ele>206.0</ele><time>2026-03-28T11:12:44Z</time></trkpt><trkpt lat="46.5919726744884" lon="5.360067728644197"><ele>205.0</ele><time>2026-03-28T11:12:45Z</time></trkpt><trkpt lat="46.59170868745238" lon="5.359945859655938"><ele>205.0</ele><time>2026-03-28T11:12:46Z</time></trkpt><trkpt lat="46.59144770058208" lon="5.359820124481608"><ele>205.0</ele><time>2026-03-28T11:12:47Z</time></trkpt><trkpt lat="46.59119037086736" lon="5.3596918958951525"><ele>207.5</ele><time>2026-03-28T11:12:48Z</time></trkpt><trkpt lat="46.5909387625751" lon="5.359561030896085"><ele>210.0</ele><time>2026-03-28T11:12:49Z</time></trkpt><trkpt lat="46.59069077046329" lon="5.359426111076963"><ele>210.0</ele><time>2026-03-28T11:12:50Z</time></trkpt><trkpt lat="46.59044846312707" lon="5.359290240542964"><ele>210.0</ele><time>2026-03-28T11:12:51Z</time></trkpt><trkpt lat="46.59020799840679" lon="5.35914872695968"><ele>210.0</ele><time>2026-03-28T11:12:52Z</time></trkpt><trkpt lat="46.58997581631611" lon="5.359009731495881"><ele>210.0</ele><time>2026-03-28T11:12:53Z</time></trkpt><trkpt lat="46.58974912358612" lon="5.3588688632386985"><ele>210.0</ele><time>2026-03-28T11:12:54Z</time></trkpt><trkpt lat="46.58952669799228" lon="5.358723991032656"><ele>210.0</ele><time>2026-03-28T11:12:55Z</time></trkpt><trkpt lat="46.589306495719036" lon="5.358575602806689"><ele>210.5</ele><time>2026-03-28T11:12:56Z</time></trkpt><trkpt lat="46.58909168321608" lon="5.35842742650962"><ele>211.0</ele><time>2026-03-28T11:12:57Z</time></trkpt><trkpt lat="46.588882046055396" lon="5.358282042985184"><ele>211.0</ele><time>2026-03-28T11:12:58Z</time></trkpt><trkpt lat="46.58867873854232" lon="5.358138011101652"><ele>211.0</ele><time>2026-03-28T11:12:59Z</time></trkpt><trkpt lat="46.58848273231404" lon="5.357992587472531"><ele>211.0</ele><time>2026-03-28T11:13:00Z</time></trkpt><trkpt lat="46.58829277337033" lon="5.357848057741878"><ele>211.33333333333331</ele><time>2026-03-28T11:13:01Z</time></trkpt><trkpt lat="46.588100598345335" lon="5.357698867952131"><ele>211.66666666666669</ele><time>2026-03-28T11:13:02Z</time></trkpt><trkpt lat="46.587908115971615" lon="5.35754326326012"><ele>212.0</ele><time>2026-03-28T11:13:03Z</time></trkpt><trkpt lat="46.587717730438335" lon="5.357385943684569"><ele>212.0</ele><time>2026-03-28T11:13:04Z</time></trkpt><trkpt lat="46.58752978181824" lon="5.35722730170117"><ele>212.0</ele><time>2026-03-28T11:13:05Z</time></trkpt><trkpt lat="46.58734508747648" lon="5.3570644199802855"><ele>212.0</ele><time>2026-03-28T11:13:06Z</time></trkpt><trkpt lat="46.58716510256454" lon="5.356906375166124"><ele>212.0</ele><time>2026-03-28T11:13:07Z</time></trkpt><trkpt lat="46.58698467677142" lon="5.356745733231087"><ele>212.0</ele><time>2026-03-28T11:13:08Z</time></trkpt><trkpt lat="46.58680414102571" lon="5.356582518654435"><ele>212.0</ele><time>2026-03-28T11:13:09Z</time></trkpt><trkpt lat="46.58662243020911" lon="5.3564104786002344"><ele>211.0</ele><time>2026-03-28T11:13:10Z</time></trkpt><trkpt lat="46.586437125219014" lon="5.356233377870074"><ele>210.0</ele><time>2026-03-28T11:13:11Z</time></trkpt><trkpt lat="46.5862541719995" lon="5.356050592399"><ele>209.0</ele><time>2026-03-28T11:13:12Z</time></trkpt><trkpt lat="46.5860680158726" lon="5.355867501495312"><ele>209.0</ele><time>2026-03-28T11:13:13Z</time></trkpt><trkpt lat="46.585883112858426" lon="5.355681855903623"><ele>209.0</ele><time>2026-03-28T11:13:14Z</time></trkpt><trkpt lat="46.58569967489504" lon="5.355494048614706"><ele>209.0</ele><time>2026-03-28T11:13:15Z</time></trkpt><trkpt lat="46.58551380933762" lon="5.355302093778834"><ele>209.5</ele><time>2026-03-28T11:13:16Z</time></trkpt><trkpt lat="46.58532988918694" lon="5.355107991518213"><ele>210.0</ele><time>2026-03-28T11:13:17Z</time></trkpt><trkpt lat="46.585143224572164" lon="5.354917298345544"><ele>210.0</ele><time>2026-03-28T11:13:18Z</time></trkpt><trkpt lat="46.584958290650626" lon="5.3547192035193385"><ele>210.0</ele><time>2026-03-28T11:13:19Z</time></trkpt><trkpt lat="46.584772481444425" lon="5.354523053341738"><ele>209.5</ele><time>2026-03-28T11:13:20Z</time></trkpt><trkpt lat="46.58459157066834" lon="5.3543265554739925"><ele>209.0</ele><time>2026-03-28T11:13:21Z</time></trkpt><trkpt lat="46.58440556889239" lon="5.3541330465392925"><ele>209.0</ele><time>2026-03-28T11:13:22Z</time></trkpt><trkpt lat="46.5842182056472" lon="5.353937153527004"><ele>209.0</ele><time>2026-03-28T11:13:23Z</time></trkpt><trkpt lat="46.58403183109486" lon="5.353738379677615"><ele>210.5</ele><time>2026-03-28T11:13:24Z</time></trkpt><trkpt lat="46.58384122216197" lon="5.353541759522935"><ele>212.0</ele><time>2026-03-28T11:13:25Z</time></trkpt><trkpt lat="46.58365148994427" lon="5.353339795809597"><ele>210.0</ele><time>2026-03-28T11:13:26Z</time></trkpt><trkpt lat="46.58345904884439" lon="5.353146248317291"><ele>208.0</ele><time>2026-03-28T11:13:27Z</time></trkpt><trkpt lat="46.583266260228584" lon="5.352955813597727"><ele>208.0</ele><time>2026-03-28T11:13:28Z</time></trkpt><trkpt lat="46.58307182481913" lon="5.352767898466998"><ele>208.0</ele><time>2026-03-28T11:13:29Z</time></trkpt><trkpt lat="46.582874729753975" lon="5.352581923931827"><ele>205.5</ele><time>2026-03-28T11:13:30Z</time></trkpt><trkpt lat="46.5826754479888" lon="5.352398989853176"><ele>203.0</ele><time>2026-03-28T11:13:31Z</time></trkpt><trkpt lat="46.58247627711959" lon="5.3522203746133465"><ele>205.0</ele><time>2026-03-28T11:13:32Z</time></trkpt><trkpt lat="46.58226924339541" lon="5.3520481211138895"><ele>207.0</ele><time>2026-03-28T11:13:33Z</time></trkpt><trkpt lat="46.58206070818242" lon="5.351873194191526"><ele>203.5</ele><time>2026-03-28T11:13:34Z</time></trkpt><trkpt lat="46.5818486023788" lon="5.351704219130599"><ele>200.0</ele><time>2026-03-28T11:13:35Z</time></trkpt><trkpt lat="46.58163254647837" lon="5.351536498965611"><ele>202.0</ele><time>2026-03-28T11:13:36Z</time></trkpt><trkpt lat="46.581411348175436" lon="5.351372747438076"><ele>204.0</ele><time>2026-03-28T11:13:37Z</time></trkpt><trkpt lat="46.581183447067474" lon="5.351210486095677"><ele>201.5</ele><time>2026-03-28T11:13:38Z</time></trkpt><trkpt lat="46.580953172251114" lon="5.351049500393754"><ele>199.0</ele><time>2026-03-28T11:13:39Z</time></trkpt><trkpt lat="46.58071849945555" lon="5.350894639785759"><ele>199.0</ele><time>2026-03-28T11:13:40Z</time></trkpt><trkpt lat="46.5804806212425" lon="5.350749579549328"><ele>199.0</ele><time>2026-03-28T11:13:41Z</time></trkpt><trkpt lat="46.58023990116675" lon="5.3506060790265435"><ele>199.5</ele><time>2026-03-28T11:13:42Z</time></trkpt><trkpt lat="46.579998970139435" lon="5.350473340739654"><ele>200.0</ele><time>2026-03-28T11:13:43Z</time></trkpt><trkpt lat="46.579758483690114" lon="5.350344362616538"><ele>198.0</ele><time>2026-03-28T11:13:44Z</time></trkpt><trkpt lat="46.579508391751475" lon="5.350213654268184"><ele>196.0</ele><time>2026-03-28T11:13:45Z</time></trkpt><trkpt lat="46.579260306846805" lon="5.350087845822469"><ele>196.0</ele><time>2026-03-28T11:13:46Z</time></trkpt><trkpt lat="46.57901153767073" lon="5.3499717229256305"><ele>196.0</ele><time>2026-03-28T11:13:47Z</time></trkpt><trkpt lat="46.57876140628514" lon="5.34985816774472"><ele>195.5</ele><time>2026-03-28T11:13:48Z</time></trkpt><trkpt lat="46.578510728118054" lon="5.349759662203679"><ele>195.0</ele><time>2026-03-28T11:13:49Z</time></trkpt><trkpt lat="46.57825675599404" lon="5.349661731979237"><ele>195.0</ele><time>2026-03-28T11:13:50Z</time></trkpt><trkpt lat="46.57799957038533" lon="5.349566187339138"><ele>195.0</ele><time>2026-03-28T11:13:51Z</time></trkpt><trkpt lat="46.57773996849477" lon="5.349466918316271"><ele>196.0</ele><time>2026-03-28T11:13:52Z</time></trkpt><trkpt lat="46.57748024955688" lon="5.349370666291686"><ele>197.0</ele><time>2026-03-28T11:13:53Z</time></trkpt><trkpt lat="46.57722072069581" lon="5.349270634116319"><ele>195.0</ele><time>2026-03-28T11:13:54Z</time></trkpt><trkpt lat="46.57696202422032" lon="5.349170567281406"><ele>193.0</ele><time>2026-03-28T11:13:55Z</time></trkpt><trkpt lat="46.576701172477826" lon="5.349069945374995"><ele>193.0</ele><time>2026-03-28T11:13:56Z</time></trkpt><trkpt lat="46.576440531135795" lon="5.348965275988197"><ele>193.0</ele><time>2026-03-28T11:13:57Z</time></trkpt><trkpt lat="46.57618118429168" lon="5.348858909118273"><ele>194.5</ele><time>2026-03-28T11:13:58Z</time></trkpt><trkpt lat="46.575920250053514" lon="5.3487527349598105"><ele>196.0</ele><time>2026-03-28T11:13:59Z</time></trkpt><trkpt lat="46.575656611182986" lon="5.348642336808954"><ele>196.0</ele><time>2026-03-28T11:14:00Z</time></trkpt><trkpt lat="46.57539974134854" lon="5.348525937385722"><ele>196.0</ele><time>2026-03-28T11:14:01Z</time></trkpt><trkpt lat="46.57514341779162" lon="5.348401448481873"><ele>194.5</ele><time>2026-03-28T11:14:02Z</time></trkpt><trkpt lat="46.57488761632792" lon="5.3482680233985835"><ele>193.0</ele><time>2026-03-28T11:14:03Z</time></trkpt><trkpt lat="46.57462841019234" lon="5.348126828725064"><ele>194.0</ele><time>2026-03-28T11:14:04Z</time></trkpt><trkpt lat="46.5743677821901" lon="5.347980143190783"><ele>195.0</ele><time>2026-03-28T11:14:05Z</time></trkpt><trkpt lat="46.57410411083598" lon="5.3478236183768"><ele>195.0</ele><time>2026-03-28T11:14:06Z</time></trkpt><trkpt lat="46.573840239406394" lon="5.347658734553468"><ele>195.0</ele><time>2026-03-28T11:14:07Z</time></trkpt><trkpt lat="46.57358031621316" lon="5.347486825359212"><ele>194.0</ele><time>2026-03-28T11:14:08Z</time></trkpt><trkpt lat="46.5733246431894" lon="5.347314007182718"><ele>193.0</ele><time>2026-03-28T11:14:09Z</time></trkpt><trkpt lat="46.5730667131597" lon="5.347132058260031"><ele>192.0</ele><time>2026-03-28T11:14:10Z</time></trkpt><trkpt lat="46.572815294160876" lon="5.346948229755351"><ele>191.0</ele><time>2026-03-28T11:14:11Z</time></trkpt><trkpt lat="46.572562588227335" lon="5.346757551372914"><ele>191.0</ele><time>2026-03-28T11:14:12Z</time></trkpt><trkpt lat="46.57231055901369" lon="5.346567078557431"><ele>191.0</ele><time>2026-03-28T11:14:13Z</time></trkpt><trkpt lat="46.57206171066372" lon="5.346380110749273"><ele>191.0</ele><time>2026-03-28T11:14:14Z</time></trkpt><trkpt lat="46.571809464168965" lon="5.346190161145769"><ele>191.0</ele><time>2026-03-28T11:14:15Z</time></trkpt><trkpt lat="46.57156348305514" lon="5.345999047457022"><ele>191.0</ele><time>2026-03-28T11:14:16Z</time></trkpt><trkpt lat="46.57132731591512" lon="5.345825745245735"><ele>191.0</ele><time>2026-03-28T11:14:17Z</time></trkpt><trkpt lat="46.57109235483669" lon="5.345654525168312"><ele>190.0</ele><time>2026-03-28T11:14:18Z</time></trkpt><trkpt lat="46.570863737252004" lon="5.345491154123923"><ele>189.0</ele><time>2026-03-28T11:14:19Z</time></trkpt><trkpt lat="46.57064168309338" lon="5.345343591097116"><ele>189.0</ele><time>2026-03-28T11:14:20Z</time></trkpt><trkpt lat="46.570421653594934" lon="5.345204692278961"><ele>189.0</ele><time>2026-03-28T11:14:21Z</time></trkpt><trkpt lat="46.57020224010204" lon="5.345065423384064"><ele>190.0</ele><time>2026-03-28T11:14:22Z</time></trkpt><trkpt lat="46.569984822363054" lon="5.344936994016318"><ele>191.0</ele><time>2026-03-28T11:14:23Z</time></trkpt><trkpt lat="46.569770227411105" lon="5.34481646811872"><ele>190.66666666666666</ele><time>2026-03-28T11:14:24Z</time></trkpt><trkpt lat="46.56955894321066" lon="5.344701105103258"><ele>190.33333333333334</ele><time>2026-03-28T11:14:25Z</time></trkpt><trkpt lat="46.56935215375765" lon="5.3445874229881944"><ele>190.0</ele><time>2026-03-28T11:14:26Z</time></trkpt><trkpt lat="46.56914923453527" lon="5.344481195159307"><ele>191.66666666666669</ele><time>2026-03-28T11:14:27Z</time></trkpt><trkpt lat="46.56894637281129" lon="5.344379433123899"><ele>193.33333333333334</ele><time>2026-03-28T11:14:28Z</time></trkpt><trkpt lat="46.56874290380244" lon="5.344281720488632"><ele>195.0</ele><time>2026-03-28T11:14:29Z</time></trkpt><trkpt lat="46.56853948412623" lon="5.344187941084567"><ele>196.33333333333331</ele><time>2026-03-28T11:14:30Z</time></trkpt><trkpt lat="46.56833779766474" lon="5.344099324228023"><ele>197.66666666666666</ele><time>2026-03-28T11:14:31Z</time></trkpt><trkpt lat="46.568130890127456" lon="5.344011718093576"><ele>199.0</ele><time>2026-03-28T11:14:32Z</time></trkpt><trkpt lat="46.567920583307306" lon="5.343927578503876"><ele>200.33333333333331</ele><time>2026-03-28T11:14:33Z</time></trkpt><trkpt lat="46.56770967903057" lon="5.343840069477206"><ele>201.66666666666669</ele><time>2026-03-28T11:14:34Z</time></trkpt><trkpt lat="46.567493374875625" lon="5.3437505174851925"><ele>203.0</ele><time>2026-03-28T11:14:35Z</time></trkpt><trkpt lat="46.56727646773267" lon="5.343666865767138"><ele>203.0</ele><time>2026-03-28T11:14:36Z</time></trkpt><trkpt lat="46.56705989667601" lon="5.343587300913665"><ele>203.0</ele><time>2026-03-28T11:14:37Z</time></trkpt><trkpt lat="46.5668452873052" lon="5.343501865319576"><ele>203.0</ele><time>2026-03-28T11:14:38Z</time></trkpt><trkpt lat="46.56662882999838" lon="5.343420432253786"><ele>203.66666666666669</ele><time>2026-03-28T11:14:39Z</time></trkpt><trkpt lat="46.56641751061644" lon="5.343334840992281"><ele>204.33333333333331</ele><time>2026-03-28T11:14:40Z</time></trkpt><trkpt lat="46.56620480748786" lon="5.3432497938414665"><ele>205.0</ele><time>2026-03-28T11:14:41Z</time></trkpt><trkpt lat="46.5659892319334" lon="5.343153603568938"><ele>205.0</ele><time>2026-03-28T11:14:42Z</time></trkpt><trkpt lat="46.56577647773521" lon="5.34305979167473"><ele>205.0</ele><time>2026-03-28T11:14:43Z</time></trkpt><trkpt lat="46.56556620631628" lon="5.34296991254249"><ele>205.0</ele><time>2026-03-28T11:14:44Z</time></trkpt><trkpt lat="46.56534935018445" lon="5.342872628978496"><ele>205.5</ele><time>2026-03-28T11:14:45Z</time></trkpt><trkpt lat="46.56513382877359" lon="5.342767972726145"><ele>206.0</ele><time>2026-03-28T11:14:46Z</time></trkpt><trkpt lat="46.564921367003556" lon="5.3426636560961835"><ele>206.0</ele><time>2026-03-28T11:14:47Z</time></trkpt><trkpt lat="46.564705681494964" lon="5.342556354426475"><ele>206.0</ele><time>2026-03-28T11:14:48Z</time></trkpt><trkpt lat="46.564487605067306" lon="5.342437241223023"><ele>207.5</ele><time>2026-03-28T11:14:49Z</time></trkpt><trkpt lat="46.56427455167445" lon="5.342320411845376"><ele>209.0</ele><time>2026-03-28T11:14:50Z</time></trkpt><trkpt lat="46.564061603362994" lon="5.342194031989227"><ele>209.5</ele><time>2026-03-28T11:14:51Z</time></trkpt><trkpt lat="46.56385038144703" lon="5.342069310665754"><ele>210.0</ele><time>2026-03-28T11:14:52Z</time></trkpt><trkpt lat="46.56364210377806" lon="5.341942176649195"><ele>209.0</ele><time>2026-03-28T11:14:53Z</time></trkpt><trkpt lat="46.563433306671676" lon="5.34181886773285"><ele>208.0</ele><time>2026-03-28T11:14:54Z</time></trkpt><trkpt lat="46.56322442748763" lon="5.341686163341203"><ele>208.0</ele><time>2026-03-28T11:14:55Z</time></trkpt><trkpt lat="46.56301479217912" lon="5.341540526252494"><ele>208.0</ele><time>2026-03-28T11:14:56Z</time></trkpt><trkpt lat="46.56279711333175" lon="5.341382351886507"><ele>207.0</ele><time>2026-03-28T11:14:57Z</time></trkpt><trkpt lat="46.56258117125725" lon="5.341225789676385"><ele>206.0</ele><time>2026-03-28T11:14:58Z</time></trkpt><trkpt lat="46.56236144593832" lon="5.341065786455409"><ele>206.0</ele><time>2026-03-28T11:14:59Z</time></trkpt><trkpt lat="46.56214125427318" lon="5.34090017025346"><ele>206.0</ele><time>2026-03-28T11:15:00Z</time></trkpt><trkpt lat="46.56192004589774" lon="5.340726269692049"><ele>206.5</ele><time>2026-03-28T11:15:01Z</time></trkpt><trkpt lat="46.561693621116966" lon="5.340546261392378"><ele>207.0</ele><time>2026-03-28T11:15:02Z</time></trkpt><trkpt lat="46.561466719365484" lon="5.3403615596094385"><ele>207.0</ele><time>2026-03-28T11:15:03Z</time></trkpt><trkpt lat="46.56123409415371" lon="5.340174539772556"><ele>207.0</ele><time>2026-03-28T11:15:04Z</time></trkpt><trkpt lat="46.56099773455423" lon="5.339983598277155"><ele>206.0</ele><time>2026-03-28T11:15:05Z</time></trkpt><trkpt lat="46.56075805054" lon="5.339802229855852"><ele>205.0</ele><time>2026-03-28T11:15:06Z</time></trkpt><trkpt lat="46.56052295391337" lon="5.339611221529583"><ele>204.0</ele><time>2026-03-28T11:15:07Z</time></trkpt><trkpt lat="46.560285308946845" lon="5.339414936493471"><ele>203.0</ele><time>2026-03-28T11:15:08Z</time></trkpt><trkpt lat="46.56005320099757" lon="5.339211609744754"><ele>203.0</ele><time>2026-03-28T11:15:09Z</time></trkpt><trkpt lat="46.55981560411059" lon="5.3390115353312675"><ele>203.0</ele><time>2026-03-28T11:15:10Z</time></trkpt><trkpt lat="46.559574014302925" lon="5.33881879835252"><ele>203.0</ele><time>2026-03-28T11:15:11Z</time></trkpt><trkpt lat="46.55933171315191" lon="5.338630199378286"><ele>203.0</ele><time>2026-03-28T11:15:12Z</time></trkpt><trkpt lat="46.55908751787513" lon="5.3384467441981664"><ele>203.0</ele><time>2026-03-28T11:15:13Z</time></trkpt><trkpt lat="46.55884268544572" lon="5.33826323705146"><ele>203.0</ele><time>2026-03-28T11:15:14Z</time></trkpt><trkpt lat="46.5586017334209" lon="5.338082391257369"><ele>205.0</ele><time>2026-03-28T11:15:15Z</time></trkpt><trkpt lat="46.558363580049935" lon="5.337890839560756"><ele>207.0</ele><time>2026-03-28T11:15:16Z</time></trkpt><trkpt lat="46.55811914162303" lon="5.3376945834968845"><ele>207.0</ele><time>2026-03-28T11:15:17Z</time></trkpt><trkpt lat="46.55787803957754" lon="5.33749994755288"><ele>207.0</ele><time>2026-03-28T11:15:18Z</time></trkpt><trkpt lat="46.557635738517355" lon="5.337302153522795"><ele>207.0</ele><time>2026-03-28T11:15:19Z</time></trkpt><trkpt lat="46.557395660094386" lon="5.3371138502084055"><ele>207.0</ele><time>2026-03-28T11:15:20Z</time></trkpt><trkpt lat="46.55715445755397" lon="5.336926510262845"><ele>206.5</ele><time>2026-03-28T11:15:21Z</time></trkpt><trkpt lat="46.55691066034337" lon="5.336736827375862"><ele>206.0</ele><time>2026-03-28T11:15:22Z</time></trkpt><trkpt lat="46.55666751002021" lon="5.336548638302446"><ele>206.5</ele><time>2026-03-28T11:15:23Z</time></trkpt><trkpt lat="46.55642632269447" lon="5.336360873293255"><ele>207.0</ele><time>2026-03-28T11:15:24Z</time></trkpt><trkpt lat="46.556181386225724" lon="5.336175789051221"><ele>207.0</ele><time>2026-03-28T11:15:25Z</time></trkpt><trkpt lat="46.55594130294153" lon="5.335989721326382"><ele>207.0</ele><time>2026-03-28T11:15:26Z</time></trkpt><trkpt lat="46.55570035135477" lon="5.335802882706724"><ele>207.0</ele><time>2026-03-28T11:15:27Z</time></trkpt><trkpt lat="46.555454918473544" lon="5.335615990452398"><ele>207.0</ele><time>2026-03-28T11:15:28Z</time></trkpt><trkpt lat="46.55521476212443" lon="5.335438174219288"><ele>206.5</ele><time>2026-03-28T11:15:29Z</time></trkpt><trkpt lat="46.554969297518134" lon="5.335255776708023"><ele>206.0</ele><time>2026-03-28T11:15:30Z</time></trkpt><trkpt lat="46.55472231433499" lon="5.335079438952795"><ele>206.0</ele><time>2026-03-28T11:15:31Z</time></trkpt><trkpt lat="46.554473436238005" lon="5.334907832084699"><ele>206.0</ele><time>2026-03-28T11:15:32Z</time></trkpt><trkpt lat="46.55422388584095" lon="5.334739962995329"><ele>204.5</ele><time>2026-03-28T11:15:33Z</time></trkpt><trkpt lat="46.55397163710356" lon="5.33457857987217"><ele>203.0</ele><time>2026-03-28T11:15:34Z</time></trkpt><trkpt lat="46.55372153166288" lon="5.334420523863535"><ele>203.0</ele><time>2026-03-28T11:15:35Z</time></trkpt><trkpt lat="46.55346376784585" lon="5.334261971460303"><ele>203.0</ele><time>2026-03-28T11:15:36Z</time></trkpt><trkpt lat="46.553207815436956" lon="5.334112252408378"><ele>203.0</ele><time>2026-03-28T11:15:37Z</time></trkpt><trkpt lat="46.55295127699925" lon="5.33396961427997"><ele>203.0</ele><time>2026-03-28T11:15:38Z</time></trkpt><trkpt lat="46.55269364634892" lon="5.333830901831814"><ele>202.0</ele><time>2026-03-28T11:15:39Z</time></trkpt><trkpt lat="46.55243390059911" lon="5.333695415460338"><ele>201.0</ele><time>2026-03-28T11:15:40Z</time></trkpt><trkpt lat="46.55217514989267" lon="5.3335648745970055"><ele>200.5</ele><time>2026-03-28T11:15:41Z</time></trkpt><trkpt lat="46.55191174188765" lon="5.333440449971213"><ele>200.0</ele><time>2026-03-28T11:15:42Z</time></trkpt><trkpt lat="46.551650606874176" lon="5.333314808984877"><ele>200.0</ele><time>2026-03-28T11:15:43Z</time></trkpt><trkpt lat="46.55138567987526" lon="5.333197840812931"><ele>200.0</ele><time>2026-03-28T11:15:44Z</time></trkpt><trkpt lat="46.55112267431451" lon="5.3330843559784356"><ele>199.5</ele><time>2026-03-28T11:15:45Z</time></trkpt><trkpt lat="46.55086052447127" lon="5.332973608968299"><ele>199.0</ele><time>2026-03-28T11:15:46Z</time></trkpt><trkpt lat="46.55059501306878" lon="5.332860761691894"><ele>199.5</ele><time>2026-03-28T11:15:47Z</time></trkpt><trkpt lat="46.55032900191706" lon="5.332756234705185"><ele>200.0</ele><time>2026-03-28T11:15:48Z</time></trkpt><trkpt lat="46.55005993138379" lon="5.332653484130608"><ele>200.0</ele><time>2026-03-28T11:15:49Z</time></trkpt><trkpt lat="46.549791021677585" lon="5.3325534038711915"><ele>200.0</ele><time>2026-03-28T11:15:50Z</time></trkpt><trkpt lat="46.54952257153866" lon="5.332456685610708"><ele>200.0</ele><time>2026-03-28T11:15:51Z</time></trkpt><trkpt lat="46.54925411841887" lon="5.3323576751355155"><ele>200.0</ele><time>2026-03-28T11:15:52Z</time></trkpt><trkpt lat="46.54898656375368" lon="5.332262440848009"><ele>201.5</ele><time>2026-03-28T11:15:53Z</time></trkpt><trkpt lat="46.54871800027701" lon="5.332159386323154"><ele>203.0</ele><time>2026-03-28T11:15:54Z</time></trkpt><trkpt lat="46.54844616503334" lon="5.332059950845191"><ele>203.0</ele><time>2026-03-28T11:15:55Z</time></trkpt><trkpt lat="46.54817336373" lon="5.331957734770811"><ele>203.0</ele><time>2026-03-28T11:15:56Z</time></trkpt><trkpt lat="46.54790310148485" lon="5.331855300615633"><ele>200.5</ele><time>2026-03-28T11:15:57Z</time></trkpt><trkpt lat="46.547632605939704" lon="5.331754765941208"><ele>198.0</ele><time>2026-03-28T11:15:58Z</time></trkpt><trkpt lat="46.54735904292783" lon="5.33165654741849"><ele>198.0</ele><time>2026-03-28T11:15:59Z</time></trkpt><trkpt lat="46.54708567046698" lon="5.331559316125086"><ele>198.0</ele><time>2026-03-28T11:16:00Z</time></trkpt><trkpt lat="46.546810871390996" lon="5.331453397806561"><ele>198.0</ele><time>2026-03-28T11:16:01Z</time></trkpt><trkpt lat="46.54653491749099" lon="5.3313384796957175"><ele>198.0</ele><time>2026-03-28T11:16:02Z</time></trkpt><trkpt lat="46.54626104183642" lon="5.331222414545061"><ele>196.5</ele><time>2026-03-28T11:16:03Z</time></trkpt><trkpt lat="46.54598882401734" lon="5.331099724863433"><ele>195.0</ele><time>2026-03-28T11:16:04Z</time></trkpt><trkpt lat="46.54572265038698" lon="5.330974823010056"><ele>195.0</ele><time>2026-03-28T11:16:05Z</time></trkpt><trkpt lat="46.54545382709862" lon="5.33083979573717"><ele>195.0</ele><time>2026-03-28T11:16:06Z</time></trkpt><trkpt lat="46.54518464117484" lon="5.330701217429358"><ele>194.0</ele><time>2026-03-28T11:16:07Z</time></trkpt><trkpt lat="46.54491744559202" lon="5.330558393959705"><ele>193.0</ele><time>2026-03-28T11:16:08Z</time></trkpt><trkpt lat="46.544652159806894" lon="5.330405038548787"><ele>192.5</ele><time>2026-03-28T11:16:09Z</time></trkpt><trkpt lat="46.54438814615624" lon="5.330256722927795"><ele>192.0</ele><time>2026-03-28T11:16:10Z</time></trkpt><trkpt lat="46.54412509116262" lon="5.330105452197842"><ele>192.0</ele><time>2026-03-28T11:16:11Z</time></trkpt><trkpt lat="46.54386148949879" lon="5.329945490629313"><ele>192.0</ele><time>2026-03-28T11:16:12Z</time></trkpt><trkpt lat="46.543597040948306" lon="5.329782574531235"><ele>193.0</ele><time>2026-03-28T11:16:13Z</time></trkpt><trkpt lat="46.543334857282225" lon="5.329613381598549"><ele>194.0</ele><time>2026-03-28T11:16:14Z</time></trkpt><trkpt lat="46.54307236829585" lon="5.329441460818629"><ele>195.0</ele><time>2026-03-28T11:16:15Z</time></trkpt><trkpt lat="46.54281202096675" lon="5.329269257994444"><ele>196.0</ele><time>2026-03-28T11:16:16Z</time></trkpt><trkpt lat="46.54255159257571" lon="5.329085958800046"><ele>196.0</ele><time>2026-03-28T11:16:17Z</time></trkpt><trkpt lat="46.54229275754197" lon="5.32890508089132"><ele>196.0</ele><time>2026-03-28T11:16:18Z</time></trkpt><trkpt lat="46.54203434973561" lon="5.328719778217383"><ele>195.5</ele><time>2026-03-28T11:16:19Z</time></trkpt><trkpt lat="46.541781294651905" lon="5.328532105899816"><ele>195.0</ele><time>2026-03-28T11:16:20Z</time></trkpt><trkpt lat="46.54152655882469" lon="5.3283361555652355"><ele>195.0</ele><time>2026-03-28T11:16:21Z</time></trkpt><trkpt lat="46.541274060108854" lon="5.32813351146451"><ele>195.0</ele><time>2026-03-28T11:16:22Z</time></trkpt><trkpt lat="46.54102368791905" lon="5.32792461105806"><ele>194.5</ele><time>2026-03-28T11:16:23Z</time></trkpt><trkpt lat="46.540773722429414" lon="5.3277162846872494"><ele>194.0</ele><time>2026-03-28T11:16:24Z</time></trkpt><trkpt lat="46.54052051569128" lon="5.327505028128092"><ele>194.0</ele><time>2026-03-28T11:16:25Z</time></trkpt><trkpt lat="46.540268543556046" lon="5.327276075884683"><ele>194.0</ele><time>2026-03-28T11:16:26Z</time></trkpt><trkpt lat="46.540017453501264" lon="5.327053254337996"><ele>196.0</ele><time>2026-03-28T11:16:27Z</time></trkpt><trkpt lat="46.53976546005387" lon="5.326830842630715"><ele>198.0</ele><time>2026-03-28T11:16:28Z</time></trkpt><trkpt lat="46.53951757444573" lon="5.326602825216694"><ele>198.5</ele><time>2026-03-28T11:16:29Z</time></trkpt><trkpt lat="46.53927610122009" lon="5.326367605560968"><ele>199.0</ele><time>2026-03-28T11:16:30Z</time></trkpt><trkpt lat="46.539039324189915" lon="5.326142175248462"><ele>199.0</ele><time>2026-03-28T11:16:31Z</time></trkpt><trkpt lat="46.53881346361899" lon="5.325907375703383"><ele>199.0</ele><time>2026-03-28T11:16:32Z</time></trkpt><trkpt lat="46.53859310258608" lon="5.325669932351782"><ele>198.0</ele><time>2026-03-28T11:16:33Z</time></trkpt><trkpt lat="46.538370480714065" lon="5.32542331127338"><ele>197.0</ele><time>2026-03-28T11:16:34Z</time></trkpt><trkpt lat="46.53814468645119" lon="5.3251705560202"><ele>197.0</ele><time>2026-03-28T11:16:35Z</time></trkpt><trkpt lat="46.537923666874896" lon="5.3249263810923155"><ele>197.0</ele><time>2026-03-28T11:16:36Z</time></trkpt><trkpt lat="46.5377054242189" lon="5.324687241055639"><ele>196.0</ele><time>2026-03-28T11:16:37Z</time></trkpt><trkpt lat="46.537488987871114" lon="5.324441613282204"><ele>195.0</ele><time>2026-03-28T11:16:38Z</time></trkpt><trkpt lat="46.537273468740764" lon="5.324196621639414"><ele>195.0</ele><time>2026-03-28T11:16:39Z</time></trkpt><trkpt lat="46.53706047928931" lon="5.323949045653361"><ele>195.0</ele><time>2026-03-28T11:16:40Z</time></trkpt><trkpt lat="46.5368495637451" lon="5.323697128458996"><ele>194.0</ele><time>2026-03-28T11:16:41Z</time></trkpt><trkpt lat="46.53664195128022" lon="5.323446723366446"><ele>193.0</ele><time>2026-03-28T11:16:42Z</time></trkpt><trkpt lat="46.53643465402143" lon="5.323190526446774"><ele>193.0</ele><time>2026-03-28T11:16:43Z</time></trkpt><trkpt lat="46.53622847345601" lon="5.322934240214265"><ele>193.0</ele><time>2026-03-28T11:16:44Z</time></trkpt><trkpt lat="46.53602266335675" lon="5.322677805977703"><ele>193.0</ele><time>2026-03-28T11:16:45Z</time></trkpt><trkpt lat="46.53581513836203" lon="5.3224248270477625"><ele>193.0</ele><time>2026-03-28T11:16:46Z</time></trkpt><trkpt lat="46.53560746999845" lon="5.322175562397192"><ele>193.0</ele><time>2026-03-28T11:16:47Z</time></trkpt><trkpt lat="46.535402270772316" lon="5.321918098168268"><ele>193.0</ele><time>2026-03-28T11:16:48Z</time></trkpt><trkpt lat="46.535194653371775" lon="5.321660199315419"><ele>192.5</ele><time>2026-03-28T11:16:49Z</time></trkpt><trkpt lat="46.53498929437043" lon="5.321404665512312"><ele>192.0</ele><time>2026-03-28T11:16:50Z</time></trkpt><trkpt lat="46.534782190337985" lon="5.32115147823944"><ele>192.0</ele><time>2026-03-28T11:16:51Z</time></trkpt><trkpt lat="46.5345744305732" lon="5.320896878027867"><ele>192.0</ele><time>2026-03-28T11:16:52Z</time></trkpt><trkpt lat="46.534366250650855" lon="5.320647797684609"><ele>191.5</ele><time>2026-03-28T11:16:53Z</time></trkpt><trkpt lat="46.53415985382432" lon="5.32040297462748"><ele>191.0</ele><time>2026-03-28T11:16:54Z</time></trkpt><trkpt lat="46.53395043267708" lon="5.320156699234496"><ele>191.0</ele><time>2026-03-28T11:16:55Z</time></trkpt><trkpt lat="46.53373793625472" lon="5.3199138598507565"><ele>191.0</ele><time>2026-03-28T11:16:56Z</time></trkpt><trkpt lat="46.53352648825986" lon="5.319679071226518"><ele>190.5</ele><time>2026-03-28T11:16:57Z</time></trkpt><trkpt lat="46.533311425279415" lon="5.319449263892704"><ele>190.0</ele><time>2026-03-28T11:16:58Z</time></trkpt><trkpt lat="46.533092613759706" lon="5.319221712085686"><ele>192.0</ele><time>2026-03-28T11:16:59Z</time></trkpt><trkpt lat="46.532871072121495" lon="5.31899963094955"><ele>194.0</ele><time>2026-03-28T11:17:00Z</time></trkpt><trkpt lat="46.53264844968298" lon="5.31878214846245"><ele>196.0</ele><time>2026-03-28T11:17:01Z</time></trkpt><trkpt lat="46.53242414193104" lon="5.318566278009497"><ele>198.0</ele><time>2026-03-28T11:17:02Z</time></trkpt><trkpt lat="46.53219776289292" lon="5.318354578864292"><ele>199.5</ele><time>2026-03-28T11:17:03Z</time></trkpt><trkpt lat="46.53197008716539" lon="5.318144089033605"><ele>201.0</ele><time>2026-03-28T11:17:04Z</time></trkpt><trkpt lat="46.53174527774804" lon="5.317941780625875"><ele>203.5</ele><time>2026-03-28T11:17:05Z</time></trkpt><trkpt lat="46.531519072981844" lon="5.3177470881538484"><ele>206.0</ele><time>2026-03-28T11:17:06Z</time></trkpt><trkpt lat="46.531288009157166" lon="5.317552807092324"><ele>205.0</ele><time>2026-03-28T11:17:07Z</time></trkpt><trkpt lat="46.531054665637114" lon="5.3173647643016775"><ele>204.0</ele><time>2026-03-28T11:17:08Z</time></trkpt><trkpt lat="46.530819962626225" lon="5.317181870416055"><ele>206.0</ele><time>2026-03-28T11:17:09Z</time></trkpt><trkpt lat="46.53058414648693" lon="5.317004329722944"><ele>208.0</ele><time>2026-03-28T11:17:10Z</time></trkpt><trkpt lat="46.53034544020336" lon="5.316830792128013"><ele>208.0</ele><time>2026-03-28T11:17:11Z</time></trkpt><trkpt lat="46.53010672590387" lon="5.316663950907371"><ele>208.0</ele><time>2026-03-28T11:17:12Z</time></trkpt><trkpt lat="46.52986763523965" lon="5.316496451444463"><ele>207.5</ele><time>2026-03-28T11:17:13Z</time></trkpt><trkpt lat="46.52962791175261" lon="5.3163309709807915"><ele>207.0</ele><time>2026-03-28T11:17:14Z</time></trkpt><trkpt lat="46.52938426785695" lon="5.3161625662257945"><ele>207.0</ele><time>2026-03-28T11:17:15Z</time></trkpt><trkpt lat="46.52913982082112" lon="5.315995349007995"><ele>207.0</ele><time>2026-03-28T11:17:16Z</time></trkpt><trkpt lat="46.528899104616855" lon="5.315831452048831"><ele>207.5</ele><time>2026-03-28T11:17:17Z</time></trkpt><trkpt lat="46.52865428479729" lon="5.315664128992316"><ele>208.0</ele><time>2026-03-28T11:17:18Z</time></trkpt><trkpt lat="46.528408993216765" lon="5.315500083086659"><ele>210.0</ele><time>2026-03-28T11:17:19Z</time></trkpt><trkpt lat="46.52816120657074" lon="5.3153365487893725"><ele>212.0</ele><time>2026-03-28T11:17:20Z</time></trkpt><trkpt lat="46.52791885993442" lon="5.315170910777728"><ele>212.0</ele><time>2026-03-28T11:17:21Z</time></trkpt><trkpt lat="46.52767460573076" lon="5.315003150556125"><ele>212.0</ele><time>2026-03-28T11:17:22Z</time></trkpt><trkpt lat="46.52743263319489" lon="5.314833247984802"><ele>213.5</ele><time>2026-03-28T11:17:23Z</time></trkpt><trkpt lat="46.52718837289993" lon="5.314664294447431"><ele>215.0</ele><time>2026-03-28T11:17:24Z</time></trkpt><trkpt lat="46.52694149260659" lon="5.314499195246074"><ele>215.0</ele><time>2026-03-28T11:17:25Z</time></trkpt><trkpt lat="46.5266982505235" lon="5.3143305584377245"><ele>215.0</ele><time>2026-03-28T11:17:26Z</time></trkpt><trkpt lat="46.526451633673155" lon="5.314161654369924"><ele>215.0</ele><time>2026-03-28T11:17:27Z</time></trkpt><trkpt lat="46.526203478952695" lon="5.313992790205251"><ele>215.0</ele><time>2026-03-28T11:17:28Z</time></trkpt><trkpt lat="46.52595593898991" lon="5.3138232749504075"><ele>215.0</ele><time>2026-03-28T11:17:29Z</time></trkpt><trkpt lat="46.52570538964403" lon="5.3136640454798565"><ele>215.0</ele><time>2026-03-28T11:17:30Z</time></trkpt><trkpt lat="46.52545570341597" lon="5.313500601870023"><ele>213.5</ele><time>2026-03-28T11:17:31Z</time></trkpt><trkpt lat="46.52519888741879" lon="5.313346664164245"><ele>212.0</ele><time>2026-03-28T11:17:32Z</time></trkpt><trkpt lat="46.52493920114622" lon="5.313186563407207"><ele>214.5</ele><time>2026-03-28T11:17:33Z</time></trkpt><trkpt lat="46.52467589150965" lon="5.313030463762019"><ele>217.0</ele><time>2026-03-28T11:17:34Z</time></trkpt><trkpt lat="46.52441028455645" lon="5.312876464042906"><ele>212.0</ele><time>2026-03-28T11:17:35Z</time></trkpt><trkpt lat="46.524142033002356" lon="5.312724057487042"><ele>207.0</ele><time>2026-03-28T11:17:36Z</time></trkpt><trkpt lat="46.52387341299592" lon="5.312572049002638"><ele>205.0</ele><time>2026-03-28T11:17:37Z</time></trkpt><trkpt lat="46.52359914723457" lon="5.312423073413462"><ele>203.0</ele><time>2026-03-28T11:17:38Z</time></trkpt><trkpt lat="46.523327876032745" lon="5.31226914687892"><ele>203.0</ele><time>2026-03-28T11:17:39Z</time></trkpt><trkpt lat="46.523051619633215" lon="5.312122790735262"><ele>203.0</ele><time>2026-03-28T11:17:40Z</time></trkpt><trkpt lat="46.52277464743276" lon="5.311985736306732"><ele>203.0</ele><time>2026-03-28T11:17:41Z</time></trkpt><trkpt lat="46.52249588922015" lon="5.311852701866141"><ele>203.0</ele><time>2026-03-28T11:17:42Z</time></trkpt><trkpt lat="46.52222137057959" lon="5.31172627841423"><ele>203.5</ele><time>2026-03-28T11:17:43Z</time></trkpt><trkpt lat="46.5219503358008" lon="5.311604956650078"><ele>204.0</ele><time>2026-03-28T11:17:44Z</time></trkpt><trkpt lat="46.52167133599301" lon="5.311483768729569"><ele>203.5</ele><time>2026-03-28T11:17:45Z</time></trkpt><trkpt lat="46.52139443040892" lon="5.31136766244782"><ele>203.0</ele><time>2026-03-28T11:17:46Z</time></trkpt><trkpt lat="46.52111958952211" lon="5.31125538802208"><ele>203.0</ele><time>2026-03-28T11:17:47Z</time></trkpt><trkpt lat="46.52085047700852" lon="5.311148372351886"><ele>203.0</ele><time>2026-03-28T11:17:48Z</time></trkpt><trkpt lat="46.520579790588826" lon="5.31104244197396"><ele>199.5</ele><time>2026-03-28T11:17:49Z</time></trkpt><trkpt lat="46.52031151887527" lon="5.310937523451822"><ele>196.0</ele><time>2026-03-28T11:17:50Z</time></trkpt><trkpt lat="46.52004406429798" lon="5.310844783489343"><ele>196.0</ele><time>2026-03-28T11:17:51Z</time></trkpt><trkpt lat="46.51977564875863" lon="5.310756941418017"><ele>196.0</ele><time>2026-03-28T11:17:52Z</time></trkpt><trkpt lat="46.51950586924673" lon="5.310677538072276"><ele>195.0</ele><time>2026-03-28T11:17:53Z</time></trkpt><trkpt lat="46.519235648546065" lon="5.310603932246696"><ele>194.0</ele><time>2026-03-28T11:17:54Z</time></trkpt><trkpt lat="46.518967523110994" lon="5.310534032075358"><ele>193.5</ele><time>2026-03-28T11:17:55Z</time></trkpt><trkpt lat="46.51870055345746" lon="5.310474791272315"><ele>193.0</ele><time>2026-03-28T11:17:56Z</time></trkpt><trkpt lat="46.51843358931855" lon="5.3104161106795225"><ele>193.0</ele><time>2026-03-28T11:17:57Z</time></trkpt><trkpt lat="46.51816655816289" lon="5.310363061287753"><ele>193.0</ele><time>2026-03-28T11:17:58Z</time></trkpt><trkpt lat="46.517899911209774" lon="5.310311998810981"><ele>193.5</ele><time>2026-03-28T11:17:59Z</time></trkpt><trkpt lat="46.517633361993276" lon="5.310266297956092"><ele>194.0</ele><time>2026-03-28T11:18:00Z</time></trkpt><trkpt lat="46.51736495111358" lon="5.310226720973133"><ele>194.0</ele><time>2026-03-28T11:18:01Z</time></trkpt><trkpt lat="46.517097706946714" lon="5.31018662603287"><ele>194.0</ele><time>2026-03-28T11:18:02Z</time></trkpt><trkpt lat="46.51683041831615" lon="5.310149424256522"><ele>194.5</ele><time>2026-03-28T11:18:03Z</time></trkpt><trkpt lat="46.51656389610944" lon="5.31011774695227"><ele>195.0</ele><time>2026-03-28T11:18:04Z</time></trkpt><trkpt lat="46.51629538528322" lon="5.310088789491276"><ele>195.0</ele><time>2026-03-28T11:18:05Z</time></trkpt><trkpt lat="46.51602819132364" lon="5.310063964442508"><ele>195.0</ele><time>2026-03-28T11:18:06Z</time></trkpt><trkpt lat="46.515759261279364" lon="5.310048558350882"><ele>195.0</ele><time>2026-03-28T11:18:07Z</time></trkpt><trkpt lat="46.515491342369074" lon="5.310035849388924"><ele>195.0</ele><time>2026-03-28T11:18:08Z</time></trkpt><trkpt lat="46.51522323512625" lon="5.310025756769317"><ele>196.0</ele><time>2026-03-28T11:18:09Z</time></trkpt><trkpt lat="46.51495485223855" lon="5.3100207725733375"><ele>197.0</ele><time>2026-03-28T11:18:10Z</time></trkpt><trkpt lat="46.51468623248037" lon="5.310021354477394"><ele>197.0</ele><time>2026-03-28T11:18:11Z</time></trkpt><trkpt lat="46.51441796151979" lon="5.3100240205890055"><ele>197.0</ele><time>2026-03-28T11:18:12Z</time></trkpt><trkpt lat="46.514148433569495" lon="5.310031753117611"><ele>197.0</ele><time>2026-03-28T11:18:13Z</time></trkpt><trkpt lat="46.51388034738837" lon="5.310044223996717"><ele>197.0</ele><time>2026-03-28T11:18:14Z</time></trkpt><trkpt lat="46.513610152272115" lon="5.310061425840389"><ele>198.0</ele><time>2026-03-28T11:18:15Z</time></trkpt><trkpt lat="46.513340645701014" lon="5.310079460328799"><ele>199.0</ele><time>2026-03-28T11:18:16Z</time></trkpt><trkpt lat="46.51307261011666" lon="5.310102575283609"><ele>199.0</ele><time>2026-03-28T11:18:17Z</time></trkpt><trkpt lat="46.51280428795393" lon="5.310130247163961"><ele>199.0</ele><time>2026-03-28T11:18:18Z</time></trkpt><trkpt lat="46.51253609823242" lon="5.310161673329351"><ele>199.0</ele><time>2026-03-28T11:18:19Z</time></trkpt><trkpt lat="46.51226701737796" lon="5.310195443298689"><ele>199.0</ele><time>2026-03-28T11:18:20Z</time></trkpt><trkpt lat="46.51200006244126" lon="5.310237065035474"><ele>199.0</ele><time>2026-03-28T11:18:21Z</time></trkpt><trkpt lat="46.51173391232416" lon="5.310285548484609"><ele>199.0</ele><time>2026-03-28T11:18:22Z</time></trkpt><trkpt lat="46.51146631401375" lon="5.31033406155796"><ele>198.5</ele><time>2026-03-28T11:18:23Z</time></trkpt><trkpt lat="46.51119985908516" lon="5.310389633574513"><ele>198.0</ele><time>2026-03-28T11:18:24Z</time></trkpt><trkpt lat="46.5109331721419" lon="5.310446801113077"><ele>198.0</ele><time>2026-03-28T11:18:25Z</time></trkpt><trkpt lat="46.510666321326944" lon="5.31050475631614"><ele>198.0</ele><time>2026-03-28T11:18:26Z</time></trkpt><trkpt lat="46.51039874206442" lon="5.310564210164167"><ele>197.0</ele><time>2026-03-28T11:18:27Z</time></trkpt><trkpt lat="46.51013029337631" lon="5.310628535333044"><ele>196.0</ele><time>2026-03-28T11:18:28Z</time></trkpt><trkpt lat="46.5098629528284" lon="5.310694712269191"><ele>196.0</ele><time>2026-03-28T11:18:29Z</time></trkpt><trkpt lat="46.509595764766004" lon="5.310762465864094"><ele>196.0</ele><time>2026-03-28T11:18:30Z</time></trkpt><trkpt lat="46.50932713904648" lon="5.31083079327255"><ele>195.5</ele><time>2026-03-28T11:18:31Z</time></trkpt><trkpt lat="46.5090603989539" lon="5.310900897160364"><ele>195.0</ele><time>2026-03-28T11:18:32Z</time></trkpt><trkpt lat="46.50879363917473" lon="5.310968392281781"><ele>193.5</ele><time>2026-03-28T11:18:33Z</time></trkpt><trkpt lat="46.508525421205015" lon="5.311038180187397"><ele>192.0</ele><time>2026-03-28T11:18:34Z</time></trkpt><trkpt lat="46.50825933650955" lon="5.311108680724707"><ele>192.0</ele><time>2026-03-28T11:18:35Z</time></trkpt><trkpt lat="46.50799269545069" lon="5.311177888369164"><ele>192.0</ele><time>2026-03-28T11:18:36Z</time></trkpt><trkpt lat="46.50772444301842" lon="5.311249276064722"><ele>192.0</ele><time>2026-03-28T11:18:37Z</time></trkpt><trkpt lat="46.50745531949264" lon="5.311320514199642"><ele>192.0</ele><time>2026-03-28T11:18:38Z</time></trkpt><trkpt lat="46.50718666289928" lon="5.311392199525042"><ele>192.5</ele><time>2026-03-28T11:18:39Z</time></trkpt><trkpt lat="46.506916189460874" lon="5.311461954015592"><ele>193.0</ele><time>2026-03-28T11:18:40Z</time></trkpt><trkpt lat="46.50664590627851" lon="5.311531612958936"><ele>193.0</ele><time>2026-03-28T11:18:41Z</time></trkpt><trkpt lat="46.50637667158119" lon="5.311599363067012"><ele>193.0</ele><time>2026-03-28T11:18:42Z</time></trkpt><trkpt lat="46.50610852507255" lon="5.311671927469227"><ele>192.5</ele><time>2026-03-28T11:18:43Z</time></trkpt><trkpt lat="46.50584038523056" lon="5.311741828865924"><ele>192.0</ele><time>2026-03-28T11:18:44Z</time></trkpt><trkpt lat="46.50557564497379" lon="5.3118087745799425"><ele>194.0</ele><time>2026-03-28T11:18:45Z</time></trkpt><trkpt lat="46.50530788977196" lon="5.311880438895038"><ele>196.0</ele><time>2026-03-28T11:18:46Z</time></trkpt><trkpt lat="46.505036981088175" lon="5.31195836644272"><ele>196.0</ele><time>2026-03-28T11:18:47Z</time></trkpt><trkpt lat="46.50476368759605" lon="5.31203635813961"><ele>196.0</ele><time>2026-03-28T11:18:48Z</time></trkpt><trkpt lat="46.50449309094764" lon="5.312117806944429"><ele>196.0</ele><time>2026-03-28T11:18:49Z</time></trkpt><trkpt lat="46.50421827613878" lon="5.312193876836808"><ele>196.0</ele><time>2026-03-28T11:18:50Z</time></trkpt><trkpt lat="46.50394347053809" lon="5.312270766812388"><ele>197.5</ele><time>2026-03-28T11:18:51Z</time></trkpt><trkpt lat="46.50366726468377" lon="5.312342810856172"><ele>199.0</ele><time>2026-03-28T11:18:52Z</time></trkpt><trkpt lat="46.50339786971233" lon="5.312419093234557"><ele>199.0</ele><time>2026-03-28T11:18:53Z</time></trkpt><trkpt lat="46.503124195242066" lon="5.312490514210899"><ele>199.0</ele><time>2026-03-28T11:18:54Z</time></trkpt><trkpt lat="46.50285092509098" lon="5.312563108780631"><ele>198.5</ele><time>2026-03-28T11:18:55Z</time></trkpt><trkpt lat="46.502577787966274" lon="5.312634332601969"><ele>198.0</ele><time>2026-03-28T11:18:56Z</time></trkpt><trkpt lat="46.5023040738975" lon="5.312703433901297"><ele>197.5</ele><time>2026-03-28T11:18:57Z</time></trkpt><trkpt lat="46.502033170361294" lon="5.312775196661723"><ele>197.0</ele><time>2026-03-28T11:18:58Z</time></trkpt><trkpt lat="46.501763942217465" lon="5.312846086637042"><ele>197.0</ele><time>2026-03-28T11:18:59Z</time></trkpt><trkpt lat="46.501490634011496" lon="5.312915959612487"><ele>197.0</ele><time>2026-03-28T11:19:00Z</time></trkpt><trkpt lat="46.50121876455978" lon="5.312984552359492"><ele>197.0</ele><time>2026-03-28T11:19:01Z</time></trkpt><trkpt lat="46.50094811482416" lon="5.313059851751015"><ele>197.0</ele><time>2026-03-28T11:19:02Z</time></trkpt><trkpt lat="46.50067547281475" lon="5.313128349670005"><ele>198.0</ele><time>2026-03-28T11:19:03Z</time></trkpt><trkpt lat="46.50040363882889" lon="5.3131922449092155"><ele>199.0</ele><time>2026-03-28T11:19:04Z</time></trkpt><trkpt lat="46.50013139830329" lon="5.313256870861922"><ele>199.0</ele><time>2026-03-28T11:19:05Z</time></trkpt><trkpt lat="46.49986082382346" lon="5.31332118244287"><ele>199.0</ele><time>2026-03-28T11:19:06Z</time></trkpt><trkpt lat="46.49959142975589" lon="5.313389763975608"><ele>198.5</ele><time>2026-03-28T11:19:07Z</time></trkpt><trkpt lat="46.49932305665206" lon="5.313455602381956"><ele>198.0</ele><time>2026-03-28T11:19:08Z</time></trkpt><trkpt lat="46.499054209867175" lon="5.313519075409699"><ele>198.0</ele><time>2026-03-28T11:19:09Z</time></trkpt><trkpt lat="46.49878561000267" lon="5.313579875382408"><ele>198.0</ele><time>2026-03-28T11:19:10Z</time></trkpt><trkpt lat="46.49851664047923" lon="5.3136374108748115"><ele>200.0</ele><time>2026-03-28T11:19:11Z</time></trkpt><trkpt lat="46.498247365511425" lon="5.313691852647857"><ele>202.0</ele><time>2026-03-28T11:19:12Z</time></trkpt><trkpt lat="46.49797753015782" lon="5.313738667960588"><ele>204.0</ele><time>2026-03-28T11:19:13Z</time></trkpt><trkpt lat="46.49770822267866" lon="5.313781394868145"><ele>206.0</ele><time>2026-03-28T11:19:14Z</time></trkpt><trkpt lat="46.49744001985755" lon="5.313818887968831"><ele>206.0</ele><time>2026-03-28T11:19:15Z</time></trkpt><trkpt lat="46.4971704124097" lon="5.313846014446573"><ele>206.0</ele><time>2026-03-28T11:19:16Z</time></trkpt><trkpt lat="46.496901615295336" lon="5.313867271210494"><ele>205.5</ele><time>2026-03-28T11:19:17Z</time></trkpt><trkpt lat="46.49663188368114" lon="5.3138758457936675"><ele>205.0</ele><time>2026-03-28T11:19:18Z</time></trkpt><trkpt lat="46.496364357473446" lon="5.313884444428895"><ele>206.0</ele><time>2026-03-28T11:19:19Z</time></trkpt><trkpt lat="46.49609634260921" lon="5.313882077368205"><ele>207.0</ele><time>2026-03-28T11:19:20Z</time></trkpt><trkpt lat="46.49582575539009" lon="5.313862644550538"><ele>207.0</ele><time>2026-03-28T11:19:21Z</time></trkpt><trkpt lat="46.49555478449358" lon="5.31384292868161"><ele>207.0</ele><time>2026-03-28T11:19:22Z</time></trkpt><trkpt lat="46.49528449911805" lon="5.3138223219000125"><ele>207.0</ele><time>2026-03-28T11:19:23Z</time></trkpt><trkpt lat="46.49501053892327" lon="5.313793099262492"><ele>207.0</ele><time>2026-03-28T11:19:24Z</time></trkpt><trkpt lat="46.49473756184576" lon="5.313760591135294"><ele>207.0</ele><time>2026-03-28T11:19:25Z</time></trkpt><trkpt lat="46.49446372781999" lon="5.313723973715468"><ele>207.0</ele><time>2026-03-28T11:19:26Z</time></trkpt><trkpt lat="46.494191335700876" lon="5.313679743982193"><ele>207.0</ele><time>2026-03-28T11:19:27Z</time></trkpt><trkpt lat="46.493918169709566" lon="5.31362648452703"><ele>207.0</ele><time>2026-03-28T11:19:28Z</time></trkpt><trkpt lat="46.49364581008377" lon="5.313569863618767"><ele>206.5</ele><time>2026-03-28T11:19:29Z</time></trkpt><trkpt lat="46.493372375895035" lon="5.313504573128928"><ele>206.0</ele><time>2026-03-28T11:19:30Z</time></trkpt><trkpt lat="46.49310285130255" lon="5.313436732208656"><ele>207.0</ele><time>2026-03-28T11:19:31Z</time></trkpt><trkpt lat="46.49283259593584" lon="5.313367295761126"><ele>208.0</ele><time>2026-03-28T11:19:32Z</time></trkpt><trkpt lat="46.49256253203487" lon="5.313293237937361"><ele>208.0</ele><time>2026-03-28T11:19:33Z</time></trkpt><trkpt lat="46.49229146754679" lon="5.313213318080814"><ele>208.0</ele><time>2026-03-28T11:19:34Z</time></trkpt><trkpt lat="46.4920202425515" lon="5.313123991881022"><ele>210.5</ele><time>2026-03-28T11:19:35Z</time></trkpt><trkpt lat="46.49175719998683" lon="5.313012857040804"><ele>213.0</ele><time>2026-03-28T11:19:36Z</time></trkpt><trkpt lat="46.49148878075218" lon="5.312901987010301"><ele>212.0</ele><time>2026-03-28T11:19:37Z</time></trkpt><trkpt lat="46.49122166600839" lon="5.312787966007608"><ele>211.0</ele><time>2026-03-28T11:19:38Z</time></trkpt><trkpt lat="46.49095557184107" lon="5.312665045592408"><ele>211.0</ele><time>2026-03-28T11:19:39Z</time></trkpt><trkpt lat="46.49069363031374" lon="5.312534921724732"><ele>211.0</ele><time>2026-03-28T11:19:40Z</time></trkpt><trkpt lat="46.49043393499443" lon="5.312400349722361"><ele>210.5</ele><time>2026-03-28T11:19:41Z</time></trkpt><trkpt lat="46.4901768503821" lon="5.312257356379179"><ele>210.0</ele><time>2026-03-28T11:19:42Z</time></trkpt><trkpt lat="46.489923948472374" lon="5.312108944609757"><ele>210.0</ele><time>2026-03-28T11:19:43Z</time></trkpt><trkpt lat="46.48966974225769" lon="5.3119546352027065"><ele>210.0</ele><time>2026-03-28T11:19:44Z</time></trkpt><trkpt lat="46.489414608192" lon="5.311791792562596"><ele>208.5</ele><time>2026-03-28T11:19:45Z</time></trkpt><trkpt lat="46.489163932440455" lon="5.311617649424534"><ele>207.0</ele><time>2026-03-28T11:19:46Z</time></trkpt><trkpt lat="46.48891253963452" lon="5.311442560326576"><ele>208.0</ele><time>2026-03-28T11:19:47Z</time></trkpt><trkpt lat="46.488663628914374" lon="5.311260233882455"><ele>209.0</ele><time>2026-03-28T11:19:48Z</time></trkpt><trkpt lat="46.488418757510814" lon="5.311071309767307"><ele>209.0</ele><time>2026-03-28T11:19:49Z</time></trkpt><trkpt lat="46.48817459054311" lon="5.31087214353582"><ele>209.0</ele><time>2026-03-28T11:19:50Z</time></trkpt><trkpt lat="46.48793109087778" lon="5.31067204471282"><ele>208.5</ele><time>2026-03-28T11:19:51Z</time></trkpt><trkpt lat="46.4876895870585" lon="5.310461097235744"><ele>208.0</ele><time>2026-03-28T11:19:52Z</time></trkpt><trkpt lat="46.48745300259118" lon="5.3102441287910915"><ele>208.0</ele><time>2026-03-28T11:19:53Z</time></trkpt><trkpt lat="46.48721571029025" lon="5.310021901298377"><ele>208.0</ele><time>2026-03-28T11:19:54Z</time></trkpt><trkpt lat="46.48698547396264" lon="5.3098011376801395"><ele>210.0</ele><time>2026-03-28T11:19:55Z</time></trkpt><trkpt lat="46.48675575854678" lon="5.309569494489977"><ele>212.0</ele><time>2026-03-28T11:19:56Z</time></trkpt><trkpt lat="46.48653187994224" lon="5.309334254708824"><ele>212.0</ele><time>2026-03-28T11:19:57Z</time></trkpt><trkpt lat="46.486298096408305" lon="5.309085214116397"><ele>212.0</ele><time>2026-03-28T11:19:58Z</time></trkpt><trkpt lat="46.48607125924946" lon="5.308843454273117"><ele>212.5</ele><time>2026-03-28T11:19:59Z</time></trkpt><trkpt lat="46.485850239879014" lon="5.308594681231538"><ele>213.0</ele><time>2026-03-28T11:20:00Z</time></trkpt><trkpt lat="46.4856275804123" lon="5.3083464504318805"><ele>214.0</ele><time>2026-03-28T11:20:01Z</time></trkpt><trkpt lat="46.485407597513216" lon="5.30809080361766"><ele>215.0</ele><time>2026-03-28T11:20:02Z</time></trkpt><trkpt lat="46.485189296850834" lon="5.307836935646978"><ele>215.0</ele><time>2026-03-28T11:20:03Z</time></trkpt><trkpt lat="46.484967750658" lon="5.3075809432686665"><ele>215.0</ele><time>2026-03-28T11:20:04Z</time></trkpt><trkpt lat="46.48474891719296" lon="5.30732676671346"><ele>216.0</ele><time>2026-03-28T11:20:05Z</time></trkpt><trkpt lat="46.48453600352315" lon="5.307074423360825"><ele>217.0</ele><time>2026-03-28T11:20:06Z</time></trkpt><trkpt lat="46.484318061334655" lon="5.3068242994254025"><ele>217.0</ele><time>2026-03-28T11:20:07Z</time></trkpt><trkpt lat="46.48410129784373" lon="5.306573381248714"><ele>217.0</ele><time>2026-03-28T11:20:08Z</time></trkpt><trkpt lat="46.48388320855182" lon="5.306319835891819"><ele>215.0</ele><time>2026-03-28T11:20:09Z</time></trkpt><trkpt lat="46.48366817470444" lon="5.306074773953026"><ele>213.0</ele><time>2026-03-28T11:20:10Z</time></trkpt><trkpt lat="46.483455767187614" lon="5.305825709626435"><ele>213.5</ele><time>2026-03-28T11:20:11Z</time></trkpt><trkpt lat="46.48324731341303" lon="5.305569615182818"><ele>214.0</ele><time>2026-03-28T11:20:12Z</time></trkpt><trkpt lat="46.48304067692473" lon="5.305313313658537"><ele>212.5</ele><time>2026-03-28T11:20:13Z</time></trkpt><trkpt lat="46.482836772691925" lon="5.305054448149123"><ele>211.0</ele><time>2026-03-28T11:20:14Z</time></trkpt><trkpt lat="46.4826265531034" lon="5.304802515789744"><ele>211.0</ele><time>2026-03-28T11:20:15Z</time></trkpt><trkpt lat="46.48241435452249" lon="5.30455886594109"><ele>211.0</ele><time>2026-03-28T11:20:16Z</time></trkpt><trkpt lat="46.48219961185378" lon="5.304312001961082"><ele>211.5</ele><time>2026-03-28T11:20:17Z</time></trkpt><trkpt lat="46.481981033447" lon="5.304062009846815"><ele>212.0</ele><time>2026-03-28T11:20:18Z</time></trkpt><trkpt lat="46.48176366956045" lon="5.3038253896520215"><ele>209.5</ele><time>2026-03-28T11:20:19Z</time></trkpt><trkpt lat="46.48154313023383" lon="5.303582550157933"><ele>207.0</ele><time>2026-03-28T11:20:20Z</time></trkpt><trkpt lat="46.48132251005511" lon="5.303348582769578"><ele>207.0</ele><time>2026-03-28T11:20:21Z</time></trkpt><trkpt lat="46.48109987432185" lon="5.303113310962056"><ele>207.0</ele><time>2026-03-28T11:20:22Z</time></trkpt><trkpt lat="46.48087670360296" lon="5.302880543464403"><ele>207.0</ele><time>2026-03-28T11:20:23Z</time></trkpt><trkpt lat="46.480652245597746" lon="5.30265250294782"><ele>207.0</ele><time>2026-03-28T11:20:24Z</time></trkpt><trkpt lat="46.480424784766484" lon="5.302427796600703"><ele>210.5</ele><time>2026-03-28T11:20:25Z</time></trkpt><trkpt lat="46.480195961125176" lon="5.302208324607243"><ele>214.0</ele><time>2026-03-28T11:20:26Z</time></trkpt><trkpt lat="46.47996637149323" lon="5.301993124113728"><ele>214.0</ele><time>2026-03-28T11:20:27Z</time></trkpt><trkpt lat="46.47973229090317" lon="5.30177764429623"><ele>214.0</ele><time>2026-03-28T11:20:28Z</time></trkpt><trkpt lat="46.47949814606224" lon="5.301567850980361"><ele>214.0</ele><time>2026-03-28T11:20:29Z</time></trkpt><trkpt lat="46.47926088916592" lon="5.301362898527786"><ele>214.0</ele><time>2026-03-28T11:20:30Z</time></trkpt><trkpt lat="46.4790247261793" lon="5.301162740658482"><ele>214.0</ele><time>2026-03-28T11:20:31Z</time></trkpt><trkpt lat="46.47878670544124" lon="5.3009649909221475"><ele>214.0</ele><time>2026-03-28T11:20:32Z</time></trkpt><trkpt lat="46.478545151014806" lon="5.300775404724036"><ele>213.0</ele><time>2026-03-28T11:20:33Z</time></trkpt><trkpt lat="46.47830047740955" lon="5.3005823757152415"><ele>212.0</ele><time>2026-03-28T11:20:34Z</time></trkpt><trkpt lat="46.478055062656225" lon="5.300400279216464"><ele>209.5</ele><time>2026-03-28T11:20:35Z</time></trkpt><trkpt lat="46.47780756397646" lon="5.300226491554248"><ele>207.0</ele><time>2026-03-28T11:20:36Z</time></trkpt><trkpt lat="46.47756063214773" lon="5.300052483922461"><ele>207.0</ele><time>2026-03-28T11:20:37Z</time></trkpt><trkpt lat="46.47731218721707" lon="5.299880806568814"><ele>207.0</ele><time>2026-03-28T11:20:38Z</time></trkpt><trkpt lat="46.47706219624608" lon="5.299716190030705"><ele>205.5</ele><time>2026-03-28T11:20:39Z</time></trkpt><trkpt lat="46.476807236587845" lon="5.299557156337716"><ele>204.0</ele><time>2026-03-28T11:20:40Z</time></trkpt><trkpt lat="46.476552659838" lon="5.299403010317773"><ele>204.0</ele><time>2026-03-28T11:20:41Z</time></trkpt><trkpt lat="46.47629575670591" lon="5.299255590769437"><ele>204.0</ele><time>2026-03-28T11:20:42Z</time></trkpt><trkpt lat="46.476043377160934" lon="5.2991098437767095"><ele>205.0</ele><time>2026-03-28T11:20:43Z</time></trkpt><trkpt lat="46.47578725374941" lon="5.298969170787175"><ele>206.0</ele><time>2026-03-28T11:20:44Z</time></trkpt><trkpt lat="46.475529711804015" lon="5.29883391899509"><ele>205.0</ele><time>2026-03-28T11:20:45Z</time></trkpt><trkpt lat="46.47527288494059" lon="5.298702729744285"><ele>204.0</ele><time>2026-03-28T11:20:46Z</time></trkpt><trkpt lat="46.47501336858261" lon="5.298574872328527"><ele>204.0</ele><time>2026-03-28T11:20:47Z</time></trkpt><trkpt lat="46.47475592325378" lon="5.298451659117824"><ele>204.0</ele><time>2026-03-28T11:20:48Z</time></trkpt><trkpt lat="46.474497691611695" lon="5.298337076111934"><ele>202.0</ele><time>2026-03-28T11:20:49Z</time></trkpt><trkpt lat="46.47424356226386" lon="5.298223924768868"><ele>200.0</ele><time>2026-03-28T11:20:50Z</time></trkpt><trkpt lat="46.47398548238005" lon="5.298116875651376"><ele>201.0</ele><time>2026-03-28T11:20:51Z</time></trkpt><trkpt lat="46.47372768766275" lon="5.29800950332873"><ele>202.0</ele><time>2026-03-28T11:20:52Z</time></trkpt><trkpt lat="46.47346712257875" lon="5.29790982849526"><ele>202.0</ele><time>2026-03-28T11:20:53Z</time></trkpt><trkpt lat="46.47320372638137" lon="5.297815865078569"><ele>202.0</ele><time>2026-03-28T11:20:54Z</time></trkpt><trkpt lat="46.47294259316192" lon="5.297725330269138"><ele>205.5</ele><time>2026-03-28T11:20:55Z</time></trkpt><trkpt lat="46.47267849957183" lon="5.297640270656216"><ele>209.0</ele><time>2026-03-28T11:20:56Z</time></trkpt><trkpt lat="46.47241300332371" lon="5.297555058504587"><ele>209.0</ele><time>2026-03-28T11:20:57Z</time></trkpt><trkpt lat="46.47214606414512" lon="5.297477925990198"><ele>209.0</ele><time>2026-03-28T11:20:58Z</time></trkpt><trkpt lat="46.47188120355472" lon="5.297404452314694"><ele>208.5</ele><time>2026-03-28T11:20:59Z</time></trkpt><trkpt lat="46.471615294625295" lon="5.297339090629213"><ele>208.0</ele><time>2026-03-28T11:21:00Z</time></trkpt><trkpt lat="46.471350443270154" lon="5.297275994120176"><ele>209.5</ele><time>2026-03-28T11:21:01Z</time></trkpt><trkpt lat="46.47108695801663" lon="5.297211504744112"><ele>211.0</ele><time>2026-03-28T11:21:02Z</time></trkpt><trkpt lat="46.47081995839321" lon="5.297156282778509"><ele>211.0</ele><time>2026-03-28T11:21:03Z</time></trkpt><trkpt lat="46.470551801782484" lon="5.2971062793061146"><ele>211.0</ele><time>2026-03-28T11:21:04Z</time></trkpt><trkpt lat="46.470282915320254" lon="5.297058419888482"><ele>211.5</ele><time>2026-03-28T11:21:05Z</time></trkpt><trkpt lat="46.470014690945284" lon="5.29701514632777"><ele>212.0</ele><time>2026-03-28T11:21:06Z</time></trkpt><trkpt lat="46.46974743436112" lon="5.296973910789673"><ele>213.5</ele><time>2026-03-28T11:21:07Z</time></trkpt><trkpt lat="46.46948004936384" lon="5.296940123069174"><ele>215.0</ele><time>2026-03-28T11:21:08Z</time></trkpt><trkpt lat="46.46921093561945" lon="5.296908425609995"><ele>215.0</ele><time>2026-03-28T11:21:09Z</time></trkpt><trkpt lat="46.468940949912074" lon="5.2968754743472335"><ele>215.0</ele><time>2026-03-28T11:21:10Z</time></trkpt><trkpt lat="46.46867098824971" lon="5.296844529693826"><ele>217.0</ele><time>2026-03-28T11:21:11Z</time></trkpt><trkpt lat="46.46840122976264" lon="5.296810737618051"><ele>219.0</ele><time>2026-03-28T11:21:12Z</time></trkpt><trkpt lat="46.468129774746025" lon="5.296777033074428"><ele>219.0</ele><time>2026-03-28T11:21:13Z</time></trkpt><trkpt lat="46.46785778007597" lon="5.296748149941119"><ele>219.0</ele><time>2026-03-28T11:21:14Z</time></trkpt><trkpt lat="46.467586173663065" lon="5.296715670141117"><ele>219.0</ele><time>2026-03-28T11:21:15Z</time></trkpt><trkpt lat="46.4673133764889" lon="5.296685334540548"><ele>219.0</ele><time>2026-03-28T11:21:16Z</time></trkpt><trkpt lat="46.46704010572097" lon="5.296655953966536"><ele>219.5</ele><time>2026-03-28T11:21:17Z</time></trkpt><trkpt lat="46.46676469145078" lon="5.2966270541083516"><ele>220.0</ele><time>2026-03-28T11:21:18Z</time></trkpt><trkpt lat="46.4664901534644" lon="5.2965965827117945"><ele>220.5</ele><time>2026-03-28T11:21:19Z</time></trkpt><trkpt lat="46.4662154756874" lon="5.2965651722973455"><ele>221.0</ele><time>2026-03-28T11:21:20Z</time></trkpt><trkpt lat="46.46594045224878" lon="5.29653281388623"><ele>221.0</ele><time>2026-03-28T11:21:21Z</time></trkpt><trkpt lat="46.46566394634088" lon="5.296493729868066"><ele>221.0</ele><time>2026-03-28T11:21:22Z</time></trkpt><trkpt lat="46.46538846872592" lon="5.296460170271787"><ele>221.0</ele><time>2026-03-28T11:21:23Z</time></trkpt><trkpt lat="46.46511324796933" lon="5.296421148558823"><ele>221.0</ele><time>2026-03-28T11:21:24Z</time></trkpt><trkpt lat="46.46483791068454" lon="5.296378856358439"><ele>218.0</ele><time>2026-03-28T11:21:25Z</time></trkpt><trkpt lat="46.46456176576115" lon="5.296329662179792"><ele>215.0</ele><time>2026-03-28T11:21:26Z</time></trkpt><trkpt lat="46.46428543140482" lon="5.296283539800405"><ele>215.0</ele><time>2026-03-28T11:21:27Z</time></trkpt><trkpt lat="46.464009714762064" lon="5.2962331380279055"><ele>215.0</ele><time>2026-03-28T11:21:28Z</time></trkpt><trkpt lat="46.463735194243526" lon="5.296178120433167"><ele>212.5</ele><time>2026-03-28T11:21:29Z</time></trkpt><trkpt lat="46.46346156896224" lon="5.29612227329768"><ele>210.0</ele><time>2026-03-28T11:21:30Z</time></trkpt><trkpt lat="46.46318886406064" lon="5.296057956983975"><ele>209.5</ele><time>2026-03-28T11:21:31Z</time></trkpt><trkpt lat="46.462916952572265" lon="5.295988150417417"><ele>209.0</ele><time>2026-03-28T11:21:32Z</time></trkpt><trkpt lat="46.46264576879252" lon="5.295917095923359"><ele>209.0</ele><time>2026-03-28T11:21:33Z</time></trkpt><trkpt lat="46.46237544375094" lon="5.295841209420812"><ele>209.0</ele><time>2026-03-28T11:21:34Z</time></trkpt><trkpt lat="46.46210602396827" lon="5.295757975586829"><ele>209.0</ele><time>2026-03-28T11:21:35Z</time></trkpt><trkpt lat="46.46183825044231" lon="5.29567697679134"><ele>209.0</ele><time>2026-03-28T11:21:36Z</time></trkpt><trkpt lat="46.461571334997906" lon="5.295586798053046"><ele>209.0</ele><time>2026-03-28T11:21:37Z</time></trkpt><trkpt lat="46.461304998411194" lon="5.295493188100761"><ele>209.0</ele><time>2026-03-28T11:21:38Z</time></trkpt><trkpt lat="46.46103762500886" lon="5.295391232814309"><ele>206.0</ele><time>2026-03-28T11:21:39Z</time></trkpt><trkpt lat="46.46077340569367" lon="5.295282932733339"><ele>203.0</ele><time>2026-03-28T11:21:40Z</time></trkpt><trkpt lat="46.460509374030735" lon="5.295172791717383"><ele>201.0</ele><time>2026-03-28T11:21:41Z</time></trkpt><trkpt lat="46.46024601608067" lon="5.2950591155506705"><ele>199.0</ele><time>2026-03-28T11:21:42Z</time></trkpt><trkpt lat="46.45998539057861" lon="5.294938320275982"><ele>199.0</ele><time>2026-03-28T11:21:43Z</time></trkpt><trkpt lat="46.45972660832336" lon="5.294811488623784"><ele>199.0</ele><time>2026-03-28T11:21:44Z</time></trkpt><trkpt lat="46.459468007403075" lon="5.294680634209412"><ele>198.0</ele><time>2026-03-28T11:21:45Z</time></trkpt><trkpt lat="46.459208838488934" lon="5.294548172284585"><ele>197.0</ele><time>2026-03-28T11:21:46Z</time></trkpt><trkpt lat="46.45895256852503" lon="5.294407639993812"><ele>196.5</ele><time>2026-03-28T11:21:47Z</time></trkpt><trkpt lat="46.45869743802037" lon="5.294268703309029"><ele>196.0</ele><time>2026-03-28T11:21:48Z</time></trkpt><trkpt lat="46.45844517024953" lon="5.294122278612896"><ele>196.0</ele><time>2026-03-28T11:21:49Z</time></trkpt><trkpt lat="46.45819777949145" lon="5.293971795773991"><ele>196.0</ele><time>2026-03-28T11:21:50Z</time></trkpt><trkpt lat="46.457951486726394" lon="5.2938190658732545"><ele>196.0</ele><time>2026-03-28T11:21:51Z</time></trkpt><trkpt lat="46.45770752787424" lon="5.293662487259888"><ele>196.0</ele><time>2026-03-28T11:21:52Z</time></trkpt><trkpt lat="46.45746300030188" lon="5.293498255480855"><ele>196.0</ele><time>2026-03-28T11:21:53Z</time></trkpt><trkpt lat="46.45721848011839" lon="5.293331936166171"><ele>196.0</ele><time>2026-03-28T11:21:54Z</time></trkpt><trkpt lat="46.45697347312441" lon="5.2931616773563395"><ele>197.5</ele><time>2026-03-28T11:21:55Z</time></trkpt><trkpt lat="46.456735402550336" lon="5.292988336024893"><ele>199.0</ele><time>2026-03-28T11:21:56Z</time></trkpt><trkpt lat="46.45649739692559" lon="5.292809790372449"><ele>201.0</ele><time>2026-03-28T11:21:57Z</time></trkpt><trkpt lat="46.45626231030383" lon="5.292627152920613"><ele>203.0</ele><time>2026-03-28T11:21:58Z</time></trkpt><trkpt lat="46.45602863885901" lon="5.292438453579441"><ele>203.5</ele><time>2026-03-28T11:21:59Z</time></trkpt><trkpt lat="46.455798404707146" lon="5.292242709579155"><ele>204.0</ele><time>2026-03-28T11:22:00Z</time></trkpt><trkpt lat="46.45556736108929" lon="5.2920478026618785"><ele>204.0</ele><time>2026-03-28T11:22:01Z</time></trkpt><trkpt lat="46.45533846433292" lon="5.291851557498865"><ele>204.0</ele><time>2026-03-28T11:22:02Z</time></trkpt><trkpt lat="46.45510979403833" lon="5.2916499731293305"><ele>204.0</ele><time>2026-03-28T11:22:03Z</time></trkpt><trkpt lat="46.45488079670899" lon="5.291444650962383"><ele>204.0</ele><time>2026-03-28T11:22:04Z</time></trkpt><trkpt lat="46.45465525645095" lon="5.2912361936069185"><ele>204.0</ele><time>2026-03-28T11:22:05Z</time></trkpt><trkpt lat="46.454429352816256" lon="5.291021138172498"><ele>204.0</ele><time>2026-03-28T11:22:06Z</time></trkpt><trkpt lat="46.45420574510026" lon="5.290802133791171"><ele>204.5</ele><time>2026-03-28T11:22:07Z</time></trkpt><trkpt lat="46.45398306439153" lon="5.290580312395028"><ele>205.0</ele><time>2026-03-28T11:22:08Z</time></trkpt><trkpt lat="46.45376324475193" lon="5.290353509197002"><ele>205.0</ele><time>2026-03-28T11:22:09Z</time></trkpt><trkpt lat="46.45354364585561" lon="5.290123479371324"><ele>205.0</ele><time>2026-03-28T11:22:10Z</time></trkpt><trkpt lat="46.45332730503769" lon="5.289886680164291"><ele>204.5</ele><time>2026-03-28T11:22:11Z</time></trkpt><trkpt lat="46.453112144013964" lon="5.2896511241929725"><ele>204.0</ele><time>2026-03-28T11:22:12Z</time></trkpt><trkpt lat="46.452898917375656" lon="5.289409556624085"><ele>204.0</ele><time>2026-03-28T11:22:13Z</time></trkpt><trkpt lat="46.45268754504632" lon="5.289162642845917"><ele>204.0</ele><time>2026-03-28T11:22:14Z</time></trkpt><trkpt lat="46.45247918645125" lon="5.288914245264955"><ele>204.0</ele><time>2026-03-28T11:22:15Z</time></trkpt><trkpt lat="46.452272585697784" lon="5.288663851971084"><ele>204.0</ele><time>2026-03-28T11:22:16Z</time></trkpt><trkpt lat="46.45206999400935" lon="5.288407091082996"><ele>204.0</ele><time>2026-03-28T11:22:17Z</time></trkpt><trkpt lat="46.4518662845711" lon="5.288148146114669"><ele>204.0</ele><time>2026-03-28T11:22:18Z</time></trkpt><trkpt lat="46.45166399381619" lon="5.287884678110278"><ele>204.5</ele><time>2026-03-28T11:22:19Z</time></trkpt><trkpt lat="46.45146332220498" lon="5.287615912975334"><ele>205.0</ele><time>2026-03-28T11:22:20Z</time></trkpt><trkpt lat="46.45126577248819" lon="5.28734497325134"><ele>204.0</ele><time>2026-03-28T11:22:21Z</time></trkpt><trkpt lat="46.451071330961604" lon="5.2870697020990916"><ele>203.0</ele><time>2026-03-28T11:22:22Z</time></trkpt><trkpt lat="46.45087812147854" lon="5.286785953312109"><ele>203.0</ele><time>2026-03-28T11:22:23Z</time></trkpt><trkpt lat="46.4506872975489" lon="5.286498710240676"><ele>203.0</ele><time>2026-03-28T11:22:24Z</time></trkpt><trkpt lat="46.45050169397565" lon="5.286211096461515"><ele>203.0</ele><time>2026-03-28T11:22:25Z</time></trkpt><trkpt lat="46.450319726488765" lon="5.285921803487311"><ele>203.0</ele><time>2026-03-28T11:22:26Z</time></trkpt><trkpt lat="46.45013434702552" lon="5.285628114677223"><ele>203.0</ele><time>2026-03-28T11:22:27Z</time></trkpt><trkpt lat="46.44995076503675" lon="5.285332984434512"><ele>203.0</ele><time>2026-03-28T11:22:28Z</time></trkpt><trkpt lat="46.44977018898607" lon="5.285030738321619"><ele>203.0</ele><time>2026-03-28T11:22:29Z</time></trkpt><trkpt lat="46.44959206557825" lon="5.284725702098856"><ele>203.0</ele><time>2026-03-28T11:22:30Z</time></trkpt><trkpt lat="46.44941664689537" lon="5.284418360387243"><ele>203.0</ele><time>2026-03-28T11:22:31Z</time></trkpt><trkpt lat="46.44924238033149" lon="5.2841110236158215"><ele>203.0</ele><time>2026-03-28T11:22:32Z</time></trkpt><trkpt lat="46.449065310985915" lon="5.283803685262935"><ele>203.0</ele><time>2026-03-28T11:22:33Z</time></trkpt><trkpt lat="46.44888953547208" lon="5.283493749242646"><ele>203.0</ele><time>2026-03-28T11:22:34Z</time></trkpt><trkpt lat="46.44871431879907" lon="5.283181623204114"><ele>202.5</ele><time>2026-03-28T11:22:35Z</time></trkpt><trkpt lat="46.44853975292257" lon="5.282868974796173"><ele>202.0</ele><time>2026-03-28T11:22:36Z</time></trkpt><trkpt lat="46.448365585988235" lon="5.282557667542461"><ele>203.0</ele><time>2026-03-28T11:22:37Z</time></trkpt><trkpt lat="46.4481930737477" lon="5.2822444943833196"><ele>204.0</ele><time>2026-03-28T11:22:38Z</time></trkpt><trkpt lat="46.44801648459349" lon="5.281934704699939"><ele>202.5</ele><time>2026-03-28T11:22:39Z</time></trkpt><trkpt lat="46.44783954451266" lon="5.281622832404351"><ele>201.0</ele><time>2026-03-28T11:22:40Z</time></trkpt><trkpt lat="46.44766110420547" lon="5.2813102251024535"><ele>201.0</ele><time>2026-03-28T11:22:41Z</time></trkpt><trkpt lat="46.44748516790962" lon="5.280995590022303"><ele>201.0</ele><time>2026-03-28T11:22:42Z</time></trkpt><trkpt lat="46.44730817947722" lon="5.280684127185407"><ele>198.0</ele><time>2026-03-28T11:22:43Z</time></trkpt><trkpt lat="46.447129977951455" lon="5.2803744629139135"><ele>195.0</ele><time>2026-03-28T11:22:44Z</time></trkpt><trkpt lat="46.44695624276131" lon="5.280064635594588"><ele>193.5</ele><time>2026-03-28T11:22:45Z</time></trkpt><trkpt lat="46.44678589474959" lon="5.279754287063459"><ele>192.0</ele><time>2026-03-28T11:22:46Z</time></trkpt><trkpt lat="46.44661420990991" lon="5.2794509935559635"><ele>192.0</ele><time>2026-03-28T11:22:47Z</time></trkpt><trkpt lat="46.446441952115556" lon="5.279152675022298"><ele>192.0</ele><time>2026-03-28T11:22:48Z</time></trkpt><trkpt lat="46.446265639713424" lon="5.278858046415275"><ele>193.0</ele><time>2026-03-28T11:22:49Z</time></trkpt><trkpt lat="46.44608759419544" lon="5.278564693468276"><ele>194.0</ele><time>2026-03-28T11:22:50Z</time></trkpt><trkpt lat="46.445905849736874" lon="5.278272376599244"><ele>193.0</ele><time>2026-03-28T11:22:51Z</time></trkpt><trkpt lat="46.44571937901248" lon="5.277974514496512"><ele>192.0</ele><time>2026-03-28T11:22:52Z</time></trkpt><trkpt lat="46.44553644351317" lon="5.277682103385949"><ele>192.5</ele><time>2026-03-28T11:22:53Z</time></trkpt><trkpt lat="46.44534758705321" lon="5.277390350276441"><ele>193.0</ele><time>2026-03-28T11:22:54Z</time></trkpt><trkpt lat="46.44515612806318" lon="5.277103080424369"><ele>193.0</ele><time>2026-03-28T11:22:55Z</time></trkpt><trkpt lat="46.44496145199258" lon="5.276823514504967"><ele>193.0</ele><time>2026-03-28T11:22:56Z</time></trkpt><trkpt lat="46.44476130486027" lon="5.276544145937597"><ele>193.0</ele><time>2026-03-28T11:22:57Z</time></trkpt><trkpt lat="46.444561456374984" lon="5.276270518311534"><ele>193.0</ele><time>2026-03-28T11:22:58Z</time></trkpt><trkpt lat="46.44435955854259" lon="5.276005515816248"><ele>193.0</ele><time>2026-03-28T11:22:59Z</time></trkpt><trkpt lat="46.444153260987484" lon="5.2757430330881885"><ele>193.0</ele><time>2026-03-28T11:23:00Z</time></trkpt><trkpt lat="46.443944705511164" lon="5.275483155453419"><ele>192.5</ele><time>2026-03-28T11:23:01Z</time></trkpt><trkpt lat="46.44373361683037" lon="5.275227969698566"><ele>192.0</ele><time>2026-03-28T11:23:02Z</time></trkpt><trkpt lat="46.44351964850256" lon="5.274979452610826"><ele>192.0</ele><time>2026-03-28T11:23:03Z</time></trkpt><trkpt lat="46.44330220528941" lon="5.274733632672276"><ele>192.0</ele><time>2026-03-28T11:23:04Z</time></trkpt><trkpt lat="46.44308467512123" lon="5.2744875798607715"><ele>193.0</ele><time>2026-03-28T11:23:05Z</time></trkpt><trkpt lat="46.442867356635766" lon="5.2742391428272954"><ele>194.0</ele><time>2026-03-28T11:23:06Z</time></trkpt><trkpt lat="46.4426524048021" lon="5.273994815794101"><ele>194.5</ele><time>2026-03-28T11:23:07Z</time></trkpt><trkpt lat="46.44243469992168" lon="5.273760659333325"><ele>195.0</ele><time>2026-03-28T11:23:08Z</time></trkpt><trkpt lat="46.442213472293616" lon="5.273540068708873"><ele>194.5</ele><time>2026-03-28T11:23:09Z</time></trkpt><trkpt lat="46.44198797519037" lon="5.273320719168355"><ele>194.0</ele><time>2026-03-28T11:23:10Z</time></trkpt><trkpt lat="46.44176008874013" lon="5.273110649494318"><ele>194.0</ele><time>2026-03-28T11:23:11Z</time></trkpt><trkpt lat="46.441529927984654" lon="5.272909043393663"><ele>194.0</ele><time>2026-03-28T11:23:12Z</time></trkpt><trkpt lat="46.441299209802665" lon="5.27271273268544"><ele>194.5</ele><time>2026-03-28T11:23:13Z</time></trkpt><trkpt lat="46.44106629523925" lon="5.27252300367137"><ele>195.0</ele><time>2026-03-28T11:23:14Z</time></trkpt><trkpt lat="46.440830080301055" lon="5.272339658374493"><ele>195.5</ele><time>2026-03-28T11:23:15Z</time></trkpt><trkpt lat="46.44059246707659" lon="5.272160504872027"><ele>196.0</ele><time>2026-03-28T11:23:16Z</time></trkpt><trkpt lat="46.440349494688455" lon="5.271983401743002"><ele>195.0</ele><time>2026-03-28T11:23:17Z</time></trkpt><trkpt lat="46.44010907144138" lon="5.2718135304489495"><ele>194.0</ele><time>2026-03-28T11:23:18Z</time></trkpt><trkpt lat="46.439865013827465" lon="5.271648723794298"><ele>194.5</ele><time>2026-03-28T11:23:19Z</time></trkpt><trkpt lat="46.43961926553927" lon="5.271490143622338"><ele>195.0</ele><time>2026-03-28T11:23:20Z</time></trkpt><trkpt lat="46.43937407497493" lon="5.271332909225155"><ele>196.5</ele><time>2026-03-28T11:23:21Z</time></trkpt><trkpt lat="46.43912357254869" lon="5.271181298915502"><ele>198.0</ele><time>2026-03-28T11:23:22Z</time></trkpt><trkpt lat="46.43887122104494" lon="5.271034253299426"><ele>199.0</ele><time>2026-03-28T11:23:23Z</time></trkpt><trkpt lat="46.438620966500956" lon="5.270895093702941"><ele>200.0</ele><time>2026-03-28T11:23:24Z</time></trkpt><trkpt lat="46.43836968197189" lon="5.270759895943366"><ele>200.0</ele><time>2026-03-28T11:23:25Z</time></trkpt><trkpt lat="46.43811776793682" lon="5.270631090819105"><ele>200.0</ele><time>2026-03-28T11:23:26Z</time></trkpt><trkpt lat="46.4378618624021" lon="5.2705055007020585"><ele>200.5</ele><time>2026-03-28T11:23:27Z</time></trkpt><trkpt lat="46.43760899778038" lon="5.270389254662182"><ele>201.0</ele><time>2026-03-28T11:23:28Z</time></trkpt><trkpt lat="46.43734323877856" lon="5.270278803715833"><ele>200.5</ele><time>2026-03-28T11:23:29Z</time></trkpt><trkpt lat="46.437084699530466" lon="5.270172691064336"><ele>200.0</ele><time>2026-03-28T11:23:30Z</time></trkpt><trkpt lat="46.43682700769023" lon="5.270075948681412"><ele>200.0</ele><time>2026-03-28T11:23:31Z</time></trkpt><trkpt lat="46.43656441393873" lon="5.269979256532934"><ele>200.0</ele><time>2026-03-28T11:23:32Z</time></trkpt><trkpt lat="46.43630295800651" lon="5.269892467577013"><ele>201.5</ele><time>2026-03-28T11:23:33Z</time></trkpt><trkpt lat="46.43604179997012" lon="5.269810433051131"><ele>203.0</ele><time>2026-03-28T11:23:34Z</time></trkpt><trkpt lat="46.43577775733652" lon="5.269731644178654"><ele>203.0</ele><time>2026-03-28T11:23:35Z</time></trkpt><trkpt lat="46.43551453934518" lon="5.269654272564975"><ele>203.0</ele><time>2026-03-28T11:23:36Z</time></trkpt><trkpt lat="46.43525369489309" lon="5.269581037946883"><ele>203.0</ele><time>2026-03-28T11:23:37Z</time></trkpt><trkpt lat="46.434989538139455" lon="5.269516754237295"><ele>203.0</ele><time>2026-03-28T11:23:38Z</time></trkpt><trkpt lat="46.43472410256181" lon="5.26946189951861"><ele>203.5</ele><time>2026-03-28T11:23:39Z</time></trkpt><trkpt lat="46.43445834747912" lon="5.269411481852526"><ele>204.0</ele><time>2026-03-28T11:23:40Z</time></trkpt><trkpt lat="46.4341913800739" lon="5.2693674247004525"><ele>204.0</ele><time>2026-03-28T11:23:41Z</time></trkpt><trkpt lat="46.43392526495119" lon="5.269327713620642"><ele>204.0</ele><time>2026-03-28T11:23:42Z</time></trkpt><trkpt lat="46.4336573993774" lon="5.269297910768896"><ele>204.0</ele><time>2026-03-28T11:23:43Z</time></trkpt><trkpt lat="46.43339113684807" lon="5.269275388116628"><ele>204.0</ele><time>2026-03-28T11:23:44Z</time></trkpt><trkpt lat="46.433122793999374" lon="5.269259994873561"><ele>204.0</ele><time>2026-03-28T11:23:45Z</time></trkpt><trkpt lat="46.43285221784711" lon="5.269245092985592"><ele>204.0</ele><time>2026-03-28T11:23:46Z</time></trkpt><trkpt lat="46.43258292070694" lon="5.269235961159451"><ele>204.0</ele><time>2026-03-28T11:23:47Z</time></trkpt><trkpt lat="46.432313126704884" lon="5.269231755960013"><ele>204.0</ele><time>2026-03-28T11:23:48Z</time></trkpt><trkpt lat="46.4320434474998" lon="5.269231434158824"><ele>204.5</ele><time>2026-03-28T11:23:49Z</time></trkpt><trkpt lat="46.43177457200788" lon="5.269239125923448"><ele>205.0</ele><time>2026-03-28T11:23:50Z</time></trkpt><trkpt lat="46.43150505941332" lon="5.269252965825089"><ele>207.5</ele><time>2026-03-28T11:23:51Z</time></trkpt><trkpt lat="46.43123492875704" lon="5.269272200866642"><ele>210.0</ele><time>2026-03-28T11:23:52Z</time></trkpt><trkpt lat="46.43096378428322" lon="5.269298863643286"><ele>210.0</ele><time>2026-03-28T11:23:53Z</time></trkpt><trkpt lat="46.4306938864897" lon="5.269331893886618"><ele>210.0</ele><time>2026-03-28T11:23:54Z</time></trkpt><trkpt lat="46.43042585689541" lon="5.269363267926233"><ele>209.5</ele><time>2026-03-28T11:23:55Z</time></trkpt><trkpt lat="46.430157466018244" lon="5.269405203769597"><ele>209.0</ele><time>2026-03-28T11:23:56Z</time></trkpt><trkpt lat="46.42988917184128" lon="5.2694521140313215"><ele>212.0</ele><time>2026-03-28T11:23:57Z</time></trkpt><trkpt lat="46.42962540382554" lon="5.269505597084431"><ele>215.0</ele><time>2026-03-28T11:23:58Z</time></trkpt><trkpt lat="46.42936473087849" lon="5.269562622145234"><ele>215.0</ele><time>2026-03-28T11:23:59Z</time></trkpt><trkpt lat="46.429103335938194" lon="5.269626723524221"><ele>215.0</ele><time>2026-03-28T11:24:00Z</time></trkpt><trkpt lat="46.428842420357384" lon="5.269694608028102"><ele>212.0</ele><time>2026-03-28T11:24:01Z</time></trkpt><trkpt lat="46.428584721139785" lon="5.269775586870048"><ele>209.0</ele><time>2026-03-28T11:24:02Z</time></trkpt><trkpt lat="46.42832652305373" lon="5.269866861499087"><ele>209.0</ele><time>2026-03-28T11:24:03Z</time></trkpt><trkpt lat="46.42806537906911" lon="5.2699648392315055"><ele>209.0</ele><time>2026-03-28T11:24:04Z</time></trkpt><trkpt lat="46.42780244375722" lon="5.270068332409445"><ele>209.0</ele><time>2026-03-28T11:24:05Z</time></trkpt><trkpt lat="46.427538102050825" lon="5.270175928493613"><ele>209.0</ele><time>2026-03-28T11:24:06Z</time></trkpt><trkpt lat="46.427273581578554" lon="5.270282560512292"><ele>208.0</ele><time>2026-03-28T11:24:07Z</time></trkpt><trkpt lat="46.427009930663985" lon="5.2703916449506165"><ele>207.0</ele><time>2026-03-28T11:24:08Z</time></trkpt><trkpt lat="46.426747514598524" lon="5.270507899902299"><ele>204.5</ele><time>2026-03-28T11:24:09Z</time></trkpt><trkpt lat="46.42648542566989" lon="5.270626116517191"><ele>202.0</ele><time>2026-03-28T11:24:10Z</time></trkpt><trkpt lat="46.426224773809054" lon="5.270752456920244"><ele>201.0</ele><time>2026-03-28T11:24:11Z</time></trkpt><trkpt lat="46.425968332781636" lon="5.270885692679061"><ele>200.0</ele><time>2026-03-28T11:24:12Z</time></trkpt><trkpt lat="46.42571122252649" lon="5.271031572702676"><ele>198.5</ele><time>2026-03-28T11:24:13Z</time></trkpt><trkpt lat="46.425452010803106" lon="5.271184911704421"><ele>197.0</ele><time>2026-03-28T11:24:14Z</time></trkpt><trkpt lat="46.42519544021629" lon="5.271340751371949"><ele>197.0</ele><time>2026-03-28T11:24:15Z</time></trkpt><trkpt lat="46.42494190097565" lon="5.271502941957028"><ele>197.0</ele><time>2026-03-28T11:24:16Z</time></trkpt><trkpt lat="46.42468885881127" lon="5.271666932110435"><ele>196.0</ele><time>2026-03-28T11:24:17Z</time></trkpt><trkpt lat="46.42443778774127" lon="5.271835980591628"><ele>195.0</ele><time>2026-03-28T11:24:18Z</time></trkpt><trkpt lat="46.42418919273636" lon="5.272006371816599"><ele>195.0</ele><time>2026-03-28T11:24:19Z</time></trkpt><trkpt lat="46.42394110303462" lon="5.272181768837025"><ele>195.0</ele><time>2026-03-28T11:24:20Z</time></trkpt><trkpt lat="46.423693762273025" lon="5.272357279295958"><ele>194.5</ele><time>2026-03-28T11:24:21Z</time></trkpt><trkpt lat="46.42344478540321" lon="5.272532884386262"><ele>194.0</ele><time>2026-03-28T11:24:22Z</time></trkpt><trkpt lat="46.423197606958546" lon="5.272704099105374"><ele>194.5</ele><time>2026-03-28T11:24:23Z</time></trkpt><trkpt lat="46.422953126695695" lon="5.27287798089831"><ele>195.0</ele><time>2026-03-28T11:24:24Z</time></trkpt><trkpt lat="46.422709542447755" lon="5.273058411337806"><ele>195.0</ele><time>2026-03-28T11:24:25Z</time></trkpt><trkpt lat="46.422466372861564" lon="5.273240311490455"><ele>195.0</ele><time>2026-03-28T11:24:26Z</time></trkpt><trkpt lat="46.422225819963906" lon="5.273428164051594"><ele>195.0</ele><time>2026-03-28T11:24:27Z</time></trkpt><trkpt lat="46.421985033144765" lon="5.273617059570116"><ele>195.0</ele><time>2026-03-28T11:24:28Z</time></trkpt><trkpt lat="46.42174372002509" lon="5.2738061695830245"><ele>195.5</ele><time>2026-03-28T11:24:29Z</time></trkpt><trkpt lat="46.42150348836805" lon="5.273992289615863"><ele>196.0</ele><time>2026-03-28T11:24:30Z</time></trkpt><trkpt lat="46.421263392968996" lon="5.274176772944053"><ele>196.0</ele><time>2026-03-28T11:24:31Z</time></trkpt><trkpt lat="46.421024316498155" lon="5.274358680814279"><ele>196.0</ele><time>2026-03-28T11:24:32Z</time></trkpt><trkpt lat="46.42078657901554" lon="5.27454132109715"><ele>196.0</ele><time>2026-03-28T11:24:33Z</time></trkpt><trkpt lat="46.42054626505815" lon="5.274718543501721"><ele>196.0</ele><time>2026-03-28T11:24:34Z</time></trkpt><trkpt lat="46.42030557139298" lon="5.274895484863849"><ele>197.5</ele><time>2026-03-28T11:24:35Z</time></trkpt><trkpt lat="46.42006415496901" lon="5.275064051794118"><ele>199.0</ele><time>2026-03-28T11:24:36Z</time></trkpt><trkpt lat="46.419822503274354" lon="5.275232481117358"><ele>200.0</ele><time>2026-03-28T11:24:37Z</time></trkpt><trkpt lat="46.41957834436932" lon="5.275392140823113"><ele>201.0</ele><time>2026-03-28T11:24:38Z</time></trkpt><trkpt lat="46.419329550582006" lon="5.275541746558362"><ele>199.5</ele><time>2026-03-28T11:24:39Z</time></trkpt><trkpt lat="46.41908208523128" lon="5.2756890930469815"><ele>198.0</ele><time>2026-03-28T11:24:40Z</time></trkpt><trkpt lat="46.41883225091581" lon="5.275830366262796"><ele>197.5</ele><time>2026-03-28T11:24:41Z</time></trkpt><trkpt lat="46.418582333296975" lon="5.275969495223452"><ele>197.0</ele><time>2026-03-28T11:24:42Z</time></trkpt><trkpt lat="46.41832826570685" lon="5.2761001957621"><ele>197.0</ele><time>2026-03-28T11:24:43Z</time></trkpt><trkpt lat="46.41807279389217" lon="5.276225620114476"><ele>197.0</ele><time>2026-03-28T11:24:44Z</time></trkpt><trkpt lat="46.417817374618096" lon="5.276345590208748"><ele>197.0</ele><time>2026-03-28T11:24:45Z</time></trkpt><trkpt lat="46.41755901609633" lon="5.27645934176452"><ele>197.0</ele><time>2026-03-28T11:24:46Z</time></trkpt><trkpt lat="46.41730103612418" lon="5.276568527350637"><ele>197.5</ele><time>2026-03-28T11:24:47Z</time></trkpt><trkpt lat="46.41704044593478" lon="5.276670566067035"><ele>198.0</ele><time>2026-03-28T11:24:48Z</time></trkpt><trkpt lat="46.41677652843595" lon="5.276764348687288"><ele>198.0</ele><time>2026-03-28T11:24:49Z</time></trkpt><trkpt lat="46.416513795293724" lon="5.276854742154003"><ele>198.0</ele><time>2026-03-28T11:24:50Z</time></trkpt><trkpt lat="46.41624846698105" lon="5.276937586910289"><ele>200.0</ele><time>2026-03-28T11:24:51Z</time></trkpt><trkpt lat="46.41598293391755" lon="5.277012648581291"><ele>202.0</ele><time>2026-03-28T11:24:52Z</time></trkpt><trkpt lat="46.41571523908044" lon="5.277083855265432"><ele>204.5</ele><time>2026-03-28T11:24:53Z</time></trkpt><trkpt lat="46.41544721727079" lon="5.277146465273134"><ele>207.0</ele><time>2026-03-28T11:24:54Z</time></trkpt><trkpt lat="46.41518050099117" lon="5.277204939417215"><ele>207.0</ele><time>2026-03-28T11:24:55Z</time></trkpt><trkpt lat="46.414909660598006" lon="5.2772531318412605"><ele>207.0</ele><time>2026-03-28T11:24:56Z</time></trkpt><trkpt lat="46.414639854320185" lon="5.27730069610614"><ele>206.0</ele><time>2026-03-28T11:24:57Z</time></trkpt><trkpt lat="46.41436700262157" lon="5.277339907096163"><ele>205.0</ele><time>2026-03-28T11:24:58Z</time></trkpt><trkpt lat="46.41409350117547" lon="5.277372294864044"><ele>205.0</ele><time>2026-03-28T11:24:59Z</time></trkpt><trkpt lat="46.413819494746654" lon="5.277398489297491"><ele>205.0</ele><time>2026-03-28T11:25:00Z</time></trkpt><trkpt lat="46.41354439257307" lon="5.277416411301712"><ele>205.0</ele><time>2026-03-28T11:25:01Z</time></trkpt><trkpt lat="46.413269791264945" lon="5.2774261234749815"><ele>205.0</ele><time>2026-03-28T11:25:02Z</time></trkpt><trkpt lat="46.412997365877104" lon="5.277427789403575"><ele>205.0</ele><time>2026-03-28T11:25:03Z</time></trkpt><trkpt lat="46.412724016037664" lon="5.277418385753281"><ele>205.0</ele><time>2026-03-28T11:25:04Z</time></trkpt><trkpt lat="46.412451175460085" lon="5.2774062554099395"><ele>205.0</ele><time>2026-03-28T11:25:05Z</time></trkpt><trkpt lat="46.412175734499" lon="5.277391557932605"><ele>205.0</ele><time>2026-03-28T11:25:06Z</time></trkpt><trkpt lat="46.411901645349744" lon="5.277365962520778"><ele>205.5</ele><time>2026-03-28T11:25:07Z</time></trkpt><trkpt lat="46.41162858655636" lon="5.277336938286403"><ele>206.0</ele><time>2026-03-28T11:25:08Z</time></trkpt><trkpt lat="46.411354375047544" lon="5.277299782042505"><ele>205.0</ele><time>2026-03-28T11:25:09Z</time></trkpt><trkpt lat="46.411078500057585" lon="5.277257823409496"><ele>204.0</ele><time>2026-03-28T11:25:10Z</time></trkpt><trkpt lat="46.41080479635562" lon="5.277208216810765"><ele>204.0</ele><time>2026-03-28T11:25:11Z</time></trkpt><trkpt lat="46.41053183404369" lon="5.277149265498696"><ele>204.0</ele><time>2026-03-28T11:25:12Z</time></trkpt><trkpt lat="46.41025834186126" lon="5.277085450383257"><ele>203.0</ele><time>2026-03-28T11:25:13Z</time></trkpt><trkpt lat="46.40998611565776" lon="5.277017086868935"><ele>202.0</ele><time>2026-03-28T11:25:14Z</time></trkpt><trkpt lat="46.409716935839654" lon="5.276941071533644"><ele>201.5</ele><time>2026-03-28T11:25:15Z</time></trkpt><trkpt lat="46.4094456776975" lon="5.276860553821283"><ele>201.0</ele><time>2026-03-28T11:25:16Z</time></trkpt><trkpt lat="46.40917429342394" lon="5.276777700722677"><ele>201.0</ele><time>2026-03-28T11:25:17Z</time></trkpt><trkpt lat="46.40890378578768" lon="5.276690495461425"><ele>201.0</ele><time>2026-03-28T11:25:18Z</time></trkpt><trkpt lat="46.40863173574333" lon="5.2766027108525435"><ele>200.5</ele><time>2026-03-28T11:25:19Z</time></trkpt><trkpt lat="46.40835954373175" lon="5.276513082278948"><ele>200.0</ele><time>2026-03-28T11:25:20Z</time></trkpt><trkpt lat="46.40809084886701" lon="5.276424671012502"><ele>200.0</ele><time>2026-03-28T11:25:21Z</time></trkpt><trkpt lat="46.40781983995909" lon="5.276334642466363"><ele>200.0</ele><time>2026-03-28T11:25:22Z</time></trkpt><trkpt lat="46.407547975702165" lon="5.27624586959676"><ele>200.0</ele><time>2026-03-28T11:25:23Z</time></trkpt><trkpt lat="46.40727676082046" lon="5.276157696374501"><ele>200.0</ele><time>2026-03-28T11:25:24Z</time></trkpt><trkpt lat="46.40700394533778" lon="5.276066750468311"><ele>201.0</ele><time>2026-03-28T11:25:25Z</time></trkpt><trkpt lat="46.40673113901768" lon="5.275978140534785"><ele>202.0</ele><time>2026-03-28T11:25:26Z</time></trkpt><trkpt lat="46.406458979337316" lon="5.275889331766029"><ele>203.0</ele><time>2026-03-28T11:25:27Z</time></trkpt><trkpt lat="46.40618898901299" lon="5.275802794997677"><ele>204.0</ele><time>2026-03-28T11:25:28Z</time></trkpt><trkpt lat="46.4059207156662" lon="5.275715688284665"><ele>204.0</ele><time>2026-03-28T11:25:29Z</time></trkpt><trkpt lat="46.405650738095325" lon="5.275630174646085"><ele>204.0</ele><time>2026-03-28T11:25:30Z</time></trkpt><trkpt lat="46.405378201522424" lon="5.2755490688973"><ele>205.0</ele><time>2026-03-28T11:25:31Z</time></trkpt><trkpt lat="46.40510528416973" lon="5.275465215698491"><ele>206.0</ele><time>2026-03-28T11:25:32Z</time></trkpt><trkpt lat="46.404833391451675" lon="5.275384269669903"><ele>204.0</ele><time>2026-03-28T11:25:33Z</time></trkpt><trkpt lat="46.40455962027034" lon="5.275304486119295"><ele>202.0</ele><time>2026-03-28T11:25:34Z</time></trkpt><trkpt lat="46.40428637175594" lon="5.27522246903563"><ele>202.0</ele><time>2026-03-28T11:25:35Z</time></trkpt><trkpt lat="46.404015732299044" lon="5.27514554954585"><ele>202.0</ele><time>2026-03-28T11:25:36Z</time></trkpt><trkpt lat="46.403744775934975" lon="5.275069559858621"><ele>201.0</ele><time>2026-03-28T11:25:37Z</time></trkpt><trkpt lat="46.403472641385314" lon="5.274997781872018"><ele>200.0</ele><time>2026-03-28T11:25:38Z</time></trkpt><trkpt lat="46.40320148583224" lon="5.2749258002399495"><ele>200.0</ele><time>2026-03-28T11:25:39Z</time></trkpt><trkpt lat="46.402927703076" lon="5.274854750331898"><ele>200.0</ele><time>2026-03-28T11:25:40Z</time></trkpt><trkpt lat="46.40265307806857" lon="5.274785433663314"><ele>200.0</ele><time>2026-03-28T11:25:41Z</time></trkpt><trkpt lat="46.4023787758943" lon="5.274718488605111"><ele>200.0</ele><time>2026-03-28T11:25:42Z</time></trkpt><trkpt lat="46.40210518590174" lon="5.27465394758171"><ele>201.0</ele><time>2026-03-28T11:25:43Z</time></trkpt><trkpt lat="46.40183408536508" lon="5.274590826968842"><ele>202.0</ele><time>2026-03-28T11:25:44Z</time></trkpt><trkpt lat="46.401560250231796" lon="5.274533829429767"><ele>201.0</ele><time>2026-03-28T11:25:45Z</time></trkpt><trkpt lat="46.40128241073853" lon="5.274481334057491"><ele>200.0</ele><time>2026-03-28T11:25:46Z</time></trkpt><trkpt lat="46.40100735764203" lon="5.274431534773073"><ele>200.0</ele><time>2026-03-28T11:25:47Z</time></trkpt><trkpt lat="46.40073332940858" lon="5.2743783012631384"><ele>200.0</ele><time>2026-03-28T11:25:48Z</time></trkpt><trkpt lat="46.40045816751698" lon="5.274330940353434"><ele>201.5</ele><time>2026-03-28T11:25:49Z</time></trkpt><trkpt lat="46.40018405255342" lon="5.274283501202601"><ele>203.0</ele><time>2026-03-28T11:25:50Z</time></trkpt><trkpt lat="46.399909476041415" lon="5.274238340600988"><ele>205.5</ele><time>2026-03-28T11:25:51Z</time></trkpt><trkpt lat="46.39963688227496" lon="5.2741955096066215"><ele>208.0</ele><time>2026-03-28T11:25:52Z</time></trkpt><trkpt lat="46.39936479347139" lon="5.274155853114621"><ele>208.0</ele><time>2026-03-28T11:25:53Z</time></trkpt><trkpt lat="46.39909555143425" lon="5.274115570996433"><ele>208.0</ele><time>2026-03-28T11:25:54Z</time></trkpt><trkpt lat="46.39882484100386" lon="5.274076621539939"><ele>209.0</ele><time>2026-03-28T11:25:55Z</time></trkpt><trkpt lat="46.39855596354243" lon="5.274038528232689"><ele>210.0</ele><time>2026-03-28T11:25:56Z</time></trkpt><trkpt lat="46.39828725318341" lon="5.273999906065126"><ele>210.0</ele><time>2026-03-28T11:25:57Z</time></trkpt><trkpt lat="46.398017934760105" lon="5.27396458856772"><ele>210.0</ele><time>2026-03-28T11:25:58Z</time></trkpt><trkpt lat="46.39774853833508" lon="5.273924992774689"><ele>213.0</ele><time>2026-03-28T11:25:59Z</time></trkpt><trkpt lat="46.39748210490789" lon="5.27389093663641"><ele>216.0</ele><time>2026-03-28T11:26:00Z</time></trkpt><trkpt lat="46.39721344164046" lon="5.27385280590748"><ele>218.0</ele><time>2026-03-28T11:26:01Z</time></trkpt><trkpt lat="46.39694556688834" lon="5.273820048670082"><ele>220.0</ele><time>2026-03-28T11:26:02Z</time></trkpt><trkpt lat="46.39667821509234" lon="5.273787082760261"><ele>220.0</ele><time>2026-03-28T11:26:03Z</time></trkpt><trkpt lat="46.39640910637833" lon="5.273754021537072"><ele>220.0</ele><time>2026-03-28T11:26:04Z</time></trkpt><trkpt lat="46.39614025299164" lon="5.273721720417211"><ele>224.0</ele><time>2026-03-28T11:26:05Z</time></trkpt><trkpt lat="46.39587025755749" lon="5.273687546666144"><ele>228.0</ele><time>2026-03-28T11:26:06Z</time></trkpt><trkpt lat="46.395601272375345" lon="5.273652537634822"><ele>228.5</ele><time>2026-03-28T11:26:07Z</time></trkpt><trkpt lat="46.39533243844174" lon="5.273617268854472"><ele>229.0</ele><time>2026-03-28T11:26:08Z</time></trkpt><trkpt lat="46.39506328611336" lon="5.273578976728665"><ele>229.0</ele><time>2026-03-28T11:26:09Z</time></trkpt><trkpt lat="46.394792672454884" lon="5.273542147243309"><ele>229.0</ele><time>2026-03-28T11:26:10Z</time></trkpt><trkpt lat="46.39452359150651" lon="5.27350197874005"><ele>227.5</ele><time>2026-03-28T11:26:11Z</time></trkpt><trkpt lat="46.394251197792514" lon="5.273459709714141"><ele>226.0</ele><time>2026-03-28T11:26:12Z</time></trkpt><trkpt lat="46.3939799548806" lon="5.273411318759335"><ele>224.5</ele><time>2026-03-28T11:26:13Z</time></trkpt><trkpt lat="46.39370855015258" lon="5.273360599352081"><ele>223.0</ele><time>2026-03-28T11:26:14Z</time></trkpt><trkpt lat="46.39343536710675" lon="5.273308843812982"><ele>223.0</ele><time>2026-03-28T11:26:15Z</time></trkpt><trkpt lat="46.39316236135669" lon="5.27325021127124"><ele>223.0</ele><time>2026-03-28T11:26:16Z</time></trkpt><trkpt lat="46.39288671623378" lon="5.273188648560761"><ele>223.0</ele><time>2026-03-28T11:26:17Z</time></trkpt><trkpt lat="46.39261167939901" lon="5.273116870038901"><ele>223.0</ele><time>2026-03-28T11:26:18Z</time></trkpt><trkpt lat="46.39233906764827" lon="5.273037127329911"><ele>225.0</ele><time>2026-03-28T11:26:19Z</time></trkpt><trkpt lat="46.39207017405795" lon="5.27294848046601"><ele>227.0</ele><time>2026-03-28T11:26:20Z</time></trkpt><trkpt lat="46.39179591191373" lon="5.272859542463224"><ele>227.0</ele><time>2026-03-28T11:26:21Z</time></trkpt><trkpt lat="46.39152801630031" lon="5.272757374253162"><ele>227.0</ele><time>2026-03-28T11:26:22Z</time></trkpt><trkpt lat="46.3912645713948" lon="5.272652435356027"><ele>226.5</ele><time>2026-03-28T11:26:23Z</time></trkpt><trkpt lat="46.39100016315787" lon="5.272552286550623"><ele>226.0</ele><time>2026-03-28T11:26:24Z</time></trkpt><trkpt lat="46.390735549915846" lon="5.27244475600338"><ele>222.0</ele><time>2026-03-28T11:26:25Z</time></trkpt><trkpt lat="46.39046994084045" lon="5.272330467916994"><ele>218.0</ele><time>2026-03-28T11:26:26Z</time></trkpt><trkpt lat="46.39020739630165" lon="5.272214190725807"><ele>218.0</ele><time>2026-03-28T11:26:27Z</time></trkpt><trkpt lat="46.38994447424436" lon="5.272096203365884"><ele>218.0</ele><time>2026-03-28T11:26:28Z</time></trkpt><trkpt lat="46.38967922153809" lon="5.2719789607317304"><ele>215.0</ele><time>2026-03-28T11:26:29Z</time></trkpt><trkpt lat="46.38941638476208" lon="5.271861843388602"><ele>212.0</ele><time>2026-03-28T11:26:30Z</time></trkpt><trkpt lat="46.38915082200859" lon="5.271743838266777"><ele>212.0</ele><time>2026-03-28T11:26:31Z</time></trkpt><trkpt lat="46.38888346602556" lon="5.271624212931446"><ele>212.0</ele><time>2026-03-28T11:26:32Z</time></trkpt><trkpt lat="46.3886154213445" lon="5.271510234163982"><ele>213.5</ele><time>2026-03-28T11:26:33Z</time></trkpt><trkpt lat="46.38835257231267" lon="5.271392910229586"><ele>215.0</ele><time>2026-03-28T11:26:34Z</time></trkpt><trkpt lat="46.388089854992145" lon="5.271279634638248"><ele>219.0</ele><time>2026-03-28T11:26:35Z</time></trkpt><trkpt lat="46.387826873145094" lon="5.2711641812386425"><ele>223.0</ele><time>2026-03-28T11:26:36Z</time></trkpt><trkpt lat="46.38756471152442" lon="5.27105228506604"><ele>223.0</ele><time>2026-03-28T11:26:37Z</time></trkpt><trkpt lat="46.38729981022689" lon="5.270949243187546"><ele>223.0</ele><time>2026-03-28T11:26:38Z</time></trkpt><trkpt lat="46.38703003822067" lon="5.270849866992499"><ele>219.5</ele><time>2026-03-28T11:26:39Z</time></trkpt><trkpt lat="46.38676203038057" lon="5.270761279361091"><ele>216.0</ele><time>2026-03-28T11:26:40Z</time></trkpt><trkpt lat="46.386492349638786" lon="5.270676461121657"><ele>215.0</ele><time>2026-03-28T11:26:41Z</time></trkpt><trkpt lat="46.38622030009922" lon="5.270598158563461"><ele>214.0</ele><time>2026-03-28T11:26:42Z</time></trkpt><trkpt lat="46.3859477359351" lon="5.270524487299407"><ele>214.0</ele><time>2026-03-28T11:26:43Z</time></trkpt><trkpt lat="46.38567598905213" lon="5.270457828608087"><ele>214.0</ele><time>2026-03-28T11:26:44Z</time></trkpt><trkpt lat="46.38540094433761" lon="5.270400200273937"><ele>209.5</ele><time>2026-03-28T11:26:45Z</time></trkpt><trkpt lat="46.385127864005284" lon="5.27034917712246"><ele>205.0</ele><time>2026-03-28T11:26:46Z</time></trkpt><trkpt lat="46.384853546461315" lon="5.270302118648872"><ele>203.5</ele><time>2026-03-28T11:26:47Z</time></trkpt><trkpt lat="46.38457652118287" lon="5.270262245074963"><ele>202.0</ele><time>2026-03-28T11:26:48Z</time></trkpt><trkpt lat="46.38430072734099" lon="5.27022834954505"><ele>202.0</ele><time>2026-03-28T11:26:49Z</time></trkpt><trkpt lat="46.38402519278012" lon="5.270199024272056"><ele>202.0</ele><time>2026-03-28T11:26:50Z</time></trkpt><trkpt lat="46.383749944075774" lon="5.270167455618445"><ele>203.0</ele><time>2026-03-28T11:26:51Z</time></trkpt><trkpt lat="46.383475414787675" lon="5.2701374460956405"><ele>204.0</ele><time>2026-03-28T11:26:52Z</time></trkpt><trkpt lat="46.38320235865977" lon="5.2701119429992485"><ele>202.0</ele><time>2026-03-28T11:26:53Z</time></trkpt><trkpt lat="46.38292767335204" lon="5.270092024783437"><ele>200.0</ele><time>2026-03-28T11:26:54Z</time></trkpt><trkpt lat="46.38265418925257" lon="5.270066327161365"><ele>200.0</ele><time>2026-03-28T11:26:55Z</time></trkpt><trkpt lat="46.38238183393632" lon="5.27004260715923"><ele>200.0</ele><time>2026-03-28T11:26:56Z</time></trkpt><trkpt lat="46.382112415711674" lon="5.2700148837461205"><ele>199.0</ele><time>2026-03-28T11:26:57Z</time></trkpt><trkpt lat="46.38184343893321" lon="5.269988687796155"><ele>198.0</ele><time>2026-03-28T11:26:58Z</time></trkpt><trkpt lat="46.381574813910284" lon="5.2699695462028595"><ele>197.0</ele><time>2026-03-28T11:26:59Z</time></trkpt><trkpt lat="46.38130724552529" lon="5.269949707442912"><ele>196.0</ele><time>2026-03-28T11:27:00Z</time></trkpt><trkpt lat="46.38103898630735" lon="5.269941229158091"><ele>196.0</ele><time>2026-03-28T11:27:01Z</time></trkpt><trkpt lat="46.38077223108076" lon="5.269927025116171"><ele>196.0</ele><time>2026-03-28T11:27:02Z</time></trkpt><trkpt lat="46.38050509959834" lon="5.269914368619638"><ele>196.0</ele><time>2026-03-28T11:27:03Z</time></trkpt><trkpt lat="46.380236383915786" lon="5.269910467297069"><ele>196.0</ele><time>2026-03-28T11:27:04Z</time></trkpt><trkpt lat="46.37996794624374" lon="5.269899857845238"><ele>196.0</ele><time>2026-03-28T11:27:05Z</time></trkpt><trkpt lat="46.37970046549818" lon="5.269895570439952"><ele>196.0</ele><time>2026-03-28T11:27:06Z</time></trkpt><trkpt lat="46.379433785668716" lon="5.269894170235518"><ele>196.5</ele><time>2026-03-28T11:27:07Z</time></trkpt><trkpt lat="46.37916649798753" lon="5.269899367667652"><ele>197.0</ele><time>2026-03-28T11:27:08Z</time></trkpt><trkpt lat="46.37890054146583" lon="5.269907767226325"><ele>196.5</ele><time>2026-03-28T11:27:09Z</time></trkpt><trkpt lat="46.37863183481126" lon="5.269926975692128"><ele>196.0</ele><time>2026-03-28T11:27:10Z</time></trkpt><trkpt lat="46.37836429554901" lon="5.269953046384006"><ele>196.0</ele><time>2026-03-28T11:27:11Z</time></trkpt><trkpt lat="46.37809526289865" lon="5.269987374893073"><ele>196.0</ele><time>2026-03-28T11:27:12Z</time></trkpt><trkpt lat="46.37782801094587" lon="5.270028163866783"><ele>195.5</ele><time>2026-03-28T11:27:13Z</time></trkpt><trkpt lat="46.37755964547035" lon="5.270073220781152"><ele>195.0</ele><time>2026-03-28T11:27:14Z</time></trkpt><trkpt lat="46.377292834717785" lon="5.270130146749616"><ele>195.5</ele><time>2026-03-28T11:27:15Z</time></trkpt><trkpt lat="46.37702688223649" lon="5.270197236464049"><ele>196.0</ele><time>2026-03-28T11:27:16Z</time></trkpt><trkpt lat="46.37676198940121" lon="5.270266077778587"><ele>196.0</ele><time>2026-03-28T11:27:17Z</time></trkpt><trkpt lat="46.37649872536146" lon="5.270340173364778"><ele>196.0</ele><time>2026-03-28T11:27:18Z</time></trkpt><trkpt lat="46.37623247455201" lon="5.270427235459656"><ele>197.5</ele><time>2026-03-28T11:27:19Z</time></trkpt><trkpt lat="46.37596633629996" lon="5.270515582094406"><ele>199.0</ele><time>2026-03-28T11:27:20Z</time></trkpt><trkpt lat="46.375698353643344" lon="5.270607292068401"><ele>201.0</ele><time>2026-03-28T11:27:21Z</time></trkpt><trkpt lat="46.37543109564046" lon="5.270707193265336"><ele>203.0</ele><time>2026-03-28T11:27:22Z</time></trkpt><trkpt lat="46.37516587726739" lon="5.27081439593558"><ele>203.0</ele><time>2026-03-28T11:27:23Z</time></trkpt><trkpt lat="46.374897637588845" lon="5.2709255207858146"><ele>203.0</ele><time>2026-03-28T11:27:24Z</time></trkpt><trkpt lat="46.374629573763315" lon="5.2710445690915195"><ele>202.5</ele><time>2026-03-28T11:27:25Z</time></trkpt><trkpt lat="46.374360306110255" lon="5.2711711192614015"><ele>202.0</ele><time>2026-03-28T11:27:26Z</time></trkpt><trkpt lat="46.374094442743846" lon="5.27130443588549"><ele>201.5</ele><time>2026-03-28T11:27:27Z</time></trkpt><trkpt lat="46.373829819596956" lon="5.271447940611803"><ele>201.0</ele><time>2026-03-28T11:27:28Z</time></trkpt><trkpt lat="46.37356410898311" lon="5.2715921784805895"><ele>201.0</ele><time>2026-03-28T11:27:29Z</time></trkpt><trkpt lat="46.37330251635651" lon="5.271743959743506"><ele>201.0</ele><time>2026-03-28T11:27:30Z</time></trkpt><trkpt lat="46.373046178021895" lon="5.271898361646981"><ele>200.0</ele><time>2026-03-28T11:27:31Z</time></trkpt><trkpt lat="46.37278949393432" lon="5.272051184796628"><ele>199.0</ele><time>2026-03-28T11:27:32Z</time></trkpt><trkpt lat="46.372534897057704" lon="5.272200715499379"><ele>199.0</ele><time>2026-03-28T11:27:33Z</time></trkpt><trkpt lat="46.37228650166693" lon="5.272360233274702"><ele>199.0</ele><time>2026-03-28T11:27:34Z</time></trkpt><trkpt lat="46.37204077661229" lon="5.272531666213442"><ele>198.0</ele><time>2026-03-28T11:27:35Z</time></trkpt><trkpt lat="46.371798921028756" lon="5.27271267240047"><ele>197.0</ele><time>2026-03-28T11:27:36Z</time></trkpt><trkpt lat="46.37156362741942" lon="5.272902310636579"><ele>196.5</ele><time>2026-03-28T11:27:37Z</time></trkpt><trkpt lat="46.37132911996189" lon="5.273099561560443"><ele>196.0</ele><time>2026-03-28T11:27:38Z</time></trkpt><trkpt lat="46.371094536752246" lon="5.273296675084204"><ele>197.0</ele><time>2026-03-28T11:27:39Z</time></trkpt><trkpt lat="46.37086403410992" lon="5.273501216315967"><ele>198.0</ele><time>2026-03-28T11:27:40Z</time></trkpt><trkpt lat="46.370634510205676" lon="5.273710007931088"><ele>198.0</ele><time>2026-03-28T11:27:41Z</time></trkpt><trkpt lat="46.370409338293015" lon="5.273926349976313"><ele>198.0</ele><time>2026-03-28T11:27:42Z</time></trkpt><trkpt lat="46.37018947081056" lon="5.274151298858587"><ele>198.0</ele><time>2026-03-28T11:27:43Z</time></trkpt><trkpt lat="46.36997109560633" lon="5.274377653169751"><ele>198.0</ele><time>2026-03-28T11:27:44Z</time></trkpt><trkpt lat="46.36975345909597" lon="5.274606433645104"><ele>200.0</ele><time>2026-03-28T11:27:45Z</time></trkpt><trkpt lat="46.36953597499922" lon="5.274838446533921"><ele>202.0</ele><time>2026-03-28T11:27:46Z</time></trkpt><trkpt lat="46.369325913711144" lon="5.275079724582662"><ele>202.0</ele><time>2026-03-28T11:27:47Z</time></trkpt><trkpt lat="46.369117032443384" lon="5.275321810381351"><ele>202.0</ele><time>2026-03-28T11:27:48Z</time></trkpt><trkpt lat="46.36891372596868" lon="5.275573307084486"><ele>203.5</ele><time>2026-03-28T11:27:49Z</time></trkpt><trkpt lat="46.36870894927281" lon="5.275823515283206"><ele>205.0</ele><time>2026-03-28T11:27:50Z</time></trkpt><trkpt lat="46.36850665014483" lon="5.276081210264677"><ele>205.0</ele><time>2026-03-28T11:27:51Z</time></trkpt><trkpt lat="46.36830704212759" lon="5.27634106349833"><ele>205.0</ele><time>2026-03-28T11:27:52Z</time></trkpt><trkpt lat="46.36810976375194" lon="5.2766072502614625"><ele>207.5</ele><time>2026-03-28T11:27:53Z</time></trkpt><trkpt lat="46.367912748507884" lon="5.2768758127438025"><ele>210.0</ele><time>2026-03-28T11:27:54Z</time></trkpt><trkpt lat="46.36771660826029" lon="5.277149393460802"><ele>208.5</ele><time>2026-03-28T11:27:55Z</time></trkpt><trkpt lat="46.36751766591029" lon="5.277422962595048"><ele>207.0</ele><time>2026-03-28T11:27:56Z</time></trkpt><trkpt lat="46.36732218095812" lon="5.277697253151261"><ele>206.0</ele><time>2026-03-28T11:27:57Z</time></trkpt><trkpt lat="46.36712740417282" lon="5.277972028048899"><ele>205.0</ele><time>2026-03-28T11:27:58Z</time></trkpt><trkpt lat="46.366932674637624" lon="5.278241740097528"><ele>205.0</ele><time>2026-03-28T11:27:59Z</time></trkpt><trkpt lat="46.36673286617807" lon="5.27851007002449"><ele>205.0</ele><time>2026-03-28T11:28:00Z</time></trkpt><trkpt lat="46.36653591211222" lon="5.278782424937583"><ele>205.5</ele><time>2026-03-28T11:28:01Z</time></trkpt><trkpt lat="46.36634307546642" lon="5.279056717766258"><ele>206.0</ele><time>2026-03-28T11:28:02Z</time></trkpt><trkpt lat="46.3661474202926" lon="5.27932998664705"><ele>206.0</ele><time>2026-03-28T11:28:03Z</time></trkpt><trkpt lat="46.36594961170416" lon="5.279604793893912"><ele>206.0</ele><time>2026-03-28T11:28:04Z</time></trkpt><trkpt lat="46.365752928216104" lon="5.27987706895985"><ele>206.0</ele><time>2026-03-28T11:28:05Z</time></trkpt><trkpt lat="46.365558759025134" lon="5.280148000815993"><ele>206.0</ele><time>2026-03-28T11:28:06Z</time></trkpt><trkpt lat="46.36536199281467" lon="5.2804192753766985"><ele>205.0</ele><time>2026-03-28T11:28:07Z</time></trkpt><trkpt lat="46.365162994776355" lon="5.280693527586237"><ele>204.0</ele><time>2026-03-28T11:28:08Z</time></trkpt><trkpt lat="46.36496553160067" lon="5.280964842187465"><ele>204.0</ele><time>2026-03-28T11:28:09Z</time></trkpt><trkpt lat="46.364766200855875" lon="5.281227026436701"><ele>204.0</ele><time>2026-03-28T11:28:10Z</time></trkpt><trkpt lat="46.36456413183149" lon="5.2814899756571085"><ele>205.0</ele><time>2026-03-28T11:28:11Z</time></trkpt><trkpt lat="46.36435917363616" lon="5.2817515047810835"><ele>206.0</ele><time>2026-03-28T11:28:12Z</time></trkpt><trkpt lat="46.36415033777354" lon="5.282008618248553"><ele>206.0</ele><time>2026-03-28T11:28:13Z</time></trkpt><trkpt lat="46.363936913409525" lon="5.282254033210256"><ele>206.0</ele><time>2026-03-28T11:28:14Z</time></trkpt><trkpt lat="46.36372017249249" lon="5.282500799240845"><ele>208.5</ele><time>2026-03-28T11:28:15Z</time></trkpt><trkpt lat="46.363503080950494" lon="5.282735901443818"><ele>211.0</ele><time>2026-03-28T11:28:16Z</time></trkpt><trkpt lat="46.36328002702544" lon="5.282967962324188"><ele>209.5</ele><time>2026-03-28T11:28:17Z</time></trkpt><trkpt lat="46.36305679000462" lon="5.283196754660524"><ele>208.0</ele><time>2026-03-28T11:28:18Z</time></trkpt><trkpt lat="46.36282980888564" lon="5.283419287030512"><ele>208.0</ele><time>2026-03-28T11:28:19Z</time></trkpt><trkpt lat="46.36259908219694" lon="5.283631944028501"><ele>208.0</ele><time>2026-03-28T11:28:20Z</time></trkpt><trkpt lat="46.36236652236578" lon="5.283840959260375"><ele>208.0</ele><time>2026-03-28T11:28:21Z</time></trkpt><trkpt lat="46.36213092132302" lon="5.284041046088977"><ele>208.0</ele><time>2026-03-28T11:28:22Z</time></trkpt><trkpt lat="46.36189406358372" lon="5.284235698775624"><ele>208.0</ele><time>2026-03-28T11:28:23Z</time></trkpt><trkpt lat="46.36165303257979" lon="5.284425283469499"><ele>208.0</ele><time>2026-03-28T11:28:24Z</time></trkpt><trkpt lat="46.36141172219305" lon="5.284609559700392"><ele>209.0</ele><time>2026-03-28T11:28:25Z</time></trkpt><trkpt lat="46.361168525590614" lon="5.284784471438869"><ele>210.0</ele><time>2026-03-28T11:28:26Z</time></trkpt><trkpt lat="46.36092633494023" lon="5.284957794304604"><ele>210.0</ele><time>2026-03-28T11:28:27Z</time></trkpt><trkpt lat="46.36068153131236" lon="5.285125953176404"><ele>210.0</ele><time>2026-03-28T11:28:28Z</time></trkpt><trkpt lat="46.36043194101422" lon="5.285284765190407"><ele>213.5</ele><time>2026-03-28T11:28:29Z</time></trkpt><trkpt lat="46.360182661952905" lon="5.285440624100237"><ele>217.0</ele><time>2026-03-28T11:28:30Z</time></trkpt><trkpt lat="46.35993199150058" lon="5.285587779226706"><ele>215.0</ele><time>2026-03-28T11:28:31Z</time></trkpt><trkpt lat="46.359680487967985" lon="5.2857299801496485"><ele>213.0</ele><time>2026-03-28T11:28:32Z</time></trkpt><trkpt lat="46.35942340910996" lon="5.285865159106495"><ele>213.0</ele><time>2026-03-28T11:28:33Z</time></trkpt><trkpt lat="46.35916745314918" lon="5.2859951763370345"><ele>213.0</ele><time>2026-03-28T11:28:34Z</time></trkpt><trkpt lat="46.35890921716306" lon="5.28611732387741"><ele>217.5</ele><time>2026-03-28T11:28:35Z</time></trkpt><trkpt lat="46.35864995770025" lon="5.286231166275705"><ele>222.0</ele><time>2026-03-28T11:28:36Z</time></trkpt><trkpt lat="46.35839072503257" lon="5.286339699413285"><ele>218.0</ele><time>2026-03-28T11:28:37Z</time></trkpt><trkpt lat="46.35813212037151" lon="5.286444979793581"><ele>214.0</ele><time>2026-03-28T11:28:38Z</time></trkpt><trkpt lat="46.357869325113114" lon="5.286541398884467"><ele>214.0</ele><time>2026-03-28T11:28:39Z</time></trkpt><trkpt lat="46.357606061548815" lon="5.286632549314379"><ele>214.0</ele><time>2026-03-28T11:28:40Z</time></trkpt><trkpt lat="46.35734250931436" lon="5.286716994182321"><ele>215.5</ele><time>2026-03-28T11:28:41Z</time></trkpt><trkpt lat="46.35707662286899" lon="5.286797835616234"><ele>217.0</ele><time>2026-03-28T11:28:42Z</time></trkpt><trkpt lat="46.356811145140746" lon="5.28686922030601"><ele>217.0</ele><time>2026-03-28T11:28:43Z</time></trkpt><trkpt lat="46.35654383922219" lon="5.28693658606742"><ele>217.0</ele><time>2026-03-28T11:28:44Z</time></trkpt><trkpt lat="46.356273658336946" lon="5.287000454705359"><ele>219.0</ele><time>2026-03-28T11:28:45Z</time></trkpt><trkpt lat="46.356005443016016" lon="5.287056994897692"><ele>221.0</ele><time>2026-03-28T11:28:46Z</time></trkpt><trkpt lat="46.35573732223224" lon="5.287109693251051"><ele>221.0</ele><time>2026-03-28T11:28:47Z</time></trkpt><trkpt lat="46.3554672471892" lon="5.287150606168534"><ele>221.0</ele><time>2026-03-28T11:28:48Z</time></trkpt><trkpt lat="46.35519683540452" lon="5.287189805026157"><ele>221.0</ele><time>2026-03-28T11:28:49Z</time></trkpt><trkpt lat="46.35492549335359" lon="5.287218003509307"><ele>221.0</ele><time>2026-03-28T11:28:50Z</time></trkpt><trkpt lat="46.35465239838864" lon="5.287236564264818"><ele>222.5</ele><time>2026-03-28T11:28:51Z</time></trkpt><trkpt lat="46.35438058136473" lon="5.287248171731553"><ele>224.0</ele><time>2026-03-28T11:28:52Z</time></trkpt><trkpt lat="46.35411008502293" lon="5.28725309230899"><ele>224.5</ele><time>2026-03-28T11:28:53Z</time></trkpt><trkpt lat="46.35384263366457" lon="5.287252872964823"><ele>225.0</ele><time>2026-03-28T11:28:54Z</time></trkpt><trkpt lat="46.353573192523015" lon="5.287243792577299"><ele>225.0</ele><time>2026-03-28T11:28:55Z</time></trkpt><trkpt lat="46.35330490121027" lon="5.2872372919345185"><ele>225.0</ele><time>2026-03-28T11:28:56Z</time></trkpt><trkpt lat="46.35303505322832" lon="5.287219762733478"><ele>221.5</ele><time>2026-03-28T11:28:57Z</time></trkpt><trkpt lat="46.35276359670699" lon="5.2871999271254415"><ele>218.0</ele><time>2026-03-28T11:28:58Z</time></trkpt><trkpt lat="46.352493954594664" lon="5.287179135894682"><ele>218.0</ele><time>2026-03-28T11:28:59Z</time></trkpt><trkpt lat="46.352223885755755" lon="5.287152282073678"><ele>218.0</ele><time>2026-03-28T11:29:00Z</time></trkpt><trkpt lat="46.35195237861087" lon="5.28712360713627"><ele>217.0</ele><time>2026-03-28T11:29:01Z</time></trkpt><trkpt lat="46.351681360532524" lon="5.287094734126801"><ele>216.0</ele><time>2026-03-28T11:29:02Z</time></trkpt><trkpt lat="46.35140999416997" lon="5.287066808661474"><ele>215.5</ele><time>2026-03-28T11:29:03Z</time></trkpt><trkpt lat="46.35114034392926" lon="5.2870386124941735"><ele>215.0</ele><time>2026-03-28T11:29:04Z</time></trkpt><trkpt lat="46.35087012449323" lon="5.287008800677283"><ele>215.0</ele><time>2026-03-28T11:29:05Z</time></trkpt><trkpt lat="46.350599688942594" lon="5.2869773189300515"><ele>215.0</ele><time>2026-03-28T11:29:06Z</time></trkpt><trkpt lat="46.350329097176434" lon="5.286946514865569"><ele>215.0</ele><time>2026-03-28T11:29:07Z</time></trkpt><trkpt lat="46.35006007320504" lon="5.286915536110665"><ele>215.0</ele><time>2026-03-28T11:29:08Z</time></trkpt><trkpt lat="46.34979070847186" lon="5.286885827894975"><ele>216.0</ele><time>2026-03-28T11:29:09Z</time></trkpt><trkpt lat="46.34951970751989" lon="5.2868503036582215"><ele>217.0</ele><time>2026-03-28T11:29:10Z</time></trkpt><trkpt lat="46.34924900868135" lon="5.286818367380609"><ele>217.0</ele><time>2026-03-28T11:29:11Z</time></trkpt><trkpt lat="46.3489790586012" lon="5.286787756943671"><ele>217.0</ele><time>2026-03-28T11:29:12Z</time></trkpt><trkpt lat="46.34870860983331" lon="5.2867540924015985"><ele>219.0</ele><time>2026-03-28T11:29:13Z</time></trkpt><trkpt lat="46.34843719139269" lon="5.286720781317115"><ele>221.0</ele><time>2026-03-28T11:29:14Z</time></trkpt><trkpt lat="46.34816713928321" lon="5.286680553783329"><ele>221.0</ele><time>2026-03-28T11:29:15Z</time></trkpt><trkpt lat="46.347895882723165" lon="5.286639771076428"><ele>221.0</ele><time>2026-03-28T11:29:16Z</time></trkpt><trkpt lat="46.34762634965078" lon="5.2865927519474045"><ele>221.0</ele><time>2026-03-28T11:29:17Z</time></trkpt><trkpt lat="46.347358476547306" lon="5.286544097515798"><ele>221.0</ele><time>2026-03-28T11:29:18Z</time></trkpt><trkpt lat="46.3470912646547" lon="5.286489928578989"><ele>221.0</ele><time>2026-03-28T11:29:19Z</time></trkpt><trkpt lat="46.34682578555708" lon="5.286430087094564"><ele>221.0</ele><time>2026-03-28T11:29:20Z</time></trkpt><trkpt lat="46.3465664046333" lon="5.28636502006115"><ele>227.0</ele><time>2026-03-28T11:29:21Z</time></trkpt><trkpt lat="46.346309523018036" lon="5.286295094738854"><ele>233.0</ele><time>2026-03-28T11:29:22Z</time></trkpt><trkpt lat="46.346054082967356" lon="5.286217438932649"><ele>233.0</ele><time>2026-03-28T11:29:23Z</time></trkpt><trkpt lat="46.345800757166586" lon="5.286133993230424"><ele>233.0</ele><time>2026-03-28T11:29:24Z</time></trkpt><trkpt lat="46.345550752284105" lon="5.286042999877839"><ele>229.0</ele><time>2026-03-28T11:29:25Z</time></trkpt><trkpt lat="46.34530408795281" lon="5.2859482174497"><ele>225.0</ele><time>2026-03-28T11:29:26Z</time></trkpt><trkpt lat="46.345050716509625" lon="5.2858412747660575"><ele>225.0</ele><time>2026-03-28T11:29:27Z</time></trkpt><trkpt lat="46.34479926539851" lon="5.285734164892115"><ele>225.0</ele><time>2026-03-28T11:29:28Z</time></trkpt><trkpt lat="46.34455277737961" lon="5.285621831353882"><ele>227.5</ele><time>2026-03-28T11:29:29Z</time></trkpt><trkpt lat="46.344312303480855" lon="5.285503702009184"><ele>230.0</ele><time>2026-03-28T11:29:30Z</time></trkpt><trkpt lat="46.3440752073097" lon="5.28538332807627"><ele>227.0</ele><time>2026-03-28T11:29:31Z</time></trkpt><trkpt lat="46.343840251726625" lon="5.285257285059623"><ele>224.0</ele><time>2026-03-28T11:29:32Z</time></trkpt><trkpt lat="46.34360203321074" lon="5.285130843942677"><ele>224.0</ele><time>2026-03-28T11:29:33Z</time></trkpt><trkpt lat="46.34335992942338" lon="5.285007177168524"><ele>224.0</ele><time>2026-03-28T11:29:34Z</time></trkpt><trkpt lat="46.3431170945488" lon="5.284874471263157"><ele>225.5</ele><time>2026-03-28T11:29:35Z</time></trkpt><trkpt lat="46.342875261462055" lon="5.284732808001531"><ele>227.0</ele><time>2026-03-28T11:29:36Z</time></trkpt><trkpt lat="46.34263115967409" lon="5.284577272711267"><ele>227.0</ele><time>2026-03-28T11:29:37Z</time></trkpt><trkpt lat="46.342387931362545" lon="5.2844139655466025"><ele>227.0</ele><time>2026-03-28T11:29:38Z</time></trkpt><trkpt lat="46.3421470338748" lon="5.284245196728826"><ele>226.5</ele><time>2026-03-28T11:29:39Z</time></trkpt><trkpt lat="46.34190448184821" lon="5.284071767290562"><ele>226.0</ele><time>2026-03-28T11:29:40Z</time></trkpt><trkpt lat="46.34166330575109" lon="5.283894821985"><ele>225.5</ele><time>2026-03-28T11:29:41Z</time></trkpt><trkpt lat="46.34142172289955" lon="5.283713752553988"><ele>225.0</ele><time>2026-03-28T11:29:42Z</time></trkpt><trkpt lat="46.34117649257209" lon="5.283537617398633"><ele>225.0</ele><time>2026-03-28T11:29:43Z</time></trkpt><trkpt lat="46.340931708479225" lon="5.283353785897814"><ele>225.0</ele><time>2026-03-28T11:29:44Z</time></trkpt><trkpt lat="46.34068866989885" lon="5.283170462525978"><ele>223.5</ele><time>2026-03-28T11:29:45Z</time></trkpt><trkpt lat="46.340447005973836" lon="5.2829789873852775"><ele>222.0</ele><time>2026-03-28T11:29:46Z</time></trkpt><trkpt lat="46.34020803265139" lon="5.282782424964814"><ele>222.0</ele><time>2026-03-28T11:29:47Z</time></trkpt><trkpt lat="46.339964804122815" lon="5.282597084858073"><ele>222.0</ele><time>2026-03-28T11:29:48Z</time></trkpt><trkpt lat="46.33972038044487" lon="5.282419012012554"><ele>219.0</ele><time>2026-03-28T11:29:49Z</time></trkpt><trkpt lat="46.33947455920558" lon="5.282240514646392"><ele>216.0</ele><time>2026-03-28T11:29:50Z</time></trkpt><trkpt lat="46.33923168143354" lon="5.282064262629861"><ele>216.0</ele><time>2026-03-28T11:29:51Z</time></trkpt><trkpt lat="46.33898695214176" lon="5.281886357463965"><ele>216.0</ele><time>2026-03-28T11:29:52Z</time></trkpt><trkpt lat="46.33874088418461" lon="5.281708764314676"><ele>214.5</ele><time>2026-03-28T11:29:53Z</time></trkpt><trkpt lat="46.33849754740635" lon="5.281528713932747"><ele>213.0</ele><time>2026-03-28T11:29:54Z</time></trkpt><trkpt lat="46.3382526302839" lon="5.281348634053073"><ele>215.0</ele><time>2026-03-28T11:29:55Z</time></trkpt><trkpt lat="46.33800830102542" lon="5.2811708614337896"><ele>217.0</ele><time>2026-03-28T11:29:56Z</time></trkpt><trkpt lat="46.33776436654511" lon="5.28099251926727"><ele>217.0</ele><time>2026-03-28T11:29:57Z</time></trkpt><trkpt lat="46.33751915919932" lon="5.280816428073651"><ele>217.0</ele><time>2026-03-28T11:29:58Z</time></trkpt><trkpt lat="46.33727246880356" lon="5.28063971902204"><ele>220.0</ele><time>2026-03-28T11:29:59Z</time></trkpt><trkpt lat="46.33702709681296" lon="5.28046185496627"><ele>223.0</ele><time>2026-03-28T11:30:00Z</time></trkpt><trkpt lat="46.33678258745921" lon="5.280283095621348"><ele>223.0</ele><time>2026-03-28T11:30:01Z</time></trkpt><trkpt lat="46.336536126663226" lon="5.280103615587887"><ele>223.0</ele><time>2026-03-28T11:30:02Z</time></trkpt><trkpt lat="46.33628803543241" lon="5.279918854570163"><ele>223.5</ele><time>2026-03-28T11:30:03Z</time></trkpt><trkpt lat="46.336042626047394" lon="5.279735366370221"><ele>224.0</ele><time>2026-03-28T11:30:04Z</time></trkpt><trkpt lat="46.33579514568284" lon="5.279557293654424"><ele>225.0</ele><time>2026-03-28T11:30:05Z</time></trkpt><trkpt lat="46.335550187233785" lon="5.27937704254644"><ele>226.0</ele><time>2026-03-28T11:30:06Z</time></trkpt><trkpt lat="46.33530412402845" lon="5.2791952291370965"><ele>226.0</ele><time>2026-03-28T11:30:07Z</time></trkpt><trkpt lat="46.33505757984713" lon="5.279012159454359"><ele>226.0</ele><time>2026-03-28T11:30:08Z</time></trkpt><trkpt lat="46.33480984369163" lon="5.278830884281812"><ele>224.0</ele><time>2026-03-28T11:30:09Z</time></trkpt><trkpt lat="46.334560741482356" lon="5.278653558487834"><ele>222.0</ele><time>2026-03-28T11:30:10Z</time></trkpt><trkpt lat="46.334313582698435" lon="5.278470335164686"><ele>222.0</ele><time>2026-03-28T11:30:11Z</time></trkpt><trkpt lat="46.334066618237806" lon="5.27828899333037"><ele>222.0</ele><time>2026-03-28T11:30:12Z</time></trkpt><trkpt lat="46.33382033713256" lon="5.278106674023305"><ele>221.5</ele><time>2026-03-28T11:30:13Z</time></trkpt><trkpt lat="46.33357251961805" lon="5.277925165113044"><ele>221.0</ele><time>2026-03-28T11:30:14Z</time></trkpt><trkpt lat="46.333327200635416" lon="5.277746266104742"><ele>221.0</ele><time>2026-03-28T11:30:15Z</time></trkpt><trkpt lat="46.33308112847932" lon="5.277567032225432"><ele>221.0</ele><time>2026-03-28T11:30:16Z</time></trkpt><trkpt lat="46.33283608189444" lon="5.277388881129931"><ele>218.0</ele><time>2026-03-28T11:30:17Z</time></trkpt><trkpt lat="46.332592464397045" lon="5.277205978253063"><ele>215.0</ele><time>2026-03-28T11:30:18Z</time></trkpt><trkpt lat="46.332348870690915" lon="5.277024828393227"><ele>215.0</ele><time>2026-03-28T11:30:19Z</time></trkpt><trkpt lat="46.33210667677197" lon="5.2768415480470265"><ele>215.0</ele><time>2026-03-28T11:30:20Z</time></trkpt><trkpt lat="46.33186601525737" lon="5.276654335486504"><ele>215.0</ele><time>2026-03-28T11:30:21Z</time></trkpt><trkpt lat="46.331626498428115" lon="5.276462893608795"><ele>215.0</ele><time>2026-03-28T11:30:22Z</time></trkpt><trkpt lat="46.331386853784785" lon="5.276275243723694"><ele>213.5</ele><time>2026-03-28T11:30:23Z</time></trkpt><trkpt lat="46.331148904661546" lon="5.276085404752884"><ele>212.0</ele><time>2026-03-28T11:30:24Z</time></trkpt><trkpt lat="46.330911940785576" lon="5.275893205845063"><ele>212.0</ele><time>2026-03-28T11:30:25Z</time></trkpt><trkpt lat="46.330678156690084" lon="5.275698747487622"><ele>212.0</ele><time>2026-03-28T11:30:26Z</time></trkpt><trkpt lat="46.33044385723571" lon="5.27549991004715"><ele>212.0</ele><time>2026-03-28T11:30:27Z</time></trkpt><trkpt lat="46.330210038275744" lon="5.275299997805353"><ele>212.0</ele><time>2026-03-28T11:30:28Z</time></trkpt><trkpt lat="46.32997895038782" lon="5.275095670067457"><ele>212.0</ele><time>2026-03-28T11:30:29Z</time></trkpt><trkpt lat="46.32974564500015" lon="5.274897383501832"><ele>212.0</ele><time>2026-03-28T11:30:30Z</time></trkpt><trkpt lat="46.32951390246455" lon="5.274699544969857"><ele>210.5</ele><time>2026-03-28T11:30:31Z</time></trkpt><trkpt lat="46.32928385420272" lon="5.274497078918366"><ele>209.0</ele><time>2026-03-28T11:30:32Z</time></trkpt><trkpt lat="46.32905498500416" lon="5.274293590556748"><ele>209.0</ele><time>2026-03-28T11:30:33Z</time></trkpt><trkpt lat="46.328828918348634" lon="5.274090629952926"><ele>209.0</ele><time>2026-03-28T11:30:34Z</time></trkpt><trkpt lat="46.328603108173034" lon="5.273885302824791"><ele>210.5</ele><time>2026-03-28T11:30:35Z</time></trkpt><trkpt lat="46.32837592870899" lon="5.273677730565614"><ele>212.0</ele><time>2026-03-28T11:30:36Z</time></trkpt><trkpt lat="46.328147389351614" lon="5.273472352612821"><ele>211.5</ele><time>2026-03-28T11:30:37Z</time></trkpt><trkpt lat="46.327919047899776" lon="5.273263329503008"><ele>211.0</ele><time>2026-03-28T11:30:38Z</time></trkpt><trkpt lat="46.32769172378667" lon="5.273052817253896"><ele>210.0</ele><time>2026-03-28T11:30:39Z</time></trkpt><trkpt lat="46.32746040974577" lon="5.272847019116063"><ele>209.0</ele><time>2026-03-28T11:30:40Z</time></trkpt><trkpt lat="46.327229666116246" lon="5.27264034823308"><ele>209.5</ele><time>2026-03-28T11:30:41Z</time></trkpt><trkpt lat="46.32699807525394" lon="5.272434425138529"><ele>210.0</ele><time>2026-03-28T11:30:42Z</time></trkpt><trkpt lat="46.32676151105468" lon="5.272231823370703"><ele>210.0</ele><time>2026-03-28T11:30:43Z</time></trkpt><trkpt lat="46.32652447226766" lon="5.272032001544607"><ele>210.0</ele><time>2026-03-28T11:30:44Z</time></trkpt><trkpt lat="46.32628477283439" lon="5.271837164344778"><ele>211.5</ele><time>2026-03-28T11:30:45Z</time></trkpt><trkpt lat="46.32604478939937" lon="5.271643737931026"><ele>213.0</ele><time>2026-03-28T11:30:46Z</time></trkpt><trkpt lat="46.325800870785464" lon="5.271460306201341"><ele>212.0</ele><time>2026-03-28T11:30:47Z</time></trkpt><trkpt lat="46.325552313538324" lon="5.271282818118597"><ele>211.0</ele><time>2026-03-28T11:30:48Z</time></trkpt><trkpt lat="46.32530434714301" lon="5.2711089991914895"><ele>211.0</ele><time>2026-03-28T11:30:49Z</time></trkpt><trkpt lat="46.32505685248959" lon="5.270938764218882"><ele>211.0</ele><time>2026-03-28T11:30:50Z</time></trkpt><trkpt lat="46.32480780285553" lon="5.270769524771611"><ele>210.5</ele><time>2026-03-28T11:30:51Z</time></trkpt><trkpt lat="46.32455747493368" lon="5.270601218362028"><ele>210.0</ele><time>2026-03-28T11:30:52Z</time></trkpt><trkpt lat="46.32430592338833" lon="5.270433328583635"><ele>210.0</ele><time>2026-03-28T11:30:53Z</time></trkpt><trkpt lat="46.32405721176471" lon="5.270264811339328"><ele>210.0</ele><time>2026-03-28T11:30:54Z</time></trkpt><trkpt lat="46.3238070232928" lon="5.270097319527232"><ele>209.0</ele><time>2026-03-28T11:30:55Z</time></trkpt><trkpt lat="46.32355777675098" lon="5.269930651010993"><ele>208.0</ele><time>2026-03-28T11:30:56Z</time></trkpt><trkpt lat="46.32330788109202" lon="5.2697619843579036"><ele>207.0</ele><time>2026-03-28T11:30:57Z</time></trkpt><trkpt lat="46.323056764123336" lon="5.26959194592164"><ele>206.0</ele><time>2026-03-28T11:30:58Z</time></trkpt><trkpt lat="46.322806538555824" lon="5.26942493968375"><ele>206.0</ele><time>2026-03-28T11:30:59Z</time></trkpt><trkpt lat="46.32255845157451" lon="5.269256628443996"><ele>206.0</ele><time>2026-03-28T11:31:00Z</time></trkpt><trkpt lat="46.32230820806588" lon="5.269089969609312"><ele>206.5</ele><time>2026-03-28T11:31:01Z</time></trkpt><trkpt lat="46.32206104484052" lon="5.268921005921492"><ele>207.0</ele><time>2026-03-28T11:31:02Z</time></trkpt><trkpt lat="46.32181295439234" lon="5.2687547189621196"><ele>207.0</ele><time>2026-03-28T11:31:03Z</time></trkpt><trkpt lat="46.321565282701926" lon="5.268587506704912"><ele>207.0</ele><time>2026-03-28T11:31:04Z</time></trkpt><trkpt lat="46.32131621319079" lon="5.268421777665151"><ele>208.5</ele><time>2026-03-28T11:31:05Z</time></trkpt><trkpt lat="46.32106869143271" lon="5.268256164063625"><ele>210.0</ele><time>2026-03-28T11:31:06Z</time></trkpt><trkpt lat="46.32082170735598" lon="5.268095297394699"><ele>212.0</ele><time>2026-03-28T11:31:07Z</time></trkpt><trkpt lat="46.320573242092934" lon="5.267936858854098"><ele>214.0</ele><time>2026-03-28T11:31:08Z</time></trkpt><trkpt lat="46.320326354541905" lon="5.26777680311045"><ele>214.0</ele><time>2026-03-28T11:31:09Z</time></trkpt><trkpt lat="46.32007838586526" lon="5.2676232227418325"><ele>214.0</ele><time>2026-03-28T11:31:10Z</time></trkpt><trkpt lat="46.31983249853794" lon="5.2674711990027365"><ele>213.0</ele><time>2026-03-28T11:31:11Z</time></trkpt><trkpt lat="46.31958590404209" lon="5.267323315297543"><ele>212.0</ele><time>2026-03-28T11:31:12Z</time></trkpt><trkpt lat="46.31933978596545" lon="5.2671744582385935"><ele>214.0</ele><time>2026-03-28T11:31:13Z</time></trkpt><trkpt lat="46.31909193505537" lon="5.267027093555951"><ele>216.0</ele><time>2026-03-28T11:31:14Z</time></trkpt><trkpt lat="46.31884309893477" lon="5.2668814334847465"><ele>216.0</ele><time>2026-03-28T11:31:15Z</time></trkpt><trkpt lat="46.3185944966671" lon="5.266736659956264"><ele>216.0</ele><time>2026-03-28T11:31:16Z</time></trkpt><trkpt lat="46.31834386086196" lon="5.266592778952553"><ele>216.0</ele><time>2026-03-28T11:31:17Z</time></trkpt><trkpt lat="46.31809288646832" lon="5.2664487476945805"><ele>216.0</ele><time>2026-03-28T11:31:18Z</time></trkpt><trkpt lat="46.31784465258933" lon="5.266303511678669"><ele>218.5</ele><time>2026-03-28T11:31:19Z</time></trkpt><trkpt lat="46.31759709816624" lon="5.2661546563934944"><ele>221.0</ele><time>2026-03-28T11:31:20Z</time></trkpt><trkpt lat="46.31734762496985" lon="5.266005519983824"><ele>219.5</ele><time>2026-03-28T11:31:21Z</time></trkpt><trkpt lat="46.31710149070349" lon="5.2658560080642705"><ele>218.0</ele><time>2026-03-28T11:31:22Z</time></trkpt><trkpt lat="46.31685261003617" lon="5.2657073843268005"><ele>219.5</ele><time>2026-03-28T11:31:23Z</time></trkpt><trkpt lat="46.31660253970053" lon="5.265559890847714"><ele>221.0</ele><time>2026-03-28T11:31:24Z</time></trkpt><trkpt lat="46.31635136582146" lon="5.26541244039175"><ele>221.0</ele><time>2026-03-28T11:31:25Z</time></trkpt><trkpt lat="46.31610273329642" lon="5.265263008437576"><ele>221.0</ele><time>2026-03-28T11:31:26Z</time></trkpt><trkpt lat="46.315855087831245" lon="5.265109859423447"><ele>221.0</ele><time>2026-03-28T11:31:27Z</time></trkpt><trkpt lat="46.315607838489335" lon="5.264955985359127"><ele>221.0</ele><time>2026-03-28T11:31:28Z</time></trkpt><trkpt lat="46.315361976640276" lon="5.264801877673373"><ele>224.5</ele><time>2026-03-28T11:31:29Z</time></trkpt><trkpt lat="46.31511842333242" lon="5.264645777550809"><ele>228.0</ele><time>2026-03-28T11:31:30Z</time></trkpt><trkpt lat="46.314874303277264" lon="5.264486812298696"><ele>225.5</ele><time>2026-03-28T11:31:31Z</time></trkpt><trkpt lat="46.31463071561281" lon="5.264324001163414"><ele>223.0</ele><time>2026-03-28T11:31:32Z</time></trkpt><trkpt lat="46.31438892971857" lon="5.264156962128484"><ele>223.0</ele><time>2026-03-28T11:31:33Z</time></trkpt><trkpt lat="46.31414499887876" lon="5.263986599443861"><ele>223.0</ele><time>2026-03-28T11:31:34Z</time></trkpt><trkpt lat="46.31390318705595" lon="5.263813680453041"><ele>224.5</ele><time>2026-03-28T11:31:35Z</time></trkpt><trkpt lat="46.31366307657899" lon="5.263632883396187"><ele>226.0</ele><time>2026-03-28T11:31:36Z</time></trkpt><trkpt lat="46.31342485560978" lon="5.263446769142885"><ele>226.0</ele><time>2026-03-28T11:31:37Z</time></trkpt><trkpt lat="46.31318927000576" lon="5.263254806494875"><ele>226.0</ele><time>2026-03-28T11:31:38Z</time></trkpt><trkpt lat="46.312955747457735" lon="5.263061980032238"><ele>227.0</ele><time>2026-03-28T11:31:39Z</time></trkpt><trkpt lat="46.31272175702199" lon="5.262866855367965"><ele>228.0</ele><time>2026-03-28T11:31:40Z</time></trkpt><trkpt lat="46.31248781239743" lon="5.262667470829653"><ele>228.0</ele><time>2026-03-28T11:31:41Z</time></trkpt><trkpt lat="46.31225691721704" lon="5.262461811584576"><ele>228.0</ele><time>2026-03-28T11:31:42Z</time></trkpt><trkpt lat="46.31202769417698" lon="5.262254551620452"><ele>229.0</ele><time>2026-03-28T11:31:43Z</time></trkpt><trkpt lat="46.31180055067301" lon="5.262040833387252"><ele>230.0</ele><time>2026-03-28T11:31:44Z</time></trkpt><trkpt lat="46.31157512554515" lon="5.2618214594596875"><ele>230.0</ele><time>2026-03-28T11:31:45Z</time></trkpt><trkpt lat="46.3113521419054" lon="5.261596997190148"><ele>230.0</ele><time>2026-03-28T11:31:46Z</time></trkpt><trkpt lat="46.3111308603945" lon="5.261373326470367"><ele>230.0</ele><time>2026-03-28T11:31:47Z</time></trkpt><trkpt lat="46.310908258322705" lon="5.261149444127344"><ele>230.0</ele><time>2026-03-28T11:31:48Z</time></trkpt><trkpt lat="46.31068691583007" lon="5.260923128873285"><ele>230.5</ele><time>2026-03-28T11:31:49Z</time></trkpt><trkpt lat="46.3104675824998" lon="5.260695504033602"><ele>231.0</ele><time>2026-03-28T11:31:50Z</time></trkpt><trkpt lat="46.31024763407796" lon="5.260466678021638"><ele>231.5</ele><time>2026-03-28T11:31:51Z</time></trkpt><trkpt lat="46.310026774916466" lon="5.2602358353665215"><ele>232.0</ele><time>2026-03-28T11:31:52Z</time></trkpt><trkpt lat="46.309805970101614" lon="5.260008654285617"><ele>233.5</ele><time>2026-03-28T11:31:53Z</time></trkpt><trkpt lat="46.30958945527427" lon="5.259780907673964"><ele>235.0</ele><time>2026-03-28T11:31:54Z</time></trkpt><trkpt lat="46.30937378523261" lon="5.259549891346897"><ele>235.0</ele><time>2026-03-28T11:31:55Z</time></trkpt><trkpt lat="46.30915766433709" lon="5.259319656451238"><ele>235.0</ele><time>2026-03-28T11:31:56Z</time></trkpt><trkpt lat="46.30894317943753" lon="5.25908857014692"><ele>234.5</ele><time>2026-03-28T11:31:57Z</time></trkpt><trkpt lat="46.30872854291687" lon="5.2588639538715665"><ele>234.0</ele><time>2026-03-28T11:31:58Z</time></trkpt><trkpt lat="46.3085157201882" lon="5.2586379902788645"><ele>234.0</ele><time>2026-03-28T11:31:59Z</time></trkpt><trkpt lat="46.308304031681466" lon="5.25841296889711"><ele>234.0</ele><time>2026-03-28T11:32:00Z</time></trkpt><trkpt lat="46.30808946730746" lon="5.258191052879456"><ele>233.5</ele><time>2026-03-28T11:32:01Z</time></trkpt><trkpt lat="46.307873234264875" lon="5.257971031708165"><ele>233.0</ele><time>2026-03-28T11:32:02Z</time></trkpt><trkpt lat="46.30765607764436" lon="5.2577534997350455"><ele>233.0</ele><time>2026-03-28T11:32:03Z</time></trkpt><trkpt lat="46.30743932891145" lon="5.2575299898277965"><ele>233.0</ele><time>2026-03-28T11:32:04Z</time></trkpt><trkpt lat="46.307225608903885" lon="5.2573096804924875"><ele>232.5</ele><time>2026-03-28T11:32:05Z</time></trkpt><trkpt lat="46.30700501553367" lon="5.257095211298944"><ele>232.0</ele><time>2026-03-28T11:32:06Z</time></trkpt><trkpt lat="46.3067867444805" lon="5.256877115485549"><ele>232.0</ele><time>2026-03-28T11:32:07Z</time></trkpt><trkpt lat="46.306567274130735" lon="5.25666182586948"><ele>232.0</ele><time>2026-03-28T11:32:08Z</time></trkpt><trkpt lat="46.30634522438004" lon="5.256450171862617"><ele>234.0</ele><time>2026-03-28T11:32:09Z</time></trkpt><trkpt lat="46.3061245178213" lon="5.256233858038413"><ele>236.0</ele><time>2026-03-28T11:32:10Z</time></trkpt><trkpt lat="46.30590436800859" lon="5.256026724564754"><ele>236.0</ele><time>2026-03-28T11:32:11Z</time></trkpt><trkpt lat="46.30567822718773" lon="5.255812479312315"><ele>236.0</ele><time>2026-03-28T11:32:12Z</time></trkpt><trkpt lat="46.30545054920643" lon="5.255600030008203"><ele>235.0</ele><time>2026-03-28T11:32:13Z</time></trkpt><trkpt lat="46.305224252921754" lon="5.255388275501257"><ele>234.0</ele><time>2026-03-28T11:32:14Z</time></trkpt><trkpt lat="46.30500133230586" lon="5.255179963192087"><ele>234.0</ele><time>2026-03-28T11:32:15Z</time></trkpt><trkpt lat="46.304771845431304" lon="5.254968843701551"><ele>234.0</ele><time>2026-03-28T11:32:16Z</time></trkpt><trkpt lat="46.30454406874582" lon="5.254763440769433"><ele>235.0</ele><time>2026-03-28T11:32:17Z</time></trkpt><trkpt lat="46.30431375557696" lon="5.254555699810535"><ele>236.0</ele><time>2026-03-28T11:32:18Z</time></trkpt><trkpt lat="46.30408776278646" lon="5.254350102859405"><ele>235.5</ele><time>2026-03-28T11:32:19Z</time></trkpt><trkpt lat="46.30385752662321" lon="5.254146884954764"><ele>235.0</ele><time>2026-03-28T11:32:20Z</time></trkpt><trkpt lat="46.30362691254664" lon="5.253948445246821"><ele>236.0</ele><time>2026-03-28T11:32:21Z</time></trkpt><trkpt lat="46.30339808653739" lon="5.253750080047492"><ele>237.0</ele><time>2026-03-28T11:32:22Z</time></trkpt><trkpt lat="46.30316775982758" lon="5.253552581607418"><ele>236.5</ele><time>2026-03-28T11:32:23Z</time></trkpt><trkpt lat="46.302937915442975" lon="5.253351917509439"><ele>236.0</ele><time>2026-03-28T11:32:24Z</time></trkpt><trkpt lat="46.30270293222102" lon="5.253151478742958"><ele>236.0</ele><time>2026-03-28T11:32:25Z</time></trkpt><trkpt lat="46.30246923254752" lon="5.2529540127436585"><ele>236.0</ele><time>2026-03-28T11:32:26Z</time></trkpt><trkpt lat="46.30223140954323" lon="5.252758173638862"><ele>235.5</ele><time>2026-03-28T11:32:27Z</time></trkpt><trkpt lat="46.30199272079078" lon="5.252564045348539"><ele>235.0</ele><time>2026-03-28T11:32:28Z</time></trkpt><trkpt lat="46.30175624952189" lon="5.252371629192326"><ele>234.5</ele><time>2026-03-28T11:32:29Z</time></trkpt><trkpt lat="46.301520279593596" lon="5.252179866115114"><ele>234.0</ele><time>2026-03-28T11:32:30Z</time></trkpt><trkpt lat="46.30128058384583" lon="5.251985187832624"><ele>234.0</ele><time>2026-03-28T11:32:31Z</time></trkpt><trkpt lat="46.30104395318098" lon="5.251794165640212"><ele>234.0</ele><time>2026-03-28T11:32:32Z</time></trkpt><trkpt lat="46.30080773559099" lon="5.251603998586278"><ele>235.5</ele><time>2026-03-28T11:32:33Z</time></trkpt><trkpt lat="46.30056910286027" lon="5.251415301230168"><ele>237.0</ele><time>2026-03-28T11:32:34Z</time></trkpt><trkpt lat="46.30033160278659" lon="5.25122755179568"><ele>237.0</ele><time>2026-03-28T11:32:35Z</time></trkpt><trkpt lat="46.300095922068635" lon="5.25104578289186"><ele>237.0</ele><time>2026-03-28T11:32:36Z</time></trkpt><trkpt lat="46.299854273449526" lon="5.250863589000717"><ele>237.0</ele><time>2026-03-28T11:32:37Z</time></trkpt><trkpt lat="46.299616649698095" lon="5.250683465925072"><ele>237.0</ele><time>2026-03-28T11:32:38Z</time></trkpt><trkpt lat="46.29937730812441" lon="5.250504900148033"><ele>237.5</ele><time>2026-03-28T11:32:39Z</time></trkpt><trkpt lat="46.29913819515336" lon="5.250328971136484"><ele>238.0</ele><time>2026-03-28T11:32:40Z</time></trkpt><trkpt lat="46.29889796573473" lon="5.250152304598824"><ele>238.0</ele><time>2026-03-28T11:32:41Z</time></trkpt><trkpt lat="46.29865742386498" lon="5.249976770978453"><ele>238.0</ele><time>2026-03-28T11:32:42Z</time></trkpt><trkpt lat="46.298417422386706" lon="5.249803516545718"><ele>238.0</ele><time>2026-03-28T11:32:43Z</time></trkpt><trkpt lat="46.29817736167718" lon="5.249630902239719"><ele>238.0</ele><time>2026-03-28T11:32:44Z</time></trkpt><trkpt lat="46.29793764834648" lon="5.249457263928735"><ele>238.0</ele><time>2026-03-28T11:32:45Z</time></trkpt><trkpt lat="46.297699520630076" lon="5.249288987281684"><ele>238.0</ele><time>2026-03-28T11:32:46Z</time></trkpt><trkpt lat="46.297466837881636" lon="5.249130519266456"><ele>237.5</ele><time>2026-03-28T11:32:47Z</time></trkpt><trkpt lat="46.29723160010802" lon="5.2489687236994085"><ele>237.0</ele><time>2026-03-28T11:32:48Z</time></trkpt><trkpt lat="46.29698960531136" lon="5.248808759144926"><ele>238.0</ele><time>2026-03-28T11:32:49Z</time></trkpt><trkpt lat="46.29674573787223" lon="5.248649484193013"><ele>239.0</ele><time>2026-03-28T11:32:50Z</time></trkpt><trkpt lat="46.296495414434176" lon="5.248491264903567"><ele>238.0</ele><time>2026-03-28T11:32:51Z</time></trkpt><trkpt lat="46.296238302844394" lon="5.248332466184532"><ele>237.0</ele><time>2026-03-28T11:32:52Z</time></trkpt><trkpt lat="46.29597740135775" lon="5.248175529274931"><ele>237.5</ele><time>2026-03-28T11:32:53Z</time></trkpt><trkpt lat="46.29571567303855" lon="5.248020552631318"><ele>238.0</ele><time>2026-03-28T11:32:54Z</time></trkpt><trkpt lat="46.29545569768532" lon="5.247861458798396"><ele>237.0</ele><time>2026-03-28T11:32:55Z</time></trkpt><trkpt lat="46.29519394316908" lon="5.247703805555293"><ele>236.0</ele><time>2026-03-28T11:32:56Z</time></trkpt><trkpt lat="46.29493221728745" lon="5.247546985655454"><ele>235.5</ele><time>2026-03-28T11:32:57Z</time></trkpt><trkpt lat="46.29467125548224" lon="5.247393621893913"><ele>235.0</ele><time>2026-03-28T11:32:58Z</time></trkpt><trkpt lat="46.29441375998314" lon="5.2472391297975784"><ele>234.5</ele><time>2026-03-28T11:32:59Z</time></trkpt><trkpt lat="46.29415412302379" lon="5.247084453630284"><ele>234.0</ele><time>2026-03-28T11:33:00Z</time></trkpt><trkpt lat="46.29389868328554" lon="5.24692833912228"><ele>235.0</ele><time>2026-03-28T11:33:01Z</time></trkpt><trkpt lat="46.293643860925" lon="5.246766952676936"><ele>236.0</ele><time>2026-03-28T11:33:02Z</time></trkpt><trkpt lat="46.293386365305714" lon="5.246607155213578"><ele>235.5</ele><time>2026-03-28T11:33:03Z</time></trkpt><trkpt lat="46.29312550651505" lon="5.246458492479742"><ele>235.0</ele><time>2026-03-28T11:33:04Z</time></trkpt><trkpt lat="46.292864510345694" lon="5.246322360496174"><ele>235.0</ele><time>2026-03-28T11:33:05Z</time></trkpt><trkpt lat="46.29260560042237" lon="5.246192204771369"><ele>235.0</ele><time>2026-03-28T11:33:06Z</time></trkpt><trkpt lat="46.292344976146516" lon="5.246064415461247"><ele>237.0</ele><time>2026-03-28T11:33:07Z</time></trkpt><trkpt lat="46.29209088290234" lon="5.245932275603574"><ele>239.0</ele><time>2026-03-28T11:33:08Z</time></trkpt><trkpt lat="46.291833937722686" lon="5.24580218659179"><ele>239.0</ele><time>2026-03-28T11:33:09Z</time></trkpt><trkpt lat="46.291578465118526" lon="5.245675835608169"><ele>239.0</ele><time>2026-03-28T11:33:10Z</time></trkpt><trkpt lat="46.291320170283406" lon="5.245549785034733"><ele>240.5</ele><time>2026-03-28T11:33:11Z</time></trkpt><trkpt lat="46.29106527459663" lon="5.245421071356999"><ele>242.0</ele><time>2026-03-28T11:33:12Z</time></trkpt><trkpt lat="46.290810450301386" lon="5.245299776689991"><ele>243.0</ele><time>2026-03-28T11:33:13Z</time></trkpt><trkpt lat="46.290554751645026" lon="5.24517902065729"><ele>244.0</ele><time>2026-03-28T11:33:14Z</time></trkpt><trkpt lat="46.29029947717855" lon="5.245060172648215"><ele>244.0</ele><time>2026-03-28T11:33:15Z</time></trkpt><trkpt lat="46.29004432744259" lon="5.244944311136447"><ele>244.0</ele><time>2026-03-28T11:33:16Z</time></trkpt><trkpt lat="46.28978926458475" lon="5.244826113533862"><ele>244.5</ele><time>2026-03-28T11:33:17Z</time></trkpt><trkpt lat="46.28953172966721" lon="5.244711075981572"><ele>245.0</ele><time>2026-03-28T11:33:18Z</time></trkpt><trkpt lat="46.289274862909195" lon="5.244600545464811"><ele>245.0</ele><time>2026-03-28T11:33:19Z</time></trkpt><trkpt lat="46.28901486306731" lon="5.244490386920372"><ele>245.0</ele><time>2026-03-28T11:33:20Z</time></trkpt><trkpt lat="46.28875644481355" lon="5.244382073321963"><ele>245.0</ele><time>2026-03-28T11:33:21Z</time></trkpt><trkpt lat="46.288497016414865" lon="5.244278161748246"><ele>245.0</ele><time>2026-03-28T11:33:22Z</time></trkpt><trkpt lat="46.28823504073526" lon="5.244175147029821"><ele>243.5</ele><time>2026-03-28T11:33:23Z</time></trkpt><trkpt lat="46.287975221947846" lon="5.244065361159782"><ele>242.0</ele><time>2026-03-28T11:33:24Z</time></trkpt><trkpt lat="46.28771182378273" lon="5.243966462216906"><ele>242.0</ele><time>2026-03-28T11:33:25Z</time></trkpt><trkpt lat="46.28744954308282" lon="5.243862286756905"><ele>242.0</ele><time>2026-03-28T11:33:26Z</time></trkpt><trkpt lat="46.287184514058076" lon="5.243762684649684"><ele>242.0</ele><time>2026-03-28T11:33:27Z</time></trkpt><trkpt lat="46.286919993030914" lon="5.243665520876456"><ele>242.0</ele><time>2026-03-28T11:33:28Z</time></trkpt><trkpt lat="46.28665532236427" lon="5.243567428094868"><ele>240.5</ele><time>2026-03-28T11:33:29Z</time></trkpt><trkpt lat="46.28638800080291" lon="5.243472463973598"><ele>239.0</ele><time>2026-03-28T11:33:30Z</time></trkpt><trkpt lat="46.28612075283109" lon="5.24338147711405"><ele>239.0</ele><time>2026-03-28T11:33:31Z</time></trkpt><trkpt lat="46.285852293797625" lon="5.243291683057092"><ele>239.0</ele><time>2026-03-28T11:33:32Z</time></trkpt><trkpt lat="46.285583240037475" lon="5.243204841352987"><ele>241.5</ele><time>2026-03-28T11:33:33Z</time></trkpt><trkpt lat="46.28531454233764" lon="5.243118070348627"><ele>244.0</ele><time>2026-03-28T11:33:34Z</time></trkpt><trkpt lat="46.28504552794218" lon="5.243034513775064"><ele>244.0</ele><time>2026-03-28T11:33:35Z</time></trkpt><trkpt lat="46.28477417654245" lon="5.242955375554819"><ele>244.0</ele><time>2026-03-28T11:33:36Z</time></trkpt><trkpt lat="46.284502782707" lon="5.24287537916708"><ele>244.0</ele><time>2026-03-28T11:33:37Z</time></trkpt><trkpt lat="46.28423227395564" lon="5.242798636375736"><ele>244.0</ele><time>2026-03-28T11:33:38Z</time></trkpt><trkpt lat="46.28396177536631" lon="5.2427214126144595"><ele>243.5</ele><time>2026-03-28T11:33:39Z</time></trkpt><trkpt lat="46.283690218773465" lon="5.242646349300292"><ele>243.0</ele><time>2026-03-28T11:33:40Z</time></trkpt><trkpt lat="46.283419137434166" lon="5.242573134827433"><ele>243.0</ele><time>2026-03-28T11:33:41Z</time></trkpt><trkpt lat="46.28314678100182" lon="5.242504244360936"><ele>243.0</ele><time>2026-03-28T11:33:42Z</time></trkpt><trkpt lat="46.282873164944455" lon="5.242435433119871"><ele>242.0</ele><time>2026-03-28T11:33:43Z</time></trkpt><trkpt lat="46.28260188312494" lon="5.242370188903732"><ele>241.0</ele><time>2026-03-28T11:33:44Z</time></trkpt><trkpt lat="46.28232646372307" lon="5.242309148479516"><ele>240.5</ele><time>2026-03-28T11:33:45Z</time></trkpt><trkpt lat="46.28205231329024" lon="5.242248303628223"><ele>240.0</ele><time>2026-03-28T11:33:46Z</time></trkpt><trkpt lat="46.281775863329095" lon="5.24219094329003"><ele>240.0</ele><time>2026-03-28T11:33:47Z</time></trkpt><trkpt lat="46.28150224650322" lon="5.242134843314271"><ele>240.0</ele><time>2026-03-28T11:33:48Z</time></trkpt><trkpt lat="46.281221888287675" lon="5.242081704063894"><ele>239.5</ele><time>2026-03-28T11:33:49Z</time></trkpt><trkpt lat="46.280945853249726" lon="5.242029543945806"><ele>239.0</ele><time>2026-03-28T11:33:50Z</time></trkpt><trkpt lat="46.28067075885648" lon="5.24197918419085"><ele>236.5</ele><time>2026-03-28T11:33:51Z</time></trkpt><trkpt lat="46.2803943468887" lon="5.241931030828834"><ele>234.0</ele><time>2026-03-28T11:33:52Z</time></trkpt><trkpt lat="46.2801208836067" lon="5.24188416899556"><ele>234.0</ele><time>2026-03-28T11:33:53Z</time></trkpt><trkpt lat="46.27984312610027" lon="5.241835720149282"><ele>234.0</ele><time>2026-03-28T11:33:54Z</time></trkpt><trkpt lat="46.27956567725456" lon="5.241798910606193"><ele>233.5</ele><time>2026-03-28T11:33:55Z</time></trkpt><trkpt lat="46.279293151472814" lon="5.241758023314169"><ele>233.0</ele><time>2026-03-28T11:33:56Z</time></trkpt><trkpt lat="46.279017848475206" lon="5.241718070444972"><ele>231.5</ele><time>2026-03-28T11:33:57Z</time></trkpt><trkpt lat="46.278746459534055" lon="5.241677074753029"><ele>230.0</ele><time>2026-03-28T11:33:58Z</time></trkpt><trkpt lat="46.278469097088006" lon="5.24164259086081"><ele>230.0</ele><time>2026-03-28T11:33:59Z</time></trkpt><trkpt lat="46.27819436910085" lon="5.241609404480969"><ele>230.0</ele><time>2026-03-28T11:34:00Z</time></trkpt><trkpt lat="46.277918888762166" lon="5.241577680484393"><ele>229.5</ele><time>2026-03-28T11:34:01Z</time></trkpt><trkpt lat="46.27764292175197" lon="5.241549150592703"><ele>229.0</ele><time>2026-03-28T11:34:02Z</time></trkpt><trkpt lat="46.27736903098749" lon="5.241522332085722"><ele>232.0</ele><time>2026-03-28T11:34:03Z</time></trkpt><trkpt lat="46.27709726267692" lon="5.241494534735976"><ele>235.0</ele><time>2026-03-28T11:34:04Z</time></trkpt><trkpt lat="46.276824650505915" lon="5.2414661130152655"><ele>232.5</ele><time>2026-03-28T11:34:05Z</time></trkpt><trkpt lat="46.276551404596695" lon="5.241441017739527"><ele>230.0</ele><time>2026-03-28T11:34:06Z</time></trkpt><trkpt lat="46.27627984423669" lon="5.241416522765067"><ele>230.0</ele><time>2026-03-28T11:34:07Z</time></trkpt><trkpt lat="46.27600884757965" lon="5.241395242300344"><ele>230.0</ele><time>2026-03-28T11:34:08Z</time></trkpt><trkpt lat="46.27573613525231" lon="5.241376297809203"><ele>230.0</ele><time>2026-03-28T11:34:09Z</time></trkpt><trkpt lat="46.27546491323289" lon="5.241358756816763"><ele>230.0</ele><time>2026-03-28T11:34:10Z</time></trkpt><trkpt lat="46.27519482577736" lon="5.241346858237305"><ele>230.0</ele><time>2026-03-28T11:34:11Z</time></trkpt><trkpt lat="46.274923895079354" lon="5.241338351587891"><ele>230.0</ele><time>2026-03-28T11:34:12Z</time></trkpt><trkpt lat="46.27465512428224" lon="5.24132971150017"><ele>229.5</ele><time>2026-03-28T11:34:13Z</time></trkpt><trkpt lat="46.27438448808951" lon="5.241324820391874"><ele>229.0</ele><time>2026-03-28T11:34:14Z</time></trkpt><trkpt lat="46.27411619906573" lon="5.241317920718581"><ele>229.0</ele><time>2026-03-28T11:34:15Z</time></trkpt><trkpt lat="46.273848813410694" lon="5.24131525158074"><ele>229.0</ele><time>2026-03-28T11:34:16Z</time></trkpt><trkpt lat="46.27358051447823" lon="5.241315524230479"><ele>229.0</ele><time>2026-03-28T11:34:17Z</time></trkpt><trkpt lat="46.273311855430194" lon="5.241319813278791"><ele>229.0</ele><time>2026-03-28T11:34:18Z</time></trkpt><trkpt lat="46.273043627442675" lon="5.2413234648550695"><ele>229.5</ele><time>2026-03-28T11:34:19Z</time></trkpt><trkpt lat="46.272775726195945" lon="5.2413294651243065"><ele>230.0</ele><time>2026-03-28T11:34:20Z</time></trkpt><trkpt lat="46.272508864165914" lon="5.241338991530651"><ele>233.0</ele><time>2026-03-28T11:34:21Z</time></trkpt><trkpt lat="46.27223906983394" lon="5.241353372018065"><ele>236.0</ele><time>2026-03-28T11:34:22Z</time></trkpt><trkpt lat="46.271972335143985" lon="5.241367003156906"><ele>236.0</ele><time>2026-03-28T11:34:23Z</time></trkpt><trkpt lat="46.271704245438485" lon="5.241382413173714"><ele>236.0</ele><time>2026-03-28T11:34:24Z</time></trkpt><trkpt lat="46.271436894483394" lon="5.241398346558404"><ele>237.5</ele><time>2026-03-28T11:34:25Z</time></trkpt><trkpt lat="46.271169212645916" lon="5.241418275804627"><ele>239.0</ele><time>2026-03-28T11:34:26Z</time></trkpt><trkpt lat="46.270901247956544" lon="5.241437599980575"><ele>239.0</ele><time>2026-03-28T11:34:27Z</time></trkpt><trkpt lat="46.27063302126249" lon="5.241460446601613"><ele>239.0</ele><time>2026-03-28T11:34:28Z</time></trkpt><trkpt lat="46.270364065903436" lon="5.24148456549356"><ele>239.0</ele><time>2026-03-28T11:34:29Z</time></trkpt><trkpt lat="46.27009434701489" lon="5.241513734430057"><ele>239.0</ele><time>2026-03-28T11:34:30Z</time></trkpt><trkpt lat="46.26982645970164" lon="5.241539673612294"><ele>239.5</ele><time>2026-03-28T11:34:31Z</time></trkpt><trkpt lat="46.26956054838777" lon="5.241568653195226"><ele>240.0</ele><time>2026-03-28T11:34:32Z</time></trkpt><trkpt lat="46.26929196517131" lon="5.2416006937737265"><ele>240.0</ele><time>2026-03-28T11:34:33Z</time></trkpt><trkpt lat="46.269023481375314" lon="5.241633597247072"><ele>240.0</ele><time>2026-03-28T11:34:34Z</time></trkpt><trkpt lat="46.26875454052219" lon="5.241671025766411"><ele>240.5</ele><time>2026-03-28T11:34:35Z</time></trkpt><trkpt lat="46.26848157018864" lon="5.2417131390487235"><ele>241.0</ele><time>2026-03-28T11:34:36Z</time></trkpt><trkpt lat="46.26821242500667" lon="5.241755772684722"><ele>240.5</ele><time>2026-03-28T11:34:37Z</time></trkpt><trkpt lat="46.26794227076832" lon="5.241797102790281"><ele>240.0</ele><time>2026-03-28T11:34:38Z</time></trkpt><trkpt lat="46.267674953615206" lon="5.24184390413538"><ele>240.0</ele><time>2026-03-28T11:34:39Z</time></trkpt><trkpt lat="46.267405518291966" lon="5.241888902811289"><ele>240.0</ele><time>2026-03-28T11:34:40Z</time></trkpt><trkpt lat="46.26713569763262" lon="5.241942572908749"><ele>239.0</ele><time>2026-03-28T11:34:41Z</time></trkpt><trkpt lat="46.26686540079655" lon="5.242000181304594"><ele>238.0</ele><time>2026-03-28T11:34:42Z</time></trkpt><trkpt lat="46.26659705478623" lon="5.242055792652972"><ele>237.5</ele><time>2026-03-28T11:34:43Z</time></trkpt><trkpt lat="46.26632629467298" lon="5.242113232427348"><ele>237.0</ele><time>2026-03-28T11:34:44Z</time></trkpt><trkpt lat="46.266057992587186" lon="5.242176686600936"><ele>237.0</ele><time>2026-03-28T11:34:45Z</time></trkpt><trkpt lat="46.265789255557195" lon="5.242242969615041"><ele>237.0</ele><time>2026-03-28T11:34:46Z</time></trkpt><trkpt lat="46.26552071021685" lon="5.242308230053096"><ele>237.5</ele><time>2026-03-28T11:34:47Z</time></trkpt><trkpt lat="46.26525157874296" lon="5.242377836434019"><ele>238.0</ele><time>2026-03-28T11:34:48Z</time></trkpt><trkpt lat="46.26498233559124" lon="5.242456007954598"><ele>239.0</ele><time>2026-03-28T11:34:49Z</time></trkpt><trkpt lat="46.2647132903233" lon="5.242539856121166"><ele>240.0</ele><time>2026-03-28T11:34:50Z</time></trkpt><trkpt lat="46.264445133735045" lon="5.24262882362652"><ele>240.0</ele><time>2026-03-28T11:34:51Z</time></trkpt><trkpt lat="46.264176082473305" lon="5.242712734636049"><ele>240.0</ele><time>2026-03-28T11:34:52Z</time></trkpt><trkpt lat="46.26390958912907" lon="5.242804663361395"><ele>239.0</ele><time>2026-03-28T11:34:53Z</time></trkpt><trkpt lat="46.263640200257" lon="5.242901331259167"><ele>238.0</ele><time>2026-03-28T11:34:54Z</time></trkpt><trkpt lat="46.263371357948785" lon="5.243003460964983"><ele>237.5</ele><time>2026-03-28T11:34:55Z</time></trkpt><trkpt lat="46.26310288653402" lon="5.24310868179164"><ele>237.0</ele><time>2026-03-28T11:34:56Z</time></trkpt><trkpt lat="46.26283518840361" lon="5.243216906711905"><ele>236.0</ele><time>2026-03-28T11:34:57Z</time></trkpt><trkpt lat="46.26256967209276" lon="5.243331800334006"><ele>235.0</ele><time>2026-03-28T11:34:58Z</time></trkpt><trkpt lat="46.2623059393259" lon="5.243456385050863"><ele>235.0</ele><time>2026-03-28T11:34:59Z</time></trkpt><trkpt lat="46.26204308820887" lon="5.243584914484154"><ele>235.0</ele><time>2026-03-28T11:35:00Z</time></trkpt><trkpt lat="46.26178183696172" lon="5.243719353808919"><ele>235.0</ele><time>2026-03-28T11:35:01Z</time></trkpt><trkpt lat="46.261519120380136" lon="5.243857897168475"><ele>235.0</ele><time>2026-03-28T11:35:02Z</time></trkpt><trkpt lat="46.26126058771633" lon="5.244002327557865"><ele>236.0</ele><time>2026-03-28T11:35:03Z</time></trkpt><trkpt lat="46.26100288903908" lon="5.244154663702538"><ele>237.0</ele><time>2026-03-28T11:35:04Z</time></trkpt><trkpt lat="46.260747457644534" lon="5.244310196719851"><ele>236.5</ele><time>2026-03-28T11:35:05Z</time></trkpt><trkpt lat="46.26049542525278" lon="5.244473913033078"><ele>236.0</ele><time>2026-03-28T11:35:06Z</time></trkpt><trkpt lat="46.26024412003855" lon="5.244639473819117"><ele>236.0</ele><time>2026-03-28T11:35:07Z</time></trkpt><trkpt lat="46.25999391201612" lon="5.244811229056371"><ele>236.0</ele><time>2026-03-28T11:35:08Z</time></trkpt><trkpt lat="46.25974663426398" lon="5.244989418162636"><ele>236.0</ele><time>2026-03-28T11:35:09Z</time></trkpt><trkpt lat="46.259499671288665" lon="5.245176614160785"><ele>236.0</ele><time>2026-03-28T11:35:10Z</time></trkpt><trkpt lat="46.25925158890949" lon="5.245378087511864"><ele>236.0</ele><time>2026-03-28T11:35:11Z</time></trkpt><trkpt lat="46.25901358331645" lon="5.245585274891725"><ele>236.0</ele><time>2026-03-28T11:35:12Z</time></trkpt><trkpt lat="46.2587761148129" lon="5.24579150268812"><ele>235.0</ele><time>2026-03-28T11:35:13Z</time></trkpt><trkpt lat="46.25854529240443" lon="5.246007416149787"><ele>234.0</ele><time>2026-03-28T11:35:14Z</time></trkpt><trkpt lat="46.258313750316326" lon="5.246227742685036"><ele>234.0</ele><time>2026-03-28T11:35:15Z</time></trkpt><trkpt lat="46.258085802120355" lon="5.2464540327836415"><ele>234.0</ele><time>2026-03-28T11:35:16Z</time></trkpt><trkpt lat="46.25786109878734" lon="5.246688470242566"><ele>234.5</ele><time>2026-03-28T11:35:17Z</time></trkpt><trkpt lat="46.25763782922341" lon="5.246927259607027"><ele>235.0</ele><time>2026-03-28T11:35:18Z</time></trkpt><trkpt lat="46.257415751074085" lon="5.247170487400623"><ele>237.0</ele><time>2026-03-28T11:35:19Z</time></trkpt><trkpt lat="46.25719764352167" lon="5.247417379214177"><ele>239.0</ele><time>2026-03-28T11:35:20Z</time></trkpt><trkpt lat="46.25698234961459" lon="5.247664420233179"><ele>239.0</ele><time>2026-03-28T11:35:21Z</time></trkpt><trkpt lat="46.25677205265345" lon="5.2479162718443675"><ele>239.0</ele><time>2026-03-28T11:35:22Z</time></trkpt><trkpt lat="46.25656505661304" lon="5.2481782019026575"><ele>240.0</ele><time>2026-03-28T11:35:23Z</time></trkpt><trkpt lat="46.2563580041932" lon="5.248443366349466"><ele>241.0</ele><time>2026-03-28T11:35:24Z</time></trkpt><trkpt lat="46.256159934546005" lon="5.248715571042045"><ele>239.5</ele><time>2026-03-28T11:35:25Z</time></trkpt><trkpt lat="46.25596421518215" lon="5.24898260856995"><ele>238.0</ele><time>2026-03-28T11:35:26Z</time></trkpt><trkpt lat="46.255771028816795" lon="5.24925252176037"><ele>239.5</ele><time>2026-03-28T11:35:27Z</time></trkpt><trkpt lat="46.25558199309909" lon="5.249527052400305"><ele>241.0</ele><time>2026-03-28T11:35:28Z</time></trkpt><trkpt lat="46.25539575577552" lon="5.249808757599336"><ele>241.0</ele><time>2026-03-28T11:35:29Z</time></trkpt><trkpt lat="46.255214542657384" lon="5.250097019048636"><ele>241.0</ele><time>2026-03-28T11:35:30Z</time></trkpt><trkpt lat="46.25503586705404" lon="5.250390186182005"><ele>241.5</ele><time>2026-03-28T11:35:31Z</time></trkpt><trkpt lat="46.25486581101753" lon="5.25068940388171"><ele>242.0</ele><time>2026-03-28T11:35:32Z</time></trkpt><trkpt lat="46.25469762049856" lon="5.250993309253272"><ele>242.0</ele><time>2026-03-28T11:35:33Z</time></trkpt><trkpt lat="46.2545339563295" lon="5.251301086649765"><ele>242.0</ele><time>2026-03-28T11:35:34Z</time></trkpt><trkpt lat="46.25437268672357" lon="5.251614778392558"><ele>242.0</ele><time>2026-03-28T11:35:35Z</time></trkpt><trkpt lat="46.25421320687648" lon="5.25193211055167"><ele>242.0</ele><time>2026-03-28T11:35:36Z</time></trkpt><trkpt lat="46.254058392857885" lon="5.252250430990961"><ele>240.5</ele><time>2026-03-28T11:35:37Z</time></trkpt><trkpt lat="46.25390477206682" lon="5.25257305892477"><ele>239.0</ele><time>2026-03-28T11:35:38Z</time></trkpt><trkpt lat="46.2537530831931" lon="5.252903345938454"><ele>239.5</ele><time>2026-03-28T11:35:39Z</time></trkpt><trkpt lat="46.25360434384892" lon="5.253232475264285"><ele>240.0</ele><time>2026-03-28T11:35:40Z</time></trkpt><trkpt lat="46.2534575299789" lon="5.253565861346884"><ele>240.0</ele><time>2026-03-28T11:35:41Z</time></trkpt><trkpt lat="46.253318954916715" lon="5.253903587496771"><ele>240.0</ele><time>2026-03-28T11:35:42Z</time></trkpt><trkpt lat="46.253183589090575" lon="5.254241905338743"><ele>240.5</ele><time>2026-03-28T11:35:43Z</time></trkpt><trkpt lat="46.253050184178264" lon="5.2545785781520316"><ele>241.0</ele><time>2026-03-28T11:35:44Z</time></trkpt><trkpt lat="46.25291711030802" lon="5.254917714012799"><ele>241.0</ele><time>2026-03-28T11:35:45Z</time></trkpt><trkpt lat="46.25278130093813" lon="5.255256159815474"><ele>241.0</ele><time>2026-03-28T11:35:46Z</time></trkpt><trkpt lat="46.25264586453435" lon="5.255595980273082"><ele>242.0</ele><time>2026-03-28T11:35:47Z</time></trkpt><trkpt lat="46.252510892419494" lon="5.255933801097382"><ele>243.0</ele><time>2026-03-28T11:35:48Z</time></trkpt><trkpt lat="46.25237176357781" lon="5.256273304918312"><ele>244.0</ele><time>2026-03-28T11:35:49Z</time></trkpt><trkpt lat="46.252227765734766" lon="5.256606797695011"><ele>245.0</ele><time>2026-03-28T11:35:50Z</time></trkpt><trkpt lat="46.252081589237704" lon="5.256939782323349"><ele>245.0</ele><time>2026-03-28T11:35:51Z</time></trkpt><trkpt lat="46.25193758862543" lon="5.25726495968678"><ele>245.0</ele><time>2026-03-28T11:35:52Z</time></trkpt><trkpt lat="46.25179200066661" lon="5.25758718393553"><ele>244.5</ele><time>2026-03-28T11:35:53Z</time></trkpt><trkpt lat="46.25163928935501" lon="5.25791206484384"><ele>244.0</ele><time>2026-03-28T11:35:54Z</time></trkpt><trkpt lat="46.2514866178818" lon="5.258231883249168"><ele>243.5</ele><time>2026-03-28T11:35:55Z</time></trkpt><trkpt lat="46.25132796914802" lon="5.258551591180013"><ele>243.0</ele><time>2026-03-28T11:35:56Z</time></trkpt><trkpt lat="46.25117081393861" lon="5.258864980636322"><ele>242.0</ele><time>2026-03-28T11:35:57Z</time></trkpt><trkpt lat="46.251007425411885" lon="5.259172656243321"><ele>241.0</ele><time>2026-03-28T11:35:58Z</time></trkpt><trkpt lat="46.2508383214994" lon="5.259475371110863"><ele>241.0</ele><time>2026-03-28T11:35:59Z</time></trkpt><trkpt lat="46.25066794073162" lon="5.259778143963186"><ele>241.0</ele><time>2026-03-28T11:36:00Z</time></trkpt><trkpt lat="46.2504924777172" lon="5.260072753984235"><ele>241.0</ele><time>2026-03-28T11:36:01Z</time></trkpt><trkpt lat="46.25031380530113" lon="5.260364022264558"><ele>241.0</ele><time>2026-03-28T11:36:02Z</time></trkpt><trkpt lat="46.25013186019927" lon="5.260649633538194"><ele>241.0</ele><time>2026-03-28T11:36:03Z</time></trkpt><trkpt lat="46.24994752828489" lon="5.260932389607444"><ele>241.0</ele><time>2026-03-28T11:36:04Z</time></trkpt><trkpt lat="46.24975898526617" lon="5.261210623281552"><ele>243.5</ele><time>2026-03-28T11:36:05Z</time></trkpt><trkpt lat="46.24956691963734" lon="5.2614825907401945"><ele>246.0</ele><time>2026-03-28T11:36:06Z</time></trkpt><trkpt lat="46.24936412224917" lon="5.2617543034811165"><ele>246.0</ele><time>2026-03-28T11:36:07Z</time></trkpt><trkpt lat="46.24916458080863" lon="5.26201265282636"><ele>246.0</ele><time>2026-03-28T11:36:08Z</time></trkpt><trkpt lat="46.248958574244384" lon="5.262267239423239"><ele>247.0</ele><time>2026-03-28T11:36:09Z</time></trkpt><trkpt lat="46.24875135865448" lon="5.262512571187026"><ele>248.0</ele><time>2026-03-28T11:36:10Z</time></trkpt><trkpt lat="46.24854186926843" lon="5.262765384706682"><ele>248.0</ele><time>2026-03-28T11:36:11Z</time></trkpt><trkpt lat="46.24833731987441" lon="5.263014257365456"><ele>248.0</ele><time>2026-03-28T11:36:12Z</time></trkpt><trkpt lat="46.24812760108418" lon="5.26326410235596"><ele>251.0</ele><time>2026-03-28T11:36:13Z</time></trkpt><trkpt lat="46.247922325144245" lon="5.263512979918499"><ele>254.0</ele><time>2026-03-28T11:36:14Z</time></trkpt><trkpt lat="46.247718918691895" lon="5.263763564204837"><ele>252.5</ele><time>2026-03-28T11:36:15Z</time></trkpt><trkpt lat="46.24751379322537" lon="5.264013636901305"><ele>251.0</ele><time>2026-03-28T11:36:16Z</time></trkpt><trkpt lat="46.24731154519031" lon="5.2642608065495455"><ele>251.0</ele><time>2026-03-28T11:36:17Z</time></trkpt><trkpt lat="46.24710361709977" lon="5.264512691848904"><ele>251.0</ele><time>2026-03-28T11:36:18Z</time></trkpt><trkpt lat="46.246896724529705" lon="5.264760803858304"><ele>249.0</ele><time>2026-03-28T11:36:19Z</time></trkpt><trkpt lat="46.24669014718355" lon="5.265007701899056"><ele>247.0</ele><time>2026-03-28T11:36:20Z</time></trkpt><trkpt lat="46.24648467802972" lon="5.2652549959231125"><ele>247.0</ele><time>2026-03-28T11:36:21Z</time></trkpt><trkpt lat="46.246277837829645" lon="5.265505319404234"><ele>247.0</ele><time>2026-03-28T11:36:22Z</time></trkpt><trkpt lat="46.24607158276306" lon="5.265755893838248"><ele>247.0</ele><time>2026-03-28T11:36:23Z</time></trkpt><trkpt lat="46.24586332477194" lon="5.266007242405273"><ele>247.0</ele><time>2026-03-28T11:36:24Z</time></trkpt><trkpt lat="46.24565704887706" lon="5.266255411434372"><ele>247.5</ele><time>2026-03-28T11:36:25Z</time></trkpt><trkpt lat="46.24545115628695" lon="5.266505997440698"><ele>248.0</ele><time>2026-03-28T11:36:26Z</time></trkpt><trkpt lat="46.24524392950158" lon="5.266758070062713"><ele>248.0</ele><time>2026-03-28T11:36:27Z</time></trkpt><trkpt lat="46.24503885187663" lon="5.267009033745282"><ele>248.0</ele><time>2026-03-28T11:36:28Z</time></trkpt><trkpt lat="46.24483589101938" lon="5.267260435816719"><ele>249.0</ele><time>2026-03-28T11:36:29Z</time></trkpt><trkpt lat="46.24463127451316" lon="5.267509461161017"><ele>250.0</ele><time>2026-03-28T11:36:30Z</time></trkpt><trkpt lat="46.244426275334376" lon="5.267757627946322"><ele>250.0</ele><time>2026-03-28T11:36:31Z</time></trkpt><trkpt lat="46.24422102115193" lon="5.268006478926633"><ele>250.0</ele><time>2026-03-28T11:36:32Z</time></trkpt><trkpt lat="46.24401825489944" lon="5.26825524709149"><ele>249.5</ele><time>2026-03-28T11:36:33Z</time></trkpt><trkpt lat="46.24381620752448" lon="5.268506009024137"><ele>249.0</ele><time>2026-03-28T11:36:34Z</time></trkpt><trkpt lat="46.24361425436302" lon="5.26875542051303"><ele>248.0</ele><time>2026-03-28T11:36:35Z</time></trkpt><trkpt lat="46.24340902176051" lon="5.269005225313941"><ele>247.0</ele><time>2026-03-28T11:36:36Z</time></trkpt><trkpt lat="46.243204323970936" lon="5.269249643214404"><ele>249.0</ele><time>2026-03-28T11:36:37Z</time></trkpt><trkpt lat="46.24300004704753" lon="5.269496881694617"><ele>251.0</ele><time>2026-03-28T11:36:38Z</time></trkpt><trkpt lat="46.242795027827235" lon="5.269743356132134"><ele>251.5</ele><time>2026-03-28T11:36:39Z</time></trkpt><trkpt lat="46.242589663025235" lon="5.269993270559878"><ele>252.0</ele><time>2026-03-28T11:36:40Z</time></trkpt><trkpt lat="46.242384238855685" lon="5.27024317090826"><ele>252.5</ele><time>2026-03-28T11:36:41Z</time></trkpt><trkpt lat="46.2421781571636" lon="5.270490866817627"><ele>253.0</ele><time>2026-03-28T11:36:42Z</time></trkpt><trkpt lat="46.24197207434666" lon="5.270740484891322"><ele>253.0</ele><time>2026-03-28T11:36:43Z</time></trkpt><trkpt lat="46.241765891018495" lon="5.270987807679033"><ele>253.0</ele><time>2026-03-28T11:36:44Z</time></trkpt><trkpt lat="46.241561294991854" lon="5.2712376131972505"><ele>253.0</ele><time>2026-03-28T11:36:45Z</time></trkpt><trkpt lat="46.24135839626307" lon="5.271485034036889"><ele>253.0</ele><time>2026-03-28T11:36:46Z</time></trkpt><trkpt lat="46.24115602807624" lon="5.271735171897911"><ele>253.0</ele><time>2026-03-28T11:36:47Z</time></trkpt><trkpt lat="46.240950392891875" lon="5.271984803637008"><ele>253.0</ele><time>2026-03-28T11:36:48Z</time></trkpt><trkpt lat="46.240745096588704" lon="5.272236489112244"><ele>253.5</ele><time>2026-03-28T11:36:49Z</time></trkpt><trkpt lat="46.24053788611222" lon="5.272481986728114"><ele>254.0</ele><time>2026-03-28T11:36:50Z</time></trkpt><trkpt lat="46.24033176705717" lon="5.272730112046429"><ele>254.0</ele><time>2026-03-28T11:36:51Z</time></trkpt><trkpt lat="46.24012821257644" lon="5.2729789744348565"><ele>254.0</ele><time>2026-03-28T11:36:52Z</time></trkpt><trkpt lat="46.239922857553175" lon="5.273224951077111"><ele>253.5</ele><time>2026-03-28T11:36:53Z</time></trkpt><trkpt lat="46.239717540258916" lon="5.27347261420844"><ele>253.0</ele><time>2026-03-28T11:36:54Z</time></trkpt><trkpt lat="46.23951314882088" lon="5.273723168693132"><ele>252.5</ele><time>2026-03-28T11:36:55Z</time></trkpt><trkpt lat="46.239310502148896" lon="5.273972178005713"><ele>252.0</ele><time>2026-03-28T11:36:56Z</time></trkpt><trkpt lat="46.23910642134116" lon="5.274221182995685"><ele>253.5</ele><time>2026-03-28T11:36:57Z</time></trkpt><trkpt lat="46.23890093773801" lon="5.274468799121091"><ele>255.0</ele><time>2026-03-28T11:36:58Z</time></trkpt><trkpt lat="46.238696728506746" lon="5.274718455932381"><ele>253.0</ele><time>2026-03-28T11:36:59Z</time></trkpt><trkpt lat="46.23849028545166" lon="5.274968642876906"><ele>251.0</ele><time>2026-03-28T11:37:00Z</time></trkpt><trkpt lat="46.23828463906819" lon="5.275221311998785"><ele>251.5</ele><time>2026-03-28T11:37:01Z</time></trkpt><trkpt lat="46.238075499431275" lon="5.275470717898637"><ele>252.0</ele><time>2026-03-28T11:37:02Z</time></trkpt><trkpt lat="46.237870763254904" lon="5.275720918157982"><ele>252.0</ele><time>2026-03-28T11:37:03Z</time></trkpt><trkpt lat="46.23766658154" lon="5.275973785272041"><ele>252.0</ele><time>2026-03-28T11:37:04Z</time></trkpt><trkpt lat="46.23745711310599" lon="5.276220980580035"><ele>253.0</ele><time>2026-03-28T11:37:05Z</time></trkpt><trkpt lat="46.23724951008627" lon="5.276471591235005"><ele>254.0</ele><time>2026-03-28T11:37:06Z</time></trkpt><trkpt lat="46.23704118643579" lon="5.276721640738736"><ele>254.0</ele><time>2026-03-28T11:37:07Z</time></trkpt><trkpt lat="46.236836394976564" lon="5.27697334110092"><ele>254.0</ele><time>2026-03-28T11:37:08Z</time></trkpt><trkpt lat="46.236626530828076" lon="5.277220400094703"><ele>255.0</ele><time>2026-03-28T11:37:09Z</time></trkpt><trkpt lat="46.23642221788133" lon="5.277472793717046"><ele>256.0</ele><time>2026-03-28T11:37:10Z</time></trkpt><trkpt lat="46.2362137016166" lon="5.277722555412066"><ele>256.0</ele><time>2026-03-28T11:37:11Z</time></trkpt><trkpt lat="46.23600879163044" lon="5.277979785993899"><ele>256.0</ele><time>2026-03-28T11:37:12Z</time></trkpt><trkpt lat="46.23580118214612" lon="5.278234548468725"><ele>255.5</ele><time>2026-03-28T11:37:13Z</time></trkpt><trkpt lat="46.23559227591049" lon="5.278484393804498"><ele>255.0</ele><time>2026-03-28T11:37:14Z</time></trkpt><trkpt lat="46.23538211692176" lon="5.278735795557868"><ele>255.0</ele><time>2026-03-28T11:37:15Z</time></trkpt><trkpt lat="46.235170422093304" lon="5.278989174315145"><ele>255.0</ele><time>2026-03-28T11:37:16Z</time></trkpt><trkpt lat="46.234963354725295" lon="5.2792364218884105"><ele>255.0</ele><time>2026-03-28T11:37:17Z</time></trkpt><trkpt lat="46.23475311758664" lon="5.279480359034178"><ele>255.0</ele><time>2026-03-28T11:37:18Z</time></trkpt><trkpt lat="46.234540105326126" lon="5.279728806333075"><ele>255.0</ele><time>2026-03-28T11:37:19Z</time></trkpt><trkpt lat="46.23432751552544" lon="5.2799776515352805"><ele>255.0</ele><time>2026-03-28T11:37:20Z</time></trkpt><trkpt lat="46.23411726566697" lon="5.280228929676864"><ele>254.0</ele><time>2026-03-28T11:37:21Z</time></trkpt><trkpt lat="46.233907159381545" lon="5.280481850561021"><ele>253.0</ele><time>2026-03-28T11:37:22Z</time></trkpt><trkpt lat="46.23369770583507" lon="5.280732449774772"><ele>253.0</ele><time>2026-03-28T11:37:23Z</time></trkpt><trkpt lat="46.23348666291277" lon="5.280984743851411"><ele>253.0</ele><time>2026-03-28T11:37:24Z</time></trkpt><trkpt lat="46.23327266427513" lon="5.2812339118646685"><ele>254.0</ele><time>2026-03-28T11:37:25Z</time></trkpt><trkpt lat="46.233054514286565" lon="5.281478018188302"><ele>255.0</ele><time>2026-03-28T11:37:26Z</time></trkpt><trkpt lat="46.23283675499402" lon="5.281721261840469"><ele>255.0</ele><time>2026-03-28T11:37:27Z</time></trkpt><trkpt lat="46.23261695256268" lon="5.281964934030867"><ele>255.0</ele><time>2026-03-28T11:37:28Z</time></trkpt><trkpt lat="46.23239586750685" lon="5.282205076832307"><ele>255.0</ele><time>2026-03-28T11:37:29Z</time></trkpt><trkpt lat="46.232173128206334" lon="5.282442163863664"><ele>255.0</ele><time>2026-03-28T11:37:30Z</time></trkpt><trkpt lat="46.231949238889854" lon="5.282679026315259"><ele>255.0</ele><time>2026-03-28T11:37:31Z</time></trkpt><trkpt lat="46.23172613287483" lon="5.282915970324597"><ele>255.0</ele><time>2026-03-28T11:37:32Z</time></trkpt><trkpt lat="46.2315011218818" lon="5.283149780051559"><ele>256.0</ele><time>2026-03-28T11:37:33Z</time></trkpt><trkpt lat="46.23127640917404" lon="5.283381122522952"><ele>257.0</ele><time>2026-03-28T11:37:34Z</time></trkpt><trkpt lat="46.23104875204005" lon="5.2836105347587425"><ele>257.0</ele><time>2026-03-28T11:37:35Z</time></trkpt><trkpt lat="46.23082049686812" lon="5.283836231247385"><ele>257.0</ele><time>2026-03-28T11:37:36Z</time></trkpt><trkpt lat="46.230589338051466" lon="5.284060499818637"><ele>256.5</ele><time>2026-03-28T11:37:37Z</time></trkpt><trkpt lat="46.230361334269105" lon="5.284281798734331"><ele>256.0</ele><time>2026-03-28T11:37:38Z</time></trkpt><trkpt lat="46.23013223029931" lon="5.284502554429726"><ele>256.0</ele><time>2026-03-28T11:37:39Z</time></trkpt><trkpt lat="46.22990149954259" lon="5.284725946188706"><ele>256.0</ele><time>2026-03-28T11:37:40Z</time></trkpt><trkpt lat="46.2296696226492" lon="5.2849417826319"><ele>256.0</ele><time>2026-03-28T11:37:41Z</time></trkpt><trkpt lat="46.22943774183006" lon="5.285154334567374"><ele>256.0</ele><time>2026-03-28T11:37:42Z</time></trkpt><trkpt lat="46.22920686501157" lon="5.285365747150153"><ele>256.0</ele><time>2026-03-28T11:37:43Z</time></trkpt><trkpt lat="46.228973296431974" lon="5.285576277097696"><ele>256.0</ele><time>2026-03-28T11:37:44Z</time></trkpt><trkpt lat="46.228740093984385" lon="5.285782758562937"><ele>256.5</ele><time>2026-03-28T11:37:45Z</time></trkpt><trkpt lat="46.228507530455445" lon="5.285988545969378"><ele>257.0</ele><time>2026-03-28T11:37:46Z</time></trkpt><trkpt lat="46.22827307544927" lon="5.286193183717689"><ele>257.0</ele><time>2026-03-28T11:37:47Z</time></trkpt><trkpt lat="46.22803828547584" lon="5.2863944136981385"><ele>257.0</ele><time>2026-03-28T11:37:48Z</time></trkpt><trkpt lat="46.22779909894049" lon="5.286594230472599"><ele>257.0</ele><time>2026-03-28T11:37:49Z</time></trkpt><trkpt lat="46.22756001507161" lon="5.286792357043805"><ele>257.0</ele><time>2026-03-28T11:37:50Z</time></trkpt><trkpt lat="46.22732145539507" lon="5.286991692218408"><ele>257.0</ele><time>2026-03-28T11:37:51Z</time></trkpt><trkpt lat="46.22708195001183" lon="5.287183800975114"><ele>257.0</ele><time>2026-03-28T11:37:52Z</time></trkpt><trkpt lat="46.226839069020684" lon="5.2873726831003"><ele>257.0</ele><time>2026-03-28T11:37:53Z</time></trkpt><trkpt lat="46.226595906466606" lon="5.287556022965114"><ele>257.0</ele><time>2026-03-28T11:37:54Z</time></trkpt><trkpt lat="46.22635181606751" lon="5.287737534807702"><ele>257.5</ele><time>2026-03-28T11:37:55Z</time></trkpt><trkpt lat="46.226104702423655" lon="5.287921089453554"><ele>258.0</ele><time>2026-03-28T11:37:56Z</time></trkpt><trkpt lat="46.22585723264295" lon="5.288101234800403"><ele>260.0</ele><time>2026-03-28T11:37:57Z</time></trkpt><trkpt lat="46.22560944555118" lon="5.288278766735864"><ele>262.0</ele><time>2026-03-28T11:37:58Z</time></trkpt><trkpt lat="46.22536202527173" lon="5.2884570088946505"><ele>262.0</ele><time>2026-03-28T11:37:59Z</time></trkpt><trkpt lat="46.22511446263956" lon="5.2886310273530786"><ele>262.0</ele><time>2026-03-28T11:38:00Z</time></trkpt><trkpt lat="46.22486601669283" lon="5.288804011429723"><ele>260.5</ele><time>2026-03-28T11:38:01Z</time></trkpt><trkpt lat="46.22461699710106" lon="5.288976180934774"><ele>259.0</ele><time>2026-03-28T11:38:02Z</time></trkpt><trkpt lat="46.224366232877166" lon="5.289145171295998"><ele>259.0</ele><time>2026-03-28T11:38:03Z</time></trkpt><trkpt lat="46.22411769595201" lon="5.289315856159984"><ele>259.0</ele><time>2026-03-28T11:38:04Z</time></trkpt><trkpt lat="46.223866663815315" lon="5.289482530915228"><ele>259.0</ele><time>2026-03-28T11:38:05Z</time></trkpt><trkpt lat="46.223616443343914" lon="5.2896458359059535"><ele>259.0</ele><time>2026-03-28T11:38:06Z</time></trkpt><trkpt lat="46.22336531145519" lon="5.289806189158464"><ele>259.5</ele><time>2026-03-28T11:38:07Z</time></trkpt><trkpt lat="46.22311168508571" lon="5.289962643389367"><ele>260.0</ele><time>2026-03-28T11:38:08Z</time></trkpt><trkpt lat="46.22285632409231" lon="5.290119258311884"><ele>260.0</ele><time>2026-03-28T11:38:09Z</time></trkpt><trkpt lat="46.22260219840863" lon="5.290276465943692"><ele>260.0</ele><time>2026-03-28T11:38:10Z</time></trkpt><trkpt lat="46.222346687914346" lon="5.290428320488724"><ele>259.5</ele><time>2026-03-28T11:38:11Z</time></trkpt><trkpt lat="46.22209123408598" lon="5.290578586373758"><ele>259.0</ele><time>2026-03-28T11:38:12Z</time></trkpt><trkpt lat="46.22183393383883" lon="5.290725160831599"><ele>258.0</ele><time>2026-03-28T11:38:13Z</time></trkpt><trkpt lat="46.22157707551534" lon="5.290873416953381"><ele>257.0</ele><time>2026-03-28T11:38:14Z</time></trkpt><trkpt lat="46.221318194442986" lon="5.291014561372322"><ele>256.5</ele><time>2026-03-28T11:38:15Z</time></trkpt><trkpt lat="46.22105998408184" lon="5.2911552405456845"><ele>256.0</ele><time>2026-03-28T11:38:16Z</time></trkpt><trkpt lat="46.22080356887131" lon="5.291291671583962"><ele>256.5</ele><time>2026-03-28T11:38:17Z</time></trkpt><trkpt lat="46.220542610956876" lon="5.291421312209926"><ele>257.0</ele><time>2026-03-28T11:38:18Z</time></trkpt><trkpt lat="46.220285430978215" lon="5.291551371514491"><ele>254.5</ele><time>2026-03-28T11:38:19Z</time></trkpt><trkpt lat="46.22002542962668" lon="5.291670514157036"><ele>252.0</ele><time>2026-03-28T11:38:20Z</time></trkpt><trkpt lat="46.21976511691538" lon="5.291792146366846"><ele>252.0</ele><time>2026-03-28T11:38:21Z</time></trkpt><trkpt lat="46.219508388719596" lon="5.291917364994605"><ele>252.0</ele><time>2026-03-28T11:38:22Z</time></trkpt><trkpt lat="46.21924805941157" lon="5.292030822975075"><ele>252.0</ele><time>2026-03-28T11:38:23Z</time></trkpt><trkpt lat="46.21898684328679" lon="5.292146373665458"><ele>252.0</ele><time>2026-03-28T11:38:24Z</time></trkpt><trkpt lat="46.218725658508056" lon="5.29226001517766"><ele>252.5</ele><time>2026-03-28T11:38:25Z</time></trkpt><trkpt lat="46.21846387784134" lon="5.292369023640354"><ele>253.0</ele><time>2026-03-28T11:38:26Z</time></trkpt><trkpt lat="46.218202455129976" lon="5.29247896548795"><ele>255.0</ele><time>2026-03-28T11:38:27Z</time></trkpt><trkpt lat="46.21794566504735" lon="5.292591998146451"><ele>257.0</ele><time>2026-03-28T11:38:28Z</time></trkpt><trkpt lat="46.217688155502216" lon="5.292701159080992"><ele>257.0</ele><time>2026-03-28T11:38:29Z</time></trkpt><trkpt lat="46.21742719351814" lon="5.292807500798414"><ele>257.0</ele><time>2026-03-28T11:38:30Z</time></trkpt><trkpt lat="46.217167591297745" lon="5.292911950050537"><ele>256.5</ele><time>2026-03-28T11:38:31Z</time></trkpt><trkpt lat="46.2169090412769" lon="5.2930193524746905"><ele>256.0</ele><time>2026-03-28T11:38:32Z</time></trkpt><trkpt lat="46.21664849008359" lon="5.293117754263522"><ele>258.0</ele><time>2026-03-28T11:38:33Z</time></trkpt><trkpt lat="46.216390165293916" lon="5.2932253908229745"><ele>260.0</ele><time>2026-03-28T11:38:34Z</time></trkpt><trkpt lat="46.21612925275683" lon="5.293320346322348"><ele>260.0</ele><time>2026-03-28T11:38:35Z</time></trkpt><trkpt lat="46.21586710971909" lon="5.293415889012796"><ele>260.0</ele><time>2026-03-28T11:38:36Z</time></trkpt><trkpt lat="46.21561154728507" lon="5.293513752308803"><ele>262.0</ele><time>2026-03-28T11:38:37Z</time></trkpt><trkpt lat="46.21534768896555" lon="5.293600756532687"><ele>264.0</ele><time>2026-03-28T11:38:38Z</time></trkpt><trkpt lat="46.21508420511866" lon="5.2936892427917455"><ele>264.0</ele><time>2026-03-28T11:38:39Z</time></trkpt><trkpt lat="46.214821562390306" lon="5.293772159671711"><ele>264.0</ele><time>2026-03-28T11:38:40Z</time></trkpt><trkpt lat="46.214560005003904" lon="5.293857174981107"><ele>263.5</ele><time>2026-03-28T11:38:41Z</time></trkpt><trkpt lat="46.214299587584144" lon="5.293939967495897"><ele>263.0</ele><time>2026-03-28T11:38:42Z</time></trkpt><trkpt lat="46.2140380170754" lon="5.294020126492034"><ele>262.5</ele><time>2026-03-28T11:38:43Z</time></trkpt><trkpt lat="46.213772935624" lon="5.294095914179018"><ele>262.0</ele><time>2026-03-28T11:38:44Z</time></trkpt><trkpt lat="46.21350627386375" lon="5.294169273503068"><ele>262.0</ele><time>2026-03-28T11:38:45Z</time></trkpt><trkpt lat="46.21324228297748" lon="5.294239648949368"><ele>262.0</ele><time>2026-03-28T11:38:46Z</time></trkpt><trkpt lat="46.21297722450208" lon="5.294308743564155"><ele>262.0</ele><time>2026-03-28T11:38:47Z</time></trkpt><trkpt lat="46.21271166539742" lon="5.294374050557043"><ele>262.0</ele><time>2026-03-28T11:38:48Z</time></trkpt><trkpt lat="46.212448016916476" lon="5.294437794036735"><ele>261.0</ele><time>2026-03-28T11:38:49Z</time></trkpt><trkpt lat="46.212181017711295" lon="5.294497214005681"><ele>260.0</ele><time>2026-03-28T11:38:50Z</time></trkpt><trkpt lat="46.21191532780954" lon="5.294554952160372"><ele>260.0</ele><time>2026-03-28T11:38:51Z</time></trkpt><trkpt lat="46.21165205025532" lon="5.294610470013625"><ele>260.0</ele><time>2026-03-28T11:38:52Z</time></trkpt><trkpt lat="46.211391505103414" lon="5.294664582874211"><ele>261.0</ele><time>2026-03-28T11:38:53Z</time></trkpt><trkpt lat="46.21113066441092" lon="5.294721141536002"><ele>262.0</ele><time>2026-03-28T11:38:54Z</time></trkpt><trkpt lat="46.210867991844246" lon="5.294771639745338"><ele>261.5</ele><time>2026-03-28T11:38:55Z</time></trkpt><trkpt lat="46.21060192113952" lon="5.294824043540467"><ele>261.0</ele><time>2026-03-28T11:38:56Z</time></trkpt><trkpt lat="46.21033328927017" lon="5.294872345184703"><ele>261.0</ele><time>2026-03-28T11:38:57Z</time></trkpt><trkpt lat="46.210065795853765" lon="5.294921869000966"><ele>261.0</ele><time>2026-03-28T11:38:58Z</time></trkpt><trkpt lat="46.20979357325586" lon="5.294970191682744"><ele>261.0</ele><time>2026-03-28T11:38:59Z</time></trkpt><trkpt lat="46.20952335316846" lon="5.295019010287006"><ele>261.0</ele><time>2026-03-28T11:39:00Z</time></trkpt><trkpt lat="46.20925164059255" lon="5.295061688914247"><ele>261.0</ele><time>2026-03-28T11:39:01Z</time></trkpt><trkpt lat="46.20897923572424" lon="5.295096293349698"><ele>261.0</ele><time>2026-03-28T11:39:02Z</time></trkpt><trkpt lat="46.208703875908625" lon="5.295128355852836"><ele>261.0</ele><time>2026-03-28T11:39:03Z</time></trkpt><trkpt lat="46.208428833064175" lon="5.295157517341992"><ele>261.0</ele><time>2026-03-28T11:39:04Z</time></trkpt><trkpt lat="46.208151542107814" lon="5.295184627083499"><ele>260.5</ele><time>2026-03-28T11:39:05Z</time></trkpt><trkpt lat="46.20787553380531" lon="5.295208015407112"><ele>260.0</ele><time>2026-03-28T11:39:06Z</time></trkpt><trkpt lat="46.20759898421543" lon="5.295230719098092"><ele>259.0</ele><time>2026-03-28T11:39:07Z</time></trkpt><trkpt lat="46.20732149912003" lon="5.295250777450118"><ele>258.0</ele><time>2026-03-28T11:39:08Z</time></trkpt><trkpt lat="46.20704380694062" lon="5.295264581492547"><ele>258.0</ele><time>2026-03-28T11:39:09Z</time></trkpt><trkpt lat="46.206764497499194" lon="5.295277463663993"><ele>258.0</ele><time>2026-03-28T11:39:10Z</time></trkpt><trkpt lat="46.206485072109416" lon="5.295287210021299"><ele>258.5</ele><time>2026-03-28T11:39:11Z</time></trkpt><trkpt lat="46.20620534085913" lon="5.295295753599395"><ele>259.0</ele><time>2026-03-28T11:39:12Z</time></trkpt><trkpt lat="46.20592749899313" lon="5.295302796080595"><ele>260.0</ele><time>2026-03-28T11:39:13Z</time></trkpt><trkpt lat="46.2056474345294" lon="5.295307568204958"><ele>261.0</ele><time>2026-03-28T11:39:14Z</time></trkpt><trkpt lat="46.20536877344541" lon="5.295307632580314"><ele>261.0</ele><time>2026-03-28T11:39:15Z</time></trkpt><trkpt lat="46.20509040791357" lon="5.295309052665477"><ele>261.0</ele><time>2026-03-28T11:39:16Z</time></trkpt><trkpt lat="46.20481556451951" lon="5.295306869010637"><ele>261.5</ele><time>2026-03-28T11:39:17Z</time></trkpt><trkpt lat="46.20454294089722" lon="5.295308098064473"><ele>262.0</ele><time>2026-03-28T11:39:18Z</time></trkpt><trkpt lat="46.20426984771702" lon="5.295309297956327"><ele>262.0</ele><time>2026-03-28T11:39:19Z</time></trkpt><trkpt lat="46.20399873112958" lon="5.295314190706794"><ele>262.0</ele><time>2026-03-28T11:39:20Z</time></trkpt><trkpt lat="46.203725899746296" lon="5.29531030389497"><ele>261.5</ele><time>2026-03-28T11:39:21Z</time></trkpt><trkpt lat="46.2034502737173" lon="5.295313763845299"><ele>261.0</ele><time>2026-03-28T11:39:22Z</time></trkpt><trkpt lat="46.203183486653465" lon="5.295319701382643"><ele>262.0</ele><time>2026-03-28T11:39:23Z</time></trkpt><trkpt lat="46.20291160846507" lon="5.295320030855521"><ele>263.0</ele><time>2026-03-28T11:39:24Z</time></trkpt><trkpt lat="46.20263848082214" lon="5.295323500734138"><ele>263.0</ele><time>2026-03-28T11:39:25Z</time></trkpt><trkpt lat="46.20236413025223" lon="5.295323084850544"><ele>263.0</ele><time>2026-03-28T11:39:26Z</time></trkpt><trkpt lat="46.20208965153453" lon="5.295322680034059"><ele>262.5</ele><time>2026-03-28T11:39:27Z</time></trkpt><trkpt lat="46.20181549596734" lon="5.2953247950179945"><ele>262.0</ele><time>2026-03-28T11:39:28Z</time></trkpt><trkpt lat="46.20154187362228" lon="5.295322760050612"><ele>263.0</ele><time>2026-03-28T11:39:29Z</time></trkpt><trkpt lat="46.20126685705377" lon="5.295322412653862"><ele>264.0</ele><time>2026-03-28T11:39:30Z</time></trkpt><trkpt lat="46.200992024982725" lon="5.2953234300940535"><ele>264.0</ele><time>2026-03-28T11:39:31Z</time></trkpt><trkpt lat="46.200719007309786" lon="5.295324275575463"><ele>264.0</ele><time>2026-03-28T11:39:32Z</time></trkpt><trkpt lat="46.20044466260766" lon="5.295324597120716"><ele>264.0</ele><time>2026-03-28T11:39:33Z</time></trkpt><trkpt lat="46.20016884080266" lon="5.295325505573386"><ele>264.0</ele><time>2026-03-28T11:39:34Z</time></trkpt><trkpt lat="46.19989455765764" lon="5.2953248818161525"><ele>264.5</ele><time>2026-03-28T11:39:35Z</time></trkpt><trkpt lat="46.19962026602518" lon="5.295329128390044"><ele>265.0</ele><time>2026-03-28T11:39:36Z</time></trkpt><trkpt lat="46.19934461343659" lon="5.295328920540755"><ele>265.0</ele><time>2026-03-28T11:39:37Z</time></trkpt><trkpt lat="46.19907018805218" lon="5.2953277848119376"><ele>265.0</ele><time>2026-03-28T11:39:38Z</time></trkpt><trkpt lat="46.19879507039641" lon="5.295327202871134"><ele>264.5</ele><time>2026-03-28T11:39:39Z</time></trkpt><trkpt lat="46.19851950000751" lon="5.2953259533749755"><ele>264.0</ele><time>2026-03-28T11:39:40Z</time></trkpt><trkpt lat="46.19824511928756" lon="5.2953247387079285"><ele>263.0</ele><time>2026-03-28T11:39:41Z</time></trkpt><trkpt lat="46.19797039242451" lon="5.295324875799858"><ele>262.0</ele><time>2026-03-28T11:39:42Z</time></trkpt><trkpt lat="46.197694681606464" lon="5.295321222332738"><ele>262.0</ele><time>2026-03-28T11:39:43Z</time></trkpt><trkpt lat="46.19742055167039" lon="5.295324542064847"><ele>262.0</ele><time>2026-03-28T11:39:44Z</time></trkpt><trkpt lat="46.19714626956577" lon="5.2953214775596535"><ele>260.5</ele><time>2026-03-28T11:39:45Z</time></trkpt><trkpt lat="46.196870533907756" lon="5.295320614422527"><ele>259.0</ele><time>2026-03-28T11:39:46Z</time></trkpt><trkpt lat="46.19659576215115" lon="5.295318213958583"><ele>258.5</ele><time>2026-03-28T11:39:47Z</time></trkpt><trkpt lat="46.19632003005085" lon="5.295318534024683"><ele>258.0</ele><time>2026-03-28T11:39:48Z</time></trkpt><trkpt lat="46.19604264951509" lon="5.295316797558701"><ele>258.0</ele><time>2026-03-28T11:39:49Z</time></trkpt><trkpt lat="46.195768791207094" lon="5.295320197381089"><ele>258.0</ele><time>2026-03-28T11:39:50Z</time></trkpt><trkpt lat="46.19549152341652" lon="5.295327831406993"><ele>258.0</ele><time>2026-03-28T11:39:51Z</time></trkpt><trkpt lat="46.19521863295406" lon="5.29533314422291"><ele>258.0</ele><time>2026-03-28T11:39:52Z</time></trkpt><trkpt lat="46.19494398922618" lon="5.295347963853371"><ele>258.0</ele><time>2026-03-28T11:39:53Z</time></trkpt><trkpt lat="46.19467025453864" lon="5.295365390544597"><ele>258.0</ele><time>2026-03-28T11:39:54Z</time></trkpt><trkpt lat="46.194395999102014" lon="5.295383788343369"><ele>258.0</ele><time>2026-03-28T11:39:55Z</time></trkpt><trkpt lat="46.19412469293789" lon="5.295405470053088"><ele>258.0</ele><time>2026-03-28T11:39:56Z</time></trkpt><trkpt lat="46.19385279069135" lon="5.295429992997923"><ele>258.5</ele><time>2026-03-28T11:39:57Z</time></trkpt><trkpt lat="46.19357996294142" lon="5.2954542977855885"><ele>259.0</ele><time>2026-03-28T11:39:58Z</time></trkpt><trkpt lat="46.19330885756506" lon="5.29548615988685"><ele>259.0</ele><time>2026-03-28T11:39:59Z</time></trkpt><trkpt lat="46.19303642990025" lon="5.295517938435268"><ele>259.0</ele><time>2026-03-28T11:40:00Z</time></trkpt><trkpt lat="46.19276458108762" lon="5.295555945015748"><ele>258.5</ele><time>2026-03-28T11:40:01Z</time></trkpt><trkpt lat="46.19249191023637" lon="5.295600753855806"><ele>258.0</ele><time>2026-03-28T11:40:02Z</time></trkpt><trkpt lat="46.19222004687834" lon="5.295647918907513"><ele>257.0</ele><time>2026-03-28T11:40:03Z</time></trkpt><trkpt lat="46.19195370163538" lon="5.295708084585925"><ele>256.0</ele><time>2026-03-28T11:40:04Z</time></trkpt><trkpt lat="46.19168698147941" lon="5.295768042601339"><ele>256.0</ele><time>2026-03-28T11:40:05Z</time></trkpt><trkpt lat="46.191422136502" lon="5.295835609639552"><ele>256.0</ele><time>2026-03-28T11:40:06Z</time></trkpt><trkpt lat="46.19115424110299" lon="5.295913518000884"><ele>256.0</ele><time>2026-03-28T11:40:07Z</time></trkpt><trkpt lat="46.190890516534274" lon="5.2959933145369105"><ele>256.0</ele><time>2026-03-28T11:40:08Z</time></trkpt><trkpt lat="46.19062732838146" lon="5.2960776595351895"><ele>256.5</ele><time>2026-03-28T11:40:09Z</time></trkpt><trkpt lat="46.19036516245176" lon="5.296168430859092"><ele>257.0</ele><time>2026-03-28T11:40:10Z</time></trkpt><trkpt lat="46.19010630845409" lon="5.29626374054251"><ele>257.0</ele><time>2026-03-28T11:40:11Z</time></trkpt><trkpt lat="46.18984626144479" lon="5.296365168099702"><ele>257.0</ele><time>2026-03-28T11:40:12Z</time></trkpt><trkpt lat="46.189590046628815" lon="5.296474903664926"><ele>256.0</ele><time>2026-03-28T11:40:13Z</time></trkpt><trkpt lat="46.18933871714735" lon="5.29659346400247"><ele>255.0</ele><time>2026-03-28T11:40:14Z</time></trkpt><trkpt lat="46.18908588322203" lon="5.296712806702132"><ele>255.5</ele><time>2026-03-28T11:40:15Z</time></trkpt><trkpt lat="46.18883594862907" lon="5.296837669723963"><ele>256.0</ele><time>2026-03-28T11:40:16Z</time></trkpt><trkpt lat="46.188583500047784" lon="5.296960747708955"><ele>256.0</ele><time>2026-03-28T11:40:17Z</time></trkpt><trkpt lat="46.18833313489421" lon="5.297091795190912"><ele>256.0</ele><time>2026-03-28T11:40:18Z</time></trkpt><trkpt lat="46.18807907821501" lon="5.297231295467981"><ele>256.0</ele><time>2026-03-28T11:40:19Z</time></trkpt><trkpt lat="46.187829023383195" lon="5.297376337882135"><ele>256.0</ele><time>2026-03-28T11:40:20Z</time></trkpt><trkpt lat="46.1875816014557" lon="5.297531245122511"><ele>257.0</ele><time>2026-03-28T11:40:21Z</time></trkpt><trkpt lat="46.18733139972485" lon="5.2976908548465635"><ele>258.0</ele><time>2026-03-28T11:40:22Z</time></trkpt><trkpt lat="46.187084406913264" lon="5.29785185856604"><ele>258.0</ele><time>2026-03-28T11:40:23Z</time></trkpt><trkpt lat="46.18683885779229" lon="5.298015097336581"><ele>258.0</ele><time>2026-03-28T11:40:24Z</time></trkpt><trkpt lat="46.18659621705539" lon="5.298182498604607"><ele>257.5</ele><time>2026-03-28T11:40:25Z</time></trkpt><trkpt lat="46.18635352748473" lon="5.298356050718142"><ele>257.0</ele><time>2026-03-28T11:40:26Z</time></trkpt><trkpt lat="46.18611135233795" lon="5.298528576288503"><ele>257.0</ele><time>2026-03-28T11:40:27Z</time></trkpt><trkpt lat="46.185868372349816" lon="5.2987023651339635"><ele>257.0</ele><time>2026-03-28T11:40:28Z</time></trkpt><trkpt lat="46.185626493393215" lon="5.298881937728341"><ele>255.5</ele><time>2026-03-28T11:40:29Z</time></trkpt><trkpt lat="46.185379192840465" lon="5.299059788367618"><ele>254.0</ele><time>2026-03-28T11:40:30Z</time></trkpt><trkpt lat="46.18513637142601" lon="5.299240389443364"><ele>254.0</ele><time>2026-03-28T11:40:31Z</time></trkpt><trkpt lat="46.18489331966436" lon="5.299419348042052"><ele>254.0</ele><time>2026-03-28T11:40:32Z</time></trkpt><trkpt lat="46.184651562083246" lon="5.29960123774443"><ele>250.5</ele><time>2026-03-28T11:40:33Z</time></trkpt><trkpt lat="46.184407137296716" lon="5.299781582542502"><ele>247.0</ele><time>2026-03-28T11:40:34Z</time></trkpt><trkpt lat="46.1841623579606" lon="5.299960341465333"><ele>245.5</ele><time>2026-03-28T11:40:35Z</time></trkpt><trkpt lat="46.18391326269789" lon="5.30013655109239"><ele>244.0</ele><time>2026-03-28T11:40:36Z</time></trkpt><trkpt lat="46.18367002624753" lon="5.300318237441274"><ele>244.0</ele><time>2026-03-28T11:40:37Z</time></trkpt><trkpt lat="46.18342179692984" lon="5.300496922867113"><ele>244.0</ele><time>2026-03-28T11:40:38Z</time></trkpt><trkpt lat="46.1831736812577" lon="5.3006717633571805"><ele>244.0</ele><time>2026-03-28T11:40:39Z</time></trkpt><trkpt lat="46.18292822792592" lon="5.300850952637067"><ele>244.0</ele><time>2026-03-28T11:40:40Z</time></trkpt><trkpt lat="46.182677870501436" lon="5.301019717567325"><ele>244.0</ele><time>2026-03-28T11:40:41Z</time></trkpt><trkpt lat="46.182425442484295" lon="5.301189127119998"><ele>244.0</ele><time>2026-03-28T11:40:42Z</time></trkpt><trkpt lat="46.18217317535445" lon="5.301355799463147"><ele>243.0</ele><time>2026-03-28T11:40:43Z</time></trkpt><trkpt lat="46.18191934045332" lon="5.301522667563579"><ele>242.0</ele><time>2026-03-28T11:40:44Z</time></trkpt><trkpt lat="46.181667003771544" lon="5.301682797726966"><ele>243.0</ele><time>2026-03-28T11:40:45Z</time></trkpt><trkpt lat="46.18141515730635" lon="5.301838812842346"><ele>244.0</ele><time>2026-03-28T11:40:46Z</time></trkpt><trkpt lat="46.181162441165846" lon="5.3019895790702245"><ele>244.0</ele><time>2026-03-28T11:40:47Z</time></trkpt><trkpt lat="46.18090396882848" lon="5.302124357964462"><ele>244.0</ele><time>2026-03-28T11:40:48Z</time></trkpt><trkpt lat="46.1806451762178" lon="5.302262855030065"><ele>245.5</ele><time>2026-03-28T11:40:49Z</time></trkpt><trkpt lat="46.18038652994843" lon="5.302396095479055"><ele>247.0</ele><time>2026-03-28T11:40:50Z</time></trkpt><trkpt lat="46.18012957696002" lon="5.302518812278909"><ele>247.0</ele><time>2026-03-28T11:40:51Z</time></trkpt><trkpt lat="46.17987007172696" lon="5.302635164971587"><ele>247.0</ele><time>2026-03-28T11:40:52Z</time></trkpt><trkpt lat="46.17960792024676" lon="5.302739845067578"><ele>249.0</ele><time>2026-03-28T11:40:53Z</time></trkpt><trkpt lat="46.17934491208019" lon="5.302836212849492"><ele>251.0</ele><time>2026-03-28T11:40:54Z</time></trkpt><trkpt lat="46.1790829863709" lon="5.302922465361252"><ele>252.0</ele><time>2026-03-28T11:40:55Z</time></trkpt><trkpt lat="46.17881952660268" lon="5.303003070166593"><ele>253.0</ele><time>2026-03-28T11:40:56Z</time></trkpt><trkpt lat="46.178552863567525" lon="5.303074978653453"><ele>251.0</ele><time>2026-03-28T11:40:57Z</time></trkpt><trkpt lat="46.17828572763253" lon="5.303150089860668"><ele>249.0</ele><time>2026-03-28T11:40:58Z</time></trkpt><trkpt lat="46.178020374709014" lon="5.303224320950244"><ele>249.0</ele><time>2026-03-28T11:40:59Z</time></trkpt><trkpt lat="46.17775380271996" lon="5.303293809376936"><ele>249.0</ele><time>2026-03-28T11:41:00Z</time></trkpt><trkpt lat="46.17748664173066" lon="5.303354839511231"><ele>249.5</ele><time>2026-03-28T11:41:01Z</time></trkpt><trkpt lat="46.177219035593374" lon="5.30340087908084"><ele>250.0</ele><time>2026-03-28T11:41:02Z</time></trkpt><trkpt lat="46.17695056090506" lon="5.303446513866724"><ele>250.0</ele><time>2026-03-28T11:41:03Z</time></trkpt><trkpt lat="46.17667914101644" lon="5.303479074928351"><ele>250.0</ele><time>2026-03-28T11:41:04Z</time></trkpt><trkpt lat="46.17640940895909" lon="5.303506955579197"><ele>250.5</ele><time>2026-03-28T11:41:05Z</time></trkpt><trkpt lat="46.17613633644104" lon="5.303533234887119"><ele>251.0</ele><time>2026-03-28T11:41:06Z</time></trkpt><trkpt lat="46.17586260829141" lon="5.3035480345896024"><ele>250.5</ele><time>2026-03-28T11:41:07Z</time></trkpt><trkpt lat="46.17559304005247" lon="5.303554210840773"><ele>250.0</ele><time>2026-03-28T11:41:08Z</time></trkpt><trkpt lat="46.17532162210637" lon="5.303557503095483"><ele>250.0</ele><time>2026-03-28T11:41:09Z</time></trkpt><trkpt lat="46.17504666949706" lon="5.303552508444232"><ele>250.0</ele><time>2026-03-28T11:41:10Z</time></trkpt><trkpt lat="46.17477150924812" lon="5.303539505273867"><ele>250.5</ele><time>2026-03-28T11:41:11Z</time></trkpt><trkpt lat="46.17449870981122" lon="5.303521216582521"><ele>251.0</ele><time>2026-03-28T11:41:12Z</time></trkpt><trkpt lat="46.174224735543845" lon="5.303495639895449"><ele>250.0</ele><time>2026-03-28T11:41:13Z</time></trkpt><trkpt lat="46.1739503564004" lon="5.303463398070024"><ele>249.0</ele><time>2026-03-28T11:41:14Z</time></trkpt><trkpt lat="46.173676034498925" lon="5.3034242368694375"><ele>249.0</ele><time>2026-03-28T11:41:15Z</time></trkpt><trkpt lat="46.17340143751864" lon="5.303380073400631"><ele>249.0</ele><time>2026-03-28T11:41:16Z</time></trkpt><trkpt lat="46.17312736122452" lon="5.303323826586387"><ele>248.0</ele><time>2026-03-28T11:41:17Z</time></trkpt><trkpt lat="46.172854028035815" lon="5.303256898934414"><ele>247.0</ele><time>2026-03-28T11:41:18Z</time></trkpt><trkpt lat="46.17258414714784" lon="5.303188755882592"><ele>248.0</ele><time>2026-03-28T11:41:19Z</time></trkpt><trkpt lat="46.172310678969474" lon="5.303114654997626"><ele>249.0</ele><time>2026-03-28T11:41:20Z</time></trkpt><trkpt lat="46.172036804716754" lon="5.303036296071148"><ele>250.5</ele><time>2026-03-28T11:41:21Z</time></trkpt><trkpt lat="46.17176362339522" lon="5.302947807977992"><ele>252.0</ele><time>2026-03-28T11:41:22Z</time></trkpt><trkpt lat="46.17149493827399" lon="5.302856836363144"><ele>252.0</ele><time>2026-03-28T11:41:23Z</time></trkpt><trkpt lat="46.171226184725114" lon="5.302755794643698"><ele>252.0</ele><time>2026-03-28T11:41:24Z</time></trkpt><trkpt lat="46.170960981794934" lon="5.302651411127616"><ele>252.0</ele><time>2026-03-28T11:41:25Z</time></trkpt><trkpt lat="46.17069477318992" lon="5.302540717255361"><ele>252.0</ele><time>2026-03-28T11:41:26Z</time></trkpt><trkpt lat="46.170431462105334" lon="5.302426307457558"><ele>250.5</ele><time>2026-03-28T11:41:27Z</time></trkpt><trkpt lat="46.170168260572126" lon="5.30230393987106"><ele>249.0</ele><time>2026-03-28T11:41:28Z</time></trkpt><trkpt lat="46.16990829284228" lon="5.302178848787712"><ele>248.0</ele><time>2026-03-28T11:41:29Z</time></trkpt><trkpt lat="46.16964988335011" lon="5.3020473199947356"><ele>247.0</ele><time>2026-03-28T11:41:30Z</time></trkpt><trkpt lat="46.16938992045794" lon="5.301910611571489"><ele>247.0</ele><time>2026-03-28T11:41:31Z</time></trkpt><trkpt lat="46.169132266310875" lon="5.301771859546673"><ele>247.0</ele><time>2026-03-28T11:41:32Z</time></trkpt><trkpt lat="46.16887526808157" lon="5.301627897751819"><ele>245.5</ele><time>2026-03-28T11:41:33Z</time></trkpt><trkpt lat="46.168620098112605" lon="5.3014808675115175"><ele>244.0</ele><time>2026-03-28T11:41:34Z</time></trkpt><trkpt lat="46.168370315330684" lon="5.3013322792608895"><ele>243.5</ele><time>2026-03-28T11:41:35Z</time></trkpt><trkpt lat="46.16811773855967" lon="5.301181550809355"><ele>243.0</ele><time>2026-03-28T11:41:36Z</time></trkpt><trkpt lat="46.16786700195745" lon="5.301034556754165"><ele>243.0</ele><time>2026-03-28T11:41:37Z</time></trkpt><trkpt lat="46.16761615323056" lon="5.300883603919567"><ele>243.0</ele><time>2026-03-28T11:41:38Z</time></trkpt><trkpt lat="46.16736483206748" lon="5.300730181990899"><ele>242.5</ele><time>2026-03-28T11:41:39Z</time></trkpt><trkpt lat="46.1671151648153" lon="5.300578279692135"><ele>242.0</ele><time>2026-03-28T11:41:40Z</time></trkpt><trkpt lat="46.166865228126575" lon="5.300423555821319"><ele>242.0</ele><time>2026-03-28T11:41:41Z</time></trkpt><trkpt lat="46.166617251612244" lon="5.300261354095868"><ele>242.0</ele><time>2026-03-28T11:41:42Z</time></trkpt><trkpt lat="46.16636941433354" lon="5.300103826830529"><ele>243.5</ele><time>2026-03-28T11:41:43Z</time></trkpt><trkpt lat="46.16612176874406" lon="5.299947821434448"><ele>245.0</ele><time>2026-03-28T11:41:44Z</time></trkpt><trkpt lat="46.1658756669002" lon="5.299798582809405"><ele>245.5</ele><time>2026-03-28T11:41:45Z</time></trkpt><trkpt lat="46.165631038106945" lon="5.2996429343858384"><ele>246.0</ele><time>2026-03-28T11:41:46Z</time></trkpt><trkpt lat="46.16538156349169" lon="5.299487944194036"><ele>246.0</ele><time>2026-03-28T11:41:47Z</time></trkpt><trkpt lat="46.165136526155294" lon="5.299331599427429"><ele>246.0</ele><time>2026-03-28T11:41:48Z</time></trkpt><trkpt lat="46.164893597171165" lon="5.299177832107736"><ele>246.0</ele><time>2026-03-28T11:41:49Z</time></trkpt><trkpt lat="46.164645854027285" lon="5.29902502405152"><ele>246.0</ele><time>2026-03-28T11:41:50Z</time></trkpt><trkpt lat="46.164397072163965" lon="5.298871905143246"><ele>246.0</ele><time>2026-03-28T11:41:51Z</time></trkpt><trkpt lat="46.16415011392364" lon="5.298720863479031"><ele>246.0</ele><time>2026-03-28T11:41:52Z</time></trkpt><trkpt lat="46.16390292133762" lon="5.2985686227364495"><ele>246.5</ele><time>2026-03-28T11:41:53Z</time></trkpt><trkpt lat="46.16365717764333" lon="5.2984175625674546"><ele>247.0</ele><time>2026-03-28T11:41:54Z</time></trkpt><trkpt lat="46.16341017092131" lon="5.298267225017934"><ele>247.5</ele><time>2026-03-28T11:41:55Z</time></trkpt><trkpt lat="46.16316164246544" lon="5.298123633071686"><ele>248.0</ele><time>2026-03-28T11:41:56Z</time></trkpt><trkpt lat="46.16291130086526" lon="5.297978410448163"><ele>246.0</ele><time>2026-03-28T11:41:57Z</time></trkpt><trkpt lat="46.16265716239686" lon="5.297830801614495"><ele>244.0</ele><time>2026-03-28T11:41:58Z</time></trkpt><trkpt lat="46.1624072190174" lon="5.297681744943159"><ele>244.0</ele><time>2026-03-28T11:41:59Z</time></trkpt><trkpt lat="46.162156034540736" lon="5.297537032849351"><ele>244.0</ele><time>2026-03-28T11:42:00Z</time></trkpt><trkpt lat="46.16190288159172" lon="5.297392293765803"><ele>245.5</ele><time>2026-03-28T11:42:01Z</time></trkpt><trkpt lat="46.161652547405424" lon="5.2972492460534175"><ele>247.0</ele><time>2026-03-28T11:42:02Z</time></trkpt><trkpt lat="46.1613973674557" lon="5.297109190276676"><ele>247.0</ele><time>2026-03-28T11:42:03Z</time></trkpt><trkpt lat="46.16114365441979" lon="5.296970020499759"><ele>247.0</ele><time>2026-03-28T11:42:04Z</time></trkpt><trkpt lat="46.16088940537364" lon="5.296833538609369"><ele>247.0</ele><time>2026-03-28T11:42:05Z</time></trkpt><trkpt lat="46.16063414880692" lon="5.296695673120717"><ele>247.0</ele><time>2026-03-28T11:42:06Z</time></trkpt><trkpt lat="46.160381423832305" lon="5.296564376682946"><ele>247.0</ele><time>2026-03-28T11:42:07Z</time></trkpt><trkpt lat="46.16012814538531" lon="5.296432044130111"><ele>247.0</ele><time>2026-03-28T11:42:08Z</time></trkpt><trkpt lat="46.15987245987571" lon="5.296304550489547"><ele>247.5</ele><time>2026-03-28T11:42:09Z</time></trkpt><trkpt lat="46.15961604564051" lon="5.296181543022055"><ele>248.0</ele><time>2026-03-28T11:42:10Z</time></trkpt><trkpt lat="46.159362627035634" lon="5.296057177582061"><ele>248.0</ele><time>2026-03-28T11:42:11Z</time></trkpt><trkpt lat="46.159104067674775" lon="5.295936090369664"><ele>248.0</ele><time>2026-03-28T11:42:12Z</time></trkpt><trkpt lat="46.158845964769" lon="5.2958148814961055"><ele>248.5</ele><time>2026-03-28T11:42:13Z</time></trkpt><trkpt lat="46.158590845803715" lon="5.295699148465855"><ele>249.0</ele><time>2026-03-28T11:42:14Z</time></trkpt><trkpt lat="46.15833152932672" lon="5.295585252532863"><ele>248.0</ele><time>2026-03-28T11:42:15Z</time></trkpt><trkpt lat="46.15807222586656" lon="5.295474686088482"><ele>247.0</ele><time>2026-03-28T11:42:16Z</time></trkpt><trkpt lat="46.157812399908885" lon="5.295365177106571"><ele>247.0</ele><time>2026-03-28T11:42:17Z</time></trkpt><trkpt lat="46.15755436888411" lon="5.295258767253756"><ele>247.0</ele><time>2026-03-28T11:42:18Z</time></trkpt><trkpt lat="46.157301437270256" lon="5.295158460328938"><ele>247.0</ele><time>2026-03-28T11:42:19Z</time></trkpt><trkpt lat="46.15704359453828" lon="5.295056250022034"><ele>247.0</ele><time>2026-03-28T11:42:20Z</time></trkpt><trkpt lat="46.15678702506077" lon="5.294958919391519"><ele>247.5</ele><time>2026-03-28T11:42:21Z</time></trkpt><trkpt lat="46.15653137891191" lon="5.294856542428961"><ele>248.0</ele><time>2026-03-28T11:42:22Z</time></trkpt><trkpt lat="46.15627126008554" lon="5.294754379244616"><ele>247.0</ele><time>2026-03-28T11:42:23Z</time></trkpt><trkpt lat="46.15601751560393" lon="5.294663484799581"><ele>246.0</ele><time>2026-03-28T11:42:24Z</time></trkpt><trkpt lat="46.15575355230008" lon="5.294566922751126"><ele>246.5</ele><time>2026-03-28T11:42:25Z</time></trkpt><trkpt lat="46.15549231073345" lon="5.294473502538998"><ele>247.0</ele><time>2026-03-28T11:42:26Z</time></trkpt><trkpt lat="46.15523351009497" lon="5.294383316668589"><ele>247.0</ele><time>2026-03-28T11:42:27Z</time></trkpt><trkpt lat="46.154971534245774" lon="5.2942923804571524"><ele>247.0</ele><time>2026-03-28T11:42:28Z</time></trkpt><trkpt lat="46.15471440002435" lon="5.294205307169519"><ele>246.5</ele><time>2026-03-28T11:42:29Z</time></trkpt><trkpt lat="46.15445310103081" lon="5.294119214173134"><ele>246.0</ele><time>2026-03-28T11:42:30Z</time></trkpt><trkpt lat="46.154190343324245" lon="5.294027992865777"><ele>246.0</ele><time>2026-03-28T11:42:31Z</time></trkpt><trkpt lat="46.15393444965479" lon="5.293940049893559"><ele>246.0</ele><time>2026-03-28T11:42:32Z</time></trkpt><trkpt lat="46.153669177261534" lon="5.293852291015772"><ele>246.0</ele><time>2026-03-28T11:42:33Z</time></trkpt><trkpt lat="46.15340551480514" lon="5.293768096523007"><ele>246.0</ele><time>2026-03-28T11:42:34Z</time></trkpt><trkpt lat="46.15314362469093" lon="5.293686060397785"><ele>246.5</ele><time>2026-03-28T11:42:35Z</time></trkpt><trkpt lat="46.15287675178787" lon="5.29360306489828"><ele>247.0</ele><time>2026-03-28T11:42:36Z</time></trkpt><trkpt lat="46.15261411400495" lon="5.2935163428609675"><ele>248.0</ele><time>2026-03-28T11:42:37Z</time></trkpt><trkpt lat="46.152350249526975" lon="5.29343761102882"><ele>249.0</ele><time>2026-03-28T11:42:38Z</time></trkpt><trkpt lat="46.152083782756044" lon="5.293356106740667"><ele>249.0</ele><time>2026-03-28T11:42:39Z</time></trkpt><trkpt lat="46.15181960951724" lon="5.293275526460597"><ele>249.0</ele><time>2026-03-28T11:42:40Z</time></trkpt><trkpt lat="46.15155616057272" lon="5.293193391599049"><ele>249.0</ele><time>2026-03-28T11:42:41Z</time></trkpt><trkpt lat="46.15129680190004" lon="5.293109551954804"><ele>249.0</ele><time>2026-03-28T11:42:42Z</time></trkpt><trkpt lat="46.151036006778355" lon="5.293030416660575"><ele>249.0</ele><time>2026-03-28T11:42:43Z</time></trkpt><trkpt lat="46.150776070549945" lon="5.292950491972364"><ele>249.0</ele><time>2026-03-28T11:42:44Z</time></trkpt><trkpt lat="46.150514738000545" lon="5.292865762623407"><ele>250.5</ele><time>2026-03-28T11:42:45Z</time></trkpt><trkpt lat="46.15025048018505" lon="5.292781658511409"><ele>252.0</ele><time>2026-03-28T11:42:46Z</time></trkpt><trkpt lat="46.14999362764654" lon="5.292690819096653"><ele>251.5</ele><time>2026-03-28T11:42:47Z</time></trkpt><trkpt lat="46.14973396996769" lon="5.292601856368189"><ele>251.0</ele><time>2026-03-28T11:42:48Z</time></trkpt><trkpt lat="46.14947261546582" lon="5.292509651828841"><ele>251.0</ele><time>2026-03-28T11:42:49Z</time></trkpt><trkpt lat="46.14921035254276" lon="5.292421166356703"><ele>251.0</ele><time>2026-03-28T11:42:50Z</time></trkpt><trkpt lat="46.148945023235946" lon="5.292324450278429"><ele>251.5</ele><time>2026-03-28T11:42:51Z</time></trkpt><trkpt lat="46.148675805922046" lon="5.292231755794456"><ele>252.0</ele><time>2026-03-28T11:42:52Z</time></trkpt><trkpt lat="46.14840758071367" lon="5.2921365209968885"><ele>251.0</ele><time>2026-03-28T11:42:53Z</time></trkpt><trkpt lat="46.148140638238644" lon="5.292040211162779"><ele>250.0</ele><time>2026-03-28T11:42:54Z</time></trkpt><trkpt lat="46.14787498630074" lon="5.291941083245793"><ele>250.0</ele><time>2026-03-28T11:42:55Z</time></trkpt><trkpt lat="46.14761084904422" lon="5.291839649853035"><ele>250.0</ele><time>2026-03-28T11:42:56Z</time></trkpt><trkpt lat="46.14734928385958" lon="5.291741743641924"><ele>250.5</ele><time>2026-03-28T11:42:57Z</time></trkpt><trkpt lat="46.14708810335613" lon="5.2916398689155075"><ele>251.0</ele><time>2026-03-28T11:42:58Z</time></trkpt><trkpt lat="46.14682613991567" lon="5.291540468543308"><ele>251.0</ele><time>2026-03-28T11:42:59Z</time></trkpt><trkpt lat="46.146565562445716" lon="5.29143851524816"><ele>251.0</ele><time>2026-03-28T11:43:00Z</time></trkpt><trkpt lat="46.146304427738585" lon="5.291336931765389"><ele>250.5</ele><time>2026-03-28T11:43:01Z</time></trkpt><trkpt lat="46.14604261785056" lon="5.2912334595832835"><ele>250.0</ele><time>2026-03-28T11:43:02Z</time></trkpt><trkpt lat="46.14578161385711" lon="5.29113140532889"><ele>250.5</ele><time>2026-03-28T11:43:03Z</time></trkpt><trkpt lat="46.14551811362828" lon="5.291026825459836"><ele>251.0</ele><time>2026-03-28T11:43:04Z</time></trkpt><trkpt lat="46.145258831110745" lon="5.290921869913774"><ele>251.0</ele><time>2026-03-28T11:43:05Z</time></trkpt><trkpt lat="46.14499594133483" lon="5.29081337025947"><ele>251.0</ele><time>2026-03-28T11:43:06Z</time></trkpt><trkpt lat="46.144733547744146" lon="5.290701838121862"><ele>251.0</ele><time>2026-03-28T11:43:07Z</time></trkpt><trkpt lat="46.14447250534193" lon="5.290594444459909"><ele>251.0</ele><time>2026-03-28T11:43:08Z</time></trkpt><trkpt lat="46.14421159451278" lon="5.2904852385163235"><ele>250.5</ele><time>2026-03-28T11:43:09Z</time></trkpt><trkpt lat="46.14395138714298" lon="5.290371622477379"><ele>250.0</ele><time>2026-03-28T11:43:10Z</time></trkpt><trkpt lat="46.1436917031285" lon="5.290254022249511"><ele>250.0</ele><time>2026-03-28T11:43:11Z</time></trkpt><trkpt lat="46.14343373386295" lon="5.290138980209728"><ele>250.0</ele><time>2026-03-28T11:43:12Z</time></trkpt><trkpt lat="46.143171822669366" lon="5.290017559283277"><ele>250.0</ele><time>2026-03-28T11:43:13Z</time></trkpt><trkpt lat="46.14291252620031" lon="5.2899002070210335"><ele>250.0</ele><time>2026-03-28T11:43:14Z</time></trkpt><trkpt lat="46.142655210456674" lon="5.289782134344329"><ele>250.0</ele><time>2026-03-28T11:43:15Z</time></trkpt><trkpt lat="46.14239984536557" lon="5.289669080015739"><ele>250.0</ele><time>2026-03-28T11:43:16Z</time></trkpt><trkpt lat="46.14213917553156" lon="5.289551107445358"><ele>250.0</ele><time>2026-03-28T11:43:17Z</time></trkpt><trkpt lat="46.14188131582016" lon="5.289431382313864"><ele>250.0</ele><time>2026-03-28T11:43:18Z</time></trkpt><trkpt lat="46.14162364959976" lon="5.289308925471682"><ele>251.0</ele><time>2026-03-28T11:43:19Z</time></trkpt><trkpt lat="46.14136793577155" lon="5.28919033050718"><ele>252.0</ele><time>2026-03-28T11:43:20Z</time></trkpt><trkpt lat="46.141107705176836" lon="5.289062020156758"><ele>252.0</ele><time>2026-03-28T11:43:21Z</time></trkpt><trkpt lat="46.14085235646612" lon="5.288939559614366"><ele>252.0</ele><time>2026-03-28T11:43:22Z</time></trkpt><trkpt lat="46.140597173366395" lon="5.288812023760614"><ele>252.0</ele><time>2026-03-28T11:43:23Z</time></trkpt><trkpt lat="46.14033952488701" lon="5.288684343001845"><ele>252.0</ele><time>2026-03-28T11:43:24Z</time></trkpt><trkpt lat="46.14007835528722" lon="5.288551800810338"><ele>251.5</ele><time>2026-03-28T11:43:25Z</time></trkpt><trkpt lat="46.139815794784774" lon="5.288418852466713"><ele>251.0</ele><time>2026-03-28T11:43:26Z</time></trkpt><trkpt lat="46.13955500151128" lon="5.288286821193039"><ele>251.0</ele><time>2026-03-28T11:43:27Z</time></trkpt><trkpt lat="46.13930338763818" lon="5.2881536728327365"><ele>251.0</ele><time>2026-03-28T11:43:28Z</time></trkpt><trkpt lat="46.13905140780454" lon="5.2880244651104364"><ele>252.0</ele><time>2026-03-28T11:43:29Z</time></trkpt><trkpt lat="46.13879994686714" lon="5.287886856124409"><ele>253.0</ele><time>2026-03-28T11:43:30Z</time></trkpt><trkpt lat="46.13854286214243" lon="5.287751219826111"><ele>253.0</ele><time>2026-03-28T11:43:31Z</time></trkpt><trkpt lat="46.1382867174521" lon="5.28761257864149"><ele>253.0</ele><time>2026-03-28T11:43:32Z</time></trkpt><trkpt lat="46.13803302816842" lon="5.287473268603727"><ele>253.5</ele><time>2026-03-28T11:43:33Z</time></trkpt><trkpt lat="46.13777857078737" lon="5.287331823429501"><ele>254.0</ele><time>2026-03-28T11:43:34Z</time></trkpt><trkpt lat="46.13752354994291" lon="5.28719363508496"><ele>254.0</ele><time>2026-03-28T11:43:35Z</time></trkpt><trkpt lat="46.13727041823348" lon="5.287051663620272"><ele>254.0</ele><time>2026-03-28T11:43:36Z</time></trkpt><trkpt lat="46.13701773225548" lon="5.28691010043333"><ele>254.0</ele><time>2026-03-28T11:43:37Z</time></trkpt><trkpt lat="46.13676669992715" lon="5.286762870488396"><ele>254.0</ele><time>2026-03-28T11:43:38Z</time></trkpt><trkpt lat="46.13651191235755" lon="5.286618591443929"><ele>253.5</ele><time>2026-03-28T11:43:39Z</time></trkpt><trkpt lat="46.136258617944556" lon="5.286475002874316"><ele>253.0</ele><time>2026-03-28T11:43:40Z</time></trkpt><trkpt lat="46.13600597592742" lon="5.286324736549773"><ele>253.0</ele><time>2026-03-28T11:43:41Z</time></trkpt><trkpt lat="46.135752842336125" lon="5.286180881160818"><ele>253.0</ele><time>2026-03-28T11:43:42Z</time></trkpt><trkpt lat="46.13550056089307" lon="5.2860282231348865"><ele>253.0</ele><time>2026-03-28T11:43:43Z</time></trkpt><trkpt lat="46.1352485412128" lon="5.285882007834124"><ele>253.0</ele><time>2026-03-28T11:43:44Z</time></trkpt><trkpt lat="46.13499660451734" lon="5.285725227371743"><ele>252.5</ele><time>2026-03-28T11:43:45Z</time></trkpt><trkpt lat="46.13474271541914" lon="5.285571125960844"><ele>252.0</ele><time>2026-03-28T11:43:46Z</time></trkpt><trkpt lat="46.13449154363559" lon="5.285410463696338"><ele>252.0</ele><time>2026-03-28T11:43:47Z</time></trkpt><trkpt lat="46.13423672404274" lon="5.2852473321553015"><ele>252.0</ele><time>2026-03-28T11:43:48Z</time></trkpt><trkpt lat="46.13398337568834" lon="5.285080424949782"><ele>251.5</ele><time>2026-03-28T11:43:49Z</time></trkpt><trkpt lat="46.13373101278583" lon="5.284925431581944"><ele>251.0</ele><time>2026-03-28T11:43:50Z</time></trkpt><trkpt lat="46.133480012294854" lon="5.284764132832491"><ele>251.0</ele><time>2026-03-28T11:43:51Z</time></trkpt><trkpt lat="46.13322498487716" lon="5.284605533660565"><ele>251.0</ele><time>2026-03-28T11:43:52Z</time></trkpt><trkpt lat="46.13297036204112" lon="5.284453116281572"><ele>251.0</ele><time>2026-03-28T11:43:53Z</time></trkpt><trkpt lat="46.13271556026475" lon="5.284301522208566"><ele>251.0</ele><time>2026-03-28T11:43:54Z</time></trkpt><trkpt lat="46.13246123970061" lon="5.2841523473898935"><ele>251.0</ele><time>2026-03-28T11:43:55Z</time></trkpt><trkpt lat="46.132202450875006" lon="5.2840071173413135"><ele>251.0</ele><time>2026-03-28T11:43:56Z</time></trkpt><trkpt lat="46.13194560375677" lon="5.283866427987402"><ele>251.0</ele><time>2026-03-28T11:43:57Z</time></trkpt><trkpt lat="46.13168517388029" lon="5.283731748873934"><ele>251.0</ele><time>2026-03-28T11:43:58Z</time></trkpt><trkpt lat="46.13142589581178" lon="5.283601736075553"><ele>251.0</ele><time>2026-03-28T11:43:59Z</time></trkpt><trkpt lat="46.131164793170925" lon="5.2834791585250045"><ele>251.0</ele><time>2026-03-28T11:44:00Z</time></trkpt><trkpt lat="46.1309039621364" lon="5.283364599356118"><ele>250.5</ele><time>2026-03-28T11:44:01Z</time></trkpt><trkpt lat="46.13063660087652" lon="5.283257533254676"><ele>250.0</ele><time>2026-03-28T11:44:02Z</time></trkpt><trkpt lat="46.13036918462325" lon="5.2831579168450356"><ele>250.5</ele><time>2026-03-28T11:44:03Z</time></trkpt><trkpt lat="46.130101254283936" lon="5.28306841330731"><ele>251.0</ele><time>2026-03-28T11:44:04Z</time></trkpt><trkpt lat="46.12983090092456" lon="5.2829889686970315"><ele>249.5</ele><time>2026-03-28T11:44:05Z</time></trkpt><trkpt lat="46.12956200443936" lon="5.282919163195585"><ele>248.0</ele><time>2026-03-28T11:44:06Z</time></trkpt><trkpt lat="46.129290722117325" lon="5.282854840427665"><ele>249.0</ele><time>2026-03-28T11:44:07Z</time></trkpt><trkpt lat="46.12901849489067" lon="5.282797488793533"><ele>250.0</ele><time>2026-03-28T11:44:08Z</time></trkpt><trkpt lat="46.12874406453018" lon="5.282751040702129"><ele>250.0</ele><time>2026-03-28T11:44:09Z</time></trkpt><trkpt lat="46.128469959793854" lon="5.2827136940574295"><ele>250.0</ele><time>2026-03-28T11:44:10Z</time></trkpt><trkpt lat="46.1281947315275" lon="5.282685475453185"><ele>250.5</ele><time>2026-03-28T11:44:11Z</time></trkpt><trkpt lat="46.12791923656386" lon="5.282663741724206"><ele>251.0</ele><time>2026-03-28T11:44:12Z</time></trkpt><trkpt lat="46.127642829250846" lon="5.282647087567057"><ele>251.0</ele><time>2026-03-28T11:44:13Z</time></trkpt><trkpt lat="46.127366426224725" lon="5.282641033398937"><ele>251.0</ele><time>2026-03-28T11:44:14Z</time></trkpt><trkpt lat="46.12709178932353" lon="5.282645050992541"><ele>251.0</ele><time>2026-03-28T11:44:15Z</time></trkpt><trkpt lat="46.12681608566577" lon="5.282661105871744"><ele>251.0</ele><time>2026-03-28T11:44:16Z</time></trkpt><trkpt lat="46.12654031396081" lon="5.282683118348729"><ele>250.0</ele><time>2026-03-28T11:44:17Z</time></trkpt><trkpt lat="46.12626510264265" lon="5.282713656312719"><ele>249.0</ele><time>2026-03-28T11:44:18Z</time></trkpt><trkpt lat="46.12599012498657" lon="5.282752089216588"><ele>248.5</ele><time>2026-03-28T11:44:19Z</time></trkpt><trkpt lat="46.1257173792473" lon="5.282797722524481"><ele>248.0</ele><time>2026-03-28T11:44:20Z</time></trkpt><trkpt lat="46.12544487040466" lon="5.28285118721686"><ele>248.0</ele><time>2026-03-28T11:44:21Z</time></trkpt><trkpt lat="46.12517151408904" lon="5.282914656053906"><ele>248.0</ele><time>2026-03-28T11:44:22Z</time></trkpt><trkpt lat="46.12490181216324" lon="5.282988373985318"><ele>248.5</ele><time>2026-03-28T11:44:23Z</time></trkpt><trkpt lat="46.12463009548767" lon="5.283071779592232"><ele>249.0</ele><time>2026-03-28T11:44:24Z</time></trkpt><trkpt lat="46.12436217201825" lon="5.283161995760993"><ele>249.0</ele><time>2026-03-28T11:44:25Z</time></trkpt><trkpt lat="46.12409463517972" lon="5.283264594615128"><ele>249.0</ele><time>2026-03-28T11:44:26Z</time></trkpt><trkpt lat="46.1238276503855" lon="5.28337534080159"><ele>251.0</ele><time>2026-03-28T11:44:27Z</time></trkpt><trkpt lat="46.12356351375661" lon="5.283493266157994"><ele>253.0</ele><time>2026-03-28T11:44:28Z</time></trkpt><trkpt lat="46.1232978566281" lon="5.283627014679481"><ele>253.0</ele><time>2026-03-28T11:44:29Z</time></trkpt><trkpt lat="46.12303939741803" lon="5.283769385127617"><ele>253.0</ele><time>2026-03-28T11:44:30Z</time></trkpt><trkpt lat="46.12278652952112" lon="5.283916215121831"><ele>252.0</ele><time>2026-03-28T11:44:31Z</time></trkpt><trkpt lat="46.12253291859378" lon="5.284071307614547"><ele>251.0</ele><time>2026-03-28T11:44:32Z</time></trkpt><trkpt lat="46.122282608874116" lon="5.284231095480235"><ele>251.0</ele><time>2026-03-28T11:44:33Z</time></trkpt><trkpt lat="46.12203642302755" lon="5.284396493829826"><ele>251.0</ele><time>2026-03-28T11:44:34Z</time></trkpt><trkpt lat="46.1217876488646" lon="5.284567052826362"><ele>251.5</ele><time>2026-03-28T11:44:35Z</time></trkpt><trkpt lat="46.121542916789686" lon="5.284744962121279"><ele>252.0</ele><time>2026-03-28T11:44:36Z</time></trkpt><trkpt lat="46.12129792042105" lon="5.284929985459639"><ele>250.0</ele><time>2026-03-28T11:44:37Z</time></trkpt><trkpt lat="46.121058574854054" lon="5.285128119455391"><ele>248.0</ele><time>2026-03-28T11:44:38Z</time></trkpt><trkpt lat="46.120819231814096" lon="5.285330281691385"><ele>248.5</ele><time>2026-03-28T11:44:39Z</time></trkpt><trkpt lat="46.12058197644522" lon="5.285539796436797"><ele>249.0</ele><time>2026-03-28T11:44:40Z</time></trkpt><trkpt lat="46.12034607138666" lon="5.285751728607918"><ele>249.0</ele><time>2026-03-28T11:44:41Z</time></trkpt><trkpt lat="46.12011686729033" lon="5.285972177504068"><ele>249.0</ele><time>2026-03-28T11:44:42Z</time></trkpt><trkpt lat="46.119884979217346" lon="5.286192203791543"><ele>248.5</ele><time>2026-03-28T11:44:43Z</time></trkpt><trkpt lat="46.119655631948916" lon="5.2864137772728625"><ele>248.0</ele><time>2026-03-28T11:44:44Z</time></trkpt><trkpt lat="46.119426950359184" lon="5.286633931962367"><ele>248.0</ele><time>2026-03-28T11:44:45Z</time></trkpt><trkpt lat="46.11919990695156" lon="5.286858512849721"><ele>248.0</ele><time>2026-03-28T11:44:46Z</time></trkpt><trkpt lat="46.1189752151923" lon="5.28708541287424"><ele>248.0</ele><time>2026-03-28T11:44:47Z</time></trkpt><trkpt lat="46.118752078684494" lon="5.287313256978827"><ele>248.0</ele><time>2026-03-28T11:44:48Z</time></trkpt><trkpt lat="46.11852197935401" lon="5.287546562624919"><ele>248.0</ele><time>2026-03-28T11:44:49Z</time></trkpt><trkpt lat="46.11829451819603" lon="5.28777363706176"><ele>248.0</ele><time>2026-03-28T11:44:50Z</time></trkpt><trkpt lat="46.118070927976554" lon="5.28798658621289"><ele>247.0</ele><time>2026-03-28T11:44:51Z</time></trkpt><trkpt lat="46.11784392604327" lon="5.288204731935223"><ele>246.0</ele><time>2026-03-28T11:44:52Z</time></trkpt><trkpt lat="46.117619143960795" lon="5.288416818721012"><ele>247.0</ele><time>2026-03-28T11:44:53Z</time></trkpt><trkpt lat="46.117392587715834" lon="5.2886258526664465"><ele>248.0</ele><time>2026-03-28T11:44:54Z</time></trkpt><trkpt lat="46.11716269097607" lon="5.28884098837993"><ele>246.5</ele><time>2026-03-28T11:44:55Z</time></trkpt><trkpt lat="46.11692987722441" lon="5.28904786403544"><ele>245.0</ele><time>2026-03-28T11:44:56Z</time></trkpt><trkpt lat="46.116697010673256" lon="5.289247008004755"><ele>247.0</ele><time>2026-03-28T11:44:57Z</time></trkpt><trkpt lat="46.11646174118026" lon="5.289441865137372"><ele>249.0</ele><time>2026-03-28T11:44:58Z</time></trkpt><trkpt lat="46.11622464536078" lon="5.2896303471119"><ele>248.5</ele><time>2026-03-28T11:44:59Z</time></trkpt><trkpt lat="46.11598669821932" lon="5.289814798330325"><ele>248.0</ele><time>2026-03-28T11:45:00Z</time></trkpt><trkpt lat="46.11574688426716" lon="5.28999431438535"><ele>250.0</ele><time>2026-03-28T11:45:01Z</time></trkpt><trkpt lat="46.11550168435018" lon="5.290162274170401"><ele>252.0</ele><time>2026-03-28T11:45:02Z</time></trkpt><trkpt lat="46.1152552259208" lon="5.290322835654341"><ele>252.0</ele><time>2026-03-28T11:45:03Z</time></trkpt><trkpt lat="46.11500820133686" lon="5.290474329138713"><ele>252.0</ele><time>2026-03-28T11:45:04Z</time></trkpt><trkpt lat="46.1147579511398" lon="5.290620845630682"><ele>251.5</ele><time>2026-03-28T11:45:05Z</time></trkpt><trkpt lat="46.11450408834115" lon="5.29075696101854"><ele>251.0</ele><time>2026-03-28T11:45:06Z</time></trkpt><trkpt lat="46.11424744075006" lon="5.290886594186929"><ele>251.0</ele><time>2026-03-28T11:45:07Z</time></trkpt><trkpt lat="46.11399018833454" lon="5.291008197716678"><ele>251.0</ele><time>2026-03-28T11:45:08Z</time></trkpt><trkpt lat="46.11373116511631" lon="5.291122873554169"><ele>251.0</ele><time>2026-03-28T11:45:09Z</time></trkpt><trkpt lat="46.1134704173002" lon="5.29122811387187"><ele>251.0</ele><time>2026-03-28T11:45:10Z</time></trkpt><trkpt lat="46.11320681139907" lon="5.291321495849787"><ele>252.0</ele><time>2026-03-28T11:45:11Z</time></trkpt><trkpt lat="46.112943070778684" lon="5.291404448930566"><ele>253.0</ele><time>2026-03-28T11:45:12Z</time></trkpt><trkpt lat="46.11267551966578" lon="5.291471753637971"><ele>252.5</ele><time>2026-03-28T11:45:13Z</time></trkpt><trkpt lat="46.11240513146142" lon="5.291523520031308"><ele>252.0</ele><time>2026-03-28T11:45:14Z</time></trkpt><trkpt lat="46.1121362116037" lon="5.291570668800728"><ele>252.0</ele><time>2026-03-28T11:45:15Z</time></trkpt><trkpt lat="46.11186674995535" lon="5.2916175005268355"><ele>252.0</ele><time>2026-03-28T11:45:16Z</time></trkpt><trkpt lat="46.111597350085816" lon="5.291658600924611"><ele>251.0</ele><time>2026-03-28T11:45:17Z</time></trkpt><trkpt lat="46.11132685278133" lon="5.291690669490788"><ele>250.0</ele><time>2026-03-28T11:45:18Z</time></trkpt><trkpt lat="46.11105441347704" lon="5.291714855033881"><ele>250.0</ele><time>2026-03-28T11:45:19Z</time></trkpt><trkpt lat="46.110782454868705" lon="5.2917296102852225"><ele>250.0</ele><time>2026-03-28T11:45:20Z</time></trkpt><trkpt lat="46.11051141159274" lon="5.291741353464633"><ele>249.5</ele><time>2026-03-28T11:45:21Z</time></trkpt><trkpt lat="46.11023949101865" lon="5.291746678341986"><ele>249.0</ele><time>2026-03-28T11:45:22Z</time></trkpt><trkpt lat="46.109969471543415" lon="5.291744249554744"><ele>250.5</ele><time>2026-03-28T11:45:23Z</time></trkpt><trkpt lat="46.10969937472015" lon="5.29172949609182"><ele>252.0</ele><time>2026-03-28T11:45:24Z</time></trkpt><trkpt lat="46.10942883444785" lon="5.291712907360894"><ele>252.0</ele><time>2026-03-28T11:45:25Z</time></trkpt><trkpt lat="46.10915825288433" lon="5.2916896874635375"><ele>252.0</ele><time>2026-03-28T11:45:26Z</time></trkpt><trkpt lat="46.108889006529985" lon="5.291657973838533"><ele>251.5</ele><time>2026-03-28T11:45:27Z</time></trkpt><trkpt lat="46.10862033323178" lon="5.291617123001447"><ele>251.0</ele><time>2026-03-28T11:45:28Z</time></trkpt><trkpt lat="46.10835056210504" lon="5.291576875425068"><ele>253.5</ele><time>2026-03-28T11:45:29Z</time></trkpt><trkpt lat="46.108080617914396" lon="5.291532014541667"><ele>256.0</ele><time>2026-03-28T11:45:30Z</time></trkpt><trkpt lat="46.10781608056403" lon="5.291480020037292"><ele>256.0</ele><time>2026-03-28T11:45:31Z</time></trkpt><trkpt lat="46.10755160142833" lon="5.291432132685259"><ele>256.0</ele><time>2026-03-28T11:45:32Z</time></trkpt><trkpt lat="46.10728580938384" lon="5.291386247569322"><ele>254.5</ele><time>2026-03-28T11:45:33Z</time></trkpt><trkpt lat="46.107014925290194" lon="5.291339134360719"><ele>253.0</ele><time>2026-03-28T11:45:34Z</time></trkpt><trkpt lat="46.10674284838462" lon="5.291292941012389"><ele>255.5</ele><time>2026-03-28T11:45:35Z</time></trkpt><trkpt lat="46.10647072888586" lon="5.291246466618713"><ele>258.0</ele><time>2026-03-28T11:45:36Z</time></trkpt><trkpt lat="46.10620186225268" lon="5.291200888396183"><ele>258.0</ele><time>2026-03-28T11:45:37Z</time></trkpt><trkpt lat="46.105928398369365" lon="5.291152282373244"><ele>258.0</ele><time>2026-03-28T11:45:38Z</time></trkpt><trkpt lat="46.105655309121595" lon="5.291098012878385"><ele>258.0</ele><time>2026-03-28T11:45:39Z</time></trkpt><trkpt lat="46.10538350028088" lon="5.2910422003764515"><ele>258.0</ele><time>2026-03-28T11:45:40Z</time></trkpt><trkpt lat="46.10510890339382" lon="5.290990344594529"><ele>258.5</ele><time>2026-03-28T11:45:41Z</time></trkpt><trkpt lat="46.10483316618298" lon="5.290939148615322"><ele>259.0</ele><time>2026-03-28T11:45:42Z</time></trkpt><trkpt lat="46.10455798371105" lon="5.290885567352711"><ele>259.0</ele><time>2026-03-28T11:45:43Z</time></trkpt><trkpt lat="46.10428311224561" lon="5.290833287173732"><ele>259.0</ele><time>2026-03-28T11:45:44Z</time></trkpt><trkpt lat="46.1040057295709" lon="5.290781420672977"><ele>259.0</ele><time>2026-03-28T11:45:45Z</time></trkpt><trkpt lat="46.103730239472036" lon="5.2907277955329715"><ele>259.0</ele><time>2026-03-28T11:45:46Z</time></trkpt><trkpt lat="46.10345717573638" lon="5.2906746940936165"><ele>259.0</ele><time>2026-03-28T11:45:47Z</time></trkpt><trkpt lat="46.10318252024768" lon="5.290618074388474"><ele>259.0</ele><time>2026-03-28T11:45:48Z</time></trkpt><trkpt lat="46.10290963729516" lon="5.290561017910372"><ele>258.5</ele><time>2026-03-28T11:45:49Z</time></trkpt><trkpt lat="46.102636952365636" lon="5.29050499517658"><ele>258.0</ele><time>2026-03-28T11:45:50Z</time></trkpt><trkpt lat="46.102362590096604" lon="5.290451257118499"><ele>257.5</ele><time>2026-03-28T11:45:51Z</time></trkpt><trkpt lat="46.102086969315884" lon="5.29039888089897"><ele>257.0</ele><time>2026-03-28T11:45:52Z</time></trkpt><trkpt lat="46.10181533056227" lon="5.290345530160654"><ele>255.0</ele><time>2026-03-28T11:45:53Z</time></trkpt><trkpt lat="46.1015422928186" lon="5.290295883213152"><ele>253.0</ele><time>2026-03-28T11:45:54Z</time></trkpt><trkpt lat="46.10127336177232" lon="5.290232086840258"><ele>253.0</ele><time>2026-03-28T11:45:55Z</time></trkpt><trkpt lat="46.10099876723043" lon="5.29017765048999"><ele>253.0</ele><time>2026-03-28T11:45:56Z</time></trkpt><trkpt lat="46.10072639395234" lon="5.290125620586444"><ele>253.5</ele><time>2026-03-28T11:45:57Z</time></trkpt><trkpt lat="46.10045398323193" lon="5.290075547672466"><ele>254.0</ele><time>2026-03-28T11:45:58Z</time></trkpt><trkpt lat="46.10018172760289" lon="5.290017078760741"><ele>254.5</ele><time>2026-03-28T11:45:59Z</time></trkpt><trkpt lat="46.09991024789786" lon="5.289963578263841"><ele>255.0</ele><time>2026-03-28T11:46:00Z</time></trkpt><trkpt lat="46.09963782810992" lon="5.289910909699364"><ele>255.0</ele><time>2026-03-28T11:46:01Z</time></trkpt><trkpt lat="46.09936546370061" lon="5.289859960154651"><ele>255.0</ele><time>2026-03-28T11:46:02Z</time></trkpt><trkpt lat="46.099092752102685" lon="5.28981026018314"><ele>255.5</ele><time>2026-03-28T11:46:03Z</time></trkpt><trkpt lat="46.098819217537695" lon="5.289755036520567"><ele>256.0</ele><time>2026-03-28T11:46:04Z</time></trkpt><trkpt lat="46.098545201160086" lon="5.289702051804871"><ele>256.0</ele><time>2026-03-28T11:46:05Z</time></trkpt><trkpt lat="46.09827232773998" lon="5.2896483110491905"><ele>256.0</ele><time>2026-03-28T11:46:06Z</time></trkpt><trkpt lat="46.09799846732996" lon="5.289592558902011"><ele>257.5</ele><time>2026-03-28T11:46:07Z</time></trkpt><trkpt lat="46.09772303451682" lon="5.289540161378359"><ele>259.0</ele><time>2026-03-28T11:46:08Z</time></trkpt><trkpt lat="46.097451313705655" lon="5.289489458792522"><ele>259.0</ele><time>2026-03-28T11:46:09Z</time></trkpt><trkpt lat="46.097177651151576" lon="5.2894370207743515"><ele>259.0</ele><time>2026-03-28T11:46:10Z</time></trkpt><trkpt lat="46.0969058514754" lon="5.289382879649537"><ele>259.0</ele><time>2026-03-28T11:46:11Z</time></trkpt><trkpt lat="46.09663231081545" lon="5.289325984105535"><ele>259.0</ele><time>2026-03-28T11:46:12Z</time></trkpt><trkpt lat="46.09636055551649" lon="5.289271958245106"><ele>258.5</ele><time>2026-03-28T11:46:13Z</time></trkpt><trkpt lat="46.09608763510421" lon="5.289216982065061"><ele>258.0</ele><time>2026-03-28T11:46:14Z</time></trkpt><trkpt lat="46.09581379227737" lon="5.2891616578412775"><ele>260.5</ele><time>2026-03-28T11:46:15Z</time></trkpt><trkpt lat="46.09554280265701" lon="5.289110434722498"><ele>263.0</ele><time>2026-03-28T11:46:16Z</time></trkpt><trkpt lat="46.09526935915566" lon="5.2890590531804955"><ele>263.0</ele><time>2026-03-28T11:46:17Z</time></trkpt><trkpt lat="46.09499771918459" lon="5.289007027498563"><ele>263.0</ele><time>2026-03-28T11:46:18Z</time></trkpt><trkpt lat="46.094724467747376" lon="5.288954038072445"><ele>263.0</ele><time>2026-03-28T11:46:19Z</time></trkpt><trkpt lat="46.09445309103802" lon="5.288902425833612"><ele>263.0</ele><time>2026-03-28T11:46:20Z</time></trkpt><trkpt lat="46.094181483172285" lon="5.288850853848183"><ele>261.5</ele><time>2026-03-28T11:46:21Z</time></trkpt><trkpt lat="46.09390888874862" lon="5.288799287184082"><ele>260.0</ele><time>2026-03-28T11:46:22Z</time></trkpt><trkpt lat="46.09363752804581" lon="5.288748762156962"><ele>260.0</ele><time>2026-03-28T11:46:23Z</time></trkpt><trkpt lat="46.09336521494147" lon="5.288697290599076"><ele>260.0</ele><time>2026-03-28T11:46:24Z</time></trkpt><trkpt lat="46.093094946494986" lon="5.288644411736133"><ele>259.0</ele><time>2026-03-28T11:46:25Z</time></trkpt><trkpt lat="46.09282498816165" lon="5.288591440198093"><ele>258.0</ele><time>2026-03-28T11:46:26Z</time></trkpt><trkpt lat="46.09255335752044" lon="5.288541357610974"><ele>258.0</ele><time>2026-03-28T11:46:27Z</time></trkpt><trkpt lat="46.09228357131017" lon="5.288491839463318"><ele>258.0</ele><time>2026-03-28T11:46:28Z</time></trkpt><trkpt lat="46.092013293924445" lon="5.288451257304212"><ele>258.0</ele><time>2026-03-28T11:46:29Z</time></trkpt><trkpt lat="46.09174206762046" lon="5.288408916380711"><ele>258.0</ele><time>2026-03-28T11:46:30Z</time></trkpt><trkpt lat="46.09147391907307" lon="5.288370407696981"><ele>257.5</ele><time>2026-03-28T11:46:31Z</time></trkpt><trkpt lat="46.09120703975994" lon="5.2883354774734075"><ele>257.0</ele><time>2026-03-28T11:46:32Z</time></trkpt><trkpt lat="46.090932087606014" lon="5.288311235299136"><ele>257.0</ele><time>2026-03-28T11:46:33Z</time></trkpt><trkpt lat="46.09066005099053" lon="5.288294565276898"><ele>257.0</ele><time>2026-03-28T11:46:34Z</time></trkpt><trkpt lat="46.09038735294424" lon="5.288279138717249"><ele>257.0</ele><time>2026-03-28T11:46:35Z</time></trkpt><trkpt lat="46.090112430171" lon="5.288271352426242"><ele>257.0</ele><time>2026-03-28T11:46:36Z</time></trkpt><trkpt lat="46.089840518309664" lon="5.28827002023183"><ele>256.0</ele><time>2026-03-28T11:46:37Z</time></trkpt><trkpt lat="46.089568061365846" lon="5.288279591415583"><ele>255.0</ele><time>2026-03-28T11:46:38Z</time></trkpt><trkpt lat="46.089294205463894" lon="5.2882941807473225"><ele>254.5</ele><time>2026-03-28T11:46:39Z</time></trkpt><trkpt lat="46.08902078553782" lon="5.288320524468584"><ele>254.0</ele><time>2026-03-28T11:46:40Z</time></trkpt><trkpt lat="46.088747471137516" lon="5.288355334328155"><ele>254.0</ele><time>2026-03-28T11:46:41Z</time></trkpt><trkpt lat="46.08847504544859" lon="5.288394572961066"><ele>254.0</ele><time>2026-03-28T11:46:42Z</time></trkpt><trkpt lat="46.088202628718236" lon="5.288436543573793"><ele>253.0</ele><time>2026-03-28T11:46:43Z</time></trkpt><trkpt lat="46.08793165206247" lon="5.288483749896238"><ele>252.0</ele><time>2026-03-28T11:46:44Z</time></trkpt><trkpt lat="46.08766275724311" lon="5.288539289305485"><ele>253.0</ele><time>2026-03-28T11:46:45Z</time></trkpt><trkpt lat="46.08739322245668" lon="5.288605052909577"><ele>254.0</ele><time>2026-03-28T11:46:46Z</time></trkpt><trkpt lat="46.08712425264261" lon="5.288680286746687"><ele>254.0</ele><time>2026-03-28T11:46:47Z</time></trkpt><trkpt lat="46.086857521809975" lon="5.288770042198469"><ele>254.0</ele><time>2026-03-28T11:46:48Z</time></trkpt><trkpt lat="46.08659348714539" lon="5.288864395306584"><ele>255.0</ele><time>2026-03-28T11:46:49Z</time></trkpt><trkpt lat="46.08633057511252" lon="5.288965514833914"><ele>256.0</ele><time>2026-03-28T11:46:50Z</time></trkpt><trkpt lat="46.08607029072274" lon="5.289075055824493"><ele>256.0</ele><time>2026-03-28T11:46:51Z</time></trkpt><trkpt lat="46.08581151025655" lon="5.289192904900515"><ele>256.0</ele><time>2026-03-28T11:46:52Z</time></trkpt><trkpt lat="46.08555400670454" lon="5.289317639680799"><ele>258.0</ele><time>2026-03-28T11:46:53Z</time></trkpt><trkpt lat="46.08530185846829" lon="5.2894509338485705"><ele>260.0</ele><time>2026-03-28T11:46:54Z</time></trkpt><trkpt lat="46.08504986938656" lon="5.28959162377662"><ele>260.5</ele><time>2026-03-28T11:46:55Z</time></trkpt><trkpt lat="46.08479831573322" lon="5.289737618311967"><ele>261.0</ele><time>2026-03-28T11:46:56Z</time></trkpt><trkpt lat="46.08454686180448" lon="5.289887779422764"><ele>261.0</ele><time>2026-03-28T11:46:57Z</time></trkpt><trkpt lat="46.084300895287534" lon="5.2900472129367575"><ele>261.0</ele><time>2026-03-28T11:46:58Z</time></trkpt><trkpt lat="46.08405572185908" lon="5.290212065192469"><ele>260.0</ele><time>2026-03-28T11:46:59Z</time></trkpt><trkpt lat="46.08381537736799" lon="5.290384925713125"><ele>259.0</ele><time>2026-03-28T11:47:00Z</time></trkpt><trkpt lat="46.08357727470098" lon="5.290564214614259"><ele>257.5</ele><time>2026-03-28T11:47:01Z</time></trkpt><trkpt lat="46.08334059300064" lon="5.29075292362029"><ele>256.0</ele><time>2026-03-28T11:47:02Z</time></trkpt><trkpt lat="46.08310609983964" lon="5.2909475622080855"><ele>255.5</ele><time>2026-03-28T11:47:03Z</time></trkpt><trkpt lat="46.0828721938762" lon="5.291145941460831"><ele>255.0</ele><time>2026-03-28T11:47:04Z</time></trkpt><trkpt lat="46.082645304072365" lon="5.291352484756419"><ele>255.5</ele><time>2026-03-28T11:47:05Z</time></trkpt><trkpt lat="46.08241802901548" lon="5.2915659994565045"><ele>256.0</ele><time>2026-03-28T11:47:06Z</time></trkpt><trkpt lat="46.082197709661884" lon="5.291789028055006"><ele>256.0</ele><time>2026-03-28T11:47:07Z</time></trkpt><trkpt lat="46.08197611366117" lon="5.292014995774608"><ele>256.0</ele><time>2026-03-28T11:47:08Z</time></trkpt><trkpt lat="46.08175901236857" lon="5.29224817540382"><ele>257.0</ele><time>2026-03-28T11:47:09Z</time></trkpt><trkpt lat="46.0815491478502" lon="5.29248800114421"><ele>258.0</ele><time>2026-03-28T11:47:10Z</time></trkpt><trkpt lat="46.08134151630484" lon="5.29273467910647"><ele>258.0</ele><time>2026-03-28T11:47:11Z</time></trkpt><trkpt lat="46.08113772949171" lon="5.292986932075785"><ele>258.0</ele><time>2026-03-28T11:47:12Z</time></trkpt><trkpt lat="46.080938632317704" lon="5.293244698929862"><ele>256.5</ele><time>2026-03-28T11:47:13Z</time></trkpt><trkpt lat="46.080738067794734" lon="5.29350377443278"><ele>255.0</ele><time>2026-03-28T11:47:14Z</time></trkpt><trkpt lat="46.080546294752395" lon="5.293770824857046"><ele>256.0</ele><time>2026-03-28T11:47:15Z</time></trkpt><trkpt lat="46.08035876692966" lon="5.294043779979286"><ele>257.0</ele><time>2026-03-28T11:47:16Z</time></trkpt><trkpt lat="46.0801740335311" lon="5.294323346902585"><ele>257.0</ele><time>2026-03-28T11:47:17Z</time></trkpt><trkpt lat="46.079990992887545" lon="5.2946079668602914"><ele>257.0</ele><time>2026-03-28T11:47:18Z</time></trkpt><trkpt lat="46.07981129040437" lon="5.294898352317314"><ele>256.0</ele><time>2026-03-28T11:47:19Z</time></trkpt><trkpt lat="46.07963906312949" lon="5.295193733524855"><ele>255.0</ele><time>2026-03-28T11:47:20Z</time></trkpt><trkpt lat="46.07946964490932" lon="5.29549295373888"><ele>256.0</ele><time>2026-03-28T11:47:21Z</time></trkpt><trkpt lat="46.07930224793009" lon="5.29579468815828"><ele>257.0</ele><time>2026-03-28T11:47:22Z</time></trkpt><trkpt lat="46.07913955007458" lon="5.29610353897751"><ele>255.5</ele><time>2026-03-28T11:47:23Z</time></trkpt><trkpt lat="46.07898324680313" lon="5.296417479270869"><ele>254.0</ele><time>2026-03-28T11:47:24Z</time></trkpt><trkpt lat="46.078830647786354" lon="5.296736549932957"><ele>254.0</ele><time>2026-03-28T11:47:25Z</time></trkpt><trkpt lat="46.07868138329712" lon="5.29705885799348"><ele>254.0</ele><time>2026-03-28T11:47:26Z</time></trkpt><trkpt lat="46.07853799029661" lon="5.297381300846568"><ele>253.5</ele><time>2026-03-28T11:47:27Z</time></trkpt><trkpt lat="46.078396682119575" lon="5.29771120645058"><ele>253.0</ele><time>2026-03-28T11:47:28Z</time></trkpt><trkpt lat="46.07825888863484" lon="5.298045377407377"><ele>253.5</ele><time>2026-03-28T11:47:29Z</time></trkpt><trkpt lat="46.07812567875176" lon="5.298385879773472"><ele>254.0</ele><time>2026-03-28T11:47:30Z</time></trkpt><trkpt lat="46.07799525121711" lon="5.298726495286231"><ele>256.0</ele><time>2026-03-28T11:47:31Z</time></trkpt><trkpt lat="46.07787055292361" lon="5.299064071212361"><ele>258.0</ele><time>2026-03-28T11:47:32Z</time></trkpt><trkpt lat="46.07775033649823" lon="5.299411341711458"><ele>259.5</ele><time>2026-03-28T11:47:33Z</time></trkpt><trkpt lat="46.07763137984978" lon="5.2997562643752145"><ele>261.0</ele><time>2026-03-28T11:47:34Z</time></trkpt><trkpt lat="46.07751604700188" lon="5.300107478094855"><ele>259.0</ele><time>2026-03-28T11:47:35Z</time></trkpt><trkpt lat="46.0774051690283" lon="5.300459926530532"><ele>257.0</ele><time>2026-03-28T11:47:36Z</time></trkpt><trkpt lat="46.077299501252874" lon="5.30081644572697"><ele>257.0</ele><time>2026-03-28T11:47:37Z</time></trkpt><trkpt lat="46.0771931761206" lon="5.30117439474154"><ele>257.0</ele><time>2026-03-28T11:47:38Z</time></trkpt><trkpt lat="46.077094228711026" lon="5.301532019569127"><ele>258.0</ele><time>2026-03-28T11:47:39Z</time></trkpt><trkpt lat="46.07699620504837" lon="5.301891161126178"><ele>259.0</ele><time>2026-03-28T11:47:40Z</time></trkpt><trkpt lat="46.0768991894651" lon="5.302253781275073"><ele>259.0</ele><time>2026-03-28T11:47:41Z</time></trkpt><trkpt lat="46.07680131742117" lon="5.302614639748276"><ele>259.0</ele><time>2026-03-28T11:47:42Z</time></trkpt><trkpt lat="46.076704054005134" lon="5.302974951532658"><ele>259.5</ele><time>2026-03-28T11:47:43Z</time></trkpt><trkpt lat="46.07660530550137" lon="5.303330997060418"><ele>260.0</ele><time>2026-03-28T11:47:44Z</time></trkpt><trkpt lat="46.07650510929555" lon="5.303690738730223"><ele>259.0</ele><time>2026-03-28T11:47:45Z</time></trkpt><trkpt lat="46.0764053972296" lon="5.304051167071347"><ele>258.0</ele><time>2026-03-28T11:47:46Z</time></trkpt><trkpt lat="46.076306356673" lon="5.304411108841814"><ele>258.0</ele><time>2026-03-28T11:47:47Z</time></trkpt><trkpt lat="46.076207469944066" lon="5.304766371157413"><ele>258.0</ele><time>2026-03-28T11:47:48Z</time></trkpt><trkpt lat="46.076110762495375" lon="5.305124481297209"><ele>258.0</ele><time>2026-03-28T11:47:49Z</time></trkpt><trkpt lat="46.076010830317976" lon="5.305482164969644"><ele>258.0</ele><time>2026-03-28T11:47:50Z</time></trkpt><trkpt lat="46.07591266967736" lon="5.30584224388444"><ele>258.5</ele><time>2026-03-28T11:47:51Z</time></trkpt><trkpt lat="46.075814378671275" lon="5.306201141183104"><ele>259.0</ele><time>2026-03-28T11:47:52Z</time></trkpt><trkpt lat="46.0757148692336" lon="5.306563668682626"><ele>258.5</ele><time>2026-03-28T11:47:53Z</time></trkpt><trkpt lat="46.07561444918231" lon="5.306928444726147"><ele>258.0</ele><time>2026-03-28T11:47:54Z</time></trkpt><trkpt lat="46.0755135194696" lon="5.307290763585417"><ele>258.0</ele><time>2026-03-28T11:47:55Z</time></trkpt><trkpt lat="46.07541233369163" lon="5.307654977583131"><ele>258.0</ele><time>2026-03-28T11:47:56Z</time></trkpt><trkpt lat="46.07530989785839" lon="5.308018870534083"><ele>258.5</ele><time>2026-03-28T11:47:57Z</time></trkpt><trkpt lat="46.07520528227072" lon="5.308385945339374"><ele>259.0</ele><time>2026-03-28T11:47:58Z</time></trkpt><trkpt lat="46.07510189401685" lon="5.308751593295328"><ele>258.0</ele><time>2026-03-28T11:47:59Z</time></trkpt><trkpt lat="46.07499863653397" lon="5.309119096563492"><ele>257.0</ele><time>2026-03-28T11:48:00Z</time></trkpt><trkpt lat="46.0748978979702" lon="5.309484118987356"><ele>258.5</ele><time>2026-03-28T11:48:01Z</time></trkpt><trkpt lat="46.0747943161495" lon="5.3098475254400395"><ele>260.0</ele><time>2026-03-28T11:48:02Z</time></trkpt><trkpt lat="46.074690427316426" lon="5.310209944293284"><ele>261.5</ele><time>2026-03-28T11:48:03Z</time></trkpt><trkpt lat="46.07458858578617" lon="5.31057847503197"><ele>263.0</ele><time>2026-03-28T11:48:04Z</time></trkpt><trkpt lat="46.07448687515264" lon="5.310942639146926"><ele>263.0</ele><time>2026-03-28T11:48:05Z</time></trkpt><trkpt lat="46.074385098576734" lon="5.311308395930253"><ele>263.0</ele><time>2026-03-28T11:48:06Z</time></trkpt><trkpt lat="46.07428453594128" lon="5.3116783127101295"><ele>264.0</ele><time>2026-03-28T11:48:07Z</time></trkpt><trkpt lat="46.074182829993205" lon="5.312049445064631"><ele>265.0</ele><time>2026-03-28T11:48:08Z</time></trkpt><trkpt lat="46.07408050953438" lon="5.3124182793762955"><ele>262.5</ele><time>2026-03-28T11:48:09Z</time></trkpt><trkpt lat="46.07397372099183" lon="5.312790169659647"><ele>260.0</ele><time>2026-03-28T11:48:10Z</time></trkpt><trkpt lat="46.07387072261714" lon="5.313155103265985"><ele>260.0</ele><time>2026-03-28T11:48:11Z</time></trkpt><trkpt lat="46.07376983940647" lon="5.313522911073273"><ele>260.0</ele><time>2026-03-28T11:48:12Z</time></trkpt><trkpt lat="46.073672024040214" lon="5.313892380423005"><ele>261.0</ele><time>2026-03-28T11:48:13Z</time></trkpt><trkpt lat="46.07357391001949" lon="5.31426420109968"><ele>262.0</ele><time>2026-03-28T11:48:14Z</time></trkpt><trkpt lat="46.07347682738561" lon="5.31462971036437"><ele>261.5</ele><time>2026-03-28T11:48:15Z</time></trkpt><trkpt lat="46.07337845587412" lon="5.315000207576998"><ele>261.0</ele><time>2026-03-28T11:48:16Z</time></trkpt><trkpt lat="46.07327706476621" lon="5.31536745361707"><ele>263.5</ele><time>2026-03-28T11:48:17Z</time></trkpt><trkpt lat="46.07317374217339" lon="5.315732104042129"><ele>266.0</ele><time>2026-03-28T11:48:18Z</time></trkpt><trkpt lat="46.073070709606924" lon="5.316094984153346"><ele>265.5</ele><time>2026-03-28T11:48:19Z</time></trkpt><trkpt lat="46.07296834499829" lon="5.316457243384985"><ele>265.0</ele><time>2026-03-28T11:48:20Z</time></trkpt><trkpt lat="46.07286342962609" lon="5.316817439760874"><ele>265.0</ele><time>2026-03-28T11:48:21Z</time></trkpt><trkpt lat="46.07275382575772" lon="5.317181647689561"><ele>265.0</ele><time>2026-03-28T11:48:22Z</time></trkpt><trkpt lat="46.07264220706267" lon="5.317540858499331"><ele>265.5</ele><time>2026-03-28T11:48:23Z</time></trkpt><trkpt lat="46.07252701543926" lon="5.317896584914295"><ele>266.0</ele><time>2026-03-28T11:48:24Z</time></trkpt><trkpt lat="46.072405429893685" lon="5.318250686692306"><ele>266.5</ele><time>2026-03-28T11:48:25Z</time></trkpt><trkpt lat="46.072280230987694" lon="5.318604418718792"><ele>267.0</ele><time>2026-03-28T11:48:26Z</time></trkpt><trkpt lat="46.07215026772694" lon="5.31894742962002"><ele>265.0</ele><time>2026-03-28T11:48:27Z</time></trkpt><trkpt lat="46.072017011711424" lon="5.319286516591683"><ele>263.0</ele><time>2026-03-28T11:48:28Z</time></trkpt><trkpt lat="46.07187650369512" lon="5.319622942206038"><ele>262.5</ele><time>2026-03-28T11:48:29Z</time></trkpt><trkpt lat="46.07172592158255" lon="5.3199545638229235"><ele>262.0</ele><time>2026-03-28T11:48:30Z</time></trkpt><trkpt lat="46.07156793154573" lon="5.32027358579977"><ele>263.0</ele><time>2026-03-28T11:48:31Z</time></trkpt><trkpt lat="46.071403952856436" lon="5.320584974986174"><ele>264.0</ele><time>2026-03-28T11:48:32Z</time></trkpt><trkpt lat="46.07124065343489" lon="5.3208941231288645"><ele>264.0</ele><time>2026-03-28T11:48:33Z</time></trkpt><trkpt lat="46.07107839748303" lon="5.321200293113303"><ele>264.0</ele><time>2026-03-28T11:48:34Z</time></trkpt><trkpt lat="46.07091260803749" lon="5.321504399583091"><ele>262.5</ele><time>2026-03-28T11:48:35Z</time></trkpt><trkpt lat="46.07073905100558" lon="5.321812328124895"><ele>261.0</ele><time>2026-03-28T11:48:36Z</time></trkpt><trkpt lat="46.07056518585734" lon="5.322110288115414"><ele>260.5</ele><time>2026-03-28T11:48:37Z</time></trkpt><trkpt lat="46.07039058135559" lon="5.322396892104358"><ele>260.0</ele><time>2026-03-28T11:48:38Z</time></trkpt><trkpt lat="46.07020865997773" lon="5.32268811035217"><ele>260.0</ele><time>2026-03-28T11:48:39Z</time></trkpt><trkpt lat="46.070022635774095" lon="5.3229794413934455"><ele>260.0</ele><time>2026-03-28T11:48:40Z</time></trkpt><trkpt lat="46.069832707101874" lon="5.323264386026855"><ele>258.0</ele><time>2026-03-28T11:48:41Z</time></trkpt><trkpt lat="46.06963683006013" lon="5.323544077790098"><ele>256.0</ele><time>2026-03-28T11:48:42Z</time></trkpt><trkpt lat="46.069438103715626" lon="5.323814818748964"><ele>257.0</ele><time>2026-03-28T11:48:43Z</time></trkpt><trkpt lat="46.069237137275294" lon="5.324080889884052"><ele>258.0</ele><time>2026-03-28T11:48:44Z</time></trkpt><trkpt lat="46.069029920595625" lon="5.324339081056425"><ele>256.0</ele><time>2026-03-28T11:48:45Z</time></trkpt><trkpt lat="46.068819207198786" lon="5.324593304706437"><ele>254.0</ele><time>2026-03-28T11:48:46Z</time></trkpt><trkpt lat="46.06860588105867" lon="5.3248394061075395"><ele>254.0</ele><time>2026-03-28T11:48:47Z</time></trkpt><trkpt lat="46.06838552904109" lon="5.325080396018305"><ele>254.0</ele><time>2026-03-28T11:48:48Z</time></trkpt><trkpt lat="46.06816143274604" lon="5.325313681612614"><ele>254.0</ele><time>2026-03-28T11:48:49Z</time></trkpt><trkpt lat="46.067934410682795" lon="5.3255385612867645"><ele>254.0</ele><time>2026-03-28T11:48:50Z</time></trkpt><trkpt lat="46.06770703668488" lon="5.325754225421604"><ele>254.0</ele><time>2026-03-28T11:48:51Z</time></trkpt><trkpt lat="46.06747508362914" lon="5.325963429878945"><ele>254.0</ele><time>2026-03-28T11:48:52Z</time></trkpt><trkpt lat="46.06724201444782" lon="5.326165818219242"><ele>253.0</ele><time>2026-03-28T11:48:53Z</time></trkpt><trkpt lat="46.06700578888626" lon="5.3263654607986926"><ele>252.0</ele><time>2026-03-28T11:48:54Z</time></trkpt><trkpt lat="46.06676626558817" lon="5.32655542907017"><ele>251.0</ele><time>2026-03-28T11:48:55Z</time></trkpt><trkpt lat="46.06652755041207" lon="5.326738256110046"><ele>250.0</ele><time>2026-03-28T11:48:56Z</time></trkpt><trkpt lat="46.06628695354732" lon="5.326915092331749"><ele>250.0</ele><time>2026-03-28T11:48:57Z</time></trkpt><trkpt lat="46.06604171694938" lon="5.327084201405451"><ele>250.0</ele><time>2026-03-28T11:48:58Z</time></trkpt><trkpt lat="46.06579642097729" lon="5.327247914884095"><ele>249.0</ele><time>2026-03-28T11:48:59Z</time></trkpt><trkpt lat="46.06554567229697" lon="5.327403337502028"><ele>248.0</ele><time>2026-03-28T11:49:00Z</time></trkpt><trkpt lat="46.06529493414058" lon="5.327551198180585"><ele>248.0</ele><time>2026-03-28T11:49:01Z</time></trkpt><trkpt lat="46.065043920042896" lon="5.327694452114566"><ele>248.0</ele><time>2026-03-28T11:49:02Z</time></trkpt><trkpt lat="46.064789523931" lon="5.327828346703721"><ele>247.5</ele><time>2026-03-28T11:49:03Z</time></trkpt><trkpt lat="46.06453229483475" lon="5.3279562220219665"><ele>247.0</ele><time>2026-03-28T11:49:04Z</time></trkpt><trkpt lat="46.06427422033005" lon="5.328075915583961"><ele>248.5</ele><time>2026-03-28T11:49:05Z</time></trkpt><trkpt lat="46.0640136161203" lon="5.328182127670986"><ele>250.0</ele><time>2026-03-28T11:49:06Z</time></trkpt><trkpt lat="46.06375057065027" lon="5.328279689040208"><ele>250.0</ele><time>2026-03-28T11:49:07Z</time></trkpt><trkpt lat="46.063485592248895" lon="5.328372431553714"><ele>250.0</ele><time>2026-03-28T11:49:08Z</time></trkpt><trkpt lat="46.06322184631057" lon="5.328460151863905"><ele>248.5</ele><time>2026-03-28T11:49:09Z</time></trkpt><trkpt lat="46.06295422440114" lon="5.3285398796247945"><ele>247.0</ele><time>2026-03-28T11:49:10Z</time></trkpt><trkpt lat="46.06268489443551" lon="5.328609175793734"><ele>245.0</ele><time>2026-03-28T11:49:11Z</time></trkpt><trkpt lat="46.06241402517377" lon="5.328670910754512"><ele>243.0</ele><time>2026-03-28T11:49:12Z</time></trkpt><trkpt lat="46.06214264283531" lon="5.328726969211135"><ele>243.0</ele><time>2026-03-28T11:49:13Z</time></trkpt><trkpt lat="46.06186888172951" lon="5.328774778719773"><ele>243.0</ele><time>2026-03-28T11:49:14Z</time></trkpt><trkpt lat="46.06159474174842" lon="5.328813147775366"><ele>243.0</ele><time>2026-03-28T11:49:15Z</time></trkpt><trkpt lat="46.06131979727914" lon="5.328846765279331"><ele>243.0</ele><time>2026-03-28T11:49:16Z</time></trkpt><trkpt lat="46.06104575028338" lon="5.32887220245483"><ele>242.0</ele><time>2026-03-28T11:49:17Z</time></trkpt><trkpt lat="46.060769633005016" lon="5.328889881378981"><ele>241.0</ele><time>2026-03-28T11:49:18Z</time></trkpt><trkpt lat="46.06049447213147" lon="5.328896743080154"><ele>241.0</ele><time>2026-03-28T11:49:19Z</time></trkpt><trkpt lat="46.060219423480184" lon="5.328897784297163"><ele>241.0</ele><time>2026-03-28T11:49:20Z</time></trkpt><trkpt lat="46.05994392268988" lon="5.328888667027734"><ele>241.0</ele><time>2026-03-28T11:49:21Z</time></trkpt><trkpt lat="46.05966636270333" lon="5.328869806678623"><ele>241.0</ele><time>2026-03-28T11:49:22Z</time></trkpt><trkpt lat="46.05938920940005" lon="5.328845640598813"><ele>240.5</ele><time>2026-03-28T11:49:23Z</time></trkpt><trkpt lat="46.05911161001078" lon="5.3288138517636"><ele>240.0</ele><time>2026-03-28T11:49:24Z</time></trkpt><trkpt lat="46.05883452815088" lon="5.328772800294909"><ele>240.0</ele><time>2026-03-28T11:49:25Z</time></trkpt><trkpt lat="46.05855917792589" lon="5.328722208364364"><ele>240.0</ele><time>2026-03-28T11:49:26Z</time></trkpt><trkpt lat="46.05828633294763" lon="5.3286689393840225"><ele>240.5</ele><time>2026-03-28T11:49:27Z</time></trkpt><trkpt lat="46.05801364664671" lon="5.32860654342808"><ele>241.0</ele><time>2026-03-28T11:49:28Z</time></trkpt><trkpt lat="46.057741589132725" lon="5.32853665738038"><ele>241.0</ele><time>2026-03-28T11:49:29Z</time></trkpt><trkpt lat="46.05746985899708" lon="5.328462299027101"><ele>241.0</ele><time>2026-03-28T11:49:30Z</time></trkpt><trkpt lat="46.05719780479317" lon="5.328383302134119"><ele>241.0</ele><time>2026-03-28T11:49:31Z</time></trkpt><trkpt lat="46.056925436566324" lon="5.328303829455802"><ele>241.0</ele><time>2026-03-28T11:49:32Z</time></trkpt><trkpt lat="46.05665640687833" lon="5.328221290665166"><ele>240.5</ele><time>2026-03-28T11:49:33Z</time></trkpt><trkpt lat="46.056382698902084" lon="5.328136522143264"><ele>240.0</ele><time>2026-03-28T11:49:34Z</time></trkpt><trkpt lat="46.056111050190545" lon="5.328053511832473"><ele>239.0</ele><time>2026-03-28T11:49:35Z</time></trkpt><trkpt lat="46.05583947191854" lon="5.327966951175893"><ele>238.0</ele><time>2026-03-28T11:49:36Z</time></trkpt><trkpt lat="46.055567790535754" lon="5.327883933300027"><ele>237.5</ele><time>2026-03-28T11:49:37Z</time></trkpt><trkpt lat="46.05529695874449" lon="5.327799519298761"><ele>237.0</ele><time>2026-03-28T11:49:38Z</time></trkpt><trkpt lat="46.05502677726504" lon="5.327719831178543"><ele>237.0</ele><time>2026-03-28T11:49:39Z</time></trkpt><trkpt lat="46.05475382482554" lon="5.327638533214528"><ele>237.0</ele><time>2026-03-28T11:49:40Z</time></trkpt><trkpt lat="46.054480670253966" lon="5.327560119568476"><ele>237.0</ele><time>2026-03-28T11:49:41Z</time></trkpt><trkpt lat="46.05420830766442" lon="5.327479732831829"><ele>237.0</ele><time>2026-03-28T11:49:42Z</time></trkpt><trkpt lat="46.053936658490294" lon="5.327394526310731"><ele>237.0</ele><time>2026-03-28T11:49:43Z</time></trkpt><trkpt lat="46.05366665079703" lon="5.327308062235888"><ele>237.0</ele><time>2026-03-28T11:49:44Z</time></trkpt><trkpt lat="46.0533957265028" lon="5.32722656717243"><ele>237.5</ele><time>2026-03-28T11:49:45Z</time></trkpt><trkpt lat="46.053124386109225" lon="5.327145322373318"><ele>238.0</ele><time>2026-03-28T11:49:46Z</time></trkpt><trkpt lat="46.05285843158755" lon="5.327063515626134"><ele>238.0</ele><time>2026-03-28T11:49:47Z</time></trkpt><trkpt lat="46.05259168364708" lon="5.326979232049264"><ele>238.0</ele><time>2026-03-28T11:49:48Z</time></trkpt><trkpt lat="46.05232268123631" lon="5.326895130918029"><ele>238.5</ele><time>2026-03-28T11:49:49Z</time></trkpt><trkpt lat="46.0520552271451" lon="5.326816021334579"><ele>239.0</ele><time>2026-03-28T11:49:50Z</time></trkpt><trkpt lat="46.05178943158967" lon="5.326739048136412"><ele>239.5</ele><time>2026-03-28T11:49:51Z</time></trkpt><trkpt lat="46.05152407627085" lon="5.326661170581858"><ele>240.0</ele><time>2026-03-28T11:49:52Z</time></trkpt><trkpt lat="46.05125939833493" lon="5.326581125838129"><ele>240.0</ele><time>2026-03-28T11:49:53Z</time></trkpt><trkpt lat="46.05099306090832" lon="5.3264942642670645"><ele>240.0</ele><time>2026-03-28T11:49:54Z</time></trkpt><trkpt lat="46.05073159436799" lon="5.326413787218275"><ele>239.5</ele><time>2026-03-28T11:49:55Z</time></trkpt><trkpt lat="46.05047191890035" lon="5.32633994770669"><ele>239.0</ele><time>2026-03-28T11:49:56Z</time></trkpt><trkpt lat="46.05021000573318" lon="5.326262219445826"><ele>238.5</ele><time>2026-03-28T11:49:57Z</time></trkpt><trkpt lat="46.049946495877535" lon="5.326184528894585"><ele>238.0</ele><time>2026-03-28T11:49:58Z</time></trkpt><trkpt lat="46.04968169759227" lon="5.326099738039721"><ele>238.0</ele><time>2026-03-28T11:49:59Z</time></trkpt><trkpt lat="46.04941386194385" lon="5.3260154340048045"><ele>238.0</ele><time>2026-03-28T11:50:00Z</time></trkpt><trkpt lat="46.049150733510636" lon="5.325936569497797"><ele>237.5</ele><time>2026-03-28T11:50:01Z</time></trkpt><trkpt lat="46.04888326636255" lon="5.32585206930654"><ele>237.0</ele><time>2026-03-28T11:50:02Z</time></trkpt><trkpt lat="46.048615430935456" lon="5.32577154584575"><ele>237.0</ele><time>2026-03-28T11:50:03Z</time></trkpt><trkpt lat="46.04835075362218" lon="5.325694137196068"><ele>237.0</ele><time>2026-03-28T11:50:04Z</time></trkpt><trkpt lat="46.04808286541725" lon="5.32561424587045"><ele>237.5</ele><time>2026-03-28T11:50:05Z</time></trkpt><trkpt lat="46.04781850651343" lon="5.325535920798266"><ele>238.0</ele><time>2026-03-28T11:50:06Z</time></trkpt><trkpt lat="46.047554668885596" lon="5.325457453080185"><ele>237.5</ele><time>2026-03-28T11:50:07Z</time></trkpt><trkpt lat="46.04729108595329" lon="5.3253777626163865"><ele>237.0</ele><time>2026-03-28T11:50:08Z</time></trkpt><trkpt lat="46.047029607428776" lon="5.325296790217512"><ele>237.0</ele><time>2026-03-28T11:50:09Z</time></trkpt><trkpt lat="46.04676646816511" lon="5.325218402512953"><ele>237.0</ele><time>2026-03-28T11:50:10Z</time></trkpt><trkpt lat="46.046502691390906" lon="5.325140064073116"><ele>238.5</ele><time>2026-03-28T11:50:11Z</time></trkpt><trkpt lat="46.04623777707274" lon="5.325063459719558"><ele>240.0</ele><time>2026-03-28T11:50:12Z</time></trkpt><trkpt lat="46.045976572995954" lon="5.3249867790703265"><ele>239.5</ele><time>2026-03-28T11:50:13Z</time></trkpt><trkpt lat="46.04571329577313" lon="5.324908961006581"><ele>239.0</ele><time>2026-03-28T11:50:14Z</time></trkpt><trkpt lat="46.04545178524034" lon="5.324826124706332"><ele>239.0</ele><time>2026-03-28T11:50:15Z</time></trkpt><trkpt lat="46.04518908045344" lon="5.324735859947223"><ele>239.0</ele><time>2026-03-28T11:50:16Z</time></trkpt><trkpt lat="46.044922525617885" lon="5.324650666074716"><ele>239.0</ele><time>2026-03-28T11:50:17Z</time></trkpt><trkpt lat="46.0446587163321" lon="5.324564044606078"><ele>239.0</ele><time>2026-03-28T11:50:18Z</time></trkpt><trkpt lat="46.04439312885159" lon="5.324472895347436"><ele>239.0</ele><time>2026-03-28T11:50:19Z</time></trkpt><trkpt lat="46.04413302461005" lon="5.324387244612256"><ele>239.0</ele><time>2026-03-28T11:50:20Z</time></trkpt><trkpt lat="46.043869414372914" lon="5.324294057079714"><ele>237.5</ele><time>2026-03-28T11:50:21Z</time></trkpt><trkpt lat="46.04360583512728" lon="5.324195900850328"><ele>236.0</ele><time>2026-03-28T11:50:22Z</time></trkpt><trkpt lat="46.04334225835903" lon="5.324097141597125"><ele>235.0</ele><time>2026-03-28T11:50:23Z</time></trkpt><trkpt lat="46.04308366208887" lon="5.324004850771811"><ele>234.0</ele><time>2026-03-28T11:50:24Z</time></trkpt><trkpt lat="46.04282638379969" lon="5.3239059094786825"><ele>233.5</ele><time>2026-03-28T11:50:25Z</time></trkpt><trkpt lat="46.04256764738867" lon="5.323807492957397"><ele>233.0</ele><time>2026-03-28T11:50:26Z</time></trkpt><trkpt lat="46.04230403126976" lon="5.323705460239682"><ele>233.0</ele><time>2026-03-28T11:50:27Z</time></trkpt><trkpt lat="46.04204441302364" lon="5.3235986973336065"><ele>233.0</ele><time>2026-03-28T11:50:28Z</time></trkpt><trkpt lat="46.0417848303908" lon="5.323491929106694"><ele>235.0</ele><time>2026-03-28T11:50:29Z</time></trkpt><trkpt lat="46.041525146341144" lon="5.323382336164053"><ele>237.0</ele><time>2026-03-28T11:50:30Z</time></trkpt><trkpt lat="46.04126186849022" lon="5.323271200118924"><ele>237.0</ele><time>2026-03-28T11:50:31Z</time></trkpt><trkpt lat="46.04100088459009" lon="5.3231570935907815"><ele>237.0</ele><time>2026-03-28T11:50:32Z</time></trkpt><trkpt lat="46.04073905262615" lon="5.323041302530752"><ele>236.0</ele><time>2026-03-28T11:50:33Z</time></trkpt><trkpt lat="46.04048026819156" lon="5.322920459400419"><ele>235.0</ele><time>2026-03-28T11:50:34Z</time></trkpt><trkpt lat="46.040219502518845" lon="5.32279577226097"><ele>235.5</ele><time>2026-03-28T11:50:35Z</time></trkpt><trkpt lat="46.03996185506397" lon="5.322667749308145"><ele>236.0</ele><time>2026-03-28T11:50:36Z</time></trkpt><trkpt lat="46.039703952616875" lon="5.322532472432082"><ele>236.0</ele><time>2026-03-28T11:50:37Z</time></trkpt><trkpt lat="46.03944982749727" lon="5.322394930604056"><ele>236.0</ele><time>2026-03-28T11:50:38Z</time></trkpt><trkpt lat="46.03919496198336" lon="5.322255335406907"><ele>237.5</ele><time>2026-03-28T11:50:39Z</time></trkpt><trkpt lat="46.038940443095356" lon="5.3221132978925"><ele>239.0</ele><time>2026-03-28T11:50:40Z</time></trkpt><trkpt lat="46.038685580561385" lon="5.321968784183506"><ele>239.0</ele><time>2026-03-28T11:50:41Z</time></trkpt><trkpt lat="46.03843133343543" lon="5.321824704833989"><ele>239.0</ele><time>2026-03-28T11:50:42Z</time></trkpt><trkpt lat="46.038175826166174" lon="5.321675693484173"><ele>238.5</ele><time>2026-03-28T11:50:43Z</time></trkpt><trkpt lat="46.03792311725916" lon="5.321528424618982"><ele>238.0</ele><time>2026-03-28T11:50:44Z</time></trkpt><trkpt lat="46.037666909531964" lon="5.3213775162224835"><ele>237.0</ele><time>2026-03-28T11:50:45Z</time></trkpt><trkpt lat="46.03741383964444" lon="5.321228256850772"><ele>236.0</ele><time>2026-03-28T11:50:46Z</time></trkpt><trkpt lat="46.037159779700254" lon="5.321076825601214"><ele>236.0</ele><time>2026-03-28T11:50:47Z</time></trkpt><trkpt lat="46.03690616738581" lon="5.32092373656673"><ele>236.0</ele><time>2026-03-28T11:50:48Z</time></trkpt><trkpt lat="46.03665475883749" lon="5.320770986946931"><ele>236.0</ele><time>2026-03-28T11:50:49Z</time></trkpt><trkpt lat="46.036402582820934" lon="5.3206131211636585"><ele>236.0</ele><time>2026-03-28T11:50:50Z</time></trkpt><trkpt lat="46.03615031438182" lon="5.320451993334452"><ele>236.5</ele><time>2026-03-28T11:50:51Z</time></trkpt><trkpt lat="46.035901962521926" lon="5.3202874590770755"><ele>237.0</ele><time>2026-03-28T11:50:52Z</time></trkpt><trkpt lat="46.035654628263146" lon="5.320124743527032"><ele>236.0</ele><time>2026-03-28T11:50:53Z</time></trkpt><trkpt lat="46.03540737875252" lon="5.319966054466887"><ele>235.0</ele><time>2026-03-28T11:50:54Z</time></trkpt><trkpt lat="46.03515714388533" lon="5.319810420759882"><ele>235.0</ele><time>2026-03-28T11:50:55Z</time></trkpt><trkpt lat="46.034906470237985" lon="5.319653929206772"><ele>235.0</ele><time>2026-03-28T11:50:56Z</time></trkpt><trkpt lat="46.03465259899218" lon="5.319499161241648"><ele>235.0</ele><time>2026-03-28T11:50:57Z</time></trkpt><trkpt lat="46.03439850465363" lon="5.3193464713512855"><ele>235.0</ele><time>2026-03-28T11:50:58Z</time></trkpt><trkpt lat="46.03414423620423" lon="5.319194736397831"><ele>235.0</ele><time>2026-03-28T11:50:59Z</time></trkpt><trkpt lat="46.033890391930335" lon="5.3190460258278796"><ele>235.0</ele><time>2026-03-28T11:51:00Z</time></trkpt><trkpt lat="46.033636150999754" lon="5.3188958823558"><ele>234.5</ele><time>2026-03-28T11:51:01Z</time></trkpt><trkpt lat="46.0333832417106" lon="5.31874774676051"><ele>234.0</ele><time>2026-03-28T11:51:02Z</time></trkpt><trkpt lat="46.033127737609774" lon="5.318602239695477"><ele>234.0</ele><time>2026-03-28T11:51:03Z</time></trkpt><trkpt lat="46.03287175157967" lon="5.318456910277258"><ele>234.0</ele><time>2026-03-28T11:51:04Z</time></trkpt><trkpt lat="46.03261684712858" lon="5.318309207800752"><ele>234.0</ele><time>2026-03-28T11:51:05Z</time></trkpt><trkpt lat="46.03236218570461" lon="5.318163076203641"><ele>234.0</ele><time>2026-03-28T11:51:06Z</time></trkpt><trkpt lat="46.03210833156965" lon="5.318018202982763"><ele>234.0</ele><time>2026-03-28T11:51:07Z</time></trkpt><trkpt lat="46.03185210622439" lon="5.317875992513955"><ele>234.0</ele><time>2026-03-28T11:51:08Z</time></trkpt><trkpt lat="46.031595346969915" lon="5.317736364886624"><ele>234.0</ele><time>2026-03-28T11:51:09Z</time></trkpt><trkpt lat="46.0313372006091" lon="5.31759653739029"><ele>234.0</ele><time>2026-03-28T11:51:10Z</time></trkpt><trkpt lat="46.031080163201054" lon="5.31745865605908"><ele>234.0</ele><time>2026-03-28T11:51:11Z</time></trkpt><trkpt lat="46.030823579703004" lon="5.317322823440891"><ele>234.0</ele><time>2026-03-28T11:51:12Z</time></trkpt><trkpt lat="46.03056658120285" lon="5.317190925084723"><ele>234.0</ele><time>2026-03-28T11:51:13Z</time></trkpt><trkpt lat="46.03030837517496" lon="5.317062911128184"><ele>234.0</ele><time>2026-03-28T11:51:14Z</time></trkpt><trkpt lat="46.0300494810819" lon="5.316933766615462"><ele>234.0</ele><time>2026-03-28T11:51:15Z</time></trkpt><trkpt lat="46.029788241156545" lon="5.316806489827504"><ele>234.0</ele><time>2026-03-28T11:51:16Z</time></trkpt><trkpt lat="46.02953096302039" lon="5.316679611518716"><ele>234.0</ele><time>2026-03-28T11:51:17Z</time></trkpt><trkpt lat="46.02927148790317" lon="5.316552308759602"><ele>234.0</ele><time>2026-03-28T11:51:18Z</time></trkpt><trkpt lat="46.029012260402446" lon="5.316428542802076"><ele>234.0</ele><time>2026-03-28T11:51:19Z</time></trkpt><trkpt lat="46.02875290468995" lon="5.316306437377416"><ele>234.0</ele><time>2026-03-28T11:51:20Z</time></trkpt><trkpt lat="46.0284918616376" lon="5.316187736148325"><ele>233.5</ele><time>2026-03-28T11:51:21Z</time></trkpt><trkpt lat="46.0282301034554" lon="5.31606749332843"><ele>233.0</ele><time>2026-03-28T11:51:22Z</time></trkpt><trkpt lat="46.02796943987756" lon="5.31595054274183"><ele>233.0</ele><time>2026-03-28T11:51:23Z</time></trkpt><trkpt lat="46.02770814058392" lon="5.315837305666772"><ele>233.0</ele><time>2026-03-28T11:51:24Z</time></trkpt><trkpt lat="46.0274454749354" lon="5.315726055822019"><ele>234.0</ele><time>2026-03-28T11:51:25Z</time></trkpt><trkpt lat="46.027182702935654" lon="5.315616525629744"><ele>235.0</ele><time>2026-03-28T11:51:26Z</time></trkpt><trkpt lat="46.02692111278004" lon="5.315510256832833"><ele>235.5</ele><time>2026-03-28T11:51:27Z</time></trkpt><trkpt lat="46.02665958183772" lon="5.315408094343042"><ele>236.0</ele><time>2026-03-28T11:51:28Z</time></trkpt><trkpt lat="46.026395891910994" lon="5.31530564676736"><ele>235.0</ele><time>2026-03-28T11:51:29Z</time></trkpt><trkpt lat="46.02613246327133" lon="5.3152067941635295"><ele>234.0</ele><time>2026-03-28T11:51:30Z</time></trkpt><trkpt lat="46.02586735601588" lon="5.31510977217051"><ele>233.5</ele><time>2026-03-28T11:51:31Z</time></trkpt><trkpt lat="46.02560268847294" lon="5.31501080265794"><ele>233.0</ele><time>2026-03-28T11:51:32Z</time></trkpt><trkpt lat="46.02534005777031" lon="5.314914502645771"><ele>233.0</ele><time>2026-03-28T11:51:33Z</time></trkpt><trkpt lat="46.02507609856047" lon="5.314820620714065"><ele>233.0</ele><time>2026-03-28T11:51:34Z</time></trkpt><trkpt lat="46.02481364413565" lon="5.314731250936339"><ele>233.0</ele><time>2026-03-28T11:51:35Z</time></trkpt><trkpt lat="46.02455109232659" lon="5.3146421214809525"><ele>233.0</ele><time>2026-03-28T11:51:36Z</time></trkpt><trkpt lat="46.02428542280567" lon="5.31455416963741"><ele>233.0</ele><time>2026-03-28T11:51:37Z</time></trkpt><trkpt lat="46.02402146698585" lon="5.314467723708435"><ele>233.0</ele><time>2026-03-28T11:51:38Z</time></trkpt><trkpt lat="46.02375648289374" lon="5.3143848888694825"><ele>233.0</ele><time>2026-03-28T11:51:39Z</time></trkpt><trkpt lat="46.02349074017609" lon="5.314302940799871"><ele>233.0</ele><time>2026-03-28T11:51:40Z</time></trkpt><trkpt lat="46.02322455704553" lon="5.314223443081637"><ele>233.5</ele><time>2026-03-28T11:51:41Z</time></trkpt><trkpt lat="46.022957474510456" lon="5.31414226351758"><ele>234.0</ele><time>2026-03-28T11:51:42Z</time></trkpt><trkpt lat="46.022689652136805" lon="5.314065432093353"><ele>233.5</ele><time>2026-03-28T11:51:43Z</time></trkpt><trkpt lat="46.022425612021124" lon="5.313994119119991"><ele>233.0</ele><time>2026-03-28T11:51:44Z</time></trkpt><trkpt lat="46.02215851148934" lon="5.313919887286838"><ele>233.0</ele><time>2026-03-28T11:51:45Z</time></trkpt><trkpt lat="46.02189027506628" lon="5.313844515306877"><ele>233.0</ele><time>2026-03-28T11:51:46Z</time></trkpt><trkpt lat="46.02162326137394" lon="5.313774252721719"><ele>233.0</ele><time>2026-03-28T11:51:47Z</time></trkpt><trkpt lat="46.02135135454102" lon="5.3137045430878596"><ele>233.0</ele><time>2026-03-28T11:51:48Z</time></trkpt><trkpt lat="46.02108352741663" lon="5.3136421587854095"><ele>233.0</ele><time>2026-03-28T11:51:49Z</time></trkpt><trkpt lat="46.02081627379888" lon="5.313580236399909"><ele>233.0</ele><time>2026-03-28T11:51:50Z</time></trkpt><trkpt lat="46.02054795916879" lon="5.313515545687899"><ele>232.5</ele><time>2026-03-28T11:51:51Z</time></trkpt><trkpt lat="46.02028025947847" lon="5.313456991350268"><ele>232.0</ele><time>2026-03-28T11:51:52Z</time></trkpt><trkpt lat="46.020012264589816" lon="5.313401260772644"><ele>231.5</ele><time>2026-03-28T11:51:53Z</time></trkpt><trkpt lat="46.01974809721727" lon="5.313350975333998"><ele>231.0</ele><time>2026-03-28T11:51:54Z</time></trkpt><trkpt lat="46.01947766875448" lon="5.313303250293073"><ele>231.0</ele><time>2026-03-28T11:51:55Z</time></trkpt><trkpt lat="46.01921125656702" lon="5.3132545230487205"><ele>231.0</ele><time>2026-03-28T11:51:56Z</time></trkpt><trkpt lat="46.01894426591961" lon="5.313207870100434"><ele>232.0</ele><time>2026-03-28T11:51:57Z</time></trkpt><trkpt lat="46.01867907162256" lon="5.313165421847669"><ele>233.0</ele><time>2026-03-28T11:51:58Z</time></trkpt><trkpt lat="46.01841134873587" lon="5.313121942814451"><ele>232.5</ele><time>2026-03-28T11:51:59Z</time></trkpt><trkpt lat="46.018140659955684" lon="5.313071584837034"><ele>232.0</ele><time>2026-03-28T11:52:00Z</time></trkpt><trkpt lat="46.017870603777546" lon="5.313021374854901"><ele>232.0</ele><time>2026-03-28T11:52:01Z</time></trkpt><trkpt lat="46.01759796451032" lon="5.312972415814088"><ele>232.0</ele><time>2026-03-28T11:52:02Z</time></trkpt><trkpt lat="46.01732659641409" lon="5.31293073347907"><ele>232.0</ele><time>2026-03-28T11:52:03Z</time></trkpt><trkpt lat="46.01705651484895" lon="5.312893909627896"><ele>232.0</ele><time>2026-03-28T11:52:04Z</time></trkpt><trkpt lat="46.01678509543461" lon="5.312855361732406"><ele>231.5</ele><time>2026-03-28T11:52:05Z</time></trkpt><trkpt lat="46.01651146957926" lon="5.312817784314492"><ele>231.0</ele><time>2026-03-28T11:52:06Z</time></trkpt><trkpt lat="46.01623614976065" lon="5.312780034223263"><ele>231.0</ele><time>2026-03-28T11:52:07Z</time></trkpt><trkpt lat="46.01596197028571" lon="5.312739963578369"><ele>231.0</ele><time>2026-03-28T11:52:08Z</time></trkpt><trkpt lat="46.015688401907674" lon="5.3127019781426"><ele>231.5</ele><time>2026-03-28T11:52:09Z</time></trkpt><trkpt lat="46.01541698783846" lon="5.312661653531528"><ele>232.0</ele><time>2026-03-28T11:52:10Z</time></trkpt><trkpt lat="46.015146587312465" lon="5.3126103216546"><ele>232.0</ele><time>2026-03-28T11:52:11Z</time></trkpt><trkpt lat="46.01487859880274" lon="5.312556971096602"><ele>232.0</ele><time>2026-03-28T11:52:12Z</time></trkpt><trkpt lat="46.014610263172116" lon="5.312514272820754"><ele>232.0</ele><time>2026-03-28T11:52:13Z</time></trkpt><trkpt lat="46.01434148214218" lon="5.312483655180215"><ele>232.0</ele><time>2026-03-28T11:52:14Z</time></trkpt><trkpt lat="46.014074661423884" lon="5.312450311003385"><ele>232.0</ele><time>2026-03-28T11:52:15Z</time></trkpt><trkpt lat="46.013803438386866" lon="5.312419826786026"><ele>232.0</ele><time>2026-03-28T11:52:16Z</time></trkpt><trkpt lat="46.01353161596008" lon="5.312389034886345"><ele>231.0</ele><time>2026-03-28T11:52:17Z</time></trkpt><trkpt lat="46.013260212182665" lon="5.312376985896902"><ele>230.0</ele><time>2026-03-28T11:52:18Z</time></trkpt><trkpt lat="46.012992030152304" lon="5.312359715407745"><ele>230.0</ele><time>2026-03-28T11:52:19Z</time></trkpt><trkpt lat="46.01272427019642" lon="5.312337673121828"><ele>230.0</ele><time>2026-03-28T11:52:20Z</time></trkpt><trkpt lat="46.012454988357916" lon="5.312322891721517"><ele>231.0</ele><time>2026-03-28T11:52:21Z</time></trkpt><trkpt lat="46.012184883422336" lon="5.312307381250892"><ele>232.0</ele><time>2026-03-28T11:52:22Z</time></trkpt><trkpt lat="46.01191498191381" lon="5.312293687995743"><ele>232.0</ele><time>2026-03-28T11:52:23Z</time></trkpt><trkpt lat="46.011646229223494" lon="5.312281888652452"><ele>232.0</ele><time>2026-03-28T11:52:24Z</time></trkpt><trkpt lat="46.01137653708841" lon="5.31226603903482"><ele>232.0</ele><time>2026-03-28T11:52:25Z</time></trkpt><trkpt lat="46.01110723057319" lon="5.3122530134771315"><ele>232.0</ele><time>2026-03-28T11:52:26Z</time></trkpt><trkpt lat="46.01083676898058" lon="5.312242355819896"><ele>232.0</ele><time>2026-03-28T11:52:27Z</time></trkpt><trkpt lat="46.01056520744776" lon="5.312232892056402"><ele>232.0</ele><time>2026-03-28T11:52:28Z</time></trkpt><trkpt lat="46.01029442182515" lon="5.3122268601440625"><ele>232.0</ele><time>2026-03-28T11:52:29Z</time></trkpt><trkpt lat="46.010023423961755" lon="5.312222730231682"><ele>232.0</ele><time>2026-03-28T11:52:30Z</time></trkpt><trkpt lat="46.00975368176224" lon="5.3122186090225405"><ele>231.0</ele><time>2026-03-28T11:52:31Z</time></trkpt><trkpt lat="46.009481643166765" lon="5.312214292124348"><ele>230.0</ele><time>2026-03-28T11:52:32Z</time></trkpt><trkpt lat="46.00921089505575" lon="5.312210938958303"><ele>230.5</ele><time>2026-03-28T11:52:33Z</time></trkpt><trkpt lat="46.00893974606579" lon="5.312210438074175"><ele>231.0</ele><time>2026-03-28T11:52:34Z</time></trkpt><trkpt lat="46.00867053470259" lon="5.312210330462105"><ele>231.0</ele><time>2026-03-28T11:52:35Z</time></trkpt><trkpt lat="46.00839850740842" lon="5.312210810046585"><ele>231.0</ele><time>2026-03-28T11:52:36Z</time></trkpt><trkpt lat="46.00812859858362" lon="5.312214042941514"><ele>230.5</ele><time>2026-03-28T11:52:37Z</time></trkpt><trkpt lat="46.00785725305779" lon="5.3122189131895325"><ele>230.0</ele><time>2026-03-28T11:52:38Z</time></trkpt><trkpt lat="46.00758819076893" lon="5.312225945151764"><ele>230.5</ele><time>2026-03-28T11:52:39Z</time></trkpt><trkpt lat="46.00731846825068" lon="5.31223491047042"><ele>231.0</ele><time>2026-03-28T11:52:40Z</time></trkpt><trkpt lat="46.007047448394694" lon="5.312247797686091"><ele>231.0</ele><time>2026-03-28T11:52:41Z</time></trkpt><trkpt lat="46.00677440143099" lon="5.31225861083625"><ele>231.0</ele><time>2026-03-28T11:52:42Z</time></trkpt><trkpt lat="46.0065040390297" lon="5.312269444833777"><ele>230.0</ele><time>2026-03-28T11:52:43Z</time></trkpt><trkpt lat="46.00623399120481" lon="5.312280722148953"><ele>229.0</ele><time>2026-03-28T11:52:44Z</time></trkpt><trkpt lat="46.00596487239613" lon="5.312292315455729"><ele>229.0</ele><time>2026-03-28T11:52:45Z</time></trkpt><trkpt lat="46.005694816879036" lon="5.312307994159229"><ele>229.0</ele><time>2026-03-28T11:52:46Z</time></trkpt><trkpt lat="46.005425872115936" lon="5.312324791655768"><ele>229.0</ele><time>2026-03-28T11:52:47Z</time></trkpt><trkpt lat="46.005155182275466" lon="5.312338377841698"><ele>229.0</ele><time>2026-03-28T11:52:48Z</time></trkpt><trkpt lat="46.00488454585447" lon="5.312353833283958"><ele>230.0</ele><time>2026-03-28T11:52:49Z</time></trkpt><trkpt lat="46.00461574727946" lon="5.312368998166855"><ele>231.0</ele><time>2026-03-28T11:52:50Z</time></trkpt><trkpt lat="46.004345591954866" lon="5.31238686004923"><ele>231.5</ele><time>2026-03-28T11:52:51Z</time></trkpt><trkpt lat="46.004075914242826" lon="5.3124082786729465"><ele>232.0</ele><time>2026-03-28T11:52:52Z</time></trkpt><trkpt lat="46.00380449855548" lon="5.312428897857741"><ele>232.0</ele><time>2026-03-28T11:52:53Z</time></trkpt><trkpt lat="46.00353321899247" lon="5.312452978769074"><ele>232.0</ele><time>2026-03-28T11:52:54Z</time></trkpt><trkpt lat="46.00325727097868" lon="5.312470299862051"><ele>231.0</ele><time>2026-03-28T11:52:55Z</time></trkpt><trkpt lat="46.002984555096646" lon="5.31249244556571"><ele>230.0</ele><time>2026-03-28T11:52:56Z</time></trkpt><trkpt lat="46.00270993797404" lon="5.3125138943742085"><ele>230.5</ele><time>2026-03-28T11:52:57Z</time></trkpt><trkpt lat="46.002435085998776" lon="5.312533036879503"><ele>231.0</ele><time>2026-03-28T11:52:58Z</time></trkpt><trkpt lat="46.002160924732415" lon="5.31255425716725"><ele>231.0</ele><time>2026-03-28T11:52:59Z</time></trkpt><trkpt lat="46.0018850106234" lon="5.312573368880504"><ele>231.0</ele><time>2026-03-28T11:53:00Z</time></trkpt><trkpt lat="46.001609850463005" lon="5.31259249073266"><ele>230.5</ele><time>2026-03-28T11:53:01Z</time></trkpt><trkpt lat="46.001337254518695" lon="5.312615211061026"><ele>230.0</ele><time>2026-03-28T11:53:02Z</time></trkpt><trkpt lat="46.00106465622901" lon="5.31263734867584"><ele>230.5</ele><time>2026-03-28T11:53:03Z</time></trkpt><trkpt lat="46.00079155295493" lon="5.312660312770468"><ele>231.0</ele><time>2026-03-28T11:53:04Z</time></trkpt><trkpt lat="46.000520537808775" lon="5.312681635633378"><ele>231.0</ele><time>2026-03-28T11:53:05Z</time></trkpt><trkpt lat="46.0002453208409" lon="5.312705043639108"><ele>231.0</ele><time>2026-03-28T11:53:06Z</time></trkpt><trkpt lat="45.99997209739141" lon="5.312727100480015"><ele>231.0</ele><time>2026-03-28T11:53:07Z</time></trkpt><trkpt lat="45.99970117197431" lon="5.312746745408729"><ele>231.0</ele><time>2026-03-28T11:53:08Z</time></trkpt><trkpt lat="45.99943330345585" lon="5.312771110922625"><ele>230.0</ele><time>2026-03-28T11:53:09Z</time></trkpt><trkpt lat="45.99916578835745" lon="5.312791212179683"><ele>229.0</ele><time>2026-03-28T11:53:10Z</time></trkpt><trkpt lat="45.99889411456016" lon="5.312810689782823"><ele>229.0</ele><time>2026-03-28T11:53:11Z</time></trkpt><trkpt lat="45.99862571941021" lon="5.3128346340927495"><ele>229.0</ele><time>2026-03-28T11:53:12Z</time></trkpt><trkpt lat="45.998357615284874" lon="5.312858964310079"><ele>229.5</ele><time>2026-03-28T11:53:13Z</time></trkpt><trkpt lat="45.99808843643058" lon="5.312878675290896"><ele>230.0</ele><time>2026-03-28T11:53:14Z</time></trkpt><trkpt lat="45.997820943375906" lon="5.312899712669414"><ele>230.0</ele><time>2026-03-28T11:53:15Z</time></trkpt><trkpt lat="45.99755211470984" lon="5.312923171217871"><ele>230.0</ele><time>2026-03-28T11:53:16Z</time></trkpt><trkpt lat="45.99728253849881" lon="5.312950171073947"><ele>229.0</ele><time>2026-03-28T11:53:17Z</time></trkpt><trkpt lat="45.99700985329391" lon="5.312972797759267"><ele>228.0</ele><time>2026-03-28T11:53:18Z</time></trkpt><trkpt lat="45.99673759973923" lon="5.312999872204866"><ele>228.5</ele><time>2026-03-28T11:53:19Z</time></trkpt><trkpt lat="45.99646487237626" lon="5.313022050685316"><ele>229.0</ele><time>2026-03-28T11:53:20Z</time></trkpt><trkpt lat="45.99619147687605" lon="5.3130419294643945"><ele>229.0</ele><time>2026-03-28T11:53:21Z</time></trkpt><trkpt lat="45.99591977511984" lon="5.31305796284027"><ele>229.0</ele><time>2026-03-28T11:53:22Z</time></trkpt><trkpt lat="45.99564733521347" lon="5.313073527422144"><ele>229.0</ele><time>2026-03-28T11:53:23Z</time></trkpt><trkpt lat="45.995370890637766" lon="5.3130851255590645"><ele>229.0</ele><time>2026-03-28T11:53:24Z</time></trkpt><trkpt lat="45.99509578392759" lon="5.313101671514981"><ele>228.5</ele><time>2026-03-28T11:53:25Z</time></trkpt><trkpt lat="45.994818607309305" lon="5.313109658994704"><ele>228.0</ele><time>2026-03-28T11:53:26Z</time></trkpt><trkpt lat="45.99454240231708" lon="5.31313149252317"><ele>228.0</ele><time>2026-03-28T11:53:27Z</time></trkpt><trkpt lat="45.99425749870893" lon="5.313134050357876"><ele>228.0</ele><time>2026-03-28T11:53:28Z</time></trkpt><trkpt lat="45.99397955534203" lon="5.313134495634763"><ele>228.5</ele><time>2026-03-28T11:53:29Z</time></trkpt><trkpt lat="45.99370285882214" lon="5.313124900656863"><ele>229.0</ele><time>2026-03-28T11:53:30Z</time></trkpt><trkpt lat="45.993429820793196" lon="5.313118368670623"><ele>228.5</ele><time>2026-03-28T11:53:31Z</time></trkpt><trkpt lat="45.9931560467768" lon="5.313117267643721"><ele>228.0</ele><time>2026-03-28T11:53:32Z</time></trkpt><trkpt lat="45.99288234113728" lon="5.313117878804161"><ele>228.0</ele><time>2026-03-28T11:53:33Z</time></trkpt><trkpt lat="45.99260880268721" lon="5.313119034714508"><ele>228.0</ele><time>2026-03-28T11:53:34Z</time></trkpt><trkpt lat="45.99233873899407" lon="5.313119872950238"><ele>227.5</ele><time>2026-03-28T11:53:35Z</time></trkpt><trkpt lat="45.99206855994057" lon="5.3131248737076096"><ele>227.0</ele><time>2026-03-28T11:53:36Z</time></trkpt><trkpt lat="45.99179698159056" lon="5.313126519576712"><ele>227.5</ele><time>2026-03-28T11:53:37Z</time></trkpt><trkpt lat="45.991526120490995" lon="5.313125565156495"><ele>228.0</ele><time>2026-03-28T11:53:38Z</time></trkpt><trkpt lat="45.991256704155205" lon="5.313121929439795"><ele>228.0</ele><time>2026-03-28T11:53:39Z</time></trkpt><trkpt lat="45.99098693438877" lon="5.313112901700698"><ele>228.0</ele><time>2026-03-28T11:53:40Z</time></trkpt><trkpt lat="45.99071913379181" lon="5.313106900849121"><ele>227.5</ele><time>2026-03-28T11:53:41Z</time></trkpt><trkpt lat="45.99045104760096" lon="5.313097879350131"><ele>227.0</ele><time>2026-03-28T11:53:42Z</time></trkpt><trkpt lat="45.99018289450167" lon="5.313083614178522"><ele>227.5</ele><time>2026-03-28T11:53:43Z</time></trkpt><trkpt lat="45.98991608895578" lon="5.313069783244915"><ele>228.0</ele><time>2026-03-28T11:53:44Z</time></trkpt><trkpt lat="45.98964776424374" lon="5.313051570192751"><ele>228.0</ele><time>2026-03-28T11:53:45Z</time></trkpt><trkpt lat="45.989382369032846" lon="5.313039988180354"><ele>228.0</ele><time>2026-03-28T11:53:46Z</time></trkpt><trkpt lat="45.98911285810627" lon="5.313023013070148"><ele>227.5</ele><time>2026-03-28T11:53:47Z</time></trkpt><trkpt lat="45.98884460246784" lon="5.313000702892121"><ele>227.0</ele><time>2026-03-28T11:53:48Z</time></trkpt><trkpt lat="45.988575339175824" lon="5.312973818185308"><ele>228.5</ele><time>2026-03-28T11:53:49Z</time></trkpt><trkpt lat="45.988308365487406" lon="5.312945493823887"><ele>230.0</ele><time>2026-03-28T11:53:50Z</time></trkpt><trkpt lat="45.98803931706714" lon="5.312913226785873"><ele>230.0</ele><time>2026-03-28T11:53:51Z</time></trkpt><trkpt lat="45.98776764864018" lon="5.312879372165752"><ele>230.0</ele><time>2026-03-28T11:53:52Z</time></trkpt><trkpt lat="45.98749952912031" lon="5.312846448642475"><ele>231.0</ele><time>2026-03-28T11:53:53Z</time></trkpt><trkpt lat="45.98722891001485" lon="5.312812464823417"><ele>232.0</ele><time>2026-03-28T11:53:54Z</time></trkpt><trkpt lat="45.98695904072381" lon="5.31277331114303"><ele>232.0</ele><time>2026-03-28T11:53:55Z</time></trkpt><trkpt lat="45.986687157836734" lon="5.312730687154079"><ele>232.0</ele><time>2026-03-28T11:53:56Z</time></trkpt><trkpt lat="45.986419951461535" lon="5.312689508621469"><ele>233.0</ele><time>2026-03-28T11:53:57Z</time></trkpt><trkpt lat="45.986150207519664" lon="5.312645415259476"><ele>234.0</ele><time>2026-03-28T11:53:58Z</time></trkpt><trkpt lat="45.98587946371708" lon="5.312600988838795"><ele>235.0</ele><time>2026-03-28T11:53:59Z</time></trkpt><trkpt lat="45.98561115605894" lon="5.312552496853167"><ele>236.0</ele><time>2026-03-28T11:54:00Z</time></trkpt><trkpt lat="45.9853407717236" lon="5.312502347355142"><ele>236.0</ele><time>2026-03-28T11:54:01Z</time></trkpt><trkpt lat="45.98507238215968" lon="5.312452152880996"><ele>236.0</ele><time>2026-03-28T11:54:02Z</time></trkpt><trkpt lat="45.98480324400963" lon="5.312398524116826"><ele>236.0</ele><time>2026-03-28T11:54:03Z</time></trkpt><trkpt lat="45.984534469479385" lon="5.31234423214576"><ele>236.0</ele><time>2026-03-28T11:54:04Z</time></trkpt><trkpt lat="45.98426831996069" lon="5.3122882908475"><ele>237.0</ele><time>2026-03-28T11:54:05Z</time></trkpt><trkpt lat="45.984000401539305" lon="5.31222877907353"><ele>238.0</ele><time>2026-03-28T11:54:06Z</time></trkpt><trkpt lat="45.98372954828483" lon="5.312171355168096"><ele>238.0</ele><time>2026-03-28T11:54:07Z</time></trkpt><trkpt lat="45.98346003723303" lon="5.312110591794651"><ele>238.0</ele><time>2026-03-28T11:54:08Z</time></trkpt><trkpt lat="45.98319133299318" lon="5.312046290442031"><ele>238.5</ele><time>2026-03-28T11:54:09Z</time></trkpt><trkpt lat="45.98292162966352" lon="5.311979342356613"><ele>239.0</ele><time>2026-03-28T11:54:10Z</time></trkpt><trkpt lat="45.9826538551103" lon="5.31191701658439"><ele>238.5</ele><time>2026-03-28T11:54:11Z</time></trkpt><trkpt lat="45.9823845990253" lon="5.311847298540422"><ele>238.0</ele><time>2026-03-28T11:54:12Z</time></trkpt><trkpt lat="45.982115165319236" lon="5.311777779810189"><ele>238.0</ele><time>2026-03-28T11:54:13Z</time></trkpt><trkpt lat="45.98184874832191" lon="5.3117031901959395"><ele>238.0</ele><time>2026-03-28T11:54:14Z</time></trkpt><trkpt lat="45.98158125368903" lon="5.311631349512701"><ele>237.5</ele><time>2026-03-28T11:54:15Z</time></trkpt><trkpt lat="45.98131206472358" lon="5.311557002521541"><ele>237.0</ele><time>2026-03-28T11:54:16Z</time></trkpt><trkpt lat="45.98104507852455" lon="5.311485066220972"><ele>238.0</ele><time>2026-03-28T11:54:17Z</time></trkpt><trkpt lat="45.98077735852268" lon="5.3114132744961795"><ele>239.0</ele><time>2026-03-28T11:54:18Z</time></trkpt><trkpt lat="45.98050689409182" lon="5.311347397189649"><ele>239.5</ele><time>2026-03-28T11:54:19Z</time></trkpt><trkpt lat="45.9802334954561" lon="5.311273351219272"><ele>240.0</ele><time>2026-03-28T11:54:20Z</time></trkpt><trkpt lat="45.97996672629227" lon="5.311199958199764"><ele>240.0</ele><time>2026-03-28T11:54:21Z</time></trkpt><trkpt lat="45.979701158383456" lon="5.311122811922367"><ele>240.0</ele><time>2026-03-28T11:54:22Z</time></trkpt><trkpt lat="45.97943688359969" lon="5.311046496498315"><ele>240.0</ele><time>2026-03-28T11:54:23Z</time></trkpt><trkpt lat="45.97916947006296" lon="5.310972424813011"><ele>240.0</ele><time>2026-03-28T11:54:24Z</time></trkpt><trkpt lat="45.97890405417767" lon="5.310896719941412"><ele>240.0</ele><time>2026-03-28T11:54:25Z</time></trkpt><trkpt lat="45.97863582880716" lon="5.310823515868412"><ele>240.0</ele><time>2026-03-28T11:54:26Z</time></trkpt><trkpt lat="45.97836676552398" lon="5.310744136596553"><ele>239.5</ele><time>2026-03-28T11:54:27Z</time></trkpt><trkpt lat="45.9780978210586" lon="5.310667934997214"><ele>239.0</ele><time>2026-03-28T11:54:28Z</time></trkpt><trkpt lat="45.977828625104266" lon="5.310590685160584"><ele>239.5</ele><time>2026-03-28T11:54:29Z</time></trkpt><trkpt lat="45.97755819791884" lon="5.3105172663599"><ele>240.0</ele><time>2026-03-28T11:54:30Z</time></trkpt><trkpt lat="45.97729139991443" lon="5.310441753601432"><ele>240.0</ele><time>2026-03-28T11:54:31Z</time></trkpt><trkpt lat="45.97702043287916" lon="5.310371374540988"><ele>240.0</ele><time>2026-03-28T11:54:32Z</time></trkpt><trkpt lat="45.97674937515779" lon="5.310288595733592"><ele>240.5</ele><time>2026-03-28T11:54:33Z</time></trkpt><trkpt lat="45.97648005067808" lon="5.310206131839573"><ele>241.0</ele><time>2026-03-28T11:54:34Z</time></trkpt><trkpt lat="45.97621223978032" lon="5.310126807557305"><ele>241.0</ele><time>2026-03-28T11:54:35Z</time></trkpt><trkpt lat="45.97594750082164" lon="5.310046342063452"><ele>241.0</ele><time>2026-03-28T11:54:36Z</time></trkpt><trkpt lat="45.97567950566283" lon="5.309966353454607"><ele>239.5</ele><time>2026-03-28T11:54:37Z</time></trkpt><trkpt lat="45.97541015779048" lon="5.309882724643313"><ele>238.0</ele><time>2026-03-28T11:54:38Z</time></trkpt><trkpt lat="45.975144290703746" lon="5.309807190069429"><ele>239.0</ele><time>2026-03-28T11:54:39Z</time></trkpt><trkpt lat="45.974877230804935" lon="5.309729275230669"><ele>240.0</ele><time>2026-03-28T11:54:40Z</time></trkpt><trkpt lat="45.974611530538084" lon="5.309650329951792"><ele>240.0</ele><time>2026-03-28T11:54:41Z</time></trkpt><trkpt lat="45.974350720892886" lon="5.3095787023171646"><ele>240.0</ele><time>2026-03-28T11:54:42Z</time></trkpt><trkpt lat="45.97408797851616" lon="5.309505118945073"><ele>238.5</ele><time>2026-03-28T11:54:43Z</time></trkpt><trkpt lat="45.97382449605259" lon="5.3094357870725215"><ele>237.0</ele><time>2026-03-28T11:54:44Z</time></trkpt><trkpt lat="45.973556311211134" lon="5.3093664931617"><ele>235.5</ele><time>2026-03-28T11:54:45Z</time></trkpt><trkpt lat="45.97328817023148" lon="5.309296253685001"><ele>234.0</ele><time>2026-03-28T11:54:46Z</time></trkpt><trkpt lat="45.97301922145305" lon="5.30922655736194"><ele>234.0</ele><time>2026-03-28T11:54:47Z</time></trkpt><trkpt lat="45.972747354350716" lon="5.30915280906529"><ele>234.0</ele><time>2026-03-28T11:54:48Z</time></trkpt><trkpt lat="45.9724764827806" lon="5.309078658695901"><ele>234.5</ele><time>2026-03-28T11:54:49Z</time></trkpt><trkpt lat="45.97219732268719" lon="5.308998859496531"><ele>235.0</ele><time>2026-03-28T11:54:50Z</time></trkpt><trkpt lat="45.97192652173075" lon="5.308929836642285"><ele>234.5</ele><time>2026-03-28T11:54:51Z</time></trkpt><trkpt lat="45.97165549821908" lon="5.308850310006044"><ele>234.0</ele><time>2026-03-28T11:54:52Z</time></trkpt><trkpt lat="45.97138855134984" lon="5.308776372902856"><ele>234.0</ele><time>2026-03-28T11:54:53Z</time></trkpt><trkpt lat="45.97111804387062" lon="5.30869648531238"><ele>234.0</ele><time>2026-03-28T11:54:54Z</time></trkpt><trkpt lat="45.97084796167231" lon="5.3086199247633825"><ele>233.5</ele><time>2026-03-28T11:54:55Z</time></trkpt><trkpt lat="45.97057835434626" lon="5.308546914169762"><ele>233.0</ele><time>2026-03-28T11:54:56Z</time></trkpt><trkpt lat="45.97030690892069" lon="5.308465976556841"><ele>233.0</ele><time>2026-03-28T11:54:57Z</time></trkpt><trkpt lat="45.97003485089928" lon="5.3083876013538625"><ele>233.0</ele><time>2026-03-28T11:54:58Z</time></trkpt><trkpt lat="45.96976626122342" lon="5.308308567634172"><ele>233.0</ele><time>2026-03-28T11:54:59Z</time></trkpt><trkpt lat="45.96950121597903" lon="5.308221010508925"><ele>233.0</ele><time>2026-03-28T11:55:00Z</time></trkpt><trkpt lat="45.96923386471268" lon="5.3081258788675445"><ele>233.0</ele><time>2026-03-28T11:55:01Z</time></trkpt><trkpt lat="45.96896855140138" lon="5.308038056756254"><ele>233.0</ele><time>2026-03-28T11:55:02Z</time></trkpt><trkpt lat="45.96869997485874" lon="5.307953631399319"><ele>233.0</ele><time>2026-03-28T11:55:03Z</time></trkpt><trkpt lat="45.96843239561158" lon="5.30787266833365"><ele>233.0</ele><time>2026-03-28T11:55:04Z</time></trkpt><trkpt lat="45.968169799305045" lon="5.30779489604694"><ele>232.5</ele><time>2026-03-28T11:55:05Z</time></trkpt><trkpt lat="45.96790471090164" lon="5.307717825509117"><ele>232.0</ele><time>2026-03-28T11:55:06Z</time></trkpt><trkpt lat="45.967638944372965" lon="5.307639658913458"><ele>232.5</ele><time>2026-03-28T11:55:07Z</time></trkpt><trkpt lat="45.96737356636134" lon="5.3075615247645995"><ele>233.0</ele><time>2026-03-28T11:55:08Z</time></trkpt><trkpt lat="45.96710704957688" lon="5.307482734794524"><ele>233.0</ele><time>2026-03-28T11:55:09Z</time></trkpt><trkpt lat="45.96684062520914" lon="5.307405125384604"><ele>233.0</ele><time>2026-03-28T11:55:10Z</time></trkpt><trkpt lat="45.96657636027274" lon="5.307327582980192"><ele>233.5</ele><time>2026-03-28T11:55:11Z</time></trkpt><trkpt lat="45.96631316362646" lon="5.307250305011314"><ele>234.0</ele><time>2026-03-28T11:55:12Z</time></trkpt><trkpt lat="45.96604883301173" lon="5.307172977088444"><ele>234.0</ele><time>2026-03-28T11:55:13Z</time></trkpt><trkpt lat="45.96578503737098" lon="5.307098159432304"><ele>234.0</ele><time>2026-03-28T11:55:14Z</time></trkpt><trkpt lat="45.96551957194819" lon="5.307017285117165"><ele>234.0</ele><time>2026-03-28T11:55:15Z</time></trkpt><trkpt lat="45.96525404080654" lon="5.306937595822701"><ele>234.0</ele><time>2026-03-28T11:55:16Z</time></trkpt><trkpt lat="45.96498988841905" lon="5.306859251678255"><ele>234.5</ele><time>2026-03-28T11:55:17Z</time></trkpt><trkpt lat="45.96472487577411" lon="5.30678149825552"><ele>235.0</ele><time>2026-03-28T11:55:18Z</time></trkpt><trkpt lat="45.96445887549446" lon="5.3066988846386876"><ele>235.0</ele><time>2026-03-28T11:55:19Z</time></trkpt><trkpt lat="45.9641933119493" lon="5.30661964410775"><ele>235.0</ele><time>2026-03-28T11:55:20Z</time></trkpt><trkpt lat="45.963926906799934" lon="5.3065409504911605"><ele>235.0</ele><time>2026-03-28T11:55:21Z</time></trkpt><trkpt lat="45.96366525062979" lon="5.3064691773793635"><ele>235.0</ele><time>2026-03-28T11:55:22Z</time></trkpt><trkpt lat="45.96340349213924" lon="5.306390725087212"><ele>235.0</ele><time>2026-03-28T11:55:23Z</time></trkpt><trkpt lat="45.96313884333967" lon="5.306306202401024"><ele>235.0</ele><time>2026-03-28T11:55:24Z</time></trkpt><trkpt lat="45.9628751011922" lon="5.306230874321767"><ele>235.0</ele><time>2026-03-28T11:55:25Z</time></trkpt><trkpt lat="45.96261094449818" lon="5.306156886319722"><ele>235.0</ele><time>2026-03-28T11:55:26Z</time></trkpt><trkpt lat="45.96234506377531" lon="5.306075840139907"><ele>235.0</ele><time>2026-03-28T11:55:27Z</time></trkpt><trkpt lat="45.962079091118014" lon="5.305993843395923"><ele>235.0</ele><time>2026-03-28T11:55:28Z</time></trkpt><trkpt lat="45.961813530389655" lon="5.305915845012454"><ele>234.5</ele><time>2026-03-28T11:55:29Z</time></trkpt><trkpt lat="45.96154814112407" lon="5.305839079788975"><ele>234.0</ele><time>2026-03-28T11:55:30Z</time></trkpt><trkpt lat="45.961286116639464" lon="5.305759790428589"><ele>234.0</ele><time>2026-03-28T11:55:31Z</time></trkpt><trkpt lat="45.96102043476097" lon="5.305682960861275"><ele>234.0</ele><time>2026-03-28T11:55:32Z</time></trkpt><trkpt lat="45.96075407049295" lon="5.305603676680535"><ele>233.0</ele><time>2026-03-28T11:55:33Z</time></trkpt><trkpt lat="45.96048897487815" lon="5.305521327924928"><ele>232.0</ele><time>2026-03-28T11:55:34Z</time></trkpt><trkpt lat="45.96022743137275" lon="5.305438264845126"><ele>233.5</ele><time>2026-03-28T11:55:35Z</time></trkpt><trkpt lat="45.95995944469449" lon="5.305358385800246"><ele>235.0</ele><time>2026-03-28T11:55:36Z</time></trkpt><trkpt lat="45.95969019267696" lon="5.305283634764127"><ele>235.0</ele><time>2026-03-28T11:55:37Z</time></trkpt><trkpt lat="45.95942666958902" lon="5.3052051879427635"><ele>235.0</ele><time>2026-03-28T11:55:38Z</time></trkpt><trkpt lat="45.959164901960314" lon="5.305124999571149"><ele>234.5</ele><time>2026-03-28T11:55:39Z</time></trkpt><trkpt lat="45.95890309257385" lon="5.305045738336914"><ele>234.0</ele><time>2026-03-28T11:55:40Z</time></trkpt><trkpt lat="45.95864360614773" lon="5.304971560378848"><ele>234.0</ele><time>2026-03-28T11:55:41Z</time></trkpt><trkpt lat="45.958382247031146" lon="5.304900279479824"><ele>234.0</ele><time>2026-03-28T11:55:42Z</time></trkpt><trkpt lat="45.95812019536981" lon="5.304824103114096"><ele>235.0</ele><time>2026-03-28T11:55:43Z</time></trkpt><trkpt lat="45.957857284235445" lon="5.3047487463424"><ele>236.0</ele><time>2026-03-28T11:55:44Z</time></trkpt><trkpt lat="45.95759009470165" lon="5.304668104360741"><ele>236.5</ele><time>2026-03-28T11:55:45Z</time></trkpt><trkpt lat="45.957326816254735" lon="5.304588554815946"><ele>237.0</ele><time>2026-03-28T11:55:46Z</time></trkpt><trkpt lat="45.95706073340609" lon="5.304505929929473"><ele>237.0</ele><time>2026-03-28T11:55:47Z</time></trkpt><trkpt lat="45.95679563539174" lon="5.304416273635007"><ele>237.0</ele><time>2026-03-28T11:55:48Z</time></trkpt><trkpt lat="45.956530603779136" lon="5.304323810960622"><ele>235.5</ele><time>2026-03-28T11:55:49Z</time></trkpt><trkpt lat="45.95626520027667" lon="5.304228318387156"><ele>234.0</ele><time>2026-03-28T11:55:50Z</time></trkpt><trkpt lat="45.956000650739576" lon="5.304131758096064"><ele>234.5</ele><time>2026-03-28T11:55:51Z</time></trkpt><trkpt lat="45.95573382721618" lon="5.3040282158483825"><ele>235.0</ele><time>2026-03-28T11:55:52Z</time></trkpt><trkpt lat="45.95546881845257" lon="5.303923683436282"><ele>235.5</ele><time>2026-03-28T11:55:53Z</time></trkpt><trkpt lat="45.955203730312554" lon="5.303817840258373"><ele>236.0</ele><time>2026-03-28T11:55:54Z</time></trkpt><trkpt lat="45.95493769112585" lon="5.303709386510399"><ele>236.0</ele><time>2026-03-28T11:55:55Z</time></trkpt><trkpt lat="45.95467554959683" lon="5.303599657231078"><ele>236.0</ele><time>2026-03-28T11:55:56Z</time></trkpt><trkpt lat="45.954411379191534" lon="5.303488419200877"><ele>235.5</ele><time>2026-03-28T11:55:57Z</time></trkpt><trkpt lat="45.954148570648265" lon="5.303373460439354"><ele>235.0</ele><time>2026-03-28T11:55:58Z</time></trkpt><trkpt lat="45.95388962958241" lon="5.303253319007425"><ele>235.0</ele><time>2026-03-28T11:55:59Z</time></trkpt><trkpt lat="45.95362916139194" lon="5.303130387627541"><ele>235.0</ele><time>2026-03-28T11:56:00Z</time></trkpt><trkpt lat="45.95337063550574" lon="5.3030076229409415"><ele>234.5</ele><time>2026-03-28T11:56:01Z</time></trkpt><trkpt lat="45.95311238419792" lon="5.3028773745686495"><ele>234.0</ele><time>2026-03-28T11:56:02Z</time></trkpt><trkpt lat="45.9528573361717" lon="5.302741849701859"><ele>234.0</ele><time>2026-03-28T11:56:03Z</time></trkpt><trkpt lat="45.95260272763428" lon="5.302603592156249"><ele>234.0</ele><time>2026-03-28T11:56:04Z</time></trkpt><trkpt lat="45.952347873931934" lon="5.302462453710091"><ele>234.0</ele><time>2026-03-28T11:56:05Z</time></trkpt><trkpt lat="45.9520929730439" lon="5.30231634185102"><ele>234.0</ele><time>2026-03-28T11:56:06Z</time></trkpt><trkpt lat="45.951840608256866" lon="5.3021703548792"><ele>233.5</ele><time>2026-03-28T11:56:07Z</time></trkpt><trkpt lat="45.95158741137371" lon="5.302025902691572"><ele>233.0</ele><time>2026-03-28T11:56:08Z</time></trkpt><trkpt lat="45.9513342226749" lon="5.301878017601129"><ele>233.0</ele><time>2026-03-28T11:56:09Z</time></trkpt><trkpt lat="45.95108476874462" lon="5.301729287178403"><ele>233.0</ele><time>2026-03-28T11:56:10Z</time></trkpt><trkpt lat="45.9508356764674" lon="5.3015761321201875"><ele>233.0</ele><time>2026-03-28T11:56:11Z</time></trkpt><trkpt lat="45.950590689099506" lon="5.301423487972717"><ele>233.0</ele><time>2026-03-28T11:56:12Z</time></trkpt><trkpt lat="45.95034694879377" lon="5.301273011277745"><ele>232.5</ele><time>2026-03-28T11:56:13Z</time></trkpt><trkpt lat="45.9501063661211" lon="5.301124062230928"><ele>232.0</ele><time>2026-03-28T11:56:14Z</time></trkpt><trkpt lat="45.94986658696148" lon="5.300972532477758"><ele>232.0</ele><time>2026-03-28T11:56:15Z</time></trkpt><trkpt lat="45.94962673134185" lon="5.300813521709612"><ele>232.0</ele><time>2026-03-28T11:56:16Z</time></trkpt><trkpt lat="45.94938527304504" lon="5.300648000713012"><ele>233.0</ele><time>2026-03-28T11:56:17Z</time></trkpt><trkpt lat="45.949144650306216" lon="5.300476240725917"><ele>234.0</ele><time>2026-03-28T11:56:18Z</time></trkpt><trkpt lat="45.948904776961584" lon="5.300295779999428"><ele>234.0</ele><time>2026-03-28T11:56:19Z</time></trkpt><trkpt lat="45.948662765807306" lon="5.30011297374663"><ele>234.0</ele><time>2026-03-28T11:56:20Z</time></trkpt><trkpt lat="45.94842520235359" lon="5.2999249878022985"><ele>233.0</ele><time>2026-03-28T11:56:21Z</time></trkpt><trkpt lat="45.94818930837541" lon="5.299733901478071"><ele>232.0</ele><time>2026-03-28T11:56:22Z</time></trkpt><trkpt lat="45.94795374148528" lon="5.299538210728708"><ele>232.0</ele><time>2026-03-28T11:56:23Z</time></trkpt><trkpt lat="45.94771873136922" lon="5.2993387586882434"><ele>232.0</ele><time>2026-03-28T11:56:24Z</time></trkpt><trkpt lat="45.9474811227299" lon="5.299134795292784"><ele>232.5</ele><time>2026-03-28T11:56:25Z</time></trkpt><trkpt lat="45.94724581170649" lon="5.298926099228662"><ele>233.0</ele><time>2026-03-28T11:56:26Z</time></trkpt><trkpt lat="45.947010484751104" lon="5.298717545279631"><ele>232.5</ele><time>2026-03-28T11:56:27Z</time></trkpt><trkpt lat="45.94677579440564" lon="5.298505141679151"><ele>232.0</ele><time>2026-03-28T11:56:28Z</time></trkpt><trkpt lat="45.94654548579118" lon="5.29828674170883"><ele>231.5</ele><time>2026-03-28T11:56:29Z</time></trkpt><trkpt lat="45.94631729279375" lon="5.298063093865608"><ele>231.0</ele><time>2026-03-28T11:56:30Z</time></trkpt><trkpt lat="45.94609242250437" lon="5.297845294574367"><ele>231.5</ele><time>2026-03-28T11:56:31Z</time></trkpt><trkpt lat="45.94587132630354" lon="5.297617416620254"><ele>232.0</ele><time>2026-03-28T11:56:32Z</time></trkpt><trkpt lat="45.94565574864681" lon="5.297385590908929"><ele>231.5</ele><time>2026-03-28T11:56:33Z</time></trkpt><trkpt lat="45.9454400765083" lon="5.297146208476538"><ele>231.0</ele><time>2026-03-28T11:56:34Z</time></trkpt><trkpt lat="45.94522169477189" lon="5.2969009307290955"><ele>231.5</ele><time>2026-03-28T11:56:35Z</time></trkpt><trkpt lat="45.9450092502093" lon="5.296658917780952"><ele>232.0</ele><time>2026-03-28T11:56:36Z</time></trkpt><trkpt lat="45.944799814029565" lon="5.296417733377085"><ele>231.0</ele><time>2026-03-28T11:56:37Z</time></trkpt><trkpt lat="45.944588666026924" lon="5.296175178389667"><ele>230.0</ele><time>2026-03-28T11:56:38Z</time></trkpt><trkpt lat="45.94437872700084" lon="5.29592556680417"><ele>230.5</ele><time>2026-03-28T11:56:39Z</time></trkpt><trkpt lat="45.944170943180396" lon="5.295678073229472"><ele>231.0</ele><time>2026-03-28T11:56:40Z</time></trkpt><trkpt lat="45.94396661544242" lon="5.2954252723195125"><ele>231.5</ele><time>2026-03-28T11:56:41Z</time></trkpt><trkpt lat="45.943759635452686" lon="5.295167996176639"><ele>232.0</ele><time>2026-03-28T11:56:42Z</time></trkpt><trkpt lat="45.94355462936681" lon="5.294912259974464"><ele>233.0</ele><time>2026-03-28T11:56:43Z</time></trkpt><trkpt lat="45.94335436938231" lon="5.294650827122892"><ele>234.0</ele><time>2026-03-28T11:56:44Z</time></trkpt><trkpt lat="45.943151811444096" lon="5.294381358981221"><ele>234.0</ele><time>2026-03-28T11:56:45Z</time></trkpt><trkpt lat="45.94295389429555" lon="5.294115221147156"><ele>234.0</ele><time>2026-03-28T11:56:46Z</time></trkpt><trkpt lat="45.94275944885798" lon="5.2938389049128"><ele>233.5</ele><time>2026-03-28T11:56:47Z</time></trkpt><trkpt lat="45.94256454802792" lon="5.293558704933049"><ele>233.0</ele><time>2026-03-28T11:56:48Z</time></trkpt><trkpt lat="45.94237215282475" lon="5.293277404995682"><ele>233.5</ele><time>2026-03-28T11:56:49Z</time></trkpt><trkpt lat="45.94218033555596" lon="5.292993471598465"><ele>234.0</ele><time>2026-03-28T11:56:50Z</time></trkpt><trkpt lat="45.94199122311313" lon="5.292709509435805"><ele>234.0</ele><time>2026-03-28T11:56:51Z</time></trkpt><trkpt lat="45.94180119589251" lon="5.2924219093318605"><ele>234.0</ele><time>2026-03-28T11:56:52Z</time></trkpt><trkpt lat="45.94161278767106" lon="5.292125809802573"><ele>233.5</ele><time>2026-03-28T11:56:53Z</time></trkpt><trkpt lat="45.94143117413547" lon="5.291834019990699"><ele>233.0</ele><time>2026-03-28T11:56:54Z</time></trkpt><trkpt lat="45.941254121934826" lon="5.291538806810265"><ele>232.5</ele><time>2026-03-28T11:56:55Z</time></trkpt><trkpt lat="45.94107991136529" lon="5.2912390500860305"><ele>232.0</ele><time>2026-03-28T11:56:56Z</time></trkpt><trkpt lat="45.94090387603535" lon="5.290938374860604"><ele>232.0</ele><time>2026-03-28T11:56:57Z</time></trkpt><trkpt lat="45.94072770003629" lon="5.290635515300907"><ele>232.0</ele><time>2026-03-28T11:56:58Z</time></trkpt><trkpt lat="45.940554376254006" lon="5.290331540204077"><ele>231.5</ele><time>2026-03-28T11:56:59Z</time></trkpt><trkpt lat="45.94038237079057" lon="5.290025108738237"><ele>231.0</ele><time>2026-03-28T11:57:00Z</time></trkpt><trkpt lat="45.94021461712686" lon="5.289713115223477"><ele>230.5</ele><time>2026-03-28T11:57:01Z</time></trkpt><trkpt lat="45.940050194261964" lon="5.289396682535502"><ele>230.0</ele><time>2026-03-28T11:57:02Z</time></trkpt><trkpt lat="45.93988652357761" lon="5.289078291068672"><ele>230.0</ele><time>2026-03-28T11:57:03Z</time></trkpt><trkpt lat="45.93972317578572" lon="5.288763124558151"><ele>230.0</ele><time>2026-03-28T11:57:04Z</time></trkpt><trkpt lat="45.93956334583066" lon="5.288443297746981"><ele>230.0</ele><time>2026-03-28T11:57:05Z</time></trkpt><trkpt lat="45.939405804679886" lon="5.28812127729528"><ele>230.0</ele><time>2026-03-28T11:57:06Z</time></trkpt><trkpt lat="45.939253521944245" lon="5.28779890194778"><ele>230.0</ele><time>2026-03-28T11:57:07Z</time></trkpt><trkpt lat="45.939102044944654" lon="5.287477076014512"><ele>230.0</ele><time>2026-03-28T11:57:08Z</time></trkpt><trkpt lat="45.93895502645335" lon="5.287153554883383"><ele>230.0</ele><time>2026-03-28T11:57:09Z</time></trkpt><trkpt lat="45.938808221634524" lon="5.2868267179844235"><ele>230.0</ele><time>2026-03-28T11:57:10Z</time></trkpt><trkpt lat="45.93866284156129" lon="5.286501391344031"><ele>229.5</ele><time>2026-03-28T11:57:11Z</time></trkpt><trkpt lat="45.938519539254656" lon="5.286174819701871"><ele>229.0</ele><time>2026-03-28T11:57:12Z</time></trkpt><trkpt lat="45.93837820602141" lon="5.285847847411902"><ele>231.0</ele><time>2026-03-28T11:57:13Z</time></trkpt><trkpt lat="45.93823932367804" lon="5.285516957344983"><ele>233.0</ele><time>2026-03-28T11:57:14Z</time></trkpt><trkpt lat="45.93810001359266" lon="5.285188290574473"><ele>233.0</ele><time>2026-03-28T11:57:15Z</time></trkpt><trkpt lat="45.93795844351219" lon="5.2848632336557255"><ele>233.0</ele><time>2026-03-28T11:57:16Z</time></trkpt><trkpt lat="45.93781740849735" lon="5.2845405083301955"><ele>231.5</ele><time>2026-03-28T11:57:17Z</time></trkpt><trkpt lat="45.9376778064438" lon="5.284213825940401"><ele>230.0</ele><time>2026-03-28T11:57:18Z</time></trkpt><trkpt lat="45.93753938897368" lon="5.283888101357342"><ele>230.0</ele><time>2026-03-28T11:57:19Z</time></trkpt><trkpt lat="45.937399469187476" lon="5.283561177313235"><ele>230.0</ele><time>2026-03-28T11:57:20Z</time></trkpt><trkpt lat="45.93725455070539" lon="5.283235816386514"><ele>228.5</ele><time>2026-03-28T11:57:21Z</time></trkpt><trkpt lat="45.93710639137179" lon="5.282911644904215"><ele>227.0</ele><time>2026-03-28T11:57:22Z</time></trkpt><trkpt lat="45.93695418516113" lon="5.2825882104402275"><ele>227.0</ele><time>2026-03-28T11:57:23Z</time></trkpt><trkpt lat="45.93679827290464" lon="5.282267747807936"><ele>227.0</ele><time>2026-03-28T11:57:24Z</time></trkpt><trkpt lat="45.93663429208988" lon="5.2819520582139665"><ele>227.0</ele><time>2026-03-28T11:57:25Z</time></trkpt><trkpt lat="45.93646414585687" lon="5.2816409121538985"><ele>227.0</ele><time>2026-03-28T11:57:26Z</time></trkpt><trkpt lat="45.936289170392754" lon="5.281339148955789"><ele>227.0</ele><time>2026-03-28T11:57:27Z</time></trkpt><trkpt lat="45.93611017803702" lon="5.281039728411986"><ele>227.0</ele><time>2026-03-28T11:57:28Z</time></trkpt><trkpt lat="45.935929296312594" lon="5.2807418309870595"><ele>227.5</ele><time>2026-03-28T11:57:29Z</time></trkpt><trkpt lat="45.93574368943144" lon="5.280451711878548"><ele>228.0</ele><time>2026-03-28T11:57:30Z</time></trkpt><trkpt lat="45.93555262855238" lon="5.2801673529198"><ele>228.0</ele><time>2026-03-28T11:57:31Z</time></trkpt><trkpt lat="45.9353572802689" lon="5.279887339577862"><ele>228.0</ele><time>2026-03-28T11:57:32Z</time></trkpt><trkpt lat="45.9351577300889" lon="5.279612780541435"><ele>228.5</ele><time>2026-03-28T11:57:33Z</time></trkpt><trkpt lat="45.93495571975516" lon="5.279343389133472"><ele>229.0</ele><time>2026-03-28T11:57:34Z</time></trkpt><trkpt lat="45.93474759204512" lon="5.279082947110511"><ele>227.5</ele><time>2026-03-28T11:57:35Z</time></trkpt><trkpt lat="45.93453524457165" lon="5.278829294628696"><ele>226.0</ele><time>2026-03-28T11:57:36Z</time></trkpt><trkpt lat="45.934318223587375" lon="5.278577842461303"><ele>227.5</ele><time>2026-03-28T11:57:37Z</time></trkpt><trkpt lat="45.9340989915334" lon="5.278332812131642"><ele>229.0</ele><time>2026-03-28T11:57:38Z</time></trkpt><trkpt lat="45.93387719096263" lon="5.278100106235663"><ele>229.0</ele><time>2026-03-28T11:57:39Z</time></trkpt><trkpt lat="45.9336498421465" lon="5.277875069600345"><ele>229.0</ele><time>2026-03-28T11:57:40Z</time></trkpt><trkpt lat="45.93341890299371" lon="5.2776513778892715"><ele>229.0</ele><time>2026-03-28T11:57:41Z</time></trkpt><trkpt lat="45.93318932509489" lon="5.2774412536019195"><ele>229.0</ele><time>2026-03-28T11:57:42Z</time></trkpt><trkpt lat="45.93294994652296" lon="5.2772280407929655"><ele>229.5</ele><time>2026-03-28T11:57:43Z</time></trkpt><trkpt lat="45.932714009165934" lon="5.277020484369819"><ele>230.0</ele><time>2026-03-28T11:57:44Z</time></trkpt><trkpt lat="45.93247645478453" lon="5.276811057853879"><ele>230.0</ele><time>2026-03-28T11:57:45Z</time></trkpt><trkpt lat="45.932237896208036" lon="5.276602049705374"><ele>230.0</ele><time>2026-03-28T11:57:46Z</time></trkpt><trkpt lat="45.93200213310599" lon="5.276393660087494"><ele>229.0</ele><time>2026-03-28T11:57:47Z</time></trkpt><trkpt lat="45.93176684090344" lon="5.276183444275834"><ele>228.0</ele><time>2026-03-28T11:57:48Z</time></trkpt><trkpt lat="45.93153426178497" lon="5.2759689630721835"><ele>228.0</ele><time>2026-03-28T11:57:49Z</time></trkpt><trkpt lat="45.93130122074805" lon="5.275754983503718"><ele>228.0</ele><time>2026-03-28T11:57:50Z</time></trkpt><trkpt lat="45.93107113985275" lon="5.275536906278809"><ele>227.0</ele><time>2026-03-28T11:57:51Z</time></trkpt><trkpt lat="45.93084193416186" lon="5.275318255379424"><ele>226.0</ele><time>2026-03-28T11:57:52Z</time></trkpt><trkpt lat="45.93061303015366" lon="5.2751025506174285"><ele>226.0</ele><time>2026-03-28T11:57:53Z</time></trkpt><trkpt lat="45.93038662830306" lon="5.274884863227723"><ele>226.0</ele><time>2026-03-28T11:57:54Z</time></trkpt><trkpt lat="45.93015828342875" lon="5.274665706835516"><ele>225.0</ele><time>2026-03-28T11:57:55Z</time></trkpt><trkpt lat="45.929935970441015" lon="5.274441583676353"><ele>224.0</ele><time>2026-03-28T11:57:56Z</time></trkpt><trkpt lat="45.9297134673547" lon="5.274216529449508"><ele>224.0</ele><time>2026-03-28T11:57:57Z</time></trkpt><trkpt lat="45.92949655478543" lon="5.273987610484743"><ele>224.0</ele><time>2026-03-28T11:57:58Z</time></trkpt><trkpt lat="45.92928027500331" lon="5.273757666876109"><ele>224.0</ele><time>2026-03-28T11:57:59Z</time></trkpt><trkpt lat="45.92906622415935" lon="5.273522858952799"><ele>224.0</ele><time>2026-03-28T11:58:00Z</time></trkpt><trkpt lat="45.928854037939495" lon="5.273287660834547"><ele>223.0</ele><time>2026-03-28T11:58:01Z</time></trkpt><trkpt lat="45.92864228750545" lon="5.273049436248968"><ele>222.0</ele><time>2026-03-28T11:58:02Z</time></trkpt><trkpt lat="45.928433961177355" lon="5.272808667995764"><ele>222.0</ele><time>2026-03-28T11:58:03Z</time></trkpt><trkpt lat="45.928225894151794" lon="5.272569367170127"><ele>222.0</ele><time>2026-03-28T11:58:04Z</time></trkpt><trkpt lat="45.92801971120442" lon="5.272326084292055"><ele>222.0</ele><time>2026-03-28T11:58:05Z</time></trkpt><trkpt lat="45.927816066021364" lon="5.272080640523341"><ele>222.0</ele><time>2026-03-28T11:58:06Z</time></trkpt><trkpt lat="45.92760904269441" lon="5.271829301211115"><ele>223.0</ele><time>2026-03-28T11:58:07Z</time></trkpt><trkpt lat="45.927403440377525" lon="5.271576321064873"><ele>224.0</ele><time>2026-03-28T11:58:08Z</time></trkpt><trkpt lat="45.927199989123906" lon="5.271321483280111"><ele>224.0</ele><time>2026-03-28T11:58:09Z</time></trkpt><trkpt lat="45.92700184867743" lon="5.271069686468398"><ele>224.0</ele><time>2026-03-28T11:58:10Z</time></trkpt><trkpt lat="45.926801842066816" lon="5.2708096398499125"><ele>224.0</ele><time>2026-03-28T11:58:11Z</time></trkpt><trkpt lat="45.92660227820906" lon="5.27054542957204"><ele>224.0</ele><time>2026-03-28T11:58:12Z</time></trkpt><trkpt lat="45.92640721735869" lon="5.270284715998206"><ele>224.0</ele><time>2026-03-28T11:58:13Z</time></trkpt><trkpt lat="45.92621069345586" lon="5.27002300142747"><ele>224.0</ele><time>2026-03-28T11:58:14Z</time></trkpt><trkpt lat="45.92601588422397" lon="5.269757153293445"><ele>224.5</ele><time>2026-03-28T11:58:15Z</time></trkpt><trkpt lat="45.925819340388735" lon="5.26948859421372"><ele>225.0</ele><time>2026-03-28T11:58:16Z</time></trkpt><trkpt lat="45.92562484696753" lon="5.269219453141692"><ele>225.0</ele><time>2026-03-28T11:58:17Z</time></trkpt><trkpt lat="45.92543236630629" lon="5.268947767478991"><ele>225.0</ele><time>2026-03-28T11:58:18Z</time></trkpt><trkpt lat="45.925242058070694" lon="5.26867337880994"><ele>226.0</ele><time>2026-03-28T11:58:19Z</time></trkpt><trkpt lat="45.925052594880896" lon="5.268399009491279"><ele>227.0</ele><time>2026-03-28T11:58:20Z</time></trkpt><trkpt lat="45.924861772421686" lon="5.2681206322391505"><ele>225.5</ele><time>2026-03-28T11:58:21Z</time></trkpt><trkpt lat="45.924671666739" lon="5.267842787834923"><ele>224.0</ele><time>2026-03-28T11:58:22Z</time></trkpt><trkpt lat="45.92448329753367" lon="5.267562473320423"><ele>224.0</ele><time>2026-03-28T11:58:23Z</time></trkpt><trkpt lat="45.924297138080114" lon="5.267283012484716"><ele>224.0</ele><time>2026-03-28T11:58:24Z</time></trkpt><trkpt lat="45.924113142727336" lon="5.267001444653609"><ele>224.5</ele><time>2026-03-28T11:58:25Z</time></trkpt><trkpt lat="45.923924500498735" lon="5.266717720050231"><ele>225.0</ele><time>2026-03-28T11:58:26Z</time></trkpt><trkpt lat="45.92374015201608" lon="5.266434506498929"><ele>225.0</ele><time>2026-03-28T11:58:27Z</time></trkpt><trkpt lat="45.92355689788628" lon="5.2661498254047245"><ele>225.0</ele><time>2026-03-28T11:58:28Z</time></trkpt><trkpt lat="45.92337401584493" lon="5.265864663659636"><ele>225.5</ele><time>2026-03-28T11:58:29Z</time></trkpt><trkpt lat="45.923188337093926" lon="5.265577040209229"><ele>226.0</ele><time>2026-03-28T11:58:30Z</time></trkpt><trkpt lat="45.92300289066154" lon="5.265291086490839"><ele>226.0</ele><time>2026-03-28T11:58:31Z</time></trkpt><trkpt lat="45.92281606368905" lon="5.265004730111124"><ele>226.0</ele><time>2026-03-28T11:58:32Z</time></trkpt><trkpt lat="45.92263489328883" lon="5.264718232016706"><ele>225.5</ele><time>2026-03-28T11:58:33Z</time></trkpt><trkpt lat="45.922453305622334" lon="5.264426203186152"><ele>225.0</ele><time>2026-03-28T11:58:34Z</time></trkpt><trkpt lat="45.92227508289343" lon="5.264137417573526"><ele>225.5</ele><time>2026-03-28T11:58:35Z</time></trkpt><trkpt lat="45.92209271136349" lon="5.263846504417282"><ele>226.0</ele><time>2026-03-28T11:58:36Z</time></trkpt><trkpt lat="45.9219158178867" lon="5.2635562038463775"><ele>226.0</ele><time>2026-03-28T11:58:37Z</time></trkpt><trkpt lat="45.921737256241244" lon="5.2632655560892205"><ele>226.0</ele><time>2026-03-28T11:58:38Z</time></trkpt><trkpt lat="45.921560028075554" lon="5.262975885713667"><ele>225.5</ele><time>2026-03-28T11:58:39Z</time></trkpt><trkpt lat="45.92138130113894" lon="5.26268797104504"><ele>225.0</ele><time>2026-03-28T11:58:40Z</time></trkpt><trkpt lat="45.92120358605794" lon="5.262395943194371"><ele>225.0</ele><time>2026-03-28T11:58:41Z</time></trkpt><trkpt lat="45.92102707391309" lon="5.262107038760655"><ele>225.0</ele><time>2026-03-28T11:58:42Z</time></trkpt><trkpt lat="45.92084908648329" lon="5.2618189100130905"><ele>225.0</ele><time>2026-03-28T11:58:43Z</time></trkpt><trkpt lat="45.92067016081874" lon="5.261531286863382"><ele>225.0</ele><time>2026-03-28T11:58:44Z</time></trkpt><trkpt lat="45.920492203645544" lon="5.261240353577324"><ele>225.0</ele><time>2026-03-28T11:58:45Z</time></trkpt><trkpt lat="45.920315251626874" lon="5.2609535836890196"><ele>225.0</ele><time>2026-03-28T11:58:46Z</time></trkpt><trkpt lat="45.920136543527214" lon="5.260664136453499"><ele>225.5</ele><time>2026-03-28T11:58:47Z</time></trkpt><trkpt lat="45.91995697609612" lon="5.260373640728485"><ele>226.0</ele><time>2026-03-28T11:58:48Z</time></trkpt><trkpt lat="45.91977726579035" lon="5.260086893001583"><ele>226.0</ele><time>2026-03-28T11:58:49Z</time></trkpt><trkpt lat="45.91959945656929" lon="5.259800194818835"><ele>226.0</ele><time>2026-03-28T11:58:50Z</time></trkpt><trkpt lat="45.919420327947996" lon="5.259507062411183"><ele>225.5</ele><time>2026-03-28T11:58:51Z</time></trkpt><trkpt lat="45.91924040891371" lon="5.259219203239683"><ele>225.0</ele><time>2026-03-28T11:58:52Z</time></trkpt><trkpt lat="45.91905916003902" lon="5.258928706945912"><ele>224.5</ele><time>2026-03-28T11:58:53Z</time></trkpt><trkpt lat="45.91887790586277" lon="5.258640057406115"><ele>224.0</ele><time>2026-03-28T11:58:54Z</time></trkpt><trkpt lat="45.91869701823322" lon="5.25835108875306"><ele>224.0</ele><time>2026-03-28T11:58:55Z</time></trkpt><trkpt lat="45.91851817147107" lon="5.25806120712645"><ele>224.0</ele><time>2026-03-28T11:58:56Z</time></trkpt><trkpt lat="45.91833852394166" lon="5.257771053692426"><ele>224.0</ele><time>2026-03-28T11:58:57Z</time></trkpt><trkpt lat="45.9181629354096" lon="5.25747956092885"><ele>224.0</ele><time>2026-03-28T11:58:58Z</time></trkpt><trkpt lat="45.91798851424868" lon="5.25718736959898"><ele>223.5</ele><time>2026-03-28T11:58:59Z</time></trkpt><trkpt lat="45.91780998413757" lon="5.256898451047552"><ele>223.0</ele><time>2026-03-28T11:59:00Z</time></trkpt><trkpt lat="45.917631482985016" lon="5.256610702429728"><ele>223.5</ele><time>2026-03-28T11:59:01Z</time></trkpt><trkpt lat="45.91745575762575" lon="5.25632424195922"><ele>224.0</ele><time>2026-03-28T11:59:02Z</time></trkpt><trkpt lat="45.917277245281674" lon="5.2560291960748335"><ele>224.0</ele><time>2026-03-28T11:59:03Z</time></trkpt><trkpt lat="45.91709987750238" lon="5.25573777208192"><ele>224.0</ele><time>2026-03-28T11:59:04Z</time></trkpt><trkpt lat="45.91692337211052" lon="5.2554497950517725"><ele>224.0</ele><time>2026-03-28T11:59:05Z</time></trkpt><trkpt lat="45.91674584970287" lon="5.255160034864809"><ele>224.0</ele><time>2026-03-28T11:59:06Z</time></trkpt><trkpt lat="45.91656734988633" lon="5.254870087141173"><ele>224.5</ele><time>2026-03-28T11:59:07Z</time></trkpt><trkpt lat="45.91639053492081" lon="5.254578604030977"><ele>225.0</ele><time>2026-03-28T11:59:08Z</time></trkpt><trkpt lat="45.91621413632782" lon="5.254285945303625"><ele>225.0</ele><time>2026-03-28T11:59:09Z</time></trkpt><trkpt lat="45.91603691228906" lon="5.253993565494455"><ele>225.0</ele><time>2026-03-28T11:59:10Z</time></trkpt><trkpt lat="45.91586120377339" lon="5.253700853165571"><ele>224.5</ele><time>2026-03-28T11:59:11Z</time></trkpt><trkpt lat="45.91568434041988" lon="5.253409786694779"><ele>224.0</ele><time>2026-03-28T11:59:12Z</time></trkpt><trkpt lat="45.91550976520436" lon="5.253118477062354"><ele>223.5</ele><time>2026-03-28T11:59:13Z</time></trkpt><trkpt lat="45.915336564170914" lon="5.252826057456045"><ele>223.0</ele><time>2026-03-28T11:59:14Z</time></trkpt><trkpt lat="45.91516268055979" lon="5.252531652169538"><ele>223.0</ele><time>2026-03-28T11:59:15Z</time></trkpt><trkpt lat="45.9149862375639" lon="5.252235495163934"><ele>223.0</ele><time>2026-03-28T11:59:16Z</time></trkpt><trkpt lat="45.91481254463552" lon="5.251940131769601"><ele>223.0</ele><time>2026-03-28T11:59:17Z</time></trkpt><trkpt lat="45.914639474793134" lon="5.251644480874739"><ele>223.0</ele><time>2026-03-28T11:59:18Z</time></trkpt><trkpt lat="45.91446460560121" lon="5.251347282332159"><ele>223.0</ele><time>2026-03-28T11:59:19Z</time></trkpt><trkpt lat="45.91429124611004" lon="5.251046109648869"><ele>223.0</ele><time>2026-03-28T11:59:20Z</time></trkpt><trkpt lat="45.91412046983922" lon="5.25074854174702"><ele>222.5</ele><time>2026-03-28T11:59:21Z</time></trkpt><trkpt lat="45.91394696780017" lon="5.2504520638944685"><ele>222.0</ele><time>2026-03-28T11:59:22Z</time></trkpt><trkpt lat="45.91377290828706" lon="5.250149740612002"><ele>222.0</ele><time>2026-03-28T11:59:23Z</time></trkpt><trkpt lat="45.913601012787744" lon="5.249852385050444"><ele>222.0</ele><time>2026-03-28T11:59:24Z</time></trkpt><trkpt lat="45.91342802658072" lon="5.249547656528775"><ele>222.0</ele><time>2026-03-28T11:59:25Z</time></trkpt><trkpt lat="45.91325443670482" lon="5.249245414597114"><ele>222.0</ele><time>2026-03-28T11:59:26Z</time></trkpt><trkpt lat="45.913085065698176" lon="5.248941495551098"><ele>222.5</ele><time>2026-03-28T11:59:27Z</time></trkpt><trkpt lat="45.91291478987111" lon="5.2486349235321965"><ele>223.0</ele><time>2026-03-28T11:59:28Z</time></trkpt><trkpt lat="45.912745510354185" lon="5.248327396867475"><ele>222.5</ele><time>2026-03-28T11:59:29Z</time></trkpt><trkpt lat="45.91257548016925" lon="5.248018003952094"><ele>222.0</ele><time>2026-03-28T11:59:30Z</time></trkpt><trkpt lat="45.91240743073488" lon="5.2477073252443995"><ele>222.0</ele><time>2026-03-28T11:59:31Z</time></trkpt><trkpt lat="45.91223751646503" lon="5.247396267217511"><ele>222.0</ele><time>2026-03-28T11:59:32Z</time></trkpt><trkpt lat="45.91207016968169" lon="5.247091717698048"><ele>222.5</ele><time>2026-03-28T11:59:33Z</time></trkpt><trkpt lat="45.91190137351394" lon="5.246778649617617"><ele>223.0</ele><time>2026-03-28T11:59:34Z</time></trkpt><trkpt lat="45.91173792666815" lon="5.246465347316637"><ele>221.0</ele><time>2026-03-28T11:59:35Z</time></trkpt><trkpt lat="45.91157058316389" lon="5.24615181109649"><ele>219.0</ele><time>2026-03-28T11:59:36Z</time></trkpt><trkpt lat="45.911406056780145" lon="5.245836617871113"><ele>217.5</ele><time>2026-03-28T11:59:37Z</time></trkpt><trkpt lat="45.911240566144464" lon="5.245525648088585"><ele>216.0</ele><time>2026-03-28T11:59:38Z</time></trkpt><trkpt lat="45.9110770972267" lon="5.245212137879461"><ele>216.0</ele><time>2026-03-28T11:59:39Z</time></trkpt><trkpt lat="45.910912770157424" lon="5.244897168955778"><ele>216.0</ele><time>2026-03-28T11:59:40Z</time></trkpt><trkpt lat="45.91074928914365" lon="5.244579920335868"><ele>216.5</ele><time>2026-03-28T11:59:41Z</time></trkpt><trkpt lat="45.91058393356371" lon="5.24426739900136"><ele>217.0</ele><time>2026-03-28T11:59:42Z</time></trkpt><trkpt lat="45.91041881740831" lon="5.243950927814695"><ele>217.0</ele><time>2026-03-28T11:59:43Z</time></trkpt><trkpt lat="45.91025591013051" lon="5.243633396958829"><ele>217.0</ele><time>2026-03-28T11:59:44Z</time></trkpt><trkpt lat="45.91009037029277" lon="5.243316609062439"><ele>217.5</ele><time>2026-03-28T11:59:45Z</time></trkpt><trkpt lat="45.909925989382835" lon="5.24300045995504"><ele>218.0</ele><time>2026-03-28T11:59:46Z</time></trkpt><trkpt lat="45.90976008036482" lon="5.242684451301065"><ele>218.0</ele><time>2026-03-28T11:59:47Z</time></trkpt><trkpt lat="45.909593846265004" lon="5.242369031088484"><ele>218.0</ele><time>2026-03-28T11:59:48Z</time></trkpt><trkpt lat="45.909429189970865" lon="5.242053615884186"><ele>217.0</ele><time>2026-03-28T11:59:49Z</time></trkpt><trkpt lat="45.909264409626246" lon="5.2417349695617315"><ele>216.0</ele><time>2026-03-28T11:59:50Z</time></trkpt><trkpt lat="45.90910082075389" lon="5.241418783210501"><ele>215.5</ele><time>2026-03-28T11:59:51Z</time></trkpt><trkpt lat="45.90893544336593" lon="5.24109958219255"><ele>215.0</ele><time>2026-03-28T11:59:52Z</time></trkpt><trkpt lat="45.90877149797772" lon="5.240780754624482"><ele>213.5</ele><time>2026-03-28T11:59:53Z</time></trkpt><trkpt lat="45.90860819556311" lon="5.240461332049225"><ele>212.0</ele><time>2026-03-28T11:59:54Z</time></trkpt><trkpt lat="45.908445611677" lon="5.240142356437268"><ele>212.5</ele><time>2026-03-28T11:59:55Z</time></trkpt><trkpt lat="45.90828548412957" lon="5.239823803519206"><ele>213.0</ele><time>2026-03-28T11:59:56Z</time></trkpt><trkpt lat="45.908125259708854" lon="5.239508715473919"><ele>213.0</ele><time>2026-03-28T11:59:57Z</time></trkpt><trkpt lat="45.90796281542043" lon="5.239191410638497"><ele>213.0</ele><time>2026-03-28T11:59:58Z</time></trkpt><trkpt lat="45.9078030358051" lon="5.238871054112427"><ele>214.0</ele><time>2026-03-28T11:59:59Z</time></trkpt><trkpt lat="45.90764454461505" lon="5.238551658658803"><ele>215.0</ele><time>2026-03-28T12:00:00Z</time></trkpt><trkpt lat="45.90748530942771" lon="5.238233857890824"><ele>216.0</ele><time>2026-03-28T12:00:01Z</time></trkpt><trkpt lat="45.90732445379154" lon="5.237915790944151"><ele>217.0</ele><time>2026-03-28T12:00:02Z</time></trkpt><trkpt lat="45.90716543560684" lon="5.23760363133546"><ele>217.0</ele><time>2026-03-28T12:00:03Z</time></trkpt><trkpt lat="45.907004557486836" lon="5.237292717207977"><ele>217.0</ele><time>2026-03-28T12:00:04Z</time></trkpt><trkpt lat="45.9068458242204" lon="5.236975605696154"><ele>217.0</ele><time>2026-03-28T12:00:05Z</time></trkpt><trkpt lat="45.90668495327831" lon="5.236658213420426"><ele>217.0</ele><time>2026-03-28T12:00:06Z</time></trkpt><trkpt lat="45.9065273342432" lon="5.236342980580245"><ele>217.0</ele><time>2026-03-28T12:00:07Z</time></trkpt><trkpt lat="45.90637021537521" lon="5.236023325704635"><ele>217.0</ele><time>2026-03-28T12:00:08Z</time></trkpt><trkpt lat="45.90621386311282" lon="5.235710411092725"><ele>216.5</ele><time>2026-03-28T12:00:09Z</time></trkpt><trkpt lat="45.906055720220046" lon="5.2353974888227315"><ele>216.0</ele><time>2026-03-28T12:00:10Z</time></trkpt><trkpt lat="45.9058992275612" lon="5.235084541478629"><ele>215.5</ele><time>2026-03-28T12:00:11Z</time></trkpt><trkpt lat="45.90574103435647" lon="5.2347676757579"><ele>215.0</ele><time>2026-03-28T12:00:12Z</time></trkpt><trkpt lat="45.90558516053095" lon="5.234452745739472"><ele>215.0</ele><time>2026-03-28T12:00:13Z</time></trkpt><trkpt lat="45.90542704451005" lon="5.234140091593542"><ele>215.0</ele><time>2026-03-28T12:00:14Z</time></trkpt><trkpt lat="45.90526978715616" lon="5.2338291747406505"><ele>215.0</ele><time>2026-03-28T12:00:15Z</time></trkpt><trkpt lat="45.90511041299423" lon="5.233516507657681"><ele>215.0</ele><time>2026-03-28T12:00:16Z</time></trkpt><trkpt lat="45.90495003445784" lon="5.233204404023999"><ele>216.5</ele><time>2026-03-28T12:00:17Z</time></trkpt><trkpt lat="45.904782269545265" lon="5.232898603448186"><ele>218.0</ele><time>2026-03-28T12:00:18Z</time></trkpt><trkpt lat="45.90462549765239" lon="5.232578183726584"><ele>218.0</ele><time>2026-03-28T12:00:19Z</time></trkpt><trkpt lat="45.90446789226866" lon="5.232260885557184"><ele>218.0</ele><time>2026-03-28T12:00:20Z</time></trkpt><trkpt lat="45.904308270402225" lon="5.231947974185969"><ele>218.0</ele><time>2026-03-28T12:00:21Z</time></trkpt><trkpt lat="45.90414917245658" lon="5.231634516327546"><ele>218.0</ele><time>2026-03-28T12:00:22Z</time></trkpt><trkpt lat="45.90399253210911" lon="5.231317086452707"><ele>218.0</ele><time>2026-03-28T12:00:23Z</time></trkpt><trkpt lat="45.90383020274253" lon="5.231003682920961"><ele>218.0</ele><time>2026-03-28T12:00:24Z</time></trkpt><trkpt lat="45.90366973119688" lon="5.230693332959824"><ele>218.0</ele><time>2026-03-28T12:00:25Z</time></trkpt><trkpt lat="45.90350589040751" lon="5.230393525933285"><ele>218.0</ele><time>2026-03-28T12:00:26Z</time></trkpt><trkpt lat="45.903342309464165" lon="5.230089398659112"><ele>218.0</ele><time>2026-03-28T12:00:27Z</time></trkpt><trkpt lat="45.90317597823865" lon="5.229788096917833"><ele>218.0</ele><time>2026-03-28T12:00:28Z</time></trkpt><trkpt lat="45.90300944296759" lon="5.229483909795213"><ele>218.0</ele><time>2026-03-28T12:00:29Z</time></trkpt><trkpt lat="45.90284237214164" lon="5.229179339086657"><ele>218.0</ele><time>2026-03-28T12:00:30Z</time></trkpt><trkpt lat="45.90267371528879" lon="5.228876558868799"><ele>218.5</ele><time>2026-03-28T12:00:31Z</time></trkpt><trkpt lat="45.902500920259996" lon="5.228578211911821"><ele>219.0</ele><time>2026-03-28T12:00:32Z</time></trkpt><trkpt lat="45.90232811578203" lon="5.228280123663491"><ele>218.5</ele><time>2026-03-28T12:00:33Z</time></trkpt><trkpt lat="45.902157181576605" lon="5.227986687198215"><ele>218.0</ele><time>2026-03-28T12:00:34Z</time></trkpt><trkpt lat="45.90198314963568" lon="5.227690933927308"><ele>218.0</ele><time>2026-03-28T12:00:35Z</time></trkpt><trkpt lat="45.901807885808644" lon="5.227397458942912"><ele>218.0</ele><time>2026-03-28T12:00:36Z</time></trkpt><trkpt lat="45.901628789864816" lon="5.227102693605748"><ele>218.0</ele><time>2026-03-28T12:00:37Z</time></trkpt><trkpt lat="45.901448071480836" lon="5.226812196017464"><ele>218.0</ele><time>2026-03-28T12:00:38Z</time></trkpt><trkpt lat="45.9012624935504" lon="5.226519363770413"><ele>218.0</ele><time>2026-03-28T12:00:39Z</time></trkpt><trkpt lat="45.901075708259626" lon="5.226227963591004"><ele>218.0</ele><time>2026-03-28T12:00:40Z</time></trkpt><trkpt lat="45.90088734529336" lon="5.225937122228774"><ele>218.0</ele><time>2026-03-28T12:00:41Z</time></trkpt><trkpt lat="45.90069683752434" lon="5.225652476064257"><ele>218.0</ele><time>2026-03-28T12:00:42Z</time></trkpt><trkpt lat="45.90050412707534" lon="5.225368751270975"><ele>218.0</ele><time>2026-03-28T12:00:43Z</time></trkpt><trkpt lat="45.900311442777756" lon="5.2250879456267985"><ele>218.0</ele><time>2026-03-28T12:00:44Z</time></trkpt><trkpt lat="45.90011514112984" lon="5.224809139353215"><ele>218.0</ele><time>2026-03-28T12:00:45Z</time></trkpt><trkpt lat="45.89991846227126" lon="5.2245296986664895"><ele>218.0</ele><time>2026-03-28T12:00:46Z</time></trkpt><trkpt lat="45.8997235385925" lon="5.224253064393948"><ele>218.0</ele><time>2026-03-28T12:00:47Z</time></trkpt><trkpt lat="45.89952212878655" lon="5.223978524728938"><ele>218.0</ele><time>2026-03-28T12:00:48Z</time></trkpt><trkpt lat="45.899319710109076" lon="5.223706360888444"><ele>218.5</ele><time>2026-03-28T12:00:49Z</time></trkpt><trkpt lat="45.89911989464542" lon="5.223437895449568"><ele>219.0</ele><time>2026-03-28T12:00:50Z</time></trkpt><trkpt lat="45.89891657179478" lon="5.223171276834777"><ele>219.0</ele><time>2026-03-28T12:00:51Z</time></trkpt><trkpt lat="45.89871493253794" lon="5.2229088436545315"><ele>219.0</ele><time>2026-03-28T12:00:52Z</time></trkpt><trkpt lat="45.89850869465581" lon="5.222646377376148"><ele>219.0</ele><time>2026-03-28T12:00:53Z</time></trkpt><trkpt lat="45.89830226193968" lon="5.222388638961524"><ele>219.0</ele><time>2026-03-28T12:00:54Z</time></trkpt><trkpt lat="45.89809361288682" lon="5.222133364711207"><ele>219.0</ele><time>2026-03-28T12:00:55Z</time></trkpt><trkpt lat="45.897884839086814" lon="5.221878941237121"><ele>219.0</ele><time>2026-03-28T12:00:56Z</time></trkpt><trkpt lat="45.8976760011696" lon="5.221626983649716"><ele>218.5</ele><time>2026-03-28T12:00:57Z</time></trkpt><trkpt lat="45.897461578078605" lon="5.2213766659138265"><ele>218.0</ele><time>2026-03-28T12:00:58Z</time></trkpt><trkpt lat="45.89725025643964" lon="5.221130041161592"><ele>218.0</ele><time>2026-03-28T12:00:59Z</time></trkpt><trkpt lat="45.89703817445283" lon="5.22088846855395"><ele>218.0</ele><time>2026-03-28T12:01:00Z</time></trkpt><trkpt lat="45.89682473499217" lon="5.22064960315907"><ele>218.0</ele><time>2026-03-28T12:01:01Z</time></trkpt><trkpt lat="45.89661173491977" lon="5.220411920942574"><ele>218.0</ele><time>2026-03-28T12:01:02Z</time></trkpt><trkpt lat="45.89639748363631" lon="5.220175705678648"><ele>218.0</ele><time>2026-03-28T12:01:03Z</time></trkpt><trkpt lat="45.89617995655565" lon="5.219941782183303"><ele>218.0</ele><time>2026-03-28T12:01:04Z</time></trkpt><trkpt lat="45.895964606965336" lon="5.2197167681532175"><ele>217.5</ele><time>2026-03-28T12:01:05Z</time></trkpt><trkpt lat="45.895748568678584" lon="5.219490151101425"><ele>217.0</ele><time>2026-03-28T12:01:06Z</time></trkpt><trkpt lat="45.89553214165922" lon="5.219271570133413"><ele>217.0</ele><time>2026-03-28T12:01:07Z</time></trkpt><trkpt lat="45.89531689816918" lon="5.219053426678004"><ele>217.0</ele><time>2026-03-28T12:01:08Z</time></trkpt><trkpt lat="45.89509861341399" lon="5.218837621023839"><ele>217.5</ele><time>2026-03-28T12:01:09Z</time></trkpt><trkpt lat="45.89488284520666" lon="5.2186232265732295"><ele>218.0</ele><time>2026-03-28T12:01:10Z</time></trkpt><trkpt lat="45.89466495191561" lon="5.2184135858605005"><ele>218.0</ele><time>2026-03-28T12:01:11Z</time></trkpt><trkpt lat="45.89444910809279" lon="5.218205305479624"><ele>218.0</ele><time>2026-03-28T12:01:12Z</time></trkpt><trkpt lat="45.89423307314921" lon="5.218002114872078"><ele>218.5</ele><time>2026-03-28T12:01:13Z</time></trkpt><trkpt lat="45.894016050854624" lon="5.217801587902653"><ele>219.0</ele><time>2026-03-28T12:01:14Z</time></trkpt><trkpt lat="45.893798577466775" lon="5.217607962718892"><ele>219.0</ele><time>2026-03-28T12:01:15Z</time></trkpt><trkpt lat="45.893581561499026" lon="5.217413050263448"><ele>219.0</ele><time>2026-03-28T12:01:16Z</time></trkpt><trkpt lat="45.893360453377646" lon="5.2172156337273945"><ele>217.5</ele><time>2026-03-28T12:01:17Z</time></trkpt><trkpt lat="45.89313821325006" lon="5.217021049081484"><ele>216.0</ele><time>2026-03-28T12:01:18Z</time></trkpt><trkpt lat="45.89291127298651" lon="5.216830289939149"><ele>216.0</ele><time>2026-03-28T12:01:19Z</time></trkpt><trkpt lat="45.89267680696558" lon="5.216645746698501"><ele>216.0</ele><time>2026-03-28T12:01:20Z</time></trkpt><trkpt lat="45.892442259043854" lon="5.216465224612064"><ele>216.5</ele><time>2026-03-28T12:01:21Z</time></trkpt><trkpt lat="45.892201169596156" lon="5.216288211680214"><ele>217.0</ele><time>2026-03-28T12:01:22Z</time></trkpt><trkpt lat="45.89196025473814" lon="5.216105665721553"><ele>216.0</ele><time>2026-03-28T12:01:23Z</time></trkpt><trkpt lat="45.89171827371718" lon="5.215914796262838"><ele>215.0</ele><time>2026-03-28T12:01:24Z</time></trkpt><trkpt lat="45.89147223534764" lon="5.2157292525902825"><ele>215.0</ele><time>2026-03-28T12:01:25Z</time></trkpt><trkpt lat="45.89122692823616" lon="5.215540910704377"><ele>215.0</ele><time>2026-03-28T12:01:26Z</time></trkpt><trkpt lat="45.89098179060311" lon="5.215356736769451"><ele>215.5</ele><time>2026-03-28T12:01:27Z</time></trkpt><trkpt lat="45.89073513357503" lon="5.215173802648819"><ele>216.0</ele><time>2026-03-28T12:01:28Z</time></trkpt><trkpt lat="45.89048739480078" lon="5.214993578451029"><ele>216.0</ele><time>2026-03-28T12:01:29Z</time></trkpt><trkpt lat="45.89023598685471" lon="5.214813406616675"><ele>216.0</ele><time>2026-03-28T12:01:30Z</time></trkpt><trkpt lat="45.889985250340054" lon="5.214637048164939"><ele>216.0</ele><time>2026-03-28T12:01:31Z</time></trkpt><trkpt lat="45.88973679185731" lon="5.214465715007805"><ele>216.0</ele><time>2026-03-28T12:01:32Z</time></trkpt><trkpt lat="45.889489884111725" lon="5.214297239732511"><ele>216.0</ele><time>2026-03-28T12:01:33Z</time></trkpt><trkpt lat="45.889241565964774" lon="5.214131751484645"><ele>216.0</ele><time>2026-03-28T12:01:34Z</time></trkpt><trkpt lat="45.88899357706808" lon="5.213967081138831"><ele>216.0</ele><time>2026-03-28T12:01:35Z</time></trkpt><trkpt lat="45.888745388691206" lon="5.213799469187596"><ele>216.0</ele><time>2026-03-28T12:01:36Z</time></trkpt><trkpt lat="45.88849436921226" lon="5.213633143325009"><ele>216.5</ele><time>2026-03-28T12:01:37Z</time></trkpt><trkpt lat="45.8882432544003" lon="5.213470510809049"><ele>217.0</ele><time>2026-03-28T12:01:38Z</time></trkpt><trkpt lat="45.88798901462545" lon="5.213306146771928"><ele>217.0</ele><time>2026-03-28T12:01:39Z</time></trkpt><trkpt lat="45.88773784283924" lon="5.213144022906692"><ele>217.0</ele><time>2026-03-28T12:01:40Z</time></trkpt><trkpt lat="45.887485679076256" lon="5.212982335648461"><ele>216.5</ele><time>2026-03-28T12:01:41Z</time></trkpt><trkpt lat="45.88723014914516" lon="5.212815972422867"><ele>216.0</ele><time>2026-03-28T12:01:42Z</time></trkpt><trkpt lat="45.88697463872526" lon="5.212651354130097"><ele>215.5</ele><time>2026-03-28T12:01:43Z</time></trkpt><trkpt lat="45.88672021299138" lon="5.212484599484434"><ele>215.0</ele><time>2026-03-28T12:01:44Z</time></trkpt><trkpt lat="45.88646644131999" lon="5.212315177494441"><ele>217.0</ele><time>2026-03-28T12:01:45Z</time></trkpt><trkpt lat="45.88621410699909" lon="5.212141711923189"><ele>219.0</ele><time>2026-03-28T12:01:46Z</time></trkpt><trkpt lat="45.88596375461256" lon="5.211966693708446"><ele>219.0</ele><time>2026-03-28T12:01:47Z</time></trkpt><trkpt lat="45.88571576344812" lon="5.211792479630311"><ele>219.0</ele><time>2026-03-28T12:01:48Z</time></trkpt><trkpt lat="45.88546303725658" lon="5.21162034226018"><ele>219.0</ele><time>2026-03-28T12:01:49Z</time></trkpt><trkpt lat="45.88521063034006" lon="5.211457244013484"><ele>219.0</ele><time>2026-03-28T12:01:50Z</time></trkpt><trkpt lat="45.884960667681945" lon="5.21129452334965"><ele>218.5</ele><time>2026-03-28T12:01:51Z</time></trkpt><trkpt lat="45.8847116780692" lon="5.211132301827454"><ele>218.0</ele><time>2026-03-28T12:01:52Z</time></trkpt><trkpt lat="45.88446273675797" lon="5.2109677720902985"><ele>218.0</ele><time>2026-03-28T12:01:53Z</time></trkpt><trkpt lat="45.884215165778485" lon="5.210804921271354"><ele>218.0</ele><time>2026-03-28T12:01:54Z</time></trkpt><trkpt lat="45.88397182589446" lon="5.210638629936043"><ele>217.0</ele><time>2026-03-28T12:01:55Z</time></trkpt><trkpt lat="45.88372970069153" lon="5.210473107787522"><ele>216.0</ele><time>2026-03-28T12:01:56Z</time></trkpt><trkpt lat="45.88348665885472" lon="5.210305409686311"><ele>217.0</ele><time>2026-03-28T12:01:57Z</time></trkpt><trkpt lat="45.88324278916041" lon="5.210138067961463"><ele>218.0</ele><time>2026-03-28T12:01:58Z</time></trkpt><trkpt lat="45.88300032614738" lon="5.209971327613126"><ele>218.0</ele><time>2026-03-28T12:01:59Z</time></trkpt><trkpt lat="45.882758980798314" lon="5.209797671316465"><ele>218.0</ele><time>2026-03-28T12:02:00Z</time></trkpt><trkpt lat="45.882518756712564" lon="5.209624587211321"><ele>217.5</ele><time>2026-03-28T12:02:01Z</time></trkpt><trkpt lat="45.88227888377795" lon="5.20944686365068"><ele>217.0</ele><time>2026-03-28T12:02:02Z</time></trkpt><trkpt lat="45.882039304717566" lon="5.209272163580599"><ele>217.0</ele><time>2026-03-28T12:02:03Z</time></trkpt><trkpt lat="45.881801768546055" lon="5.209090966706387"><ele>217.0</ele><time>2026-03-28T12:02:04Z</time></trkpt><trkpt lat="45.88156441959088" lon="5.208904770691775"><ele>217.0</ele><time>2026-03-28T12:02:05Z</time></trkpt><trkpt lat="45.88132684599201" lon="5.208722503308297"><ele>217.0</ele><time>2026-03-28T12:02:06Z</time></trkpt><trkpt lat="45.88109269194897" lon="5.208531754376914"><ele>217.0</ele><time>2026-03-28T12:02:07Z</time></trkpt><trkpt lat="45.88085592516551" lon="5.208337908313873"><ele>217.0</ele><time>2026-03-28T12:02:08Z</time></trkpt><trkpt lat="45.880621723196526" lon="5.208137649020994"><ele>217.0</ele><time>2026-03-28T12:02:09Z</time></trkpt><trkpt lat="45.88038855973643" lon="5.207938227560361"><ele>217.0</ele><time>2026-03-28T12:02:10Z</time></trkpt><trkpt lat="45.88015723405767" lon="5.2077352212684085"><ele>217.0</ele><time>2026-03-28T12:02:11Z</time></trkpt><trkpt lat="45.879926676515154" lon="5.207530770408295"><ele>217.0</ele><time>2026-03-28T12:02:12Z</time></trkpt><trkpt lat="45.879696303815955" lon="5.207326863277983"><ele>217.0</ele><time>2026-03-28T12:02:13Z</time></trkpt><trkpt lat="45.8794655593746" lon="5.207120329930747"><ele>217.0</ele><time>2026-03-28T12:02:14Z</time></trkpt><trkpt lat="45.87923750316907" lon="5.2069095766537234"><ele>217.0</ele><time>2026-03-28T12:02:15Z</time></trkpt><trkpt lat="45.8790065517443" lon="5.206697637488365"><ele>217.0</ele><time>2026-03-28T12:02:16Z</time></trkpt><trkpt lat="45.878779247769295" lon="5.206480483578348"><ele>217.0</ele><time>2026-03-28T12:02:17Z</time></trkpt><trkpt lat="45.8785544267263" lon="5.20626241816444"><ele>217.0</ele><time>2026-03-28T12:02:18Z</time></trkpt><trkpt lat="45.878327132403506" lon="5.206041434440997"><ele>217.0</ele><time>2026-03-28T12:02:19Z</time></trkpt><trkpt lat="45.87810192813424" lon="5.20582114730007"><ele>217.0</ele><time>2026-03-28T12:02:20Z</time></trkpt><trkpt lat="45.87787934249378" lon="5.2055987384360405"><ele>216.5</ele><time>2026-03-28T12:02:21Z</time></trkpt><trkpt lat="45.87765651346134" lon="5.205369602826398"><ele>216.0</ele><time>2026-03-28T12:02:22Z</time></trkpt><trkpt lat="45.87743366858951" lon="5.205138484718276"><ele>215.5</ele><time>2026-03-28T12:02:23Z</time></trkpt><trkpt lat="45.87721280097406" lon="5.204906814235519"><ele>215.0</ele><time>2026-03-28T12:02:24Z</time></trkpt><trkpt lat="45.87699713783793" lon="5.204674494146042"><ele>215.0</ele><time>2026-03-28T12:02:25Z</time></trkpt><trkpt lat="45.876779562860705" lon="5.204437831602227"><ele>215.0</ele><time>2026-03-28T12:02:26Z</time></trkpt><trkpt lat="45.876563360253414" lon="5.204198870559561"><ele>215.0</ele><time>2026-03-28T12:02:27Z</time></trkpt><trkpt lat="45.876348971701965" lon="5.203955022142546"><ele>215.0</ele><time>2026-03-28T12:02:28Z</time></trkpt><trkpt lat="45.87613581045536" lon="5.203709344049237"><ele>215.5</ele><time>2026-03-28T12:02:29Z</time></trkpt><trkpt lat="45.87592692081802" lon="5.203463070479295"><ele>216.0</ele><time>2026-03-28T12:02:30Z</time></trkpt><trkpt lat="45.87572467044563" lon="5.2032235353314515"><ele>215.5</ele><time>2026-03-28T12:02:31Z</time></trkpt><trkpt lat="45.875527066458794" lon="5.202986733220198"><ele>215.0</ele><time>2026-03-28T12:02:32Z</time></trkpt><trkpt lat="45.87533498011353" lon="5.2027553170753436"><ele>215.0</ele><time>2026-03-28T12:02:33Z</time></trkpt><trkpt lat="45.875140936578944" lon="5.202525148346356"><ele>215.0</ele><time>2026-03-28T12:02:34Z</time></trkpt><trkpt lat="45.87495737141282" lon="5.2022968794294435"><ele>215.0</ele><time>2026-03-28T12:02:35Z</time></trkpt><trkpt lat="45.87477660909043" lon="5.202074894331514"><ele>215.0</ele><time>2026-03-28T12:02:36Z</time></trkpt><trkpt lat="45.874601092338104" lon="5.201852582910004"><ele>215.0</ele><time>2026-03-28T12:02:37Z</time></trkpt><trkpt lat="45.87442570840674" lon="5.2016324480233225"><ele>215.0</ele><time>2026-03-28T12:02:38Z</time></trkpt><trkpt lat="45.874246266815604" lon="5.201407565361821"><ele>216.0</ele><time>2026-03-28T12:02:39Z</time></trkpt><trkpt lat="45.87406709475403" lon="5.201180729879419"><ele>217.0</ele><time>2026-03-28T12:02:40Z</time></trkpt><trkpt lat="45.873890449394146" lon="5.200952086260935"><ele>217.0</ele><time>2026-03-28T12:02:41Z</time></trkpt><trkpt lat="45.87371439804724" lon="5.200730243816334"><ele>217.0</ele><time>2026-03-28T12:02:42Z</time></trkpt><trkpt lat="45.87354171607286" lon="5.200504150644087"><ele>217.0</ele><time>2026-03-28T12:02:43Z</time></trkpt><trkpt lat="45.87336668268858" lon="5.200273044914529"><ele>217.0</ele><time>2026-03-28T12:02:44Z</time></trkpt><trkpt lat="45.87319330516082" lon="5.200047779157983"><ele>216.5</ele><time>2026-03-28T12:02:45Z</time></trkpt><trkpt lat="45.87301601832246" lon="5.1998156040949235"><ele>216.0</ele><time>2026-03-28T12:02:46Z</time></trkpt><trkpt lat="45.87284019940583" lon="5.199585790282178"><ele>216.0</ele><time>2026-03-28T12:02:47Z</time></trkpt><trkpt lat="45.87266120818283" lon="5.199350953074512"><ele>216.0</ele><time>2026-03-28T12:02:48Z</time></trkpt><trkpt lat="45.87248711907056" lon="5.199119735033855"><ele>215.5</ele><time>2026-03-28T12:02:49Z</time></trkpt><trkpt lat="45.87231149634248" lon="5.198886882855176"><ele>215.0</ele><time>2026-03-28T12:02:50Z</time></trkpt><trkpt lat="45.872135869793745" lon="5.198654096823866"><ele>215.0</ele><time>2026-03-28T12:02:51Z</time></trkpt><trkpt lat="45.87195702901203" lon="5.1984215326878385"><ele>215.0</ele><time>2026-03-28T12:02:52Z</time></trkpt><trkpt lat="45.87177765338153" lon="5.198188196943246"><ele>216.0</ele><time>2026-03-28T12:02:53Z</time></trkpt><trkpt lat="45.87159837452725" lon="5.197952744504115"><ele>217.0</ele><time>2026-03-28T12:02:54Z</time></trkpt><trkpt lat="45.87141824209617" lon="5.19771574165379"><ele>217.0</ele><time>2026-03-28T12:02:55Z</time></trkpt><trkpt lat="45.87124084357169" lon="5.197477819318151"><ele>217.0</ele><time>2026-03-28T12:02:56Z</time></trkpt><trkpt lat="45.87106345401365" lon="5.197243860060638"><ele>216.0</ele><time>2026-03-28T12:02:57Z</time></trkpt><trkpt lat="45.87088972851622" lon="5.1970064046121"><ele>215.0</ele><time>2026-03-28T12:02:58Z</time></trkpt><trkpt lat="45.870715468068894" lon="5.196770768635587"><ele>215.0</ele><time>2026-03-28T12:02:59Z</time></trkpt><trkpt lat="45.870540625567244" lon="5.1965338204786455"><ele>215.0</ele><time>2026-03-28T12:03:00Z</time></trkpt><trkpt lat="45.87036583610642" lon="5.196297856666315"><ele>214.5</ele><time>2026-03-28T12:03:01Z</time></trkpt><trkpt lat="45.87019233851026" lon="5.196057115363916"><ele>214.0</ele><time>2026-03-28T12:03:02Z</time></trkpt><trkpt lat="45.87001877367176" lon="5.1958167190803595"><ele>215.0</ele><time>2026-03-28T12:03:03Z</time></trkpt><trkpt lat="45.86984411728196" lon="5.19557722465904"><ele>216.0</ele><time>2026-03-28T12:03:04Z</time></trkpt><trkpt lat="45.86967814757675" lon="5.195338121722234"><ele>216.0</ele><time>2026-03-28T12:03:05Z</time></trkpt><trkpt lat="45.86950934272646" lon="5.195098017878244"><ele>216.0</ele><time>2026-03-28T12:03:06Z</time></trkpt><trkpt lat="45.86934354985315" lon="5.194855571394096"><ele>215.5</ele><time>2026-03-28T12:03:07Z</time></trkpt><trkpt lat="45.86917795878674" lon="5.194613731039961"><ele>215.0</ele><time>2026-03-28T12:03:08Z</time></trkpt><trkpt lat="45.869015091505794" lon="5.194370351524634"><ele>215.0</ele><time>2026-03-28T12:03:09Z</time></trkpt><trkpt lat="45.86885265141738" lon="5.194127480431607"><ele>215.0</ele><time>2026-03-28T12:03:10Z</time></trkpt><trkpt lat="45.86869363647652" lon="5.193881380830989"><ele>214.5</ele><time>2026-03-28T12:03:11Z</time></trkpt><trkpt lat="45.86853214945514" lon="5.193633644316968"><ele>214.0</ele><time>2026-03-28T12:03:12Z</time></trkpt><trkpt lat="45.86837670469684" lon="5.193382762178519"><ele>213.0</ele><time>2026-03-28T12:03:13Z</time></trkpt><trkpt lat="45.86822183929652" lon="5.1931338443210455"><ele>212.0</ele><time>2026-03-28T12:03:14Z</time></trkpt><trkpt lat="45.86807542544987" lon="5.192881623461276"><ele>212.0</ele><time>2026-03-28T12:03:15Z</time></trkpt><trkpt lat="45.86793389191532" lon="5.192633723935781"><ele>212.0</ele><time>2026-03-28T12:03:16Z</time></trkpt><trkpt lat="45.8677953995349" lon="5.192390537493912"><ele>212.0</ele><time>2026-03-28T12:03:17Z</time></trkpt><trkpt lat="45.86766233935445" lon="5.192148619934225"><ele>212.66666666666669</ele><time>2026-03-28T12:03:18Z</time></trkpt><trkpt lat="45.867527819618424" lon="5.191908334735773"><ele>213.33333333333331</ele><time>2026-03-28T12:03:19Z</time></trkpt><trkpt lat="45.86739551495139" lon="5.191664688528533"><ele>214.0</ele><time>2026-03-28T12:03:20Z</time></trkpt><trkpt lat="45.8672662114802" lon="5.191420405584817"><ele>214.33333333333331</ele><time>2026-03-28T12:03:21Z</time></trkpt><trkpt lat="45.86713982482997" lon="5.191176278266602"><ele>214.66666666666669</ele><time>2026-03-28T12:03:22Z</time></trkpt><trkpt lat="45.86701400078207" lon="5.1909330515202985"><ele>215.0</ele><time>2026-03-28T12:03:23Z</time></trkpt><trkpt lat="45.86689001617053" lon="5.190689976353928"><ele>215.0</ele><time>2026-03-28T12:03:24Z</time></trkpt><trkpt lat="45.86676572841821" lon="5.190443259761461"><ele>215.0</ele><time>2026-03-28T12:03:25Z</time></trkpt><trkpt lat="45.866645189672475" lon="5.190197182498125"><ele>215.0</ele><time>2026-03-28T12:03:26Z</time></trkpt><trkpt lat="45.86652284311135" lon="5.189947851926771"><ele>214.33333333333334</ele><time>2026-03-28T12:03:27Z</time></trkpt><trkpt lat="45.86640107769956" lon="5.18969699840381"><ele>213.66666666666669</ele><time>2026-03-28T12:03:28Z</time></trkpt><trkpt lat="45.866282386093445" lon="5.189445490152066"><ele>213.0</ele><time>2026-03-28T12:03:29Z</time></trkpt><trkpt lat="45.86616405391765" lon="5.1891889044277475"><ele>213.33333333333331</ele><time>2026-03-28T12:03:30Z</time></trkpt><trkpt lat="45.8660476007117" lon="5.188933588447487"><ele>213.66666666666666</ele><time>2026-03-28T12:03:31Z</time></trkpt><trkpt lat="45.8659305745423" lon="5.188674245584218"><ele>214.0</ele><time>2026-03-28T12:03:32Z</time></trkpt><trkpt lat="45.865814375259795" lon="5.188412663007267"><ele>213.33333333333331</ele><time>2026-03-28T12:03:33Z</time></trkpt><trkpt lat="45.86569903540356" lon="5.188147382322288"><ele>212.66666666666669</ele><time>2026-03-28T12:03:34Z</time></trkpt><trkpt lat="45.865586209542215" lon="5.187875891994126"><ele>212.0</ele><time>2026-03-28T12:03:35Z</time></trkpt><trkpt lat="45.86547323251045" lon="5.187603853055363"><ele>212.33333333333334</ele><time>2026-03-28T12:03:36Z</time></trkpt><trkpt lat="45.865359882280295" lon="5.187328945445868"><ele>212.66666666666669</ele><time>2026-03-28T12:03:37Z</time></trkpt><trkpt lat="45.865246556812274" lon="5.187058494152983"><ele>213.0</ele><time>2026-03-28T12:03:38Z</time></trkpt><trkpt lat="45.86513612019056" lon="5.186787514387822"><ele>213.0</ele><time>2026-03-28T12:03:39Z</time></trkpt><trkpt lat="45.86502994598823" lon="5.186513633692877"><ele>213.0</ele><time>2026-03-28T12:03:40Z</time></trkpt><trkpt lat="45.86492790023473" lon="5.186242590121752"><ele>213.0</ele><time>2026-03-28T12:03:41Z</time></trkpt><trkpt lat="45.864828074370884" lon="5.185978862742713"><ele>213.0</ele><time>2026-03-28T12:03:42Z</time></trkpt><trkpt lat="45.864731799214915" lon="5.18571442093132"><ele>213.0</ele><time>2026-03-28T12:03:43Z</time></trkpt><trkpt lat="45.86463649036333" lon="5.185452999251397"><ele>213.0</ele><time>2026-03-28T12:03:44Z</time></trkpt><trkpt lat="45.8645425226384" lon="5.185190774964769"><ele>213.0</ele><time>2026-03-28T12:03:45Z</time></trkpt><trkpt lat="45.8644517999333" lon="5.184928160275246"><ele>213.0</ele><time>2026-03-28T12:03:46Z</time></trkpt><trkpt lat="45.864360620633605" lon="5.184664701392729"><ele>213.0</ele><time>2026-03-28T12:03:47Z</time></trkpt><trkpt lat="45.8642714555724" lon="5.184402154387774"><ele>212.66666666666669</ele><time>2026-03-28T12:03:48Z</time></trkpt><trkpt lat="45.864187655495066" lon="5.1841424637667775"><ele>212.33333333333334</ele><time>2026-03-28T12:03:49Z</time></trkpt><trkpt lat="45.86410513279443" lon="5.183886049423747"><ele>212.0</ele><time>2026-03-28T12:03:50Z</time></trkpt><trkpt lat="45.864026540220294" lon="5.183638599420294"><ele>212.0</ele><time>2026-03-28T12:03:51Z</time></trkpt><trkpt lat="45.86395019366516" lon="5.183393661094135"><ele>212.0</ele><time>2026-03-28T12:03:52Z</time></trkpt><trkpt lat="45.86387414199296" lon="5.183147943067665"><ele>212.0</ele><time>2026-03-28T12:03:53Z</time></trkpt><trkpt lat="45.86379971304961" lon="5.182900255932981"><ele>212.0</ele><time>2026-03-28T12:03:54Z</time></trkpt><trkpt lat="45.86372363820573" lon="5.182646454166957"><ele>212.0</ele><time>2026-03-28T12:03:55Z</time></trkpt><trkpt lat="45.8636488214544" lon="5.182388255094979"><ele>212.0</ele><time>2026-03-28T12:03:56Z</time></trkpt><trkpt lat="45.86357383685242" lon="5.182124237365"><ele>212.0</ele><time>2026-03-28T12:03:57Z</time></trkpt><trkpt lat="45.86350336641649" lon="5.181860086071232"><ele>212.0</ele><time>2026-03-28T12:03:58Z</time></trkpt><trkpt lat="45.863428644694274" lon="5.181591433721785"><ele>212.0</ele><time>2026-03-28T12:03:59Z</time></trkpt><trkpt lat="45.86335818944853" lon="5.181321578408518"><ele>211.66666666666669</ele><time>2026-03-28T12:04:00Z</time></trkpt><trkpt lat="45.86328937771539" lon="5.1810500045445895"><ele>211.33333333333331</ele><time>2026-03-28T12:04:01Z</time></trkpt><trkpt lat="45.863220688655545" lon="5.180774950501351"><ele>211.0</ele><time>2026-03-28T12:04:02Z</time></trkpt><trkpt lat="45.86315359699368" lon="5.180495078501342"><ele>211.0</ele><time>2026-03-28T12:04:03Z</time></trkpt><trkpt lat="45.86308678081409" lon="5.180212872832009"><ele>211.0</ele><time>2026-03-28T12:04:04Z</time></trkpt><trkpt lat="45.86302010160318" lon="5.179924357200063"><ele>211.0</ele><time>2026-03-28T12:04:05Z</time></trkpt><trkpt lat="45.86295541790721" lon="5.179634640826533"><ele>210.66666666666666</ele><time>2026-03-28T12:04:06Z</time></trkpt><trkpt lat="45.862889843004595" lon="5.179343724430988"><ele>210.33333333333331</ele><time>2026-03-28T12:04:07Z</time></trkpt><trkpt lat="45.862828029060104" lon="5.179053713026921"><ele>210.0</ele><time>2026-03-28T12:04:08Z</time></trkpt><trkpt lat="45.86277028013132" lon="5.178760006627043"><ele>210.0</ele><time>2026-03-28T12:04:09Z</time></trkpt><trkpt lat="45.86271679508778" lon="5.178466924051959"><ele>210.0</ele><time>2026-03-28T12:04:10Z</time></trkpt><trkpt lat="45.8626455087173" lon="5.178181019160127"><ele>210.0</ele><time>2026-03-28T12:04:11Z</time></trkpt><trkpt lat="45.86258806949528" lon="5.177888779704239"><ele>211.33333333333331</ele><time>2026-03-28T12:04:12Z</time></trkpt><trkpt lat="45.862536435728806" lon="5.177603994063055"><ele>212.66666666666666</ele><time>2026-03-28T12:04:13Z</time></trkpt><trkpt lat="45.86248730167642" lon="5.177329605390489"><ele>214.0</ele><time>2026-03-28T12:04:14Z</time></trkpt><trkpt lat="45.86244149380271" lon="5.177069601917297"><ele>214.0</ele><time>2026-03-28T12:04:15Z</time></trkpt><trkpt lat="45.86240137028163" lon="5.176838212400958"><ele>214.0</ele><time>2026-03-28T12:04:16Z</time></trkpt><trkpt lat="45.86236650004864" lon="5.176624996788662"><ele>214.0</ele><time>2026-03-28T12:04:17Z</time></trkpt><trkpt lat="45.86233512976481" lon="5.1764236041226335"><ele>213.5</ele><time>2026-03-28T12:04:18Z</time></trkpt><trkpt lat="45.862366034086534" lon="5.176220455896091"><ele>213.0</ele><time>2026-03-28T12:04:19Z</time></trkpt><trkpt lat="45.862362284105664" lon="5.1760426134042445"><ele>212.5</ele><time>2026-03-28T12:04:20Z</time></trkpt><trkpt lat="45.86237738339548" lon="5.175871898986291"><ele>212.0</ele><time>2026-03-28T12:04:21Z</time></trkpt><trkpt lat="45.86240787041144" lon="5.175718580698328"><ele>211.8</ele><time>2026-03-28T12:04:22Z</time></trkpt><trkpt lat="45.86242091371839" lon="5.175551648289843"><ele>211.6</ele><time>2026-03-28T12:04:23Z</time></trkpt><trkpt lat="45.862491108056005" lon="5.1754325037695885"><ele>211.4</ele><time>2026-03-28T12:04:24Z</time></trkpt><trkpt lat="45.86257425518036" lon="5.175341755300804"><ele>211.20000000000002</ele><time>2026-03-28T12:04:25Z</time></trkpt><trkpt lat="45.86267245777064" lon="5.1752991877109915"><ele>211.0</ele><time>2026-03-28T12:04:26Z</time></trkpt><trkpt lat="45.86276654573867" lon="5.175264234650797"><ele>211.0</ele><time>2026-03-28T12:04:27Z</time></trkpt><trkpt lat="45.86286537536113" lon="5.175260786409642"><ele>211.0</ele><time>2026-03-28T12:04:28Z</time></trkpt><trkpt lat="45.86296330549662" lon="5.175291047837476"><ele>211.0</ele><time>2026-03-28T12:04:29Z</time></trkpt><trkpt lat="45.86305867571677" lon="5.175344134746733"><ele>211.0</ele><time>2026-03-28T12:04:30Z</time></trkpt><trkpt lat="45.86313833441076" lon="5.175424556187171"><ele>211.0</ele><time>2026-03-28T12:04:31Z</time></trkpt><trkpt lat="45.863205608710444" lon="5.175526927654221"><ele>211.0</ele><time>2026-03-28T12:04:32Z</time></trkpt><trkpt lat="45.86325682589504" lon="5.175648959605847"><ele>211.0</ele><time>2026-03-28T12:04:33Z</time></trkpt><trkpt lat="45.8632882370829" lon="5.175785911027957"><ele>211.0</ele><time>2026-03-28T12:04:34Z</time></trkpt><trkpt lat="45.863300168210785" lon="5.1759278362392"><ele>211.0</ele><time>2026-03-28T12:04:35Z</time></trkpt><trkpt lat="45.86329019403216" lon="5.176071574249068"><ele>211.0</ele><time>2026-03-28T12:04:36Z</time></trkpt><trkpt lat="45.86325996151076" lon="5.176214827193539"><ele>211.0</ele><time>2026-03-28T12:04:37Z</time></trkpt><trkpt lat="45.863208204223604" lon="5.176344952842742"><ele>211.0</ele><time>2026-03-28T12:04:38Z</time></trkpt><trkpt lat="45.86314265483434" lon="5.176463133481399"><ele>211.0</ele><time>2026-03-28T12:04:39Z</time></trkpt><trkpt lat="45.86306507014378" lon="5.176575945606531"><ele>211.0</ele><time>2026-03-28T12:04:40Z</time></trkpt><trkpt lat="45.86297738254037" lon="5.176677466653291"><ele>211.0</ele><time>2026-03-28T12:04:41Z</time></trkpt><trkpt lat="45.86287324141238" lon="5.176750983637001"><ele>211.25</ele><time>2026-03-28T12:04:42Z</time></trkpt><trkpt lat="45.86277190860178" lon="5.176845747706041"><ele>211.5</ele><time>2026-03-28T12:04:43Z</time></trkpt><trkpt lat="45.86266428472431" lon="5.176942705243552"><ele>211.75</ele><time>2026-03-28T12:04:44Z</time></trkpt><trkpt lat="45.86256240131557" lon="5.1770574426055544"><ele>212.0</ele><time>2026-03-28T12:04:45Z</time></trkpt><trkpt lat="45.8624477253179" lon="5.177146158074081"><ele>212.5</ele><time>2026-03-28T12:04:46Z</time></trkpt><trkpt lat="45.86233672091208" lon="5.177245041902979"><ele>213.0</ele><time>2026-03-28T12:04:47Z</time></trkpt><trkpt lat="45.86222049849731" lon="5.177347943122705"><ele>213.5</ele><time>2026-03-28T12:04:48Z</time></trkpt><trkpt lat="45.86211000087796" lon="5.17744660630613"><ele>214.0</ele><time>2026-03-28T12:04:49Z</time></trkpt><trkpt lat="45.86200314698788" lon="5.177542856923213"><ele>214.0</ele><time>2026-03-28T12:04:50Z</time></trkpt><trkpt lat="45.86189452422832" lon="5.177643884032969"><ele>214.0</ele><time>2026-03-28T12:04:51Z</time></trkpt><trkpt lat="45.8617928111527" lon="5.177754099679749"><ele>214.0</ele><time>2026-03-28T12:04:52Z</time></trkpt><trkpt lat="45.86169907904057" lon="5.17787015883012"><ele>214.0</ele><time>2026-03-28T12:04:53Z</time></trkpt><trkpt lat="45.861614555450956" lon="5.177993347842271"><ele>214.0</ele><time>2026-03-28T12:04:54Z</time></trkpt><trkpt lat="45.861538124291926" lon="5.17812671222697"><ele>214.0</ele><time>2026-03-28T12:04:55Z</time></trkpt><trkpt lat="45.86146926393881" lon="5.178274214498853"><ele>214.0</ele><time>2026-03-28T12:04:56Z</time></trkpt><trkpt lat="45.86140940575536" lon="5.1784307525367845"><ele>214.0</ele><time>2026-03-28T12:04:57Z</time></trkpt><trkpt lat="45.861361458892326" lon="5.178597422892459"><ele>214.0</ele><time>2026-03-28T12:04:58Z</time></trkpt><trkpt lat="45.86132019278467" lon="5.178774307209923"><ele>214.0</ele><time>2026-03-28T12:04:59Z</time></trkpt><trkpt lat="45.86128161689621" lon="5.178956760157894"><ele>214.0</ele><time>2026-03-28T12:05:00Z</time></trkpt><trkpt lat="45.861245545547405" lon="5.179139584225569"><ele>214.0</ele><time>2026-03-28T12:05:01Z</time></trkpt><trkpt lat="45.861195939741" lon="5.179324802503868"><ele>213.0</ele><time>2026-03-28T12:05:02Z</time></trkpt><trkpt lat="45.86116208041196" lon="5.179506559963403"><ele>212.0</ele><time>2026-03-28T12:05:03Z</time></trkpt><trkpt lat="45.86113029692084" lon="5.1796805748345776"><ele>211.0</ele><time>2026-03-28T12:05:04Z</time></trkpt><trkpt lat="45.86109845684085" lon="5.179855426972899"><ele>210.0</ele><time>2026-03-28T12:05:05Z</time></trkpt><trkpt lat="45.86106576173101" lon="5.1800235999743585"><ele>210.25</ele><time>2026-03-28T12:05:06Z</time></trkpt><trkpt lat="45.86102978247253" lon="5.180191642553619"><ele>210.5</ele><time>2026-03-28T12:05:07Z</time></trkpt><trkpt lat="45.86096576576737" lon="5.180331823990801"><ele>210.75</ele><time>2026-03-28T12:05:08Z</time></trkpt><trkpt lat="45.86091362257799" lon="5.180472113249632"><ele>211.0</ele><time>2026-03-28T12:05:09Z</time></trkpt><trkpt lat="45.86085508628857" lon="5.180622724631327"><ele>210.99999999999997</ele><time>2026-03-28T12:05:10Z</time></trkpt><trkpt lat="45.860828407819" lon="5.180750999308489"><ele>211.0</ele><time>2026-03-28T12:05:11Z</time></trkpt><trkpt lat="45.86080541149781" lon="5.1808615696779"><ele>211.0</ele><time>2026-03-28T12:05:12Z</time></trkpt><trkpt lat="45.86078589313818" lon="5.180955505995934"><ele>211.0</ele><time>2026-03-28T12:05:13Z</time></trkpt><trkpt lat="45.860755074937245" lon="5.181104741614518"><ele>210.99999999999997</ele><time>2026-03-28T12:05:15Z</time></trkpt><trkpt lat="45.860731249597336" lon="5.181226893669438"><ele>211.0</ele><time>2026-03-28T12:05:17Z</time></trkpt><trkpt lat="45.86068733091606" lon="5.181475595890458"><ele>210.83333333333331</ele><time>2026-03-28T12:05:26Z</time></trkpt><trkpt lat="45.860663837647905" lon="5.181612295952582"><ele>210.66666666666666</ele><time>2026-03-28T12:05:28Z</time></trkpt><trkpt lat="45.86062815946187" lon="5.181764488608847"><ele>210.5</ele><time>2026-03-28T12:05:30Z</time></trkpt><trkpt lat="45.86058167584565" lon="5.181839923775264"><ele>210.33333333333331</ele><time>2026-03-28T12:05:31Z</time></trkpt><trkpt lat="45.860551797753516" lon="5.181950347548964"><ele>210.16666666666666</ele><time>2026-03-28T12:05:32Z</time></trkpt><trkpt lat="45.86050264981188" lon="5.18204693775106"><ele>210.0</ele><time>2026-03-28T12:05:33Z</time></trkpt><trkpt lat="45.86046550223678" lon="5.182152345781464"><ele>210.0</ele><time>2026-03-28T12:05:34Z</time></trkpt><trkpt lat="45.86044951429472" lon="5.1822674994300035"><ele>210.0</ele><time>2026-03-28T12:05:35Z</time></trkpt><trkpt lat="45.86045732673388" lon="5.182386348392748"><ele>210.0</ele><time>2026-03-28T12:05:36Z</time></trkpt><trkpt lat="45.86048397339775" lon="5.1824997963719035"><ele>210.0</ele><time>2026-03-28T12:05:37Z</time></trkpt><trkpt lat="45.860512792288425" lon="5.182603873215098"><ele>210.0</ele><time>2026-03-28T12:05:38Z</time></trkpt><trkpt lat="45.860530001398914" lon="5.1826987564109865"><ele>210.0</ele><time>2026-03-28T12:05:39Z</time></trkpt><trkpt lat="45.86053038083016" lon="5.182856804562109"><ele>210.2</ele><time>2026-03-28T12:05:41Z</time></trkpt><trkpt lat="45.860507794793065" lon="5.182977398720919"><ele>210.4</ele><time>2026-03-28T12:05:43Z</time></trkpt><trkpt lat="45.860462564242816" lon="5.183091742709738"><ele>210.60000000000002</ele><time>2026-03-28T12:05:45Z</time></trkpt><trkpt lat="45.860376943526894" lon="5.1831785532555035"><ele>210.8</ele><time>2026-03-28T12:05:47Z</time></trkpt><trkpt lat="45.86029333619536" lon="5.1833016580997775"><ele>211.0</ele><time>2026-03-28T12:05:49Z</time></trkpt><trkpt lat="45.86028522003666" lon="5.183481146400436"><ele>211.0</ele><time>2026-03-28T12:05:51Z</time></trkpt><trkpt lat="45.86031465635788" lon="5.183569440937066"><ele>211.0</ele><time>2026-03-28T12:05:52Z</time></trkpt><trkpt lat="45.860365086075916" lon="5.183633226705174"><ele>211.0</ele><time>2026-03-28T12:05:53Z</time></trkpt><trkpt lat="45.860427364745014" lon="5.183665981610065"><ele>211.0</ele><time>2026-03-28T12:05:54Z</time></trkpt><trkpt lat="45.86049599960388" lon="5.183659843749153"><ele>211.0</ele><time>2026-03-28T12:05:55Z</time></trkpt><trkpt lat="45.860574125201474" lon="5.183603772151867"><ele>211.0</ele><time>2026-03-28T12:05:56Z</time></trkpt><trkpt lat="45.860652415747715" lon="5.183554074350712"><ele>211.0</ele><time>2026-03-28T12:05:57Z</time></trkpt><trkpt lat="45.86073285027467" lon="5.1835034021043125"><ele>211.0</ele><time>2026-03-28T12:05:58Z</time></trkpt><trkpt lat="45.86082516921732" lon="5.183447647849725"><ele>211.0</ele><time>2026-03-28T12:05:59Z</time></trkpt><trkpt lat="45.860926073363274" lon="5.183387815690777"><ele>211.0</ele><time>2026-03-28T12:06:00Z</time></trkpt><trkpt lat="45.861036993511874" lon="5.183326633228353"><ele>211.0</ele><time>2026-03-28T12:06:01Z</time></trkpt><trkpt lat="45.86115591119034" lon="5.183266916644497"><ele>210.5</ele><time>2026-03-28T12:06:02Z</time></trkpt><trkpt lat="45.86128116219151" lon="5.1832088644028005"><ele>210.0</ele><time>2026-03-28T12:06:03Z</time></trkpt><trkpt lat="45.861405984743975" lon="5.183151857017273"><ele>209.5</ele><time>2026-03-28T12:06:04Z</time></trkpt><trkpt lat="45.86153475646537" lon="5.183095728981058"><ele>209.0</ele><time>2026-03-28T12:06:05Z</time></trkpt><trkpt lat="45.861668165927796" lon="5.183036852701179"><ele>209.25</ele><time>2026-03-28T12:06:06Z</time></trkpt><trkpt lat="45.86180694107578" lon="5.182976511749031"><ele>209.5</ele><time>2026-03-28T12:06:07Z</time></trkpt><trkpt lat="45.86195040415282" lon="5.182918177314037"><ele>209.75</ele><time>2026-03-28T12:06:08Z</time></trkpt><trkpt lat="45.862099242416164" lon="5.182863936587185"><ele>210.0</ele><time>2026-03-28T12:06:09Z</time></trkpt><trkpt lat="45.86225423073708" lon="5.182812547715535"><ele>210.0</ele><time>2026-03-28T12:06:10Z</time></trkpt><trkpt lat="45.86241523275337" lon="5.182765539740844"><ele>210.0</ele><time>2026-03-28T12:06:11Z</time></trkpt><trkpt lat="45.86257828539188" lon="5.182719913776647"><ele>210.0</ele><time>2026-03-28T12:06:12Z</time></trkpt><trkpt lat="45.86274785652017" lon="5.182669434416011"><ele>210.66666666666669</ele><time>2026-03-28T12:06:13Z</time></trkpt><trkpt lat="45.86292244831589" lon="5.18261809681455"><ele>211.33333333333334</ele><time>2026-03-28T12:06:14Z</time></trkpt><trkpt lat="45.86310026378253" lon="5.182570036096287"><ele>212.0</ele><time>2026-03-28T12:06:15Z</time></trkpt><trkpt lat="45.86327155464745" lon="5.182522019375913"><ele>212.0</ele><time>2026-03-28T12:06:16Z</time></trkpt><trkpt lat="45.86344346737925" lon="5.182472781717158"><ele>212.0</ele><time>2026-03-28T12:06:17Z</time></trkpt><trkpt lat="45.86361352355684" lon="5.182421470953727"><ele>212.0</ele><time>2026-03-28T12:06:18Z</time></trkpt><trkpt lat="45.86378654932949" lon="5.182374246485334"><ele>212.0</ele><time>2026-03-28T12:06:19Z</time></trkpt><trkpt lat="45.863962294627584" lon="5.18232651610632"><ele>212.0</ele><time>2026-03-28T12:06:20Z</time></trkpt><trkpt lat="45.86413966184518" lon="5.182280156579842"><ele>212.0</ele><time>2026-03-28T12:06:21Z</time></trkpt><trkpt lat="45.8643185526389" lon="5.1822413747683225"><ele>211.66666666666669</ele><time>2026-03-28T12:06:22Z</time></trkpt><trkpt lat="45.864499608663536" lon="5.182213435021673"><ele>211.33333333333331</ele><time>2026-03-28T12:06:23Z</time></trkpt><trkpt lat="45.86467939201485" lon="5.1821961583316645"><ele>211.0</ele><time>2026-03-28T12:06:24Z</time></trkpt><trkpt lat="45.864862875653415" lon="5.182186837372819"><ele>211.0</ele><time>2026-03-28T12:06:25Z</time></trkpt><trkpt lat="45.86504737945547" lon="5.182184844759604"><ele>211.0</ele><time>2026-03-28T12:06:26Z</time></trkpt><trkpt lat="45.86523471112431" lon="5.182192057475596"><ele>211.0</ele><time>2026-03-28T12:06:27Z</time></trkpt><trkpt lat="45.86542211353481" lon="5.182209882248008"><ele>210.33333333333331</ele><time>2026-03-28T12:06:28Z</time></trkpt><trkpt lat="45.865610275394666" lon="5.182235489392309"><ele>209.66666666666669</ele><time>2026-03-28T12:06:29Z</time></trkpt><trkpt lat="45.865799323976226" lon="5.182266880535032"><ele>209.0</ele><time>2026-03-28T12:06:30Z</time></trkpt><trkpt lat="45.865987042076945" lon="5.182294054078649"><ele>209.0</ele><time>2026-03-28T12:06:31Z</time></trkpt><trkpt lat="45.866177092718274" lon="5.182307645203671"><ele>209.0</ele><time>2026-03-28T12:06:32Z</time></trkpt><trkpt lat="45.866364741418174" lon="5.182307822901287"><ele>209.0</ele><time>2026-03-28T12:06:33Z</time></trkpt><trkpt lat="45.86655205386484" lon="5.182307591607569"><ele>209.0</ele><time>2026-03-28T12:06:34Z</time></trkpt><trkpt lat="45.866738717735544" lon="5.182306818096735"><ele>209.0</ele><time>2026-03-28T12:06:35Z</time></trkpt><trkpt lat="45.866929817297574" lon="5.1823072153117415"><ele>209.0</ele><time>2026-03-28T12:06:36Z</time></trkpt><trkpt lat="45.86711491581279" lon="5.18230513538707"><ele>209.33333333333334</ele><time>2026-03-28T12:06:37Z</time></trkpt><trkpt lat="45.8673023743109" lon="5.182303516622093"><ele>209.66666666666669</ele><time>2026-03-28T12:06:38Z</time></trkpt><trkpt lat="45.86749372862623" lon="5.182302712318956"><ele>210.0</ele><time>2026-03-28T12:06:39Z</time></trkpt><trkpt lat="45.86767973858066" lon="5.1822968055511085"><ele>210.0</ele><time>2026-03-28T12:06:40Z</time></trkpt><trkpt lat="45.867866437212996" lon="5.182290320097576"><ele>210.0</ele><time>2026-03-28T12:06:41Z</time></trkpt><trkpt lat="45.868053781917645" lon="5.182285263537854"><ele>210.0</ele><time>2026-03-28T12:06:42Z</time></trkpt><trkpt lat="45.86824019041714" lon="5.1822786570876005"><ele>210.0</ele><time>2026-03-28T12:06:43Z</time></trkpt><trkpt lat="45.868426373833046" lon="5.18227188602818"><ele>210.0</ele><time>2026-03-28T12:06:44Z</time></trkpt><trkpt lat="45.868611423016816" lon="5.1822661938294585"><ele>210.0</ele><time>2026-03-28T12:06:45Z</time></trkpt><trkpt lat="45.8687996569407" lon="5.182256882752024"><ele>209.66666666666669</ele><time>2026-03-28T12:06:46Z</time></trkpt><trkpt lat="45.86898586612072" lon="5.182252367134114"><ele>209.33333333333334</ele><time>2026-03-28T12:06:47Z</time></trkpt><trkpt lat="45.869168696537685" lon="5.182249977979391"><ele>209.0</ele><time>2026-03-28T12:06:48Z</time></trkpt><trkpt lat="45.869349761111216" lon="5.18224421962031"><ele>208.66666666666669</ele><time>2026-03-28T12:06:49Z</time></trkpt><trkpt lat="45.86952877162787" lon="5.182238411390561"><ele>208.33333333333331</ele><time>2026-03-28T12:06:50Z</time></trkpt><trkpt lat="45.86970876973305" lon="5.182232517163507"><ele>208.0</ele><time>2026-03-28T12:06:51Z</time></trkpt><trkpt lat="45.86988925174494" lon="5.182228522446175"><ele>208.0</ele><time>2026-03-28T12:06:52Z</time></trkpt><trkpt lat="45.870072062758936" lon="5.182223689863993"><ele>208.0</ele><time>2026-03-28T12:06:53Z</time></trkpt><trkpt lat="45.870254747533075" lon="5.182216798724795"><ele>208.0</ele><time>2026-03-28T12:06:54Z</time></trkpt><trkpt lat="45.87043928834484" lon="5.18221097778944"><ele>208.66666666666666</ele><time>2026-03-28T12:06:55Z</time></trkpt><trkpt lat="45.87062381865803" lon="5.182205734312089"><ele>209.33333333333331</ele><time>2026-03-28T12:06:56Z</time></trkpt><trkpt lat="45.87081024499248" lon="5.182199048097091"><ele>210.0</ele><time>2026-03-28T12:06:57Z</time></trkpt><trkpt lat="45.870995705707436" lon="5.182194036887705"><ele>210.0</ele><time>2026-03-28T12:06:58Z</time></trkpt><trkpt lat="45.871182997104384" lon="5.18218830075167"><ele>210.0</ele><time>2026-03-28T12:06:59Z</time></trkpt><trkpt lat="45.87136861242603" lon="5.1821797625425665"><ele>210.0</ele><time>2026-03-28T12:07:00Z</time></trkpt><trkpt lat="45.87155543609063" lon="5.182172883974268"><ele>210.0</ele><time>2026-03-28T12:07:01Z</time></trkpt><trkpt lat="45.871742263014426" lon="5.182166435258943"><ele>210.0</ele><time>2026-03-28T12:07:02Z</time></trkpt><trkpt lat="45.87192707657643" lon="5.182161805342782"><ele>210.0</ele><time>2026-03-28T12:07:03Z</time></trkpt><trkpt lat="45.87211207119015" lon="5.182158968342485"><ele>209.66666666666669</ele><time>2026-03-28T12:07:04Z</time></trkpt><trkpt lat="45.8722974536766" lon="5.182152831991593"><ele>209.33333333333334</ele><time>2026-03-28T12:07:05Z</time></trkpt><trkpt lat="45.8724824919487" lon="5.182144981384631"><ele>209.0</ele><time>2026-03-28T12:07:06Z</time></trkpt><trkpt lat="45.8726648565807" lon="5.182143632429209"><ele>209.0</ele><time>2026-03-28T12:07:07Z</time></trkpt><trkpt lat="45.872849086442535" lon="5.182157063923518"><ele>209.0</ele><time>2026-03-28T12:07:08Z</time></trkpt><trkpt lat="45.87303036647611" lon="5.182175420646295"><ele>209.0</ele><time>2026-03-28T12:07:09Z</time></trkpt><trkpt lat="45.873215413655906" lon="5.182201181489199"><ele>209.0</ele><time>2026-03-28T12:07:10Z</time></trkpt><trkpt lat="45.873402839061995" lon="5.182233371173948"><ele>209.0</ele><time>2026-03-28T12:07:11Z</time></trkpt><trkpt lat="45.87358594084928" lon="5.182270930921843"><ele>209.0</ele><time>2026-03-28T12:07:12Z</time></trkpt><trkpt lat="45.873772616897284" lon="5.182313317277705"><ele>209.33333333333334</ele><time>2026-03-28T12:07:13Z</time></trkpt><trkpt lat="45.873956319726254" lon="5.1823607151270235"><ele>209.66666666666669</ele><time>2026-03-28T12:07:14Z</time></trkpt><trkpt lat="45.87414459422043" lon="5.182410372013023"><ele>210.0</ele><time>2026-03-28T12:07:15Z</time></trkpt><trkpt lat="45.87432805897365" lon="5.182458810092241"><ele>210.66666666666669</ele><time>2026-03-28T12:07:16Z</time></trkpt><trkpt lat="45.874511012398145" lon="5.182510032076795"><ele>211.33333333333334</ele><time>2026-03-28T12:07:17Z</time></trkpt><trkpt lat="45.87469573384794" lon="5.182558144992908"><ele>212.0</ele><time>2026-03-28T12:07:18Z</time></trkpt><trkpt lat="45.87488207336277" lon="5.182605218066615"><ele>212.0</ele><time>2026-03-28T12:07:19Z</time></trkpt><trkpt lat="45.87506567901114" lon="5.182654990486821"><ele>212.0</ele><time>2026-03-28T12:07:20Z</time></trkpt><trkpt lat="45.87525115541024" lon="5.182701418965736"><ele>212.0</ele><time>2026-03-28T12:07:21Z</time></trkpt><trkpt lat="45.87543941564722" lon="5.182749425245277"><ele>211.33333333333334</ele><time>2026-03-28T12:07:22Z</time></trkpt><trkpt lat="45.875628979132266" lon="5.182797927403995"><ele>210.66666666666669</ele><time>2026-03-28T12:07:23Z</time></trkpt><trkpt lat="45.875815267167205" lon="5.1828445349591"><ele>210.0</ele><time>2026-03-28T12:07:24Z</time></trkpt><trkpt lat="45.876004679673805" lon="5.18289323844978"><ele>210.0</ele><time>2026-03-28T12:07:25Z</time></trkpt><trkpt lat="45.87619220487405" lon="5.182940738269299"><ele>210.0</ele><time>2026-03-28T12:07:26Z</time></trkpt><trkpt lat="45.876378818503575" lon="5.182988921957055"><ele>210.0</ele><time>2026-03-28T12:07:27Z</time></trkpt><trkpt lat="45.876564016486064" lon="5.1830370833255435"><ele>210.0</ele><time>2026-03-28T12:07:28Z</time></trkpt><trkpt lat="45.876748268877" lon="5.183086483547461"><ele>210.0</ele><time>2026-03-28T12:07:29Z</time></trkpt><trkpt lat="45.87693465083877" lon="5.183142563517932"><ele>210.0</ele><time>2026-03-28T12:07:30Z</time></trkpt><trkpt lat="45.877119162529105" lon="5.183204990879348"><ele>210.66666666666669</ele><time>2026-03-28T12:07:31Z</time></trkpt><trkpt lat="45.87730275327409" lon="5.183272603266297"><ele>211.33333333333334</ele><time>2026-03-28T12:07:32Z</time></trkpt><trkpt lat="45.87748800104419" lon="5.18334512419728"><ele>212.0</ele><time>2026-03-28T12:07:33Z</time></trkpt><trkpt lat="45.87767598744721" lon="5.183418954589777"><ele>212.0</ele><time>2026-03-28T12:07:34Z</time></trkpt><trkpt lat="45.87786195936627" lon="5.183496153052783"><ele>212.0</ele><time>2026-03-28T12:07:35Z</time></trkpt><trkpt lat="45.87804847757657" lon="5.183567827534767"><ele>212.0</ele><time>2026-03-28T12:07:36Z</time></trkpt><trkpt lat="45.87823465758285" lon="5.183641197392395"><ele>212.0</ele><time>2026-03-28T12:07:37Z</time></trkpt><trkpt lat="45.878423394308214" lon="5.183714075494892"><ele>212.0</ele><time>2026-03-28T12:07:38Z</time></trkpt><trkpt lat="45.8786113288063" lon="5.1837885604533325"><ele>212.0</ele><time>2026-03-28T12:07:39Z</time></trkpt><trkpt lat="45.878798950843525" lon="5.183866966955072"><ele>211.66666666666669</ele><time>2026-03-28T12:07:40Z</time></trkpt><trkpt lat="45.87898733099278" lon="5.183948423862709"><ele>211.33333333333331</ele><time>2026-03-28T12:07:41Z</time></trkpt><trkpt lat="45.87917601009758" lon="5.1840298397119655"><ele>211.0</ele><time>2026-03-28T12:07:42Z</time></trkpt><trkpt lat="45.87936243212273" lon="5.18411388364685"><ele>210.66666666666666</ele><time>2026-03-28T12:07:43Z</time></trkpt><trkpt lat="45.87954862667412" lon="5.184195947032763"><ele>210.33333333333331</ele><time>2026-03-28T12:07:44Z</time></trkpt><trkpt lat="45.87973237614657" lon="5.184280984991511"><ele>210.0</ele><time>2026-03-28T12:07:45Z</time></trkpt><trkpt lat="45.87991582737855" lon="5.184362304189571"><ele>210.0</ele><time>2026-03-28T12:07:46Z</time></trkpt><trkpt lat="45.880101913835404" lon="5.184443609773036"><ele>210.0</ele><time>2026-03-28T12:07:47Z</time></trkpt><trkpt lat="45.88028594832861" lon="5.184525701486519"><ele>210.0</ele><time>2026-03-28T12:07:48Z</time></trkpt><trkpt lat="45.88046870610451" lon="5.184607948904198"><ele>210.0</ele><time>2026-03-28T12:07:49Z</time></trkpt><trkpt lat="45.880652566919395" lon="5.184689104076249"><ele>210.0</ele><time>2026-03-28T12:07:50Z</time></trkpt><trkpt lat="45.880833538287504" lon="5.1847682129697485"><ele>210.0</ele><time>2026-03-28T12:07:51Z</time></trkpt><trkpt lat="45.88101170805643" lon="5.184847500055811"><ele>210.66666666666669</ele><time>2026-03-28T12:07:52Z</time></trkpt><trkpt lat="45.881189020505126" lon="5.184927370286333"><ele>211.33333333333334</ele><time>2026-03-28T12:07:53Z</time></trkpt><trkpt lat="45.88136765282502" lon="5.185008520189753"><ele>212.0</ele><time>2026-03-28T12:07:54Z</time></trkpt><trkpt lat="45.88154672866537" lon="5.185087201555501"><ele>212.0</ele><time>2026-03-28T12:07:55Z</time></trkpt><trkpt lat="45.88172468463379" lon="5.185167769305744"><ele>212.0</ele><time>2026-03-28T12:07:56Z</time></trkpt><trkpt lat="45.8819013876551" lon="5.185247888175028"><ele>212.0</ele><time>2026-03-28T12:07:57Z</time></trkpt><trkpt lat="45.88207844597143" lon="5.185328676700551"><ele>212.33333333333334</ele><time>2026-03-28T12:07:58Z</time></trkpt><trkpt lat="45.88225159416027" lon="5.185407570618266"><ele>212.66666666666669</ele><time>2026-03-28T12:07:59Z</time></trkpt><trkpt lat="45.88242622015442" lon="5.18548686687909"><ele>213.0</ele><time>2026-03-28T12:08:00Z</time></trkpt><trkpt lat="45.88260122388329" lon="5.185562209088858"><ele>213.66666666666669</ele><time>2026-03-28T12:08:01Z</time></trkpt><trkpt lat="45.8827756577631" lon="5.1856362758710635"><ele>214.33333333333334</ele><time>2026-03-28T12:08:02Z</time></trkpt><trkpt lat="45.88294675481885" lon="5.185716404157739"><ele>215.0</ele><time>2026-03-28T12:08:03Z</time></trkpt><trkpt lat="45.883121456151464" lon="5.185806919188124"><ele>215.0</ele><time>2026-03-28T12:08:04Z</time></trkpt><trkpt lat="45.8832946630467" lon="5.1859038971585285"><ele>215.0</ele><time>2026-03-28T12:08:05Z</time></trkpt><trkpt lat="45.88346778577719" lon="5.186004378045564"><ele>215.0</ele><time>2026-03-28T12:08:06Z</time></trkpt><trkpt lat="45.88364157114913" lon="5.186110272898468"><ele>215.33333333333334</ele><time>2026-03-28T12:08:07Z</time></trkpt><trkpt lat="45.88381657744226" lon="5.186216414061526"><ele>215.66666666666669</ele><time>2026-03-28T12:08:08Z</time></trkpt><trkpt lat="45.88398777706027" lon="5.1863244244168145"><ele>216.0</ele><time>2026-03-28T12:08:09Z</time></trkpt><trkpt lat="45.88415863808582" lon="5.1864317336345795"><ele>216.33333333333331</ele><time>2026-03-28T12:08:10Z</time></trkpt><trkpt lat="45.884331544273316" lon="5.186538629452628"><ele>216.66666666666666</ele><time>2026-03-28T12:08:11Z</time></trkpt><trkpt lat="45.884501591257965" lon="5.1866446755393065"><ele>217.0</ele><time>2026-03-28T12:08:12Z</time></trkpt><trkpt lat="45.88466898917854" lon="5.186747475738262"><ele>217.0</ele><time>2026-03-28T12:08:13Z</time></trkpt><trkpt lat="45.88483476503426" lon="5.186852347612699"><ele>217.0</ele><time>2026-03-28T12:08:14Z</time></trkpt><trkpt lat="45.88500224113257" lon="5.186955829019659"><ele>217.0</ele><time>2026-03-28T12:08:15Z</time></trkpt><trkpt lat="45.88516723090631" lon="5.187052821477017"><ele>216.66666666666666</ele><time>2026-03-28T12:08:16Z</time></trkpt><trkpt lat="45.88533481090187" lon="5.187156478873851"><ele>216.33333333333331</ele><time>2026-03-28T12:08:17Z</time></trkpt><trkpt lat="45.88550342508772" lon="5.187261057150337"><ele>216.0</ele><time>2026-03-28T12:08:18Z</time></trkpt><trkpt lat="45.88567131439288" lon="5.187367121751008"><ele>216.0</ele><time>2026-03-28T12:08:19Z</time></trkpt><trkpt lat="45.885839927316255" lon="5.18747436201055"><ele>216.0</ele><time>2026-03-28T12:08:20Z</time></trkpt><trkpt lat="45.8860092279592" lon="5.187580749958642"><ele>216.0</ele><time>2026-03-28T12:08:21Z</time></trkpt><trkpt lat="45.88617746272473" lon="5.187684702101724"><ele>216.0</ele><time>2026-03-28T12:08:22Z</time></trkpt><trkpt lat="45.8863482273563" lon="5.1877886232736845"><ele>216.0</ele><time>2026-03-28T12:08:23Z</time></trkpt><trkpt lat="45.88651632570892" lon="5.187892051533354"><ele>216.0</ele><time>2026-03-28T12:08:24Z</time></trkpt><trkpt lat="45.886684533184486" lon="5.187998640398123"><ele>216.0</ele><time>2026-03-28T12:08:25Z</time></trkpt><trkpt lat="45.88685284093377" lon="5.188105038194939"><ele>216.0</ele><time>2026-03-28T12:08:26Z</time></trkpt><trkpt lat="45.88702082003552" lon="5.188208363841478"><ele>216.0</ele><time>2026-03-28T12:08:27Z</time></trkpt><trkpt lat="45.887186913556285" lon="5.1883104608875765"><ele>216.33333333333331</ele><time>2026-03-28T12:08:28Z</time></trkpt><trkpt lat="45.88735398729489" lon="5.188412893112781"><ele>216.66666666666666</ele><time>2026-03-28T12:08:29Z</time></trkpt><trkpt lat="45.88752150678276" lon="5.188515425770019"><ele>217.0</ele><time>2026-03-28T12:08:30Z</time></trkpt><trkpt lat="45.88768982578111" lon="5.188617903596797"><ele>218.0</ele><time>2026-03-28T12:08:31Z</time></trkpt><trkpt lat="45.88786094356912" lon="5.188722960876782"><ele>219.0</ele><time>2026-03-28T12:08:32Z</time></trkpt><trkpt lat="45.88802992712552" lon="5.188827887552939"><ele>220.0</ele><time>2026-03-28T12:08:33Z</time></trkpt><trkpt lat="45.8881995498137" lon="5.188935965491352"><ele>220.0</ele><time>2026-03-28T12:08:34Z</time></trkpt><trkpt lat="45.88836775360686" lon="5.1890437715882625"><ele>220.0</ele><time>2026-03-28T12:08:35Z</time></trkpt><trkpt lat="45.88853695759468" lon="5.189153189812426"><ele>220.0</ele><time>2026-03-28T12:08:36Z</time></trkpt><trkpt lat="45.888710076253346" lon="5.189264944819347"><ele>220.33333333333331</ele><time>2026-03-28T12:08:37Z</time></trkpt><trkpt lat="45.88887712310092" lon="5.189379266135314"><ele>220.66666666666669</ele><time>2026-03-28T12:08:38Z</time></trkpt><trkpt lat="45.88905053766141" lon="5.18949713590749"><ele>221.0</ele><time>2026-03-28T12:08:39Z</time></trkpt><trkpt lat="45.88922353263345" lon="5.189613105277843"><ele>221.0</ele><time>2026-03-28T12:08:40Z</time></trkpt><trkpt lat="45.88939451226837" lon="5.189734528545742"><ele>221.0</ele><time>2026-03-28T12:08:41Z</time></trkpt><trkpt lat="45.88956438620802" lon="5.189853862353435"><ele>221.0</ele><time>2026-03-28T12:08:42Z</time></trkpt><trkpt lat="45.88973332896714" lon="5.1899713620496355"><ele>221.0</ele><time>2026-03-28T12:08:43Z</time></trkpt><trkpt lat="45.88989941603804" lon="5.190091354911473"><ele>221.0</ele><time>2026-03-28T12:08:44Z</time></trkpt><trkpt lat="45.890065700458024" lon="5.19020954336087"><ele>221.0</ele><time>2026-03-28T12:08:45Z</time></trkpt><trkpt lat="45.890242648436804" lon="5.190327932039192"><ele>221.0</ele><time>2026-03-28T12:08:46Z</time></trkpt><trkpt lat="45.89041412242431" lon="5.190435755434969"><ele>221.0</ele><time>2026-03-28T12:08:47Z</time></trkpt><trkpt lat="45.89058193357779" lon="5.190547036954756"><ele>221.0</ele><time>2026-03-28T12:08:48Z</time></trkpt><trkpt lat="45.890756287054586" lon="5.190648759673962"><ele>219.33333333333334</ele><time>2026-03-28T12:08:49Z</time></trkpt><trkpt lat="45.890936378333414" lon="5.190736208124232"><ele>217.66666666666669</ele><time>2026-03-28T12:08:50Z</time></trkpt><trkpt lat="45.89111787035536" lon="5.190805581553526"><ele>216.0</ele><time>2026-03-28T12:08:51Z</time></trkpt><trkpt lat="45.89129897029271" lon="5.190860023627259"><ele>216.0</ele><time>2026-03-28T12:08:52Z</time></trkpt><trkpt lat="45.8914773304263" lon="5.190907375809676"><ele>216.0</ele><time>2026-03-28T12:08:53Z</time></trkpt><trkpt lat="45.89165278880394" lon="5.190948552973465"><ele>216.0</ele><time>2026-03-28T12:08:54Z</time></trkpt><trkpt lat="45.891829909250326" lon="5.190986780687917"><ele>216.0</ele><time>2026-03-28T12:08:55Z</time></trkpt><trkpt lat="45.89200552629503" lon="5.19102585024688"><ele>216.0</ele><time>2026-03-28T12:08:56Z</time></trkpt><trkpt lat="45.89218348052305" lon="5.191064498579101"><ele>216.0</ele><time>2026-03-28T12:08:57Z</time></trkpt><trkpt lat="45.89235633058412" lon="5.191106007232961"><ele>216.0</ele><time>2026-03-28T12:08:58Z</time></trkpt><trkpt lat="45.8925255491508" lon="5.191143180995653"><ele>216.0</ele><time>2026-03-28T12:08:59Z</time></trkpt><trkpt lat="45.89269337345658" lon="5.191180910098605"><ele>216.0</ele><time>2026-03-28T12:09:00Z</time></trkpt><trkpt lat="45.89285426251742" lon="5.191216767229142"><ele>216.33333333333331</ele><time>2026-03-28T12:09:01Z</time></trkpt><trkpt lat="45.89301067790838" lon="5.191253887887261"><ele>216.66666666666666</ele><time>2026-03-28T12:09:02Z</time></trkpt><trkpt lat="45.89316089707768" lon="5.191286084689457"><ele>217.0</ele><time>2026-03-28T12:09:03Z</time></trkpt><trkpt lat="45.89330226735613" lon="5.191314205970003"><ele>216.25</ele><time>2026-03-28T12:09:04Z</time></trkpt><trkpt lat="45.893443692801625" lon="5.191344309030099"><ele>215.5</ele><time>2026-03-28T12:09:05Z</time></trkpt><trkpt lat="45.89358453453141" lon="5.191375912415517"><ele>214.75</ele><time>2026-03-28T12:09:06Z</time></trkpt><trkpt lat="45.8937263118794" lon="5.191407272908348"><ele>214.0</ele><time>2026-03-28T12:09:07Z</time></trkpt><trkpt lat="45.893864894701714" lon="5.191440811328568"><ele>214.0</ele><time>2026-03-28T12:09:08Z</time></trkpt><trkpt lat="45.89400582652031" lon="5.191473930291978"><ele>214.0</ele><time>2026-03-28T12:09:09Z</time></trkpt><trkpt lat="45.89415183559035" lon="5.191505127353735"><ele>214.0</ele><time>2026-03-28T12:09:10Z</time></trkpt><trkpt lat="45.89429840758963" lon="5.191541042541302"><ele>214.0</ele><time>2026-03-28T12:09:11Z</time></trkpt><trkpt lat="45.89444540605682" lon="5.19157463051866"><ele>214.33333333333331</ele><time>2026-03-28T12:09:12Z</time></trkpt><trkpt lat="45.89459416141811" lon="5.191608989277086"><ele>214.66666666666669</ele><time>2026-03-28T12:09:13Z</time></trkpt><trkpt lat="45.89474285918064" lon="5.191645112923601"><ele>215.0</ele><time>2026-03-28T12:09:14Z</time></trkpt><trkpt lat="45.89489516277203" lon="5.191680103630184"><ele>215.0</ele><time>2026-03-28T12:09:15Z</time></trkpt><trkpt lat="45.89504818823195" lon="5.191716067621739"><ele>215.0</ele><time>2026-03-28T12:09:16Z</time></trkpt><trkpt lat="45.895198488438275" lon="5.191747704001237"><ele>215.0</ele><time>2026-03-28T12:09:17Z</time></trkpt><trkpt lat="45.89534767629004" lon="5.19177974849672"><ele>215.0</ele><time>2026-03-28T12:09:18Z</time></trkpt><trkpt lat="45.89549602710524" lon="5.191812230545396"><ele>215.0</ele><time>2026-03-28T12:09:19Z</time></trkpt><trkpt lat="45.895637892453635" lon="5.191843482302071"><ele>215.0</ele><time>2026-03-28T12:09:20Z</time></trkpt><trkpt lat="45.89577026656263" lon="5.191866918727812"><ele>215.0</ele><time>2026-03-28T12:09:21Z</time></trkpt><trkpt lat="45.89590357797953" lon="5.191889053306438"><ele>214.75</ele><time>2026-03-28T12:09:22Z</time></trkpt><trkpt lat="45.89603244392312" lon="5.191899611658755"><ele>214.5</ele><time>2026-03-28T12:09:23Z</time></trkpt><trkpt lat="45.89615795336314" lon="5.191901683967016"><ele>214.25</ele><time>2026-03-28T12:09:24Z</time></trkpt><trkpt lat="45.896273809948056" lon="5.191900033923737"><ele>214.0</ele><time>2026-03-28T12:09:25Z</time></trkpt><trkpt lat="45.8963911550379" lon="5.191892763568472"><ele>214.0</ele><time>2026-03-28T12:09:26Z</time></trkpt><trkpt lat="45.89650320120487" lon="5.191879939731821"><ele>213.99999999999997</ele><time>2026-03-28T12:09:27Z</time></trkpt><trkpt lat="45.896610335049736" lon="5.191868543369868"><ele>213.99999999999997</ele><time>2026-03-28T12:09:28Z</time></trkpt><trkpt lat="45.89670734647801" lon="5.1918553393354525"><ele>214.0</ele><time>2026-03-28T12:09:29Z</time></trkpt><trkpt lat="45.896798046598576" lon="5.1918450419476585"><ele>214.0</ele><time>2026-03-28T12:09:30Z</time></trkpt><trkpt lat="45.89688121963929" lon="5.191839111704181"><ele>213.99999999999997</ele><time>2026-03-28T12:09:31Z</time></trkpt><trkpt lat="45.896954521691065" lon="5.1918287611009974"><ele>214.0</ele><time>2026-03-28T12:09:32Z</time></trkpt><trkpt lat="45.897065457322114" lon="5.191812450012508"><ele>214.0</ele><time>2026-03-28T12:09:34Z</time></trkpt><trkpt lat="45.89714698078187" lon="5.191803416487241"><ele>214.0</ele><time>2026-03-28T12:09:36Z</time></trkpt><trkpt lat="45.89722002780706" lon="5.191809752143622"><ele>213.99999999999997</ele><time>2026-03-28T12:09:45Z</time></trkpt><trkpt lat="45.89729534065916" lon="5.191868304694991"><ele>214.0</ele><time>2026-03-28T12:09:48Z</time></trkpt><trkpt lat="45.89734792332367" lon="5.191979711584792"><ele>213.99999999999997</ele><time>2026-03-28T12:09:50Z</time></trkpt><trkpt lat="45.897392272747894" lon="5.192049592761915"><ele>214.0</ele><time>2026-03-28T12:09:51Z</time></trkpt><trkpt lat="45.89745441505295" lon="5.192108080311169"><ele>214.0</ele><time>2026-03-28T12:09:52Z</time></trkpt><trkpt lat="45.89752389115252" lon="5.192127637029585"><ele>214.0</ele><time>2026-03-28T12:09:53Z</time></trkpt><trkpt lat="45.897574970613526" lon="5.192216234655781"><ele>213.99999999999997</ele><time>2026-03-28T12:09:54Z</time></trkpt><trkpt lat="45.897618982211704" lon="5.192302415100397"><ele>214.0</ele><time>2026-03-28T12:09:55Z</time></trkpt><trkpt lat="45.897657929742785" lon="5.192409935334148"><ele>214.6</ele><time>2026-03-28T12:09:56Z</time></trkpt><trkpt lat="45.89769628225406" lon="5.1925305524328875"><ele>215.2</ele><time>2026-03-28T12:09:57Z</time></trkpt><trkpt lat="45.8977463040435" lon="5.1926597312296945"><ele>215.79999999999998</ele><time>2026-03-28T12:09:58Z</time></trkpt><trkpt lat="45.89781109747043" lon="5.192793474320187"><ele>216.39999999999998</ele><time>2026-03-28T12:09:59Z</time></trkpt><trkpt lat="45.897889383238095" lon="5.192934634800007"><ele>217.0</ele><time>2026-03-28T12:10:00Z</time></trkpt><trkpt lat="45.897979974388164" lon="5.193075826054413"><ele>217.0</ele><time>2026-03-28T12:10:01Z</time></trkpt><trkpt lat="45.89807534532096" lon="5.1932072492034385"><ele>217.0</ele><time>2026-03-28T12:10:02Z</time></trkpt><trkpt lat="45.89817426584578" lon="5.193337400038041"><ele>217.0</ele><time>2026-03-28T12:10:03Z</time></trkpt><trkpt lat="45.89828456146945" lon="5.193466650092249"><ele>217.0</ele><time>2026-03-28T12:10:04Z</time></trkpt><trkpt lat="45.89839574483082" lon="5.193597502348748"><ele>216.66666666666666</ele><time>2026-03-28T12:10:05Z</time></trkpt><trkpt lat="45.89850812072765" lon="5.19373541029459"><ele>216.33333333333331</ele><time>2026-03-28T12:10:06Z</time></trkpt><trkpt lat="45.89862195775235" lon="5.193876438154746"><ele>216.0</ele><time>2026-03-28T12:10:07Z</time></trkpt><trkpt lat="45.89873705308876" lon="5.194020902287123"><ele>216.0</ele><time>2026-03-28T12:10:08Z</time></trkpt><trkpt lat="45.89885394917521" lon="5.194164192538738"><ele>216.0</ele><time>2026-03-28T12:10:09Z</time></trkpt><trkpt lat="45.8989717006395" lon="5.194309157055601"><ele>216.0</ele><time>2026-03-28T12:10:10Z</time></trkpt><trkpt lat="45.899089951481216" lon="5.194455368691599"><ele>216.0</ele><time>2026-03-28T12:10:11Z</time></trkpt><trkpt lat="45.8992107404487" lon="5.19460267708247"><ele>216.0</ele><time>2026-03-28T12:10:12Z</time></trkpt><trkpt lat="45.8993297578577" lon="5.194750237713717"><ele>216.0</ele><time>2026-03-28T12:10:13Z</time></trkpt><trkpt lat="45.89944872814392" lon="5.194899873940609"><ele>215.66666666666669</ele><time>2026-03-28T12:10:14Z</time></trkpt><trkpt lat="45.8995667796094" lon="5.195053664028338"><ele>215.33333333333334</ele><time>2026-03-28T12:10:15Z</time></trkpt><trkpt lat="45.89968410751418" lon="5.195212477084757"><ele>215.0</ele><time>2026-03-28T12:10:16Z</time></trkpt><trkpt lat="45.899797284076115" lon="5.195376526895768"><ele>215.0</ele><time>2026-03-28T12:10:17Z</time></trkpt><trkpt lat="45.89990633673142" lon="5.195550978870175"><ele>215.0</ele><time>2026-03-28T12:10:18Z</time></trkpt><trkpt lat="45.90001558868274" lon="5.195730475520445"><ele>215.0</ele><time>2026-03-28T12:10:19Z</time></trkpt><trkpt lat="45.900124204747264" lon="5.195914266109989"><ele>215.33333333333334</ele><time>2026-03-28T12:10:20Z</time></trkpt><trkpt lat="45.900232706347474" lon="5.1961015635211245"><ele>215.66666666666669</ele><time>2026-03-28T12:10:21Z</time></trkpt><trkpt lat="45.90034090344969" lon="5.196287449580861"><ele>216.0</ele><time>2026-03-28T12:10:22Z</time></trkpt><trkpt lat="45.9004462962213" lon="5.196475096371012"><ele>216.0</ele><time>2026-03-28T12:10:23Z</time></trkpt><trkpt lat="45.90055579247293" lon="5.196660786294121"><ele>216.0</ele><time>2026-03-28T12:10:24Z</time></trkpt><trkpt lat="45.900670222913234" lon="5.196842577160387"><ele>216.0</ele><time>2026-03-28T12:10:25Z</time></trkpt><trkpt lat="45.90077468700691" lon="5.19702741730675"><ele>216.0</ele><time>2026-03-28T12:10:26Z</time></trkpt><trkpt lat="45.90088106684667" lon="5.197209922498431"><ele>216.0</ele><time>2026-03-28T12:10:27Z</time></trkpt><trkpt lat="45.90098518045499" lon="5.197394058250787"><ele>216.0</ele><time>2026-03-28T12:10:28Z</time></trkpt><trkpt lat="45.90109105189913" lon="5.197571605017726"><ele>216.0</ele><time>2026-03-28T12:10:29Z</time></trkpt><trkpt lat="45.90119526618352" lon="5.197748625538906"><ele>216.0</ele><time>2026-03-28T12:10:30Z</time></trkpt><trkpt lat="45.90129954328617" lon="5.1979260390980215"><ele>216.0</ele><time>2026-03-28T12:10:31Z</time></trkpt><trkpt lat="45.90140261512948" lon="5.198105828311693"><ele>215.66666666666669</ele><time>2026-03-28T12:10:32Z</time></trkpt><trkpt lat="45.90150324261631" lon="5.198280823888631"><ele>215.33333333333334</ele><time>2026-03-28T12:10:33Z</time></trkpt><trkpt lat="45.90160430419261" lon="5.1984548411765426"><ele>215.0</ele><time>2026-03-28T12:10:34Z</time></trkpt><trkpt lat="45.90170332205095" lon="5.198627085655327"><ele>215.5</ele><time>2026-03-28T12:10:35Z</time></trkpt><trkpt lat="45.90180040708618" lon="5.1987926323800435"><ele>216.0</ele><time>2026-03-28T12:10:36Z</time></trkpt><trkpt lat="45.901891223948084" lon="5.198958780647495"><ele>216.5</ele><time>2026-03-28T12:10:37Z</time></trkpt><trkpt lat="45.901974188914735" lon="5.199125574477876"><ele>217.0</ele><time>2026-03-28T12:10:38Z</time></trkpt><trkpt lat="45.90204747672786" lon="5.1992910061807995"><ele>217.0</ele><time>2026-03-28T12:10:39Z</time></trkpt><trkpt lat="45.90210745428604" lon="5.199441594462979"><ele>217.0</ele><time>2026-03-28T12:10:40Z</time></trkpt><trkpt lat="45.9021518177856" lon="5.199583824824374"><ele>217.0</ele><time>2026-03-28T12:10:41Z</time></trkpt><trkpt lat="45.90219129604636" lon="5.199711500440697"><ele>217.0</ele><time>2026-03-28T12:10:42Z</time></trkpt><trkpt lat="45.902222537495334" lon="5.199825368758025"><ele>217.0</ele><time>2026-03-28T12:10:43Z</time></trkpt><trkpt lat="45.902246718111094" lon="5.1999318833853945"><ele>217.0</ele><time>2026-03-28T12:10:44Z</time></trkpt><trkpt lat="45.90225375653285" lon="5.200035838144683"><ele>217.0</ele><time>2026-03-28T12:10:45Z</time></trkpt><trkpt lat="45.902237009878064" lon="5.2001334514350654"><ele>217.0</ele><time>2026-03-28T12:10:46Z</time></trkpt><trkpt lat="45.9022054197558" lon="5.200229814568193"><ele>217.0</ele><time>2026-03-28T12:10:47Z</time></trkpt><trkpt lat="45.90216266653156" lon="5.200315073659803"><ele>217.0</ele><time>2026-03-28T12:10:48Z</time></trkpt><trkpt lat="45.90210953992144" lon="5.200384352686532"><ele>217.0</ele><time>2026-03-28T12:10:49Z</time></trkpt><trkpt lat="45.90205153963385" lon="5.200441219906109"><ele>217.0</ele><time>2026-03-28T12:10:50Z</time></trkpt><trkpt lat="45.90199569596834" lon="5.200487126936067"><ele>216.99999999999997</ele><time>2026-03-28T12:10:51Z</time></trkpt><trkpt lat="45.901907187394706" lon="5.20052229170657"><ele>217.0</ele><time>2026-03-28T12:10:53Z</time></trkpt><trkpt lat="45.901819245323864" lon="5.200479356279292"><ele>217.0</ele><time>2026-03-28T12:10:55Z</time></trkpt><trkpt lat="45.901811227427146" lon="5.200361875337515"><ele>217.0</ele><time>2026-03-28T12:10:57Z</time></trkpt><trkpt lat="45.90182059716646" lon="5.200270463390643"><ele>216.99999999999997</ele><time>2026-03-28T12:10:59Z</time></trkpt><trkpt lat="45.90186784089289" lon="5.20016421307767"><ele>217.0</ele><time>2026-03-28T12:11:01Z</time></trkpt><trkpt lat="45.90190338017783" lon="5.200063896244327"><ele>217.0</ele><time>2026-03-28T12:11:03Z</time></trkpt><trkpt lat="45.90191887747935" lon="5.199950717148313"><ele>217.0</ele><time>2026-03-28T12:11:06Z</time></trkpt><trkpt lat="45.90196493249661" lon="5.199878873162119"><ele>217.0</ele><time>2026-03-28T12:11:13Z</time></trkpt><trkpt lat="45.901902804948506" lon="5.199962453729951"><ele>217.0</ele><time>2026-03-28T12:11:54Z</time></trkpt><trkpt lat="45.9018097164152" lon="5.199971886696023"><ele>217.0</ele><time>2026-03-28T12:17:22.34Z</time></trkpt></trkseg><trkseg><trkpt lat="45.901855919460026" lon="5.1997010689268635"><ele>217.0</ele><time>2026-03-28T13:17:47.634Z</time></trkpt><trkpt lat="45.90195755376348" lon="5.199903335735191"><ele>217.0</ele><time>2026-03-28T13:17:49.634Z</time></trkpt><trkpt lat="45.901911688580874" lon="5.199980094086477"><ele>217.0</ele><time>2026-03-28T13:18:31Z</time></trkpt><trkpt lat="45.90186180403026" lon="5.20006711385107"><ele>217.0</ele><time>2026-03-28T13:18:34Z</time></trkpt><trkpt lat="45.90179963431536" lon="5.2001540412478215"><ele>217.0</ele><time>2026-03-28T13:18:37Z</time></trkpt><trkpt lat="45.901747755573695" lon="5.200254333429566"><ele>216.99999999999997</ele><time>2026-03-28T13:18:39Z</time></trkpt><trkpt lat="45.901713009123284" lon="5.200359357335088"><ele>217.0</ele><time>2026-03-28T13:18:41Z</time></trkpt><trkpt lat="45.901738399312165" lon="5.200492975598884"><ele>217.0</ele><time>2026-03-28T13:18:43Z</time></trkpt><trkpt lat="45.901784310692015" lon="5.200560520173997"><ele>217.0</ele><time>2026-03-28T13:18:45Z</time></trkpt><trkpt lat="45.901847026676265" lon="5.200610286652338"><ele>216.99999999999997</ele><time>2026-03-28T13:18:54Z</time></trkpt><trkpt lat="45.901940759810785" lon="5.2005755337766875"><ele>217.0</ele><time>2026-03-28T13:18:56Z</time></trkpt><trkpt lat="45.90204057803991" lon="5.200509162960294"><ele>217.0</ele><time>2026-03-28T13:18:58Z</time></trkpt><trkpt lat="45.90210402094183" lon="5.200474481268328"><ele>217.0</ele><time>2026-03-28T13:18:59Z</time></trkpt><trkpt lat="45.902164649410174" lon="5.200441889162249"><ele>217.0</ele><time>2026-03-28T13:19:00Z</time></trkpt><trkpt lat="45.90228220935073" lon="5.200426536507786"><ele>217.0</ele><time>2026-03-28T13:19:02Z</time></trkpt><trkpt lat="45.902410165998596" lon="5.200460949137737"><ele>217.0</ele><time>2026-03-28T13:19:04Z</time></trkpt><trkpt lat="45.90252610030489" lon="5.200367338916838"><ele>216.99999999999997</ele><time>2026-03-28T13:19:06Z</time></trkpt><trkpt lat="45.90256805418082" lon="5.2002692813699705"><ele>217.0</ele><time>2026-03-28T13:19:07Z</time></trkpt><trkpt lat="45.90259892385091" lon="5.200167003390502"><ele>217.0</ele><time>2026-03-28T13:19:08Z</time></trkpt><trkpt lat="45.90262767025435" lon="5.200077430820017"><ele>217.0</ele><time>2026-03-28T13:19:09Z</time></trkpt><trkpt lat="45.90275122529237" lon="5.200052563792539"><ele>216.99999999999997</ele><time>2026-03-28T13:19:10Z</time></trkpt><trkpt lat="45.9028295236952" lon="5.200012150887727"><ele>217.0</ele><time>2026-03-28T13:19:11Z</time></trkpt><trkpt lat="45.90290319019985" lon="5.199963928518597"><ele>216.99999999999997</ele><time>2026-03-28T13:19:12Z</time></trkpt><trkpt lat="45.902981431217896" lon="5.199918861095489"><ele>217.0</ele><time>2026-03-28T13:19:13Z</time></trkpt><trkpt lat="45.90306235350201" lon="5.199865633525884"><ele>217.0</ele><time>2026-03-28T13:19:14Z</time></trkpt><trkpt lat="45.90313168189629" lon="5.199809107917978"><ele>217.0</ele><time>2026-03-28T13:19:15Z</time></trkpt><trkpt lat="45.903200249050265" lon="5.19974700862693"><ele>216.99999999999997</ele><time>2026-03-28T13:19:16Z</time></trkpt><trkpt lat="45.90326341068197" lon="5.199676593496745"><ele>217.0</ele><time>2026-03-28T13:19:17Z</time></trkpt><trkpt lat="45.90331817991507" lon="5.199599987633307"><ele>216.99999999999997</ele><time>2026-03-28T13:19:18Z</time></trkpt><trkpt lat="45.903375519224355" lon="5.1995206260282"><ele>217.0</ele><time>2026-03-28T13:19:19Z</time></trkpt><trkpt lat="45.90342935366015" lon="5.199443205329623"><ele>217.0</ele><time>2026-03-28T13:19:20Z</time></trkpt><trkpt lat="45.90348578519882" lon="5.199362798760496"><ele>217.0</ele><time>2026-03-28T13:19:21Z</time></trkpt><trkpt lat="45.90354257275972" lon="5.199285170360489"><ele>216.99999999999997</ele><time>2026-03-28T13:19:22Z</time></trkpt><trkpt lat="45.90359767220389" lon="5.1992109024533635"><ele>217.0</ele><time>2026-03-28T13:19:23Z</time></trkpt><trkpt lat="45.90364815959165" lon="5.199144617592139"><ele>217.39999999999998</ele><time>2026-03-28T13:19:24Z</time></trkpt><trkpt lat="45.90372196303092" lon="5.19903691033596"><ele>217.79999999999998</ele><time>2026-03-28T13:19:26Z</time></trkpt><trkpt lat="45.90378333628074" lon="5.198952177005215"><ele>218.2</ele><time>2026-03-28T13:19:28Z</time></trkpt><trkpt lat="45.90384784628339" lon="5.198883077486569"><ele>218.6</ele><time>2026-03-28T13:19:30Z</time></trkpt><trkpt lat="45.90395594507986" lon="5.198725598521384"><ele>219.0</ele><time>2026-03-28T13:19:32Z</time></trkpt><trkpt lat="45.90400536179825" lon="5.1986181812364425"><ele>219.0</ele><time>2026-03-28T13:19:33Z</time></trkpt><trkpt lat="45.90409572173034" lon="5.1985096765276655"><ele>219.0</ele><time>2026-03-28T13:19:35Z</time></trkpt><trkpt lat="45.90417511879965" lon="5.198383192502562"><ele>219.0</ele><time>2026-03-28T13:19:37Z</time></trkpt><trkpt lat="45.9042560931382" lon="5.198250912369496"><ele>219.0</ele><time>2026-03-28T13:19:39Z</time></trkpt><trkpt lat="45.904330750524714" lon="5.198105835043127"><ele>220.6</ele><time>2026-03-28T13:19:41Z</time></trkpt><trkpt lat="45.904394968159146" lon="5.197970676463895"><ele>222.2</ele><time>2026-03-28T13:19:43Z</time></trkpt><trkpt lat="45.90449432194063" lon="5.197883068346622"><ele>223.79999999999998</ele><time>2026-03-28T13:19:45Z</time></trkpt><trkpt lat="45.90458259823509" lon="5.197844931429268"><ele>225.39999999999998</ele><time>2026-03-28T13:19:47Z</time></trkpt><trkpt lat="45.90467143973951" lon="5.1978986539791885"><ele>227.0</ele><time>2026-03-28T13:19:55Z</time></trkpt><trkpt lat="45.90475335772195" lon="5.1979362800367745"><ele>227.0</ele><time>2026-03-28T13:19:57Z</time></trkpt><trkpt lat="45.90478078512504" lon="5.197792381112173"><ele>227.0</ele><time>2026-03-28T13:19:59Z</time></trkpt><trkpt lat="45.9047575506883" lon="5.197653698860888"><ele>227.0</ele><time>2026-03-28T13:20:01Z</time></trkpt><trkpt lat="45.90475291516055" lon="5.197473146698042"><ele>227.0</ele><time>2026-03-28T13:20:03Z</time></trkpt><trkpt lat="45.904748456887496" lon="5.197381236875533"><ele>227.0</ele><time>2026-03-28T13:20:04Z</time></trkpt><trkpt lat="45.904743616877084" lon="5.197286892757481"><ele>226.83333333333334</ele><time>2026-03-28T13:20:05Z</time></trkpt><trkpt lat="45.904734890731675" lon="5.197189920738363"><ele>226.66666666666669</ele><time>2026-03-28T13:20:06Z</time></trkpt><trkpt lat="45.90472260496179" lon="5.1970879235103595"><ele>226.5</ele><time>2026-03-28T13:20:07Z</time></trkpt><trkpt lat="45.90471463597779" lon="5.1969808942335876"><ele>226.33333333333331</ele><time>2026-03-28T13:20:08Z</time></trkpt><trkpt lat="45.90470156380348" lon="5.196880318032836"><ele>226.16666666666666</ele><time>2026-03-28T13:20:09Z</time></trkpt><trkpt lat="45.90469086941468" lon="5.196790870410281"><ele>226.0</ele><time>2026-03-28T13:20:10Z</time></trkpt><trkpt lat="45.904662063018655" lon="5.196635454542755"><ele>226.0</ele><time>2026-03-28T13:20:12Z</time></trkpt><trkpt lat="45.904645633921334" lon="5.196539458681452"><ele>226.00000000000003</ele><time>2026-03-28T13:20:14Z</time></trkpt><trkpt lat="45.904751600972624" lon="5.196430982528735"><ele>226.00000000000003</ele><time>2026-03-28T13:20:18Z</time></trkpt><trkpt lat="45.904821565312346" lon="5.196395640170355"><ele>226.0</ele><time>2026-03-28T13:20:20Z</time></trkpt><trkpt lat="45.904924954297066" lon="5.196322926517466"><ele>226.0</ele><time>2026-03-28T13:20:22Z</time></trkpt><trkpt lat="45.905027110678006" lon="5.196273350297685"><ele>227.33333333333331</ele><time>2026-03-28T13:20:24Z</time></trkpt><trkpt lat="45.90508857017554" lon="5.19624750435978"><ele>228.66666666666666</ele><time>2026-03-28T13:20:25Z</time></trkpt><trkpt lat="45.905212277517755" lon="5.196204201364647"><ele>230.0</ele><time>2026-03-28T13:20:27Z</time></trkpt><trkpt lat="45.90527303638452" lon="5.1961764657191996"><ele>231.33333333333331</ele><time>2026-03-28T13:20:28Z</time></trkpt><trkpt lat="45.90534122242571" lon="5.196176738801678"><ele>232.66666666666666</ele><time>2026-03-28T13:20:29Z</time></trkpt><trkpt lat="45.9054037452293" lon="5.19615707506658"><ele>234.0</ele><time>2026-03-28T13:20:30Z</time></trkpt><trkpt lat="45.905473476987794" lon="5.196129316812697"><ele>234.0</ele><time>2026-03-28T13:20:31Z</time></trkpt><trkpt lat="45.905538830475344" lon="5.1961017177639395"><ele>234.0</ele><time>2026-03-28T13:20:32Z</time></trkpt><trkpt lat="45.90560684435374" lon="5.196072995228999"><ele>234.0</ele><time>2026-03-28T13:20:33Z</time></trkpt><trkpt lat="45.905730919359556" lon="5.196020597835634"><ele>234.0</ele><time>2026-03-28T13:20:35Z</time></trkpt><trkpt lat="45.905789022532765" lon="5.1959702034156985"><ele>234.0</ele><time>2026-03-28T13:20:36Z</time></trkpt><trkpt lat="45.9058539236063" lon="5.195943762927755"><ele>234.0</ele><time>2026-03-28T13:20:37Z</time></trkpt><trkpt lat="45.905916444968376" lon="5.195910572869207"><ele>234.5</ele><time>2026-03-28T13:20:38Z</time></trkpt><trkpt lat="45.90597507761176" lon="5.195869199690328"><ele>235.0</ele><time>2026-03-28T13:20:39Z</time></trkpt><trkpt lat="45.9060844732777" lon="5.1957853173630895"><ele>235.5</ele><time>2026-03-28T13:20:41Z</time></trkpt><trkpt lat="45.90614249394282" lon="5.195738542170231"><ele>236.0</ele><time>2026-03-28T13:20:42Z</time></trkpt><trkpt lat="45.90619797661803" lon="5.195691752866348"><ele>236.5</ele><time>2026-03-28T13:20:43Z</time></trkpt><trkpt lat="45.90630500260832" lon="5.1956113911239905"><ele>237.0</ele><time>2026-03-28T13:20:45Z</time></trkpt><trkpt lat="45.906416501025156" lon="5.1955553674545625"><ele>237.66666666666666</ele><time>2026-03-28T13:20:47Z</time></trkpt><trkpt lat="45.90652664027144" lon="5.195471616218807"><ele>238.33333333333331</ele><time>2026-03-28T13:20:49Z</time></trkpt><trkpt lat="45.90658243731555" lon="5.1954268211053956"><ele>239.0</ele><time>2026-03-28T13:20:50Z</time></trkpt><trkpt lat="45.90663046456747" lon="5.195364275559115"><ele>239.66666666666666</ele><time>2026-03-28T13:20:51Z</time></trkpt><trkpt lat="45.90668672070494" lon="5.195323161071715"><ele>240.33333333333331</ele><time>2026-03-28T13:20:52Z</time></trkpt><trkpt lat="45.90679030186027" lon="5.195243128279891"><ele>241.0</ele><time>2026-03-28T13:20:54Z</time></trkpt><trkpt lat="45.90688912850283" lon="5.195164944485991"><ele>241.99999999999997</ele><time>2026-03-28T13:20:56Z</time></trkpt><trkpt lat="45.906984967412825" lon="5.195086918899312"><ele>243.0</ele><time>2026-03-28T13:20:58Z</time></trkpt><trkpt lat="45.90705923432776" lon="5.195016649714749"><ele>244.0</ele><time>2026-03-28T13:21:00Z</time></trkpt><trkpt lat="45.9071193418078" lon="5.194966553634548"><ele>245.0</ele><time>2026-03-28T13:21:02Z</time></trkpt><trkpt lat="45.9071840013084" lon="5.194910596816952"><ele>245.99999999999997</ele><time>2026-03-28T13:21:04Z</time></trkpt><trkpt lat="45.90725030062436" lon="5.194903037173535"><ele>247.0</ele><time>2026-03-28T13:21:05Z</time></trkpt><trkpt lat="45.90732354724135" lon="5.194916991429925"><ele>246.99999999999997</ele><time>2026-03-28T13:21:06Z</time></trkpt><trkpt lat="45.90741916175521" lon="5.194920833158757"><ele>247.0</ele><time>2026-03-28T13:21:07Z</time></trkpt><trkpt lat="45.907505619040826" lon="5.19491527224735"><ele>247.0</ele><time>2026-03-28T13:21:08Z</time></trkpt><trkpt lat="45.90759242705623" lon="5.194937320859353"><ele>247.0</ele><time>2026-03-28T13:21:09Z</time></trkpt><trkpt lat="45.907676476411396" lon="5.194939890415196"><ele>246.99999999999997</ele><time>2026-03-28T13:21:10Z</time></trkpt><trkpt lat="45.90775891552067" lon="5.1949186723331575"><ele>247.0</ele><time>2026-03-28T13:21:11Z</time></trkpt><trkpt lat="45.90782538083795" lon="5.194941708451022"><ele>247.28571428571428</ele><time>2026-03-28T13:21:12Z</time></trkpt><trkpt lat="45.90789876034158" lon="5.194920136014048"><ele>247.57142857142856</ele><time>2026-03-28T13:21:13Z</time></trkpt><trkpt lat="45.907969604156946" lon="5.1949202878327405"><ele>247.85714285714283</ele><time>2026-03-28T13:21:14Z</time></trkpt><trkpt lat="45.90803759961548" lon="5.194919458701172"><ele>248.14285714285714</ele><time>2026-03-28T13:21:15Z</time></trkpt><trkpt lat="45.90810258122985" lon="5.19491561582746"><ele>248.4285714285714</ele><time>2026-03-28T13:21:16Z</time></trkpt><trkpt lat="45.908174655123155" lon="5.194916203478058"><ele>248.7142857142857</ele><time>2026-03-28T13:21:17Z</time></trkpt><trkpt lat="45.90825336938204" lon="5.1949078490769836"><ele>249.0</ele><time>2026-03-28T13:21:18Z</time></trkpt><trkpt lat="45.90833753017976" lon="5.19490351951231"><ele>249.6</ele><time>2026-03-28T13:21:19Z</time></trkpt><trkpt lat="45.908431406805185" lon="5.194900445187396"><ele>250.2</ele><time>2026-03-28T13:21:20Z</time></trkpt><trkpt lat="45.90852411211347" lon="5.194893670098098"><ele>250.79999999999998</ele><time>2026-03-28T13:21:21Z</time></trkpt><trkpt lat="45.908623701407215" lon="5.1948858233485256"><ele>251.39999999999998</ele><time>2026-03-28T13:21:22Z</time></trkpt><trkpt lat="45.90871969833906" lon="5.194882101440749"><ele>252.0</ele><time>2026-03-28T13:21:23Z</time></trkpt><trkpt lat="45.90881946917473" lon="5.1948839242223475"><ele>252.0</ele><time>2026-03-28T13:21:24Z</time></trkpt><trkpt lat="45.9089193788856" lon="5.194879755488873"><ele>252.0</ele><time>2026-03-28T13:21:25Z</time></trkpt><trkpt lat="45.90902080606111" lon="5.1948850244395794"><ele>252.0</ele><time>2026-03-28T13:21:26Z</time></trkpt><trkpt lat="45.90912507517959" lon="5.19487977115818"><ele>252.0</ele><time>2026-03-28T13:21:27Z</time></trkpt><trkpt lat="45.90922383389119" lon="5.1948682423741745"><ele>252.0</ele><time>2026-03-28T13:21:28Z</time></trkpt><trkpt lat="45.90932029800762" lon="5.194864127304014"><ele>253.39999999999998</ele><time>2026-03-28T13:21:29Z</time></trkpt><trkpt lat="45.90941879995756" lon="5.194858102358782"><ele>254.79999999999998</ele><time>2026-03-28T13:21:30Z</time></trkpt><trkpt lat="45.90952063362033" lon="5.194849053453744"><ele>256.2</ele><time>2026-03-28T13:21:31Z</time></trkpt><trkpt lat="45.9096157109168" lon="5.194843106196624"><ele>257.59999999999997</ele><time>2026-03-28T13:21:32Z</time></trkpt><trkpt lat="45.909715842102905" lon="5.194831719799812"><ele>259.0</ele><time>2026-03-28T13:21:33Z</time></trkpt><trkpt lat="45.909817264166314" lon="5.194814131878107"><ele>260.2</ele><time>2026-03-28T13:21:34Z</time></trkpt><trkpt lat="45.909918092718144" lon="5.194798430032288"><ele>261.4</ele><time>2026-03-28T13:21:35Z</time></trkpt><trkpt lat="45.91002249390081" lon="5.194782408449006"><ele>262.6</ele><time>2026-03-28T13:21:36Z</time></trkpt><trkpt lat="45.91012679329941" lon="5.194762825681532"><ele>263.8</ele><time>2026-03-28T13:21:37Z</time></trkpt><trkpt lat="45.9102289675798" lon="5.1947406746507525"><ele>265.0</ele><time>2026-03-28T13:21:38Z</time></trkpt><trkpt lat="45.910331448339235" lon="5.194712411946377"><ele>265.6</ele><time>2026-03-28T13:21:39Z</time></trkpt><trkpt lat="45.91043367165078" lon="5.194679949113322"><ele>266.2</ele><time>2026-03-28T13:21:40Z</time></trkpt><trkpt lat="45.91053766378518" lon="5.1946451241817995"><ele>266.8</ele><time>2026-03-28T13:21:41Z</time></trkpt><trkpt lat="45.91063985239495" lon="5.19460059174666"><ele>267.4</ele><time>2026-03-28T13:21:42Z</time></trkpt><trkpt lat="45.9107398104674" lon="5.194555017883038"><ele>268.0</ele><time>2026-03-28T13:21:43Z</time></trkpt><trkpt lat="45.910841467668476" lon="5.194503518142483"><ele>267.6</ele><time>2026-03-28T13:21:44Z</time></trkpt><trkpt lat="45.91094084968574" lon="5.194452296381746"><ele>267.20000000000005</ele><time>2026-03-28T13:21:45Z</time></trkpt><trkpt lat="45.91104469487164" lon="5.194397844351005"><ele>266.8</ele><time>2026-03-28T13:21:46Z</time></trkpt><trkpt lat="45.91114443151924" lon="5.194344875020791"><ele>266.40000000000003</ele><time>2026-03-28T13:21:47Z</time></trkpt><trkpt lat="45.911243947593356" lon="5.19430189036692"><ele>266.0</ele><time>2026-03-28T13:21:48Z</time></trkpt><trkpt lat="45.91134519052672" lon="5.194249629211715"><ele>266.0</ele><time>2026-03-28T13:21:49Z</time></trkpt><trkpt lat="45.911447572943395" lon="5.194193562437431"><ele>266.0</ele><time>2026-03-28T13:21:50Z</time></trkpt><trkpt lat="45.91155489837627" lon="5.19413814796983"><ele>266.0</ele><time>2026-03-28T13:21:51Z</time></trkpt><trkpt lat="45.91166317780018" lon="5.194085084501372"><ele>266.0</ele><time>2026-03-28T13:21:52Z</time></trkpt><trkpt lat="45.911767651875536" lon="5.194028102695784"><ele>267.0</ele><time>2026-03-28T13:21:53Z</time></trkpt><trkpt lat="45.91187006421687" lon="5.193972709386543"><ele>268.0</ele><time>2026-03-28T13:21:54Z</time></trkpt><trkpt lat="45.91196852118226" lon="5.193923143010805"><ele>269.0</ele><time>2026-03-28T13:21:55Z</time></trkpt><trkpt lat="45.912068941612695" lon="5.19388814811347"><ele>270.0</ele><time>2026-03-28T13:21:56Z</time></trkpt><trkpt lat="45.91215206466418" lon="5.193822642191336"><ele>271.0</ele><time>2026-03-28T13:21:57Z</time></trkpt><trkpt lat="45.91223132494694" lon="5.193759160498021"><ele>271.0</ele><time>2026-03-28T13:21:58Z</time></trkpt><trkpt lat="45.91229956990655" lon="5.193696588181153"><ele>271.0</ele><time>2026-03-28T13:21:59Z</time></trkpt><trkpt lat="45.91236359793655" lon="5.193645248778298"><ele>271.0</ele><time>2026-03-28T13:22:00Z</time></trkpt><trkpt lat="45.91242948953445" lon="5.193619791919755"><ele>271.0</ele><time>2026-03-28T13:22:01Z</time></trkpt><trkpt lat="45.91250394984308" lon="5.19363291751969"><ele>271.0</ele><time>2026-03-28T13:22:02Z</time></trkpt><trkpt lat="45.91257135950535" lon="5.193647221791651"><ele>271.0</ele><time>2026-03-28T13:22:03Z</time></trkpt><trkpt lat="45.91264373043165" lon="5.193630940177345"><ele>271.0</ele><time>2026-03-28T13:22:04Z</time></trkpt><trkpt lat="45.91269784946471" lon="5.193573381375604"><ele>271.3333333333333</ele><time>2026-03-28T13:22:05Z</time></trkpt><trkpt lat="45.91273793256089" lon="5.1934940025198495"><ele>271.66666666666663</ele><time>2026-03-28T13:22:06Z</time></trkpt><trkpt lat="45.91275106558812" lon="5.193404257615002"><ele>272.0</ele><time>2026-03-28T13:22:07Z</time></trkpt><trkpt lat="45.912697039384014" lon="5.193231773909185"><ele>272.3333333333333</ele><time>2026-03-28T13:22:09Z</time></trkpt><trkpt lat="45.912644322345315" lon="5.193170694138359"><ele>272.6666666666667</ele><time>2026-03-28T13:22:10Z</time></trkpt><trkpt lat="45.91258703081526" lon="5.19311346895658"><ele>273.0</ele><time>2026-03-28T13:22:11Z</time></trkpt><trkpt lat="45.91252161813269" lon="5.193091846219193"><ele>273.0</ele><time>2026-03-28T13:22:12Z</time></trkpt><trkpt lat="45.91246514218929" lon="5.193048355142477"><ele>273.0</ele><time>2026-03-28T13:22:13Z</time></trkpt><trkpt lat="45.91244326593401" lon="5.192826061934706"><ele>273.0</ele><time>2026-03-28T13:22:15Z</time></trkpt><trkpt lat="45.91246822510288" lon="5.192701237046687"><ele>273.0</ele><time>2026-03-28T13:22:17Z</time></trkpt><trkpt lat="45.91253868667043" lon="5.192639281966663"><ele>273.0</ele><time>2026-03-28T13:22:19Z</time></trkpt><trkpt lat="45.91262714274431" lon="5.192611979571531"><ele>273.0</ele><time>2026-03-28T13:22:21Z</time></trkpt><trkpt lat="45.9127331229621" lon="5.1925795524789615"><ele>273.0</ele><time>2026-03-28T13:22:23Z</time></trkpt><trkpt lat="45.91282568937902" lon="5.192545778663747"><ele>273.0</ele><time>2026-03-28T13:22:25Z</time></trkpt><trkpt lat="45.91289646522903" lon="5.1925184678663685"><ele>273.0</ele><time>2026-03-28T13:22:27Z</time></trkpt><trkpt lat="45.912963263006674" lon="5.192539221371434"><ele>273.0</ele><time>2026-03-28T13:22:30Z</time></trkpt><trkpt lat="45.913028099546715" lon="5.192501599279532"><ele>273.0</ele><time>2026-03-28T13:22:34Z</time></trkpt><trkpt lat="45.913090817914636" lon="5.193060729217904"><ele>273.0</ele><time>2026-03-28T13:28:43Z</time></trkpt><trkpt lat="45.91315360016992" lon="5.193033100979264"><ele>273.0</ele><time>2026-03-28T13:28:48Z</time></trkpt><trkpt lat="45.913237125593206" lon="5.192996343921288"><ele>273.0</ele><time>2026-03-28T13:28:50Z</time></trkpt><trkpt lat="45.91331840128699" lon="5.192960576463942"><ele>273.0</ele><time>2026-03-28T13:28:52Z</time></trkpt><trkpt lat="45.91340752200378" lon="5.192918882231534"><ele>273.0</ele><time>2026-03-28T13:28:54Z</time></trkpt><trkpt lat="45.91346903856757" lon="5.192890452889463"><ele>273.0</ele><time>2026-03-28T13:28:56Z</time></trkpt><trkpt lat="45.913544843815345" lon="5.1928512040884485"><ele>273.0</ele><time>2026-03-28T13:28:58Z</time></trkpt><trkpt lat="45.913618004831605" lon="5.192812959435372"><ele>273.0</ele><time>2026-03-28T13:29:00Z</time></trkpt><trkpt lat="45.91367292795576" lon="5.19289329356016"><ele>273.0</ele><time>2026-03-28T13:29:06Z</time></trkpt><trkpt lat="45.913592344538515" lon="5.192966784106034"><ele>273.0</ele><time>2026-03-28T13:29:08Z</time></trkpt><trkpt lat="45.9135243497928" lon="5.192971217508822"><ele>273.0</ele><time>2026-03-28T13:29:09Z</time></trkpt><trkpt lat="45.91345729427671" lon="5.192990487220313"><ele>273.0</ele><time>2026-03-28T13:29:10Z</time></trkpt><trkpt lat="45.91338411971335" lon="5.193016012042717"><ele>273.0</ele><time>2026-03-28T13:29:11Z</time></trkpt><trkpt lat="45.91330522693105" lon="5.193048030527031"><ele>273.0</ele><time>2026-03-28T13:29:12Z</time></trkpt><trkpt lat="45.91322386374281" lon="5.193081609651438"><ele>273.0</ele><time>2026-03-28T13:29:13Z</time></trkpt><trkpt lat="45.913140327968264" lon="5.193118948222236"><ele>273.0</ele><time>2026-03-28T13:29:14Z</time></trkpt><trkpt lat="45.91306533530629" lon="5.193157909523649"><ele>273.0</ele><time>2026-03-28T13:29:15Z</time></trkpt><trkpt lat="45.91299033555186" lon="5.193195286555476"><ele>273.0</ele><time>2026-03-28T13:29:16Z</time></trkpt><trkpt lat="45.91292336232709" lon="5.193226868838242"><ele>273.0</ele><time>2026-03-28T13:29:17Z</time></trkpt><trkpt lat="45.912810005607014" lon="5.193274160302074"><ele>273.0</ele><time>2026-03-28T13:29:19Z</time></trkpt><trkpt lat="45.91270254260615" lon="5.193214770260489"><ele>273.0</ele><time>2026-03-28T13:29:21Z</time></trkpt><trkpt lat="45.912586443067745" lon="5.193161397175414"><ele>273.0</ele><time>2026-03-28T13:29:23Z</time></trkpt><trkpt lat="45.91248134866808" lon="5.1931520445217005"><ele>272.6666666666667</ele><time>2026-03-28T13:29:25Z</time></trkpt><trkpt lat="45.91242685372924" lon="5.193295755381615"><ele>272.3333333333333</ele><time>2026-03-28T13:29:26Z</time></trkpt><trkpt lat="45.912387555249595" lon="5.193384338790106"><ele>272.0</ele><time>2026-03-28T13:29:27Z</time></trkpt><trkpt lat="45.91233948836724" lon="5.193475532558793"><ele>271.66666666666663</ele><time>2026-03-28T13:29:28Z</time></trkpt><trkpt lat="45.912280930286364" lon="5.193564525403315"><ele>271.3333333333333</ele><time>2026-03-28T13:29:29Z</time></trkpt><trkpt lat="45.91221016916867" lon="5.193642327605408"><ele>271.0</ele><time>2026-03-28T13:29:30Z</time></trkpt><trkpt lat="45.91213707791374" lon="5.193724859051432"><ele>271.0</ele><time>2026-03-28T13:29:31Z</time></trkpt><trkpt lat="45.912054087360175" lon="5.1938017483640095"><ele>271.0</ele><time>2026-03-28T13:29:32Z</time></trkpt><trkpt lat="45.91196660639076" lon="5.193872520134415"><ele>271.0</ele><time>2026-03-28T13:29:33Z</time></trkpt><trkpt lat="45.911870832307564" lon="5.193931158582753"><ele>271.0</ele><time>2026-03-28T13:29:34Z</time></trkpt><trkpt lat="45.91177045127235" lon="5.193978163684828"><ele>271.0</ele><time>2026-03-28T13:29:35Z</time></trkpt><trkpt lat="45.911672085206504" lon="5.194024168874508"><ele>270.16666666666663</ele><time>2026-03-28T13:29:36Z</time></trkpt><trkpt lat="45.911581273421724" lon="5.194067348458992"><ele>269.3333333333333</ele><time>2026-03-28T13:29:37Z</time></trkpt><trkpt lat="45.91149775578305" lon="5.194108575520873"><ele>268.5</ele><time>2026-03-28T13:29:38Z</time></trkpt><trkpt lat="45.911421378956334" lon="5.194142489792049"><ele>267.6666666666667</ele><time>2026-03-28T13:29:39Z</time></trkpt><trkpt lat="45.91135039105538" lon="5.194173213606705"><ele>266.83333333333337</ele><time>2026-03-28T13:29:40Z</time></trkpt><trkpt lat="45.9112857413965" lon="5.194196398080217"><ele>266.0</ele><time>2026-03-28T13:29:41Z</time></trkpt><trkpt lat="45.91119684498548" lon="5.194241365684799"><ele>266.0</ele><time>2026-03-28T13:29:43Z</time></trkpt><trkpt lat="45.911092674912155" lon="5.194285548412335"><ele>266.0</ele><time>2026-03-28T13:29:45Z</time></trkpt><trkpt lat="45.91096813303579" lon="5.194340110297186"><ele>266.0</ele><time>2026-03-28T13:29:47Z</time></trkpt><trkpt lat="45.91089687316308" lon="5.194373572011848"><ele>266.0</ele><time>2026-03-28T13:29:48Z</time></trkpt><trkpt lat="45.91081770119624" lon="5.194414188666196"><ele>266.0</ele><time>2026-03-28T13:29:49Z</time></trkpt><trkpt lat="45.91073062529645" lon="5.194463810891904"><ele>266.40000000000003</ele><time>2026-03-28T13:29:50Z</time></trkpt><trkpt lat="45.91064017586906" lon="5.194512065614305"><ele>266.8</ele><time>2026-03-28T13:29:51Z</time></trkpt><trkpt lat="45.91054257871371" lon="5.194558361683132"><ele>267.20000000000005</ele><time>2026-03-28T13:29:52Z</time></trkpt><trkpt lat="45.91044444180496" lon="5.194598819840532"><ele>267.6</ele><time>2026-03-28T13:29:53Z</time></trkpt><trkpt lat="45.910339935581696" lon="5.194636449746321"><ele>268.0</ele><time>2026-03-28T13:29:54Z</time></trkpt><trkpt lat="45.91023452286609" lon="5.194666080531717"><ele>268.0</ele><time>2026-03-28T13:29:55Z</time></trkpt><trkpt lat="45.9101270342828" lon="5.194690918678989"><ele>268.0</ele><time>2026-03-28T13:29:56Z</time></trkpt><trkpt lat="45.91002405749821" lon="5.194711350546325"><ele>268.0</ele><time>2026-03-28T13:29:57Z</time></trkpt><trkpt lat="45.9099182985176" lon="5.194723437341168"><ele>268.0</ele><time>2026-03-28T13:29:58Z</time></trkpt><trkpt lat="45.909812174353526" lon="5.1947343475341405"><ele>268.0</ele><time>2026-03-28T13:29:59Z</time></trkpt><trkpt lat="45.90971044753053" lon="5.194746952853322"><ele>267.4</ele><time>2026-03-28T13:30:00Z</time></trkpt><trkpt lat="45.90960501466657" lon="5.194754729569178"><ele>266.8</ele><time>2026-03-28T13:30:01Z</time></trkpt><trkpt lat="45.909498893274645" lon="5.1947606892215745"><ele>266.2</ele><time>2026-03-28T13:30:02Z</time></trkpt><trkpt lat="45.909396317739905" lon="5.194769812861741"><ele>265.6</ele><time>2026-03-28T13:30:03Z</time></trkpt><trkpt lat="45.9092914494626" lon="5.194777167981322"><ele>265.0</ele><time>2026-03-28T13:30:04Z</time></trkpt><trkpt lat="45.90919160698425" lon="5.194790894867888"><ele>264.0</ele><time>2026-03-28T13:30:05Z</time></trkpt><trkpt lat="45.90909018951644" lon="5.194799172926301"><ele>263.0</ele><time>2026-03-28T13:30:06Z</time></trkpt><trkpt lat="45.908987074347216" lon="5.194809254522755"><ele>262.0</ele><time>2026-03-28T13:30:07Z</time></trkpt><trkpt lat="45.908887152852955" lon="5.1948177045854385"><ele>261.0</ele><time>2026-03-28T13:30:08Z</time></trkpt><trkpt lat="45.90878787976087" lon="5.194828288198577"><ele>260.0</ele><time>2026-03-28T13:30:09Z</time></trkpt><trkpt lat="45.90868479061734" lon="5.194839528674495"><ele>258.4</ele><time>2026-03-28T13:30:10Z</time></trkpt><trkpt lat="45.908578522440244" lon="5.1948513411124475"><ele>256.8</ele><time>2026-03-28T13:30:11Z</time></trkpt><trkpt lat="45.90847508076005" lon="5.194855222939691"><ele>255.2</ele><time>2026-03-28T13:30:12Z</time></trkpt><trkpt lat="45.90837239883273" lon="5.194861578468331"><ele>253.6</ele><time>2026-03-28T13:30:13Z</time></trkpt><trkpt lat="45.90827117063226" lon="5.194864821564047"><ele>252.0</ele><time>2026-03-28T13:30:14Z</time></trkpt><trkpt lat="45.90818571588547" lon="5.194870103398381"><ele>251.5</ele><time>2026-03-28T13:30:15Z</time></trkpt><trkpt lat="45.90811025272377" lon="5.19487017721629"><ele>251.0</ele><time>2026-03-28T13:30:16Z</time></trkpt><trkpt lat="45.90804692940457" lon="5.194873208246999"><ele>250.5</ele><time>2026-03-28T13:30:17Z</time></trkpt><trkpt lat="45.90792641258985" lon="5.1948743603593455"><ele>250.0</ele><time>2026-03-28T13:30:19Z</time></trkpt><trkpt lat="45.90785874055431" lon="5.19487772747916"><ele>249.5</ele><time>2026-03-28T13:30:20Z</time></trkpt><trkpt lat="45.907782994040915" lon="5.194877893436669"><ele>249.0</ele><time>2026-03-28T13:30:21Z</time></trkpt><trkpt lat="45.907700296658525" lon="5.194874777333841"><ele>249.0</ele><time>2026-03-28T13:30:22Z</time></trkpt><trkpt lat="45.907613022700254" lon="5.194872026803061"><ele>249.0</ele><time>2026-03-28T13:30:23Z</time></trkpt><trkpt lat="45.90752198162716" lon="5.19486743338164"><ele>249.0</ele><time>2026-03-28T13:30:24Z</time></trkpt><trkpt lat="45.90743253706536" lon="5.194858115411603"><ele>249.0</ele><time>2026-03-28T13:30:25Z</time></trkpt><trkpt lat="45.90734573482591" lon="5.1948509190742564"><ele>249.0</ele><time>2026-03-28T13:30:26Z</time></trkpt><trkpt lat="45.90726461750195" lon="5.194847379383827"><ele>249.0</ele><time>2026-03-28T13:30:27Z</time></trkpt><trkpt lat="45.90718192757431" lon="5.19484791681297"><ele>248.66666666666666</ele><time>2026-03-28T13:30:28Z</time></trkpt><trkpt lat="45.90710730896708" lon="5.194851331645379"><ele>248.33333333333331</ele><time>2026-03-28T13:30:29Z</time></trkpt><trkpt lat="45.907042433997056" lon="5.194844102520961"><ele>248.0</ele><time>2026-03-28T13:30:30Z</time></trkpt><trkpt lat="45.90694965472399" lon="5.194836284287037"><ele>247.66666666666666</ele><time>2026-03-28T13:30:32Z</time></trkpt><trkpt lat="45.906991125574635" lon="5.1949982842629625"><ele>247.33333333333331</ele><time>2026-03-28T13:30:33Z</time></trkpt><trkpt lat="45.90693634685846" lon="5.194941244909098"><ele>247.0</ele><time>2026-03-28T13:30:34Z</time></trkpt><trkpt lat="45.906905621052964" lon="5.195065837892491"><ele>246.99999999999997</ele><time>2026-03-28T13:30:36Z</time></trkpt><trkpt lat="45.906841851718575" lon="5.19516616985562"><ele>247.0</ele><time>2026-03-28T13:30:38Z</time></trkpt><trkpt lat="45.90673903620591" lon="5.195233479641104"><ele>247.0</ele><time>2026-03-28T13:30:40Z</time></trkpt><trkpt lat="45.90668077600121" lon="5.195277363384201"><ele>247.0</ele><time>2026-03-28T13:30:41Z</time></trkpt><trkpt lat="45.90661864544181" lon="5.195326113042235"><ele>246.99999999999997</ele><time>2026-03-28T13:30:42Z</time></trkpt><trkpt lat="45.90655607577267" lon="5.195369700363134"><ele>247.0</ele><time>2026-03-28T13:30:43Z</time></trkpt><trkpt lat="45.90649916672488" lon="5.195418384327873"><ele>246.14285714285717</ele><time>2026-03-28T13:30:44Z</time></trkpt><trkpt lat="45.906441925063895" lon="5.1954609766000255"><ele>245.28571428571428</ele><time>2026-03-28T13:30:45Z</time></trkpt><trkpt lat="45.906384979708946" lon="5.195503734724163"><ele>244.42857142857144</ele><time>2026-03-28T13:30:46Z</time></trkpt><trkpt lat="45.90632576698935" lon="5.195546554622039"><ele>243.57142857142858</ele><time>2026-03-28T13:30:47Z</time></trkpt><trkpt lat="45.906263465700285" lon="5.195591154699977"><ele>242.71428571428572</ele><time>2026-03-28T13:30:48Z</time></trkpt><trkpt lat="45.906197240172766" lon="5.195640853342998"><ele>241.85714285714286</ele><time>2026-03-28T13:30:49Z</time></trkpt><trkpt lat="45.906125766261816" lon="5.195688003724976"><ele>241.0</ele><time>2026-03-28T13:30:50Z</time></trkpt><trkpt lat="45.90605508300499" lon="5.19574045528315"><ele>240.33333333333331</ele><time>2026-03-28T13:30:51Z</time></trkpt><trkpt lat="45.905981395508945" lon="5.195800242183927"><ele>239.66666666666666</ele><time>2026-03-28T13:30:52Z</time></trkpt><trkpt lat="45.905911679564845" lon="5.195857612761062"><ele>239.0</ele><time>2026-03-28T13:30:53Z</time></trkpt><trkpt lat="45.90584321934824" lon="5.195907249731035"><ele>238.33333333333331</ele><time>2026-03-28T13:30:54Z</time></trkpt><trkpt lat="45.905771034918196" lon="5.195949317674033"><ele>237.66666666666666</ele><time>2026-03-28T13:30:55Z</time></trkpt><trkpt lat="45.90570166732729" lon="5.1959769366678525"><ele>237.0</ele><time>2026-03-28T13:30:56Z</time></trkpt><trkpt lat="45.9056256591481" lon="5.196006663619643"><ele>236.57142857142856</ele><time>2026-03-28T13:30:57Z</time></trkpt><trkpt lat="45.90555153887304" lon="5.196033040763268"><ele>236.14285714285714</ele><time>2026-03-28T13:30:58Z</time></trkpt><trkpt lat="45.905478996106126" lon="5.196063508086033"><ele>235.71428571428572</ele><time>2026-03-28T13:30:59Z</time></trkpt><trkpt lat="45.90540759055423" lon="5.1960912663103285"><ele>235.28571428571428</ele><time>2026-03-28T13:31:00Z</time></trkpt><trkpt lat="45.90533913535113" lon="5.196118166029121"><ele>234.8571428571429</ele><time>2026-03-28T13:31:01Z</time></trkpt><trkpt lat="45.905269819113926" lon="5.19614284932"><ele>234.42857142857144</ele><time>2026-03-28T13:31:02Z</time></trkpt><trkpt lat="45.90520652312544" lon="5.1961656815632615"><ele>234.0</ele><time>2026-03-28T13:31:03Z</time></trkpt><trkpt lat="45.90514090216206" lon="5.196182883396757"><ele>233.2</ele><time>2026-03-28T13:31:04Z</time></trkpt><trkpt lat="45.90507675172777" lon="5.196202179458259"><ele>232.39999999999998</ele><time>2026-03-28T13:31:05Z</time></trkpt><trkpt lat="45.90496341415642" lon="5.1962518362246675"><ele>231.6</ele><time>2026-03-28T13:31:07Z</time></trkpt><trkpt lat="45.904852416077205" lon="5.196308965313525"><ele>230.8</ele><time>2026-03-28T13:31:09Z</time></trkpt><trkpt lat="45.90474988542411" lon="5.196359833383342"><ele>230.0</ele><time>2026-03-28T13:31:11Z</time></trkpt><trkpt lat="45.90467238712389" lon="5.196390346759778"><ele>230.00000000000003</ele><time>2026-03-28T13:31:13Z</time></trkpt><trkpt lat="45.90461535028403" lon="5.196442538525739"><ele>230.0</ele><time>2026-03-28T13:31:22Z</time></trkpt><trkpt lat="45.904596339563156" lon="5.196539646164973"><ele>230.0</ele><time>2026-03-28T13:31:24Z</time></trkpt><trkpt lat="45.904622368566706" lon="5.196672200402836"><ele>230.0</ele><time>2026-03-28T13:31:26Z</time></trkpt><trkpt lat="45.90465326363214" lon="5.196846222311678"><ele>230.00000000000003</ele><time>2026-03-28T13:31:28Z</time></trkpt><trkpt lat="45.90467209048438" lon="5.196949043326064"><ele>230.0</ele><time>2026-03-28T13:31:29Z</time></trkpt><trkpt lat="45.90468638310651" lon="5.197045166549906"><ele>229.50000000000003</ele><time>2026-03-28T13:31:30Z</time></trkpt><trkpt lat="45.904701778323656" lon="5.197145804551532"><ele>229.0</ele><time>2026-03-28T13:31:31Z</time></trkpt><trkpt lat="45.90471104490548" lon="5.197246962490914"><ele>228.5</ele><time>2026-03-28T13:31:32Z</time></trkpt><trkpt lat="45.90471395938806" lon="5.19734281916254"><ele>228.0</ele><time>2026-03-28T13:31:33Z</time></trkpt><trkpt lat="45.904718980384665" lon="5.197437600576956"><ele>227.50000000000003</ele><time>2026-03-28T13:31:34Z</time></trkpt><trkpt lat="45.90471786614241" lon="5.197607870114196"><ele>227.0</ele><time>2026-03-28T13:31:36Z</time></trkpt><trkpt lat="45.90469290344322" lon="5.197696361711107"><ele>227.00000000000003</ele><time>2026-03-28T13:31:40Z</time></trkpt><trkpt lat="45.90463613522386" lon="5.19775975076917"><ele>227.0</ele><time>2026-03-28T13:31:42Z</time></trkpt><trkpt lat="45.904536918232594" lon="5.197819365194309"><ele>227.0</ele><time>2026-03-28T13:31:44Z</time></trkpt><trkpt lat="45.90447629938905" lon="5.197857680153367"><ele>227.0</ele><time>2026-03-28T13:31:45Z</time></trkpt><trkpt lat="45.90441744239103" lon="5.19791021344543"><ele>227.00000000000003</ele><time>2026-03-28T13:31:46Z</time></trkpt><trkpt lat="45.904360953031535" lon="5.197972101597472"><ele>227.0</ele><time>2026-03-28T13:31:47Z</time></trkpt><trkpt lat="45.90431220684441" lon="5.198046992043973"><ele>227.00000000000003</ele><time>2026-03-28T13:31:48Z</time></trkpt><trkpt lat="45.904268722443184" lon="5.198136155537471"><ele>227.0</ele><time>2026-03-28T13:31:49Z</time></trkpt><trkpt lat="45.90422219000324" lon="5.198232102530109"><ele>227.0</ele><time>2026-03-28T13:31:50Z</time></trkpt><trkpt lat="45.90417177565154" lon="5.198325270330498"><ele>227.0</ele><time>2026-03-28T13:31:51Z</time></trkpt><trkpt lat="45.90412200950019" lon="5.198408828315351"><ele>227.00000000000003</ele><time>2026-03-28T13:31:52Z</time></trkpt><trkpt lat="45.90407472858346" lon="5.198483585934593"><ele>227.0</ele><time>2026-03-28T13:31:53Z</time></trkpt><trkpt lat="45.9040225347661" lon="5.198559582447421"><ele>226.0</ele><time>2026-03-28T13:31:54Z</time></trkpt><trkpt lat="45.9039735443552" lon="5.198630490716997"><ele>225.00000000000003</ele><time>2026-03-28T13:31:55Z</time></trkpt><trkpt lat="45.903925135007654" lon="5.198704228429665"><ele>224.0</ele><time>2026-03-28T13:31:56Z</time></trkpt><trkpt lat="45.90387728906734" lon="5.198775754229189"><ele>223.0</ele><time>2026-03-28T13:31:57Z</time></trkpt><trkpt lat="45.903823679135805" lon="5.198851353792462"><ele>222.0</ele><time>2026-03-28T13:31:58Z</time></trkpt><trkpt lat="45.90377263408326" lon="5.198927128554833"><ele>221.0</ele><time>2026-03-28T13:31:59Z</time></trkpt><trkpt lat="45.90372082152883" lon="5.198999926141982"><ele>220.0</ele><time>2026-03-28T13:32:00Z</time></trkpt><trkpt lat="45.90366861477002" lon="5.199073320954533"><ele>219.99999999999997</ele><time>2026-03-28T13:32:01Z</time></trkpt><trkpt lat="45.90361459132121" lon="5.199151570052498"><ele>220.0</ele><time>2026-03-28T13:32:02Z</time></trkpt><trkpt lat="45.90355875358445" lon="5.19923370218403"><ele>220.0</ele><time>2026-03-28T13:32:03Z</time></trkpt><trkpt lat="45.90350228237253" lon="5.199310433792441"><ele>220.0</ele><time>2026-03-28T13:32:04Z</time></trkpt><trkpt lat="45.90344919304798" lon="5.199379846062814"><ele>219.99999999999997</ele><time>2026-03-28T13:32:05Z</time></trkpt><trkpt lat="45.90339826652497" lon="5.199453469733289"><ele>220.0</ele><time>2026-03-28T13:32:06Z</time></trkpt><trkpt lat="45.90334013333636" lon="5.199515372629601"><ele>219.49999999999997</ele><time>2026-03-28T13:32:07Z</time></trkpt><trkpt lat="45.90327339170122" lon="5.1995774485437725"><ele>219.0</ele><time>2026-03-28T13:32:08Z</time></trkpt><trkpt lat="45.903205405679685" lon="5.199636799351235"><ele>218.5</ele><time>2026-03-28T13:32:09Z</time></trkpt><trkpt lat="45.90313605907957" lon="5.19969603068691"><ele>218.0</ele><time>2026-03-28T13:32:10Z</time></trkpt><trkpt lat="45.90306047006277" lon="5.1997521165452385"><ele>217.49999999999997</ele><time>2026-03-28T13:32:11Z</time></trkpt><trkpt lat="45.90297983216506" lon="5.199807886044782"><ele>217.0</ele><time>2026-03-28T13:32:12Z</time></trkpt><trkpt lat="45.902902905433834" lon="5.199882579726423"><ele>216.99999999999997</ele><time>2026-03-28T13:32:13Z</time></trkpt><trkpt lat="45.90281613544393" lon="5.199907843584961"><ele>217.0</ele><time>2026-03-28T13:32:14Z</time></trkpt><trkpt lat="45.90274586861206" lon="5.199952327163926"><ele>217.0</ele><time>2026-03-28T13:32:15Z</time></trkpt><trkpt lat="45.902674776183034" lon="5.19999470625433"><ele>217.0</ele><time>2026-03-28T13:32:16Z</time></trkpt><trkpt lat="45.90257679751608" lon="5.200033827514925"><ele>216.99999999999997</ele><time>2026-03-28T13:32:18Z</time></trkpt><trkpt lat="45.902480405640695" lon="5.200006137318208"><ele>217.0</ele><time>2026-03-28T13:32:23Z</time></trkpt><trkpt lat="45.9023864092866" lon="5.1999444575839355"><ele>217.0</ele><time>2026-03-28T13:32:25Z</time></trkpt><trkpt lat="45.902335100228576" lon="5.199878803147683"><ele>217.0</ele><time>2026-03-28T13:32:26Z</time></trkpt><trkpt lat="45.90228543469322" lon="5.199779790472413"><ele>217.0</ele><time>2026-03-28T13:32:27Z</time></trkpt><trkpt lat="45.90224245838146" lon="5.199658523483164"><ele>217.0</ele><time>2026-03-28T13:32:28Z</time></trkpt><trkpt lat="45.9021918894211" lon="5.199529400953013"><ele>217.0</ele><time>2026-03-28T13:32:29Z</time></trkpt><trkpt lat="45.90213620609878" lon="5.19939498883222"><ele>217.0</ele><time>2026-03-28T13:32:30Z</time></trkpt><trkpt lat="45.90207428366935" lon="5.19924796087297"><ele>217.0</ele><time>2026-03-28T13:32:31Z</time></trkpt><trkpt lat="45.90200432466974" lon="5.199095675493853"><ele>217.0</ele><time>2026-03-28T13:32:32Z</time></trkpt><trkpt lat="45.9019261282385" lon="5.19893390499734"><ele>217.0</ele><time>2026-03-28T13:32:33Z</time></trkpt><trkpt lat="45.901835669713726" lon="5.198765134010163"><ele>216.33333333333331</ele><time>2026-03-28T13:32:34Z</time></trkpt><trkpt lat="45.90174378313513" lon="5.198599147317765"><ele>215.66666666666669</ele><time>2026-03-28T13:32:35Z</time></trkpt><trkpt lat="45.90164738870148" lon="5.198429647866514"><ele>215.0</ele><time>2026-03-28T13:32:36Z</time></trkpt><trkpt lat="45.90154682836841" lon="5.198255516543292"><ele>215.33333333333334</ele><time>2026-03-28T13:32:37Z</time></trkpt><trkpt lat="45.90144425182177" lon="5.198079674588662"><ele>215.66666666666669</ele><time>2026-03-28T13:32:38Z</time></trkpt><trkpt lat="45.90133697627046" lon="5.197900982829981"><ele>216.0</ele><time>2026-03-28T13:32:39Z</time></trkpt><trkpt lat="45.90123503929718" lon="5.197720096788473"><ele>216.0</ele><time>2026-03-28T13:32:40Z</time></trkpt><trkpt lat="45.901128031290945" lon="5.197535996092954"><ele>216.0</ele><time>2026-03-28T13:32:41Z</time></trkpt><trkpt lat="45.90102253324287" lon="5.197350116407745"><ele>216.0</ele><time>2026-03-28T13:32:42Z</time></trkpt><trkpt lat="45.90091573176009" lon="5.197164443538556"><ele>216.0</ele><time>2026-03-28T13:32:43Z</time></trkpt><trkpt lat="45.900810156747795" lon="5.1969825969905274"><ele>216.0</ele><time>2026-03-28T13:32:44Z</time></trkpt><trkpt lat="45.90070192972848" lon="5.196799195568748"><ele>216.0</ele><time>2026-03-28T13:32:45Z</time></trkpt><trkpt lat="45.900594064773586" lon="5.196616464688732"><ele>216.0</ele><time>2026-03-28T13:32:46Z</time></trkpt><trkpt lat="45.90048664415478" lon="5.196433275414951"><ele>216.0</ele><time>2026-03-28T13:32:47Z</time></trkpt><trkpt lat="45.90037887785322" lon="5.1962494343901175"><ele>216.0</ele><time>2026-03-28T13:32:48Z</time></trkpt><trkpt lat="45.900271860078135" lon="5.196063448575607"><ele>216.0</ele><time>2026-03-28T13:32:49Z</time></trkpt><trkpt lat="45.90016546037441" lon="5.195881599733333"><ele>216.0</ele><time>2026-03-28T13:32:50Z</time></trkpt><trkpt lat="45.90006016279863" lon="5.195708815351265"><ele>216.0</ele><time>2026-03-28T13:32:51Z</time></trkpt><trkpt lat="45.89995717043488" lon="5.195537093207406"><ele>215.66666666666669</ele><time>2026-03-28T13:32:52Z</time></trkpt><trkpt lat="45.8998496315324" lon="5.195368896469284"><ele>215.33333333333334</ele><time>2026-03-28T13:32:53Z</time></trkpt><trkpt lat="45.89974789326572" lon="5.195207328911751"><ele>215.0</ele><time>2026-03-28T13:32:54Z</time></trkpt><trkpt lat="45.8996397916639" lon="5.195054791859419"><ele>215.0</ele><time>2026-03-28T13:32:55Z</time></trkpt><trkpt lat="45.89953002155674" lon="5.194907525856584"><ele>215.0</ele><time>2026-03-28T13:32:56Z</time></trkpt><trkpt lat="45.89941868454186" lon="5.1947631992155765"><ele>215.0</ele><time>2026-03-28T13:32:57Z</time></trkpt><trkpt lat="45.89930155497444" lon="5.19461694573073"><ele>215.33333333333334</ele><time>2026-03-28T13:32:58Z</time></trkpt><trkpt lat="45.89918416359917" lon="5.194477009387155"><ele>215.66666666666669</ele><time>2026-03-28T13:32:59Z</time></trkpt><trkpt lat="45.899064535562374" lon="5.194334442480036"><ele>216.0</ele><time>2026-03-28T13:33:00Z</time></trkpt><trkpt lat="45.89894343769712" lon="5.1941900851427425"><ele>216.0</ele><time>2026-03-28T13:33:01Z</time></trkpt><trkpt lat="45.89882685568443" lon="5.194047061569065"><ele>216.0</ele><time>2026-03-28T13:33:02Z</time></trkpt><trkpt lat="45.89871388937248" lon="5.193906993711802"><ele>216.0</ele><time>2026-03-28T13:33:03Z</time></trkpt><trkpt lat="45.89860113971072" lon="5.193768778748448"><ele>216.0</ele><time>2026-03-28T13:33:04Z</time></trkpt><trkpt lat="45.8984917001535" lon="5.193629769012442"><ele>216.0</ele><time>2026-03-28T13:33:05Z</time></trkpt><trkpt lat="45.898383580356395" lon="5.193496161059704"><ele>216.0</ele><time>2026-03-28T13:33:06Z</time></trkpt><trkpt lat="45.89827632003102" lon="5.193368751312023"><ele>216.0</ele><time>2026-03-28T13:33:07Z</time></trkpt><trkpt lat="45.898173291165655" lon="5.193245586170134"><ele>216.25</ele><time>2026-03-28T13:33:08Z</time></trkpt><trkpt lat="45.89807371447649" lon="5.193118821438538"><ele>216.5</ele><time>2026-03-28T13:33:09Z</time></trkpt><trkpt lat="45.8979805573255" lon="5.192988625105577"><ele>216.75</ele><time>2026-03-28T13:33:10Z</time></trkpt><trkpt lat="45.89789960032132" lon="5.192851886099963"><ele>217.0</ele><time>2026-03-28T13:33:11Z</time></trkpt><trkpt lat="45.89783177968049" lon="5.192710597700685"><ele>216.99999999999997</ele><time>2026-03-28T13:33:12Z</time></trkpt><trkpt lat="45.89777709107357" lon="5.192573870767283"><ele>217.0</ele><time>2026-03-28T13:33:13Z</time></trkpt><trkpt lat="45.897733156716725" lon="5.192447715376201"><ele>217.0</ele><time>2026-03-28T13:33:14Z</time></trkpt><trkpt lat="45.89770061404008" lon="5.19233622376184"><ele>217.0</ele><time>2026-03-28T13:33:15Z</time></trkpt><trkpt lat="45.89767316908452" lon="5.192234195453559"><ele>216.99999999999997</ele><time>2026-03-28T13:33:16Z</time></trkpt><trkpt lat="45.89765504587642" lon="5.19213624242415"><ele>217.0</ele><time>2026-03-28T13:33:17Z</time></trkpt><trkpt lat="45.89765843815932" lon="5.1920436688619445"><ele>216.57142857142858</ele><time>2026-03-28T13:33:18Z</time></trkpt><trkpt lat="45.89767635099259" lon="5.191950969059744"><ele>216.14285714285714</ele><time>2026-03-28T13:33:19Z</time></trkpt><trkpt lat="45.89769473450051" lon="5.191856037725085"><ele>215.71428571428572</ele><time>2026-03-28T13:33:20Z</time></trkpt><trkpt lat="45.89769352377499" lon="5.191759655843873"><ele>215.28571428571428</ele><time>2026-03-28T13:33:21Z</time></trkpt><trkpt lat="45.897670753385114" lon="5.191666463315073"><ele>214.85714285714286</ele><time>2026-03-28T13:33:22Z</time></trkpt><trkpt lat="45.89762425025462" lon="5.191599494271961"><ele>214.42857142857144</ele><time>2026-03-28T13:33:23Z</time></trkpt><trkpt lat="45.897564639316" lon="5.191556826439436"><ele>214.0</ele><time>2026-03-28T13:33:24Z</time></trkpt><trkpt lat="45.89749330166232" lon="5.191547595121717"><ele>214.0</ele><time>2026-03-28T13:33:25Z</time></trkpt><trkpt lat="45.89741450544833" lon="5.191568946872373"><ele>213.99999999999997</ele><time>2026-03-28T13:33:26Z</time></trkpt><trkpt lat="45.89732793022169" lon="5.191596924482732"><ele>213.99999999999997</ele><time>2026-03-28T13:33:27Z</time></trkpt><trkpt lat="45.89723611847064" lon="5.191626744344316"><ele>214.0</ele><time>2026-03-28T13:33:28Z</time></trkpt><trkpt lat="45.89713169340233" lon="5.191652827866127"><ele>214.0</ele><time>2026-03-28T13:33:29Z</time></trkpt><trkpt lat="45.89702335026655" lon="5.191710408909482"><ele>214.0</ele><time>2026-03-28T13:33:30Z</time></trkpt><trkpt lat="45.896895485925654" lon="5.191713266967647"><ele>214.0</ele><time>2026-03-28T13:33:31Z</time></trkpt><trkpt lat="45.896773831352405" lon="5.191739061237109"><ele>214.0</ele><time>2026-03-28T13:33:32Z</time></trkpt><trkpt lat="45.896647174030846" lon="5.191761145194181"><ele>214.0</ele><time>2026-03-28T13:33:33Z</time></trkpt><trkpt lat="45.89651445814726" lon="5.191776310934289"><ele>214.0</ele><time>2026-03-28T13:33:34Z</time></trkpt><trkpt lat="45.896376043653625" lon="5.191789700430251"><ele>214.0</ele><time>2026-03-28T13:33:35Z</time></trkpt><trkpt lat="45.89623901636636" lon="5.191795119120982"><ele>214.0</ele><time>2026-03-28T13:33:36Z</time></trkpt><trkpt lat="45.89609528108061" lon="5.191793093902381"><ele>214.0</ele><time>2026-03-28T13:33:37Z</time></trkpt><trkpt lat="45.89594912915025" lon="5.1917846010887425"><ele>214.33333333333331</ele><time>2026-03-28T13:33:38Z</time></trkpt><trkpt lat="45.89579623664922" lon="5.191764518344047"><ele>214.66666666666669</ele><time>2026-03-28T13:33:39Z</time></trkpt><trkpt lat="45.89563980200437" lon="5.191738716876515"><ele>215.0</ele><time>2026-03-28T13:33:40Z</time></trkpt><trkpt lat="45.895489206113716" lon="5.19170932952586"><ele>215.0</ele><time>2026-03-28T13:33:41Z</time></trkpt><trkpt lat="45.89533483897788" lon="5.191674673825201"><ele>215.0</ele><time>2026-03-28T13:33:42Z</time></trkpt><trkpt lat="45.8951805176984" lon="5.19164030700069"><ele>215.0</ele><time>2026-03-28T13:33:43Z</time></trkpt><trkpt lat="45.89502699105001" lon="5.1916086632496965"><ele>215.0</ele><time>2026-03-28T13:33:44Z</time></trkpt><trkpt lat="45.89487552031456" lon="5.191578179017035"><ele>215.0</ele><time>2026-03-28T13:33:45Z</time></trkpt><trkpt lat="45.89471627734939" lon="5.191540528010139"><ele>215.0</ele><time>2026-03-28T13:33:46Z</time></trkpt><trkpt lat="45.89456050289867" lon="5.191506002534824"><ele>214.66666666666669</ele><time>2026-03-28T13:33:47Z</time></trkpt><trkpt lat="45.89440653896036" lon="5.191478429553149"><ele>214.33333333333331</ele><time>2026-03-28T13:33:48Z</time></trkpt><trkpt lat="45.89425048116863" lon="5.191445882514041"><ele>214.0</ele><time>2026-03-28T13:33:49Z</time></trkpt><trkpt lat="45.89409601722217" lon="5.191412427584709"><ele>214.0</ele><time>2026-03-28T13:33:50Z</time></trkpt><trkpt lat="45.8939373505049" lon="5.191379198819795"><ele>214.0</ele><time>2026-03-28T13:33:51Z</time></trkpt><trkpt lat="45.89378119669561" lon="5.191346530401432"><ele>214.0</ele><time>2026-03-28T13:33:52Z</time></trkpt><trkpt lat="45.89362286481717" lon="5.191312235957343"><ele>214.0</ele><time>2026-03-28T13:33:53Z</time></trkpt><trkpt lat="45.89346358657996" lon="5.1912804305161915"><ele>214.0</ele><time>2026-03-28T13:33:54Z</time></trkpt><trkpt lat="45.89330203876344" lon="5.191244772306755"><ele>214.0</ele><time>2026-03-28T13:33:55Z</time></trkpt><trkpt lat="45.893138664689786" lon="5.191211903082962"><ele>215.0</ele><time>2026-03-28T13:33:56Z</time></trkpt><trkpt lat="45.89297415230309" lon="5.191176797245542"><ele>216.0</ele><time>2026-03-28T13:33:57Z</time></trkpt><trkpt lat="45.89280903678135" lon="5.191138321040239"><ele>217.0</ele><time>2026-03-28T13:33:58Z</time></trkpt><trkpt lat="45.892645982043916" lon="5.191100164880248"><ele>216.66666666666666</ele><time>2026-03-28T13:33:59Z</time></trkpt><trkpt lat="45.89247694764139" lon="5.191062052978727"><ele>216.33333333333331</ele><time>2026-03-28T13:34:00Z</time></trkpt><trkpt lat="45.892306121730414" lon="5.19102630868115"><ele>216.0</ele><time>2026-03-28T13:34:01Z</time></trkpt><trkpt lat="45.89213515456141" lon="5.190989684437779"><ele>216.0</ele><time>2026-03-28T13:34:02Z</time></trkpt><trkpt lat="45.89196594057949" lon="5.190953590979039"><ele>216.0</ele><time>2026-03-28T13:34:03Z</time></trkpt><trkpt lat="45.891795625823406" lon="5.19091555978682"><ele>216.0</ele><time>2026-03-28T13:34:04Z</time></trkpt><trkpt lat="45.89162244621313" lon="5.190879151324108"><ele>216.0</ele><time>2026-03-28T13:34:05Z</time></trkpt><trkpt lat="45.89144706242602" lon="5.190835653835659"><ele>216.0</ele><time>2026-03-28T13:34:06Z</time></trkpt><trkpt lat="45.89127265603178" lon="5.190786855402589"><ele>216.0</ele><time>2026-03-28T13:34:07Z</time></trkpt><trkpt lat="45.891100637537406" lon="5.190730703957229"><ele>217.0</ele><time>2026-03-28T13:34:08Z</time></trkpt><trkpt lat="45.89092867694785" lon="5.19066288038761"><ele>218.0</ele><time>2026-03-28T13:34:09Z</time></trkpt><trkpt lat="45.890756620672825" lon="5.190586438530444"><ele>219.0</ele><time>2026-03-28T13:34:10Z</time></trkpt><trkpt lat="45.8905919411609" lon="5.190495428539779"><ele>219.66666666666669</ele><time>2026-03-28T13:34:11Z</time></trkpt><trkpt lat="45.8904267347669" lon="5.190385363591839"><ele>220.33333333333334</ele><time>2026-03-28T13:34:12Z</time></trkpt><trkpt lat="45.890263800513715" lon="5.190271400673806"><ele>221.0</ele><time>2026-03-28T13:34:13Z</time></trkpt><trkpt lat="45.890099872052254" lon="5.190153048677648"><ele>221.0</ele><time>2026-03-28T13:34:14Z</time></trkpt><trkpt lat="45.88993772468831" lon="5.1900328684591965"><ele>221.0</ele><time>2026-03-28T13:34:15Z</time></trkpt><trkpt lat="45.88977339745123" lon="5.189910987349077"><ele>221.0</ele><time>2026-03-28T13:34:16Z</time></trkpt><trkpt lat="45.88961010392384" lon="5.189791472489046"><ele>221.0</ele><time>2026-03-28T13:34:17Z</time></trkpt><trkpt lat="45.88944484328724" lon="5.189673570127649"><ele>221.0</ele><time>2026-03-28T13:34:18Z</time></trkpt><trkpt lat="45.889278983305765" lon="5.189553052641428"><ele>221.0</ele><time>2026-03-28T13:34:19Z</time></trkpt><trkpt lat="45.889115299131795" lon="5.189443145454444"><ele>221.0</ele><time>2026-03-28T13:34:20Z</time></trkpt><trkpt lat="45.888951421620014" lon="5.189326023922012"><ele>221.0</ele><time>2026-03-28T13:34:21Z</time></trkpt><trkpt lat="45.88878101062351" lon="5.1892114519250025"><ele>221.0</ele><time>2026-03-28T13:34:22Z</time></trkpt><trkpt lat="45.88860965153705" lon="5.189099820460682"><ele>221.33333333333334</ele><time>2026-03-28T13:34:23Z</time></trkpt><trkpt lat="45.888434778660766" lon="5.188986959217607"><ele>221.66666666666669</ele><time>2026-03-28T13:34:24Z</time></trkpt><trkpt lat="45.8882596160429" lon="5.188883529228131"><ele>222.0</ele><time>2026-03-28T13:34:25Z</time></trkpt><trkpt lat="45.888083708746294" lon="5.188774998235328"><ele>221.33333333333331</ele><time>2026-03-28T13:34:26Z</time></trkpt><trkpt lat="45.887908604350955" lon="5.188668151419486"><ele>220.66666666666666</ele><time>2026-03-28T13:34:27Z</time></trkpt><trkpt lat="45.88773182272344" lon="5.188559341120538"><ele>220.0</ele><time>2026-03-28T13:34:28Z</time></trkpt><trkpt lat="45.88755622630121" lon="5.188450176964649"><ele>219.0</ele><time>2026-03-28T13:34:29Z</time></trkpt><trkpt lat="45.88737531255031" lon="5.1883416659907775"><ele>218.0</ele><time>2026-03-28T13:34:30Z</time></trkpt><trkpt lat="45.88719812007885" lon="5.1882339888631375"><ele>217.0</ele><time>2026-03-28T13:34:31Z</time></trkpt><trkpt lat="45.887019741375134" lon="5.188123350091527"><ele>216.66666666666666</ele><time>2026-03-28T13:34:32Z</time></trkpt><trkpt lat="45.88683814798337" lon="5.188012067202113"><ele>216.33333333333331</ele><time>2026-03-28T13:34:33Z</time></trkpt><trkpt lat="45.88665856966118" lon="5.187901912890269"><ele>216.0</ele><time>2026-03-28T13:34:34Z</time></trkpt><trkpt lat="45.886476768436204" lon="5.187793231734472"><ele>216.0</ele><time>2026-03-28T13:34:35Z</time></trkpt><trkpt lat="45.886293289532354" lon="5.187679931030347"><ele>216.0</ele><time>2026-03-28T13:34:36Z</time></trkpt><trkpt lat="45.886111142993826" lon="5.18756605364731"><ele>216.0</ele><time>2026-03-28T13:34:37Z</time></trkpt><trkpt lat="45.88592932680487" lon="5.187449724779902"><ele>215.66666666666669</ele><time>2026-03-28T13:34:38Z</time></trkpt><trkpt lat="45.885746994156904" lon="5.187340256848251"><ele>215.33333333333334</ele><time>2026-03-28T13:34:39Z</time></trkpt><trkpt lat="45.8855644340202" lon="5.187224510977179"><ele>215.0</ele><time>2026-03-28T13:34:40Z</time></trkpt><trkpt lat="45.88538216142748" lon="5.187111211747175"><ele>215.0</ele><time>2026-03-28T13:34:41Z</time></trkpt><trkpt lat="45.885199844259745" lon="5.1869991459181115"><ele>215.0</ele><time>2026-03-28T13:34:42Z</time></trkpt><trkpt lat="45.88502138089062" lon="5.18688362018374"><ele>215.0</ele><time>2026-03-28T13:34:43Z</time></trkpt><trkpt lat="45.88484280869545" lon="5.186769471144763"><ele>215.33333333333334</ele><time>2026-03-28T13:34:44Z</time></trkpt><trkpt lat="45.88466073738977" lon="5.186658485687308"><ele>215.66666666666669</ele><time>2026-03-28T13:34:45Z</time></trkpt><trkpt lat="45.88448284080979" lon="5.186545418258689"><ele>216.0</ele><time>2026-03-28T13:34:46Z</time></trkpt><trkpt lat="45.8843028762189" lon="5.1864360973741155"><ele>216.0</ele><time>2026-03-28T13:34:47Z</time></trkpt><trkpt lat="45.88412189252658" lon="5.18632623987707"><ele>216.0</ele><time>2026-03-28T13:34:48Z</time></trkpt><trkpt lat="45.883942304370336" lon="5.186212469780965"><ele>216.0</ele><time>2026-03-28T13:34:49Z</time></trkpt><trkpt lat="45.88376492911089" lon="5.186100587740949"><ele>216.0</ele><time>2026-03-28T13:34:50Z</time></trkpt><trkpt lat="45.88358666500255" lon="5.185987380629404"><ele>216.0</ele><time>2026-03-28T13:34:51Z</time></trkpt><trkpt lat="45.88340823892481" lon="5.1858783020078825"><ele>216.0</ele><time>2026-03-28T13:34:52Z</time></trkpt><trkpt lat="45.88322614766628" lon="5.1857722528971975"><ele>215.66666666666669</ele><time>2026-03-28T13:34:53Z</time></trkpt><trkpt lat="45.883039920953365" lon="5.185676291337849"><ele>215.33333333333334</ele><time>2026-03-28T13:34:54Z</time></trkpt><trkpt lat="45.88285112086966" lon="5.185589725861391"><ele>215.0</ele><time>2026-03-28T13:34:55Z</time></trkpt><trkpt lat="45.88266360560796" lon="5.1855071209871255"><ele>214.33333333333334</ele><time>2026-03-28T13:34:56Z</time></trkpt><trkpt lat="45.882475339838294" lon="5.185420226920022"><ele>213.66666666666669</ele><time>2026-03-28T13:34:57Z</time></trkpt><trkpt lat="45.8822890974867" lon="5.185334211567765"><ele>213.0</ele><time>2026-03-28T13:34:58Z</time></trkpt><trkpt lat="45.88210031491715" lon="5.185249209818717"><ele>213.0</ele><time>2026-03-28T13:34:59Z</time></trkpt><trkpt lat="45.88191207856774" lon="5.185159279486756"><ele>213.0</ele><time>2026-03-28T13:35:00Z</time></trkpt><trkpt lat="45.88171961048484" lon="5.185072965286046"><ele>213.0</ele><time>2026-03-28T13:35:01Z</time></trkpt><trkpt lat="45.88152874371328" lon="5.184989311123009"><ele>212.66666666666669</ele><time>2026-03-28T13:35:02Z</time></trkpt><trkpt lat="45.88133971071239" lon="5.18490229597289"><ele>212.33333333333334</ele><time>2026-03-28T13:35:03Z</time></trkpt><trkpt lat="45.88114903125902" lon="5.184815872519907"><ele>212.0</ele><time>2026-03-28T13:35:04Z</time></trkpt><trkpt lat="45.880959684478725" lon="5.184728097949025"><ele>211.33333333333334</ele><time>2026-03-28T13:35:05Z</time></trkpt><trkpt lat="45.880772031900584" lon="5.184642954789624"><ele>210.66666666666669</ele><time>2026-03-28T13:35:06Z</time></trkpt><trkpt lat="45.88058502140283" lon="5.184557577983904"><ele>210.0</ele><time>2026-03-28T13:35:07Z</time></trkpt><trkpt lat="45.88039717796875" lon="5.184471401925128"><ele>210.0</ele><time>2026-03-28T13:35:08Z</time></trkpt><trkpt lat="45.88020666893782" lon="5.184389636759367"><ele>210.0</ele><time>2026-03-28T13:35:09Z</time></trkpt><trkpt lat="45.88001890156706" lon="5.1843037825636635"><ele>210.0</ele><time>2026-03-28T13:35:10Z</time></trkpt><trkpt lat="45.879829793300466" lon="5.184217207504317"><ele>210.0</ele><time>2026-03-28T13:35:11Z</time></trkpt><trkpt lat="45.8796419413444" lon="5.184131714821403"><ele>210.0</ele><time>2026-03-28T13:35:12Z</time></trkpt><trkpt lat="45.8794532947936" lon="5.184047520511293"><ele>210.0</ele><time>2026-03-28T13:35:13Z</time></trkpt><trkpt lat="45.87926223872449" lon="5.183963711674212"><ele>210.33333333333331</ele><time>2026-03-28T13:35:14Z</time></trkpt><trkpt lat="45.879077704830124" lon="5.183883313389931"><ele>210.66666666666666</ele><time>2026-03-28T13:35:15Z</time></trkpt><trkpt lat="45.87889183863973" lon="5.183807271450425"><ele>211.0</ele><time>2026-03-28T13:35:16Z</time></trkpt><trkpt lat="45.87870222156713" lon="5.183727443869181"><ele>211.0</ele><time>2026-03-28T13:35:17Z</time></trkpt><trkpt lat="45.87850979773142" lon="5.183647594084227"><ele>211.0</ele><time>2026-03-28T13:35:18Z</time></trkpt><trkpt lat="45.87831756673142" lon="5.1835700471209964"><ele>211.0</ele><time>2026-03-28T13:35:19Z</time></trkpt><trkpt lat="45.87812765913576" lon="5.183493932966377"><ele>211.33333333333331</ele><time>2026-03-28T13:35:20Z</time></trkpt><trkpt lat="45.87793630541358" lon="5.183420819656361"><ele>211.66666666666669</ele><time>2026-03-28T13:35:21Z</time></trkpt><trkpt lat="45.87774556924051" lon="5.183350980530477"><ele>212.0</ele><time>2026-03-28T13:35:22Z</time></trkpt><trkpt lat="45.87755571721565" lon="5.183279227648865"><ele>212.0</ele><time>2026-03-28T13:35:23Z</time></trkpt><trkpt lat="45.87736610460226" lon="5.183207940124006"><ele>212.0</ele><time>2026-03-28T13:35:24Z</time></trkpt><trkpt lat="45.877178192221365" lon="5.1831371437277625"><ele>212.0</ele><time>2026-03-28T13:35:25Z</time></trkpt><trkpt lat="45.87699013132973" lon="5.183068863742151"><ele>212.0</ele><time>2026-03-28T13:35:26Z</time></trkpt><trkpt lat="45.876799966924" lon="5.183007653489557"><ele>212.0</ele><time>2026-03-28T13:35:27Z</time></trkpt><trkpt lat="45.87660911109124" lon="5.182951811062088"><ele>212.0</ele><time>2026-03-28T13:35:28Z</time></trkpt><trkpt lat="45.87641387077413" lon="5.182897600987105"><ele>211.33333333333334</ele><time>2026-03-28T13:35:29Z</time></trkpt><trkpt lat="45.87621784748047" lon="5.1828471243093315"><ele>210.66666666666669</ele><time>2026-03-28T13:35:30Z</time></trkpt><trkpt lat="45.87602320427794" lon="5.182796383698737"><ele>210.0</ele><time>2026-03-28T13:35:31Z</time></trkpt><trkpt lat="45.875829416238204" lon="5.182748149586378"><ele>210.0</ele><time>2026-03-28T13:35:32Z</time></trkpt><trkpt lat="45.8756344529336" lon="5.182696298822942"><ele>210.0</ele><time>2026-03-28T13:35:33Z</time></trkpt><trkpt lat="45.875441538785324" lon="5.182648473225831"><ele>210.0</ele><time>2026-03-28T13:35:34Z</time></trkpt><trkpt lat="45.8752499243025" lon="5.182599512200937"><ele>210.66666666666669</ele><time>2026-03-28T13:35:35Z</time></trkpt><trkpt lat="45.875056364677135" lon="5.1825481747880335"><ele>211.33333333333334</ele><time>2026-03-28T13:35:36Z</time></trkpt><trkpt lat="45.87486479326938" lon="5.182495907352705"><ele>212.0</ele><time>2026-03-28T13:35:37Z</time></trkpt><trkpt lat="45.874671736519645" lon="5.182446616201411"><ele>212.0</ele><time>2026-03-28T13:35:38Z</time></trkpt><trkpt lat="45.874479455165854" lon="5.18239183734945"><ele>212.0</ele><time>2026-03-28T13:35:39Z</time></trkpt><trkpt lat="45.874287510122045" lon="5.18234132153646"><ele>212.0</ele><time>2026-03-28T13:35:40Z</time></trkpt><trkpt lat="45.87409457527725" lon="5.18229515587318"><ele>211.0</ele><time>2026-03-28T13:35:41Z</time></trkpt><trkpt lat="45.873901362706775" lon="5.182245793800606"><ele>210.0</ele><time>2026-03-28T13:35:42Z</time></trkpt><trkpt lat="45.873708381183114" lon="5.182198942156993"><ele>209.0</ele><time>2026-03-28T13:35:43Z</time></trkpt><trkpt lat="45.87352038785557" lon="5.182159098170983"><ele>209.0</ele><time>2026-03-28T13:35:44Z</time></trkpt><trkpt lat="45.8733282985223" lon="5.18211941453772"><ele>209.0</ele><time>2026-03-28T13:35:45Z</time></trkpt><trkpt lat="45.87313915373051" lon="5.182097618146944"><ele>209.0</ele><time>2026-03-28T13:35:46Z</time></trkpt><trkpt lat="45.87294444679905" lon="5.18207240485619"><ele>209.0</ele><time>2026-03-28T13:35:47Z</time></trkpt><trkpt lat="45.87274886720048" lon="5.182058313725028"><ele>209.0</ele><time>2026-03-28T13:35:48Z</time></trkpt><trkpt lat="45.87255600898285" lon="5.182049806201506"><ele>209.0</ele><time>2026-03-28T13:35:49Z</time></trkpt><trkpt lat="45.8723613563638" lon="5.182052425867339"><ele>209.0</ele><time>2026-03-28T13:35:50Z</time></trkpt><trkpt lat="45.87216340324369" lon="5.182057799260179"><ele>209.0</ele><time>2026-03-28T13:35:51Z</time></trkpt><trkpt lat="45.87196743475683" lon="5.182061177464232"><ele>209.0</ele><time>2026-03-28T13:35:52Z</time></trkpt><trkpt lat="45.87177116541426" lon="5.1820662771223684"><ele>209.33333333333334</ele><time>2026-03-28T13:35:53Z</time></trkpt><trkpt lat="45.871575746471315" lon="5.182071925580476"><ele>209.66666666666669</ele><time>2026-03-28T13:35:54Z</time></trkpt><trkpt lat="45.871378897344634" lon="5.182078117878021"><ele>210.0</ele><time>2026-03-28T13:35:55Z</time></trkpt><trkpt lat="45.87118489333478" lon="5.182082504986356"><ele>210.0</ele><time>2026-03-28T13:35:56Z</time></trkpt><trkpt lat="45.870990510937794" lon="5.182088948305003"><ele>210.0</ele><time>2026-03-28T13:35:57Z</time></trkpt><trkpt lat="45.870792764718026" lon="5.182093775346938"><ele>210.0</ele><time>2026-03-28T13:35:58Z</time></trkpt><trkpt lat="45.87059762677911" lon="5.182098943377381"><ele>210.0</ele><time>2026-03-28T13:35:59Z</time></trkpt><trkpt lat="45.870401879604536" lon="5.182100391425184"><ele>210.0</ele><time>2026-03-28T13:36:00Z</time></trkpt><trkpt lat="45.87021356624256" lon="5.182102381832653"><ele>210.0</ele><time>2026-03-28T13:36:01Z</time></trkpt><trkpt lat="45.87001951204835" lon="5.182110901154657"><ele>209.33333333333331</ele><time>2026-03-28T13:36:02Z</time></trkpt><trkpt lat="45.86982187306947" lon="5.182114776487068"><ele>208.66666666666666</ele><time>2026-03-28T13:36:03Z</time></trkpt><trkpt lat="45.86962859766496" lon="5.182121002258711"><ele>208.0</ele><time>2026-03-28T13:36:04Z</time></trkpt><trkpt lat="45.86943289805889" lon="5.182127832261512"><ele>208.33333333333331</ele><time>2026-03-28T13:36:05Z</time></trkpt><trkpt lat="45.869234983820945" lon="5.182131604375497"><ele>208.66666666666669</ele><time>2026-03-28T13:36:06Z</time></trkpt><trkpt lat="45.86903859860917" lon="5.1821381493294165"><ele>209.0</ele><time>2026-03-28T13:36:07Z</time></trkpt><trkpt lat="45.86884360300633" lon="5.182142750740308"><ele>209.0</ele><time>2026-03-28T13:36:08Z</time></trkpt><trkpt lat="45.868647341427945" lon="5.182146926493108"><ele>209.0</ele><time>2026-03-28T13:36:09Z</time></trkpt><trkpt lat="45.86845227785374" lon="5.182155209444849"><ele>209.0</ele><time>2026-03-28T13:36:10Z</time></trkpt><trkpt lat="45.86825805018902" lon="5.182160851836477"><ele>209.33333333333334</ele><time>2026-03-28T13:36:11Z</time></trkpt><trkpt lat="45.868065040219875" lon="5.182165690078899"><ele>209.66666666666669</ele><time>2026-03-28T13:36:12Z</time></trkpt><trkpt lat="45.86787098995078" lon="5.182172030424842"><ele>210.0</ele><time>2026-03-28T13:36:13Z</time></trkpt><trkpt lat="45.867679329394115" lon="5.182178908813988"><ele>210.0</ele><time>2026-03-28T13:36:14Z</time></trkpt><trkpt lat="45.86748582451223" lon="5.182183590845425"><ele>210.0</ele><time>2026-03-28T13:36:15Z</time></trkpt><trkpt lat="45.86729106841735" lon="5.182190376904726"><ele>210.0</ele><time>2026-03-28T13:36:16Z</time></trkpt><trkpt lat="45.86709818180098" lon="5.182193355660767"><ele>210.0</ele><time>2026-03-28T13:36:17Z</time></trkpt><trkpt lat="45.86690455106871" lon="5.182195064075429"><ele>210.0</ele><time>2026-03-28T13:36:18Z</time></trkpt><trkpt lat="45.86670979086049" lon="5.182192660755886"><ele>210.0</ele><time>2026-03-28T13:36:19Z</time></trkpt><trkpt lat="45.866514687001086" lon="5.182192863634687"><ele>209.66666666666669</ele><time>2026-03-28T13:36:20Z</time></trkpt><trkpt lat="45.866321673242965" lon="5.1821944122195625"><ele>209.33333333333334</ele><time>2026-03-28T13:36:21Z</time></trkpt><trkpt lat="45.86612977530545" lon="5.182189061136514"><ele>209.0</ele><time>2026-03-28T13:36:22Z</time></trkpt><trkpt lat="45.865936990213434" lon="5.182175211696231"><ele>209.0</ele><time>2026-03-28T13:36:23Z</time></trkpt><trkpt lat="45.8657482456294" lon="5.182150051837571"><ele>209.0</ele><time>2026-03-28T13:36:24Z</time></trkpt><trkpt lat="45.86556021771219" lon="5.182119023948544"><ele>209.0</ele><time>2026-03-28T13:36:25Z</time></trkpt><trkpt lat="45.8653788845735" lon="5.182095626555255"><ele>209.0</ele><time>2026-03-28T13:36:26Z</time></trkpt><trkpt lat="45.86519919439017" lon="5.1820825422559444"><ele>209.0</ele><time>2026-03-28T13:36:27Z</time></trkpt><trkpt lat="45.8650169091553" lon="5.182078491749692"><ele>209.0</ele><time>2026-03-28T13:36:28Z</time></trkpt><trkpt lat="45.86483664675043" lon="5.182081579397027"><ele>209.66666666666669</ele><time>2026-03-28T13:36:29Z</time></trkpt><trkpt lat="45.86465605379452" lon="5.182094517452882"><ele>210.33333333333331</ele><time>2026-03-28T13:36:30Z</time></trkpt><trkpt lat="45.86447744280414" lon="5.182112666189819"><ele>211.0</ele><time>2026-03-28T13:36:31Z</time></trkpt><trkpt lat="45.86430273722103" lon="5.182144829211318"><ele>211.33333333333331</ele><time>2026-03-28T13:36:32Z</time></trkpt><trkpt lat="45.86413111245936" lon="5.182186061276794"><ele>211.66666666666669</ele><time>2026-03-28T13:36:33Z</time></trkpt><trkpt lat="45.86395787753164" lon="5.182226752627508"><ele>212.0</ele><time>2026-03-28T13:36:34Z</time></trkpt><trkpt lat="45.86379098479066" lon="5.1822740178112445"><ele>212.0</ele><time>2026-03-28T13:36:35Z</time></trkpt><trkpt lat="45.863631091048944" lon="5.182317500582075"><ele>212.0</ele><time>2026-03-28T13:36:36Z</time></trkpt><trkpt lat="45.86347637742263" lon="5.182362989213404"><ele>212.0</ele><time>2026-03-28T13:36:37Z</time></trkpt><trkpt lat="45.863321981945056" lon="5.182406729444699"><ele>212.0</ele><time>2026-03-28T13:36:38Z</time></trkpt><trkpt lat="45.863167354090905" lon="5.182451023131739"><ele>212.0</ele><time>2026-03-28T13:36:39Z</time></trkpt><trkpt lat="45.863011592695045" lon="5.18249404154494"><ele>212.0</ele><time>2026-03-28T13:36:40Z</time></trkpt><trkpt lat="45.86285300314907" lon="5.182541355000679"><ele>212.0</ele><time>2026-03-28T13:36:41Z</time></trkpt><trkpt lat="45.86269181387508" lon="5.182588249282698"><ele>212.0</ele><time>2026-03-28T13:36:42Z</time></trkpt><trkpt lat="45.862527349997414" lon="5.182638455216393"><ele>212.0</ele><time>2026-03-28T13:36:43Z</time></trkpt><trkpt lat="45.86236737116826" lon="5.182681316582124"><ele>211.33333333333334</ele><time>2026-03-28T13:36:44Z</time></trkpt><trkpt lat="45.86221042378254" lon="5.182730060761462"><ele>210.66666666666669</ele><time>2026-03-28T13:36:45Z</time></trkpt><trkpt lat="45.862057016890475" lon="5.182784059527038"><ele>210.0</ele><time>2026-03-28T13:36:46Z</time></trkpt><trkpt lat="45.86190825573471" lon="5.182840625606044"><ele>209.75</ele><time>2026-03-28T13:36:47Z</time></trkpt><trkpt lat="45.86176081276544" lon="5.182900728548179"><ele>209.5</ele><time>2026-03-28T13:36:48Z</time></trkpt><trkpt lat="45.86161810182321" lon="5.182958465750794"><ele>209.25</ele><time>2026-03-28T13:36:49Z</time></trkpt><trkpt lat="45.86148160630477" lon="5.183016335058882"><ele>209.0</ele><time>2026-03-28T13:36:50Z</time></trkpt><trkpt lat="45.86135169519999" lon="5.183075804506525"><ele>209.0</ele><time>2026-03-28T13:36:51Z</time></trkpt><trkpt lat="45.86123008021595" lon="5.18313453252606"><ele>209.0</ele><time>2026-03-28T13:36:52Z</time></trkpt><trkpt lat="45.8611142136993" lon="5.18319021798402"><ele>209.0</ele><time>2026-03-28T13:36:53Z</time></trkpt><trkpt lat="45.86101262799403" lon="5.183240995777513"><ele>209.0</ele><time>2026-03-28T13:36:54Z</time></trkpt><trkpt lat="45.86091982217989" lon="5.183286813290125"><ele>209.39999999999998</ele><time>2026-03-28T13:36:55Z</time></trkpt><trkpt lat="45.860835941232665" lon="5.18332957348409"><ele>209.8</ele><time>2026-03-28T13:36:56Z</time></trkpt><trkpt lat="45.86076591775121" lon="5.183360716598817"><ele>210.2</ele><time>2026-03-28T13:36:57Z</time></trkpt><trkpt lat="45.86070269653288" lon="5.183373688948359"><ele>210.60000000000002</ele><time>2026-03-28T13:36:58Z</time></trkpt><trkpt lat="45.86059569468025" lon="5.1833237546884146"><ele>211.0</ele><time>2026-03-28T13:37:00Z</time></trkpt><trkpt lat="45.86053815567711" lon="5.183164554271264"><ele>211.0</ele><time>2026-03-28T13:37:02Z</time></trkpt><trkpt lat="45.8605348509695" lon="5.183069772915965"><ele>211.0</ele><time>2026-03-28T13:37:03Z</time></trkpt><trkpt lat="45.860542856924006" lon="5.182970881692828"><ele>211.0</ele><time>2026-03-28T13:37:04Z</time></trkpt><trkpt lat="45.86056306283283" lon="5.1828695230945225"><ele>211.0</ele><time>2026-03-28T13:37:05Z</time></trkpt><trkpt lat="45.86059522276263" lon="5.182775576066383"><ele>211.0</ele><time>2026-03-28T13:37:06Z</time></trkpt><trkpt lat="45.86064169739487" lon="5.182698598743332"><ele>211.0</ele><time>2026-03-28T13:37:07Z</time></trkpt><trkpt lat="45.86069894840201" lon="5.182637826450575"><ele>211.0</ele><time>2026-03-28T13:37:08Z</time></trkpt><trkpt lat="45.86075340765914" lon="5.18257908677039"><ele>210.99999999999997</ele><time>2026-03-28T13:37:09Z</time></trkpt><trkpt lat="45.86080031254846" lon="5.182513051520809"><ele>211.0</ele><time>2026-03-28T13:37:10Z</time></trkpt><trkpt lat="45.86083477185688" lon="5.182433418781147"><ele>211.0</ele><time>2026-03-28T13:37:11Z</time></trkpt><trkpt lat="45.8608552265157" lon="5.182346811181911"><ele>211.0</ele><time>2026-03-28T13:37:12Z</time></trkpt><trkpt lat="45.86086412609697" lon="5.18225355855271"><ele>210.99999999999997</ele><time>2026-03-28T13:37:13Z</time></trkpt><trkpt lat="45.86084506093555" lon="5.182068405758571"><ele>211.0</ele><time>2026-03-28T13:37:15Z</time></trkpt><trkpt lat="45.86084039207334" lon="5.181962848163484"><ele>210.99999999999997</ele><time>2026-03-28T13:37:16Z</time></trkpt><trkpt lat="45.860841102431245" lon="5.181855846182028"><ele>211.0</ele><time>2026-03-28T13:37:17Z</time></trkpt><trkpt lat="45.860840912993616" lon="5.181760542803183"><ele>211.0</ele><time>2026-03-28T13:37:18Z</time></trkpt><trkpt lat="45.860854656593496" lon="5.181612617665224"><ele>211.0</ele><time>2026-03-28T13:37:20Z</time></trkpt><trkpt lat="45.86087563980112" lon="5.181508730265005"><ele>210.99999999999997</ele><time>2026-03-28T13:37:22Z</time></trkpt><trkpt lat="45.86089413669985" lon="5.181422304063647"><ele>211.0</ele><time>2026-03-28T13:37:25Z</time></trkpt><trkpt lat="45.86091210823747" lon="5.181320854878487"><ele>211.0</ele><time>2026-03-28T13:37:29Z</time></trkpt><trkpt lat="45.86094389417893" lon="5.18115482535477"><ele>211.0</ele><time>2026-03-28T13:37:32Z</time></trkpt><trkpt lat="45.86095936936983" lon="5.18102896151677"><ele>211.0</ele><time>2026-03-28T13:37:34Z</time></trkpt><trkpt lat="45.860974023193144" lon="5.180895689185366"><ele>211.0</ele><time>2026-03-28T13:37:36Z</time></trkpt><trkpt lat="45.86099279619445" lon="5.180753542290013"><ele>211.0</ele><time>2026-03-28T13:37:38Z</time></trkpt><trkpt lat="45.86100638124321" lon="5.18066208211847"><ele>210.49999999999997</ele><time>2026-03-28T13:37:39Z</time></trkpt><trkpt lat="45.86102394583858" lon="5.180552011018312"><ele>210.0</ele><time>2026-03-28T13:37:40Z</time></trkpt><trkpt lat="45.861041535476545" lon="5.180445892723565"><ele>209.5</ele><time>2026-03-28T13:37:41Z</time></trkpt><trkpt lat="45.86106505638454" lon="5.180323078596664"><ele>209.0</ele><time>2026-03-28T13:37:42Z</time></trkpt><trkpt lat="45.86108918791045" lon="5.1801892191719325"><ele>208.49999999999997</ele><time>2026-03-28T13:37:43Z</time></trkpt><trkpt lat="45.861115795852335" lon="5.18004310188366"><ele>208.0</ele><time>2026-03-28T13:37:44Z</time></trkpt><trkpt lat="45.86114420284075" lon="5.179884944952754"><ele>208.5</ele><time>2026-03-28T13:37:45Z</time></trkpt><trkpt lat="45.86116864263386" lon="5.179711068920135"><ele>209.0</ele><time>2026-03-28T13:37:46Z</time></trkpt><trkpt lat="45.86120119642687" lon="5.179526815798797"><ele>209.5</ele><time>2026-03-28T13:37:47Z</time></trkpt><trkpt lat="45.86123340038652" lon="5.179346600662788"><ele>210.0</ele><time>2026-03-28T13:37:48Z</time></trkpt><trkpt lat="45.86126550435153" lon="5.179164354126598"><ele>211.0</ele><time>2026-03-28T13:37:49Z</time></trkpt><trkpt lat="45.86130122382171" lon="5.178970196401013"><ele>212.0</ele><time>2026-03-28T13:37:50Z</time></trkpt><trkpt lat="45.86133956095387" lon="5.178773195218374"><ele>213.0</ele><time>2026-03-28T13:37:51Z</time></trkpt><trkpt lat="45.86139443954285" lon="5.178575840270436"><ele>214.0</ele><time>2026-03-28T13:37:52Z</time></trkpt><trkpt lat="45.861455419431394" lon="5.178382229341893"><ele>214.0</ele><time>2026-03-28T13:37:53Z</time></trkpt><trkpt lat="45.861536974578044" lon="5.178203040139204"><ele>214.0</ele><time>2026-03-28T13:37:54Z</time></trkpt><trkpt lat="45.86162947043409" lon="5.178031619599128"><ele>214.0</ele><time>2026-03-28T13:37:55Z</time></trkpt><trkpt lat="45.86173133183676" lon="5.177886362465179"><ele>214.0</ele><time>2026-03-28T13:37:56Z</time></trkpt><trkpt lat="45.86183526773852" lon="5.177761653904631"><ele>214.0</ele><time>2026-03-28T13:37:57Z</time></trkpt><trkpt lat="45.86194967011985" lon="5.177647655442333"><ele>214.0</ele><time>2026-03-28T13:37:58Z</time></trkpt><trkpt lat="45.86206605656503" lon="5.17753611272261"><ele>214.0</ele><time>2026-03-28T13:37:59Z</time></trkpt><trkpt lat="45.86218426368328" lon="5.17742445924316"><ele>214.0</ele><time>2026-03-28T13:38:00Z</time></trkpt><trkpt lat="45.86231004241245" lon="5.177316759173429"><ele>214.0</ele><time>2026-03-28T13:38:01Z</time></trkpt><trkpt lat="45.86242705018054" lon="5.177209870171387"><ele>214.0</ele><time>2026-03-28T13:38:02Z</time></trkpt><trkpt lat="45.8625429143506" lon="5.177104440565891"><ele>214.0</ele><time>2026-03-28T13:38:03Z</time></trkpt><trkpt lat="45.862660249548156" lon="5.177001195085382"><ele>214.0</ele><time>2026-03-28T13:38:04Z</time></trkpt><trkpt lat="45.86277481109457" lon="5.176899729764891"><ele>213.5</ele><time>2026-03-28T13:38:05Z</time></trkpt><trkpt lat="45.862884491511096" lon="5.176799993596717"><ele>213.0</ele><time>2026-03-28T13:38:06Z</time></trkpt><trkpt lat="45.862991845780826" lon="5.176700935550388"><ele>212.5</ele><time>2026-03-28T13:38:07Z</time></trkpt><trkpt lat="45.86309149641047" lon="5.176591550386097"><ele>212.0</ele><time>2026-03-28T13:38:08Z</time></trkpt><trkpt lat="45.86317815807573" lon="5.1764686598046366"><ele>211.75</ele><time>2026-03-28T13:38:09Z</time></trkpt><trkpt lat="45.863252339737656" lon="5.176323693733878"><ele>211.5</ele><time>2026-03-28T13:38:10Z</time></trkpt><trkpt lat="45.86330759165734" lon="5.176166533294113"><ele>211.25</ele><time>2026-03-28T13:38:11Z</time></trkpt><trkpt lat="45.86333545397219" lon="5.175999450249649"><ele>211.0</ele><time>2026-03-28T13:38:12Z</time></trkpt><trkpt lat="45.86333807716586" lon="5.175823057370693"><ele>211.0</ele><time>2026-03-28T13:38:13Z</time></trkpt><trkpt lat="45.86330965644643" lon="5.1756479527570445"><ele>211.0</ele><time>2026-03-28T13:38:14Z</time></trkpt><trkpt lat="45.86323900764908" lon="5.175488006026279"><ele>211.0</ele><time>2026-03-28T13:38:15Z</time></trkpt><trkpt lat="45.86317238120076" lon="5.175320012201715"><ele>211.0</ele><time>2026-03-28T13:38:16Z</time></trkpt><trkpt lat="45.863069656859864" lon="5.175169864880009"><ele>211.0</ele><time>2026-03-28T13:38:17Z</time></trkpt><trkpt lat="45.8629497020978" lon="5.17502754252613"><ele>211.0</ele><time>2026-03-28T13:38:18Z</time></trkpt><trkpt lat="45.86281853009506" lon="5.1748928104896"><ele>211.0</ele><time>2026-03-28T13:38:19Z</time></trkpt><trkpt lat="45.86268237375029" lon="5.174741801084389"><ele>211.0</ele><time>2026-03-28T13:38:20Z</time></trkpt><trkpt lat="45.86254217875777" lon="5.174572306506554"><ele>211.0</ele><time>2026-03-28T13:38:21Z</time></trkpt><trkpt lat="45.86241197626955" lon="5.174387517879774"><ele>211.0</ele><time>2026-03-28T13:38:22Z</time></trkpt><trkpt lat="45.86229609870926" lon="5.174183976139208"><ele>211.0</ele><time>2026-03-28T13:38:23Z</time></trkpt><trkpt lat="45.86219079141617" lon="5.173960753323579"><ele>211.0</ele><time>2026-03-28T13:38:24Z</time></trkpt><trkpt lat="45.862102174484605" lon="5.173710272051332"><ele>211.0</ele><time>2026-03-28T13:38:25Z</time></trkpt><trkpt lat="45.86203017150813" lon="5.173445424117836"><ele>210.66666666666666</ele><time>2026-03-28T13:38:26Z</time></trkpt><trkpt lat="45.86197468431306" lon="5.1731693611531115"><ele>210.33333333333331</ele><time>2026-03-28T13:38:27Z</time></trkpt><trkpt lat="45.861934369001695" lon="5.172879190758378"><ele>210.0</ele><time>2026-03-28T13:38:28Z</time></trkpt><trkpt lat="45.86186762502836" lon="5.172596345910718"><ele>209.5</ele><time>2026-03-28T13:38:29Z</time></trkpt><trkpt lat="45.861879148368224" lon="5.172260739236172"><ele>209.0</ele><time>2026-03-28T13:38:30Z</time></trkpt><trkpt lat="45.86185289952475" lon="5.1719446805588"><ele>209.0</ele><time>2026-03-28T13:38:31Z</time></trkpt><trkpt lat="45.861829409458515" lon="5.171620570301576"><ele>209.0</ele><time>2026-03-28T13:38:32Z</time></trkpt><trkpt lat="45.86180791723527" lon="5.17128966235428"><ele>209.0</ele><time>2026-03-28T13:38:33Z</time></trkpt><trkpt lat="45.861790433656545" lon="5.170950275383775"><ele>209.0</ele><time>2026-03-28T13:38:34Z</time></trkpt><trkpt lat="45.86177610701256" lon="5.17060755152988"><ele>209.0</ele><time>2026-03-28T13:38:35Z</time></trkpt><trkpt lat="45.861764897246765" lon="5.170261513221541"><ele>209.0</ele><time>2026-03-28T13:38:36Z</time></trkpt><trkpt lat="45.86175517431821" lon="5.16991286274596"><ele>209.5</ele><time>2026-03-28T13:38:37Z</time></trkpt><trkpt lat="45.86175023381562" lon="5.169562917984153"><ele>210.0</ele><time>2026-03-28T13:38:38Z</time></trkpt><trkpt lat="45.86174855197697" lon="5.16921228119495"><ele>210.5</ele><time>2026-03-28T13:38:39Z</time></trkpt><trkpt lat="45.8617463482437" lon="5.168859723180123"><ele>211.0</ele><time>2026-03-28T13:38:40Z</time></trkpt><trkpt lat="45.86174826597522" lon="5.168506749025582"><ele>210.0</ele><time>2026-03-28T13:38:41Z</time></trkpt><trkpt lat="45.86175494353866" lon="5.168151651127293"><ele>209.0</ele><time>2026-03-28T13:38:42Z</time></trkpt><trkpt lat="45.861758574031775" lon="5.167787597912393"><ele>209.0</ele><time>2026-03-28T13:38:43Z</time></trkpt><trkpt lat="45.86176892137039" lon="5.167417305832224"><ele>209.0</ele><time>2026-03-28T13:38:44Z</time></trkpt><trkpt lat="45.86178181106256" lon="5.167042849817854"><ele>209.0</ele><time>2026-03-28T13:38:45Z</time></trkpt><trkpt lat="45.86179836225404" lon="5.166662286847173"><ele>209.0</ele><time>2026-03-28T13:38:46Z</time></trkpt><trkpt lat="45.86181561308576" lon="5.16627546432583"><ele>208.5</ele><time>2026-03-28T13:38:47Z</time></trkpt><trkpt lat="45.86183597863065" lon="5.165886077324148"><ele>208.0</ele><time>2026-03-28T13:38:48Z</time></trkpt><trkpt lat="45.86186278454539" lon="5.165492658453236"><ele>208.0</ele><time>2026-03-28T13:38:49Z</time></trkpt><trkpt lat="45.861895843550144" lon="5.165100861226124"><ele>208.0</ele><time>2026-03-28T13:38:50Z</time></trkpt><trkpt lat="45.861927721823676" lon="5.164707527057663"><ele>208.0</ele><time>2026-03-28T13:38:51Z</time></trkpt><trkpt lat="45.86196323227297" lon="5.164312548595107"><ele>208.0</ele><time>2026-03-28T13:38:52Z</time></trkpt><trkpt lat="45.8620024967089" lon="5.1639183383595535"><ele>208.0</ele><time>2026-03-28T13:38:53Z</time></trkpt><trkpt lat="45.86204431347053" lon="5.163527528798657"><ele>208.0</ele><time>2026-03-28T13:38:54Z</time></trkpt><trkpt lat="45.862091474460904" lon="5.163139263676032"><ele>208.0</ele><time>2026-03-28T13:38:55Z</time></trkpt><trkpt lat="45.86213685197927" lon="5.162745691710759"><ele>208.0</ele><time>2026-03-28T13:38:56Z</time></trkpt><trkpt lat="45.86218495439436" lon="5.162358215425076"><ele>209.0</ele><time>2026-03-28T13:38:57Z</time></trkpt><trkpt lat="45.862231978292485" lon="5.1619704788692315"><ele>210.0</ele><time>2026-03-28T13:38:58Z</time></trkpt><trkpt lat="45.86227945453815" lon="5.161581097882319"><ele>210.5</ele><time>2026-03-28T13:38:59Z</time></trkpt><trkpt lat="45.862327240996514" lon="5.161193027848205"><ele>211.0</ele><time>2026-03-28T13:39:00Z</time></trkpt><trkpt lat="45.862375001480814" lon="5.160806202732764"><ele>209.5</ele><time>2026-03-28T13:39:01Z</time></trkpt><trkpt lat="45.86242514935684" lon="5.160419682943557"><ele>208.0</ele><time>2026-03-28T13:39:02Z</time></trkpt><trkpt lat="45.8624720512794" lon="5.160033535707081"><ele>207.5</ele><time>2026-03-28T13:39:03Z</time></trkpt><trkpt lat="45.862522850566265" lon="5.159647414218159"><ele>207.0</ele><time>2026-03-28T13:39:04Z</time></trkpt><trkpt lat="45.86257612215441" lon="5.159261973384939"><ele>207.0</ele><time>2026-03-28T13:39:05Z</time></trkpt><trkpt lat="45.86262710880665" lon="5.158878922298107"><ele>207.0</ele><time>2026-03-28T13:39:06Z</time></trkpt><trkpt lat="45.86268444305974" lon="5.158487369616696"><ele>207.0</ele><time>2026-03-28T13:39:07Z</time></trkpt><trkpt lat="45.862733549926126" lon="5.158104066376465"><ele>207.0</ele><time>2026-03-28T13:39:08Z</time></trkpt><trkpt lat="45.86278296741807" lon="5.157720633207848"><ele>207.5</ele><time>2026-03-28T13:39:09Z</time></trkpt><trkpt lat="45.86283029163961" lon="5.157336375974367"><ele>208.0</ele><time>2026-03-28T13:39:10Z</time></trkpt><trkpt lat="45.862872476550315" lon="5.156949170506954"><ele>208.0</ele><time>2026-03-28T13:39:11Z</time></trkpt><trkpt lat="45.86291673691286" lon="5.156564713130796"><ele>208.0</ele><time>2026-03-28T13:39:12Z</time></trkpt><trkpt lat="45.86296061311419" lon="5.156180798638958"><ele>208.0</ele><time>2026-03-28T13:39:13Z</time></trkpt><trkpt lat="45.86300678754286" lon="5.155800629360421"><ele>208.0</ele><time>2026-03-28T13:39:14Z</time></trkpt><trkpt lat="45.86305435593654" lon="5.155419947934358"><ele>208.0</ele><time>2026-03-28T13:39:15Z</time></trkpt><trkpt lat="45.86310345375915" lon="5.1550393862975135"><ele>208.0</ele><time>2026-03-28T13:39:16Z</time></trkpt><trkpt lat="45.86315051366715" lon="5.154657797713008"><ele>208.0</ele><time>2026-03-28T13:39:17Z</time></trkpt><trkpt lat="45.86320037170947" lon="5.1542791282029174"><ele>208.0</ele><time>2026-03-28T13:39:18Z</time></trkpt><trkpt lat="45.86324846435663" lon="5.153901813262365"><ele>208.0</ele><time>2026-03-28T13:39:19Z</time></trkpt><trkpt lat="45.86329755915554" lon="5.15352048876696"><ele>208.0</ele><time>2026-03-28T13:39:20Z</time></trkpt><trkpt lat="45.863345660995265" lon="5.153140816526179"><ele>208.0</ele><time>2026-03-28T13:39:21Z</time></trkpt><trkpt lat="45.86339365709703" lon="5.152759749518527"><ele>208.0</ele><time>2026-03-28T13:39:22Z</time></trkpt><trkpt lat="45.86344074604045" lon="5.152383301097967"><ele>209.0</ele><time>2026-03-28T13:39:23Z</time></trkpt><trkpt lat="45.86349159085709" lon="5.152009647715215"><ele>210.0</ele><time>2026-03-28T13:39:24Z</time></trkpt><trkpt lat="45.86354203037989" lon="5.151631282430154"><ele>210.0</ele><time>2026-03-28T13:39:25Z</time></trkpt><trkpt lat="45.86359003972946" lon="5.151252978164222"><ele>210.0</ele><time>2026-03-28T13:39:26Z</time></trkpt><trkpt lat="45.86364034872092" lon="5.150878297956043"><ele>209.5</ele><time>2026-03-28T13:39:27Z</time></trkpt><trkpt lat="45.86369739093414" lon="5.150501740788578"><ele>209.0</ele><time>2026-03-28T13:39:28Z</time></trkpt><trkpt lat="45.86375321602889" lon="5.150123552938607"><ele>209.0</ele><time>2026-03-28T13:39:29Z</time></trkpt><trkpt lat="45.86381225966608" lon="5.1497431897287695"><ele>209.0</ele><time>2026-03-28T13:39:30Z</time></trkpt><trkpt lat="45.86386718950448" lon="5.149361244988045"><ele>209.0</ele><time>2026-03-28T13:39:31Z</time></trkpt><trkpt lat="45.86391654973418" lon="5.148976480408715"><ele>209.0</ele><time>2026-03-28T13:39:32Z</time></trkpt><trkpt lat="45.863967119081124" lon="5.148592099217564"><ele>209.5</ele><time>2026-03-28T13:39:33Z</time></trkpt><trkpt lat="45.86401519917809" lon="5.148206799691651"><ele>210.0</ele><time>2026-03-28T13:39:34Z</time></trkpt><trkpt lat="45.86406334253285" lon="5.147823936822226"><ele>210.0</ele><time>2026-03-28T13:39:35Z</time></trkpt><trkpt lat="45.86411138861226" lon="5.1474393109038585"><ele>210.0</ele><time>2026-03-28T13:39:36Z</time></trkpt><trkpt lat="45.8641558451327" lon="5.147050986825264"><ele>210.0</ele><time>2026-03-28T13:39:37Z</time></trkpt><trkpt lat="45.86419545319705" lon="5.146664631502693"><ele>210.0</ele><time>2026-03-28T13:39:38Z</time></trkpt><trkpt lat="45.864235236088334" lon="5.146276579697896"><ele>209.5</ele><time>2026-03-28T13:39:39Z</time></trkpt><trkpt lat="45.86427253235207" lon="5.145886842789676"><ele>209.0</ele><time>2026-03-28T13:39:40Z</time></trkpt><trkpt lat="45.86430635440305" lon="5.145497410981604"><ele>209.0</ele><time>2026-03-28T13:39:41Z</time></trkpt><trkpt lat="45.86433789514164" lon="5.145110909082523"><ele>209.0</ele><time>2026-03-28T13:39:42Z</time></trkpt><trkpt lat="45.864368896896494" lon="5.144726263216524"><ele>209.5</ele><time>2026-03-28T13:39:43Z</time></trkpt><trkpt lat="45.864391602994985" lon="5.144339206532506"><ele>210.0</ele><time>2026-03-28T13:39:44Z</time></trkpt><trkpt lat="45.86441311357169" lon="5.143955583917747"><ele>210.0</ele><time>2026-03-28T13:39:45Z</time></trkpt><trkpt lat="45.86443058185355" lon="5.143572378229668"><ele>210.0</ele><time>2026-03-28T13:39:46Z</time></trkpt><trkpt lat="45.86444815037221" lon="5.143189376799377"><ele>212.0</ele><time>2026-03-28T13:39:47Z</time></trkpt><trkpt lat="45.86446406412198" lon="5.142803481142945"><ele>214.0</ele><time>2026-03-28T13:39:48Z</time></trkpt><trkpt lat="45.864476449144824" lon="5.142417611238545"><ele>215.5</ele><time>2026-03-28T13:39:49Z</time></trkpt><trkpt lat="45.86448678620028" lon="5.142032838796506"><ele>217.0</ele><time>2026-03-28T13:39:50Z</time></trkpt><trkpt lat="45.86449550074611" lon="5.1416465297513305"><ele>219.0</ele><time>2026-03-28T13:39:51Z</time></trkpt><trkpt lat="45.86450091258637" lon="5.141261311667205"><ele>221.0</ele><time>2026-03-28T13:39:52Z</time></trkpt><trkpt lat="45.864502962208796" lon="5.140878180722753"><ele>223.5</ele><time>2026-03-28T13:39:53Z</time></trkpt><trkpt lat="45.86449964557213" lon="5.140492556949706"><ele>226.0</ele><time>2026-03-28T13:39:54Z</time></trkpt><trkpt lat="45.86449299127894" lon="5.140104712454379"><ele>226.5</ele><time>2026-03-28T13:39:55Z</time></trkpt><trkpt lat="45.86448694795469" lon="5.139717110797765"><ele>227.0</ele><time>2026-03-28T13:39:56Z</time></trkpt><trkpt lat="45.86447568391694" lon="5.139332241468107"><ele>228.0</ele><time>2026-03-28T13:39:57Z</time></trkpt><trkpt lat="45.864460293930655" lon="5.138945131663998"><ele>229.0</ele><time>2026-03-28T13:39:58Z</time></trkpt><trkpt lat="45.86444017061767" lon="5.138562343813628"><ele>230.0</ele><time>2026-03-28T13:39:59Z</time></trkpt><trkpt lat="45.86441902370548" lon="5.13817849283874"><ele>231.0</ele><time>2026-03-28T13:40:00Z</time></trkpt><trkpt lat="45.86439191584785" lon="5.1377985922640335"><ele>231.0</ele><time>2026-03-28T13:40:01Z</time></trkpt><trkpt lat="45.864361214137716" lon="5.137418053263925"><ele>231.0</ele><time>2026-03-28T13:40:02Z</time></trkpt><trkpt lat="45.86432776091312" lon="5.137040026424305"><ele>230.5</ele><time>2026-03-28T13:40:03Z</time></trkpt><trkpt lat="45.86428758311259" lon="5.1366615796162085"><ele>230.0</ele><time>2026-03-28T13:40:04Z</time></trkpt><trkpt lat="45.86424228040375" lon="5.13628237119911"><ele>229.0</ele><time>2026-03-28T13:40:05Z</time></trkpt><trkpt lat="45.86419407270851" lon="5.135902113632474"><ele>228.0</ele><time>2026-03-28T13:40:06Z</time></trkpt><trkpt lat="45.86414357167365" lon="5.135522043980123"><ele>228.0</ele><time>2026-03-28T13:40:07Z</time></trkpt><trkpt lat="45.864089615288144" lon="5.135145292604468"><ele>228.0</ele><time>2026-03-28T13:40:08Z</time></trkpt><trkpt lat="45.864030492979815" lon="5.13476904358684"><ele>230.5</ele><time>2026-03-28T13:40:09Z</time></trkpt><trkpt lat="45.863966224733296" lon="5.13439345722444"><ele>233.0</ele><time>2026-03-28T13:40:10Z</time></trkpt><trkpt lat="45.86389833523997" lon="5.134020946561306"><ele>237.0</ele><time>2026-03-28T13:40:11Z</time></trkpt><trkpt lat="45.863827258659995" lon="5.133647804439627"><ele>241.0</ele><time>2026-03-28T13:40:12Z</time></trkpt><trkpt lat="45.86375268326041" lon="5.133275661656692"><ele>242.5</ele><time>2026-03-28T13:40:13Z</time></trkpt><trkpt lat="45.86367370843429" lon="5.13290230252156"><ele>244.0</ele><time>2026-03-28T13:40:14Z</time></trkpt><trkpt lat="45.86359119135466" lon="5.132532292836044"><ele>244.5</ele><time>2026-03-28T13:40:15Z</time></trkpt><trkpt lat="45.8635063554574" lon="5.1321641019937685"><ele>245.0</ele><time>2026-03-28T13:40:16Z</time></trkpt><trkpt lat="45.86341702263265" lon="5.131795187840158"><ele>244.5</ele><time>2026-03-28T13:40:17Z</time></trkpt><trkpt lat="45.86332021081925" lon="5.1314260850851285"><ele>244.0</ele><time>2026-03-28T13:40:18Z</time></trkpt><trkpt lat="45.86322328954624" lon="5.131055443996027"><ele>247.0</ele><time>2026-03-28T13:40:19Z</time></trkpt><trkpt lat="45.86312225962595" lon="5.130690237442875"><ele>250.0</ele><time>2026-03-28T13:40:20Z</time></trkpt><trkpt lat="45.863019234465284" lon="5.13032919581945"><ele>250.0</ele><time>2026-03-28T13:40:21Z</time></trkpt><trkpt lat="45.86291167077271" lon="5.129967092193687"><ele>250.0</ele><time>2026-03-28T13:40:22Z</time></trkpt><trkpt lat="45.86280500893737" lon="5.129603695328499"><ele>251.0</ele><time>2026-03-28T13:40:23Z</time></trkpt><trkpt lat="45.86269109626974" lon="5.129249026726958"><ele>252.0</ele><time>2026-03-28T13:40:24Z</time></trkpt><trkpt lat="45.862577559894184" lon="5.128888986202955"><ele>252.0</ele><time>2026-03-28T13:40:25Z</time></trkpt><trkpt lat="45.86246305658677" lon="5.128531431912139"><ele>252.0</ele><time>2026-03-28T13:40:26Z</time></trkpt><trkpt lat="45.862346458630405" lon="5.1281711604505915"><ele>255.0</ele><time>2026-03-28T13:40:27Z</time></trkpt><trkpt lat="45.86222838310337" lon="5.127810744342342"><ele>258.0</ele><time>2026-03-28T13:40:28Z</time></trkpt><trkpt lat="45.86210825666389" lon="5.127454193479808"><ele>259.0</ele><time>2026-03-28T13:40:29Z</time></trkpt><trkpt lat="45.86198808654633" lon="5.127096754433767"><ele>260.0</ele><time>2026-03-28T13:40:30Z</time></trkpt><trkpt lat="45.86186468634119" lon="5.126738349541055"><ele>256.0</ele><time>2026-03-28T13:40:31Z</time></trkpt><trkpt lat="45.861745191303164" lon="5.126379133395013"><ele>252.0</ele><time>2026-03-28T13:40:32Z</time></trkpt><trkpt lat="45.86162442666701" lon="5.126018008423706"><ele>255.0</ele><time>2026-03-28T13:40:33Z</time></trkpt><trkpt lat="45.86150482258525" lon="5.125662122197428"><ele>258.0</ele><time>2026-03-28T13:40:34Z</time></trkpt><trkpt lat="45.86138248933191" lon="5.125303696059128"><ele>258.0</ele><time>2026-03-28T13:40:35Z</time></trkpt><trkpt lat="45.861261744129415" lon="5.124944372195022"><ele>258.0</ele><time>2026-03-28T13:40:36Z</time></trkpt><trkpt lat="45.861138856691014" lon="5.124583621148987"><ele>258.0</ele><time>2026-03-28T13:40:37Z</time></trkpt><trkpt lat="45.86101979476607" lon="5.124228748591798"><ele>258.0</ele><time>2026-03-28T13:40:38Z</time></trkpt><trkpt lat="45.860899276903595" lon="5.123870959040343"><ele>255.0</ele><time>2026-03-28T13:40:39Z</time></trkpt><trkpt lat="45.86078098539286" lon="5.123515092801266"><ele>252.0</ele><time>2026-03-28T13:40:40Z</time></trkpt><trkpt lat="45.86066125080353" lon="5.123157279844791"><ele>252.0</ele><time>2026-03-28T13:40:41Z</time></trkpt><trkpt lat="45.860541539820254" lon="5.122798537032637"><ele>252.0</ele><time>2026-03-28T13:40:42Z</time></trkpt><trkpt lat="45.86042081186268" lon="5.122440686823031"><ele>253.0</ele><time>2026-03-28T13:40:43Z</time></trkpt><trkpt lat="45.86030228049673" lon="5.122084021645496"><ele>254.0</ele><time>2026-03-28T13:40:44Z</time></trkpt><trkpt lat="45.8601809349748" lon="5.121726707301316"><ele>250.0</ele><time>2026-03-28T13:40:45Z</time></trkpt><trkpt lat="45.86005894917635" lon="5.121369360097874"><ele>246.0</ele><time>2026-03-28T13:40:46Z</time></trkpt><trkpt lat="45.85994348374615" lon="5.1210133339275785"><ele>246.0</ele><time>2026-03-28T13:40:47Z</time></trkpt><trkpt lat="45.859825800511565" lon="5.120655073059476"><ele>246.0</ele><time>2026-03-28T13:40:48Z</time></trkpt><trkpt lat="45.85970657684258" lon="5.12029748589979"><ele>246.0</ele><time>2026-03-28T13:40:49Z</time></trkpt><trkpt lat="45.859588921401524" lon="5.119942042615398"><ele>246.0</ele><time>2026-03-28T13:40:50Z</time></trkpt><trkpt lat="45.85947273501544" lon="5.119582282161559"><ele>245.5</ele><time>2026-03-28T13:40:51Z</time></trkpt><trkpt lat="45.85935937561432" lon="5.119226595417397"><ele>245.0</ele><time>2026-03-28T13:40:52Z</time></trkpt><trkpt lat="45.85924610751127" lon="5.118869304144334"><ele>243.0</ele><time>2026-03-28T13:40:53Z</time></trkpt><trkpt lat="45.859127430150664" lon="5.11850806622552"><ele>241.0</ele><time>2026-03-28T13:40:54Z</time></trkpt><trkpt lat="45.85901027666212" lon="5.118149215169647"><ele>240.5</ele><time>2026-03-28T13:40:55Z</time></trkpt><trkpt lat="45.858894943367126" lon="5.117789022882086"><ele>240.0</ele><time>2026-03-28T13:40:56Z</time></trkpt><trkpt lat="45.85877820174636" lon="5.117428456658143"><ele>239.5</ele><time>2026-03-28T13:40:57Z</time></trkpt><trkpt lat="45.85866683123999" lon="5.1170664026332044"><ele>239.0</ele><time>2026-03-28T13:40:58Z</time></trkpt><trkpt lat="45.85855062235412" lon="5.116705232062064"><ele>236.0</ele><time>2026-03-28T13:40:59Z</time></trkpt><trkpt lat="45.85843938977798" lon="5.11634015498142"><ele>233.0</ele><time>2026-03-28T13:41:00Z</time></trkpt><trkpt lat="45.85832672413646" lon="5.115979957978821"><ele>233.5</ele><time>2026-03-28T13:41:01Z</time></trkpt><trkpt lat="45.85821430647764" lon="5.115618690635959"><ele>234.0</ele><time>2026-03-28T13:41:02Z</time></trkpt><trkpt lat="45.85810199224437" lon="5.115255548787814"><ele>233.0</ele><time>2026-03-28T13:41:03Z</time></trkpt><trkpt lat="45.85799408542482" lon="5.114894484045642"><ele>232.0</ele><time>2026-03-28T13:41:04Z</time></trkpt><trkpt lat="45.85788014392226" lon="5.11452693576111"><ele>232.0</ele><time>2026-03-28T13:41:05Z</time></trkpt><trkpt lat="45.85777143040843" lon="5.114167193289418"><ele>232.0</ele><time>2026-03-28T13:41:06Z</time></trkpt><trkpt lat="45.857663934636975" lon="5.113799336597597"><ele>228.5</ele><time>2026-03-28T13:41:07Z</time></trkpt><trkpt lat="45.85755355067577" lon="5.113438112568054"><ele>225.0</ele><time>2026-03-28T13:41:08Z</time></trkpt><trkpt lat="45.85744614263585" lon="5.113075207759515"><ele>225.0</ele><time>2026-03-28T13:41:09Z</time></trkpt><trkpt lat="45.857337409711384" lon="5.112711997814038"><ele>225.0</ele><time>2026-03-28T13:41:10Z</time></trkpt><trkpt lat="45.85723246626355" lon="5.11234798765761"><ele>224.5</ele><time>2026-03-28T13:41:11Z</time></trkpt><trkpt lat="45.85712896760186" lon="5.111985591794067"><ele>224.0</ele><time>2026-03-28T13:41:12Z</time></trkpt><trkpt lat="45.857022945789694" lon="5.111623652032797"><ele>224.0</ele><time>2026-03-28T13:41:13Z</time></trkpt><trkpt lat="45.85692170400088" lon="5.111263215684956"><ele>224.0</ele><time>2026-03-28T13:41:14Z</time></trkpt><trkpt lat="45.85681423476777" lon="5.11090284768518"><ele>221.0</ele><time>2026-03-28T13:41:15Z</time></trkpt><trkpt lat="45.85671227508988" lon="5.110541310575342"><ele>218.0</ele><time>2026-03-28T13:41:16Z</time></trkpt><trkpt lat="45.856607181359664" lon="5.110184029344618"><ele>217.0</ele><time>2026-03-28T13:41:17Z</time></trkpt><trkpt lat="45.85650825242952" lon="5.109824144127527"><ele>216.0</ele><time>2026-03-28T13:41:18Z</time></trkpt><trkpt lat="45.85640822739538" lon="5.109466287143698"><ele>216.0</ele><time>2026-03-28T13:41:19Z</time></trkpt><trkpt lat="45.85630794430765" lon="5.109107343736265"><ele>216.0</ele><time>2026-03-28T13:41:20Z</time></trkpt><trkpt lat="45.85620885679335" lon="5.108746629272872"><ele>216.0</ele><time>2026-03-28T13:41:21Z</time></trkpt><trkpt lat="45.8561046599384" lon="5.108386366386584"><ele>216.0</ele><time>2026-03-28T13:41:22Z</time></trkpt><trkpt lat="45.85600474765344" lon="5.108025607322676"><ele>216.0</ele><time>2026-03-28T13:41:23Z</time></trkpt><trkpt lat="45.85590483668373" lon="5.107665829315518"><ele>216.0</ele><time>2026-03-28T13:41:24Z</time></trkpt><trkpt lat="45.85580465762156" lon="5.1073020702674405"><ele>215.5</ele><time>2026-03-28T13:41:25Z</time></trkpt><trkpt lat="45.8557084186995" lon="5.106943380418199"><ele>215.0</ele><time>2026-03-28T13:41:26Z</time></trkpt><trkpt lat="45.855614252829845" lon="5.106585876245207"><ele>217.0</ele><time>2026-03-28T13:41:27Z</time></trkpt><trkpt lat="45.85552042986783" lon="5.106226004162319"><ele>219.0</ele><time>2026-03-28T13:41:28Z</time></trkpt><trkpt lat="45.85542441089777" lon="5.105868083443738"><ele>217.0</ele><time>2026-03-28T13:41:29Z</time></trkpt><trkpt lat="45.85532873799674" lon="5.1055079258806115"><ele>215.0</ele><time>2026-03-28T13:41:30Z</time></trkpt><trkpt lat="45.85523320837375" lon="5.105148210863185"><ele>214.0</ele><time>2026-03-28T13:41:31Z</time></trkpt><trkpt lat="45.855138478955595" lon="5.104788521168092"><ele>213.0</ele><time>2026-03-28T13:41:32Z</time></trkpt><trkpt lat="45.85504790127606" lon="5.104428001613976"><ele>214.0</ele><time>2026-03-28T13:41:33Z</time></trkpt><trkpt lat="45.85495653784512" lon="5.104067956622099"><ele>215.0</ele><time>2026-03-28T13:41:34Z</time></trkpt><trkpt lat="45.854864577895825" lon="5.103709288703327"><ele>215.0</ele><time>2026-03-28T13:41:35Z</time></trkpt><trkpt lat="45.854769575693" lon="5.103348207493433"><ele>215.0</ele><time>2026-03-28T13:41:36Z</time></trkpt><trkpt lat="45.85467650750073" lon="5.102988417748309"><ele>214.5</ele><time>2026-03-28T13:41:37Z</time></trkpt><trkpt lat="45.85458377689985" lon="5.10262988643425"><ele>214.0</ele><time>2026-03-28T13:41:38Z</time></trkpt><trkpt lat="45.85449224622338" lon="5.102268665128789"><ele>213.5</ele><time>2026-03-28T13:41:39Z</time></trkpt><trkpt lat="45.85439735413286" lon="5.10190728100821"><ele>213.0</ele><time>2026-03-28T13:41:40Z</time></trkpt><trkpt lat="45.85430320363701" lon="5.1015453526276255"><ele>213.5</ele><time>2026-03-28T13:41:41Z</time></trkpt><trkpt lat="45.854207337005455" lon="5.101184046743514"><ele>214.0</ele><time>2026-03-28T13:41:42Z</time></trkpt><trkpt lat="45.85411580439409" lon="5.100823269159807"><ele>213.0</ele><time>2026-03-28T13:41:43Z</time></trkpt><trkpt lat="45.85402433571529" lon="5.100463827324061"><ele>212.0</ele><time>2026-03-28T13:41:44Z</time></trkpt><trkpt lat="45.85393178695099" lon="5.100101044426015"><ele>211.5</ele><time>2026-03-28T13:41:45Z</time></trkpt><trkpt lat="45.853839899843294" lon="5.099738111742692"><ele>211.0</ele><time>2026-03-28T13:41:46Z</time></trkpt><trkpt lat="45.85374842804878" lon="5.09937596227257"><ele>211.5</ele><time>2026-03-28T13:41:47Z</time></trkpt><trkpt lat="45.85365486176343" lon="5.099013587157967"><ele>212.0</ele><time>2026-03-28T13:41:48Z</time></trkpt><trkpt lat="45.85356026854025" lon="5.098647134459976"><ele>212.0</ele><time>2026-03-28T13:41:49Z</time></trkpt><trkpt lat="45.85346694154359" lon="5.0982823303250004"><ele>212.0</ele><time>2026-03-28T13:41:50Z</time></trkpt><trkpt lat="45.85337248425523" lon="5.097914956944256"><ele>212.5</ele><time>2026-03-28T13:41:51Z</time></trkpt><trkpt lat="45.853276998206" lon="5.097547962804356"><ele>213.0</ele><time>2026-03-28T13:41:52Z</time></trkpt><trkpt lat="45.853180804854354" lon="5.097184714738852"><ele>214.5</ele><time>2026-03-28T13:41:53Z</time></trkpt><trkpt lat="45.853083018176974" lon="5.0968185706070255"><ele>216.0</ele><time>2026-03-28T13:41:54Z</time></trkpt><trkpt lat="45.85298535337828" lon="5.096454287264855"><ele>216.5</ele><time>2026-03-28T13:41:55Z</time></trkpt><trkpt lat="45.852888148580234" lon="5.096087831904971"><ele>217.0</ele><time>2026-03-28T13:41:56Z</time></trkpt><trkpt lat="45.85278861839239" lon="5.095716795960807"><ele>219.0</ele><time>2026-03-28T13:41:57Z</time></trkpt><trkpt lat="45.852689208267854" lon="5.095353461302945"><ele>221.0</ele><time>2026-03-28T13:41:58Z</time></trkpt><trkpt lat="45.85258831330152" lon="5.094988154178872"><ele>215.5</ele><time>2026-03-28T13:41:59Z</time></trkpt><trkpt lat="45.852488035654424" lon="5.0946250175568775"><ele>210.0</ele><time>2026-03-28T13:42:00Z</time></trkpt><trkpt lat="45.85238374740689" lon="5.094257803137568"><ele>208.5</ele><time>2026-03-28T13:42:01Z</time></trkpt><trkpt lat="45.8522821904089" lon="5.0938924117017095"><ele>207.0</ele><time>2026-03-28T13:42:02Z</time></trkpt><trkpt lat="45.8521788199305" lon="5.093527844629068"><ele>205.0</ele><time>2026-03-28T13:42:03Z</time></trkpt><trkpt lat="45.85207331108753" lon="5.09316228145291"><ele>203.0</ele><time>2026-03-28T13:42:04Z</time></trkpt><trkpt lat="45.85196645343867" lon="5.09279916826432"><ele>203.0</ele><time>2026-03-28T13:42:05Z</time></trkpt><trkpt lat="45.851859323324526" lon="5.092440702192578"><ele>203.0</ele><time>2026-03-28T13:42:06Z</time></trkpt><trkpt lat="45.85174963283398" lon="5.09208244359464"><ele>203.0</ele><time>2026-03-28T13:42:07Z</time></trkpt><trkpt lat="45.851640938727044" lon="5.091727174375437"><ele>203.0</ele><time>2026-03-28T13:42:08Z</time></trkpt><trkpt lat="45.85152735721503" lon="5.091371309606449"><ele>203.0</ele><time>2026-03-28T13:42:09Z</time></trkpt><trkpt lat="45.851417879255536" lon="5.0910215082053565"><ele>203.0</ele><time>2026-03-28T13:42:10Z</time></trkpt><trkpt lat="45.851301636470815" lon="5.09067088801633"><ele>202.5</ele><time>2026-03-28T13:42:11Z</time></trkpt><trkpt lat="45.85118768459405" lon="5.090323732014847"><ele>202.0</ele><time>2026-03-28T13:42:12Z</time></trkpt><trkpt lat="45.85106949551526" lon="5.089975044047292"><ele>202.0</ele><time>2026-03-28T13:42:13Z</time></trkpt><trkpt lat="45.85094796365504" lon="5.08962548970323"><ele>202.0</ele><time>2026-03-28T13:42:14Z</time></trkpt><trkpt lat="45.850828750300806" lon="5.0892778541775785"><ele>202.5</ele><time>2026-03-28T13:42:15Z</time></trkpt><trkpt lat="45.85071135678435" lon="5.088934584771086"><ele>203.0</ele><time>2026-03-28T13:42:16Z</time></trkpt><trkpt lat="45.850587712784616" lon="5.088591627604678"><ele>202.0</ele><time>2026-03-28T13:42:17Z</time></trkpt><trkpt lat="45.85046015445863" lon="5.088250869136748"><ele>201.0</ele><time>2026-03-28T13:42:18Z</time></trkpt><trkpt lat="45.85033460784472" lon="5.087912261838854"><ele>201.0</ele><time>2026-03-28T13:42:19Z</time></trkpt><trkpt lat="45.850204426025776" lon="5.08757147690619"><ele>201.0</ele><time>2026-03-28T13:42:20Z</time></trkpt><trkpt lat="45.85007395844654" lon="5.0872324296928815"><ele>201.0</ele><time>2026-03-28T13:42:21Z</time></trkpt><trkpt lat="45.849946290680776" lon="5.086893952212047"><ele>201.0</ele><time>2026-03-28T13:42:22Z</time></trkpt><trkpt lat="45.849819084778424" lon="5.086555690161991"><ele>201.0</ele><time>2026-03-28T13:42:23Z</time></trkpt><trkpt lat="45.84969079153362" lon="5.086219350677947"><ele>201.0</ele><time>2026-03-28T13:42:24Z</time></trkpt><trkpt lat="45.849559104838924" lon="5.0858811075735"><ele>200.0</ele><time>2026-03-28T13:42:25Z</time></trkpt><trkpt lat="45.849427934472395" lon="5.085542800595002"><ele>199.0</ele><time>2026-03-28T13:42:26Z</time></trkpt><trkpt lat="45.849293911506685" lon="5.085203488010673"><ele>199.5</ele><time>2026-03-28T13:42:27Z</time></trkpt><trkpt lat="45.84915904147824" lon="5.0848658420616655"><ele>200.0</ele><time>2026-03-28T13:42:28Z</time></trkpt><trkpt lat="45.84902916602843" lon="5.084529922733279"><ele>200.0</ele><time>2026-03-28T13:42:29Z</time></trkpt><trkpt lat="45.84889547623828" lon="5.084197000082961"><ele>200.0</ele><time>2026-03-28T13:42:30Z</time></trkpt><trkpt lat="45.848758837637654" lon="5.083857942013367"><ele>199.0</ele><time>2026-03-28T13:42:31Z</time></trkpt><trkpt lat="45.84862306189605" lon="5.083521218529549"><ele>198.0</ele><time>2026-03-28T13:42:32Z</time></trkpt><trkpt lat="45.84848840778162" lon="5.083183809023597"><ele>198.5</ele><time>2026-03-28T13:42:33Z</time></trkpt><trkpt lat="45.84835133212753" lon="5.08284192878205"><ele>199.0</ele><time>2026-03-28T13:42:34Z</time></trkpt><trkpt lat="45.84821376754361" lon="5.082501304029129"><ele>198.0</ele><time>2026-03-28T13:42:35Z</time></trkpt><trkpt lat="45.848075830317676" lon="5.08216147904189"><ele>197.0</ele><time>2026-03-28T13:42:36Z</time></trkpt><trkpt lat="45.84794295312409" lon="5.081819897113226"><ele>196.5</ele><time>2026-03-28T13:42:37Z</time></trkpt><trkpt lat="45.84781013876933" lon="5.08147598245971"><ele>196.0</ele><time>2026-03-28T13:42:38Z</time></trkpt><trkpt lat="45.84767745617273" lon="5.08113298078608"><ele>196.5</ele><time>2026-03-28T13:42:39Z</time></trkpt><trkpt lat="45.847542904344415" lon="5.080787624758769"><ele>197.0</ele><time>2026-03-28T13:42:40Z</time></trkpt><trkpt lat="45.84741044016972" lon="5.080437864068809"><ele>197.0</ele><time>2026-03-28T13:42:41Z</time></trkpt><trkpt lat="45.847277781346975" lon="5.080092817442494"><ele>197.0</ele><time>2026-03-28T13:42:42Z</time></trkpt><trkpt lat="45.84714819698436" lon="5.079745834940892"><ele>196.5</ele><time>2026-03-28T13:42:43Z</time></trkpt><trkpt lat="45.847016510888636" lon="5.079398055556308"><ele>196.0</ele><time>2026-03-28T13:42:44Z</time></trkpt><trkpt lat="45.846887785121254" lon="5.079049367776363"><ele>195.0</ele><time>2026-03-28T13:42:45Z</time></trkpt><trkpt lat="45.84675949095038" lon="5.078699789959312"><ele>194.0</ele><time>2026-03-28T13:42:46Z</time></trkpt><trkpt lat="45.84663250825611" lon="5.078349371482267"><ele>194.5</ele><time>2026-03-28T13:42:47Z</time></trkpt><trkpt lat="45.84651013360503" lon="5.078001260618024"><ele>195.0</ele><time>2026-03-28T13:42:48Z</time></trkpt><trkpt lat="45.84638975506112" lon="5.077649528446807"><ele>195.0</ele><time>2026-03-28T13:42:49Z</time></trkpt><trkpt lat="45.84626912390451" lon="5.07729623290189"><ele>195.0</ele><time>2026-03-28T13:42:50Z</time></trkpt><trkpt lat="45.8461536551711" lon="5.076943171343999"><ele>195.0</ele><time>2026-03-28T13:42:51Z</time></trkpt><trkpt lat="45.846035510543494" lon="5.0765872707424124"><ele>195.0</ele><time>2026-03-28T13:42:52Z</time></trkpt><trkpt lat="45.84592118529579" lon="5.076230962818795"><ele>195.0</ele><time>2026-03-28T13:42:53Z</time></trkpt><trkpt lat="45.84580596680226" lon="5.0758760876494255"><ele>195.0</ele><time>2026-03-28T13:42:54Z</time></trkpt><trkpt lat="45.84569513183498" lon="5.075522127289154"><ele>194.0</ele><time>2026-03-28T13:42:55Z</time></trkpt><trkpt lat="45.84558920678234" lon="5.075168143264379"><ele>193.0</ele><time>2026-03-28T13:42:56Z</time></trkpt><trkpt lat="45.84548292533679" lon="5.07481407984622"><ele>193.0</ele><time>2026-03-28T13:42:57Z</time></trkpt><trkpt lat="45.8453781230765" lon="5.074459554066089"><ele>193.0</ele><time>2026-03-28T13:42:58Z</time></trkpt><trkpt lat="45.845275419651166" lon="5.074103783782846"><ele>193.5</ele><time>2026-03-28T13:42:59Z</time></trkpt><trkpt lat="45.84517245395315" lon="5.073747221876122"><ele>194.0</ele><time>2026-03-28T13:43:00Z</time></trkpt><trkpt lat="45.84507028716724" lon="5.073392290412492"><ele>195.5</ele><time>2026-03-28T13:43:01Z</time></trkpt><trkpt lat="45.84497158939762" lon="5.073036080559614"><ele>197.0</ele><time>2026-03-28T13:43:02Z</time></trkpt><trkpt lat="45.844872369533945" lon="5.072682868979029"><ele>197.0</ele><time>2026-03-28T13:43:03Z</time></trkpt><trkpt lat="45.844775720857996" lon="5.072323252638449"><ele>197.0</ele><time>2026-03-28T13:43:04Z</time></trkpt><trkpt lat="45.84468136605286" lon="5.071961403401158"><ele>196.5</ele><time>2026-03-28T13:43:05Z</time></trkpt><trkpt lat="45.84458419683496" lon="5.071599106196693"><ele>196.0</ele><time>2026-03-28T13:43:06Z</time></trkpt><trkpt lat="45.84449101881898" lon="5.07123632102098"><ele>196.0</ele><time>2026-03-28T13:43:07Z</time></trkpt><trkpt lat="45.84439975656282" lon="5.070874922551281"><ele>196.0</ele><time>2026-03-28T13:43:08Z</time></trkpt><trkpt lat="45.84430441573989" lon="5.0705101287505565"><ele>196.0</ele><time>2026-03-28T13:43:09Z</time></trkpt><trkpt lat="45.84421598075813" lon="5.070148367425825"><ele>196.0</ele><time>2026-03-28T13:43:10Z</time></trkpt><trkpt lat="45.844127655945535" lon="5.069781981380939"><ele>195.0</ele><time>2026-03-28T13:43:11Z</time></trkpt><trkpt lat="45.84404302371221" lon="5.0694138644524065"><ele>194.0</ele><time>2026-03-28T13:43:12Z</time></trkpt><trkpt lat="45.84395626344748" lon="5.069046957060666"><ele>193.5</ele><time>2026-03-28T13:43:13Z</time></trkpt><trkpt lat="45.843870237836704" lon="5.068680208275563"><ele>193.0</ele><time>2026-03-28T13:43:14Z</time></trkpt><trkpt lat="45.84378747080581" lon="5.0683104753857835"><ele>193.0</ele><time>2026-03-28T13:43:15Z</time></trkpt><trkpt lat="45.84370303080978" lon="5.067940213115077"><ele>193.0</ele><time>2026-03-28T13:43:16Z</time></trkpt><trkpt lat="45.843620888989435" lon="5.067569329586106"><ele>193.0</ele><time>2026-03-28T13:43:17Z</time></trkpt><trkpt lat="45.84353921324848" lon="5.067198515514668"><ele>193.0</ele><time>2026-03-28T13:43:18Z</time></trkpt><trkpt lat="45.843457088200694" lon="5.066825948519028"><ele>194.0</ele><time>2026-03-28T13:43:19Z</time></trkpt><trkpt lat="45.84337867632" lon="5.066453990107956"><ele>195.0</ele><time>2026-03-28T13:43:20Z</time></trkpt><trkpt lat="45.84330231721195" lon="5.0660778631534145"><ele>194.0</ele><time>2026-03-28T13:43:21Z</time></trkpt><trkpt lat="45.843223509182735" lon="5.065705739428526"><ele>193.0</ele><time>2026-03-28T13:43:22Z</time></trkpt><trkpt lat="45.843149909337505" lon="5.065327279869604"><ele>193.0</ele><time>2026-03-28T13:43:23Z</time></trkpt><trkpt lat="45.84307309346527" lon="5.064952397695528"><ele>193.0</ele><time>2026-03-28T13:43:24Z</time></trkpt><trkpt lat="45.842998084851615" lon="5.0645779529027735"><ele>193.5</ele><time>2026-03-28T13:43:25Z</time></trkpt><trkpt lat="45.84292149847193" lon="5.0642048247195754"><ele>194.0</ele><time>2026-03-28T13:43:26Z</time></trkpt><trkpt lat="45.84284729989995" lon="5.0638318378763945"><ele>194.0</ele><time>2026-03-28T13:43:27Z</time></trkpt><trkpt lat="45.84276888056533" lon="5.063456211125437"><ele>194.0</ele><time>2026-03-28T13:43:28Z</time></trkpt><trkpt lat="45.84269364215079" lon="5.063080289816017"><ele>193.5</ele><time>2026-03-28T13:43:29Z</time></trkpt><trkpt lat="45.84261964274339" lon="5.062707166584994"><ele>193.0</ele><time>2026-03-28T13:43:30Z</time></trkpt><trkpt lat="45.84254597600419" lon="5.062331403416709"><ele>192.5</ele><time>2026-03-28T13:43:31Z</time></trkpt><trkpt lat="45.84247159981215" lon="5.061955417000127"><ele>192.0</ele><time>2026-03-28T13:43:32Z</time></trkpt><trkpt lat="45.84239835809426" lon="5.061583209647852"><ele>193.0</ele><time>2026-03-28T13:43:33Z</time></trkpt><trkpt lat="45.842327547875094" lon="5.061208669263449"><ele>194.0</ele><time>2026-03-28T13:43:34Z</time></trkpt><trkpt lat="45.842253059625335" lon="5.060833768597878"><ele>194.0</ele><time>2026-03-28T13:43:35Z</time></trkpt><trkpt lat="45.84218092904182" lon="5.060459789791057"><ele>194.0</ele><time>2026-03-28T13:43:36Z</time></trkpt><trkpt lat="45.84210988952755" lon="5.060085323289701"><ele>193.5</ele><time>2026-03-28T13:43:37Z</time></trkpt><trkpt lat="45.84203671438172" lon="5.059708796726496"><ele>193.0</ele><time>2026-03-28T13:43:38Z</time></trkpt><trkpt lat="45.84196069978036" lon="5.059329782663829"><ele>193.0</ele><time>2026-03-28T13:43:39Z</time></trkpt><trkpt lat="45.841890557913395" lon="5.058955208280129"><ele>193.0</ele><time>2026-03-28T13:43:40Z</time></trkpt><trkpt lat="45.841819643836615" lon="5.058580874502981"><ele>193.5</ele><time>2026-03-28T13:43:41Z</time></trkpt><trkpt lat="45.8417498474163" lon="5.058206079729346"><ele>194.0</ele><time>2026-03-28T13:43:42Z</time></trkpt><trkpt lat="45.841677207230475" lon="5.057830787309914"><ele>194.0</ele><time>2026-03-28T13:43:43Z</time></trkpt><trkpt lat="45.84160311195061" lon="5.057454270677298"><ele>194.0</ele><time>2026-03-28T13:43:44Z</time></trkpt><trkpt lat="45.84153400583073" lon="5.057080342087431"><ele>193.5</ele><time>2026-03-28T13:43:45Z</time></trkpt><trkpt lat="45.841463541121435" lon="5.056705458084562"><ele>193.0</ele><time>2026-03-28T13:43:46Z</time></trkpt><trkpt lat="45.84138993289167" lon="5.05633365997663"><ele>194.0</ele><time>2026-03-28T13:43:47Z</time></trkpt><trkpt lat="45.841319379947215" lon="5.055963877991029"><ele>195.0</ele><time>2026-03-28T13:43:48Z</time></trkpt><trkpt lat="45.84124932765706" lon="5.055597794427558"><ele>195.0</ele><time>2026-03-28T13:43:49Z</time></trkpt><trkpt lat="45.84117814686664" lon="5.055233982445052"><ele>195.0</ele><time>2026-03-28T13:43:50Z</time></trkpt><trkpt lat="45.84110493282247" lon="5.054869627411903"><ele>194.5</ele><time>2026-03-28T13:43:51Z</time></trkpt><trkpt lat="45.841029536619715" lon="5.054506397364016"><ele>194.0</ele><time>2026-03-28T13:43:52Z</time></trkpt><trkpt lat="45.8409545677554" lon="5.054145991253244"><ele>193.0</ele><time>2026-03-28T13:43:53Z</time></trkpt><trkpt lat="45.840878649657355" lon="5.053784076729846"><ele>192.0</ele><time>2026-03-28T13:43:54Z</time></trkpt><trkpt lat="45.84080630715064" lon="5.0534235560188945"><ele>192.0</ele><time>2026-03-28T13:43:55Z</time></trkpt><trkpt lat="45.84073298947563" lon="5.053059280528478"><ele>192.0</ele><time>2026-03-28T13:43:56Z</time></trkpt><trkpt lat="45.84066194927157" lon="5.052700091326315"><ele>191.0</ele><time>2026-03-28T13:43:57Z</time></trkpt><trkpt lat="45.840590642247136" lon="5.052336994734123"><ele>190.0</ele><time>2026-03-28T13:43:58Z</time></trkpt><trkpt lat="45.840518407788196" lon="5.051975708944508"><ele>189.5</ele><time>2026-03-28T13:43:59Z</time></trkpt><trkpt lat="45.84044394441252" lon="5.051614196043561"><ele>189.0</ele><time>2026-03-28T13:44:00Z</time></trkpt><trkpt lat="45.84036988136489" lon="5.051251657832541"><ele>189.0</ele><time>2026-03-28T13:44:01Z</time></trkpt><trkpt lat="45.84029423810639" lon="5.050887239886367"><ele>189.0</ele><time>2026-03-28T13:44:02Z</time></trkpt><trkpt lat="45.84022197706971" lon="5.050527370664124"><ele>189.0</ele><time>2026-03-28T13:44:03Z</time></trkpt><trkpt lat="45.84014761415687" lon="5.050169673197143"><ele>189.0</ele><time>2026-03-28T13:44:04Z</time></trkpt><trkpt lat="45.84007214029317" lon="5.049810001970121"><ele>187.0</ele><time>2026-03-28T13:44:05Z</time></trkpt><trkpt lat="45.83999446073788" lon="5.049452574402679"><ele>185.0</ele><time>2026-03-28T13:44:06Z</time></trkpt><trkpt lat="45.83991971382995" lon="5.0490963891275795"><ele>185.0</ele><time>2026-03-28T13:44:07Z</time></trkpt><trkpt lat="45.839842880661095" lon="5.048736789739035"><ele>185.0</ele><time>2026-03-28T13:44:08Z</time></trkpt><trkpt lat="45.839766208801144" lon="5.048378241740161"><ele>186.5</ele><time>2026-03-28T13:44:09Z</time></trkpt><trkpt lat="45.839690938195254" lon="5.048019906427752"><ele>188.0</ele><time>2026-03-28T13:44:10Z</time></trkpt><trkpt lat="45.83961638804774" lon="5.047663981203002"><ele>189.0</ele><time>2026-03-28T13:44:11Z</time></trkpt><trkpt lat="45.83954192094005" lon="5.047304019411255"><ele>190.0</ele><time>2026-03-28T13:44:12Z</time></trkpt><trkpt lat="45.839465393375264" lon="5.046943356005099"><ele>189.0</ele><time>2026-03-28T13:44:13Z</time></trkpt><trkpt lat="45.839388534892954" lon="5.046588554094684"><ele>188.0</ele><time>2026-03-28T13:44:14Z</time></trkpt><trkpt lat="45.839303616924504" lon="5.046232542321228"><ele>186.5</ele><time>2026-03-28T13:44:15Z</time></trkpt><trkpt lat="45.839218907852526" lon="5.045879157383772"><ele>185.0</ele><time>2026-03-28T13:44:16Z</time></trkpt><trkpt lat="45.83913377483069" lon="5.045529035339987"><ele>184.0</ele><time>2026-03-28T13:44:17Z</time></trkpt><trkpt lat="45.83904413720285" lon="5.0451783276613975"><ele>183.0</ele><time>2026-03-28T13:44:18Z</time></trkpt><trkpt lat="45.83895514816371" lon="5.0448310949459225"><ele>182.5</ele><time>2026-03-28T13:44:19Z</time></trkpt><trkpt lat="45.8388594700042" lon="5.04449601081048"><ele>182.0</ele><time>2026-03-28T13:44:20Z</time></trkpt><trkpt lat="45.838766056636686" lon="5.044152039630664"><ele>182.0</ele><time>2026-03-28T13:44:21Z</time></trkpt><trkpt lat="45.83867281530727" lon="5.04380771658917"><ele>182.0</ele><time>2026-03-28T13:44:22Z</time></trkpt><trkpt lat="45.83857654544993" lon="5.043463790218545"><ele>182.0</ele><time>2026-03-28T13:44:23Z</time></trkpt><trkpt lat="45.83847708979883" lon="5.043118890479861"><ele>182.0</ele><time>2026-03-28T13:44:24Z</time></trkpt><trkpt lat="45.83838132097376" lon="5.042776370047246"><ele>181.0</ele><time>2026-03-28T13:44:25Z</time></trkpt><trkpt lat="45.83828451257807" lon="5.042435637608582"><ele>180.0</ele><time>2026-03-28T13:44:26Z</time></trkpt><trkpt lat="45.838186908874114" lon="5.042097053579561"><ele>180.0</ele><time>2026-03-28T13:44:27Z</time></trkpt><trkpt lat="45.83808576921986" lon="5.04176035587553"><ele>180.0</ele><time>2026-03-28T13:44:28Z</time></trkpt><trkpt lat="45.83798257850479" lon="5.041421383971992"><ele>180.5</ele><time>2026-03-28T13:44:29Z</time></trkpt><trkpt lat="45.83787735551628" lon="5.041084997758191"><ele>181.0</ele><time>2026-03-28T13:44:30Z</time></trkpt><trkpt lat="45.837769938252386" lon="5.04075054988578"><ele>181.0</ele><time>2026-03-28T13:44:31Z</time></trkpt><trkpt lat="45.83766325550455" lon="5.040413206841758"><ele>181.0</ele><time>2026-03-28T13:44:32Z</time></trkpt><trkpt lat="45.83755656658096" lon="5.040080167284992"><ele>181.5</ele><time>2026-03-28T13:44:33Z</time></trkpt><trkpt lat="45.83744732474758" lon="5.039746266702159"><ele>182.0</ele><time>2026-03-28T13:44:34Z</time></trkpt><trkpt lat="45.837337499151076" lon="5.039411065487661"><ele>182.5</ele><time>2026-03-28T13:44:35Z</time></trkpt><trkpt lat="45.837225494316804" lon="5.039075210808484"><ele>183.0</ele><time>2026-03-28T13:44:36Z</time></trkpt><trkpt lat="45.83711087397834" lon="5.038741786143701"><ele>183.0</ele><time>2026-03-28T13:44:37Z</time></trkpt><trkpt lat="45.8369966393704" lon="5.038406484202758"><ele>183.0</ele><time>2026-03-28T13:44:38Z</time></trkpt><trkpt lat="45.83688152945166" lon="5.038075732352551"><ele>183.0</ele><time>2026-03-28T13:44:39Z</time></trkpt><trkpt lat="45.83676262326164" lon="5.037742263908831"><ele>183.0</ele><time>2026-03-28T13:44:40Z</time></trkpt><trkpt lat="45.83664458731566" lon="5.03741317075513"><ele>182.0</ele><time>2026-03-28T13:44:41Z</time></trkpt><trkpt lat="45.836526459565896" lon="5.037085573307666"><ele>181.0</ele><time>2026-03-28T13:44:42Z</time></trkpt><trkpt lat="45.836403875377066" lon="5.036757255369253"><ele>180.5</ele><time>2026-03-28T13:44:43Z</time></trkpt><trkpt lat="45.83628116379428" lon="5.03643101442028"><ele>180.0</ele><time>2026-03-28T13:44:44Z</time></trkpt><trkpt lat="45.83615414000901" lon="5.036102832125103"><ele>180.5</ele><time>2026-03-28T13:44:45Z</time></trkpt><trkpt lat="45.8360264656512" lon="5.035778560075601"><ele>181.0</ele><time>2026-03-28T13:44:46Z</time></trkpt><trkpt lat="45.83589779993686" lon="5.035453738026324"><ele>181.0</ele><time>2026-03-28T13:44:47Z</time></trkpt><trkpt lat="45.835769313814474" lon="5.035133729627994"><ele>181.0</ele><time>2026-03-28T13:44:48Z</time></trkpt><trkpt lat="45.835643242614445" lon="5.0348140884080195"><ele>181.0</ele><time>2026-03-28T13:44:49Z</time></trkpt><trkpt lat="45.83551133581391" lon="5.034491625929297"><ele>181.0</ele><time>2026-03-28T13:44:50Z</time></trkpt><trkpt lat="45.83537958113764" lon="5.034171939388735"><ele>181.0</ele><time>2026-03-28T13:44:51Z</time></trkpt><trkpt lat="45.835245314456" lon="5.033850048517257"><ele>181.0</ele><time>2026-03-28T13:44:52Z</time></trkpt><trkpt lat="45.83511143785378" lon="5.033529759412837"><ele>180.5</ele><time>2026-03-28T13:44:53Z</time></trkpt><trkpt lat="45.834975598207464" lon="5.033214381675589"><ele>180.0</ele><time>2026-03-28T13:44:54Z</time></trkpt><trkpt lat="45.834835511881046" lon="5.0328991724168555"><ele>180.0</ele><time>2026-03-28T13:44:55Z</time></trkpt><trkpt lat="45.83469903717346" lon="5.032588838309392"><ele>180.0</ele><time>2026-03-28T13:44:56Z</time></trkpt><trkpt lat="45.83456098992219" lon="5.032276979097537"><ele>180.0</ele><time>2026-03-28T13:44:57Z</time></trkpt><trkpt lat="45.83442822737424" lon="5.031971203947976"><ele>180.0</ele><time>2026-03-28T13:44:58Z</time></trkpt><trkpt lat="45.83429333167856" lon="5.0316674099752134"><ele>181.0</ele><time>2026-03-28T13:44:59Z</time></trkpt><trkpt lat="45.83415487295052" lon="5.031361234920272"><ele>182.0</ele><time>2026-03-28T13:45:00Z</time></trkpt><trkpt lat="45.834019063986815" lon="5.031060475996733"><ele>181.0</ele><time>2026-03-28T13:45:01Z</time></trkpt><trkpt lat="45.83388274401922" lon="5.03075952070129"><ele>180.0</ele><time>2026-03-28T13:45:02Z</time></trkpt><trkpt lat="45.8337432788883" lon="5.030458439291987"><ele>180.0</ele><time>2026-03-28T13:45:03Z</time></trkpt><trkpt lat="45.833605563282404" lon="5.030159550178032"><ele>180.0</ele><time>2026-03-28T13:45:04Z</time></trkpt><trkpt lat="45.83346841889055" lon="5.029860358732482"><ele>183.0</ele><time>2026-03-28T13:45:05Z</time></trkpt><trkpt lat="45.83333568767747" lon="5.029564020855071"><ele>186.0</ele><time>2026-03-28T13:45:06Z</time></trkpt><trkpt lat="45.833195001672" lon="5.02926872195032"><ele>185.0</ele><time>2026-03-28T13:45:07Z</time></trkpt><trkpt lat="45.833053978153366" lon="5.02897131083964"><ele>184.0</ele><time>2026-03-28T13:45:08Z</time></trkpt><trkpt lat="45.832912385767855" lon="5.028675000661895"><ele>184.0</ele><time>2026-03-28T13:45:09Z</time></trkpt><trkpt lat="45.832774393091064" lon="5.028379849997752"><ele>184.0</ele><time>2026-03-28T13:45:10Z</time></trkpt><trkpt lat="45.83263550010209" lon="5.028082616240935"><ele>183.5</ele><time>2026-03-28T13:45:11Z</time></trkpt><trkpt lat="45.832494038989296" lon="5.0277805877287385"><ele>183.0</ele><time>2026-03-28T13:45:12Z</time></trkpt><trkpt lat="45.832349123549335" lon="5.027477867124473"><ele>183.0</ele><time>2026-03-28T13:45:13Z</time></trkpt><trkpt lat="45.83220742416311" lon="5.027175000768034"><ele>183.0</ele><time>2026-03-28T13:45:14Z</time></trkpt><trkpt lat="45.832062835017126" lon="5.026869440830971"><ele>182.5</ele><time>2026-03-28T13:45:15Z</time></trkpt><trkpt lat="45.83191300957468" lon="5.026563256444603"><ele>182.0</ele><time>2026-03-28T13:45:16Z</time></trkpt><trkpt lat="45.8317664157345" lon="5.026261861841111"><ele>182.0</ele><time>2026-03-28T13:45:17Z</time></trkpt><trkpt lat="45.83162393691148" lon="5.025953834262739"><ele>182.0</ele><time>2026-03-28T13:45:18Z</time></trkpt><trkpt lat="45.83147924574024" lon="5.025643760936181"><ele>180.5</ele><time>2026-03-28T13:45:19Z</time></trkpt><trkpt lat="45.83133150062674" lon="5.025333383628411"><ele>179.0</ele><time>2026-03-28T13:45:20Z</time></trkpt><trkpt lat="45.83118587683341" lon="5.025027435301918"><ele>180.5</ele><time>2026-03-28T13:45:21Z</time></trkpt><trkpt lat="45.831041194760715" lon="5.024726404751189"><ele>182.0</ele><time>2026-03-28T13:45:22Z</time></trkpt><trkpt lat="45.83089325292662" lon="5.024426870654358"><ele>181.0</ele><time>2026-03-28T13:45:23Z</time></trkpt><trkpt lat="45.830745156061596" lon="5.024121507330757"><ele>180.0</ele><time>2026-03-28T13:45:24Z</time></trkpt><trkpt lat="45.83059243044688" lon="5.023817373289921"><ele>180.0</ele><time>2026-03-28T13:45:25Z</time></trkpt><trkpt lat="45.830441961346395" lon="5.023512388425755"><ele>180.0</ele><time>2026-03-28T13:45:26Z</time></trkpt><trkpt lat="45.83029629681094" lon="5.023210654339373"><ele>180.0</ele><time>2026-03-28T13:45:27Z</time></trkpt><trkpt lat="45.830156419070704" lon="5.022914345002866"><ele>180.0</ele><time>2026-03-28T13:45:28Z</time></trkpt><trkpt lat="45.83001406090634" lon="5.022624267258475"><ele>180.0</ele><time>2026-03-28T13:45:29Z</time></trkpt><trkpt lat="45.8298744154783" lon="5.022339389923416"><ele>180.0</ele><time>2026-03-28T13:45:30Z</time></trkpt><trkpt lat="45.82974075943568" lon="5.022056915707683"><ele>180.0</ele><time>2026-03-28T13:45:31Z</time></trkpt><trkpt lat="45.82960846359584" lon="5.021771511261255"><ele>180.0</ele><time>2026-03-28T13:45:32Z</time></trkpt><trkpt lat="45.82947446383827" lon="5.021483927568452"><ele>180.0</ele><time>2026-03-28T13:45:33Z</time></trkpt><trkpt lat="45.8293426452255" lon="5.021197623703071"><ele>180.0</ele><time>2026-03-28T13:45:34Z</time></trkpt><trkpt lat="45.82920907955569" lon="5.020906911885318"><ele>180.0</ele><time>2026-03-28T13:45:35Z</time></trkpt><trkpt lat="45.829075980623905" lon="5.020612233051728"><ele>180.0</ele><time>2026-03-28T13:45:36Z</time></trkpt><trkpt lat="45.82894540984055" lon="5.020317030401363"><ele>180.0</ele><time>2026-03-28T13:45:37Z</time></trkpt><trkpt lat="45.82881745751605" lon="5.020023014204294"><ele>180.0</ele><time>2026-03-28T13:45:38Z</time></trkpt><trkpt lat="45.82868254938776" lon="5.019724232741267"><ele>180.0</ele><time>2026-03-28T13:45:39Z</time></trkpt><trkpt lat="45.828552255346416" lon="5.019423328959219"><ele>180.0</ele><time>2026-03-28T13:45:40Z</time></trkpt><trkpt lat="45.828424184148844" lon="5.019120815533591"><ele>180.5</ele><time>2026-03-28T13:45:41Z</time></trkpt><trkpt lat="45.82829533220918" lon="5.018812331478839"><ele>181.0</ele><time>2026-03-28T13:45:42Z</time></trkpt><trkpt lat="45.82816561183525" lon="5.018502864167757"><ele>180.0</ele><time>2026-03-28T13:45:43Z</time></trkpt><trkpt lat="45.82803797197507" lon="5.01818814566186"><ele>179.0</ele><time>2026-03-28T13:45:44Z</time></trkpt><trkpt lat="45.827911614511464" lon="5.017875124071985"><ele>179.0</ele><time>2026-03-28T13:45:45Z</time></trkpt><trkpt lat="45.82778855964554" lon="5.017556599290682"><ele>179.0</ele><time>2026-03-28T13:45:46Z</time></trkpt><trkpt lat="45.827663074607564" lon="5.017235614398867"><ele>179.0</ele><time>2026-03-28T13:45:47Z</time></trkpt><trkpt lat="45.82754280546078" lon="5.016910529988599"><ele>179.0</ele><time>2026-03-28T13:45:48Z</time></trkpt><trkpt lat="45.82742702057623" lon="5.016584893394551"><ele>178.5</ele><time>2026-03-28T13:45:49Z</time></trkpt><trkpt lat="45.82731813124959" lon="5.0162579824790985"><ele>178.0</ele><time>2026-03-28T13:45:50Z</time></trkpt><trkpt lat="45.82720885282334" lon="5.015929361134098"><ele>178.0</ele><time>2026-03-28T13:45:51Z</time></trkpt><trkpt lat="45.82709572674615" lon="5.015595126594852"><ele>178.0</ele><time>2026-03-28T13:45:52Z</time></trkpt><trkpt lat="45.826983497835485" lon="5.015265621289159"><ele>177.5</ele><time>2026-03-28T13:45:53Z</time></trkpt><trkpt lat="45.82687370599972" lon="5.014933630338918"><ele>177.0</ele><time>2026-03-28T13:45:54Z</time></trkpt><trkpt lat="45.8267656990076" lon="5.014601418649797"><ele>178.0</ele><time>2026-03-28T13:45:55Z</time></trkpt><trkpt lat="45.826661015010124" lon="5.014261787815291"><ele>179.0</ele><time>2026-03-28T13:45:56Z</time></trkpt><trkpt lat="45.82655676293788" lon="5.0139186082491465"><ele>179.0</ele><time>2026-03-28T13:45:57Z</time></trkpt><trkpt lat="45.82646162554959" lon="5.01357576972513"><ele>179.0</ele><time>2026-03-28T13:45:58Z</time></trkpt><trkpt lat="45.82636189081119" lon="5.013233250973533"><ele>179.0</ele><time>2026-03-28T13:45:59Z</time></trkpt><trkpt lat="45.826268030052596" lon="5.012885668238214"><ele>179.0</ele><time>2026-03-28T13:46:00Z</time></trkpt><trkpt lat="45.82616879776619" lon="5.012545032653502"><ele>178.0</ele><time>2026-03-28T13:46:01Z</time></trkpt><trkpt lat="45.82607426676857" lon="5.012200520903619"><ele>177.0</ele><time>2026-03-28T13:46:02Z</time></trkpt><trkpt lat="45.8259828506212" lon="5.011853745102935"><ele>177.5</ele><time>2026-03-28T13:46:03Z</time></trkpt><trkpt lat="45.82589203793849" lon="5.011506058895431"><ele>178.0</ele><time>2026-03-28T13:46:04Z</time></trkpt><trkpt lat="45.82580432461932" lon="5.011160296049621"><ele>178.0</ele><time>2026-03-28T13:46:05Z</time></trkpt><trkpt lat="45.82571824646965" lon="5.010810471479554"><ele>178.0</ele><time>2026-03-28T13:46:06Z</time></trkpt><trkpt lat="45.82562959688568" lon="5.010462729848367"><ele>178.0</ele><time>2026-03-28T13:46:07Z</time></trkpt><trkpt lat="45.82554212498963" lon="5.010113385308248"><ele>178.0</ele><time>2026-03-28T13:46:08Z</time></trkpt><trkpt lat="45.82545571773859" lon="5.009763072845602"><ele>178.0</ele><time>2026-03-28T13:46:09Z</time></trkpt><trkpt lat="45.82537084142085" lon="5.009413110649196"><ele>178.0</ele><time>2026-03-28T13:46:10Z</time></trkpt><trkpt lat="45.8252865789348" lon="5.009062882280448"><ele>178.0</ele><time>2026-03-28T13:46:11Z</time></trkpt><trkpt lat="45.82520376501502" lon="5.008712229883995"><ele>178.0</ele><time>2026-03-28T13:46:12Z</time></trkpt><trkpt lat="45.82512121816797" lon="5.00836309235041"><ele>178.5</ele><time>2026-03-28T13:46:13Z</time></trkpt><trkpt lat="45.82503795078677" lon="5.008013682503301"><ele>179.0</ele><time>2026-03-28T13:46:14Z</time></trkpt><trkpt lat="45.824950127296894" lon="5.007660351665577"><ele>178.0</ele><time>2026-03-28T13:46:15Z</time></trkpt><trkpt lat="45.82486854011574" lon="5.007313030923448"><ele>177.0</ele><time>2026-03-28T13:46:16Z</time></trkpt><trkpt lat="45.82478411493637" lon="5.0069630311332025"><ele>177.0</ele><time>2026-03-28T13:46:17Z</time></trkpt><trkpt lat="45.8246985518393" lon="5.006612657141039"><ele>177.0</ele><time>2026-03-28T13:46:18Z</time></trkpt><trkpt lat="45.82461442931219" lon="5.006262469177222"><ele>177.0</ele><time>2026-03-28T13:46:19Z</time></trkpt><trkpt lat="45.8245291109412" lon="5.005910573755063"><ele>177.0</ele><time>2026-03-28T13:46:20Z</time></trkpt><trkpt lat="45.82444632403556" lon="5.0055554041208286"><ele>177.5</ele><time>2026-03-28T13:46:21Z</time></trkpt><trkpt lat="45.82436504007623" lon="5.005207129017234"><ele>178.0</ele><time>2026-03-28T13:46:22Z</time></trkpt><trkpt lat="45.8242814289572" lon="5.004857047106173"><ele>179.0</ele><time>2026-03-28T13:46:23Z</time></trkpt><trkpt lat="45.82419894432922" lon="5.004505437725921"><ele>180.0</ele><time>2026-03-28T13:46:24Z</time></trkpt><trkpt lat="45.824115660971714" lon="5.004156426694547"><ele>180.5</ele><time>2026-03-28T13:46:25Z</time></trkpt><trkpt lat="45.824028351016324" lon="5.003804043142804"><ele>181.0</ele><time>2026-03-28T13:46:26Z</time></trkpt><trkpt lat="45.82394422219093" lon="5.0034590146712254"><ele>179.5</ele><time>2026-03-28T13:46:27Z</time></trkpt><trkpt lat="45.82386285052017" lon="5.003122299695273"><ele>178.0</ele><time>2026-03-28T13:46:28Z</time></trkpt><trkpt lat="45.82378603639361" lon="5.002787737444433"><ele>178.0</ele><time>2026-03-28T13:46:29Z</time></trkpt><trkpt lat="45.823702034560874" lon="5.002457103537757"><ele>178.0</ele><time>2026-03-28T13:46:30Z</time></trkpt><trkpt lat="45.82361583703084" lon="5.002125622106875"><ele>178.0</ele><time>2026-03-28T13:46:31Z</time></trkpt><trkpt lat="45.82352900421501" lon="5.001789625494681"><ele>178.0</ele><time>2026-03-28T13:46:32Z</time></trkpt><trkpt lat="45.823441050174495" lon="5.001457150492023"><ele>179.0</ele><time>2026-03-28T13:46:33Z</time></trkpt><trkpt lat="45.82334905481168" lon="5.001121117548715"><ele>180.0</ele><time>2026-03-28T13:46:34Z</time></trkpt><trkpt lat="45.82325962238907" lon="5.00078701152317"><ele>180.0</ele><time>2026-03-28T13:46:35Z</time></trkpt><trkpt lat="45.82317333987255" lon="5.000456268977162"><ele>180.0</ele><time>2026-03-28T13:46:36Z</time></trkpt><trkpt lat="45.823089378840955" lon="5.000134760638921"><ele>180.0</ele><time>2026-03-28T13:46:37Z</time></trkpt><trkpt lat="45.82300807201227" lon="4.999822497397736"><ele>180.0</ele><time>2026-03-28T13:46:38Z</time></trkpt><trkpt lat="45.822930234740056" lon="4.999513375800131"><ele>180.0</ele><time>2026-03-28T13:46:39Z</time></trkpt><trkpt lat="45.822851398412126" lon="4.99921577934809"><ele>180.0</ele><time>2026-03-28T13:46:40Z</time></trkpt><trkpt lat="45.82277400000171" lon="4.998936998568202"><ele>180.0</ele><time>2026-03-28T13:46:41Z</time></trkpt><trkpt lat="45.82270037097873" lon="4.998675939289743"><ele>180.0</ele><time>2026-03-28T13:46:42Z</time></trkpt><trkpt lat="45.822624081995684" lon="4.998415965665541"><ele>180.0</ele><time>2026-03-28T13:46:43Z</time></trkpt><trkpt lat="45.822550736996334" lon="4.99816425123638"><ele>180.0</ele><time>2026-03-28T13:46:44Z</time></trkpt><trkpt lat="45.82247602762378" lon="4.997917839899436"><ele>180.0</ele><time>2026-03-28T13:46:45Z</time></trkpt><trkpt lat="45.822399894375934" lon="4.9976769296970485"><ele>180.0</ele><time>2026-03-28T13:46:46Z</time></trkpt><trkpt lat="45.822320595180585" lon="4.997440034321909"><ele>180.0</ele><time>2026-03-28T13:46:47Z</time></trkpt><trkpt lat="45.822238777681264" lon="4.9972072367508495"><ele>180.33333333333334</ele><time>2026-03-28T13:46:48Z</time></trkpt><trkpt lat="45.82215227710774" lon="4.996983511045444"><ele>180.66666666666669</ele><time>2026-03-28T13:46:49Z</time></trkpt><trkpt lat="45.82205615368" lon="4.996769360257153"><ele>181.0</ele><time>2026-03-28T13:46:50Z</time></trkpt><trkpt lat="45.821956093260184" lon="4.996572736776502"><ele>181.33333333333334</ele><time>2026-03-28T13:46:51Z</time></trkpt><trkpt lat="45.82187440472941" lon="4.996366119216329"><ele>181.66666666666666</ele><time>2026-03-28T13:46:52Z</time></trkpt><trkpt lat="45.82178205070813" lon="4.9961684319902275"><ele>182.0</ele><time>2026-03-28T13:46:53Z</time></trkpt><trkpt lat="45.821695137753316" lon="4.995974533595115"><ele>181.0</ele><time>2026-03-28T13:46:54Z</time></trkpt><trkpt lat="45.82161788897149" lon="4.995787150843312"><ele>180.0</ele><time>2026-03-28T13:46:55Z</time></trkpt><trkpt lat="45.82154502875499" lon="4.995594914895177"><ele>179.0</ele><time>2026-03-28T13:46:56Z</time></trkpt><trkpt lat="45.82147445947968" lon="4.995405137664593"><ele>179.0</ele><time>2026-03-28T13:46:57Z</time></trkpt><trkpt lat="45.82140543128245" lon="4.995221154608305"><ele>179.0</ele><time>2026-03-28T13:46:58Z</time></trkpt><trkpt lat="45.82133809294248" lon="4.995051609137061"><ele>179.0</ele><time>2026-03-28T13:46:59Z</time></trkpt><trkpt lat="45.82126844070496" lon="4.994884644588399"><ele>179.0</ele><time>2026-03-28T13:47:00Z</time></trkpt><trkpt lat="45.82120653265903" lon="4.994740211653854"><ele>179.0</ele><time>2026-03-28T13:47:01Z</time></trkpt><trkpt lat="45.82114698611208" lon="4.994604371609922"><ele>179.0</ele><time>2026-03-28T13:47:02Z</time></trkpt><trkpt lat="45.82109302531715" lon="4.9944829554069115"><ele>179.0</ele><time>2026-03-28T13:47:03Z</time></trkpt><trkpt lat="45.82104418041364" lon="4.994373562216176"><ele>179.0</ele><time>2026-03-28T13:47:04Z</time></trkpt><trkpt lat="45.820999309802424" lon="4.994273132340672"><ele>179.0</ele><time>2026-03-28T13:47:05Z</time></trkpt><trkpt lat="45.820960328440194" lon="4.994185883881937"><ele>179.39999999999998</ele><time>2026-03-28T13:47:06Z</time></trkpt><trkpt lat="45.8209010500948" lon="4.994053021187279"><ele>179.8</ele><time>2026-03-28T13:47:08Z</time></trkpt><trkpt lat="45.82086605417663" lon="4.993974381546619"><ele>180.2</ele><time>2026-03-28T13:47:10Z</time></trkpt><trkpt lat="45.82082935680723" lon="4.993890381879818"><ele>180.60000000000002</ele><time>2026-03-28T13:47:16Z</time></trkpt><trkpt lat="45.820774702524936" lon="4.993766895112979"><ele>181.0</ele><time>2026-03-28T13:47:19Z</time></trkpt><trkpt lat="45.820713703405396" lon="4.993634056004475"><ele>181.0</ele><time>2026-03-28T13:47:21Z</time></trkpt><trkpt lat="45.8206659729267" lon="4.9935230060384725"><ele>181.0</ele><time>2026-03-28T13:47:22Z</time></trkpt><trkpt lat="45.820614294814604" lon="4.993404008196831"><ele>181.0</ele><time>2026-03-28T13:47:23Z</time></trkpt><trkpt lat="45.820557290185" lon="4.99327274509139"><ele>181.0</ele><time>2026-03-28T13:47:24Z</time></trkpt><trkpt lat="45.820499952653776" lon="4.993140715419813"><ele>181.0</ele><time>2026-03-28T13:47:25Z</time></trkpt><trkpt lat="45.820438293639526" lon="4.99299641297103"><ele>181.25</ele><time>2026-03-28T13:47:26Z</time></trkpt><trkpt lat="45.8203703927184" lon="4.992836016130995"><ele>181.5</ele><time>2026-03-28T13:47:27Z</time></trkpt><trkpt lat="45.82029934892684" lon="4.9926628265817605"><ele>181.75</ele><time>2026-03-28T13:47:28Z</time></trkpt><trkpt lat="45.820225653233734" lon="4.992478334995244"><ele>182.0</ele><time>2026-03-28T13:47:29Z</time></trkpt><trkpt lat="45.82015303425881" lon="4.99229285544722"><ele>180.66666666666666</ele><time>2026-03-28T13:47:30Z</time></trkpt><trkpt lat="45.82007865794054" lon="4.992093126641096"><ele>179.33333333333334</ele><time>2026-03-28T13:47:31Z</time></trkpt><trkpt lat="45.82000287253024" lon="4.991884725920042"><ele>178.0</ele><time>2026-03-28T13:47:32Z</time></trkpt><trkpt lat="45.819922060318184" lon="4.99166056576778"><ele>178.0</ele><time>2026-03-28T13:47:33Z</time></trkpt><trkpt lat="45.81983643407545" lon="4.991434574112318"><ele>178.0</ele><time>2026-03-28T13:47:34Z</time></trkpt><trkpt lat="45.81976049802337" lon="4.99119014767097"><ele>178.0</ele><time>2026-03-28T13:47:35Z</time></trkpt><trkpt lat="45.819682273033706" lon="4.99093508449232"><ele>178.0</ele><time>2026-03-28T13:47:36Z</time></trkpt><trkpt lat="45.819606219951275" lon="4.990681653361731"><ele>178.0</ele><time>2026-03-28T13:47:37Z</time></trkpt><trkpt lat="45.81952783146938" lon="4.990426969288"><ele>178.0</ele><time>2026-03-28T13:47:38Z</time></trkpt><trkpt lat="45.819448875183134" lon="4.990165383180865"><ele>178.0</ele><time>2026-03-28T13:47:39Z</time></trkpt><trkpt lat="45.81936727718039" lon="4.9898982233134594"><ele>178.0</ele><time>2026-03-28T13:47:40Z</time></trkpt><trkpt lat="45.8192837748568" lon="4.9896374049141565"><ele>178.0</ele><time>2026-03-28T13:47:41Z</time></trkpt><trkpt lat="45.81920464706014" lon="4.989373261840244"><ele>178.0</ele><time>2026-03-28T13:47:42Z</time></trkpt><trkpt lat="45.81912811416213" lon="4.989109965905443"><ele>178.0</ele><time>2026-03-28T13:47:43Z</time></trkpt><trkpt lat="45.819054334580706" lon="4.988849190434249"><ele>178.0</ele><time>2026-03-28T13:47:44Z</time></trkpt><trkpt lat="45.81897742547347" lon="4.988594407098561"><ele>178.66666666666669</ele><time>2026-03-28T13:47:45Z</time></trkpt><trkpt lat="45.81889996070938" lon="4.988342590728884"><ele>179.33333333333334</ele><time>2026-03-28T13:47:46Z</time></trkpt><trkpt lat="45.81882497203039" lon="4.9880918224042405"><ele>180.0</ele><time>2026-03-28T13:47:47Z</time></trkpt><trkpt lat="45.818752733153296" lon="4.987838135561911"><ele>180.0</ele><time>2026-03-28T13:47:48Z</time></trkpt><trkpt lat="45.81867968491845" lon="4.987577972780838"><ele>180.0</ele><time>2026-03-28T13:47:49Z</time></trkpt><trkpt lat="45.818609270171855" lon="4.987316822395831"><ele>180.0</ele><time>2026-03-28T13:47:50Z</time></trkpt><trkpt lat="45.81854021767469" lon="4.987050860616968"><ele>179.33333333333334</ele><time>2026-03-28T13:47:51Z</time></trkpt><trkpt lat="45.81847100631846" lon="4.9867851785853565"><ele>178.66666666666669</ele><time>2026-03-28T13:47:52Z</time></trkpt><trkpt lat="45.81840372638208" lon="4.986515810759309"><ele>178.0</ele><time>2026-03-28T13:47:53Z</time></trkpt><trkpt lat="45.818339264914414" lon="4.986245870459152"><ele>178.0</ele><time>2026-03-28T13:47:54Z</time></trkpt><trkpt lat="45.81827741881021" lon="4.985966238333331"><ele>178.0</ele><time>2026-03-28T13:47:55Z</time></trkpt><trkpt lat="45.81821516042882" lon="4.9856885018231525"><ele>178.0</ele><time>2026-03-28T13:47:56Z</time></trkpt><trkpt lat="45.81815359419201" lon="4.98541163810514"><ele>178.33333333333334</ele><time>2026-03-28T13:47:57Z</time></trkpt><trkpt lat="45.81809832060491" lon="4.985137335120586"><ele>178.66666666666666</ele><time>2026-03-28T13:47:58Z</time></trkpt><trkpt lat="45.81804789248862" lon="4.984865065666246"><ele>179.0</ele><time>2026-03-28T13:47:59Z</time></trkpt><trkpt lat="45.81799473792778" lon="4.984589908469866"><ele>178.0</ele><time>2026-03-28T13:48:00Z</time></trkpt><trkpt lat="45.81793806984795" lon="4.984309738289367"><ele>177.0</ele><time>2026-03-28T13:48:01Z</time></trkpt><trkpt lat="45.817888547472464" lon="4.984034031928666"><ele>176.0</ele><time>2026-03-28T13:48:02Z</time></trkpt><trkpt lat="45.81783837793671" lon="4.983761955507316"><ele>175.66666666666666</ele><time>2026-03-28T13:48:03Z</time></trkpt><trkpt lat="45.81779485657178" lon="4.983496009013083"><ele>175.33333333333334</ele><time>2026-03-28T13:48:04Z</time></trkpt><trkpt lat="45.81774966252072" lon="4.983233087788898"><ele>175.0</ele><time>2026-03-28T13:48:05Z</time></trkpt><trkpt lat="45.81770340803429" lon="4.982974217667914"><ele>174.66666666666669</ele><time>2026-03-28T13:48:06Z</time></trkpt><trkpt lat="45.81766251143042" lon="4.982719308896574"><ele>174.33333333333334</ele><time>2026-03-28T13:48:07Z</time></trkpt><trkpt lat="45.81762073442594" lon="4.982461221307735"><ele>174.0</ele><time>2026-03-28T13:48:08Z</time></trkpt><trkpt lat="45.81758118934439" lon="4.982204193453392"><ele>174.66666666666666</ele><time>2026-03-28T13:48:09Z</time></trkpt><trkpt lat="45.817540925703014" lon="4.981945193885138"><ele>175.33333333333331</ele><time>2026-03-28T13:48:10Z</time></trkpt><trkpt lat="45.81750074738951" lon="4.981684962981227"><ele>176.0</ele><time>2026-03-28T13:48:11Z</time></trkpt><trkpt lat="45.81746073003055" lon="4.981420246916331"><ele>177.0</ele><time>2026-03-28T13:48:12Z</time></trkpt><trkpt lat="45.81741806121058" lon="4.981151747937051"><ele>178.0</ele><time>2026-03-28T13:48:13Z</time></trkpt><trkpt lat="45.817379085487914" lon="4.980880384194326"><ele>179.0</ele><time>2026-03-28T13:48:14Z</time></trkpt><trkpt lat="45.81733579884438" lon="4.980600535051852"><ele>179.0</ele><time>2026-03-28T13:48:15Z</time></trkpt><trkpt lat="45.81729496310254" lon="4.980318247910109"><ele>179.0</ele><time>2026-03-28T13:48:16Z</time></trkpt><trkpt lat="45.81725543228825" lon="4.980029693400244"><ele>179.0</ele><time>2026-03-28T13:48:17Z</time></trkpt><trkpt lat="45.81721163881378" lon="4.979737502498678"><ele>178.33333333333331</ele><time>2026-03-28T13:48:18Z</time></trkpt><trkpt lat="45.81716877531592" lon="4.979435220734559"><ele>177.66666666666666</ele><time>2026-03-28T13:48:19Z</time></trkpt><trkpt lat="45.81712569557046" lon="4.979128997494876"><ele>177.0</ele><time>2026-03-28T13:48:20Z</time></trkpt><trkpt lat="45.81708308177491" lon="4.9788246729266135"><ele>176.66666666666666</ele><time>2026-03-28T13:48:21Z</time></trkpt><trkpt lat="45.81703897294862" lon="4.978515194632035"><ele>176.33333333333331</ele><time>2026-03-28T13:48:22Z</time></trkpt><trkpt lat="45.81699714994115" lon="4.978209599573637"><ele>176.0</ele><time>2026-03-28T13:48:23Z</time></trkpt><trkpt lat="45.81695492087708" lon="4.977910774578308"><ele>175.33333333333331</ele><time>2026-03-28T13:48:24Z</time></trkpt><trkpt lat="45.81691439002169" lon="4.977606235340816"><ele>174.66666666666666</ele><time>2026-03-28T13:48:25Z</time></trkpt><trkpt lat="45.81687376413873" lon="4.977296718908955"><ele>174.0</ele><time>2026-03-28T13:48:26Z</time></trkpt><trkpt lat="45.816834154519086" lon="4.976981249179291"><ele>175.5</ele><time>2026-03-28T13:48:27Z</time></trkpt><trkpt lat="45.81679533204977" lon="4.9766601085365325"><ele>177.0</ele><time>2026-03-28T13:48:28Z</time></trkpt><trkpt lat="45.816753664683425" lon="4.976333654992324"><ele>177.0</ele><time>2026-03-28T13:48:29Z</time></trkpt><trkpt lat="45.8167148168351" lon="4.976006975322334"><ele>177.0</ele><time>2026-03-28T13:48:30Z</time></trkpt><trkpt lat="45.816674388941095" lon="4.975679358719985"><ele>177.0</ele><time>2026-03-28T13:48:31Z</time></trkpt><trkpt lat="45.81663324276063" lon="4.975348533443515"><ele>177.0</ele><time>2026-03-28T13:48:32Z</time></trkpt><trkpt lat="45.81659148641736" lon="4.975014994205103"><ele>177.0</ele><time>2026-03-28T13:48:33Z</time></trkpt><trkpt lat="45.8165506734811" lon="4.974680641061552"><ele>177.0</ele><time>2026-03-28T13:48:34Z</time></trkpt><trkpt lat="45.816514157309854" lon="4.97434801188784"><ele>177.5</ele><time>2026-03-28T13:48:35Z</time></trkpt><trkpt lat="45.81648026248927" lon="4.974013887691627"><ele>178.0</ele><time>2026-03-28T13:48:36Z</time></trkpt><trkpt lat="45.81644529242433" lon="4.973679568620617"><ele>178.5</ele><time>2026-03-28T13:48:37Z</time></trkpt><trkpt lat="45.81641026559514" lon="4.9733426240758245"><ele>179.0</ele><time>2026-03-28T13:48:38Z</time></trkpt><trkpt lat="45.81637318369458" lon="4.973001465366817"><ele>179.0</ele><time>2026-03-28T13:48:39Z</time></trkpt><trkpt lat="45.8163395666293" lon="4.972660778081428"><ele>179.0</ele><time>2026-03-28T13:48:40Z</time></trkpt><trkpt lat="45.81630313821193" lon="4.972315696953019"><ele>179.0</ele><time>2026-03-28T13:48:41Z</time></trkpt><trkpt lat="45.8162687676595" lon="4.971967862207292"><ele>179.0</ele><time>2026-03-28T13:48:42Z</time></trkpt><trkpt lat="45.816235224223874" lon="4.971617272573778"><ele>179.0</ele><time>2026-03-28T13:48:43Z</time></trkpt><trkpt lat="45.81620083102447" lon="4.971264002760641"><ele>179.0</ele><time>2026-03-28T13:48:44Z</time></trkpt><trkpt lat="45.81616540312717" lon="4.9709111643279185"><ele>177.5</ele><time>2026-03-28T13:48:45Z</time></trkpt><trkpt lat="45.81613097978729" lon="4.970555511398796"><ele>176.0</ele><time>2026-03-28T13:48:46Z</time></trkpt><trkpt lat="45.816096434670044" lon="4.970199122669861"><ele>174.5</ele><time>2026-03-28T13:48:47Z</time></trkpt><trkpt lat="45.816059359439635" lon="4.969842193908263"><ele>173.0</ele><time>2026-03-28T13:48:48Z</time></trkpt><trkpt lat="45.816024809202155" lon="4.969486673905165"><ele>173.0</ele><time>2026-03-28T13:48:49Z</time></trkpt><trkpt lat="45.8159941673616" lon="4.969128829060536"><ele>173.0</ele><time>2026-03-28T13:48:50Z</time></trkpt><trkpt lat="45.815960375614594" lon="4.968770551068726"><ele>174.5</ele><time>2026-03-28T13:48:51Z</time></trkpt><trkpt lat="45.815932761699266" lon="4.968415016784489"><ele>176.0</ele><time>2026-03-28T13:48:52Z</time></trkpt><trkpt lat="45.81590261491432" lon="4.96806218156175"><ele>176.0</ele><time>2026-03-28T13:48:53Z</time></trkpt><trkpt lat="45.81587493249787" lon="4.967714235724321"><ele>176.0</ele><time>2026-03-28T13:48:54Z</time></trkpt><trkpt lat="45.81584334299775" lon="4.967364495626347"><ele>176.0</ele><time>2026-03-28T13:48:55Z</time></trkpt><trkpt lat="45.81581536582563" lon="4.967013779060042"><ele>176.0</ele><time>2026-03-28T13:48:56Z</time></trkpt><trkpt lat="45.815787677441335" lon="4.966663893644914"><ele>176.0</ele><time>2026-03-28T13:48:57Z</time></trkpt><trkpt lat="45.815760030776794" lon="4.966319984566813"><ele>176.0</ele><time>2026-03-28T13:48:58Z</time></trkpt><trkpt lat="45.8157335625448" lon="4.965977948586875"><ele>176.0</ele><time>2026-03-28T13:48:59Z</time></trkpt><trkpt lat="45.81570391966255" lon="4.965637293477177"><ele>176.0</ele><time>2026-03-28T13:49:00Z</time></trkpt><trkpt lat="45.81567408453232" lon="4.965301543159764"><ele>176.5</ele><time>2026-03-28T13:49:01Z</time></trkpt><trkpt lat="45.81564848383482" lon="4.964969083154365"><ele>177.0</ele><time>2026-03-28T13:49:02Z</time></trkpt><trkpt lat="45.815621941388486" lon="4.964635729641477"><ele>177.0</ele><time>2026-03-28T13:49:03Z</time></trkpt><trkpt lat="45.81559372178435" lon="4.964304626263302"><ele>177.0</ele><time>2026-03-28T13:49:04Z</time></trkpt><trkpt lat="45.815567628111275" lon="4.96397505743245"><ele>176.5</ele><time>2026-03-28T13:49:05Z</time></trkpt><trkpt lat="45.81553916089023" lon="4.963641895496804"><ele>176.0</ele><time>2026-03-28T13:49:06Z</time></trkpt><trkpt lat="45.81550975074005" lon="4.9633112055828965"><ele>175.0</ele><time>2026-03-28T13:49:07Z</time></trkpt><trkpt lat="45.815480557344046" lon="4.962983078266737"><ele>174.0</ele><time>2026-03-28T13:49:08Z</time></trkpt><trkpt lat="45.81545221912947" lon="4.962657076746463"><ele>175.5</ele><time>2026-03-28T13:49:09Z</time></trkpt><trkpt lat="45.815423972419296" lon="4.9623304091402645"><ele>177.0</ele><time>2026-03-28T13:49:10Z</time></trkpt><trkpt lat="45.81539381697958" lon="4.962004591575673"><ele>176.0</ele><time>2026-03-28T13:49:11Z</time></trkpt><trkpt lat="45.815365222534346" lon="4.9616744886434425"><ele>175.0</ele><time>2026-03-28T13:49:12Z</time></trkpt><trkpt lat="45.81533594521671" lon="4.961344540483183"><ele>175.0</ele><time>2026-03-28T13:49:13Z</time></trkpt><trkpt lat="45.815310215356845" lon="4.9610188072217625"><ele>175.0</ele><time>2026-03-28T13:49:14Z</time></trkpt><trkpt lat="45.81528362291209" lon="4.960690292987031"><ele>175.0</ele><time>2026-03-28T13:49:15Z</time></trkpt><trkpt lat="45.81525357396437" lon="4.960357851405864"><ele>175.0</ele><time>2026-03-28T13:49:16Z</time></trkpt><trkpt lat="45.81522559420352" lon="4.9600258232647505"><ele>175.0</ele><time>2026-03-28T13:49:17Z</time></trkpt><trkpt lat="45.81519668373701" lon="4.959691773780893"><ele>175.0</ele><time>2026-03-28T13:49:18Z</time></trkpt><trkpt lat="45.81516760160014" lon="4.959355417660773"><ele>177.0</ele><time>2026-03-28T13:49:19Z</time></trkpt><trkpt lat="45.81513879243869" lon="4.959022106141716"><ele>179.0</ele><time>2026-03-28T13:49:20Z</time></trkpt><trkpt lat="45.81510309951822" lon="4.95868535750009"><ele>178.0</ele><time>2026-03-28T13:49:21Z</time></trkpt><trkpt lat="45.815070511708925" lon="4.958347741618074"><ele>177.0</ele><time>2026-03-28T13:49:22Z</time></trkpt><trkpt lat="45.81503499896396" lon="4.958009061045611"><ele>177.0</ele><time>2026-03-28T13:49:23Z</time></trkpt><trkpt lat="45.81500085087837" lon="4.957669059528677"><ele>177.0</ele><time>2026-03-28T13:49:24Z</time></trkpt><trkpt lat="45.81496684276705" lon="4.957330736399618"><ele>177.0</ele><time>2026-03-28T13:49:25Z</time></trkpt><trkpt lat="45.814931687159294" lon="4.956993019683652"><ele>177.0</ele><time>2026-03-28T13:49:26Z</time></trkpt><trkpt lat="45.814889752572974" lon="4.956653151782896"><ele>177.5</ele><time>2026-03-28T13:49:27Z</time></trkpt><trkpt lat="45.81485041992769" lon="4.956307166590188"><ele>178.0</ele><time>2026-03-28T13:49:28Z</time></trkpt><trkpt lat="45.81481109177539" lon="4.955966624799968"><ele>178.5</ele><time>2026-03-28T13:49:29Z</time></trkpt><trkpt lat="45.814764215277236" lon="4.955622435247005"><ele>179.0</ele><time>2026-03-28T13:49:30Z</time></trkpt><trkpt lat="45.81472203484421" lon="4.9552780937449"><ele>177.5</ele><time>2026-03-28T13:49:31Z</time></trkpt><trkpt lat="45.814678218443" lon="4.95493572610629"><ele>176.0</ele><time>2026-03-28T13:49:32Z</time></trkpt><trkpt lat="45.81463348029014" lon="4.954594669902914"><ele>176.0</ele><time>2026-03-28T13:49:33Z</time></trkpt><trkpt lat="45.81458855773807" lon="4.954253276029415"><ele>176.0</ele><time>2026-03-28T13:49:34Z</time></trkpt><trkpt lat="45.81454078608427" lon="4.9539104722254255"><ele>176.5</ele><time>2026-03-28T13:49:35Z</time></trkpt><trkpt lat="45.814494561060684" lon="4.953570127862761"><ele>177.0</ele><time>2026-03-28T13:49:36Z</time></trkpt><trkpt lat="45.814445980075426" lon="4.953227534125887"><ele>177.5</ele><time>2026-03-28T13:49:37Z</time></trkpt><trkpt lat="45.81439724547256" lon="4.952883723952009"><ele>178.0</ele><time>2026-03-28T13:49:38Z</time></trkpt><trkpt lat="45.81434522130282" lon="4.952543633573656"><ele>178.0</ele><time>2026-03-28T13:49:39Z</time></trkpt><trkpt lat="45.81429276182254" lon="4.952207092877734"><ele>178.0</ele><time>2026-03-28T13:49:40Z</time></trkpt><trkpt lat="45.81423683833328" lon="4.951870193123588"><ele>177.5</ele><time>2026-03-28T13:49:41Z</time></trkpt><trkpt lat="45.814183434581466" lon="4.951531828963488"><ele>177.0</ele><time>2026-03-28T13:49:42Z</time></trkpt><trkpt lat="45.81413122411688" lon="4.951193981721874"><ele>177.5</ele><time>2026-03-28T13:49:43Z</time></trkpt><trkpt lat="45.81408055358463" lon="4.950858120662971"><ele>178.0</ele><time>2026-03-28T13:49:44Z</time></trkpt><trkpt lat="45.81402210174983" lon="4.950517788786735"><ele>178.0</ele><time>2026-03-28T13:49:45Z</time></trkpt><trkpt lat="45.81396249158995" lon="4.950176257940638"><ele>178.0</ele><time>2026-03-28T13:49:46Z</time></trkpt><trkpt lat="45.813901998484624" lon="4.949835128929541"><ele>178.0</ele><time>2026-03-28T13:49:47Z</time></trkpt><trkpt lat="45.813837932803295" lon="4.949490942100798"><ele>178.0</ele><time>2026-03-28T13:49:48Z</time></trkpt><trkpt lat="45.81377109111389" lon="4.949144692790247"><ele>178.0</ele><time>2026-03-28T13:49:49Z</time></trkpt><trkpt lat="45.81370882366233" lon="4.9487987739765025"><ele>178.0</ele><time>2026-03-28T13:49:50Z</time></trkpt><trkpt lat="45.813646202990356" lon="4.948458826383769"><ele>177.0</ele><time>2026-03-28T13:49:51Z</time></trkpt><trkpt lat="45.813582501850114" lon="4.948112237501491"><ele>176.0</ele><time>2026-03-28T13:49:52Z</time></trkpt><trkpt lat="45.81351584332396" lon="4.947762602847678"><ele>176.0</ele><time>2026-03-28T13:49:53Z</time></trkpt><trkpt lat="45.81344556625335" lon="4.947415317222034"><ele>176.0</ele><time>2026-03-28T13:49:54Z</time></trkpt><trkpt lat="45.81337603224903" lon="4.947068149893789"><ele>176.0</ele><time>2026-03-28T13:49:55Z</time></trkpt><trkpt lat="45.81330278794936" lon="4.946716481668437"><ele>176.0</ele><time>2026-03-28T13:49:56Z</time></trkpt><trkpt lat="45.81322718561171" lon="4.9463662469115866"><ele>175.0</ele><time>2026-03-28T13:49:57Z</time></trkpt><trkpt lat="45.81315191439367" lon="4.9460188034217625"><ele>174.0</ele><time>2026-03-28T13:49:58Z</time></trkpt><trkpt lat="45.81307737219326" lon="4.945670783762722"><ele>174.0</ele><time>2026-03-28T13:49:59Z</time></trkpt><trkpt lat="45.81299730351541" lon="4.945321091738776"><ele>174.0</ele><time>2026-03-28T13:50:00Z</time></trkpt><trkpt lat="45.81291836308657" lon="4.944976186107165"><ele>174.0</ele><time>2026-03-28T13:50:01Z</time></trkpt><trkpt lat="45.81284220691856" lon="4.944630984169155"><ele>174.0</ele><time>2026-03-28T13:50:02Z</time></trkpt><trkpt lat="45.812764344921135" lon="4.944286014695561"><ele>174.5</ele><time>2026-03-28T13:50:03Z</time></trkpt><trkpt lat="45.81268724396531" lon="4.9439469639466305"><ele>175.0</ele><time>2026-03-28T13:50:04Z</time></trkpt><trkpt lat="45.812607068883366" lon="4.943609135261576"><ele>176.0</ele><time>2026-03-28T13:50:05Z</time></trkpt><trkpt lat="45.812526616989544" lon="4.943272099994686"><ele>177.0</ele><time>2026-03-28T13:50:06Z</time></trkpt><trkpt lat="45.81244742381088" lon="4.942940164252305"><ele>177.0</ele><time>2026-03-28T13:50:07Z</time></trkpt><trkpt lat="45.81236570903941" lon="4.94260738882394"><ele>177.0</ele><time>2026-03-28T13:50:08Z</time></trkpt><trkpt lat="45.812283770544965" lon="4.942277507750604"><ele>177.0</ele><time>2026-03-28T13:50:09Z</time></trkpt><trkpt lat="45.81219637180323" lon="4.941942477821377"><ele>177.0</ele><time>2026-03-28T13:50:10Z</time></trkpt><trkpt lat="45.812110260117464" lon="4.941609367010478"><ele>176.5</ele><time>2026-03-28T13:50:11Z</time></trkpt><trkpt lat="45.81202408088922" lon="4.941276307526478"><ele>176.0</ele><time>2026-03-28T13:50:12Z</time></trkpt><trkpt lat="45.81193462044969" lon="4.940936810482753"><ele>176.0</ele><time>2026-03-28T13:50:13Z</time></trkpt><trkpt lat="45.811845689391795" lon="4.940606690165533"><ele>176.0</ele><time>2026-03-28T13:50:14Z</time></trkpt><trkpt lat="45.81175604632748" lon="4.940273750228735"><ele>177.0</ele><time>2026-03-28T13:50:15Z</time></trkpt><trkpt lat="45.811665321896236" lon="4.939939266774075"><ele>178.0</ele><time>2026-03-28T13:50:16Z</time></trkpt><trkpt lat="45.81156946345409" lon="4.939603374365301"><ele>178.0</ele><time>2026-03-28T13:50:17Z</time></trkpt><trkpt lat="45.81147574978481" lon="4.939272854933095"><ele>178.0</ele><time>2026-03-28T13:50:18Z</time></trkpt><trkpt lat="45.81137891162802" lon="4.938941361094314"><ele>178.0</ele><time>2026-03-28T13:50:19Z</time></trkpt><trkpt lat="45.81128477959036" lon="4.938613365901474"><ele>178.0</ele><time>2026-03-28T13:50:20Z</time></trkpt><trkpt lat="45.81119013065501" lon="4.938282032290039"><ele>177.5</ele><time>2026-03-28T13:50:21Z</time></trkpt><trkpt lat="45.811095859252234" lon="4.93795741501142"><ele>177.0</ele><time>2026-03-28T13:50:22Z</time></trkpt><trkpt lat="45.810994598582525" lon="4.937635394047185"><ele>176.0</ele><time>2026-03-28T13:50:23Z</time></trkpt><trkpt lat="45.81089847785537" lon="4.937314990735645"><ele>175.0</ele><time>2026-03-28T13:50:24Z</time></trkpt><trkpt lat="45.81079575408365" lon="4.93699354401326"><ele>176.0</ele><time>2026-03-28T13:50:25Z</time></trkpt><trkpt lat="45.81069719539966" lon="4.936677531073891"><ele>177.0</ele><time>2026-03-28T13:50:26Z</time></trkpt><trkpt lat="45.81059389920414" lon="4.936359187232797"><ele>177.0</ele><time>2026-03-28T13:50:27Z</time></trkpt><trkpt lat="45.810489880086976" lon="4.9360431829422815"><ele>177.0</ele><time>2026-03-28T13:50:28Z</time></trkpt><trkpt lat="45.810384408439845" lon="4.935726167947101"><ele>178.0</ele><time>2026-03-28T13:50:29Z</time></trkpt><trkpt lat="45.8102784758543" lon="4.935411011254706"><ele>179.0</ele><time>2026-03-28T13:50:30Z</time></trkpt><trkpt lat="45.810173452520374" lon="4.935096768989145"><ele>178.0</ele><time>2026-03-28T13:50:31Z</time></trkpt><trkpt lat="45.81006396473654" lon="4.9347829804856955"><ele>177.0</ele><time>2026-03-28T13:50:32Z</time></trkpt><trkpt lat="45.80995685543513" lon="4.93447281610728"><ele>177.0</ele><time>2026-03-28T13:50:33Z</time></trkpt><trkpt lat="45.8098512667449" lon="4.934165435890835"><ele>177.0</ele><time>2026-03-28T13:50:34Z</time></trkpt><trkpt lat="45.80974370181015" lon="4.933863987883997"><ele>177.0</ele><time>2026-03-28T13:50:35Z</time></trkpt><trkpt lat="45.809638967146476" lon="4.933573896603607"><ele>177.0</ele><time>2026-03-28T13:50:36Z</time></trkpt><trkpt lat="45.809527407556004" lon="4.933274480086849"><ele>176.5</ele><time>2026-03-28T13:50:37Z</time></trkpt><trkpt lat="45.809414382010445" lon="4.932981938925689"><ele>176.0</ele><time>2026-03-28T13:50:38Z</time></trkpt><trkpt lat="45.8093039650532" lon="4.932694623857985"><ele>176.0</ele><time>2026-03-28T13:50:39Z</time></trkpt><trkpt lat="45.809189041161424" lon="4.932415349870471"><ele>176.0</ele><time>2026-03-28T13:50:40Z</time></trkpt><trkpt lat="45.809076016574856" lon="4.93213992898931"><ele>176.0</ele><time>2026-03-28T13:50:41Z</time></trkpt><trkpt lat="45.8089694855964" lon="4.931875144892912"><ele>176.0</ele><time>2026-03-28T13:50:42Z</time></trkpt><trkpt lat="45.80885939410632" lon="4.931610400200006"><ele>176.0</ele><time>2026-03-28T13:50:43Z</time></trkpt><trkpt lat="45.80874370348081" lon="4.931347441114529"><ele>176.0</ele><time>2026-03-28T13:50:44Z</time></trkpt><trkpt lat="45.80862970871055" lon="4.931093968830361"><ele>176.33333333333331</ele><time>2026-03-28T13:50:45Z</time></trkpt><trkpt lat="45.80851647830592" lon="4.930840811770426"><ele>176.66666666666666</ele><time>2026-03-28T13:50:46Z</time></trkpt><trkpt lat="45.808408650954874" lon="4.930587030825224"><ele>177.0</ele><time>2026-03-28T13:50:47Z</time></trkpt><trkpt lat="45.80829491634372" lon="4.930332702952874"><ele>177.0</ele><time>2026-03-28T13:50:48Z</time></trkpt><trkpt lat="45.808194442626565" lon="4.930077275569474"><ele>177.0</ele><time>2026-03-28T13:50:49Z</time></trkpt><trkpt lat="45.80810498031877" lon="4.929810869613059"><ele>177.0</ele><time>2026-03-28T13:50:50Z</time></trkpt><trkpt lat="45.808023712454734" lon="4.929539204253923"><ele>176.66666666666666</ele><time>2026-03-28T13:50:51Z</time></trkpt><trkpt lat="45.80796872991307" lon="4.929273928516114"><ele>176.33333333333331</ele><time>2026-03-28T13:50:52Z</time></trkpt><trkpt lat="45.80790282055694" lon="4.92900125628423"><ele>176.0</ele><time>2026-03-28T13:50:53Z</time></trkpt><trkpt lat="45.80785312599312" lon="4.928735244690901"><ele>176.0</ele><time>2026-03-28T13:50:54Z</time></trkpt><trkpt lat="45.807800891546655" lon="4.928472902446425"><ele>176.0</ele><time>2026-03-28T13:50:55Z</time></trkpt><trkpt lat="45.807747039141184" lon="4.928210594130964"><ele>176.0</ele><time>2026-03-28T13:50:56Z</time></trkpt><trkpt lat="45.807691670222006" lon="4.927949509491406"><ele>176.0</ele><time>2026-03-28T13:50:57Z</time></trkpt><trkpt lat="45.807636807264835" lon="4.927683420621448"><ele>176.0</ele><time>2026-03-28T13:50:58Z</time></trkpt><trkpt lat="45.80757900855621" lon="4.927421149890574"><ele>176.0</ele><time>2026-03-28T13:50:59Z</time></trkpt><trkpt lat="45.80751407781092" lon="4.927160192581387"><ele>176.0</ele><time>2026-03-28T13:51:00Z</time></trkpt><trkpt lat="45.80744184843064" lon="4.926900055320368"><ele>176.0</ele><time>2026-03-28T13:51:01Z</time></trkpt><trkpt lat="45.80735620677498" lon="4.926650452077461"><ele>176.0</ele><time>2026-03-28T13:51:02Z</time></trkpt><trkpt lat="45.80725955841088" lon="4.926406820566917"><ele>176.33333333333331</ele><time>2026-03-28T13:51:03Z</time></trkpt><trkpt lat="45.807155209616525" lon="4.926174847743842"><ele>176.66666666666666</ele><time>2026-03-28T13:51:04Z</time></trkpt><trkpt lat="45.80703297222613" lon="4.925958071880108"><ele>177.0</ele><time>2026-03-28T13:51:05Z</time></trkpt><trkpt lat="45.80690199000813" lon="4.925758182900737"><ele>176.66666666666666</ele><time>2026-03-28T13:51:06Z</time></trkpt><trkpt lat="45.80675913166271" lon="4.92557728897729"><ele>176.33333333333331</ele><time>2026-03-28T13:51:07Z</time></trkpt><trkpt lat="45.80660686403021" lon="4.925415569851876"><ele>176.0</ele><time>2026-03-28T13:51:08Z</time></trkpt><trkpt lat="45.8064513541103" lon="4.925269052416837"><ele>176.0</ele><time>2026-03-28T13:51:09Z</time></trkpt><trkpt lat="45.806281968254936" lon="4.925141552162077"><ele>176.0</ele><time>2026-03-28T13:51:10Z</time></trkpt><trkpt lat="45.80610775736697" lon="4.925036406067328"><ele>176.0</ele><time>2026-03-28T13:51:11Z</time></trkpt><trkpt lat="45.80592504877469" lon="4.924953191264712"><ele>176.33333333333331</ele><time>2026-03-28T13:51:12Z</time></trkpt><trkpt lat="45.80573893111692" lon="4.924892344207706"><ele>176.66666666666666</ele><time>2026-03-28T13:51:13Z</time></trkpt><trkpt lat="45.80554731500559" lon="4.9248590142445385"><ele>177.0</ele><time>2026-03-28T13:51:14Z</time></trkpt><trkpt lat="45.80535671654634" lon="4.924849998754421"><ele>177.0</ele><time>2026-03-28T13:51:15Z</time></trkpt><trkpt lat="45.805166712665454" lon="4.924864640534248"><ele>177.0</ele><time>2026-03-28T13:51:16Z</time></trkpt><trkpt lat="45.804977571687715" lon="4.924898093379634"><ele>177.0</ele><time>2026-03-28T13:51:17Z</time></trkpt><trkpt lat="45.804786610199336" lon="4.924952093877466"><ele>177.33333333333334</ele><time>2026-03-28T13:51:18Z</time></trkpt><trkpt lat="45.80459780038917" lon="4.925010536782726"><ele>177.66666666666669</ele><time>2026-03-28T13:51:19Z</time></trkpt><trkpt lat="45.804417483414234" lon="4.925097967449151"><ele>178.0</ele><time>2026-03-28T13:51:20Z</time></trkpt><trkpt lat="45.80425260209865" lon="4.925213191126188"><ele>178.0</ele><time>2026-03-28T13:51:21Z</time></trkpt><trkpt lat="45.80409061260519" lon="4.925341566956421"><ele>178.0</ele><time>2026-03-28T13:51:22Z</time></trkpt><trkpt lat="45.803933098793806" lon="4.925485511172175"><ele>178.0</ele><time>2026-03-28T13:51:23Z</time></trkpt><trkpt lat="45.803782421343094" lon="4.925629201811555"><ele>178.0</ele><time>2026-03-28T13:51:24Z</time></trkpt><trkpt lat="45.80362675715549" lon="4.92577276827526"><ele>178.0</ele><time>2026-03-28T13:51:25Z</time></trkpt><trkpt lat="45.80346990918609" lon="4.92590803658278"><ele>178.0</ele><time>2026-03-28T13:51:26Z</time></trkpt><trkpt lat="45.80331038156995" lon="4.926024090328133"><ele>177.33333333333334</ele><time>2026-03-28T13:51:27Z</time></trkpt><trkpt lat="45.80314963016462" lon="4.926122287547929"><ele>176.66666666666666</ele><time>2026-03-28T13:51:28Z</time></trkpt><trkpt lat="45.802983368210874" lon="4.926216085078732"><ele>176.0</ele><time>2026-03-28T13:51:29Z</time></trkpt><trkpt lat="45.80282408973055" lon="4.926300482702557"><ele>176.0</ele><time>2026-03-28T13:51:30Z</time></trkpt><trkpt lat="45.80266960497662" lon="4.9263840550126945"><ele>176.0</ele><time>2026-03-28T13:51:31Z</time></trkpt><trkpt lat="45.80251265778597" lon="4.9264666552676735"><ele>176.0</ele><time>2026-03-28T13:51:32Z</time></trkpt><trkpt lat="45.80235329221517" lon="4.926550383521651"><ele>174.66666666666666</ele><time>2026-03-28T13:51:33Z</time></trkpt><trkpt lat="45.80218964917342" lon="4.926634521084851"><ele>173.33333333333334</ele><time>2026-03-28T13:51:34Z</time></trkpt><trkpt lat="45.80203201404431" lon="4.926718487605152"><ele>172.0</ele><time>2026-03-28T13:51:35Z</time></trkpt><trkpt lat="45.80187473949567" lon="4.9267969515270345"><ele>173.66666666666669</ele><time>2026-03-28T13:51:36Z</time></trkpt><trkpt lat="45.80172057512313" lon="4.926875602031019"><ele>175.33333333333334</ele><time>2026-03-28T13:51:37Z</time></trkpt><trkpt lat="45.80156712590563" lon="4.926951965442959"><ele>177.0</ele><time>2026-03-28T13:51:38Z</time></trkpt><trkpt lat="45.801414348844666" lon="4.927021839347259"><ele>177.0</ele><time>2026-03-28T13:51:39Z</time></trkpt><trkpt lat="45.80126359312811" lon="4.927083494208522"><ele>177.0</ele><time>2026-03-28T13:51:40Z</time></trkpt><trkpt lat="45.80111568692152" lon="4.9271430006183055"><ele>177.0</ele><time>2026-03-28T13:51:41Z</time></trkpt><trkpt lat="45.800972716531064" lon="4.927200713479173"><ele>178.0</ele><time>2026-03-28T13:51:42Z</time></trkpt><trkpt lat="45.80082752776689" lon="4.9272576379619695"><ele>179.0</ele><time>2026-03-28T13:51:43Z</time></trkpt><trkpt lat="45.80067848136617" lon="4.92731705427467"><ele>180.0</ele><time>2026-03-28T13:51:44Z</time></trkpt><trkpt lat="45.80052331845453" lon="4.927368853254367"><ele>180.0</ele><time>2026-03-28T13:51:45Z</time></trkpt><trkpt lat="45.800373057145634" lon="4.927417063372463"><ele>180.0</ele><time>2026-03-28T13:51:46Z</time></trkpt><trkpt lat="45.80022222562745" lon="4.92745611952275"><ele>180.0</ele><time>2026-03-28T13:51:47Z</time></trkpt><trkpt lat="45.800073068425554" lon="4.927482126411198"><ele>178.66666666666666</ele><time>2026-03-28T13:51:48Z</time></trkpt><trkpt lat="45.799921215535775" lon="4.92749288360982"><ele>177.33333333333331</ele><time>2026-03-28T13:51:49Z</time></trkpt><trkpt lat="45.79976657419858" lon="4.927490481524428"><ele>176.0</ele><time>2026-03-28T13:51:50Z</time></trkpt><trkpt lat="45.79960689237613" lon="4.927482159157344"><ele>176.0</ele><time>2026-03-28T13:51:51Z</time></trkpt><trkpt lat="45.79944220482326" lon="4.927461707819777"><ele>176.0</ele><time>2026-03-28T13:51:52Z</time></trkpt><trkpt lat="45.799276168235316" lon="4.927429715602084"><ele>176.0</ele><time>2026-03-28T13:51:53Z</time></trkpt><trkpt lat="45.799113504603305" lon="4.927387247030925"><ele>175.33333333333331</ele><time>2026-03-28T13:51:54Z</time></trkpt><trkpt lat="45.798950149764295" lon="4.9273355373710315"><ele>174.66666666666666</ele><time>2026-03-28T13:51:55Z</time></trkpt><trkpt lat="45.79878866993094" lon="4.927281809906484"><ele>174.0</ele><time>2026-03-28T13:51:56Z</time></trkpt><trkpt lat="45.79862399053404" lon="4.927211248522621"><ele>175.0</ele><time>2026-03-28T13:51:57Z</time></trkpt><trkpt lat="45.79845907302127" lon="4.92711890883577"><ele>176.0</ele><time>2026-03-28T13:51:58Z</time></trkpt><trkpt lat="45.798297693253474" lon="4.9270197605898955"><ele>177.0</ele><time>2026-03-28T13:51:59Z</time></trkpt><trkpt lat="45.79813616409173" lon="4.926909287887562"><ele>177.0</ele><time>2026-03-28T13:52:00Z</time></trkpt><trkpt lat="45.79797596042382" lon="4.926782643082751"><ele>177.0</ele><time>2026-03-28T13:52:01Z</time></trkpt><trkpt lat="45.797817932821374" lon="4.9266481263028155"><ele>177.0</ele><time>2026-03-28T13:52:02Z</time></trkpt><trkpt lat="45.79766088163317" lon="4.926505589451469"><ele>176.0</ele><time>2026-03-28T13:52:03Z</time></trkpt><trkpt lat="45.797505262740216" lon="4.926370531367959"><ele>175.0</ele><time>2026-03-28T13:52:04Z</time></trkpt><trkpt lat="45.79735035231512" lon="4.9262470463500545"><ele>174.0</ele><time>2026-03-28T13:52:05Z</time></trkpt><trkpt lat="45.79719503317629" lon="4.926132155201339"><ele>174.0</ele><time>2026-03-28T13:52:06Z</time></trkpt><trkpt lat="45.79703728932722" lon="4.926033743909207"><ele>174.0</ele><time>2026-03-28T13:52:07Z</time></trkpt><trkpt lat="45.796878854401704" lon="4.925943684723589"><ele>174.0</ele><time>2026-03-28T13:52:08Z</time></trkpt><trkpt lat="45.79672034358286" lon="4.925865281858124"><ele>173.33333333333334</ele><time>2026-03-28T13:52:09Z</time></trkpt><trkpt lat="45.79656033498466" lon="4.9257993188891955"><ele>172.66666666666669</ele><time>2026-03-28T13:52:10Z</time></trkpt><trkpt lat="45.7963966662952" lon="4.925741243501609"><ele>172.0</ele><time>2026-03-28T13:52:11Z</time></trkpt><trkpt lat="45.7962338686914" lon="4.925684049714972"><ele>172.0</ele><time>2026-03-28T13:52:12Z</time></trkpt><trkpt lat="45.79607243950985" lon="4.9256235813086695"><ele>172.0</ele><time>2026-03-28T13:52:13Z</time></trkpt><trkpt lat="45.79590769589803" lon="4.9255619717573005"><ele>172.0</ele><time>2026-03-28T13:52:14Z</time></trkpt><trkpt lat="45.795740314561314" lon="4.925483288142084"><ele>172.0</ele><time>2026-03-28T13:52:15Z</time></trkpt><trkpt lat="45.79557963237369" lon="4.925396652527731"><ele>172.0</ele><time>2026-03-28T13:52:16Z</time></trkpt><trkpt lat="45.795425090355764" lon="4.925298278951201"><ele>172.0</ele><time>2026-03-28T13:52:17Z</time></trkpt><trkpt lat="45.795270516906314" lon="4.925183633726268"><ele>172.66666666666669</ele><time>2026-03-28T13:52:18Z</time></trkpt><trkpt lat="45.795124404093905" lon="4.925052433727062"><ele>173.33333333333334</ele><time>2026-03-28T13:52:19Z</time></trkpt><trkpt lat="45.794989906741414" lon="4.9249110481527305"><ele>174.0</ele><time>2026-03-28T13:52:20Z</time></trkpt><trkpt lat="45.794864758995644" lon="4.924753877546158"><ele>174.0</ele><time>2026-03-28T13:52:21Z</time></trkpt><trkpt lat="45.79475555082132" lon="4.924586064657128"><ele>174.0</ele><time>2026-03-28T13:52:22Z</time></trkpt><trkpt lat="45.79465423670667" lon="4.9244069895458376"><ele>174.0</ele><time>2026-03-28T13:52:23Z</time></trkpt><trkpt lat="45.79455913426998" lon="4.924211692049493"><ele>173.66666666666666</ele><time>2026-03-28T13:52:24Z</time></trkpt><trkpt lat="45.79447848865961" lon="4.9240048968812555"><ele>173.33333333333331</ele><time>2026-03-28T13:52:25Z</time></trkpt><trkpt lat="45.794404149313294" lon="4.923788383848192"><ele>173.0</ele><time>2026-03-28T13:52:26Z</time></trkpt><trkpt lat="45.79434570660439" lon="4.923562169149003"><ele>172.33333333333331</ele><time>2026-03-28T13:52:27Z</time></trkpt><trkpt lat="45.79429605867529" lon="4.923336559893768"><ele>171.66666666666666</ele><time>2026-03-28T13:52:28Z</time></trkpt><trkpt lat="45.79424495352882" lon="4.9231089709893245"><ele>171.0</ele><time>2026-03-28T13:52:29Z</time></trkpt><trkpt lat="45.794190087614496" lon="4.9228831564319036"><ele>171.0</ele><time>2026-03-28T13:52:30Z</time></trkpt><trkpt lat="45.794142798457955" lon="4.922662660382371"><ele>171.0</ele><time>2026-03-28T13:52:31Z</time></trkpt><trkpt lat="45.794084168643565" lon="4.922436156494297"><ele>171.0</ele><time>2026-03-28T13:52:32Z</time></trkpt><trkpt lat="45.794040555143134" lon="4.922224426434897"><ele>171.33333333333334</ele><time>2026-03-28T13:52:33Z</time></trkpt><trkpt lat="45.793991932761934" lon="4.9220103137387"><ele>171.66666666666669</ele><time>2026-03-28T13:52:34Z</time></trkpt><trkpt lat="45.793945833943525" lon="4.921803604384907"><ele>172.0</ele><time>2026-03-28T13:52:35Z</time></trkpt><trkpt lat="45.793901590255075" lon="4.9215976089253575"><ele>172.25</ele><time>2026-03-28T13:52:36Z</time></trkpt><trkpt lat="45.79385397900796" lon="4.921394455725799"><ele>172.5</ele><time>2026-03-28T13:52:37Z</time></trkpt><trkpt lat="45.79380510181371" lon="4.921192878500045"><ele>172.75</ele><time>2026-03-28T13:52:38Z</time></trkpt><trkpt lat="45.79376030169942" lon="4.920994638155712"><ele>173.0</ele><time>2026-03-28T13:52:39Z</time></trkpt><trkpt lat="45.793715525532164" lon="4.920800644586113"><ele>172.5</ele><time>2026-03-28T13:52:40Z</time></trkpt><trkpt lat="45.79366754153092" lon="4.920602836774312"><ele>172.0</ele><time>2026-03-28T13:52:41Z</time></trkpt><trkpt lat="45.79362481168316" lon="4.920400736752135"><ele>171.5</ele><time>2026-03-28T13:52:42Z</time></trkpt><trkpt lat="45.793581327806706" lon="4.920196947630026"><ele>171.0</ele><time>2026-03-28T13:52:43Z</time></trkpt><trkpt lat="45.79353574259736" lon="4.919988989431586"><ele>171.33333333333334</ele><time>2026-03-28T13:52:44Z</time></trkpt><trkpt lat="45.7934878051602" lon="4.919779748583586"><ele>171.66666666666669</ele><time>2026-03-28T13:52:45Z</time></trkpt><trkpt lat="45.793439636113376" lon="4.9195698772904"><ele>172.0</ele><time>2026-03-28T13:52:46Z</time></trkpt><trkpt lat="45.79339365961734" lon="4.919362297960785"><ele>172.0</ele><time>2026-03-28T13:52:47Z</time></trkpt><trkpt lat="45.793346540993255" lon="4.919153686420167"><ele>172.0</ele><time>2026-03-28T13:52:48Z</time></trkpt><trkpt lat="45.79329732084157" lon="4.918945277596847"><ele>172.0</ele><time>2026-03-28T13:52:49Z</time></trkpt><trkpt lat="45.79324862409103" lon="4.918736899016887"><ele>172.0</ele><time>2026-03-28T13:52:50Z</time></trkpt><trkpt lat="45.79319973016388" lon="4.9185250249031265"><ele>172.0</ele><time>2026-03-28T13:52:51Z</time></trkpt><trkpt lat="45.79315051680485" lon="4.918310380791893"><ele>172.0</ele><time>2026-03-28T13:52:52Z</time></trkpt><trkpt lat="45.793100234056205" lon="4.918087677069555"><ele>172.0</ele><time>2026-03-28T13:52:53Z</time></trkpt><trkpt lat="45.79304809291547" lon="4.917869961838274"><ele>172.0</ele><time>2026-03-28T13:52:54Z</time></trkpt><trkpt lat="45.79299803272178" lon="4.917654857873516"><ele>172.0</ele><time>2026-03-28T13:52:55Z</time></trkpt><trkpt lat="45.792949910503" lon="4.917444811183244"><ele>172.0</ele><time>2026-03-28T13:52:56Z</time></trkpt><trkpt lat="45.79290202753898" lon="4.917235914903491"><ele>172.0</ele><time>2026-03-28T13:52:57Z</time></trkpt><trkpt lat="45.792858988269025" lon="4.917031363914734"><ele>172.0</ele><time>2026-03-28T13:52:58Z</time></trkpt><trkpt lat="45.792812799671644" lon="4.916824872571006"><ele>171.66666666666669</ele><time>2026-03-28T13:52:59Z</time></trkpt><trkpt lat="45.79276473408407" lon="4.916616403141842"><ele>171.33333333333334</ele><time>2026-03-28T13:53:00Z</time></trkpt><trkpt lat="45.79271610823194" lon="4.916403406548603"><ele>171.0</ele><time>2026-03-28T13:53:01Z</time></trkpt><trkpt lat="45.792667766318445" lon="4.916187721643971"><ele>171.0</ele><time>2026-03-28T13:53:02Z</time></trkpt><trkpt lat="45.79261725382095" lon="4.9159703929934135"><ele>171.0</ele><time>2026-03-28T13:53:03Z</time></trkpt><trkpt lat="45.792568859473924" lon="4.915753728447702"><ele>171.0</ele><time>2026-03-28T13:53:04Z</time></trkpt><trkpt lat="45.792516635236616" lon="4.9155304350861195"><ele>171.33333333333334</ele><time>2026-03-28T13:53:05Z</time></trkpt><trkpt lat="45.792466654462295" lon="4.915300848620714"><ele>171.66666666666669</ele><time>2026-03-28T13:53:06Z</time></trkpt><trkpt lat="45.79241123111388" lon="4.915072350462592"><ele>172.0</ele><time>2026-03-28T13:53:07Z</time></trkpt><trkpt lat="45.79236121803248" lon="4.914844948058247"><ele>172.0</ele><time>2026-03-28T13:53:08Z</time></trkpt><trkpt lat="45.79230820103977" lon="4.914615017997933"><ele>172.0</ele><time>2026-03-28T13:53:09Z</time></trkpt><trkpt lat="45.792255176129586" lon="4.914379838787312"><ele>172.0</ele><time>2026-03-28T13:53:10Z</time></trkpt><trkpt lat="45.79219777157668" lon="4.9141440125340425"><ele>171.66666666666669</ele><time>2026-03-28T13:53:11Z</time></trkpt><trkpt lat="45.79214401868797" lon="4.913913148909359"><ele>171.33333333333334</ele><time>2026-03-28T13:53:12Z</time></trkpt><trkpt lat="45.79209036475908" lon="4.913680106874347"><ele>171.0</ele><time>2026-03-28T13:53:13Z</time></trkpt><trkpt lat="45.792038050707006" lon="4.913446709660706"><ele>171.33333333333334</ele><time>2026-03-28T13:53:14Z</time></trkpt><trkpt lat="45.79198144698934" lon="4.913218386193854"><ele>171.66666666666669</ele><time>2026-03-28T13:53:15Z</time></trkpt><trkpt lat="45.791927335872394" lon="4.912987443325434"><ele>172.0</ele><time>2026-03-28T13:53:16Z</time></trkpt><trkpt lat="45.791873291587876" lon="4.912755598078996"><ele>171.66666666666669</ele><time>2026-03-28T13:53:17Z</time></trkpt><trkpt lat="45.7918218897486" lon="4.912521654239641"><ele>171.33333333333334</ele><time>2026-03-28T13:53:18Z</time></trkpt><trkpt lat="45.791767359104284" lon="4.912284051853138"><ele>171.0</ele><time>2026-03-28T13:53:19Z</time></trkpt><trkpt lat="45.791713628348425" lon="4.912046259619015"><ele>171.0</ele><time>2026-03-28T13:53:20Z</time></trkpt><trkpt lat="45.791658648560606" lon="4.911806117751562"><ele>171.0</ele><time>2026-03-28T13:53:21Z</time></trkpt><trkpt lat="45.79160177097909" lon="4.911560819830479"><ele>171.0</ele><time>2026-03-28T13:53:22Z</time></trkpt><trkpt lat="45.79154663088573" lon="4.9113204203175"><ele>171.0</ele><time>2026-03-28T13:53:23Z</time></trkpt><trkpt lat="45.79149170725902" lon="4.911078357599783"><ele>171.0</ele><time>2026-03-28T13:53:24Z</time></trkpt><trkpt lat="45.79143572536238" lon="4.910837717961801"><ele>171.0</ele><time>2026-03-28T13:53:25Z</time></trkpt><trkpt lat="45.79138150153123" lon="4.910599667190093"><ele>171.0</ele><time>2026-03-28T13:53:26Z</time></trkpt><trkpt lat="45.79132761711857" lon="4.910360839291535"><ele>171.0</ele><time>2026-03-28T13:53:27Z</time></trkpt><trkpt lat="45.79127054597718" lon="4.910119052383134"><ele>171.0</ele><time>2026-03-28T13:53:28Z</time></trkpt><trkpt lat="45.79120823729607" lon="4.9098694556140074"><ele>171.0</ele><time>2026-03-28T13:53:29Z</time></trkpt><trkpt lat="45.79115156893363" lon="4.909618585349281"><ele>171.0</ele><time>2026-03-28T13:53:30Z</time></trkpt><trkpt lat="45.79109288515923" lon="4.909366017364547"><ele>171.0</ele><time>2026-03-28T13:53:31Z</time></trkpt><trkpt lat="45.79103170197448" lon="4.909108388455542"><ele>171.0</ele><time>2026-03-28T13:53:32Z</time></trkpt><trkpt lat="45.79097419389774" lon="4.908857079749155"><ele>171.0</ele><time>2026-03-28T13:53:33Z</time></trkpt><trkpt lat="45.790915163040864" lon="4.908604536790296"><ele>171.0</ele><time>2026-03-28T13:53:34Z</time></trkpt><trkpt lat="45.79085528864722" lon="4.908348017892007"><ele>170.0</ele><time>2026-03-28T13:53:35Z</time></trkpt><trkpt lat="45.79079847393709" lon="4.908095425699322"><ele>169.0</ele><time>2026-03-28T13:53:36Z</time></trkpt><trkpt lat="45.79073973782985" lon="4.9078389932017314"><ele>168.0</ele><time>2026-03-28T13:53:37Z</time></trkpt><trkpt lat="45.790680463175505" lon="4.907582123870642"><ele>169.33333333333334</ele><time>2026-03-28T13:53:38Z</time></trkpt><trkpt lat="45.7906178261976" lon="4.907323502695608"><ele>170.66666666666669</ele><time>2026-03-28T13:53:39Z</time></trkpt><trkpt lat="45.79055731518985" lon="4.907061829008516"><ele>172.0</ele><time>2026-03-28T13:53:40Z</time></trkpt><trkpt lat="45.7904994422621" lon="4.906799804655898"><ele>172.66666666666669</ele><time>2026-03-28T13:53:41Z</time></trkpt><trkpt lat="45.79043890975745" lon="4.906532490856961"><ele>173.33333333333334</ele><time>2026-03-28T13:53:42Z</time></trkpt><trkpt lat="45.79037692400041" lon="4.906267444598924"><ele>174.0</ele><time>2026-03-28T13:53:43Z</time></trkpt><trkpt lat="45.79031807932091" lon="4.906000245164247"><ele>174.0</ele><time>2026-03-28T13:53:44Z</time></trkpt><trkpt lat="45.79025326499803" lon="4.905728410858656"><ele>174.0</ele><time>2026-03-28T13:53:45Z</time></trkpt><trkpt lat="45.79019097562985" lon="4.905455777942413"><ele>174.0</ele><time>2026-03-28T13:53:46Z</time></trkpt><trkpt lat="45.79012525249994" lon="4.905174816687563"><ele>174.0</ele><time>2026-03-28T13:53:47Z</time></trkpt><trkpt lat="45.7900622340551" lon="4.904901492186163"><ele>174.0</ele><time>2026-03-28T13:53:48Z</time></trkpt><trkpt lat="45.79000038152007" lon="4.904627450288102"><ele>174.0</ele><time>2026-03-28T13:53:49Z</time></trkpt><trkpt lat="45.789936744447346" lon="4.9043541131706645"><ele>174.33333333333334</ele><time>2026-03-28T13:53:50Z</time></trkpt><trkpt lat="45.78986926347382" lon="4.904081774975966"><ele>174.66666666666669</ele><time>2026-03-28T13:53:51Z</time></trkpt><trkpt lat="45.789792847372354" lon="4.903804217723696"><ele>175.0</ele><time>2026-03-28T13:53:52Z</time></trkpt><trkpt lat="45.7897132096267" lon="4.9035294283355215"><ele>176.0</ele><time>2026-03-28T13:53:53Z</time></trkpt><trkpt lat="45.789621645552245" lon="4.903262206278319"><ele>177.0</ele><time>2026-03-28T13:53:54Z</time></trkpt><trkpt lat="45.78952678439784" lon="4.903001843159043"><ele>178.0</ele><time>2026-03-28T13:53:55Z</time></trkpt><trkpt lat="45.789425121466245" lon="4.902744455669972"><ele>176.0</ele><time>2026-03-28T13:53:56Z</time></trkpt><trkpt lat="45.78931652182449" lon="4.90248942561426"><ele>174.0</ele><time>2026-03-28T13:53:57Z</time></trkpt><trkpt lat="45.789199648173486" lon="4.902240408833992"><ele>172.0</ele><time>2026-03-28T13:53:58Z</time></trkpt><trkpt lat="45.78908164302007" lon="4.902000098328968"><ele>172.0</ele><time>2026-03-28T13:53:59Z</time></trkpt><trkpt lat="45.788957317491395" lon="4.901762576336195"><ele>172.0</ele><time>2026-03-28T13:54:00Z</time></trkpt><trkpt lat="45.78882791168104" lon="4.901533035536622"><ele>172.0</ele><time>2026-03-28T13:54:01Z</time></trkpt><trkpt lat="45.78868846350051" lon="4.901310080643396"><ele>171.66666666666669</ele><time>2026-03-28T13:54:02Z</time></trkpt><trkpt lat="45.78854261917732" lon="4.901096834855074"><ele>171.33333333333334</ele><time>2026-03-28T13:54:03Z</time></trkpt><trkpt lat="45.78838609903999" lon="4.900897530905405"><ele>171.0</ele><time>2026-03-28T13:54:04Z</time></trkpt><trkpt lat="45.78822342976972" lon="4.90070554047731"><ele>170.33333333333334</ele><time>2026-03-28T13:54:05Z</time></trkpt><trkpt lat="45.78805101904237" lon="4.900515248357939"><ele>169.66666666666669</ele><time>2026-03-28T13:54:06Z</time></trkpt><trkpt lat="45.787876516161354" lon="4.900330206761544"><ele>169.0</ele><time>2026-03-28T13:54:07Z</time></trkpt><trkpt lat="45.787698856819105" lon="4.900149228870398"><ele>169.33333333333334</ele><time>2026-03-28T13:54:08Z</time></trkpt><trkpt lat="45.78752126500682" lon="4.899972891263203"><ele>169.66666666666666</ele><time>2026-03-28T13:54:09Z</time></trkpt><trkpt lat="45.78733992557089" lon="4.899797370331751"><ele>170.0</ele><time>2026-03-28T13:54:10Z</time></trkpt><trkpt lat="45.78715927262701" lon="4.899621040731975"><ele>170.0</ele><time>2026-03-28T13:54:11Z</time></trkpt><trkpt lat="45.786982833720316" lon="4.899445702114078"><ele>170.0</ele><time>2026-03-28T13:54:12Z</time></trkpt><trkpt lat="45.786802580446526" lon="4.899266012177979"><ele>170.0</ele><time>2026-03-28T13:54:13Z</time></trkpt><trkpt lat="45.78662214363485" lon="4.899085331405642"><ele>170.66666666666666</ele><time>2026-03-28T13:54:14Z</time></trkpt><trkpt lat="45.78644215976261" lon="4.8989012440105215"><ele>171.33333333333334</ele><time>2026-03-28T13:54:15Z</time></trkpt><trkpt lat="45.78626224529931" lon="4.8987108929017085"><ele>172.0</ele><time>2026-03-28T13:54:16Z</time></trkpt><trkpt lat="45.78608584606664" lon="4.898523755922834"><ele>171.33333333333334</ele><time>2026-03-28T13:54:17Z</time></trkpt><trkpt lat="45.785914322260396" lon="4.898333423036289"><ele>170.66666666666666</ele><time>2026-03-28T13:54:18Z</time></trkpt><trkpt lat="45.78574258151253" lon="4.898136453546599"><ele>170.0</ele><time>2026-03-28T13:54:19Z</time></trkpt><trkpt lat="45.78557217636434" lon="4.897936219038348"><ele>170.0</ele><time>2026-03-28T13:54:20Z</time></trkpt><trkpt lat="45.78540423130633" lon="4.897730640575337"><ele>170.0</ele><time>2026-03-28T13:54:21Z</time></trkpt><trkpt lat="45.785244370081635" lon="4.897517406702055"><ele>170.0</ele><time>2026-03-28T13:54:22Z</time></trkpt><trkpt lat="45.785092619682" lon="4.897300847688152"><ele>170.66666666666666</ele><time>2026-03-28T13:54:23Z</time></trkpt><trkpt lat="45.78494477982719" lon="4.897079365105279"><ele>171.33333333333334</ele><time>2026-03-28T13:54:24Z</time></trkpt><trkpt lat="45.78480306314618" lon="4.896849624478129"><ele>172.0</ele><time>2026-03-28T13:54:25Z</time></trkpt><trkpt lat="45.78467300622645" lon="4.8966176648681605"><ele>172.0</ele><time>2026-03-28T13:54:26Z</time></trkpt><trkpt lat="45.784552994193184" lon="4.896382082264527"><ele>172.0</ele><time>2026-03-28T13:54:27Z</time></trkpt><trkpt lat="45.78444315728624" lon="4.8961421655098105"><ele>172.0</ele><time>2026-03-28T13:54:28Z</time></trkpt><trkpt lat="45.784337526456575" lon="4.895892479701107"><ele>172.0</ele><time>2026-03-28T13:54:29Z</time></trkpt><trkpt lat="45.784239618110206" lon="4.895637861715929"><ele>172.0</ele><time>2026-03-28T13:54:30Z</time></trkpt><trkpt lat="45.784154121317016" lon="4.895381582122199"><ele>172.0</ele><time>2026-03-28T13:54:31Z</time></trkpt><trkpt lat="45.7840763197753" lon="4.895125490141597"><ele>173.33333333333334</ele><time>2026-03-28T13:54:32Z</time></trkpt><trkpt lat="45.78400799978098" lon="4.894870032855917"><ele>174.66666666666666</ele><time>2026-03-28T13:54:33Z</time></trkpt><trkpt lat="45.78394447787404" lon="4.894617652617148"><ele>176.0</ele><time>2026-03-28T13:54:34Z</time></trkpt><trkpt lat="45.7838894531436" lon="4.894371132732924"><ele>174.66666666666666</ele><time>2026-03-28T13:54:35Z</time></trkpt><trkpt lat="45.78383694595134" lon="4.894134061499232"><ele>173.33333333333334</ele><time>2026-03-28T13:54:36Z</time></trkpt><trkpt lat="45.78378441386423" lon="4.89390654875977"><ele>172.0</ele><time>2026-03-28T13:54:37Z</time></trkpt><trkpt lat="45.78373364781114" lon="4.893684650235772"><ele>172.0</ele><time>2026-03-28T13:54:38Z</time></trkpt><trkpt lat="45.78368250336707" lon="4.893464043919654"><ele>172.0</ele><time>2026-03-28T13:54:39Z</time></trkpt><trkpt lat="45.783633528161424" lon="4.893250418993886"><ele>172.0</ele><time>2026-03-28T13:54:40Z</time></trkpt><trkpt lat="45.78358575516458" lon="4.893048536387433"><ele>171.75</ele><time>2026-03-28T13:54:41Z</time></trkpt><trkpt lat="45.78354037934497" lon="4.892856123180962"><ele>171.5</ele><time>2026-03-28T13:54:42Z</time></trkpt><trkpt lat="45.78349444745965" lon="4.892672006276077"><ele>171.25</ele><time>2026-03-28T13:54:43Z</time></trkpt><trkpt lat="45.78344829483878" lon="4.892490979205262"><ele>171.0</ele><time>2026-03-28T13:54:44Z</time></trkpt><trkpt lat="45.78339211263842" lon="4.892321084947365"><ele>171.5</ele><time>2026-03-28T13:54:45Z</time></trkpt><trkpt lat="45.7833267448806" lon="4.892153969999115"><ele>172.0</ele><time>2026-03-28T13:54:46Z</time></trkpt><trkpt lat="45.78325832539376" lon="4.8919876430627065"><ele>172.5</ele><time>2026-03-28T13:54:47Z</time></trkpt><trkpt lat="45.783188034494145" lon="4.891825410840913"><ele>173.0</ele><time>2026-03-28T13:54:48Z</time></trkpt><trkpt lat="45.78311519342131" lon="4.891666483455416"><ele>173.5</ele><time>2026-03-28T13:54:49Z</time></trkpt><trkpt lat="45.783036051763496" lon="4.8915197786872024"><ele>174.0</ele><time>2026-03-28T13:54:50Z</time></trkpt><trkpt lat="45.782948026177806" lon="4.891388631450091"><ele>174.5</ele><time>2026-03-28T13:54:51Z</time></trkpt><trkpt lat="45.7828535180153" lon="4.891278001409885"><ele>175.0</ele><time>2026-03-28T13:54:52Z</time></trkpt><trkpt lat="45.7827462729513" lon="4.891191016959109"><ele>175.0</ele><time>2026-03-28T13:54:53Z</time></trkpt><trkpt lat="45.78263874014179" lon="4.891135295098811"><ele>175.0</ele><time>2026-03-28T13:54:54Z</time></trkpt><trkpt lat="45.78251937581114" lon="4.891121621108709"><ele>175.0</ele><time>2026-03-28T13:54:55Z</time></trkpt><trkpt lat="45.78240215213651" lon="4.891171134958256"><ele>175.0</ele><time>2026-03-28T13:54:56Z</time></trkpt><trkpt lat="45.78230435595723" lon="4.891247278030915"><ele>175.0</ele><time>2026-03-28T13:54:57Z</time></trkpt><trkpt lat="45.78221923887964" lon="4.891351491114685"><ele>175.0</ele><time>2026-03-28T13:54:58Z</time></trkpt><trkpt lat="45.78215051808368" lon="4.891491148845129"><ele>175.0</ele><time>2026-03-28T13:54:59Z</time></trkpt><trkpt lat="45.782112824031444" lon="4.89165471150653"><ele>175.0</ele><time>2026-03-28T13:55:00Z</time></trkpt><trkpt lat="45.78210061323785" lon="4.891831327647206"><ele>175.25</ele><time>2026-03-28T13:55:01Z</time></trkpt><trkpt lat="45.78212090126689" lon="4.892010725298405"><ele>175.5</ele><time>2026-03-28T13:55:02Z</time></trkpt><trkpt lat="45.782147374073574" lon="4.8921878282561195"><ele>175.75</ele><time>2026-03-28T13:55:03Z</time></trkpt><trkpt lat="45.782156026925136" lon="4.892358712158625"><ele>176.0</ele><time>2026-03-28T13:55:04Z</time></trkpt><trkpt lat="45.782113486905104" lon="4.892516972415504"><ele>175.25</ele><time>2026-03-28T13:55:05Z</time></trkpt><trkpt lat="45.78202285623952" lon="4.892632841824858"><ele>174.5</ele><time>2026-03-28T13:55:06Z</time></trkpt><trkpt lat="45.78192389820135" lon="4.892723613429764"><ele>173.75</ele><time>2026-03-28T13:55:07Z</time></trkpt><trkpt lat="45.78182280722762" lon="4.8928207714358045"><ele>173.0</ele><time>2026-03-28T13:55:08Z</time></trkpt><trkpt lat="45.781712267515964" lon="4.8929237492807784"><ele>173.0</ele><time>2026-03-28T13:55:09Z</time></trkpt><trkpt lat="45.78159909474383" lon="4.893026771326428"><ele>173.0</ele><time>2026-03-28T13:55:10Z</time></trkpt><trkpt lat="45.78147797125986" lon="4.893139058382503"><ele>173.0</ele><time>2026-03-28T13:55:11Z</time></trkpt><trkpt lat="45.78135364773349" lon="4.893257308234672"><ele>173.0</ele><time>2026-03-28T13:55:12Z</time></trkpt><trkpt lat="45.78122090181064" lon="4.8933774184821015"><ele>172.66666666666666</ele><time>2026-03-28T13:55:13Z</time></trkpt><trkpt lat="45.7810800304586" lon="4.893499233071417"><ele>172.33333333333334</ele><time>2026-03-28T13:55:14Z</time></trkpt><trkpt lat="45.78093975844145" lon="4.893617834772606"><ele>172.0</ele><time>2026-03-28T13:55:15Z</time></trkpt><trkpt lat="45.78079378323066" lon="4.893738083350021"><ele>172.0</ele><time>2026-03-28T13:55:16Z</time></trkpt><trkpt lat="45.78064986901723" lon="4.893858345271353"><ele>172.0</ele><time>2026-03-28T13:55:17Z</time></trkpt><trkpt lat="45.7805097281075" lon="4.893976951280887"><ele>172.0</ele><time>2026-03-28T13:55:18Z</time></trkpt><trkpt lat="45.78037121669871" lon="4.894094817848627"><ele>172.0</ele><time>2026-03-28T13:55:19Z</time></trkpt><trkpt lat="45.780232705890825" lon="4.8942136439976744"><ele>172.0</ele><time>2026-03-28T13:55:20Z</time></trkpt><trkpt lat="45.78009894470688" lon="4.8943314050639115"><ele>172.0</ele><time>2026-03-28T13:55:21Z</time></trkpt><trkpt lat="45.7799626380691" lon="4.894450108765391"><ele>172.0</ele><time>2026-03-28T13:55:22Z</time></trkpt><trkpt lat="45.779822903996994" lon="4.894564451970794"><ele>172.0</ele><time>2026-03-28T13:55:23Z</time></trkpt><trkpt lat="45.77968848650148" lon="4.894675716919191"><ele>172.0</ele><time>2026-03-28T13:55:24Z</time></trkpt><trkpt lat="45.77955067881066" lon="4.89478427846809"><ele>172.0</ele><time>2026-03-28T13:55:25Z</time></trkpt><trkpt lat="45.7794135338199" lon="4.894893494518633"><ele>172.0</ele><time>2026-03-28T13:55:26Z</time></trkpt><trkpt lat="45.779279754445845" lon="4.895000728150056"><ele>172.0</ele><time>2026-03-28T13:55:27Z</time></trkpt><trkpt lat="45.779153263362446" lon="4.895109891714801"><ele>172.0</ele><time>2026-03-28T13:55:28Z</time></trkpt><trkpt lat="45.779016316333454" lon="4.8952137114955345"><ele>172.0</ele><time>2026-03-28T13:55:29Z</time></trkpt><trkpt lat="45.77888641890371" lon="4.895322031623169"><ele>172.0</ele><time>2026-03-28T13:55:30Z</time></trkpt><trkpt lat="45.778754937737226" lon="4.895428873889908"><ele>172.0</ele><time>2026-03-28T13:55:31Z</time></trkpt><trkpt lat="45.778626093079154" lon="4.8955354595418425"><ele>172.0</ele><time>2026-03-28T13:55:32Z</time></trkpt><trkpt lat="45.77849767199505" lon="4.895640809327919"><ele>172.0</ele><time>2026-03-28T13:55:33Z</time></trkpt><trkpt lat="45.77837237614141" lon="4.895746263285156"><ele>172.0</ele><time>2026-03-28T13:55:34Z</time></trkpt><trkpt lat="45.77824814237387" lon="4.895850052283006"><ele>172.0</ele><time>2026-03-28T13:55:35Z</time></trkpt><trkpt lat="45.778124272744726" lon="4.895950544679017"><ele>172.0</ele><time>2026-03-28T13:55:36Z</time></trkpt><trkpt lat="45.77800044419398" lon="4.896053360813855"><ele>172.0</ele><time>2026-03-28T13:55:37Z</time></trkpt><trkpt lat="45.77787659038762" lon="4.8961558855826395"><ele>172.0</ele><time>2026-03-28T13:55:38Z</time></trkpt><trkpt lat="45.77775611765233" lon="4.896267228633239"><ele>172.25</ele><time>2026-03-28T13:55:39Z</time></trkpt><trkpt lat="45.7776319410924" lon="4.89637721056714"><ele>172.5</ele><time>2026-03-28T13:55:40Z</time></trkpt><trkpt lat="45.77750637254572" lon="4.896486233034174"><ele>172.75</ele><time>2026-03-28T13:55:41Z</time></trkpt><trkpt lat="45.77737912617107" lon="4.896593441151709"><ele>173.0</ele><time>2026-03-28T13:55:42Z</time></trkpt><trkpt lat="45.777250642640446" lon="4.896701804022737"><ele>173.0</ele><time>2026-03-28T13:55:43Z</time></trkpt><trkpt lat="45.77712161944481" lon="4.896808673777099"><ele>173.0</ele><time>2026-03-28T13:55:44Z</time></trkpt><trkpt lat="45.77699159453092" lon="4.8969148719428555"><ele>173.0</ele><time>2026-03-28T13:55:45Z</time></trkpt><trkpt lat="45.7768606814749" lon="4.897022299360154"><ele>173.0</ele><time>2026-03-28T13:55:46Z</time></trkpt><trkpt lat="45.77673084965148" lon="4.897129897275809"><ele>173.0</ele><time>2026-03-28T13:55:47Z</time></trkpt><trkpt lat="45.77660062784438" lon="4.89723780173478"><ele>173.0</ele><time>2026-03-28T13:55:48Z</time></trkpt><trkpt lat="45.77646613701143" lon="4.897343939759721"><ele>173.0</ele><time>2026-03-28T13:55:49Z</time></trkpt><trkpt lat="45.77633405019668" lon="4.897453364105766"><ele>173.0</ele><time>2026-03-28T13:55:50Z</time></trkpt><trkpt lat="45.776200531303786" lon="4.897565122150228"><ele>173.0</ele><time>2026-03-28T13:55:51Z</time></trkpt><trkpt lat="45.7760668357508" lon="4.897676377681595"><ele>173.0</ele><time>2026-03-28T13:55:52Z</time></trkpt><trkpt lat="45.77593287512187" lon="4.897788002781298"><ele>173.0</ele><time>2026-03-28T13:55:53Z</time></trkpt><trkpt lat="45.77579829802186" lon="4.897901145225946"><ele>173.0</ele><time>2026-03-28T13:55:54Z</time></trkpt><trkpt lat="45.77566021451484" lon="4.898014638581716"><ele>173.0</ele><time>2026-03-28T13:55:55Z</time></trkpt><trkpt lat="45.77552461581843" lon="4.898128022682627"><ele>173.0</ele><time>2026-03-28T13:55:56Z</time></trkpt><trkpt lat="45.7753865614242" lon="4.898242200080151"><ele>173.0</ele><time>2026-03-28T13:55:57Z</time></trkpt><trkpt lat="45.775247454305045" lon="4.898357379955398"><ele>173.0</ele><time>2026-03-28T13:55:58Z</time></trkpt><trkpt lat="45.77510745720799" lon="4.89847146709247"><ele>173.0</ele><time>2026-03-28T13:55:59Z</time></trkpt><trkpt lat="45.77496566823624" lon="4.898585765963404"><ele>173.0</ele><time>2026-03-28T13:56:00Z</time></trkpt><trkpt lat="45.774826216872086" lon="4.898701135771524"><ele>173.0</ele><time>2026-03-28T13:56:01Z</time></trkpt><trkpt lat="45.774685240955435" lon="4.89881702141556"><ele>173.0</ele><time>2026-03-28T13:56:02Z</time></trkpt><trkpt lat="45.77454412008654" lon="4.898933231263248"><ele>173.0</ele><time>2026-03-28T13:56:03Z</time></trkpt><trkpt lat="45.77440432860935" lon="4.899048331400053"><ele>173.0</ele><time>2026-03-28T13:56:04Z</time></trkpt><trkpt lat="45.7742671899728" lon="4.899162512542512"><ele>173.33333333333331</ele><time>2026-03-28T13:56:05Z</time></trkpt><trkpt lat="45.7741289947379" lon="4.899277119183467"><ele>173.66666666666666</ele><time>2026-03-28T13:56:06Z</time></trkpt><trkpt lat="45.773989322704075" lon="4.899389554823862"><ele>174.0</ele><time>2026-03-28T13:56:07Z</time></trkpt><trkpt lat="45.77384940008297" lon="4.8995055228906566"><ele>174.0</ele><time>2026-03-28T13:56:08Z</time></trkpt><trkpt lat="45.77371067378322" lon="4.89962010361327"><ele>174.0</ele><time>2026-03-28T13:56:09Z</time></trkpt><trkpt lat="45.773570394432674" lon="4.899737511789328"><ele>174.0</ele><time>2026-03-28T13:56:10Z</time></trkpt><trkpt lat="45.773433258402164" lon="4.8998530627281225"><ele>173.66666666666666</ele><time>2026-03-28T13:56:11Z</time></trkpt><trkpt lat="45.77329600691146" lon="4.899968300311536"><ele>173.33333333333331</ele><time>2026-03-28T13:56:12Z</time></trkpt><trkpt lat="45.77315879192049" lon="4.900081555588056"><ele>173.0</ele><time>2026-03-28T13:56:13Z</time></trkpt><trkpt lat="45.773021175325844" lon="4.900193931946109"><ele>173.0</ele><time>2026-03-28T13:56:14Z</time></trkpt><trkpt lat="45.7728845077799" lon="4.9003067493585695"><ele>173.0</ele><time>2026-03-28T13:56:15Z</time></trkpt><trkpt lat="45.77275057590767" lon="4.900417646056665"><ele>173.0</ele><time>2026-03-28T13:56:16Z</time></trkpt><trkpt lat="45.77261680687482" lon="4.900528053514178"><ele>173.66666666666666</ele><time>2026-03-28T13:56:17Z</time></trkpt><trkpt lat="45.77248438786373" lon="4.900637948581664"><ele>174.33333333333334</ele><time>2026-03-28T13:56:18Z</time></trkpt><trkpt lat="45.7723526553494" lon="4.900743084283637"><ele>175.0</ele><time>2026-03-28T13:56:19Z</time></trkpt><trkpt lat="45.772223645570286" lon="4.90084801529997"><ele>174.66666666666669</ele><time>2026-03-28T13:56:20Z</time></trkpt><trkpt lat="45.77209222124827" lon="4.900955708888245"><ele>174.33333333333334</ele><time>2026-03-28T13:56:21Z</time></trkpt><trkpt lat="45.771961841869945" lon="4.901062802680333"><ele>174.0</ele><time>2026-03-28T13:56:22Z</time></trkpt><trkpt lat="45.771830520816785" lon="4.901168924844982"><ele>174.0</ele><time>2026-03-28T13:56:23Z</time></trkpt><trkpt lat="45.77169931674947" lon="4.901274410327915"><ele>174.0</ele><time>2026-03-28T13:56:24Z</time></trkpt><trkpt lat="45.771570861705406" lon="4.9013783021057185"><ele>174.0</ele><time>2026-03-28T13:56:25Z</time></trkpt><trkpt lat="45.771443790194695" lon="4.9014808815277835"><ele>174.0</ele><time>2026-03-28T13:56:26Z</time></trkpt><trkpt lat="45.77131888521028" lon="4.901583193034173"><ele>174.0</ele><time>2026-03-28T13:56:27Z</time></trkpt><trkpt lat="45.77119509285687" lon="4.9016850398926035"><ele>174.0</ele><time>2026-03-28T13:56:28Z</time></trkpt><trkpt lat="45.771071981168674" lon="4.901785028133462"><ele>174.0</ele><time>2026-03-28T13:56:29Z</time></trkpt><trkpt lat="45.77095138430935" lon="4.901882705781257"><ele>174.0</ele><time>2026-03-28T13:56:30Z</time></trkpt><trkpt lat="45.77082810572501" lon="4.901982203762513"><ele>173.75</ele><time>2026-03-28T13:56:31Z</time></trkpt><trkpt lat="45.770705864571994" lon="4.902082382796395"><ele>173.5</ele><time>2026-03-28T13:56:32Z</time></trkpt><trkpt lat="45.77058128713242" lon="4.902183110238479"><ele>173.25</ele><time>2026-03-28T13:56:33Z</time></trkpt><trkpt lat="45.77045874154826" lon="4.902281991623101"><ele>173.0</ele><time>2026-03-28T13:56:34Z</time></trkpt><trkpt lat="45.770335221417376" lon="4.902380333566614"><ele>173.0</ele><time>2026-03-28T13:56:35Z</time></trkpt><trkpt lat="45.77021486804275" lon="4.902479192021602"><ele>173.0</ele><time>2026-03-28T13:56:36Z</time></trkpt><trkpt lat="45.77009680117079" lon="4.902574247536231"><ele>173.0</ele><time>2026-03-28T13:56:37Z</time></trkpt><trkpt lat="45.76997747221926" lon="4.9026709320168385"><ele>173.0</ele><time>2026-03-28T13:56:38Z</time></trkpt><trkpt lat="45.769860625272734" lon="4.9027721524320285"><ele>173.25</ele><time>2026-03-28T13:56:39Z</time></trkpt><trkpt lat="45.76974240118781" lon="4.90287260677716"><ele>173.5</ele><time>2026-03-28T13:56:40Z</time></trkpt><trkpt lat="45.76962339829517" lon="4.90297298233237"><ele>173.75</ele><time>2026-03-28T13:56:41Z</time></trkpt><trkpt lat="45.769499856716244" lon="4.903073788498271"><ele>174.0</ele><time>2026-03-28T13:56:42Z</time></trkpt><trkpt lat="45.76938400347429" lon="4.903180264192214"><ele>174.0</ele><time>2026-03-28T13:56:43Z</time></trkpt><trkpt lat="45.76926700653665" lon="4.903281693603924"><ele>174.0</ele><time>2026-03-28T13:56:44Z</time></trkpt><trkpt lat="45.7691442572656" lon="4.903387476428547"><ele>174.0</ele><time>2026-03-28T13:56:45Z</time></trkpt><trkpt lat="45.76902526188759" lon="4.903494685538685"><ele>174.0</ele><time>2026-03-28T13:56:46Z</time></trkpt><trkpt lat="45.768904671429766" lon="4.903600912006598"><ele>174.0</ele><time>2026-03-28T13:56:47Z</time></trkpt><trkpt lat="45.768785040060706" lon="4.903704153217881"><ele>174.0</ele><time>2026-03-28T13:56:48Z</time></trkpt><trkpt lat="45.76866589760757" lon="4.903811759384731"><ele>174.0</ele><time>2026-03-28T13:56:49Z</time></trkpt><trkpt lat="45.76854538011529" lon="4.90391536423365"><ele>174.0</ele><time>2026-03-28T13:56:50Z</time></trkpt><trkpt lat="45.768424106114885" lon="4.904018214110562"><ele>174.25</ele><time>2026-03-28T13:56:51Z</time></trkpt><trkpt lat="45.76830160582118" lon="4.904118800165884"><ele>174.5</ele><time>2026-03-28T13:56:52Z</time></trkpt><trkpt lat="45.76817812135499" lon="4.904221183246637"><ele>174.75</ele><time>2026-03-28T13:56:53Z</time></trkpt><trkpt lat="45.768054664993116" lon="4.9043217571317435"><ele>175.0</ele><time>2026-03-28T13:56:54Z</time></trkpt><trkpt lat="45.767933017237354" lon="4.904423823217561"><ele>175.0</ele><time>2026-03-28T13:56:55Z</time></trkpt><trkpt lat="45.767809998629694" lon="4.9045248948468"><ele>175.0</ele><time>2026-03-28T13:56:56Z</time></trkpt><trkpt lat="45.76768767805914" lon="4.904626552290084"><ele>175.0</ele><time>2026-03-28T13:56:57Z</time></trkpt><trkpt lat="45.7675730398844" lon="4.90473508841154"><ele>175.0</ele><time>2026-03-28T13:56:58Z</time></trkpt><trkpt lat="45.767450135051284" lon="4.9048320784813395"><ele>175.25</ele><time>2026-03-28T13:56:59Z</time></trkpt><trkpt lat="45.767332055808055" lon="4.904930476858365"><ele>175.5</ele><time>2026-03-28T13:57:00Z</time></trkpt><trkpt lat="45.76721416527962" lon="4.905031999220743"><ele>175.75</ele><time>2026-03-28T13:57:01Z</time></trkpt><trkpt lat="45.767094494541695" lon="4.905129330441291"><ele>176.0</ele><time>2026-03-28T13:57:02Z</time></trkpt><trkpt lat="45.76699531166879" lon="4.905232887410787"><ele>176.25</ele><time>2026-03-28T13:57:03Z</time></trkpt><trkpt lat="45.76687182553485" lon="4.905331101134959"><ele>176.5</ele><time>2026-03-28T13:57:04Z</time></trkpt><trkpt lat="45.766752517933824" lon="4.905434617754589"><ele>176.75</ele><time>2026-03-28T13:57:05Z</time></trkpt><trkpt lat="45.76663446764852" lon="4.905533550268708"><ele>177.0</ele><time>2026-03-28T13:57:06Z</time></trkpt><trkpt lat="45.766511856091846" lon="4.905638863770768"><ele>178.25</ele><time>2026-03-28T13:57:07Z</time></trkpt><trkpt lat="45.76639051576721" lon="4.905752327852337"><ele>179.5</ele><time>2026-03-28T13:57:08Z</time></trkpt><trkpt lat="45.766274027278975" lon="4.905860363139697"><ele>180.75</ele><time>2026-03-28T13:57:09Z</time></trkpt><trkpt lat="45.766156903293854" lon="4.905966869998011"><ele>182.0</ele><time>2026-03-28T13:57:10Z</time></trkpt><trkpt lat="45.766041111086345" lon="4.906072387842765"><ele>181.5</ele><time>2026-03-28T13:57:11Z</time></trkpt><trkpt lat="45.76592135467669" lon="4.906176955733302"><ele>181.0</ele><time>2026-03-28T13:57:12Z</time></trkpt><trkpt lat="45.76580583959943" lon="4.906287790997641"><ele>180.5</ele><time>2026-03-28T13:57:13Z</time></trkpt><trkpt lat="45.76569340780098" lon="4.906399727792533"><ele>180.0</ele><time>2026-03-28T13:57:14Z</time></trkpt><trkpt lat="45.765575586533814" lon="4.906512790596851"><ele>180.0</ele><time>2026-03-28T13:57:15Z</time></trkpt><trkpt lat="45.76546145337146" lon="4.906621729959453"><ele>180.0</ele><time>2026-03-28T13:57:16Z</time></trkpt><trkpt lat="45.76533504532585" lon="4.906734247322855"><ele>180.0</ele><time>2026-03-28T13:57:17Z</time></trkpt><trkpt lat="45.76521243888243" lon="4.90685754599312"><ele>180.0</ele><time>2026-03-28T13:57:18Z</time></trkpt><trkpt lat="45.76509312238192" lon="4.906980332267059"><ele>179.0</ele><time>2026-03-28T13:57:19Z</time></trkpt><trkpt lat="45.76497639251574" lon="4.907106299692597"><ele>178.0</ele><time>2026-03-28T13:57:20Z</time></trkpt><trkpt lat="45.76486164686051" lon="4.907228790475394"><ele>177.0</ele><time>2026-03-28T13:57:21Z</time></trkpt><trkpt lat="45.76475421464039" lon="4.907347632440588"><ele>176.0</ele><time>2026-03-28T13:57:22Z</time></trkpt><trkpt lat="45.76464532130381" lon="4.907468466682437"><ele>176.25</ele><time>2026-03-28T13:57:23Z</time></trkpt><trkpt lat="45.764536893150556" lon="4.907592349667905"><ele>176.5</ele><time>2026-03-28T13:57:24Z</time></trkpt><trkpt lat="45.764422675415354" lon="4.907722774564968"><ele>176.75</ele><time>2026-03-28T13:57:25Z</time></trkpt><trkpt lat="45.764314644982235" lon="4.9078438128160125"><ele>177.0</ele><time>2026-03-28T13:57:26Z</time></trkpt><trkpt lat="45.76420674772421" lon="4.907963061233308"><ele>177.5</ele><time>2026-03-28T13:57:27Z</time></trkpt><trkpt lat="45.76409747611372" lon="4.908087388240793"><ele>178.0</ele><time>2026-03-28T13:57:28Z</time></trkpt><trkpt lat="45.76398737057539" lon="4.9082100136907325"><ele>178.5</ele><time>2026-03-28T13:57:29Z</time></trkpt><trkpt lat="45.76386893760118" lon="4.908335415285792"><ele>179.0</ele><time>2026-03-28T13:57:30Z</time></trkpt><trkpt lat="45.763750622721" lon="4.908457507771779"><ele>179.5</ele><time>2026-03-28T13:57:31Z</time></trkpt><trkpt lat="45.76363351769321" lon="4.908588958646914"><ele>180.0</ele><time>2026-03-28T13:57:32Z</time></trkpt><trkpt lat="45.763516745496524" lon="4.908711513443767"><ele>180.5</ele><time>2026-03-28T13:57:33Z</time></trkpt><trkpt lat="45.76339895085335" lon="4.908840654838888"><ele>181.0</ele><time>2026-03-28T13:57:34Z</time></trkpt><trkpt lat="45.76327413855656" lon="4.908966400803651"><ele>182.0</ele><time>2026-03-28T13:57:35Z</time></trkpt><trkpt lat="45.763146605713786" lon="4.909087008394886"><ele>183.0</ele><time>2026-03-28T13:57:36Z</time></trkpt><trkpt lat="45.76301147031402" lon="4.909200782315594"><ele>184.0</ele><time>2026-03-28T13:57:37Z</time></trkpt><trkpt lat="45.762875758219465" lon="4.909306242203895"><ele>184.0</ele><time>2026-03-28T13:57:38Z</time></trkpt><trkpt lat="45.7627303474584" lon="4.909401587653529"><ele>184.0</ele><time>2026-03-28T13:57:39Z</time></trkpt><trkpt lat="45.76257827689639" lon="4.909488525593521"><ele>184.0</ele><time>2026-03-28T13:57:40Z</time></trkpt><trkpt lat="45.762424522806974" lon="4.909559729161061"><ele>184.0</ele><time>2026-03-28T13:57:41Z</time></trkpt><trkpt lat="45.762268934216394" lon="4.90960871548205"><ele>184.0</ele><time>2026-03-28T13:57:42Z</time></trkpt><trkpt lat="45.762109735331954" lon="4.9096475609700665"><ele>184.0</ele><time>2026-03-28T13:57:43Z</time></trkpt><trkpt lat="45.76195402640716" lon="4.909666771464214"><ele>183.66666666666669</ele><time>2026-03-28T13:57:44Z</time></trkpt><trkpt lat="45.76179877517948" lon="4.909681854308771"><ele>183.33333333333334</ele><time>2026-03-28T13:57:45Z</time></trkpt><trkpt lat="45.7616454436427" lon="4.909680042847393"><ele>183.0</ele><time>2026-03-28T13:57:46Z</time></trkpt><trkpt lat="45.76149247174851" lon="4.909670271272242"><ele>183.0</ele><time>2026-03-28T13:57:47Z</time></trkpt><trkpt lat="45.7613440233915" lon="4.909658501764945"><ele>183.0</ele><time>2026-03-28T13:57:48Z</time></trkpt><trkpt lat="45.76119404657119" lon="4.909634802802756"><ele>183.0</ele><time>2026-03-28T13:57:49Z</time></trkpt><trkpt lat="45.76105169607393" lon="4.909608655278451"><ele>183.0</ele><time>2026-03-28T13:57:50Z</time></trkpt><trkpt lat="45.760912116994454" lon="4.909576833288614"><ele>183.25</ele><time>2026-03-28T13:57:51Z</time></trkpt><trkpt lat="45.760780082664695" lon="4.909549880202803"><ele>183.5</ele><time>2026-03-28T13:57:52Z</time></trkpt><trkpt lat="45.76064854973664" lon="4.909521618552604"><ele>183.75</ele><time>2026-03-28T13:57:53Z</time></trkpt><trkpt lat="45.760514038513065" lon="4.909488412504894"><ele>184.0</ele><time>2026-03-28T13:57:54Z</time></trkpt><trkpt lat="45.760376835050934" lon="4.909457737808904"><ele>184.0</ele><time>2026-03-28T13:57:55Z</time></trkpt><trkpt lat="45.76023292127901" lon="4.909427283785161"><ele>184.0</ele><time>2026-03-28T13:57:56Z</time></trkpt><trkpt lat="45.76008701218952" lon="4.90939415610387"><ele>184.0</ele><time>2026-03-28T13:57:57Z</time></trkpt><trkpt lat="45.759942256067475" lon="4.909363281491404"><ele>184.0</ele><time>2026-03-28T13:57:58Z</time></trkpt><trkpt lat="45.75979029572188" lon="4.909329512217761"><ele>183.66666666666669</ele><time>2026-03-28T13:57:59Z</time></trkpt><trkpt lat="45.75963660888642" lon="4.909298709115763"><ele>183.33333333333334</ele><time>2026-03-28T13:58:00Z</time></trkpt><trkpt lat="45.75948274700364" lon="4.909265822076208"><ele>183.0</ele><time>2026-03-28T13:58:01Z</time></trkpt><trkpt lat="45.759326707046334" lon="4.909229501458069"><ele>183.0</ele><time>2026-03-28T13:58:02Z</time></trkpt><trkpt lat="45.75916431858614" lon="4.909193541335666"><ele>183.0</ele><time>2026-03-28T13:58:03Z</time></trkpt><trkpt lat="45.759008667792614" lon="4.909160560949472"><ele>183.0</ele><time>2026-03-28T13:58:04Z</time></trkpt><trkpt lat="45.758850433451954" lon="4.9091279877949825"><ele>183.0</ele><time>2026-03-28T13:58:05Z</time></trkpt><trkpt lat="45.758691138386666" lon="4.9090951155536935"><ele>183.0</ele><time>2026-03-28T13:58:06Z</time></trkpt><trkpt lat="45.758531650607125" lon="4.909062162173708"><ele>183.0</ele><time>2026-03-28T13:58:07Z</time></trkpt><trkpt lat="45.75837588307142" lon="4.909029860209772"><ele>183.0</ele><time>2026-03-28T13:58:08Z</time></trkpt><trkpt lat="45.75822375557633" lon="4.909000791813802"><ele>183.0</ele><time>2026-03-28T13:58:09Z</time></trkpt><trkpt lat="45.7580787440696" lon="4.90897180604522"><ele>183.0</ele><time>2026-03-28T13:58:10Z</time></trkpt><trkpt lat="45.75793964885069" lon="4.90894319038308"><ele>183.0</ele><time>2026-03-28T13:58:11Z</time></trkpt><trkpt lat="45.757800109811754" lon="4.908915866131355"><ele>183.25</ele><time>2026-03-28T13:58:12.03Z</time></trkpt><trkpt lat="45.75766950710235" lon="4.908890696535514"><ele>183.5</ele><time>2026-03-28T13:58:13.03Z</time></trkpt><trkpt lat="45.757543135574444" lon="4.908866867316516"><ele>183.75</ele><time>2026-03-28T13:58:14.031Z</time></trkpt><trkpt lat="45.75741686388755" lon="4.908841804066944"><ele>184.0</ele><time>2026-03-28T13:58:15.031Z</time></trkpt><trkpt lat="45.75729299334087" lon="4.90881682612435"><ele>184.0</ele><time>2026-03-28T13:58:16.031Z</time></trkpt><trkpt lat="45.757165045291536" lon="4.9087912301565595"><ele>184.0</ele><time>2026-03-28T13:58:17.021Z</time></trkpt><trkpt lat="45.75703448385396" lon="4.908764925212356"><ele>184.0</ele><time>2026-03-28T13:58:18.027Z</time></trkpt><trkpt lat="45.75690280139767" lon="4.908738131987823"><ele>184.0</ele><time>2026-03-28T13:58:19.03Z</time></trkpt><trkpt lat="45.75676953582776" lon="4.908710485709368"><ele>184.25</ele><time>2026-03-28T13:58:20.029Z</time></trkpt><trkpt lat="45.75664181842369" lon="4.908683802700364"><ele>184.5</ele><time>2026-03-28T13:58:21Z</time></trkpt><trkpt lat="45.756505360622924" lon="4.908660497717944"><ele>184.75</ele><time>2026-03-28T13:58:22Z</time></trkpt><trkpt lat="45.75636922597799" lon="4.908634317607729"><ele>185.0</ele><time>2026-03-28T13:58:23Z</time></trkpt><trkpt lat="45.756231514953306" lon="4.908608854028145"><ele>185.0</ele><time>2026-03-28T13:58:24Z</time></trkpt><trkpt lat="45.756094368153256" lon="4.908582725037855"><ele>185.0</ele><time>2026-03-28T13:58:25Z</time></trkpt><trkpt lat="45.755915019275015" lon="4.908529036296061"><ele>185.0</ele><time>2026-03-28T13:58:27Z</time></trkpt><trkpt lat="45.75579318504423" lon="4.908500971544738"><ele>185.0</ele><time>2026-03-28T13:58:28Z</time></trkpt><trkpt lat="45.75566893937684" lon="4.908471703153063"><ele>185.0</ele><time>2026-03-28T13:58:29Z</time></trkpt><trkpt lat="45.75554616088542" lon="4.90845720320489"><ele>185.0</ele><time>2026-03-28T13:58:30Z</time></trkpt><trkpt lat="45.75541810192828" lon="4.908426994986607"><ele>185.0</ele><time>2026-03-28T13:58:31Z</time></trkpt><trkpt lat="45.7552938617701" lon="4.908401118819762"><ele>185.0</ele><time>2026-03-28T13:58:32Z</time></trkpt><trkpt lat="45.755164102846855" lon="4.9083719491087185"><ele>185.0</ele><time>2026-03-28T13:58:33Z</time></trkpt><trkpt lat="45.75502452242936" lon="4.908340433777595"><ele>185.0</ele><time>2026-03-28T13:58:34Z</time></trkpt><trkpt lat="45.7548908106626" lon="4.908309937590903"><ele>185.0</ele><time>2026-03-28T13:58:35Z</time></trkpt><trkpt lat="45.75474961314389" lon="4.908281998441974"><ele>185.0</ele><time>2026-03-28T13:58:36Z</time></trkpt><trkpt lat="45.754613579446456" lon="4.908252968752491"><ele>185.0</ele><time>2026-03-28T13:58:37Z</time></trkpt><trkpt lat="45.75447575529147" lon="4.908216541285374"><ele>185.0</ele><time>2026-03-28T13:58:38Z</time></trkpt><trkpt lat="45.754336817238716" lon="4.908178182291495"><ele>185.0</ele><time>2026-03-28T13:58:39Z</time></trkpt><trkpt lat="45.75419756043443" lon="4.908149327535328"><ele>185.0</ele><time>2026-03-28T13:58:40Z</time></trkpt><trkpt lat="45.754062933027114" lon="4.9081217100000485"><ele>185.0</ele><time>2026-03-28T13:58:41Z</time></trkpt><trkpt lat="45.75392912888274" lon="4.908090410149332"><ele>185.0</ele><time>2026-03-28T13:58:42Z</time></trkpt><trkpt lat="45.753799733251384" lon="4.908065131984272"><ele>185.0</ele><time>2026-03-28T13:58:43Z</time></trkpt><trkpt lat="45.75367221520463" lon="4.908042614323008"><ele>185.0</ele><time>2026-03-28T13:58:44Z</time></trkpt><trkpt lat="45.753540494237015" lon="4.908014926546002"><ele>185.25</ele><time>2026-03-28T13:58:45Z</time></trkpt><trkpt lat="45.75341746198682" lon="4.907993662477106"><ele>185.5</ele><time>2026-03-28T13:58:46Z</time></trkpt><trkpt lat="45.75328574886389" lon="4.90796560193722"><ele>185.75</ele><time>2026-03-28T13:58:47Z</time></trkpt><trkpt lat="45.753156370063614" lon="4.9079432368120965"><ele>186.0</ele><time>2026-03-28T13:58:48Z</time></trkpt><trkpt lat="45.753022926944894" lon="4.9079166811693105"><ele>186.0</ele><time>2026-03-28T13:58:49Z</time></trkpt><trkpt lat="45.7528893554996" lon="4.9078889282793865"><ele>186.0</ele><time>2026-03-28T13:58:50Z</time></trkpt><trkpt lat="45.75275409266433" lon="4.907866340598464"><ele>186.0</ele><time>2026-03-28T13:58:51Z</time></trkpt><trkpt lat="45.75261573572051" lon="4.907837966767192"><ele>186.0</ele><time>2026-03-28T13:58:52Z</time></trkpt><trkpt lat="45.752478489189635" lon="4.907808971127532"><ele>186.5</ele><time>2026-03-28T13:58:53Z</time></trkpt><trkpt lat="45.752339985245186" lon="4.907781147197142"><ele>187.0</ele><time>2026-03-28T13:58:54Z</time></trkpt><trkpt lat="45.75220026742572" lon="4.907754054778714"><ele>187.5</ele><time>2026-03-28T13:58:55Z</time></trkpt><trkpt lat="45.75205643124108" lon="4.907722586946237"><ele>188.0</ele><time>2026-03-28T13:58:56Z</time></trkpt><trkpt lat="45.75191668801664" lon="4.907692187888954"><ele>187.75</ele><time>2026-03-28T13:58:57Z</time></trkpt><trkpt lat="45.7517774029435" lon="4.907660335822229"><ele>187.5</ele><time>2026-03-28T13:58:58Z</time></trkpt><trkpt lat="45.751642027836006" lon="4.907633158462473"><ele>187.25</ele><time>2026-03-28T13:58:59Z</time></trkpt><trkpt lat="45.75151087023485" lon="4.90760500155103"><ele>187.0</ele><time>2026-03-28T13:59:00Z</time></trkpt><trkpt lat="45.75138155149632" lon="4.907575942329664"><ele>187.0</ele><time>2026-03-28T13:59:01Z</time></trkpt><trkpt lat="45.751257312673744" lon="4.907547306881084"><ele>187.0</ele><time>2026-03-28T13:59:02Z</time></trkpt><trkpt lat="45.75113072798601" lon="4.907522953941114"><ele>187.0</ele><time>2026-03-28T13:59:03Z</time></trkpt><trkpt lat="45.750997060116866" lon="4.907493599465944"><ele>187.0</ele><time>2026-03-28T13:59:04Z</time></trkpt><trkpt lat="45.75086777698557" lon="4.9074661596535725"><ele>186.5</ele><time>2026-03-28T13:59:05Z</time></trkpt><trkpt lat="45.75073970539541" lon="4.907440779053755"><ele>186.0</ele><time>2026-03-28T13:59:06Z</time></trkpt><trkpt lat="45.75059840263219" lon="4.907408737761416"><ele>185.5</ele><time>2026-03-28T13:59:07Z</time></trkpt><trkpt lat="45.750469934561494" lon="4.90738055889184"><ele>185.0</ele><time>2026-03-28T13:59:08Z</time></trkpt><trkpt lat="45.75033884459989" lon="4.907355771079441"><ele>185.0</ele><time>2026-03-28T13:59:09Z</time></trkpt><trkpt lat="45.750208413144705" lon="4.90732950195215"><ele>185.0</ele><time>2026-03-28T13:59:10Z</time></trkpt><trkpt lat="45.75007184482971" lon="4.907299234842548"><ele>185.0</ele><time>2026-03-28T13:59:11Z</time></trkpt><trkpt lat="45.749935790317046" lon="4.907271551984934"><ele>185.0</ele><time>2026-03-28T13:59:12Z</time></trkpt><trkpt lat="45.749800186870424" lon="4.907243888303345"><ele>185.5</ele><time>2026-03-28T13:59:13Z</time></trkpt><trkpt lat="45.74966401603885" lon="4.907215144808224"><ele>186.0</ele><time>2026-03-28T13:59:14Z</time></trkpt><trkpt lat="45.74952644809138" lon="4.90718482261185"><ele>186.5</ele><time>2026-03-28T13:59:15Z</time></trkpt><trkpt lat="45.74939260899915" lon="4.907160401594571"><ele>187.0</ele><time>2026-03-28T13:59:16Z</time></trkpt><trkpt lat="45.749252891581804" lon="4.907131563701952"><ele>187.5</ele><time>2026-03-28T13:59:17Z</time></trkpt><trkpt lat="45.74911533723012" lon="4.907104515567937"><ele>188.0</ele><time>2026-03-28T13:59:18Z</time></trkpt><trkpt lat="45.748978607533246" lon="4.907075994309414"><ele>188.5</ele><time>2026-03-28T13:59:19Z</time></trkpt><trkpt lat="45.74884404514143" lon="4.9070505100392365"><ele>189.0</ele><time>2026-03-28T13:59:20Z</time></trkpt><trkpt lat="45.748706664440434" lon="4.907021364338368"><ele>189.0</ele><time>2026-03-28T13:59:21Z</time></trkpt><trkpt lat="45.748567470020326" lon="4.906991514410101"><ele>189.0</ele><time>2026-03-28T13:59:22Z</time></trkpt><trkpt lat="45.74842428321573" lon="4.906959301653981"><ele>189.0</ele><time>2026-03-28T13:59:23Z</time></trkpt><trkpt lat="45.748282791063446" lon="4.906929567407958"><ele>189.0</ele><time>2026-03-28T13:59:24Z</time></trkpt><trkpt lat="45.74814282255394" lon="4.906900387382227"><ele>189.0</ele><time>2026-03-28T13:59:25Z</time></trkpt><trkpt lat="45.748001158713" lon="4.906872763467871"><ele>189.0</ele><time>2026-03-28T13:59:26Z</time></trkpt><trkpt lat="45.747857355608154" lon="4.906848460008774"><ele>189.0</ele><time>2026-03-28T13:59:27Z</time></trkpt><trkpt lat="45.74771267752286" lon="4.90681811176564"><ele>189.0</ele><time>2026-03-28T13:59:28Z</time></trkpt><trkpt lat="45.74756978459111" lon="4.906787063060157"><ele>191.0</ele><time>2026-03-28T13:59:29Z</time></trkpt><trkpt lat="45.74742822431834" lon="4.906758758629573"><ele>193.0</ele><time>2026-03-28T13:59:30Z</time></trkpt><trkpt lat="45.74728302850217" lon="4.906729046948713"><ele>195.0</ele><time>2026-03-28T13:59:31Z</time></trkpt><trkpt lat="45.747139378725024" lon="4.906695022454417"><ele>197.0</ele><time>2026-03-28T13:59:32Z</time></trkpt><trkpt lat="45.74699875093903" lon="4.9066627697197704"><ele>199.0</ele><time>2026-03-28T13:59:33Z</time></trkpt><trkpt lat="45.74685732562119" lon="4.906633085963864"><ele>201.0</ele><time>2026-03-28T13:59:34Z</time></trkpt><trkpt lat="45.74671928509864" lon="4.906602519482956"><ele>203.0</ele><time>2026-03-28T13:59:35Z</time></trkpt><trkpt lat="45.74658383685952" lon="4.906577821812344"><ele>205.0</ele><time>2026-03-28T13:59:36Z</time></trkpt><trkpt lat="45.74644782804329" lon="4.906548796769941"><ele>205.0</ele><time>2026-03-28T13:59:37Z</time></trkpt><trkpt lat="45.746313788202286" lon="4.906520007753238"><ele>205.0</ele><time>2026-03-28T13:59:38Z</time></trkpt><trkpt lat="45.74617529092877" lon="4.906489351001436"><ele>205.0</ele><time>2026-03-28T13:59:39Z</time></trkpt><trkpt lat="45.746044451390325" lon="4.906462451590952"><ele>205.0</ele><time>2026-03-28T13:59:40Z</time></trkpt><trkpt lat="45.74591276406711" lon="4.906433042785919"><ele>205.0</ele><time>2026-03-28T13:59:41Z</time></trkpt><trkpt lat="45.745781209703395" lon="4.906405225533848"><ele>205.0</ele><time>2026-03-28T13:59:42Z</time></trkpt><trkpt lat="45.74565012658808" lon="4.906377580127527"><ele>205.0</ele><time>2026-03-28T13:59:43Z</time></trkpt><trkpt lat="45.74551416621202" lon="4.9063473608128145"><ele>205.0</ele><time>2026-03-28T13:59:44Z</time></trkpt><trkpt lat="45.74537842510836" lon="4.906316798115233"><ele>205.0</ele><time>2026-03-28T13:59:45Z</time></trkpt><trkpt lat="45.7452372261974" lon="4.906283030102449"><ele>205.0</ele><time>2026-03-28T13:59:46Z</time></trkpt><trkpt lat="45.745103689379015" lon="4.906247893983372"><ele>205.0</ele><time>2026-03-28T13:59:47Z</time></trkpt><trkpt lat="45.74497205070714" lon="4.906213393511817"><ele>205.0</ele><time>2026-03-28T13:59:48Z</time></trkpt><trkpt lat="45.74484294922958" lon="4.906172090013271"><ele>204.5</ele><time>2026-03-28T13:59:49Z</time></trkpt><trkpt lat="45.74470519467951" lon="4.906135214482645"><ele>204.0</ele><time>2026-03-28T13:59:50Z</time></trkpt><trkpt lat="45.744566851926855" lon="4.906097963398356"><ele>203.5</ele><time>2026-03-28T13:59:51Z</time></trkpt><trkpt lat="45.74442243791842" lon="4.906051853705381"><ele>203.0</ele><time>2026-03-28T13:59:52Z</time></trkpt><trkpt lat="45.74427683619215" lon="4.9060092793172165"><ele>203.66666666666669</ele><time>2026-03-28T13:59:53Z</time></trkpt><trkpt lat="45.744129869200854" lon="4.905962102622544"><ele>204.33333333333331</ele><time>2026-03-28T13:59:54Z</time></trkpt><trkpt lat="45.74398215793224" lon="4.905916006802735"><ele>205.0</ele><time>2026-03-28T13:59:55Z</time></trkpt><trkpt lat="45.74383434052339" lon="4.905871455148399"><ele>205.0</ele><time>2026-03-28T13:59:56Z</time></trkpt><trkpt lat="45.7436841684936" lon="4.905824115291786"><ele>205.0</ele><time>2026-03-28T13:59:57Z</time></trkpt><trkpt lat="45.74353956484481" lon="4.905772565846806"><ele>205.0</ele><time>2026-03-28T13:59:58Z</time></trkpt><trkpt lat="45.743388442812275" lon="4.905728070822558"><ele>203.66666666666666</ele><time>2026-03-28T13:59:59Z</time></trkpt><trkpt lat="45.74323396293872" lon="4.905680918147425"><ele>202.33333333333331</ele><time>2026-03-28T14:00:00Z</time></trkpt><trkpt lat="45.74308240028674" lon="4.905635944914713"><ele>201.0</ele><time>2026-03-28T14:00:01Z</time></trkpt><trkpt lat="45.74293119438579" lon="4.905588662367731"><ele>201.0</ele><time>2026-03-28T14:00:02Z</time></trkpt><trkpt lat="45.74277616777228" lon="4.9055408347426575"><ele>201.0</ele><time>2026-03-28T14:00:03Z</time></trkpt><trkpt lat="45.74262131690772" lon="4.90549200786329"><ele>201.0</ele><time>2026-03-28T14:00:04Z</time></trkpt><trkpt lat="45.742467497637215" lon="4.90544546783339"><ele>200.33333333333331</ele><time>2026-03-28T14:00:05Z</time></trkpt><trkpt lat="45.74230358121552" lon="4.9054032634863"><ele>199.66666666666666</ele><time>2026-03-28T14:00:06Z</time></trkpt><trkpt lat="45.74215223358912" lon="4.905345174307751"><ele>199.0</ele><time>2026-03-28T14:00:07Z</time></trkpt><trkpt lat="45.74199144849932" lon="4.905295782423257"><ele>199.66666666666666</ele><time>2026-03-28T14:00:08Z</time></trkpt><trkpt lat="45.74182449915889" lon="4.905246692831439"><ele>200.33333333333331</ele><time>2026-03-28T14:00:09Z</time></trkpt><trkpt lat="45.74166440381614" lon="4.9051941777577115"><ele>201.0</ele><time>2026-03-28T14:00:10Z</time></trkpt><trkpt lat="45.7415032712305" lon="4.9051416492370095"><ele>201.0</ele><time>2026-03-28T14:00:11Z</time></trkpt><trkpt lat="45.74134396066881" lon="4.905085636653759"><ele>201.0</ele><time>2026-03-28T14:00:12Z</time></trkpt><trkpt lat="45.74118471982381" lon="4.9050331609136215"><ele>201.0</ele><time>2026-03-28T14:00:13Z</time></trkpt><trkpt lat="45.74102417079115" lon="4.904984918321467"><ele>202.0</ele><time>2026-03-28T14:00:14Z</time></trkpt><trkpt lat="45.74086499572975" lon="4.904930918220601"><ele>203.0</ele><time>2026-03-28T14:00:15Z</time></trkpt><trkpt lat="45.74070444609591" lon="4.904882507467299"><ele>204.0</ele><time>2026-03-28T14:00:16Z</time></trkpt><trkpt lat="45.74054350203542" lon="4.9048333513235685"><ele>204.0</ele><time>2026-03-28T14:00:17Z</time></trkpt><trkpt lat="45.74038329002204" lon="4.904785233899937"><ele>204.0</ele><time>2026-03-28T14:00:18Z</time></trkpt><trkpt lat="45.740222567664944" lon="4.9047335031968755"><ele>204.0</ele><time>2026-03-28T14:00:19Z</time></trkpt><trkpt lat="45.74006315777537" lon="4.904680414693436"><ele>204.33333333333331</ele><time>2026-03-28T14:00:20Z</time></trkpt><trkpt lat="45.73989965489583" lon="4.904627975100895"><ele>204.66666666666666</ele><time>2026-03-28T14:00:21Z</time></trkpt><trkpt lat="45.739739356525284" lon="4.904578762812035"><ele>205.0</ele><time>2026-03-28T14:00:22Z</time></trkpt><trkpt lat="45.739580654087305" lon="4.904528955580802"><ele>205.0</ele><time>2026-03-28T14:00:23Z</time></trkpt><trkpt lat="45.73942783447301" lon="4.904482010479091"><ele>205.0</ele><time>2026-03-28T14:00:24Z</time></trkpt><trkpt lat="45.73927699580258" lon="4.904435157386757"><ele>205.0</ele><time>2026-03-28T14:00:25Z</time></trkpt><trkpt lat="45.73912651678367" lon="4.904387108208607"><ele>205.66666666666666</ele><time>2026-03-28T14:00:26Z</time></trkpt><trkpt lat="45.73897593826428" lon="4.904338642308809"><ele>206.33333333333331</ele><time>2026-03-28T14:00:27Z</time></trkpt><trkpt lat="45.73882341413778" lon="4.904285182467144"><ele>207.0</ele><time>2026-03-28T14:00:28Z</time></trkpt><trkpt lat="45.73867298021287" lon="4.904229201478165"><ele>208.0</ele><time>2026-03-28T14:00:29Z</time></trkpt><trkpt lat="45.73852661686557" lon="4.904158000766957"><ele>209.0</ele><time>2026-03-28T14:00:30Z</time></trkpt><trkpt lat="45.73837877353017" lon="4.904083506075897"><ele>210.0</ele><time>2026-03-28T14:00:31Z</time></trkpt><trkpt lat="45.73822930331239" lon="4.903997764458329"><ele>210.0</ele><time>2026-03-28T14:00:32Z</time></trkpt><trkpt lat="45.73808445572271" lon="4.903896447669158"><ele>210.0</ele><time>2026-03-28T14:00:33Z</time></trkpt><trkpt lat="45.73793870103753" lon="4.9037944595015315"><ele>210.0</ele><time>2026-03-28T14:00:34Z</time></trkpt><trkpt lat="45.73778845883791" lon="4.903684320465836"><ele>208.33333333333331</ele><time>2026-03-28T14:00:35Z</time></trkpt><trkpt lat="45.73763834444295" lon="4.903572509010789"><ele>206.66666666666666</ele><time>2026-03-28T14:00:36Z</time></trkpt><trkpt lat="45.73748585564212" lon="4.903461780817746"><ele>205.0</ele><time>2026-03-28T14:00:37Z</time></trkpt><trkpt lat="45.73733890969045" lon="4.903351961966005"><ele>205.0</ele><time>2026-03-28T14:00:38Z</time></trkpt><trkpt lat="45.7371956149375" lon="4.903245639784023"><ele>205.0</ele><time>2026-03-28T14:00:39Z</time></trkpt><trkpt lat="45.737053689097706" lon="4.903140941083328"><ele>205.0</ele><time>2026-03-28T14:00:40Z</time></trkpt><trkpt lat="45.73692051408276" lon="4.90303866841851"><ele>205.33333333333331</ele><time>2026-03-28T14:00:41Z</time></trkpt><trkpt lat="45.7367882375289" lon="4.902936011998741"><ele>205.66666666666669</ele><time>2026-03-28T14:00:42Z</time></trkpt><trkpt lat="45.736655571101856" lon="4.902833615077499"><ele>206.0</ele><time>2026-03-28T14:00:43Z</time></trkpt><trkpt lat="45.73651774283564" lon="4.902730599001191"><ele>206.0</ele><time>2026-03-28T14:00:44Z</time></trkpt><trkpt lat="45.73637760326041" lon="4.902625923190414"><ele>206.0</ele><time>2026-03-28T14:00:45Z</time></trkpt><trkpt lat="45.73623827429879" lon="4.902521640160432"><ele>206.0</ele><time>2026-03-28T14:00:46Z</time></trkpt><trkpt lat="45.73609818814041" lon="4.902416991962677"><ele>205.33333333333334</ele><time>2026-03-28T14:00:47Z</time></trkpt><trkpt lat="45.73596309064413" lon="4.902311687715702"><ele>204.66666666666669</ele><time>2026-03-28T14:00:48Z</time></trkpt><trkpt lat="45.735825344286795" lon="4.9022085501683605"><ele>204.0</ele><time>2026-03-28T14:00:49Z</time></trkpt><trkpt lat="45.73569117323436" lon="4.902106486247634"><ele>204.0</ele><time>2026-03-28T14:00:50Z</time></trkpt><trkpt lat="45.7355544190978" lon="4.902001516785688"><ele>204.0</ele><time>2026-03-28T14:00:51Z</time></trkpt><trkpt lat="45.735424176364965" lon="4.901900647487032"><ele>204.0</ele><time>2026-03-28T14:00:52Z</time></trkpt><trkpt lat="45.735293339583365" lon="4.901796143958318"><ele>205.33333333333331</ele><time>2026-03-28T14:00:53Z</time></trkpt><trkpt lat="45.73515912371497" lon="4.90169035878563"><ele>206.66666666666666</ele><time>2026-03-28T14:00:54Z</time></trkpt><trkpt lat="45.735023413250985" lon="4.901590918161495"><ele>208.0</ele><time>2026-03-28T14:00:55Z</time></trkpt><trkpt lat="45.73489342043978" lon="4.901491032057755"><ele>208.0</ele><time>2026-03-28T14:00:56Z</time></trkpt><trkpt lat="45.7347600430761" lon="4.901392192409863"><ele>208.0</ele><time>2026-03-28T14:00:57Z</time></trkpt><trkpt lat="45.73463179035241" lon="4.90129944931972"><ele>208.0</ele><time>2026-03-28T14:00:58Z</time></trkpt><trkpt lat="45.73450518206872" lon="4.901202984297337"><ele>208.0</ele><time>2026-03-28T14:00:59Z</time></trkpt><trkpt lat="45.73437683656737" lon="4.901105065786346"><ele>208.0</ele><time>2026-03-28T14:01:00Z</time></trkpt><trkpt lat="45.73424629187714" lon="4.901010384050267"><ele>208.0</ele><time>2026-03-28T14:01:01Z</time></trkpt><trkpt lat="45.734114480743244" lon="4.900911953583996"><ele>208.0</ele><time>2026-03-28T14:01:02Z</time></trkpt><trkpt lat="45.733985314971385" lon="4.900822399078687"><ele>208.0</ele><time>2026-03-28T14:01:03Z</time></trkpt><trkpt lat="45.73385365212665" lon="4.900735282098912"><ele>208.0</ele><time>2026-03-28T14:01:04Z</time></trkpt><trkpt lat="45.73371955558513" lon="4.900648500123913"><ele>208.0</ele><time>2026-03-28T14:01:05Z</time></trkpt><trkpt lat="45.733586078468214" lon="4.900564474356039"><ele>208.0</ele><time>2026-03-28T14:01:06Z</time></trkpt><trkpt lat="45.73344796602863" lon="4.900488872413651"><ele>208.0</ele><time>2026-03-28T14:01:07Z</time></trkpt><trkpt lat="45.73331200379464" lon="4.900409859968221"><ele>207.0</ele><time>2026-03-28T14:01:08Z</time></trkpt><trkpt lat="45.7331776044526" lon="4.9003321105284385"><ele>206.0</ele><time>2026-03-28T14:01:09Z</time></trkpt><trkpt lat="45.73303074507841" lon="4.900248165484444"><ele>205.0</ele><time>2026-03-28T14:01:10Z</time></trkpt><trkpt lat="45.73288961338178" lon="4.900171012595691"><ele>205.0</ele><time>2026-03-28T14:01:11Z</time></trkpt><trkpt lat="45.73275149390339" lon="4.900092676304877"><ele>205.0</ele><time>2026-03-28T14:01:12Z</time></trkpt><trkpt lat="45.732613628556884" lon="4.9000129532377015"><ele>205.0</ele><time>2026-03-28T14:01:13Z</time></trkpt><trkpt lat="45.73247353775267" lon="4.899932711353602"><ele>205.0</ele><time>2026-03-28T14:01:14Z</time></trkpt><trkpt lat="45.73233501263634" lon="4.899856191226896"><ele>203.33333333333331</ele><time>2026-03-28T14:01:15Z</time></trkpt><trkpt lat="45.732190614387" lon="4.899776284844816"><ele>201.66666666666669</ele><time>2026-03-28T14:01:16Z</time></trkpt><trkpt lat="45.73204797611709" lon="4.8996964107375565"><ele>200.0</ele><time>2026-03-28T14:01:17Z</time></trkpt><trkpt lat="45.73190700381513" lon="4.8996175275421106"><ele>199.0</ele><time>2026-03-28T14:01:18Z</time></trkpt><trkpt lat="45.73176549709704" lon="4.899540830776451"><ele>198.0</ele><time>2026-03-28T14:01:19Z</time></trkpt><trkpt lat="45.73161388085507" lon="4.899466279301395"><ele>197.0</ele><time>2026-03-28T14:01:20Z</time></trkpt><trkpt lat="45.731456544673875" lon="4.89939240154386"><ele>197.0</ele><time>2026-03-28T14:01:21Z</time></trkpt><trkpt lat="45.73129671469045" lon="4.899315673846172"><ele>197.0</ele><time>2026-03-28T14:01:22Z</time></trkpt><trkpt lat="45.73113653544934" lon="4.899234867109623"><ele>197.0</ele><time>2026-03-28T14:01:23Z</time></trkpt><trkpt lat="45.73097054801752" lon="4.899152083775562"><ele>196.66666666666669</ele><time>2026-03-28T14:01:24Z</time></trkpt><trkpt lat="45.73080904079431" lon="4.899068906908945"><ele>196.33333333333331</ele><time>2026-03-28T14:01:25Z</time></trkpt><trkpt lat="45.73064865905058" lon="4.898983900053189"><ele>196.0</ele><time>2026-03-28T14:01:26Z</time></trkpt><trkpt lat="45.730492158932535" lon="4.898904126653467"><ele>196.0</ele><time>2026-03-28T14:01:27Z</time></trkpt><trkpt lat="45.7303507367757" lon="4.898765323219676"><ele>196.0</ele><time>2026-03-28T14:01:28Z</time></trkpt><trkpt lat="45.730183832592495" lon="4.898746474332842"><ele>196.0</ele><time>2026-03-28T14:01:29Z</time></trkpt><trkpt lat="45.73003182758096" lon="4.898666978060347"><ele>196.66666666666666</ele><time>2026-03-28T14:01:30Z</time></trkpt><trkpt lat="45.72988060613679" lon="4.898588010831498"><ele>197.33333333333331</ele><time>2026-03-28T14:01:31Z</time></trkpt><trkpt lat="45.729732172612195" lon="4.898515559673634"><ele>198.0</ele><time>2026-03-28T14:01:32Z</time></trkpt><trkpt lat="45.7295824221517" lon="4.898431462612341"><ele>198.0</ele><time>2026-03-28T14:01:33Z</time></trkpt><trkpt lat="45.72942937013464" lon="4.898346406017169"><ele>198.0</ele><time>2026-03-28T14:01:34Z</time></trkpt><trkpt lat="45.72927728927055" lon="4.898254956562989"><ele>198.0</ele><time>2026-03-28T14:01:35Z</time></trkpt><trkpt lat="45.72912883150518" lon="4.898158522563362"><ele>198.33333333333331</ele><time>2026-03-28T14:01:36Z</time></trkpt><trkpt lat="45.72898181885439" lon="4.898052797261741"><ele>198.66666666666666</ele><time>2026-03-28T14:01:37Z</time></trkpt><trkpt lat="45.7288356660555" lon="4.897940776741707"><ele>199.0</ele><time>2026-03-28T14:01:38Z</time></trkpt><trkpt lat="45.72869293141832" lon="4.897824704493758"><ele>199.0</ele><time>2026-03-28T14:01:39Z</time></trkpt><trkpt lat="45.728550963008104" lon="4.89769950553213"><ele>199.0</ele><time>2026-03-28T14:01:40Z</time></trkpt><trkpt lat="45.72840863849668" lon="4.897573359156994"><ele>199.0</ele><time>2026-03-28T14:01:41Z</time></trkpt><trkpt lat="45.728272359136874" lon="4.897439244669065"><ele>199.0</ele><time>2026-03-28T14:01:42Z</time></trkpt><trkpt lat="45.728138324873" lon="4.897298019161317"><ele>199.0</ele><time>2026-03-28T14:01:43Z</time></trkpt><trkpt lat="45.72800624475543" lon="4.897151688425514"><ele>199.0</ele><time>2026-03-28T14:01:44Z</time></trkpt><trkpt lat="45.72788037463525" lon="4.897000564426325"><ele>199.0</ele><time>2026-03-28T14:01:45Z</time></trkpt><trkpt lat="45.72775751278498" lon="4.896843971942061"><ele>199.0</ele><time>2026-03-28T14:01:46Z</time></trkpt><trkpt lat="45.727638483211436" lon="4.89668220748746"><ele>199.0</ele><time>2026-03-28T14:01:47Z</time></trkpt><trkpt lat="45.727520864880475" lon="4.896513869782203"><ele>198.33333333333331</ele><time>2026-03-28T14:01:48Z</time></trkpt><trkpt lat="45.7274085932622" lon="4.896342131202215"><ele>197.66666666666669</ele><time>2026-03-28T14:01:49Z</time></trkpt><trkpt lat="45.727299419798385" lon="4.8961681094719065"><ele>197.0</ele><time>2026-03-28T14:01:50Z</time></trkpt><trkpt lat="45.72719167947202" lon="4.895987240802348"><ele>198.0</ele><time>2026-03-28T14:01:51Z</time></trkpt><trkpt lat="45.72708854735099" lon="4.895799530882103"><ele>199.0</ele><time>2026-03-28T14:01:52Z</time></trkpt><trkpt lat="45.726999292360524" lon="4.89560888249929"><ele>200.0</ele><time>2026-03-28T14:01:53Z</time></trkpt><trkpt lat="45.72690879022271" lon="4.895414295752005"><ele>201.0</ele><time>2026-03-28T14:01:54Z</time></trkpt><trkpt lat="45.72682028293432" lon="4.89521461107682"><ele>202.0</ele><time>2026-03-28T14:01:55Z</time></trkpt><trkpt lat="45.726731433765735" lon="4.895013500263708"><ele>203.0</ele><time>2026-03-28T14:01:56Z</time></trkpt><trkpt lat="45.72664599065658" lon="4.894809164718172"><ele>204.66666666666669</ele><time>2026-03-28T14:01:57Z</time></trkpt><trkpt lat="45.72656350683907" lon="4.894612324302316"><ele>206.33333333333331</ele><time>2026-03-28T14:01:58Z</time></trkpt><trkpt lat="45.72648295685809" lon="4.894423932540365"><ele>208.0</ele><time>2026-03-28T14:01:59Z</time></trkpt><trkpt lat="45.72640401582022" lon="4.8942396129383665"><ele>209.0</ele><time>2026-03-28T14:02:00Z</time></trkpt><trkpt lat="45.726332746454126" lon="4.894063727358576"><ele>210.0</ele><time>2026-03-28T14:02:01Z</time></trkpt><trkpt lat="45.726257259186355" lon="4.893890895554929"><ele>211.0</ele><time>2026-03-28T14:02:02Z</time></trkpt><trkpt lat="45.72617695864682" lon="4.893736839978549"><ele>212.0</ele><time>2026-03-28T14:02:03Z</time></trkpt><trkpt lat="45.726085463765536" lon="4.8935942709992295"><ele>211.5</ele><time>2026-03-28T14:02:04Z</time></trkpt><trkpt lat="45.725995038693085" lon="4.893467477899025"><ele>211.0</ele><time>2026-03-28T14:02:05Z</time></trkpt><trkpt lat="45.72589891877169" lon="4.893352151234533"><ele>210.5</ele><time>2026-03-28T14:02:06Z</time></trkpt><trkpt lat="45.72579050549141" lon="4.893236748606533"><ele>210.0</ele><time>2026-03-28T14:02:07Z</time></trkpt><trkpt lat="45.72569075949658" lon="4.893140364340757"><ele>208.25</ele><time>2026-03-28T14:02:08Z</time></trkpt><trkpt lat="45.72558808702562" lon="4.893056076282515"><ele>206.5</ele><time>2026-03-28T14:02:09Z</time></trkpt><trkpt lat="45.72547813097765" lon="4.892976628997561"><ele>204.75</ele><time>2026-03-28T14:02:10Z</time></trkpt><trkpt lat="45.72536745187165" lon="4.892909658015581"><ele>203.0</ele><time>2026-03-28T14:02:11Z</time></trkpt><trkpt lat="45.725250864795704" lon="4.892848656992293"><ele>201.75</ele><time>2026-03-28T14:02:12Z</time></trkpt><trkpt lat="45.72513081252147" lon="4.892786392040032"><ele>200.5</ele><time>2026-03-28T14:02:13Z</time></trkpt><trkpt lat="45.72500845757004" lon="4.892711567962372"><ele>199.25</ele><time>2026-03-28T14:02:14Z</time></trkpt><trkpt lat="45.72489030976249" lon="4.892629608893459"><ele>198.0</ele><time>2026-03-28T14:02:15Z</time></trkpt><trkpt lat="45.724774814192486" lon="4.8925412964582415"><ele>195.75</ele><time>2026-03-28T14:02:16Z</time></trkpt><trkpt lat="45.72466884458815" lon="4.892448371558975"><ele>193.5</ele><time>2026-03-28T14:02:17Z</time></trkpt><trkpt lat="45.72456421161146" lon="4.8923552006936415"><ele>191.25</ele><time>2026-03-28T14:02:18Z</time></trkpt><trkpt lat="45.72446069575122" lon="4.892253725911628"><ele>189.0</ele><time>2026-03-28T14:02:19Z</time></trkpt><trkpt lat="45.724365122752324" lon="4.892146386480567"><ele>188.75</ele><time>2026-03-28T14:02:20Z</time></trkpt><trkpt lat="45.72427290799562" lon="4.892037338283524"><ele>188.5</ele><time>2026-03-28T14:02:21Z</time></trkpt><trkpt lat="45.72418016121834" lon="4.891922225209206"><ele>188.25</ele><time>2026-03-28T14:02:22Z</time></trkpt><trkpt lat="45.72409405841293" lon="4.891803799601851"><ele>188.0</ele><time>2026-03-28T14:02:23Z</time></trkpt><trkpt lat="45.72400948140747" lon="4.891679960403212"><ele>186.75</ele><time>2026-03-28T14:02:24Z</time></trkpt><trkpt lat="45.723930168471426" lon="4.891550440034263"><ele>185.5</ele><time>2026-03-28T14:02:25Z</time></trkpt><trkpt lat="45.723851821810875" lon="4.891413163531895"><ele>184.25</ele><time>2026-03-28T14:02:26Z</time></trkpt><trkpt lat="45.723776387960086" lon="4.891269473980621"><ele>183.0</ele><time>2026-03-28T14:02:27Z</time></trkpt><trkpt lat="45.72370395544972" lon="4.891117399576176"><ele>183.0</ele><time>2026-03-28T14:02:28Z</time></trkpt><trkpt lat="45.72362985100986" lon="4.890952002980438"><ele>183.0</ele><time>2026-03-28T14:02:29Z</time></trkpt><trkpt lat="45.72354777174097" lon="4.890781220459388"><ele>183.0</ele><time>2026-03-28T14:02:30Z</time></trkpt><trkpt lat="45.723471812570125" lon="4.890596537906037"><ele>183.0</ele><time>2026-03-28T14:02:31Z</time></trkpt><trkpt lat="45.723400682571416" lon="4.8904070484623645"><ele>184.33333333333334</ele><time>2026-03-28T14:02:32Z</time></trkpt><trkpt lat="45.7233322790943" lon="4.890206809391842"><ele>185.66666666666669</ele><time>2026-03-28T14:02:33Z</time></trkpt><trkpt lat="45.72326652475345" lon="4.889999420479147"><ele>187.0</ele><time>2026-03-28T14:02:34Z</time></trkpt><trkpt lat="45.72320318949324" lon="4.889800864711418"><ele>187.0</ele><time>2026-03-28T14:02:35Z</time></trkpt><trkpt lat="45.72313274245233" lon="4.889597922897876"><ele>187.0</ele><time>2026-03-28T14:02:36Z</time></trkpt><trkpt lat="45.72306155418113" lon="4.88939377980567"><ele>187.0</ele><time>2026-03-28T14:02:37Z</time></trkpt><trkpt lat="45.722988349066846" lon="4.889187712806972"><ele>186.33333333333334</ele><time>2026-03-28T14:02:38Z</time></trkpt><trkpt lat="45.72291278342939" lon="4.888982718588867"><ele>185.66666666666666</ele><time>2026-03-28T14:02:39Z</time></trkpt><trkpt lat="45.722837571113516" lon="4.888774763735497"><ele>185.0</ele><time>2026-03-28T14:02:40Z</time></trkpt><trkpt lat="45.7227593995918" lon="4.888571540882091"><ele>184.33333333333331</ele><time>2026-03-28T14:02:41Z</time></trkpt><trkpt lat="45.72268459017536" lon="4.888369922332638"><ele>183.66666666666666</ele><time>2026-03-28T14:02:42Z</time></trkpt><trkpt lat="45.72260733758469" lon="4.888169263615695"><ele>183.0</ele><time>2026-03-28T14:02:43Z</time></trkpt><trkpt lat="45.72253019207859" lon="4.88796848076204"><ele>183.0</ele><time>2026-03-28T14:02:44Z</time></trkpt><trkpt lat="45.72244890662172" lon="4.887765208984928"><ele>183.0</ele><time>2026-03-28T14:02:45Z</time></trkpt><trkpt lat="45.72237092633731" lon="4.887562715600137"><ele>183.0</ele><time>2026-03-28T14:02:46Z</time></trkpt><trkpt lat="45.72229048808566" lon="4.887358542592104"><ele>183.33333333333334</ele><time>2026-03-28T14:02:47Z</time></trkpt><trkpt lat="45.722211590105466" lon="4.88715453205399"><ele>183.66666666666669</ele><time>2026-03-28T14:02:48Z</time></trkpt><trkpt lat="45.72213092402955" lon="4.886950226276811"><ele>184.0</ele><time>2026-03-28T14:02:49Z</time></trkpt><trkpt lat="45.72205270459181" lon="4.8867446039842255"><ele>184.0</ele><time>2026-03-28T14:02:50Z</time></trkpt><trkpt lat="45.721973259846656" lon="4.8865379374423314"><ele>184.0</ele><time>2026-03-28T14:02:51Z</time></trkpt><trkpt lat="45.72189831107953" lon="4.886330097851942"><ele>184.0</ele><time>2026-03-28T14:02:52Z</time></trkpt><trkpt lat="45.721824368833175" lon="4.886124498799984"><ele>183.33333333333334</ele><time>2026-03-28T14:02:53Z</time></trkpt><trkpt lat="45.72175016359907" lon="4.885917509027685"><ele>182.66666666666666</ele><time>2026-03-28T14:02:54Z</time></trkpt><trkpt lat="45.721678252394724" lon="4.885709811349494"><ele>182.0</ele><time>2026-03-28T14:02:55Z</time></trkpt><trkpt lat="45.7216076989706" lon="4.885504547233614"><ele>182.0</ele><time>2026-03-28T14:02:56Z</time></trkpt><trkpt lat="45.72153540686686" lon="4.885296478757727"><ele>182.0</ele><time>2026-03-28T14:02:57Z</time></trkpt><trkpt lat="45.72146359340774" lon="4.8850874824986"><ele>182.0</ele><time>2026-03-28T14:02:58Z</time></trkpt><trkpt lat="45.72139226585872" lon="4.884873643484169"><ele>182.0</ele><time>2026-03-28T14:02:59Z</time></trkpt><trkpt lat="45.7213298856362" lon="4.88466662815341"><ele>182.0</ele><time>2026-03-28T14:03:00Z</time></trkpt><trkpt lat="45.72126703851864" lon="4.884454922834861"><ele>182.0</ele><time>2026-03-28T14:03:01Z</time></trkpt><trkpt lat="45.72120491947002" lon="4.884242944337196"><ele>182.0</ele><time>2026-03-28T14:03:02Z</time></trkpt><trkpt lat="45.72114139122675" lon="4.884028220016575"><ele>182.0</ele><time>2026-03-28T14:03:03Z</time></trkpt><trkpt lat="45.72107925699089" lon="4.8838089770393935"><ele>182.0</ele><time>2026-03-28T14:03:04Z</time></trkpt><trkpt lat="45.721017548941596" lon="4.883591105857928"><ele>181.0</ele><time>2026-03-28T14:03:05Z</time></trkpt><trkpt lat="45.72095627176186" lon="4.883373290316516"><ele>180.0</ele><time>2026-03-28T14:03:06Z</time></trkpt><trkpt lat="45.72089449013681" lon="4.883155349078866"><ele>179.0</ele><time>2026-03-28T14:03:07Z</time></trkpt><trkpt lat="45.720834842460306" lon="4.882939089206533"><ele>179.0</ele><time>2026-03-28T14:03:08Z</time></trkpt><trkpt lat="45.72077398908174" lon="4.882721233703431"><ele>179.0</ele><time>2026-03-28T14:03:09Z</time></trkpt><trkpt lat="45.72071236938996" lon="4.882504976385735"><ele>179.0</ele><time>2026-03-28T14:03:10Z</time></trkpt><trkpt lat="45.720647669279565" lon="4.882290166488152"><ele>179.33333333333331</ele><time>2026-03-28T14:03:11Z</time></trkpt><trkpt lat="45.72058416263253" lon="4.882076935323597"><ele>179.66666666666666</ele><time>2026-03-28T14:03:12Z</time></trkpt><trkpt lat="45.72052504496883" lon="4.881864921978641"><ele>180.0</ele><time>2026-03-28T14:03:13Z</time></trkpt><trkpt lat="45.72046195578853" lon="4.881651513376221"><ele>181.33333333333334</ele><time>2026-03-28T14:03:14Z</time></trkpt><trkpt lat="45.720400254192576" lon="4.881448701304694"><ele>182.66666666666669</ele><time>2026-03-28T14:03:15Z</time></trkpt><trkpt lat="45.720336774901845" lon="4.881247359709645"><ele>184.0</ele><time>2026-03-28T14:03:16Z</time></trkpt><trkpt lat="45.72027344235514" lon="4.881045876530341"><ele>184.0</ele><time>2026-03-28T14:03:17Z</time></trkpt><trkpt lat="45.720208112215744" lon="4.880844224489516"><ele>184.0</ele><time>2026-03-28T14:03:18Z</time></trkpt><trkpt lat="45.72014104253496" lon="4.880643625884504"><ele>184.0</ele><time>2026-03-28T14:03:19Z</time></trkpt><trkpt lat="45.7200738327637" lon="4.880445952611217"><ele>184.0</ele><time>2026-03-28T14:03:20Z</time></trkpt><trkpt lat="45.720005564771604" lon="4.880248846445083"><ele>184.0</ele><time>2026-03-28T14:03:21Z</time></trkpt><trkpt lat="45.71993792019714" lon="4.8800539060567205"><ele>184.0</ele><time>2026-03-28T14:03:22Z</time></trkpt><trkpt lat="45.71986918323346" lon="4.879853077702659"><ele>184.0</ele><time>2026-03-28T14:03:23Z</time></trkpt><trkpt lat="45.71980113020588" lon="4.879651447126428"><ele>184.0</ele><time>2026-03-28T14:03:24Z</time></trkpt><trkpt lat="45.71973439766202" lon="4.879445392585649"><ele>184.0</ele><time>2026-03-28T14:03:25Z</time></trkpt><trkpt lat="45.71967028902115" lon="4.87923470740114"><ele>184.33333333333334</ele><time>2026-03-28T14:03:26Z</time></trkpt><trkpt lat="45.71960981199801" lon="4.879019428822889"><ele>184.66666666666666</ele><time>2026-03-28T14:03:27Z</time></trkpt><trkpt lat="45.71954873256638" lon="4.878800556072583"><ele>185.0</ele><time>2026-03-28T14:03:28Z</time></trkpt><trkpt lat="45.71949212433471" lon="4.878577996893627"><ele>184.33333333333331</ele><time>2026-03-28T14:03:29Z</time></trkpt><trkpt lat="45.719433315444256" lon="4.878348413285167"><ele>183.66666666666666</ele><time>2026-03-28T14:03:30Z</time></trkpt><trkpt lat="45.71937644719559" lon="4.878116004237849"><ele>183.0</ele><time>2026-03-28T14:03:31Z</time></trkpt><trkpt lat="45.719324316687405" lon="4.877880977667331"><ele>183.0</ele><time>2026-03-28T14:03:32Z</time></trkpt><trkpt lat="45.719276889763066" lon="4.877642720402034"><ele>183.0</ele><time>2026-03-28T14:03:33Z</time></trkpt><trkpt lat="45.719231967201296" lon="4.877402966089766"><ele>183.0</ele><time>2026-03-28T14:03:34Z</time></trkpt><trkpt lat="45.7191888685503" lon="4.877161198633781"><ele>182.66666666666666</ele><time>2026-03-28T14:03:35Z</time></trkpt><trkpt lat="45.719148759808704" lon="4.876918266067101"><ele>182.33333333333331</ele><time>2026-03-28T14:03:36Z</time></trkpt><trkpt lat="45.71911429988493" lon="4.876679124690762"><ele>182.0</ele><time>2026-03-28T14:03:37Z</time></trkpt><trkpt lat="45.71908083349148" lon="4.8764408638189956"><ele>181.33333333333331</ele><time>2026-03-28T14:03:38Z</time></trkpt><trkpt lat="45.71905220867087" lon="4.876201310139775"><ele>180.66666666666666</ele><time>2026-03-28T14:03:39Z</time></trkpt><trkpt lat="45.719025867083374" lon="4.875962846190863"><ele>180.0</ele><time>2026-03-28T14:03:40Z</time></trkpt><trkpt lat="45.719001090290895" lon="4.875726986341352"><ele>179.66666666666666</ele><time>2026-03-28T14:03:41Z</time></trkpt><trkpt lat="45.71897807158031" lon="4.875490502645389"><ele>179.33333333333331</ele><time>2026-03-28T14:03:42Z</time></trkpt><trkpt lat="45.71895665019596" lon="4.875254752482322"><ele>179.0</ele><time>2026-03-28T14:03:43Z</time></trkpt><trkpt lat="45.718936534269666" lon="4.87502094980702"><ele>179.0</ele><time>2026-03-28T14:03:44Z</time></trkpt><trkpt lat="45.71891722993914" lon="4.874789420143957"><ele>179.0</ele><time>2026-03-28T14:03:45Z</time></trkpt><trkpt lat="45.71889408651251" lon="4.874559349341226"><ele>179.0</ele><time>2026-03-28T14:03:46Z</time></trkpt><trkpt lat="45.7188711972215" lon="4.874326237948153"><ele>180.0</ele><time>2026-03-28T14:03:47Z</time></trkpt><trkpt lat="45.718847672391306" lon="4.874095528657613"><ele>181.0</ele><time>2026-03-28T14:03:48Z</time></trkpt><trkpt lat="45.71882500636255" lon="4.873867021613721"><ele>182.0</ele><time>2026-03-28T14:03:49Z</time></trkpt><trkpt lat="45.718802901707626" lon="4.87363792971996"><ele>181.66666666666666</ele><time>2026-03-28T14:03:50Z</time></trkpt><trkpt lat="45.718781907681894" lon="4.873406480881031"><ele>181.33333333333334</ele><time>2026-03-28T14:03:51Z</time></trkpt><trkpt lat="45.71875739006245" lon="4.873176357681446"><ele>181.0</ele><time>2026-03-28T14:03:52Z</time></trkpt><trkpt lat="45.71873362309055" lon="4.872945072752518"><ele>181.0</ele><time>2026-03-28T14:03:53Z</time></trkpt><trkpt lat="45.718710138769545" lon="4.872712594070491"><ele>181.0</ele><time>2026-03-28T14:03:54Z</time></trkpt><trkpt lat="45.71868976218995" lon="4.872482935025979"><ele>181.0</ele><time>2026-03-28T14:03:55Z</time></trkpt><trkpt lat="45.71866777677633" lon="4.872250305463999"><ele>181.33333333333334</ele><time>2026-03-28T14:03:56Z</time></trkpt><trkpt lat="45.718643046367916" lon="4.87201940975529"><ele>181.66666666666666</ele><time>2026-03-28T14:03:57Z</time></trkpt><trkpt lat="45.71861897918335" lon="4.871788687008914"><ele>182.0</ele><time>2026-03-28T14:03:58Z</time></trkpt><trkpt lat="45.718599356509436" lon="4.871560143485264"><ele>182.0</ele><time>2026-03-28T14:03:59Z</time></trkpt><trkpt lat="45.71857949375131" lon="4.871329058380808"><ele>182.0</ele><time>2026-03-28T14:04:00Z</time></trkpt><trkpt lat="45.71855930815931" lon="4.871096423687623"><ele>182.0</ele><time>2026-03-28T14:04:01Z</time></trkpt><trkpt lat="45.718536252593886" lon="4.870866137090425"><ele>180.66666666666666</ele><time>2026-03-28T14:04:02Z</time></trkpt><trkpt lat="45.71851244761881" lon="4.870637191931658"><ele>179.33333333333334</ele><time>2026-03-28T14:04:03Z</time></trkpt><trkpt lat="45.71849088971811" lon="4.870404815687513"><ele>178.0</ele><time>2026-03-28T14:04:04Z</time></trkpt><trkpt lat="45.71847416443633" lon="4.870172941608077"><ele>177.66666666666669</ele><time>2026-03-28T14:04:05Z</time></trkpt><trkpt lat="45.71845047612198" lon="4.869943724171245"><ele>177.33333333333334</ele><time>2026-03-28T14:04:06Z</time></trkpt><trkpt lat="45.71843051724532" lon="4.869711787380247"><ele>177.0</ele><time>2026-03-28T14:04:07Z</time></trkpt><trkpt lat="45.71840933664129" lon="4.86948152408906"><ele>177.0</ele><time>2026-03-28T14:04:08Z</time></trkpt><trkpt lat="45.71838888974734" lon="4.869250319623718"><ele>177.0</ele><time>2026-03-28T14:04:09Z</time></trkpt><trkpt lat="45.71836747155493" lon="4.869024703764818"><ele>177.0</ele><time>2026-03-28T14:04:10Z</time></trkpt><trkpt lat="45.718341744736485" lon="4.868793632009433"><ele>177.0</ele><time>2026-03-28T14:04:11Z</time></trkpt><trkpt lat="45.718320266709526" lon="4.868563259004056"><ele>177.0</ele><time>2026-03-28T14:04:12Z</time></trkpt><trkpt lat="45.718302732350594" lon="4.868331334660609"><ele>177.0</ele><time>2026-03-28T14:04:13Z</time></trkpt><trkpt lat="45.718281509214485" lon="4.868099209010851"><ele>177.66666666666666</ele><time>2026-03-28T14:04:14Z</time></trkpt><trkpt lat="45.7182597394681" lon="4.867867656329005"><ele>178.33333333333331</ele><time>2026-03-28T14:04:15Z</time></trkpt><trkpt lat="45.71823687501514" lon="4.867637385460065"><ele>179.0</ele><time>2026-03-28T14:04:16Z</time></trkpt><trkpt lat="45.71821435154996" lon="4.867409642852023"><ele>179.0</ele><time>2026-03-28T14:04:17Z</time></trkpt><trkpt lat="45.71819589601976" lon="4.867181641970247"><ele>179.0</ele><time>2026-03-28T14:04:18Z</time></trkpt><trkpt lat="45.71817484127824" lon="4.86695211432139"><ele>179.0</ele><time>2026-03-28T14:04:19Z</time></trkpt><trkpt lat="45.718154082153106" lon="4.866725973745257"><ele>178.66666666666666</ele><time>2026-03-28T14:04:20Z</time></trkpt><trkpt lat="45.71813214837332" lon="4.866497516180928"><ele>178.33333333333334</ele><time>2026-03-28T14:04:21Z</time></trkpt><trkpt lat="45.718108072441254" lon="4.866270184545028"><ele>178.0</ele><time>2026-03-28T14:04:22Z</time></trkpt><trkpt lat="45.718085658753786" lon="4.866042658342161"><ele>177.66666666666669</ele><time>2026-03-28T14:04:23Z</time></trkpt><trkpt lat="45.71806440811679" lon="4.865813364313289"><ele>177.33333333333334</ele><time>2026-03-28T14:04:24Z</time></trkpt><trkpt lat="45.71804253940341" lon="4.865583000300947"><ele>177.0</ele><time>2026-03-28T14:04:25Z</time></trkpt><trkpt lat="45.71802097962258" lon="4.865350450024449"><ele>177.0</ele><time>2026-03-28T14:04:26Z</time></trkpt><trkpt lat="45.71799656979489" lon="4.865120097873918"><ele>177.0</ele><time>2026-03-28T14:04:27Z</time></trkpt><trkpt lat="45.71797364587799" lon="4.864885226418977"><ele>177.0</ele><time>2026-03-28T14:04:28Z</time></trkpt><trkpt lat="45.717949960779116" lon="4.864649405996226"><ele>177.0</ele><time>2026-03-28T14:04:29Z</time></trkpt><trkpt lat="45.71792889527925" lon="4.864417194217364"><ele>177.0</ele><time>2026-03-28T14:04:30Z</time></trkpt><trkpt lat="45.71790470658116" lon="4.8641825221137545"><ele>177.0</ele><time>2026-03-28T14:04:31Z</time></trkpt><trkpt lat="45.717884445326646" lon="4.863952185779857"><ele>177.0</ele><time>2026-03-28T14:04:32Z</time></trkpt><trkpt lat="45.71786646960931" lon="4.8637159909091645"><ele>177.0</ele><time>2026-03-28T14:04:33Z</time></trkpt><trkpt lat="45.717847755699566" lon="4.863481141979369"><ele>177.0</ele><time>2026-03-28T14:04:34Z</time></trkpt><trkpt lat="45.717825603801586" lon="4.863245968760523"><ele>176.33333333333334</ele><time>2026-03-28T14:04:35Z</time></trkpt><trkpt lat="45.71779975177088" lon="4.863011818731339"><ele>175.66666666666669</ele><time>2026-03-28T14:04:36Z</time></trkpt><trkpt lat="45.7177759810427" lon="4.862778048380813"><ele>175.0</ele><time>2026-03-28T14:04:37Z</time></trkpt><trkpt lat="45.7177548489106" lon="4.862548004236166"><ele>174.66666666666669</ele><time>2026-03-28T14:04:38Z</time></trkpt><trkpt lat="45.71773199408458" lon="4.86232436701892"><ele>174.33333333333334</ele><time>2026-03-28T14:04:39Z</time></trkpt><trkpt lat="45.717712994214565" lon="4.862102077849613"><ele>174.0</ele><time>2026-03-28T14:04:40Z</time></trkpt><trkpt lat="45.717693762189185" lon="4.86188031246041"><ele>174.0</ele><time>2026-03-28T14:04:41Z</time></trkpt><trkpt lat="45.71767380931347" lon="4.861654937772943"><ele>174.0</ele><time>2026-03-28T14:04:42Z</time></trkpt><trkpt lat="45.717650485590966" lon="4.861428151476085"><ele>174.0</ele><time>2026-03-28T14:04:43Z</time></trkpt><trkpt lat="45.71762765504687" lon="4.861201280825141"><ele>174.0</ele><time>2026-03-28T14:04:44Z</time></trkpt><trkpt lat="45.71759915257817" lon="4.86097355070014"><ele>174.0</ele><time>2026-03-28T14:04:45Z</time></trkpt><trkpt lat="45.71757339955332" lon="4.860743328244315"><ele>174.0</ele><time>2026-03-28T14:04:46Z</time></trkpt><trkpt lat="45.71754779469111" lon="4.860514543878883"><ele>174.33333333333334</ele><time>2026-03-28T14:04:47Z</time></trkpt><trkpt lat="45.71752309736545" lon="4.860285603810003"><ele>174.66666666666669</ele><time>2026-03-28T14:04:48Z</time></trkpt><trkpt lat="45.71750313355097" lon="4.860052524668608"><ele>175.0</ele><time>2026-03-28T14:04:49Z</time></trkpt><trkpt lat="45.71748200098238" lon="4.859825812491017"><ele>175.0</ele><time>2026-03-28T14:04:50Z</time></trkpt><trkpt lat="45.717461388739295" lon="4.859607849318703"><ele>175.0</ele><time>2026-03-28T14:04:51Z</time></trkpt><trkpt lat="45.717440197038904" lon="4.859392930402937"><ele>175.0</ele><time>2026-03-28T14:04:52Z</time></trkpt><trkpt lat="45.71742022892019" lon="4.859179586340044"><ele>175.0</ele><time>2026-03-28T14:04:53Z</time></trkpt><trkpt lat="45.71740033971061" lon="4.858967536104246"><ele>175.0</ele><time>2026-03-28T14:04:54Z</time></trkpt><trkpt lat="45.71737967574692" lon="4.858754794261294"><ele>175.0</ele><time>2026-03-28T14:04:55Z</time></trkpt><trkpt lat="45.71736228181212" lon="4.858545701245879"><ele>175.0</ele><time>2026-03-28T14:04:56Z</time></trkpt><trkpt lat="45.7173407241916" lon="4.858339793025711"><ele>175.25</ele><time>2026-03-28T14:04:57Z</time></trkpt><trkpt lat="45.71732530138767" lon="4.8581300902163544"><ele>175.5</ele><time>2026-03-28T14:04:58Z</time></trkpt><trkpt lat="45.717304718517866" lon="4.85792493014219"><ele>175.75</ele><time>2026-03-28T14:04:59Z</time></trkpt><trkpt lat="45.71728733933736" lon="4.8577148566815405"><ele>176.0</ele><time>2026-03-28T14:05:00Z</time></trkpt><trkpt lat="45.71726701778725" lon="4.857504561623868"><ele>176.66666666666666</ele><time>2026-03-28T14:05:01Z</time></trkpt><trkpt lat="45.71724356166925" lon="4.85729152711507"><ele>177.33333333333334</ele><time>2026-03-28T14:05:02Z</time></trkpt><trkpt lat="45.71722150889883" lon="4.857079064415204"><ele>178.0</ele><time>2026-03-28T14:05:03Z</time></trkpt><trkpt lat="45.71720250035562" lon="4.856865010648855"><ele>177.75</ele><time>2026-03-28T14:05:04Z</time></trkpt><trkpt lat="45.7171858088883" lon="4.856656633787798"><ele>177.5</ele><time>2026-03-28T14:05:05Z</time></trkpt><trkpt lat="45.71716556018958" lon="4.856447300387645"><ele>177.25</ele><time>2026-03-28T14:05:06Z</time></trkpt><trkpt lat="45.71714799031115" lon="4.856239743318477"><ele>177.0</ele><time>2026-03-28T14:05:07Z</time></trkpt><trkpt lat="45.71712788962474" lon="4.856034248197241"><ele>177.0</ele><time>2026-03-28T14:05:08Z</time></trkpt><trkpt lat="45.71711370449679" lon="4.855830708538615"><ele>177.0</ele><time>2026-03-28T14:05:09Z</time></trkpt><trkpt lat="45.71709741322542" lon="4.855626846851592"><ele>177.0</ele><time>2026-03-28T14:05:10Z</time></trkpt><trkpt lat="45.71708010793268" lon="4.855421601192923"><ele>177.0</ele><time>2026-03-28T14:05:11Z</time></trkpt><trkpt lat="45.717056370649324" lon="4.855211988276099"><ele>177.0</ele><time>2026-03-28T14:05:12Z</time></trkpt><trkpt lat="45.717027217078176" lon="4.854999225661786"><ele>177.0</ele><time>2026-03-28T14:05:13Z</time></trkpt><trkpt lat="45.716996820553284" lon="4.854786568678816"><ele>177.0</ele><time>2026-03-28T14:05:14Z</time></trkpt><trkpt lat="45.71696885033529" lon="4.854559960895268"><ele>177.0</ele><time>2026-03-28T14:05:15Z</time></trkpt><trkpt lat="45.716939699614024" lon="4.854326104163252"><ele>177.0</ele><time>2026-03-28T14:05:16Z</time></trkpt><trkpt lat="45.71691217959527" lon="4.854091648796485"><ele>177.0</ele><time>2026-03-28T14:05:17Z</time></trkpt><trkpt lat="45.7168838088007" lon="4.853854426607188"><ele>176.33333333333334</ele><time>2026-03-28T14:05:18Z</time></trkpt><trkpt lat="45.71686153340968" lon="4.853616958394881"><ele>175.66666666666669</ele><time>2026-03-28T14:05:19Z</time></trkpt><trkpt lat="45.71683621146703" lon="4.8533772904280745"><ele>175.0</ele><time>2026-03-28T14:05:20Z</time></trkpt><trkpt lat="45.71680851517112" lon="4.853139446669372"><ele>175.0</ele><time>2026-03-28T14:05:21Z</time></trkpt><trkpt lat="45.71678449302626" lon="4.852903809189527"><ele>175.0</ele><time>2026-03-28T14:05:22Z</time></trkpt><trkpt lat="45.716762254723854" lon="4.852669638087376"><ele>175.0</ele><time>2026-03-28T14:05:23Z</time></trkpt><trkpt lat="45.716740230362284" lon="4.852436090771478"><ele>173.66666666666669</ele><time>2026-03-28T14:05:24Z</time></trkpt><trkpt lat="45.71671621694006" lon="4.852200521230435"><ele>172.33333333333334</ele><time>2026-03-28T14:05:25Z</time></trkpt><trkpt lat="45.716694370586495" lon="4.851962567405823"><ele>171.0</ele><time>2026-03-28T14:05:26Z</time></trkpt><trkpt lat="45.7166726628805" lon="4.851729804475928"><ele>171.0</ele><time>2026-03-28T14:05:27Z</time></trkpt><trkpt lat="45.71665221750344" lon="4.8515118918942415"><ele>171.0</ele><time>2026-03-28T14:05:28Z</time></trkpt><trkpt lat="45.716632392656955" lon="4.851301477818548"><ele>171.0</ele><time>2026-03-28T14:05:29Z</time></trkpt><trkpt lat="45.71660937209156" lon="4.85110114030728"><ele>171.0</ele><time>2026-03-28T14:05:30Z</time></trkpt><trkpt lat="45.71659006990435" lon="4.850913101461881"><ele>171.0</ele><time>2026-03-28T14:05:31Z</time></trkpt><trkpt lat="45.71657260143478" lon="4.850729088253216"><ele>171.0</ele><time>2026-03-28T14:05:32Z</time></trkpt><trkpt lat="45.71656626140509" lon="4.850549149389498"><ele>171.0</ele><time>2026-03-28T14:05:33Z</time></trkpt><trkpt lat="45.71655683491025" lon="4.850368730464125"><ele>171.0</ele><time>2026-03-28T14:05:34Z</time></trkpt><trkpt lat="45.71654490901546" lon="4.850183563987144"><ele>171.25</ele><time>2026-03-28T14:05:35Z</time></trkpt><trkpt lat="45.716530863061074" lon="4.849996627881653"><ele>171.5</ele><time>2026-03-28T14:05:36Z</time></trkpt><trkpt lat="45.71651480188663" lon="4.849802319807183"><ele>171.75</ele><time>2026-03-28T14:05:37Z</time></trkpt><trkpt lat="45.71649451873005" lon="4.849601423790036"><ele>172.0</ele><time>2026-03-28T14:05:38Z</time></trkpt><trkpt lat="45.71647653829708" lon="4.849398062652344"><ele>172.0</ele><time>2026-03-28T14:05:39Z</time></trkpt><trkpt lat="45.71645904148128" lon="4.849197830763061"><ele>172.0</ele><time>2026-03-28T14:05:40Z</time></trkpt><trkpt lat="45.716438427376474" lon="4.8489971183234095"><ele>172.0</ele><time>2026-03-28T14:05:41Z</time></trkpt><trkpt lat="45.716419615566465" lon="4.848794537916874"><ele>172.0</ele><time>2026-03-28T14:05:42Z</time></trkpt><trkpt lat="45.71640031109627" lon="4.848592133443504"><ele>171.5</ele><time>2026-03-28T14:05:43Z</time></trkpt><trkpt lat="45.71638171695338" lon="4.848394053624528"><ele>171.0</ele><time>2026-03-28T14:05:44Z</time></trkpt><trkpt lat="45.71636493717489" lon="4.848196713116957"><ele>170.5</ele><time>2026-03-28T14:05:45Z</time></trkpt><trkpt lat="45.71634193381795" lon="4.847995545428639"><ele>170.0</ele><time>2026-03-28T14:05:46Z</time></trkpt><trkpt lat="45.71632536551716" lon="4.847792273459721"><ele>169.25</ele><time>2026-03-28T14:05:47Z</time></trkpt><trkpt lat="45.71630731282639" lon="4.847583511449922"><ele>168.5</ele><time>2026-03-28T14:05:48Z</time></trkpt><trkpt lat="45.71628716112348" lon="4.847375499875943"><ele>167.75</ele><time>2026-03-28T14:05:49Z</time></trkpt><trkpt lat="45.71627070056692" lon="4.84716779681274"><ele>167.0</ele><time>2026-03-28T14:05:50Z</time></trkpt><trkpt lat="45.71625577420901" lon="4.846959621312238"><ele>166.5</ele><time>2026-03-28T14:05:51Z</time></trkpt><trkpt lat="45.716237677926934" lon="4.846750797715469"><ele>166.0</ele><time>2026-03-28T14:05:52Z</time></trkpt><trkpt lat="45.7162204211401" lon="4.8465458917084145"><ele>165.5</ele><time>2026-03-28T14:05:53Z</time></trkpt><trkpt lat="45.71620248587279" lon="4.8463424437350815"><ele>165.0</ele><time>2026-03-28T14:05:54Z</time></trkpt><trkpt lat="45.71618309960178" lon="4.846137214419804"><ele>164.5</ele><time>2026-03-28T14:05:55Z</time></trkpt><trkpt lat="45.71616455735823" lon="4.845937089379256"><ele>164.0</ele><time>2026-03-28T14:05:56Z</time></trkpt><trkpt lat="45.71614730963669" lon="4.8457401722312605"><ele>163.5</ele><time>2026-03-28T14:05:57Z</time></trkpt><trkpt lat="45.71612945472387" lon="4.845545955520561"><ele>163.0</ele><time>2026-03-28T14:05:58Z</time></trkpt><trkpt lat="45.716113586587696" lon="4.845358526654376"><ele>163.0</ele><time>2026-03-28T14:05:59Z</time></trkpt><trkpt lat="45.71609639601318" lon="4.845187020070079"><ele>163.0</ele><time>2026-03-28T14:06:00Z</time></trkpt><trkpt lat="45.71607809732781" lon="4.845014894337926"><ele>163.0</ele><time>2026-03-28T14:06:01Z</time></trkpt><trkpt lat="45.71606302380014" lon="4.844852731303208"><ele>163.0</ele><time>2026-03-28T14:06:02Z</time></trkpt><trkpt lat="45.71604953229986" lon="4.84469498157752"><ele>164.2</ele><time>2026-03-28T14:06:03Z</time></trkpt><trkpt lat="45.71603654077641" lon="4.84453618476824"><ele>165.4</ele><time>2026-03-28T14:06:04Z</time></trkpt><trkpt lat="45.71602525267586" lon="4.8443754433576265"><ele>166.6</ele><time>2026-03-28T14:06:05Z</time></trkpt><trkpt lat="45.71602189996764" lon="4.844219877851753"><ele>167.79999999999998</ele><time>2026-03-28T14:06:06Z</time></trkpt><trkpt lat="45.71602732961188" lon="4.84406491497866"><ele>169.0</ele><time>2026-03-28T14:06:07Z</time></trkpt><trkpt lat="45.716047618312224" lon="4.843908901594173"><ele>168.0</ele><time>2026-03-28T14:06:08Z</time></trkpt><trkpt lat="45.71607814334388" lon="4.843751796924454"><ele>167.0</ele><time>2026-03-28T14:06:09Z</time></trkpt><trkpt lat="45.71610850005815" lon="4.843598025111369"><ele>166.0</ele><time>2026-03-28T14:06:10Z</time></trkpt><trkpt lat="45.716137141092645" lon="4.843445958849586"><ele>165.0</ele><time>2026-03-28T14:06:11Z</time></trkpt><trkpt lat="45.71615677034104" lon="4.843301705206494"><ele>164.0</ele><time>2026-03-28T14:06:12Z</time></trkpt><trkpt lat="45.71616090456562" lon="4.843151767093569"><ele>164.0</ele><time>2026-03-28T14:06:13Z</time></trkpt><trkpt lat="45.71614409273647" lon="4.843004442946265"><ele>164.0</ele><time>2026-03-28T14:06:14Z</time></trkpt><trkpt lat="45.71610536413776" lon="4.842869817961467"><ele>164.0</ele><time>2026-03-28T14:06:15Z</time></trkpt><trkpt lat="45.716050330554374" lon="4.842747974529833"><ele>164.0</ele><time>2026-03-28T14:06:16Z</time></trkpt><trkpt lat="45.71597741756968" lon="4.842648347371876"><ele>164.0</ele><time>2026-03-28T14:06:17Z</time></trkpt><trkpt lat="45.71589334963683" lon="4.8425736423808035"><ele>164.79999999999998</ele><time>2026-03-28T14:06:18Z</time></trkpt><trkpt lat="45.71579956434348" lon="4.842518958249856"><ele>165.6</ele><time>2026-03-28T14:06:19Z</time></trkpt><trkpt lat="45.715699186107216" lon="4.842495326149209"><ele>166.4</ele><time>2026-03-28T14:06:20Z</time></trkpt><trkpt lat="45.71559709949697" lon="4.842497223427797"><ele>167.2</ele><time>2026-03-28T14:06:21Z</time></trkpt><trkpt lat="45.7154966658909" lon="4.842521561851642"><ele>168.0</ele><time>2026-03-28T14:06:22Z</time></trkpt><trkpt lat="45.7153988496223" lon="4.842573095499237"><ele>168.0</ele><time>2026-03-28T14:06:23Z</time></trkpt><trkpt lat="45.715299842768175" lon="4.842646625206041"><ele>168.0</ele><time>2026-03-28T14:06:24Z</time></trkpt><trkpt lat="45.71519573504295" lon="4.8427222935059655"><ele>168.0</ele><time>2026-03-28T14:06:25Z</time></trkpt><trkpt lat="45.71508856036871" lon="4.842791190109911"><ele>168.0</ele><time>2026-03-28T14:06:26Z</time></trkpt><trkpt lat="45.71496914215121" lon="4.842852369535884"><ele>167.5</ele><time>2026-03-28T14:06:27Z</time></trkpt><trkpt lat="45.714848544199214" lon="4.842899894609989"><ele>167.0</ele><time>2026-03-28T14:06:28Z</time></trkpt><trkpt lat="45.71472912278243" lon="4.842937372731327"><ele>166.5</ele><time>2026-03-28T14:06:29Z</time></trkpt><trkpt lat="45.7145967865461" lon="4.8429712740730215"><ele>166.0</ele><time>2026-03-28T14:06:30Z</time></trkpt><trkpt lat="45.71446462914699" lon="4.843003422846404"><ele>165.75</ele><time>2026-03-28T14:06:31Z</time></trkpt><trkpt lat="45.714327808412605" lon="4.843023578707315"><ele>165.5</ele><time>2026-03-28T14:06:32Z</time></trkpt><trkpt lat="45.71418487613928" lon="4.843035822705257"><ele>165.25</ele><time>2026-03-28T14:06:33Z</time></trkpt><trkpt lat="45.71403810689423" lon="4.843044210218289"><ele>165.0</ele><time>2026-03-28T14:06:34Z</time></trkpt><trkpt lat="45.71388460738756" lon="4.843051626552448"><ele>165.0</ele><time>2026-03-28T14:06:35Z</time></trkpt><trkpt lat="45.71372811224324" lon="4.843063989502928"><ele>165.0</ele><time>2026-03-28T14:06:36Z</time></trkpt><trkpt lat="45.71356530277445" lon="4.843076215110024"><ele>165.0</ele><time>2026-03-28T14:06:37Z</time></trkpt><trkpt lat="45.713398788301554" lon="4.8430863076263355"><ele>165.33333333333334</ele><time>2026-03-28T14:06:38Z</time></trkpt><trkpt lat="45.7132286813229" lon="4.843097336419094"><ele>165.66666666666669</ele><time>2026-03-28T14:06:39Z</time></trkpt><trkpt lat="45.71305849730087" lon="4.843108258417954"><ele>166.0</ele><time>2026-03-28T14:06:40Z</time></trkpt><trkpt lat="45.71288890493161" lon="4.843118843376794"><ele>165.66666666666669</ele><time>2026-03-28T14:06:41Z</time></trkpt><trkpt lat="45.71271829339589" lon="4.84312790766736"><ele>165.33333333333334</ele><time>2026-03-28T14:06:42Z</time></trkpt><trkpt lat="45.71254749683711" lon="4.843139193286261"><ele>165.0</ele><time>2026-03-28T14:06:43Z</time></trkpt><trkpt lat="45.7123768241165" lon="4.843148014880249"><ele>165.0</ele><time>2026-03-28T14:06:44Z</time></trkpt><trkpt lat="45.712207496440236" lon="4.843164180146221"><ele>165.0</ele><time>2026-03-28T14:06:45Z</time></trkpt><trkpt lat="45.712038190443046" lon="4.843181144164158"><ele>165.0</ele><time>2026-03-28T14:06:46Z</time></trkpt><trkpt lat="45.71186845676429" lon="4.843200384082382"><ele>165.33333333333334</ele><time>2026-03-28T14:06:47Z</time></trkpt><trkpt lat="45.71170138166452" lon="4.843221912803346"><ele>165.66666666666669</ele><time>2026-03-28T14:06:48Z</time></trkpt><trkpt lat="45.711539061057216" lon="4.84324422393458"><ele>166.0</ele><time>2026-03-28T14:06:49Z</time></trkpt><trkpt lat="45.71137434280837" lon="4.843261766645057"><ele>166.0</ele><time>2026-03-28T14:06:50Z</time></trkpt><trkpt lat="45.71121058954896" lon="4.843281513831337"><ele>166.0</ele><time>2026-03-28T14:06:51Z</time></trkpt><trkpt lat="45.71104879426385" lon="4.843301378196993"><ele>166.0</ele><time>2026-03-28T14:06:52Z</time></trkpt><trkpt lat="45.71088513502806" lon="4.843319840739802"><ele>166.0</ele><time>2026-03-28T14:06:53Z</time></trkpt><trkpt lat="45.71072151271998" lon="4.843332911265553"><ele>166.0</ele><time>2026-03-28T14:06:54Z</time></trkpt><trkpt lat="45.71055901622813" lon="4.843350464722986"><ele>166.0</ele><time>2026-03-28T14:06:55Z</time></trkpt><trkpt lat="45.71039663447494" lon="4.843369071411282"><ele>165.66666666666669</ele><time>2026-03-28T14:06:56Z</time></trkpt><trkpt lat="45.710234735018666" lon="4.843384449385479"><ele>165.33333333333334</ele><time>2026-03-28T14:06:57Z</time></trkpt><trkpt lat="45.7100730640238" lon="4.843399119218777"><ele>165.0</ele><time>2026-03-28T14:06:58Z</time></trkpt><trkpt lat="45.709910288290686" lon="4.843416656587441"><ele>165.0</ele><time>2026-03-28T14:06:59Z</time></trkpt><trkpt lat="45.70974803025337" lon="4.843432746450362"><ele>165.0</ele><time>2026-03-28T14:07:00Z</time></trkpt><trkpt lat="45.7095863938223" lon="4.843446499438449"><ele>165.0</ele><time>2026-03-28T14:07:01Z</time></trkpt><trkpt lat="45.709425762659706" lon="4.8434623079015955"><ele>164.33333333333334</ele><time>2026-03-28T14:07:02Z</time></trkpt><trkpt lat="45.70926345049545" lon="4.843478117138848"><ele>163.66666666666669</ele><time>2026-03-28T14:07:03Z</time></trkpt><trkpt lat="45.70910207895522" lon="4.8434907013521515"><ele>163.0</ele><time>2026-03-28T14:07:04Z</time></trkpt><trkpt lat="45.70894000749695" lon="4.843504992394608"><ele>163.0</ele><time>2026-03-28T14:07:05Z</time></trkpt><trkpt lat="45.70877606472813" lon="4.843518025987904"><ele>163.0</ele><time>2026-03-28T14:07:06Z</time></trkpt><trkpt lat="45.708612913915964" lon="4.84353199287945"><ele>163.0</ele><time>2026-03-28T14:07:07Z</time></trkpt><trkpt lat="45.70844900795547" lon="4.84354677984536"><ele>163.66666666666669</ele><time>2026-03-28T14:07:08Z</time></trkpt><trkpt lat="45.70828611629875" lon="4.843559640262938"><ele>164.33333333333334</ele><time>2026-03-28T14:07:09Z</time></trkpt><trkpt lat="45.70812047843328" lon="4.843567948273747"><ele>165.0</ele><time>2026-03-28T14:07:10Z</time></trkpt><trkpt lat="45.70795530849288" lon="4.8435790624482395"><ele>165.0</ele><time>2026-03-28T14:07:11Z</time></trkpt><trkpt lat="45.70779291406848" lon="4.843592300654725"><ele>165.0</ele><time>2026-03-28T14:07:12Z</time></trkpt><trkpt lat="45.707628595914485" lon="4.843604348597274"><ele>165.0</ele><time>2026-03-28T14:07:13Z</time></trkpt><trkpt lat="45.70746413847555" lon="4.843621403177156"><ele>165.33333333333334</ele><time>2026-03-28T14:07:14Z</time></trkpt><trkpt lat="45.707300380474614" lon="4.8436376046171645"><ele>165.66666666666669</ele><time>2026-03-28T14:07:15Z</time></trkpt><trkpt lat="45.70713389165408" lon="4.843649865967942"><ele>166.0</ele><time>2026-03-28T14:07:16Z</time></trkpt><trkpt lat="45.70696655480044" lon="4.843661415107077"><ele>165.33333333333334</ele><time>2026-03-28T14:07:17Z</time></trkpt><trkpt lat="45.70680222740102" lon="4.843672272724573"><ele>164.66666666666666</ele><time>2026-03-28T14:07:18Z</time></trkpt><trkpt lat="45.70663485148418" lon="4.843687420407954"><ele>164.0</ele><time>2026-03-28T14:07:19Z</time></trkpt><trkpt lat="45.7064697682983" lon="4.843701145554791"><ele>164.0</ele><time>2026-03-28T14:07:20Z</time></trkpt><trkpt lat="45.7063039727043" lon="4.843715377800173"><ele>164.0</ele><time>2026-03-28T14:07:21Z</time></trkpt><trkpt lat="45.70613861924859" lon="4.8437277803178596"><ele>164.0</ele><time>2026-03-28T14:07:22Z</time></trkpt><trkpt lat="45.70597379951771" lon="4.843742871387974"><ele>164.33333333333331</ele><time>2026-03-28T14:07:23Z</time></trkpt><trkpt lat="45.70580934242213" lon="4.843756967819219"><ele>164.66666666666666</ele><time>2026-03-28T14:07:24Z</time></trkpt><trkpt lat="45.70564370770398" lon="4.843770347865763"><ele>165.0</ele><time>2026-03-28T14:07:25Z</time></trkpt><trkpt lat="45.70547960535422" lon="4.843787071944815"><ele>165.0</ele><time>2026-03-28T14:07:26Z</time></trkpt><trkpt lat="45.705314809074046" lon="4.843806292478188"><ele>165.0</ele><time>2026-03-28T14:07:27Z</time></trkpt><trkpt lat="45.705148517463456" lon="4.843828799034141"><ele>165.0</ele><time>2026-03-28T14:07:28Z</time></trkpt><trkpt lat="45.70498500012926" lon="4.843855624114617"><ele>164.0</ele><time>2026-03-28T14:07:29Z</time></trkpt><trkpt lat="45.704821161274566" lon="4.843890977949866"><ele>163.0</ele><time>2026-03-28T14:07:30Z</time></trkpt><trkpt lat="45.704658444178285" lon="4.843927216899391"><ele>162.0</ele><time>2026-03-28T14:07:31Z</time></trkpt><trkpt lat="45.70449538932133" lon="4.843966021569317"><ele>163.0</ele><time>2026-03-28T14:07:32Z</time></trkpt><trkpt lat="45.70433176060309" lon="4.84400981396703"><ele>164.0</ele><time>2026-03-28T14:07:33Z</time></trkpt><trkpt lat="45.70417205904829" lon="4.844064375131419"><ele>165.0</ele><time>2026-03-28T14:07:34Z</time></trkpt><trkpt lat="45.70401141353723" lon="4.844121611861134"><ele>165.0</ele><time>2026-03-28T14:07:35Z</time></trkpt><trkpt lat="45.70385260253309" lon="4.844181531924655"><ele>165.0</ele><time>2026-03-28T14:07:36Z</time></trkpt><trkpt lat="45.70369398526076" lon="4.844248897586687"><ele>165.0</ele><time>2026-03-28T14:07:37Z</time></trkpt><trkpt lat="45.7035372189512" lon="4.844321783204257"><ele>164.0</ele><time>2026-03-28T14:07:38Z</time></trkpt><trkpt lat="45.70338000439579" lon="4.844393521573196"><ele>163.0</ele><time>2026-03-28T14:07:39Z</time></trkpt><trkpt lat="45.70322590350021" lon="4.844472011824719"><ele>162.0</ele><time>2026-03-28T14:07:40Z</time></trkpt><trkpt lat="45.70307451312873" lon="4.844551112185818"><ele>162.0</ele><time>2026-03-28T14:07:41Z</time></trkpt><trkpt lat="45.70292131407145" lon="4.844628170159677"><ele>162.0</ele><time>2026-03-28T14:07:42Z</time></trkpt><trkpt lat="45.702767880001446" lon="4.844705885658252"><ele>162.0</ele><time>2026-03-28T14:07:43Z</time></trkpt><trkpt lat="45.70261390269241" lon="4.8447802488998875"><ele>161.5</ele><time>2026-03-28T14:07:44Z</time></trkpt><trkpt lat="45.702464471142456" lon="4.844852235872232"><ele>161.0</ele><time>2026-03-28T14:07:45Z</time></trkpt><trkpt lat="45.70232884185979" lon="4.844918622558384"><ele>160.5</ele><time>2026-03-28T14:07:46Z</time></trkpt><trkpt lat="45.70219703161329" lon="4.844978287682766"><ele>160.0</ele><time>2026-03-28T14:07:47Z</time></trkpt><trkpt lat="45.70207240551362" lon="4.845031782404085"><ele>160.0</ele><time>2026-03-28T14:07:48Z</time></trkpt><trkpt lat="45.701954667697954" lon="4.845081076693018"><ele>160.0</ele><time>2026-03-28T14:07:49Z</time></trkpt><trkpt lat="45.701846242161174" lon="4.845126354138795"><ele>160.0</ele><time>2026-03-28T14:07:50Z</time></trkpt><trkpt lat="45.7017397485068" lon="4.845166955786718"><ele>160.0</ele><time>2026-03-28T14:07:51Z</time></trkpt><trkpt lat="45.701633623606384" lon="4.845204744835648"><ele>160.75</ele><time>2026-03-28T14:07:52Z</time></trkpt><trkpt lat="45.701526543882196" lon="4.845240083436697"><ele>161.5</ele><time>2026-03-28T14:07:53Z</time></trkpt><trkpt lat="45.7014162312472" lon="4.845274759457815"><ele>162.25</ele><time>2026-03-28T14:07:54Z</time></trkpt><trkpt lat="45.701300525738034" lon="4.845307118101392"><ele>163.0</ele><time>2026-03-28T14:07:55Z</time></trkpt><trkpt lat="45.70119022126448" lon="4.845335116375511"><ele>162.60000000000002</ele><time>2026-03-28T14:07:56Z</time></trkpt><trkpt lat="45.70108021279776" lon="4.845362161896154"><ele>162.20000000000002</ele><time>2026-03-28T14:07:57Z</time></trkpt><trkpt lat="45.70097447970997" lon="4.84538943617179"><ele>161.8</ele><time>2026-03-28T14:07:58Z</time></trkpt><trkpt lat="45.7008710447737" lon="4.845410789124084"><ele>161.4</ele><time>2026-03-28T14:07:59Z</time></trkpt><trkpt lat="45.70076649290338" lon="4.845428079206447"><ele>161.0</ele><time>2026-03-28T14:08:00Z</time></trkpt><trkpt lat="45.700661175783395" lon="4.845444444070338"><ele>161.0</ele><time>2026-03-28T14:08:01Z</time></trkpt><trkpt lat="45.70055721219697" lon="4.845460420241863"><ele>161.0</ele><time>2026-03-28T14:08:02Z</time></trkpt><trkpt lat="45.70045528503711" lon="4.845475040535226"><ele>161.0</ele><time>2026-03-28T14:08:03Z</time></trkpt><trkpt lat="45.70035020832678" lon="4.845489286516438"><ele>161.0</ele><time>2026-03-28T14:08:04Z</time></trkpt><trkpt lat="45.70024518612951" lon="4.845500688370751"><ele>161.0</ele><time>2026-03-28T14:08:05Z</time></trkpt><trkpt lat="45.70013973186921" lon="4.845508120633431"><ele>161.20000000000002</ele><time>2026-03-28T14:08:06Z</time></trkpt><trkpt lat="45.70003769856126" lon="4.845514246628831"><ele>161.4</ele><time>2026-03-28T14:08:07Z</time></trkpt><trkpt lat="45.699941098406235" lon="4.845520595289799"><ele>161.6</ele><time>2026-03-28T14:08:08Z</time></trkpt><trkpt lat="45.6998482634443" lon="4.845525506267643"><ele>161.8</ele><time>2026-03-28T14:08:09Z</time></trkpt><trkpt lat="45.69975681012707" lon="4.845527914814422"><ele>162.0</ele><time>2026-03-28T14:08:10Z</time></trkpt><trkpt lat="45.69966347357575" lon="4.8455286593693945"><ele>162.0</ele><time>2026-03-28T14:08:11Z</time></trkpt><trkpt lat="45.69957481851708" lon="4.845527080756624"><ele>162.0</ele><time>2026-03-28T14:08:12Z</time></trkpt><trkpt lat="45.699494278092864" lon="4.84552618102295"><ele>162.0</ele><time>2026-03-28T14:08:13Z</time></trkpt><trkpt lat="45.69941744420678" lon="4.845523274800106"><ele>162.0</ele><time>2026-03-28T14:08:14Z</time></trkpt><trkpt lat="45.699344641942304" lon="4.845519088529625"><ele>162.0</ele><time>2026-03-28T14:08:15Z</time></trkpt><trkpt lat="45.69927675577392" lon="4.8455170872245965"><ele>162.0</ele><time>2026-03-28T14:08:16Z</time></trkpt><trkpt lat="45.699209744953635" lon="4.845513566708477"><ele>161.83333333333334</ele><time>2026-03-28T14:08:17Z</time></trkpt><trkpt lat="45.6991467525752" lon="4.8455093014833155"><ele>161.66666666666666</ele><time>2026-03-28T14:08:18Z</time></trkpt><trkpt lat="45.69908273871232" lon="4.845504040780795"><ele>161.5</ele><time>2026-03-28T14:08:19Z</time></trkpt><trkpt lat="45.69896424207352" lon="4.845489919502446"><ele>161.33333333333331</ele><time>2026-03-28T14:08:21Z</time></trkpt><trkpt lat="45.6988999769332" lon="4.8454809447126355"><ele>161.16666666666666</ele><time>2026-03-28T14:08:22Z</time></trkpt><trkpt lat="45.69882980322069" lon="4.845470864577835"><ele>161.0</ele><time>2026-03-28T14:08:23Z</time></trkpt><trkpt lat="45.69875384536084" lon="4.845458147261884"><ele>161.0</ele><time>2026-03-28T14:08:24Z</time></trkpt><trkpt lat="45.69867014631908" lon="4.845443953315696"><ele>161.0</ele><time>2026-03-28T14:08:25Z</time></trkpt><trkpt lat="45.698581029218786" lon="4.845428460784262"><ele>161.0</ele><time>2026-03-28T14:08:26Z</time></trkpt><trkpt lat="45.69848998567007" lon="4.845411324358433"><ele>161.0</ele><time>2026-03-28T14:08:27Z</time></trkpt><trkpt lat="45.69839512013" lon="4.845391508897871"><ele>161.0</ele><time>2026-03-28T14:08:28Z</time></trkpt><trkpt lat="45.69830349908165" lon="4.845370653549574"><ele>161.60000000000002</ele><time>2026-03-28T14:08:29Z</time></trkpt><trkpt lat="45.69820987677699" lon="4.845348482410953"><ele>162.2</ele><time>2026-03-28T14:08:30Z</time></trkpt><trkpt lat="45.69811002783922" lon="4.84532373262764"><ele>162.8</ele><time>2026-03-28T14:08:31Z</time></trkpt><trkpt lat="45.69800981324867" lon="4.84529803826329"><ele>163.39999999999998</ele><time>2026-03-28T14:08:32Z</time></trkpt><trkpt lat="45.69791267760589" lon="4.845270608557298"><ele>164.0</ele><time>2026-03-28T14:08:33Z</time></trkpt><trkpt lat="45.697825683546085" lon="4.845245177429113"><ele>163.0</ele><time>2026-03-28T14:08:34Z</time></trkpt><trkpt lat="45.69773815035782" lon="4.845219505140776"><ele>162.0</ele><time>2026-03-28T14:08:35Z</time></trkpt><trkpt lat="45.69765223257227" lon="4.845193836871118"><ele>161.0</ele><time>2026-03-28T14:08:36Z</time></trkpt><trkpt lat="45.697572653015996" lon="4.845167078049669"><ele>160.0</ele><time>2026-03-28T14:08:37Z</time></trkpt><trkpt lat="45.697506911039994" lon="4.845143890001549"><ele>159.0</ele><time>2026-03-28T14:08:38Z</time></trkpt><trkpt lat="45.69744497495718" lon="4.845122424509382"><ele>158.0</ele><time>2026-03-28T14:08:39Z</time></trkpt><trkpt lat="45.69732901594951" lon="4.845076418858753"><ele>158.0</ele><time>2026-03-28T14:08:41Z</time></trkpt><trkpt lat="45.69720654416904" lon="4.845025524929591"><ele>158.0</ele><time>2026-03-28T14:08:43Z</time></trkpt><trkpt lat="45.69713588304224" lon="4.844996974492244"><ele>158.0</ele><time>2026-03-28T14:08:44Z</time></trkpt><trkpt lat="45.69706308396627" lon="4.8449670976700485"><ele>158.0</ele><time>2026-03-28T14:08:45Z</time></trkpt><trkpt lat="45.69698353528187" lon="4.844931555340615"><ele>158.0</ele><time>2026-03-28T14:08:46Z</time></trkpt><trkpt lat="45.696902324474394" lon="4.8448951800094875"><ele>158.0</ele><time>2026-03-28T14:08:47Z</time></trkpt><trkpt lat="45.6968217496393" lon="4.8448558926953655"><ele>157.8</ele><time>2026-03-28T14:08:48Z</time></trkpt><trkpt lat="45.69674179388321" lon="4.844818243265726"><ele>157.60000000000002</ele><time>2026-03-28T14:08:49Z</time></trkpt><trkpt lat="45.69665410335638" lon="4.84477615495001"><ele>157.39999999999998</ele><time>2026-03-28T14:08:50Z</time></trkpt><trkpt lat="45.69656324348194" lon="4.844733541295856"><ele>157.2</ele><time>2026-03-28T14:08:51Z</time></trkpt><trkpt lat="45.69646583382543" lon="4.84468897730168"><ele>157.0</ele><time>2026-03-28T14:08:52Z</time></trkpt><trkpt lat="45.69636731819297" lon="4.844642427618642"><ele>157.0</ele><time>2026-03-28T14:08:53Z</time></trkpt><trkpt lat="45.69626731939285" lon="4.844594812749914"><ele>157.0</ele><time>2026-03-28T14:08:54Z</time></trkpt><trkpt lat="45.69616467720995" lon="4.844546758332906"><ele>157.0</ele><time>2026-03-28T14:08:55Z</time></trkpt><trkpt lat="45.69605733456523" lon="4.844503924711308"><ele>157.0</ele><time>2026-03-28T14:08:56Z</time></trkpt><trkpt lat="45.69595454395046" lon="4.844467990023707"><ele>157.0</ele><time>2026-03-28T14:08:57Z</time></trkpt><trkpt lat="45.69585272442546" lon="4.844429654439313"><ele>157.0</ele><time>2026-03-28T14:08:58Z</time></trkpt><trkpt lat="45.69574324660201" lon="4.844386893844905"><ele>157.0</ele><time>2026-03-28T14:08:59Z</time></trkpt><trkpt lat="45.695632954696556" lon="4.844344772799188"><ele>157.0</ele><time>2026-03-28T14:09:00Z</time></trkpt><trkpt lat="45.6955269914054" lon="4.844300477557902"><ele>157.0</ele><time>2026-03-28T14:09:01Z</time></trkpt><trkpt lat="45.695409685505034" lon="4.844256135231672"><ele>157.0</ele><time>2026-03-28T14:09:02Z</time></trkpt><trkpt lat="45.69529168307214" lon="4.844205863472155"><ele>157.0</ele><time>2026-03-28T14:09:03Z</time></trkpt><trkpt lat="45.69517106886846" lon="4.844139516265036"><ele>157.0</ele><time>2026-03-28T14:09:04Z</time></trkpt><trkpt lat="45.69504622414103" lon="4.844066995961041"><ele>157.0</ele><time>2026-03-28T14:09:05Z</time></trkpt><trkpt lat="45.694917207315584" lon="4.843988924623534"><ele>157.75</ele><time>2026-03-28T14:09:06Z</time></trkpt><trkpt lat="45.694781733541745" lon="4.8439004349299"><ele>158.5</ele><time>2026-03-28T14:09:07Z</time></trkpt><trkpt lat="45.69464828518466" lon="4.843809723865735"><ele>159.25</ele><time>2026-03-28T14:09:08Z</time></trkpt><trkpt lat="45.694513879520414" lon="4.843723025729491"><ele>160.0</ele><time>2026-03-28T14:09:09Z</time></trkpt><trkpt lat="45.6943797333167" lon="4.843638988848453"><ele>160.66666666666669</ele><time>2026-03-28T14:09:10Z</time></trkpt><trkpt lat="45.69424240607699" lon="4.843557677783367"><ele>161.33333333333334</ele><time>2026-03-28T14:09:11Z</time></trkpt><trkpt lat="45.69409568770601" lon="4.843476482359387"><ele>162.0</ele><time>2026-03-28T14:09:12Z</time></trkpt><trkpt lat="45.6939409737762" lon="4.8433916661423275"><ele>162.0</ele><time>2026-03-28T14:09:13Z</time></trkpt><trkpt lat="45.69378596856452" lon="4.843311978325297"><ele>162.0</ele><time>2026-03-28T14:09:14Z</time></trkpt><trkpt lat="45.693634469646064" lon="4.843237575192537"><ele>162.0</ele><time>2026-03-28T14:09:15Z</time></trkpt><trkpt lat="45.693490484931864" lon="4.843175221630752"><ele>162.75</ele><time>2026-03-28T14:09:16Z</time></trkpt><trkpt lat="45.693353348637416" lon="4.843130890958754"><ele>163.5</ele><time>2026-03-28T14:09:17Z</time></trkpt><trkpt lat="45.69322007842977" lon="4.84311834941278"><ele>164.25</ele><time>2026-03-28T14:09:18Z</time></trkpt><trkpt lat="45.69310897772738" lon="4.84314125845942"><ele>165.0</ele><time>2026-03-28T14:09:19Z</time></trkpt><trkpt lat="45.69301414757383" lon="4.843177754373675"><ele>165.0</ele><time>2026-03-28T14:09:20Z</time></trkpt><trkpt lat="45.69293159644394" lon="4.843231476623898"><ele>165.0</ele><time>2026-03-28T14:09:21Z</time></trkpt><trkpt lat="45.692842784223735" lon="4.843303441804016"><ele>165.0</ele><time>2026-03-28T14:09:22Z</time></trkpt><trkpt lat="45.69277173000157" lon="4.843395935509573"><ele>165.0</ele><time>2026-03-28T14:09:23Z</time></trkpt><trkpt lat="45.69271353108024" lon="4.843499780558841"><ele>165.0</ele><time>2026-03-28T14:09:24Z</time></trkpt><trkpt lat="45.692662303421045" lon="4.843620085675266"><ele>165.0</ele><time>2026-03-28T14:09:25Z</time></trkpt><trkpt lat="45.69262281511447" lon="4.843747192813444"><ele>165.0</ele><time>2026-03-28T14:09:26Z</time></trkpt><trkpt lat="45.69258847138812" lon="4.843884621308232"><ele>165.0</ele><time>2026-03-28T14:09:27Z</time></trkpt><trkpt lat="45.69256945002451" lon="4.8440243904516604"><ele>165.0</ele><time>2026-03-28T14:09:28Z</time></trkpt><trkpt lat="45.69254446254175" lon="4.844164374581052"><ele>165.0</ele><time>2026-03-28T14:09:29Z</time></trkpt><trkpt lat="45.69251854174733" lon="4.844297906389175"><ele>165.0</ele><time>2026-03-28T14:09:30Z</time></trkpt><trkpt lat="45.692474295375895" lon="4.8444285316973295"><ele>165.0</ele><time>2026-03-28T14:09:31Z</time></trkpt><trkpt lat="45.69243186006229" lon="4.84455015340273"><ele>165.0</ele><time>2026-03-28T14:09:32Z</time></trkpt><trkpt lat="45.69237284272375" lon="4.844670350112304"><ele>165.0</ele><time>2026-03-28T14:09:33Z</time></trkpt><trkpt lat="45.692302226736004" lon="4.844777489454325"><ele>165.0</ele><time>2026-03-28T14:09:34Z</time></trkpt><trkpt lat="45.69221113020319" lon="4.844870820934591"><ele>165.0</ele><time>2026-03-28T14:09:35Z</time></trkpt><trkpt lat="45.69211249616395" lon="4.844946705215537"><ele>165.0</ele><time>2026-03-28T14:09:36Z</time></trkpt><trkpt lat="45.692008257756505" lon="4.845015056477731"><ele>165.0</ele><time>2026-03-28T14:09:37Z</time></trkpt><trkpt lat="45.69188999027617" lon="4.845073649078247"><ele>165.0</ele><time>2026-03-28T14:09:38Z</time></trkpt><trkpt lat="45.69176594681058" lon="4.845130764246929"><ele>165.0</ele><time>2026-03-28T14:09:39Z</time></trkpt><trkpt lat="45.69163171332017" lon="4.845193143842708"><ele>165.0</ele><time>2026-03-28T14:09:40Z</time></trkpt><trkpt lat="45.69149377898528" lon="4.845241348916311"><ele>165.0</ele><time>2026-03-28T14:09:41Z</time></trkpt><trkpt lat="45.69134996809937" lon="4.845287090891382"><ele>165.0</ele><time>2026-03-28T14:09:42Z</time></trkpt><trkpt lat="45.691202208395815" lon="4.845324271349277"><ele>165.0</ele><time>2026-03-28T14:09:43Z</time></trkpt><trkpt lat="45.69105023210087" lon="4.845362910265705"><ele>165.0</ele><time>2026-03-28T14:09:44Z</time></trkpt><trkpt lat="45.69089369394877" lon="4.845398424995529"><ele>165.0</ele><time>2026-03-28T14:09:45Z</time></trkpt><trkpt lat="45.690737045766724" lon="4.845436284583268"><ele>165.0</ele><time>2026-03-28T14:09:46Z</time></trkpt><trkpt lat="45.690583499019446" lon="4.845472858989097"><ele>165.0</ele><time>2026-03-28T14:09:47Z</time></trkpt><trkpt lat="45.69042652967193" lon="4.845508320024424"><ele>165.0</ele><time>2026-03-28T14:09:48Z</time></trkpt><trkpt lat="45.69027212656698" lon="4.845543498218947"><ele>165.0</ele><time>2026-03-28T14:09:49Z</time></trkpt><trkpt lat="45.6901190352066" lon="4.845581455228434"><ele>165.0</ele><time>2026-03-28T14:09:50Z</time></trkpt><trkpt lat="45.68996223710358" lon="4.845618070244485"><ele>165.0</ele><time>2026-03-28T14:09:51Z</time></trkpt><trkpt lat="45.68980284535774" lon="4.845656657382815"><ele>165.0</ele><time>2026-03-28T14:09:52Z</time></trkpt><trkpt lat="45.68964575131431" lon="4.845696068829401"><ele>165.0</ele><time>2026-03-28T14:09:53Z</time></trkpt><trkpt lat="45.68948753720442" lon="4.845735728968697"><ele>165.0</ele><time>2026-03-28T14:09:54Z</time></trkpt><trkpt lat="45.689328087394" lon="4.845774162905736"><ele>165.66666666666666</ele><time>2026-03-28T14:09:55Z</time></trkpt><trkpt lat="45.689170426814606" lon="4.845815458699063"><ele>166.33333333333331</ele><time>2026-03-28T14:09:56Z</time></trkpt><trkpt lat="45.689009302987806" lon="4.84585128869741"><ele>167.0</ele><time>2026-03-28T14:09:57Z</time></trkpt><trkpt lat="45.6888506723061" lon="4.845890372737546"><ele>167.0</ele><time>2026-03-28T14:09:58Z</time></trkpt><trkpt lat="45.68869229251171" lon="4.845926133828821"><ele>167.0</ele><time>2026-03-28T14:09:59Z</time></trkpt><trkpt lat="45.68853220017542" lon="4.845965380959363"><ele>167.0</ele><time>2026-03-28T14:10:00Z</time></trkpt><trkpt lat="45.68837410871323" lon="4.846004243261681"><ele>165.33333333333331</ele><time>2026-03-28T14:10:01Z</time></trkpt><trkpt lat="45.688214137042586" lon="4.846038899708838"><ele>163.66666666666666</ele><time>2026-03-28T14:10:02Z</time></trkpt><trkpt lat="45.68805297188304" lon="4.846075880901669"><ele>162.0</ele><time>2026-03-28T14:10:03Z</time></trkpt><trkpt lat="45.687893373842506" lon="4.846111936231274"><ele>162.0</ele><time>2026-03-28T14:10:04Z</time></trkpt><trkpt lat="45.68773056386662" lon="4.846156680917057"><ele>162.0</ele><time>2026-03-28T14:10:05Z</time></trkpt><trkpt lat="45.68757238683332" lon="4.8461943557241645"><ele>162.0</ele><time>2026-03-28T14:10:06Z</time></trkpt><trkpt lat="45.687413565210335" lon="4.8462350161684915"><ele>162.0</ele><time>2026-03-28T14:10:07Z</time></trkpt><trkpt lat="45.68725487346072" lon="4.84627269389215"><ele>162.0</ele><time>2026-03-28T14:10:08Z</time></trkpt><trkpt lat="45.687094785316376" lon="4.8463109656436565"><ele>162.0</ele><time>2026-03-28T14:10:09Z</time></trkpt><trkpt lat="45.686932260478734" lon="4.846346265155414"><ele>161.66666666666666</ele><time>2026-03-28T14:10:10Z</time></trkpt><trkpt lat="45.68677409368382" lon="4.846383539910555"><ele>161.33333333333331</ele><time>2026-03-28T14:10:11Z</time></trkpt><trkpt lat="45.68661572958026" lon="4.846418623510218"><ele>161.0</ele><time>2026-03-28T14:10:12Z</time></trkpt><trkpt lat="45.686452373745766" lon="4.846456524701989"><ele>161.0</ele><time>2026-03-28T14:10:13Z</time></trkpt><trkpt lat="45.68629332074164" lon="4.846495904565225"><ele>161.0</ele><time>2026-03-28T14:10:14Z</time></trkpt><trkpt lat="45.68613234914214" lon="4.846532070519412"><ele>161.0</ele><time>2026-03-28T14:10:15Z</time></trkpt><trkpt lat="45.68597138231833" lon="4.8465692748327305"><ele>161.33333333333331</ele><time>2026-03-28T14:10:16Z</time></trkpt><trkpt lat="45.685809124232875" lon="4.846604564394208"><ele>161.66666666666666</ele><time>2026-03-28T14:10:17Z</time></trkpt><trkpt lat="45.685650217878226" lon="4.846642738866998"><ele>162.0</ele><time>2026-03-28T14:10:18Z</time></trkpt><trkpt lat="45.685491429298864" lon="4.846683734518819"><ele>162.0</ele><time>2026-03-28T14:10:19Z</time></trkpt><trkpt lat="45.68532882653243" lon="4.846720377244658"><ele>162.0</ele><time>2026-03-28T14:10:20Z</time></trkpt><trkpt lat="45.68516762299696" lon="4.8467562332881515"><ele>162.0</ele><time>2026-03-28T14:10:21Z</time></trkpt><trkpt lat="45.68500642470603" lon="4.8467909686825745"><ele>162.33333333333334</ele><time>2026-03-28T14:10:22Z</time></trkpt><trkpt lat="45.684843889635054" lon="4.846823596372095"><ele>162.66666666666669</ele><time>2026-03-28T14:10:23Z</time></trkpt><trkpt lat="45.68468352631119" lon="4.846854014981061"><ele>163.0</ele><time>2026-03-28T14:10:24Z</time></trkpt><trkpt lat="45.68452193477693" lon="4.84688463549524"><ele>162.66666666666669</ele><time>2026-03-28T14:10:25Z</time></trkpt><trkpt lat="45.684358011005564" lon="4.8469121545356915"><ele>162.33333333333334</ele><time>2026-03-28T14:10:26Z</time></trkpt><trkpt lat="45.68419926213686" lon="4.846938337540849"><ele>162.0</ele><time>2026-03-28T14:10:27Z</time></trkpt><trkpt lat="45.68403906544766" lon="4.8469613899574915"><ele>162.0</ele><time>2026-03-28T14:10:28Z</time></trkpt><trkpt lat="45.68387989278184" lon="4.8469815809052745"><ele>162.0</ele><time>2026-03-28T14:10:29Z</time></trkpt><trkpt lat="45.683716842277974" lon="4.847000848757268"><ele>162.0</ele><time>2026-03-28T14:10:30Z</time></trkpt><trkpt lat="45.68355650871567" lon="4.847022902831431"><ele>161.66666666666666</ele><time>2026-03-28T14:10:31Z</time></trkpt><trkpt lat="45.683393447885734" lon="4.847044237879698"><ele>161.33333333333331</ele><time>2026-03-28T14:10:32Z</time></trkpt><trkpt lat="45.683233074743384" lon="4.84706533020186"><ele>161.0</ele><time>2026-03-28T14:10:33Z</time></trkpt><trkpt lat="45.683072005923314" lon="4.847086940429493"><ele>161.0</ele><time>2026-03-28T14:10:34Z</time></trkpt><trkpt lat="45.68291033475646" lon="4.8471096511252885"><ele>161.0</ele><time>2026-03-28T14:10:35Z</time></trkpt><trkpt lat="45.68274808687232" lon="4.8471317327591175"><ele>161.0</ele><time>2026-03-28T14:10:36Z</time></trkpt><trkpt lat="45.68258526714072" lon="4.847152772632494"><ele>161.66666666666666</ele><time>2026-03-28T14:10:37Z</time></trkpt><trkpt lat="45.68242381198716" lon="4.847175438027789"><ele>162.33333333333334</ele><time>2026-03-28T14:10:38Z</time></trkpt><trkpt lat="45.682261278060025" lon="4.847198597753939"><ele>163.0</ele><time>2026-03-28T14:10:39Z</time></trkpt><trkpt lat="45.68209851861332" lon="4.8472204567654265"><ele>163.0</ele><time>2026-03-28T14:10:40Z</time></trkpt><trkpt lat="45.68193599753636" lon="4.847242659896455"><ele>163.0</ele><time>2026-03-28T14:10:41Z</time></trkpt><trkpt lat="45.68177445428174" lon="4.847262430018016"><ele>163.0</ele><time>2026-03-28T14:10:42Z</time></trkpt><trkpt lat="45.681615091564076" lon="4.8472841527917065"><ele>162.0</ele><time>2026-03-28T14:10:43Z</time></trkpt><trkpt lat="45.68145417423993" lon="4.847304088933092"><ele>161.0</ele><time>2026-03-28T14:10:44Z</time></trkpt><trkpt lat="45.68129047673664" lon="4.847324975371054"><ele>160.0</ele><time>2026-03-28T14:10:45Z</time></trkpt><trkpt lat="45.68112866169841" lon="4.847347435571264"><ele>161.0</ele><time>2026-03-28T14:10:46Z</time></trkpt><trkpt lat="45.68096640808961" lon="4.847368279497252"><ele>162.0</ele><time>2026-03-28T14:10:47Z</time></trkpt><trkpt lat="45.680803306410496" lon="4.847387685510473"><ele>163.0</ele><time>2026-03-28T14:10:48Z</time></trkpt><trkpt lat="45.68063858724659" lon="4.847412054682293"><ele>163.0</ele><time>2026-03-28T14:10:49Z</time></trkpt><trkpt lat="45.68047716598832" lon="4.847433003981941"><ele>163.0</ele><time>2026-03-28T14:10:50Z</time></trkpt><trkpt lat="45.68031602224202" lon="4.84745202452906"><ele>163.0</ele><time>2026-03-28T14:10:51Z</time></trkpt><trkpt lat="45.68015387695695" lon="4.8474733395149245"><ele>164.66666666666669</ele><time>2026-03-28T14:10:52Z</time></trkpt><trkpt lat="45.679991633905445" lon="4.847497216060695"><ele>166.33333333333334</ele><time>2026-03-28T14:10:53Z</time></trkpt><trkpt lat="45.67983180417991" lon="4.847518714606032"><ele>168.0</ele><time>2026-03-28T14:10:54Z</time></trkpt><trkpt lat="45.67966946132138" lon="4.847540588004027"><ele>168.0</ele><time>2026-03-28T14:10:55Z</time></trkpt><trkpt lat="45.679508453842494" lon="4.847562122967494"><ele>168.0</ele><time>2026-03-28T14:10:56Z</time></trkpt><trkpt lat="45.67934673224151" lon="4.847583089876406"><ele>168.0</ele><time>2026-03-28T14:10:57Z</time></trkpt><trkpt lat="45.679183081243174" lon="4.847605400978507"><ele>168.66666666666666</ele><time>2026-03-28T14:10:58Z</time></trkpt><trkpt lat="45.67902386024864" lon="4.847627713254167"><ele>169.33333333333331</ele><time>2026-03-28T14:10:59Z</time></trkpt><trkpt lat="45.67886475058282" lon="4.847648784345351"><ele>170.0</ele><time>2026-03-28T14:11:00Z</time></trkpt><trkpt lat="45.678704662954864" lon="4.847672901147827"><ele>169.33333333333331</ele><time>2026-03-28T14:11:01Z</time></trkpt><trkpt lat="45.678540657923534" lon="4.8476948222978855"><ele>168.66666666666666</ele><time>2026-03-28T14:11:02Z</time></trkpt><trkpt lat="45.67837493172464" lon="4.847717793142071"><ele>168.0</ele><time>2026-03-28T14:11:03Z</time></trkpt><trkpt lat="45.678208685787396" lon="4.847737672264223"><ele>168.0</ele><time>2026-03-28T14:11:04Z</time></trkpt><trkpt lat="45.67802987118479" lon="4.847762038634719"><ele>168.0</ele><time>2026-03-28T14:11:05Z</time></trkpt><trkpt lat="45.677856221289964" lon="4.847780413421636"><ele>168.0</ele><time>2026-03-28T14:11:06Z</time></trkpt><trkpt lat="45.67767840858305" lon="4.847799070969265"><ele>167.66666666666666</ele><time>2026-03-28T14:11:07Z</time></trkpt><trkpt lat="45.6775025514717" lon="4.847817684162261"><ele>167.33333333333331</ele><time>2026-03-28T14:11:08Z</time></trkpt><trkpt lat="45.67732497485874" lon="4.847833411100777"><ele>167.0</ele><time>2026-03-28T14:11:09Z</time></trkpt><trkpt lat="45.67714213530017" lon="4.847842510422861"><ele>167.0</ele><time>2026-03-28T14:11:10Z</time></trkpt><trkpt lat="45.67695807232594" lon="4.847845115340621"><ele>167.0</ele><time>2026-03-28T14:11:11Z</time></trkpt><trkpt lat="45.67677498643191" lon="4.847850932383949"><ele>167.0</ele><time>2026-03-28T14:11:12Z</time></trkpt><trkpt lat="45.67659001483418" lon="4.8478558542202395"><ele>166.0</ele><time>2026-03-28T14:11:13Z</time></trkpt><trkpt lat="45.676404685767686" lon="4.847856227054747"><ele>165.0</ele><time>2026-03-28T14:11:14Z</time></trkpt><trkpt lat="45.67621138227749" lon="4.847852354284307"><ele>164.0</ele><time>2026-03-28T14:11:15Z</time></trkpt><trkpt lat="45.676017737102796" lon="4.84784572539602"><ele>163.33333333333331</ele><time>2026-03-28T14:11:16Z</time></trkpt><trkpt lat="45.67582133521689" lon="4.847841918605311"><ele>162.66666666666666</ele><time>2026-03-28T14:11:17Z</time></trkpt><trkpt lat="45.675625355522605" lon="4.84783286325402"><ele>162.0</ele><time>2026-03-28T14:11:18Z</time></trkpt><trkpt lat="45.67542631917205" lon="4.847822502746856"><ele>161.66666666666666</ele><time>2026-03-28T14:11:19Z</time></trkpt><trkpt lat="45.67523635590574" lon="4.847811050178744"><ele>161.33333333333331</ele><time>2026-03-28T14:11:20Z</time></trkpt><trkpt lat="45.67503847497412" lon="4.847791789309112"><ele>161.0</ele><time>2026-03-28T14:11:21Z</time></trkpt><trkpt lat="45.67483735267594" lon="4.847765331782834"><ele>161.0</ele><time>2026-03-28T14:11:22Z</time></trkpt><trkpt lat="45.67463415841123" lon="4.847739664111369"><ele>161.0</ele><time>2026-03-28T14:11:23Z</time></trkpt><trkpt lat="45.674428123311976" lon="4.847708124231225"><ele>161.0</ele><time>2026-03-28T14:11:24Z</time></trkpt><trkpt lat="45.674224537496045" lon="4.847673445515215"><ele>161.0</ele><time>2026-03-28T14:11:25Z</time></trkpt><trkpt lat="45.67401790383738" lon="4.847635802477321"><ele>161.0</ele><time>2026-03-28T14:11:26Z</time></trkpt><trkpt lat="45.67381243151543" lon="4.8475945995885965"><ele>161.0</ele><time>2026-03-28T14:11:27Z</time></trkpt><trkpt lat="45.6736076381109" lon="4.847545401653855"><ele>162.66666666666666</ele><time>2026-03-28T14:11:28Z</time></trkpt><trkpt lat="45.67340130558527" lon="4.847493737618074"><ele>164.33333333333334</ele><time>2026-03-28T14:11:29Z</time></trkpt><trkpt lat="45.67318795991097" lon="4.847443873423065"><ele>166.0</ele><time>2026-03-28T14:11:30Z</time></trkpt><trkpt lat="45.67297562424612" lon="4.84738540029983"><ele>165.0</ele><time>2026-03-28T14:11:31Z</time></trkpt><trkpt lat="45.672762149656464" lon="4.847320334462631"><ele>164.0</ele><time>2026-03-28T14:11:32Z</time></trkpt><trkpt lat="45.672548859461926" lon="4.847252919017092"><ele>163.0</ele><time>2026-03-28T14:11:33Z</time></trkpt><trkpt lat="45.672332701941116" lon="4.847180251864261"><ele>163.0</ele><time>2026-03-28T14:11:34Z</time></trkpt><trkpt lat="45.672109960384425" lon="4.847104501813784"><ele>163.0</ele><time>2026-03-28T14:11:35Z</time></trkpt><trkpt lat="45.67188225568263" lon="4.847020465512555"><ele>162.0</ele><time>2026-03-28T14:11:36Z</time></trkpt><trkpt lat="45.67165120234568" lon="4.846932461787636"><ele>161.0</ele><time>2026-03-28T14:11:37Z</time></trkpt><trkpt lat="45.67141746342569" lon="4.8468410005924385"><ele>162.0</ele><time>2026-03-28T14:11:38Z</time></trkpt><trkpt lat="45.67118004678195" lon="4.846742521922614"><ele>163.0</ele><time>2026-03-28T14:11:39Z</time></trkpt><trkpt lat="45.670939691805195" lon="4.8466353948544"><ele>163.0</ele><time>2026-03-28T14:11:40Z</time></trkpt><trkpt lat="45.67069798819203" lon="4.846526172813563"><ele>163.0</ele><time>2026-03-28T14:11:41Z</time></trkpt><trkpt lat="45.67046587532506" lon="4.846405567726056"><ele>162.0</ele><time>2026-03-28T14:11:42Z</time></trkpt><trkpt lat="45.670231651631646" lon="4.846289016439459"><ele>161.0</ele><time>2026-03-28T14:11:43Z</time></trkpt><trkpt lat="45.669998640633814" lon="4.846167286380465"><ele>161.0</ele><time>2026-03-28T14:11:44Z</time></trkpt><trkpt lat="45.66976612040274" lon="4.8460376747396126"><ele>161.0</ele><time>2026-03-28T14:11:45Z</time></trkpt><trkpt lat="45.66953614899295" lon="4.845909390137881"><ele>161.5</ele><time>2026-03-28T14:11:46Z</time></trkpt><trkpt lat="45.669301347529355" lon="4.845782607160349"><ele>162.0</ele><time>2026-03-28T14:11:47Z</time></trkpt><trkpt lat="45.6690737176266" lon="4.84565574567695"><ele>162.0</ele><time>2026-03-28T14:11:48Z</time></trkpt><trkpt lat="45.66884195769811" lon="4.845528180076057"><ele>162.0</ele><time>2026-03-28T14:11:49Z</time></trkpt><trkpt lat="45.66860934922864" lon="4.8454027995096265"><ele>163.0</ele><time>2026-03-28T14:11:50Z</time></trkpt><trkpt lat="45.668378944239315" lon="4.84527761823029"><ele>164.0</ele><time>2026-03-28T14:11:51Z</time></trkpt><trkpt lat="45.668151995482106" lon="4.845149809529695"><ele>164.0</ele><time>2026-03-28T14:11:52Z</time></trkpt><trkpt lat="45.667919803037606" lon="4.845024567401639"><ele>164.0</ele><time>2026-03-28T14:11:53Z</time></trkpt><trkpt lat="45.66768954341718" lon="4.844902615378035"><ele>165.0</ele><time>2026-03-28T14:11:54Z</time></trkpt><trkpt lat="45.66746072821678" lon="4.8447781052377215"><ele>166.0</ele><time>2026-03-28T14:11:55Z</time></trkpt><trkpt lat="45.66722471537121" lon="4.844655395758506"><ele>166.0</ele><time>2026-03-28T14:11:56Z</time></trkpt><trkpt lat="45.66698772297947" lon="4.844531125153855"><ele>166.0</ele><time>2026-03-28T14:11:57Z</time></trkpt><trkpt lat="45.666752152357624" lon="4.844408922476779"><ele>163.5</ele><time>2026-03-28T14:11:58Z</time></trkpt><trkpt lat="45.66651259897766" lon="4.844284696820619"><ele>161.0</ele><time>2026-03-28T14:11:59Z</time></trkpt><trkpt lat="45.666272904600106" lon="4.844160782960539"><ele>161.0</ele><time>2026-03-28T14:12:00Z</time></trkpt><trkpt lat="45.66602960856566" lon="4.844041168420276"><ele>161.0</ele><time>2026-03-28T14:12:01Z</time></trkpt><trkpt lat="45.66578761718816" lon="4.84392323608416"><ele>161.0</ele><time>2026-03-28T14:12:02Z</time></trkpt><trkpt lat="45.66554151580125" lon="4.843804413876147"><ele>161.0</ele><time>2026-03-28T14:12:03Z</time></trkpt><trkpt lat="45.66529568903878" lon="4.843687303668631"><ele>161.5</ele><time>2026-03-28T14:12:04Z</time></trkpt><trkpt lat="45.66504719413321" lon="4.843571983724724"><ele>162.0</ele><time>2026-03-28T14:12:05Z</time></trkpt><trkpt lat="45.6648011606006" lon="4.84345860056"><ele>162.0</ele><time>2026-03-28T14:12:06Z</time></trkpt><trkpt lat="45.66455430537752" lon="4.843345064531126"><ele>162.0</ele><time>2026-03-28T14:12:07Z</time></trkpt><trkpt lat="45.66430820300758" lon="4.843231543543976"><ele>162.0</ele><time>2026-03-28T14:12:08Z</time></trkpt><trkpt lat="45.66406238628212" lon="4.843119674132838"><ele>162.0</ele><time>2026-03-28T14:12:09Z</time></trkpt><trkpt lat="45.66381413540875" lon="4.843007230098277"><ele>162.5</ele><time>2026-03-28T14:12:10Z</time></trkpt><trkpt lat="45.66356691492225" lon="4.8428978851733815"><ele>163.0</ele><time>2026-03-28T14:12:11Z</time></trkpt><trkpt lat="45.663324251307735" lon="4.842789837452112"><ele>163.0</ele><time>2026-03-28T14:12:12Z</time></trkpt><trkpt lat="45.66307987770804" lon="4.842683735411856"><ele>163.0</ele><time>2026-03-28T14:12:13Z</time></trkpt><trkpt lat="45.66283822398946" lon="4.842580883714094"><ele>162.5</ele><time>2026-03-28T14:12:14Z</time></trkpt><trkpt lat="45.66259754473055" lon="4.842479377921621"><ele>162.0</ele><time>2026-03-28T14:12:15Z</time></trkpt><trkpt lat="45.66235968108288" lon="4.842377031468582"><ele>162.0</ele><time>2026-03-28T14:12:16Z</time></trkpt><trkpt lat="45.66212090632265" lon="4.842279081577345"><ele>162.0</ele><time>2026-03-28T14:12:17Z</time></trkpt><trkpt lat="45.661884066333045" lon="4.842183820439255"><ele>162.5</ele><time>2026-03-28T14:12:18Z</time></trkpt><trkpt lat="45.66164660533056" lon="4.842090570465788"><ele>163.0</ele><time>2026-03-28T14:12:19Z</time></trkpt><trkpt lat="45.66140401481174" lon="4.841998987023409"><ele>163.0</ele><time>2026-03-28T14:12:20Z</time></trkpt><trkpt lat="45.66116286870787" lon="4.841908590833266"><ele>163.0</ele><time>2026-03-28T14:12:21Z</time></trkpt><trkpt lat="45.66091957683796" lon="4.841816638837648"><ele>161.5</ele><time>2026-03-28T14:12:22Z</time></trkpt><trkpt lat="45.660676809991664" lon="4.841729671575646"><ele>160.0</ele><time>2026-03-28T14:12:23Z</time></trkpt><trkpt lat="45.66044108708515" lon="4.841643950866595"><ele>159.5</ele><time>2026-03-28T14:12:24Z</time></trkpt><trkpt lat="45.660202545776094" lon="4.841555893359782"><ele>159.0</ele><time>2026-03-28T14:12:25Z</time></trkpt><trkpt lat="45.65996358606838" lon="4.841470217747533"><ele>159.0</ele><time>2026-03-28T14:12:26Z</time></trkpt><trkpt lat="45.65971842068782" lon="4.841384437897329"><ele>159.0</ele><time>2026-03-28T14:12:27Z</time></trkpt><trkpt lat="45.65947456268008" lon="4.841290733108164"><ele>158.5</ele><time>2026-03-28T14:12:28Z</time></trkpt><trkpt lat="45.65923414220787" lon="4.841198406677299"><ele>158.0</ele><time>2026-03-28T14:12:29Z</time></trkpt><trkpt lat="45.658991875983645" lon="4.841097364304909"><ele>158.0</ele><time>2026-03-28T14:12:30Z</time></trkpt><trkpt lat="45.65875447659972" lon="4.840996401854882"><ele>158.0</ele><time>2026-03-28T14:12:31Z</time></trkpt><trkpt lat="45.65851807682664" lon="4.840892388577875"><ele>159.5</ele><time>2026-03-28T14:12:32Z</time></trkpt><trkpt lat="45.65827880106473" lon="4.8407856006073215"><ele>161.0</ele><time>2026-03-28T14:12:33Z</time></trkpt><trkpt lat="45.65804582839466" lon="4.84067288928634"><ele>161.0</ele><time>2026-03-28T14:12:34Z</time></trkpt><trkpt lat="45.657809578604336" lon="4.840560965798853"><ele>161.0</ele><time>2026-03-28T14:12:35Z</time></trkpt><trkpt lat="45.65757503821216" lon="4.8404488954148075"><ele>160.0</ele><time>2026-03-28T14:12:36Z</time></trkpt><trkpt lat="45.6573366050042" lon="4.840334564882306"><ele>159.0</ele><time>2026-03-28T14:12:37Z</time></trkpt><trkpt lat="45.65710136583062" lon="4.840218707688079"><ele>160.5</ele><time>2026-03-28T14:12:38Z</time></trkpt><trkpt lat="45.656865151234726" lon="4.84009743343183"><ele>162.0</ele><time>2026-03-28T14:12:39Z</time></trkpt><trkpt lat="45.65663113744903" lon="4.839973718494566"><ele>162.0</ele><time>2026-03-28T14:12:40Z</time></trkpt><trkpt lat="45.65639946765832" lon="4.839847491963221"><ele>162.0</ele><time>2026-03-28T14:12:41Z</time></trkpt><trkpt lat="45.65617169738856" lon="4.839716742616034"><ele>161.5</ele><time>2026-03-28T14:12:42Z</time></trkpt><trkpt lat="45.65594302742427" lon="4.8395860425287776"><ele>161.0</ele><time>2026-03-28T14:12:43Z</time></trkpt><trkpt lat="45.65571601936714" lon="4.839452533471013"><ele>161.0</ele><time>2026-03-28T14:12:44Z</time></trkpt><trkpt lat="45.655494608668405" lon="4.839310665585658"><ele>161.0</ele><time>2026-03-28T14:12:45Z</time></trkpt><trkpt lat="45.65526995720034" lon="4.839174898025763"><ele>161.0</ele><time>2026-03-28T14:12:46Z</time></trkpt><trkpt lat="45.65504910774869" lon="4.839035538885079"><ele>161.0</ele><time>2026-03-28T14:12:47Z</time></trkpt><trkpt lat="45.65482921904799" lon="4.838893560157483"><ele>161.0</ele><time>2026-03-28T14:12:48Z</time></trkpt><trkpt lat="45.654609171844264" lon="4.838748419963542"><ele>161.0</ele><time>2026-03-28T14:12:49Z</time></trkpt><trkpt lat="45.65439283808968" lon="4.838598618967452"><ele>161.5</ele><time>2026-03-28T14:12:50Z</time></trkpt><trkpt lat="45.65417695287714" lon="4.838449868943776"><ele>162.0</ele><time>2026-03-28T14:12:51Z</time></trkpt><trkpt lat="45.65396072940271" lon="4.838300596292078"><ele>162.0</ele><time>2026-03-28T14:12:52Z</time></trkpt><trkpt lat="45.65374160959726" lon="4.838148558637564"><ele>162.0</ele><time>2026-03-28T14:12:53Z</time></trkpt><trkpt lat="45.65352436237552" lon="4.837991439349181"><ele>162.5</ele><time>2026-03-28T14:12:54Z</time></trkpt><trkpt lat="45.6533085836902" lon="4.837829530743952"><ele>163.0</ele><time>2026-03-28T14:12:55Z</time></trkpt><trkpt lat="45.65309286434949" lon="4.837667165256054"><ele>162.0</ele><time>2026-03-28T14:12:56Z</time></trkpt><trkpt lat="45.65287788018253" lon="4.837500269804037"><ele>161.0</ele><time>2026-03-28T14:12:57Z</time></trkpt><trkpt lat="45.65266122898614" lon="4.837332137818216"><ele>160.5</ele><time>2026-03-28T14:12:58Z</time></trkpt><trkpt lat="45.65244974419761" lon="4.837157493755369"><ele>160.0</ele><time>2026-03-28T14:12:59Z</time></trkpt><trkpt lat="45.65223572085574" lon="4.8369819262189075"><ele>160.0</ele><time>2026-03-28T14:13:00Z</time></trkpt><trkpt lat="45.65202041281986" lon="4.8368031494381265"><ele>160.0</ele><time>2026-03-28T14:13:01Z</time></trkpt><trkpt lat="45.651804939780405" lon="4.836621718959596"><ele>160.5</ele><time>2026-03-28T14:13:02Z</time></trkpt><trkpt lat="45.65158655131007" lon="4.836441136718932"><ele>161.0</ele><time>2026-03-28T14:13:03Z</time></trkpt><trkpt lat="45.651373424313874" lon="4.83625863126771"><ele>161.0</ele><time>2026-03-28T14:13:04Z</time></trkpt><trkpt lat="45.65115686149222" lon="4.836074120060761"><ele>161.0</ele><time>2026-03-28T14:13:05Z</time></trkpt><trkpt lat="45.650940963198146" lon="4.835890596949897"><ele>160.0</ele><time>2026-03-28T14:13:06Z</time></trkpt><trkpt lat="45.650722003591454" lon="4.83570319104329"><ele>159.0</ele><time>2026-03-28T14:13:07Z</time></trkpt><trkpt lat="45.650505945790805" lon="4.835513287072882"><ele>159.0</ele><time>2026-03-28T14:13:08Z</time></trkpt><trkpt lat="45.65028946220191" lon="4.8353254647122785"><ele>159.0</ele><time>2026-03-28T14:13:09Z</time></trkpt><trkpt lat="45.650075810950604" lon="4.835136035559847"><ele>159.5</ele><time>2026-03-28T14:13:10Z</time></trkpt><trkpt lat="45.649863234209995" lon="4.834946136181858"><ele>160.0</ele><time>2026-03-28T14:13:11Z</time></trkpt><trkpt lat="45.64964567115602" lon="4.834752743257628"><ele>160.0</ele><time>2026-03-28T14:13:12Z</time></trkpt><trkpt lat="45.649428289253635" lon="4.834560386061067"><ele>160.0</ele><time>2026-03-28T14:13:13Z</time></trkpt><trkpt lat="45.64921355155837" lon="4.834368108272353"><ele>159.5</ele><time>2026-03-28T14:13:14Z</time></trkpt><trkpt lat="45.64899719127226" lon="4.834173091463247"><ele>159.0</ele><time>2026-03-28T14:13:15Z</time></trkpt><trkpt lat="45.648785441285284" lon="4.833978609525104"><ele>159.5</ele><time>2026-03-28T14:13:16Z</time></trkpt><trkpt lat="45.64857335135395" lon="4.833784609842859"><ele>160.0</ele><time>2026-03-28T14:13:17Z</time></trkpt><trkpt lat="45.648357801094384" lon="4.833587197904814"><ele>160.0</ele><time>2026-03-28T14:13:18Z</time></trkpt><trkpt lat="45.64814622577728" lon="4.833388106090976"><ele>160.0</ele><time>2026-03-28T14:13:19Z</time></trkpt><trkpt lat="45.64793079621852" lon="4.8331882056179785"><ele>161.0</ele><time>2026-03-28T14:13:20Z</time></trkpt><trkpt lat="45.6477168500615" lon="4.83298710308449"><ele>162.0</ele><time>2026-03-28T14:13:21Z</time></trkpt><trkpt lat="45.64750733724107" lon="4.832785756603605"><ele>162.5</ele><time>2026-03-28T14:13:22Z</time></trkpt><trkpt lat="45.64729630646479" lon="4.832585677520959"><ele>163.0</ele><time>2026-03-28T14:13:23Z</time></trkpt><trkpt lat="45.64708567681379" lon="4.832383395201099"><ele>161.0</ele><time>2026-03-28T14:13:24Z</time></trkpt><trkpt lat="45.64687605695287" lon="4.8321788271337125"><ele>159.0</ele><time>2026-03-28T14:13:25Z</time></trkpt><trkpt lat="45.646667765176296" lon="4.831970435919857"><ele>160.0</ele><time>2026-03-28T14:13:26Z</time></trkpt><trkpt lat="45.64645259690471" lon="4.831765006844479"><ele>161.0</ele><time>2026-03-28T14:13:27Z</time></trkpt><trkpt lat="45.646244058801386" lon="4.831559005270671"><ele>160.5</ele><time>2026-03-28T14:13:28Z</time></trkpt><trkpt lat="45.64603274744113" lon="4.831349733354088"><ele>160.0</ele><time>2026-03-28T14:13:29Z</time></trkpt><trkpt lat="45.645824870298526" lon="4.831140999621973"><ele>161.0</ele><time>2026-03-28T14:13:30Z</time></trkpt><trkpt lat="45.64561189537209" lon="4.830931452661933"><ele>162.0</ele><time>2026-03-28T14:13:31Z</time></trkpt><trkpt lat="45.645399577069554" lon="4.8307195634496525"><ele>161.5</ele><time>2026-03-28T14:13:32Z</time></trkpt><trkpt lat="45.64518929042445" lon="4.830510006701355"><ele>161.0</ele><time>2026-03-28T14:13:33Z</time></trkpt><trkpt lat="45.644978921531866" lon="4.830298417953568"><ele>162.0</ele><time>2026-03-28T14:13:34Z</time></trkpt><trkpt lat="45.6447698597141" lon="4.830084094079287"><ele>163.0</ele><time>2026-03-28T14:13:35Z</time></trkpt><trkpt lat="45.64456614163412" lon="4.8298720367742956"><ele>162.0</ele><time>2026-03-28T14:13:36Z</time></trkpt><trkpt lat="45.64436393310218" lon="4.829658846086723"><ele>161.0</ele><time>2026-03-28T14:13:37Z</time></trkpt><trkpt lat="45.64416001933194" lon="4.8294459516198955"><ele>160.5</ele><time>2026-03-28T14:13:38Z</time></trkpt><trkpt lat="45.643964508150844" lon="4.829236642198625"><ele>160.0</ele><time>2026-03-28T14:13:39Z</time></trkpt><trkpt lat="45.643769006838" lon="4.829028564416206"><ele>159.5</ele><time>2026-03-28T14:13:40Z</time></trkpt><trkpt lat="45.643570686087465" lon="4.828816696975079"><ele>159.0</ele><time>2026-03-28T14:13:41Z</time></trkpt><trkpt lat="45.64337558172885" lon="4.828604354585861"><ele>160.0</ele><time>2026-03-28T14:13:42Z</time></trkpt><trkpt lat="45.643172493957934" lon="4.8283908735288685"><ele>161.0</ele><time>2026-03-28T14:13:43Z</time></trkpt><trkpt lat="45.64297296029867" lon="4.8281735575136935"><ele>162.0</ele><time>2026-03-28T14:13:44Z</time></trkpt><trkpt lat="45.64277367776192" lon="4.827957002031302"><ele>163.0</ele><time>2026-03-28T14:13:45Z</time></trkpt><trkpt lat="45.6425767133377" lon="4.827742727573262"><ele>162.5</ele><time>2026-03-28T14:13:46Z</time></trkpt><trkpt lat="45.64238032110202" lon="4.827530766651903"><ele>162.0</ele><time>2026-03-28T14:13:47Z</time></trkpt><trkpt lat="45.64218396926166" lon="4.827315342248458"><ele>162.0</ele><time>2026-03-28T14:13:48Z</time></trkpt><trkpt lat="45.64198899257546" lon="4.827100348821322"><ele>162.0</ele><time>2026-03-28T14:13:49Z</time></trkpt><trkpt lat="45.64179433075934" lon="4.826890091114906"><ele>161.5</ele><time>2026-03-28T14:13:50Z</time></trkpt><trkpt lat="45.64159763464082" lon="4.826679263481706"><ele>161.0</ele><time>2026-03-28T14:13:51Z</time></trkpt><trkpt lat="45.64139963406863" lon="4.826471516640534"><ele>161.0</ele><time>2026-03-28T14:13:52Z</time></trkpt><trkpt lat="45.641198908650736" lon="4.8262581726523655"><ele>161.0</ele><time>2026-03-28T14:13:53Z</time></trkpt><trkpt lat="45.64099557974587" lon="4.8260533080468955"><ele>161.0</ele><time>2026-03-28T14:13:54Z</time></trkpt><trkpt lat="45.64079146363147" lon="4.825844021106141"><ele>161.0</ele><time>2026-03-28T14:13:55Z</time></trkpt><trkpt lat="45.64058795623548" lon="4.8256407886266715"><ele>161.0</ele><time>2026-03-28T14:13:56Z</time></trkpt><trkpt lat="45.64038482570817" lon="4.8254343198500536"><ele>161.0</ele><time>2026-03-28T14:13:57Z</time></trkpt><trkpt lat="45.6401823083901" lon="4.825235891641665"><ele>161.5</ele><time>2026-03-28T14:13:58Z</time></trkpt><trkpt lat="45.63997487412605" lon="4.8250335820645525"><ele>162.0</ele><time>2026-03-28T14:13:59Z</time></trkpt><trkpt lat="45.63976720226469" lon="4.824834977092152"><ele>162.0</ele><time>2026-03-28T14:14:00Z</time></trkpt><trkpt lat="45.63956484032791" lon="4.824637203711731"><ele>162.0</ele><time>2026-03-28T14:14:01Z</time></trkpt><trkpt lat="45.63936014816812" lon="4.82444825697311"><ele>161.5</ele><time>2026-03-28T14:14:02Z</time></trkpt><trkpt lat="45.639154445838486" lon="4.824255513184979"><ele>161.0</ele><time>2026-03-28T14:14:03Z</time></trkpt><trkpt lat="45.63894680982089" lon="4.8240651372364685"><ele>161.0</ele><time>2026-03-28T14:14:04Z</time></trkpt><trkpt lat="45.6387377837633" lon="4.823880184175616"><ele>161.0</ele><time>2026-03-28T14:14:05Z</time></trkpt><trkpt lat="45.63852932295456" lon="4.82369678421388"><ele>161.0</ele><time>2026-03-28T14:14:06Z</time></trkpt><trkpt lat="45.63832032020643" lon="4.823512719231713"><ele>161.0</ele><time>2026-03-28T14:14:07Z</time></trkpt><trkpt lat="45.63811020614365" lon="4.823331000924657"><ele>160.5</ele><time>2026-03-28T14:14:08Z</time></trkpt><trkpt lat="45.637902541750826" lon="4.823149843506558"><ele>160.0</ele><time>2026-03-28T14:14:09Z</time></trkpt><trkpt lat="45.637698341130985" lon="4.822967533225143"><ele>160.0</ele><time>2026-03-28T14:14:10Z</time></trkpt><trkpt lat="45.63748931626677" lon="4.82278927526781"><ele>160.0</ele><time>2026-03-28T14:14:11Z</time></trkpt><trkpt lat="45.63727833513924" lon="4.822617510429098"><ele>160.0</ele><time>2026-03-28T14:14:12Z</time></trkpt><trkpt lat="45.63706822960681" lon="4.822441912162494"><ele>160.0</ele><time>2026-03-28T14:14:13Z</time></trkpt><trkpt lat="45.63685695099358" lon="4.822272918621659"><ele>160.0</ele><time>2026-03-28T14:14:14Z</time></trkpt><trkpt lat="45.63664150283403" lon="4.822101703259036"><ele>160.0</ele><time>2026-03-28T14:14:15Z</time></trkpt><trkpt lat="45.63642873928664" lon="4.821933133090479"><ele>160.5</ele><time>2026-03-28T14:14:16Z</time></trkpt><trkpt lat="45.63621421103075" lon="4.821764098412556"><ele>161.0</ele><time>2026-03-28T14:14:17Z</time></trkpt><trkpt lat="45.635998124541985" lon="4.8215968088374215"><ele>160.0</ele><time>2026-03-28T14:14:18Z</time></trkpt><trkpt lat="45.63577655662374" lon="4.821428945391379"><ele>159.0</ele><time>2026-03-28T14:14:19Z</time></trkpt><trkpt lat="45.63555457800289" lon="4.821265822872502"><ele>159.0</ele><time>2026-03-28T14:14:20Z</time></trkpt><trkpt lat="45.63533063423" lon="4.821097348545552"><ele>159.0</ele><time>2026-03-28T14:14:21Z</time></trkpt><trkpt lat="45.63510627562012" lon="4.820933427707823"><ele>160.0</ele><time>2026-03-28T14:14:22Z</time></trkpt><trkpt lat="45.63488028273559" lon="4.820768721814416"><ele>161.0</ele><time>2026-03-28T14:14:23Z</time></trkpt><trkpt lat="45.63465522023637" lon="4.820606260785675"><ele>160.5</ele><time>2026-03-28T14:14:24Z</time></trkpt><trkpt lat="45.63442774934362" lon="4.82044451674526"><ele>160.0</ele><time>2026-03-28T14:14:25Z</time></trkpt><trkpt lat="45.634201109998685" lon="4.820283927718235"><ele>160.5</ele><time>2026-03-28T14:14:26Z</time></trkpt><trkpt lat="45.63397200459539" lon="4.820127190203224"><ele>161.0</ele><time>2026-03-28T14:14:27Z</time></trkpt><trkpt lat="45.633742396772774" lon="4.819971331151828"><ele>161.5</ele><time>2026-03-28T14:14:28Z</time></trkpt><trkpt lat="45.63350862427733" lon="4.819816861685145"><ele>162.0</ele><time>2026-03-28T14:14:29Z</time></trkpt><trkpt lat="45.633277066814486" lon="4.819660471430962"><ele>162.0</ele><time>2026-03-28T14:14:30Z</time></trkpt><trkpt lat="45.63304398456506" lon="4.819507472474083"><ele>162.0</ele><time>2026-03-28T14:14:31Z</time></trkpt><trkpt lat="45.63280820402873" lon="4.819355884450855"><ele>163.0</ele><time>2026-03-28T14:14:32Z</time></trkpt><trkpt lat="45.63257015016348" lon="4.819205856995373"><ele>164.0</ele><time>2026-03-28T14:14:33Z</time></trkpt><trkpt lat="45.63233267594285" lon="4.819055090317441"><ele>164.0</ele><time>2026-03-28T14:14:34Z</time></trkpt><trkpt lat="45.63209525953436" lon="4.818908673734753"><ele>164.0</ele><time>2026-03-28T14:14:35Z</time></trkpt><trkpt lat="45.63185816098034" lon="4.818761135071684"><ele>162.0</ele><time>2026-03-28T14:14:36Z</time></trkpt><trkpt lat="45.6316198504215" lon="4.818614046499612"><ele>160.0</ele><time>2026-03-28T14:14:37Z</time></trkpt><trkpt lat="45.63137917269924" lon="4.818469055826063"><ele>160.0</ele><time>2026-03-28T14:14:38Z</time></trkpt><trkpt lat="45.63113778989698" lon="4.818325292032814"><ele>160.0</ele><time>2026-03-28T14:14:39Z</time></trkpt><trkpt lat="45.63089595634018" lon="4.818183024520102"><ele>160.0</ele><time>2026-03-28T14:14:40Z</time></trkpt><trkpt lat="45.63065200350035" lon="4.818043604447349"><ele>160.0</ele><time>2026-03-28T14:14:41Z</time></trkpt><trkpt lat="45.630409290572935" lon="4.817904627298657"><ele>160.0</ele><time>2026-03-28T14:14:42Z</time></trkpt><trkpt lat="45.63016490483262" lon="4.817764538394195"><ele>160.0</ele><time>2026-03-28T14:14:43Z</time></trkpt><trkpt lat="45.629921402143395" lon="4.817626709897956"><ele>160.0</ele><time>2026-03-28T14:14:44Z</time></trkpt><trkpt lat="45.629678035175814" lon="4.817491804608138"><ele>160.0</ele><time>2026-03-28T14:14:45Z</time></trkpt><trkpt lat="45.6294314434475" lon="4.817357678462457"><ele>160.5</ele><time>2026-03-28T14:14:46Z</time></trkpt><trkpt lat="45.62918408784961" lon="4.8172227847061615"><ele>161.0</ele><time>2026-03-28T14:14:47Z</time></trkpt><trkpt lat="45.628938188169776" lon="4.817089256286617"><ele>161.0</ele><time>2026-03-28T14:14:48Z</time></trkpt><trkpt lat="45.628690431466225" lon="4.816957210255388"><ele>161.0</ele><time>2026-03-28T14:14:49Z</time></trkpt><trkpt lat="45.62844307310111" lon="4.816823697398104"><ele>160.5</ele><time>2026-03-28T14:14:50Z</time></trkpt><trkpt lat="45.628194059316314" lon="4.816694823113851"><ele>160.0</ele><time>2026-03-28T14:14:51Z</time></trkpt><trkpt lat="45.62794704090526" lon="4.816566036394128"><ele>160.0</ele><time>2026-03-28T14:14:52Z</time></trkpt><trkpt lat="45.627698297807996" lon="4.816441006156305"><ele>160.0</ele><time>2026-03-28T14:14:53Z</time></trkpt><trkpt lat="45.62745049096268" lon="4.816313202044568"><ele>160.0</ele><time>2026-03-28T14:14:54Z</time></trkpt><trkpt lat="45.62720085266179" lon="4.816184636402173"><ele>160.0</ele><time>2026-03-28T14:14:55Z</time></trkpt><trkpt lat="45.62695317551164" lon="4.816054620047542"><ele>160.5</ele><time>2026-03-28T14:14:56Z</time></trkpt><trkpt lat="45.62670507502187" lon="4.81592404395118"><ele>161.0</ele><time>2026-03-28T14:14:57Z</time></trkpt><trkpt lat="45.626458278758854" lon="4.815793263626665"><ele>161.0</ele><time>2026-03-28T14:14:58Z</time></trkpt><trkpt lat="45.6262086058896" lon="4.8156636635264425"><ele>161.0</ele><time>2026-03-28T14:14:59Z</time></trkpt><trkpt lat="45.625960142268205" lon="4.81553927712735"><ele>161.5</ele><time>2026-03-28T14:15:00Z</time></trkpt><trkpt lat="45.625708886242634" lon="4.815420356927034"><ele>162.0</ele><time>2026-03-28T14:15:01Z</time></trkpt><trkpt lat="45.62545947989778" lon="4.815301919503541"><ele>162.5</ele><time>2026-03-28T14:15:02Z</time></trkpt><trkpt lat="45.625205748060175" lon="4.815185225364847"><ele>163.0</ele><time>2026-03-28T14:15:03Z</time></trkpt><trkpt lat="45.624954934748665" lon="4.815071082799463"><ele>162.5</ele><time>2026-03-28T14:15:04Z</time></trkpt><trkpt lat="45.624704262659165" lon="4.8149540166356495"><ele>162.0</ele><time>2026-03-28T14:15:05Z</time></trkpt><trkpt lat="45.624454163168046" lon="4.814842843766691"><ele>162.0</ele><time>2026-03-28T14:15:06Z</time></trkpt><trkpt lat="45.62420247197329" lon="4.814725600858275"><ele>162.0</ele><time>2026-03-28T14:15:07Z</time></trkpt><trkpt lat="45.623948829836245" lon="4.8146125776510065"><ele>162.0</ele><time>2026-03-28T14:15:08Z</time></trkpt><trkpt lat="45.62369720425725" lon="4.814494476696942"><ele>162.0</ele><time>2026-03-28T14:15:09Z</time></trkpt><trkpt lat="45.623445333505074" lon="4.814380854540159"><ele>161.5</ele><time>2026-03-28T14:15:10Z</time></trkpt><trkpt lat="45.623195349148645" lon="4.814263720201661"><ele>161.0</ele><time>2026-03-28T14:15:11Z</time></trkpt><trkpt lat="45.622945103598546" lon="4.814148913835643"><ele>161.0</ele><time>2026-03-28T14:15:12Z</time></trkpt><trkpt lat="45.62269439256168" lon="4.814028680108332"><ele>161.0</ele><time>2026-03-28T14:15:13Z</time></trkpt><trkpt lat="45.622445499415605" lon="4.813908728734112"><ele>161.0</ele><time>2026-03-28T14:15:14Z</time></trkpt><trkpt lat="45.62219686784628" lon="4.813785905401795"><ele>161.0</ele><time>2026-03-28T14:15:15Z</time></trkpt><trkpt lat="45.621947346690895" lon="4.813663223873579"><ele>161.5</ele><time>2026-03-28T14:15:16Z</time></trkpt><trkpt lat="45.621699051052715" lon="4.813537126075079"><ele>162.0</ele><time>2026-03-28T14:15:17Z</time></trkpt><trkpt lat="45.62145058452833" lon="4.813408747598718"><ele>162.0</ele><time>2026-03-28T14:15:18Z</time></trkpt><trkpt lat="45.62120306850992" lon="4.813286268410939"><ele>162.0</ele><time>2026-03-28T14:15:19Z</time></trkpt><trkpt lat="45.62095158163987" lon="4.813159624960639"><ele>162.0</ele><time>2026-03-28T14:15:20Z</time></trkpt><trkpt lat="45.62070395604857" lon="4.813030307924284"><ele>162.0</ele><time>2026-03-28T14:15:21Z</time></trkpt><trkpt lat="45.62045560025272" lon="4.812899922453648"><ele>162.0</ele><time>2026-03-28T14:15:22Z</time></trkpt><trkpt lat="45.62020719297566" lon="4.812767861218318"><ele>162.0</ele><time>2026-03-28T14:15:23Z</time></trkpt><trkpt lat="45.61996180951153" lon="4.812632007063558"><ele>162.0</ele><time>2026-03-28T14:15:24Z</time></trkpt><trkpt lat="45.61971636559342" lon="4.812492654601375"><ele>162.0</ele><time>2026-03-28T14:15:25Z</time></trkpt><trkpt lat="45.61946966673897" lon="4.812355712841079"><ele>162.5</ele><time>2026-03-28T14:15:26Z</time></trkpt><trkpt lat="45.61921864257167" lon="4.812221563863145"><ele>163.0</ele><time>2026-03-28T14:15:27Z</time></trkpt><trkpt lat="45.618972568560515" lon="4.812084657244379"><ele>163.0</ele><time>2026-03-28T14:15:28Z</time></trkpt><trkpt lat="45.61872481181571" lon="4.81194812263795"><ele>163.0</ele><time>2026-03-28T14:15:29Z</time></trkpt><trkpt lat="45.61848059706323" lon="4.811807124182637"><ele>162.0</ele><time>2026-03-28T14:15:30Z</time></trkpt><trkpt lat="45.618234692178554" lon="4.811665986044235"><ele>161.0</ele><time>2026-03-28T14:15:31Z</time></trkpt><trkpt lat="45.61798578093377" lon="4.811527921914056"><ele>161.5</ele><time>2026-03-28T14:15:32Z</time></trkpt><trkpt lat="45.61774010591198" lon="4.811390549298854"><ele>162.0</ele><time>2026-03-28T14:15:33Z</time></trkpt><trkpt lat="45.617491071921854" lon="4.811249367411939"><ele>162.0</ele><time>2026-03-28T14:15:34Z</time></trkpt><trkpt lat="45.617245582496466" lon="4.811107109704657"><ele>162.0</ele><time>2026-03-28T14:15:35Z</time></trkpt><trkpt lat="45.61700301678191" lon="4.8109623486169895"><ele>160.5</ele><time>2026-03-28T14:15:36Z</time></trkpt><trkpt lat="45.61676570643123" lon="4.810818869855446"><ele>159.0</ele><time>2026-03-28T14:15:37Z</time></trkpt><trkpt lat="45.61652503358565" lon="4.810672349495663"><ele>159.0</ele><time>2026-03-28T14:15:38Z</time></trkpt><trkpt lat="45.61628535156432" lon="4.810527505458821"><ele>159.0</ele><time>2026-03-28T14:15:39Z</time></trkpt><trkpt lat="45.61604830628917" lon="4.81037907471078"><ele>159.5</ele><time>2026-03-28T14:15:40Z</time></trkpt><trkpt lat="45.6158151853136" lon="4.810228598201812"><ele>160.0</ele><time>2026-03-28T14:15:41Z</time></trkpt><trkpt lat="45.615581496310185" lon="4.810074542317625"><ele>160.0</ele><time>2026-03-28T14:15:42Z</time></trkpt><trkpt lat="45.61535070248802" lon="4.809919702722148"><ele>160.0</ele><time>2026-03-28T14:15:43Z</time></trkpt><trkpt lat="45.61511858740914" lon="4.809760315788055"><ele>161.5</ele><time>2026-03-28T14:15:44Z</time></trkpt><trkpt lat="45.614889884657124" lon="4.809600593895139"><ele>163.0</ele><time>2026-03-28T14:15:45Z</time></trkpt><trkpt lat="45.614656529085515" lon="4.809438530108321"><ele>162.0</ele><time>2026-03-28T14:15:46Z</time></trkpt><trkpt lat="45.61442798566925" lon="4.809282714355877"><ele>161.0</ele><time>2026-03-28T14:15:47Z</time></trkpt><trkpt lat="45.61419749304076" lon="4.809119219376707"><ele>161.0</ele><time>2026-03-28T14:15:48Z</time></trkpt><trkpt lat="45.613972395498664" lon="4.808954313953756"><ele>161.0</ele><time>2026-03-28T14:15:49Z</time></trkpt><trkpt lat="45.61374609951691" lon="4.808787825216115"><ele>160.5</ele><time>2026-03-28T14:15:50Z</time></trkpt><trkpt lat="45.6135217449403" lon="4.808618847619134"><ele>160.0</ele><time>2026-03-28T14:15:51Z</time></trkpt><trkpt lat="45.61329736013144" lon="4.808444740405995"><ele>160.0</ele><time>2026-03-28T14:15:52Z</time></trkpt><trkpt lat="45.61307646749346" lon="4.808269566524657"><ele>160.0</ele><time>2026-03-28T14:15:53Z</time></trkpt><trkpt lat="45.61284905230789" lon="4.808088420975719"><ele>161.0</ele><time>2026-03-28T14:15:54Z</time></trkpt><trkpt lat="45.612627578453534" lon="4.807901407066991"><ele>162.0</ele><time>2026-03-28T14:15:55Z</time></trkpt><trkpt lat="45.61240643575737" lon="4.807707739772616"><ele>162.0</ele><time>2026-03-28T14:15:56Z</time></trkpt><trkpt lat="45.61218959639576" lon="4.807508907735685"><ele>162.0</ele><time>2026-03-28T14:15:57Z</time></trkpt><trkpt lat="45.611973058862844" lon="4.807306846291064"><ele>162.0</ele><time>2026-03-28T14:15:58Z</time></trkpt><trkpt lat="45.611756361186806" lon="4.8071024755337195"><ele>162.0</ele><time>2026-03-28T14:15:59Z</time></trkpt><trkpt lat="45.61154158550632" lon="4.806895509129535"><ele>163.0</ele><time>2026-03-28T14:16:00Z</time></trkpt><trkpt lat="45.61132890985771" lon="4.806690508159667"><ele>164.0</ele><time>2026-03-28T14:16:01Z</time></trkpt><trkpt lat="45.611114609391066" lon="4.80648345549905"><ele>164.0</ele><time>2026-03-28T14:16:02Z</time></trkpt><trkpt lat="45.61090208564923" lon="4.806273918706313"><ele>164.0</ele><time>2026-03-28T14:16:03Z</time></trkpt><trkpt lat="45.610691860016644" lon="4.806064891841609"><ele>164.0</ele><time>2026-03-28T14:16:04Z</time></trkpt><trkpt lat="45.61048067773969" lon="4.805851389462307"><ele>164.0</ele><time>2026-03-28T14:16:05Z</time></trkpt><trkpt lat="45.61026827465683" lon="4.805635013924395"><ele>164.0</ele><time>2026-03-28T14:16:06Z</time></trkpt><trkpt lat="45.61006044521413" lon="4.805418144287217"><ele>164.0</ele><time>2026-03-28T14:16:07Z</time></trkpt><trkpt lat="45.609849760527815" lon="4.805196421928155"><ele>166.0</ele><time>2026-03-28T14:16:08Z</time></trkpt><trkpt lat="45.60964194046669" lon="4.804971298526801"><ele>168.0</ele><time>2026-03-28T14:16:09Z</time></trkpt><trkpt lat="45.60943535660079" lon="4.804746721108419"><ele>168.0</ele><time>2026-03-28T14:16:10Z</time></trkpt><trkpt lat="45.60922774367446" lon="4.804517666162833"><ele>168.0</ele><time>2026-03-28T14:16:11Z</time></trkpt><trkpt lat="45.60902209774715" lon="4.804288473923492"><ele>169.0</ele><time>2026-03-28T14:16:12Z</time></trkpt><trkpt lat="45.60882026124326" lon="4.80405978019594"><ele>170.0</ele><time>2026-03-28T14:16:13Z</time></trkpt><trkpt lat="45.608619305072075" lon="4.8038278776490015"><ele>170.0</ele><time>2026-03-28T14:16:14Z</time></trkpt><trkpt lat="45.60841827027924" lon="4.803592133689034"><ele>170.0</ele><time>2026-03-28T14:16:15Z</time></trkpt><trkpt lat="45.60821474765591" lon="4.803348510957728"><ele>171.0</ele><time>2026-03-28T14:16:16Z</time></trkpt><trkpt lat="45.6080153729758" lon="4.803105522367104"><ele>172.0</ele><time>2026-03-28T14:16:17Z</time></trkpt><trkpt lat="45.607817560861626" lon="4.8028619990455725"><ele>166.5</ele><time>2026-03-28T14:16:18Z</time></trkpt><trkpt lat="45.607622825484704" lon="4.802613608125975"><ele>161.0</ele><time>2026-03-28T14:16:19Z</time></trkpt><trkpt lat="45.607426132234785" lon="4.802365487738386"><ele>161.0</ele><time>2026-03-28T14:16:20Z</time></trkpt><trkpt lat="45.60723263345101" lon="4.8021161247786575"><ele>161.0</ele><time>2026-03-28T14:16:21Z</time></trkpt><trkpt lat="45.60704420770896" lon="4.801863215092757"><ele>162.5</ele><time>2026-03-28T14:16:22Z</time></trkpt><trkpt lat="45.60685343111146" lon="4.801608141862312"><ele>164.0</ele><time>2026-03-28T14:16:23Z</time></trkpt><trkpt lat="45.60666013468667" lon="4.801354337472558"><ele>164.0</ele><time>2026-03-28T14:16:24Z</time></trkpt><trkpt lat="45.606471178416136" lon="4.801098464915848"><ele>164.0</ele><time>2026-03-28T14:16:25Z</time></trkpt><trkpt lat="45.606278099480214" lon="4.800845518075447"><ele>165.0</ele><time>2026-03-28T14:16:26Z</time></trkpt><trkpt lat="45.60608280669539" lon="4.800593271044248"><ele>166.0</ele><time>2026-03-28T14:16:27Z</time></trkpt><trkpt lat="45.60589355920996" lon="4.800343409792461"><ele>161.5</ele><time>2026-03-28T14:16:28Z</time></trkpt><trkpt lat="45.60570231410017" lon="4.800092626281049"><ele>157.0</ele><time>2026-03-28T14:16:29Z</time></trkpt><trkpt lat="45.60550833944893" lon="4.799844144522758"><ele>163.5</ele><time>2026-03-28T14:16:30Z</time></trkpt><trkpt lat="45.60531105376449" lon="4.799598404344516"><ele>170.0</ele><time>2026-03-28T14:16:31Z</time></trkpt><trkpt lat="45.60511014814407" lon="4.7993586813113085"><ele>164.0</ele><time>2026-03-28T14:16:32Z</time></trkpt><trkpt lat="45.604906423325176" lon="4.799121822676296"><ele>158.0</ele><time>2026-03-28T14:16:33Z</time></trkpt><trkpt lat="45.604699745167416" lon="4.7988909035521905"><ele>160.0</ele><time>2026-03-28T14:16:34Z</time></trkpt><trkpt lat="45.60449366435698" lon="4.798665621158301"><ele>162.0</ele><time>2026-03-28T14:16:35Z</time></trkpt><trkpt lat="45.60428841476424" lon="4.798447417344112"><ele>162.0</ele><time>2026-03-28T14:16:36Z</time></trkpt><trkpt lat="45.604079278736926" lon="4.798232506324413"><ele>162.0</ele><time>2026-03-28T14:16:37Z</time></trkpt><trkpt lat="45.603874301080566" lon="4.798023971747827"><ele>162.0</ele><time>2026-03-28T14:16:38Z</time></trkpt><trkpt lat="45.60366771843653" lon="4.797823571204626"><ele>162.0</ele><time>2026-03-28T14:16:39Z</time></trkpt><trkpt lat="45.60346384293826" lon="4.797627297564008"><ele>162.0</ele><time>2026-03-28T14:16:40Z</time></trkpt><trkpt lat="45.603254585183365" lon="4.797440478260442"><ele>162.0</ele><time>2026-03-28T14:16:41Z</time></trkpt><trkpt lat="45.603047283073536" lon="4.797264584588053"><ele>167.0</ele><time>2026-03-28T14:16:42Z</time></trkpt><trkpt lat="45.602829002516785" lon="4.797090459119329"><ele>172.0</ele><time>2026-03-28T14:16:43Z</time></trkpt><trkpt lat="45.60260955059723" lon="4.796933560100845"><ele>168.5</ele><time>2026-03-28T14:16:44Z</time></trkpt><trkpt lat="45.602392930587314" lon="4.7967891014649435"><ele>165.0</ele><time>2026-03-28T14:16:45Z</time></trkpt><trkpt lat="45.60217237486801" lon="4.796653337224113"><ele>168.5</ele><time>2026-03-28T14:16:46Z</time></trkpt><trkpt lat="45.60195102591963" lon="4.796527830990591"><ele>172.0</ele><time>2026-03-28T14:16:47Z</time></trkpt><trkpt lat="45.6017234145301" lon="4.79641335710985"><ele>172.0</ele><time>2026-03-28T14:16:48Z</time></trkpt><trkpt lat="45.60149774220894" lon="4.796308076424067"><ele>172.0</ele><time>2026-03-28T14:16:49Z</time></trkpt><trkpt lat="45.601269228113715" lon="4.796210928866637"><ele>171.5</ele><time>2026-03-28T14:16:50Z</time></trkpt><trkpt lat="45.6010410971332" lon="4.796124408173683"><ele>171.0</ele><time>2026-03-28T14:16:51Z</time></trkpt><trkpt lat="45.60081073712694" lon="4.79604565679775"><ele>170.5</ele><time>2026-03-28T14:16:52Z</time></trkpt><trkpt lat="45.60057823462184" lon="4.795982723440824"><ele>170.0</ele><time>2026-03-28T14:16:53Z</time></trkpt><trkpt lat="45.60034436423844" lon="4.7959281095036035"><ele>169.5</ele><time>2026-03-28T14:16:54Z</time></trkpt><trkpt lat="45.600111450497366" lon="4.7958856082832275"><ele>169.0</ele><time>2026-03-28T14:16:55Z</time></trkpt><trkpt lat="45.59988003812903" lon="4.795849971098341"><ele>169.0</ele><time>2026-03-28T14:16:56Z</time></trkpt><trkpt lat="45.5996476476312" lon="4.795828595004141"><ele>169.0</ele><time>2026-03-28T14:16:57Z</time></trkpt><trkpt lat="45.59941314839245" lon="4.795817482771355"><ele>170.0</ele><time>2026-03-28T14:16:58Z</time></trkpt><trkpt lat="45.59917822523447" lon="4.795812967100205"><ele>171.0</ele><time>2026-03-28T14:16:59Z</time></trkpt><trkpt lat="45.598946493791786" lon="4.795823262116159"><ele>171.0</ele><time>2026-03-28T14:17:00Z</time></trkpt><trkpt lat="45.59871431707865" lon="4.795837809287275"><ele>171.0</ele><time>2026-03-28T14:17:01Z</time></trkpt><trkpt lat="45.598481399347925" lon="4.795853495989107"><ele>174.5</ele><time>2026-03-28T14:17:02Z</time></trkpt><trkpt lat="45.59824766308565" lon="4.795873593216336"><ele>178.0</ele><time>2026-03-28T14:17:03Z</time></trkpt><trkpt lat="45.59801542292014" lon="4.7958974950191795"><ele>177.5</ele><time>2026-03-28T14:17:04Z</time></trkpt><trkpt lat="45.597779593023894" lon="4.795926624646416"><ele>177.0</ele><time>2026-03-28T14:17:05Z</time></trkpt><trkpt lat="45.59754492514328" lon="4.795950393253216"><ele>177.0</ele><time>2026-03-28T14:17:06Z</time></trkpt><trkpt lat="45.597307886853386" lon="4.795979980458324"><ele>177.0</ele><time>2026-03-28T14:17:07Z</time></trkpt><trkpt lat="45.59707179697834" lon="4.796010298076065"><ele>182.0</ele><time>2026-03-28T14:17:08Z</time></trkpt><trkpt lat="45.59683529324456" lon="4.796041684634346"><ele>187.0</ele><time>2026-03-28T14:17:09Z</time></trkpt><trkpt lat="45.59659609186032" lon="4.796072245886324"><ele>187.0</ele><time>2026-03-28T14:17:10Z</time></trkpt><trkpt lat="45.59635601260195" lon="4.7961120832901525"><ele>187.0</ele><time>2026-03-28T14:17:11Z</time></trkpt><trkpt lat="45.59611605937565" lon="4.796143310693442"><ele>189.0</ele><time>2026-03-28T14:17:12Z</time></trkpt><trkpt lat="45.5958721558803" lon="4.796183213259821"><ele>191.0</ele><time>2026-03-28T14:17:13Z</time></trkpt><trkpt lat="45.59562756108611" lon="4.7962233623532855"><ele>191.0</ele><time>2026-03-28T14:17:14Z</time></trkpt><trkpt lat="45.59538437215333" lon="4.796267765762748"><ele>191.0</ele><time>2026-03-28T14:17:15Z</time></trkpt><trkpt lat="45.59514013871772" lon="4.796311450459624"><ele>188.0</ele><time>2026-03-28T14:17:16Z</time></trkpt><trkpt lat="45.59489477967847" lon="4.7963624890827505"><ele>185.0</ele><time>2026-03-28T14:17:17Z</time></trkpt><trkpt lat="45.59464585844895" lon="4.7964129419893755"><ele>186.0</ele><time>2026-03-28T14:17:18Z</time></trkpt><trkpt lat="45.594396288796716" lon="4.796461181594086"><ele>187.0</ele><time>2026-03-28T14:17:19Z</time></trkpt><trkpt lat="45.594146098569816" lon="4.796518129081411"><ele>187.0</ele><time>2026-03-28T14:17:20Z</time></trkpt><trkpt lat="45.59389103249095" lon="4.796575368004692"><ele>187.0</ele><time>2026-03-28T14:17:21Z</time></trkpt><trkpt lat="45.593634930044615" lon="4.796636011148231"><ele>188.0</ele><time>2026-03-28T14:17:22Z</time></trkpt><trkpt lat="45.593380288305546" lon="4.796698188007982"><ele>189.0</ele><time>2026-03-28T14:17:23Z</time></trkpt><trkpt lat="45.59312125567485" lon="4.796761513401271"><ele>189.0</ele><time>2026-03-28T14:17:24Z</time></trkpt><trkpt lat="45.59286309175265" lon="4.796825868977598"><ele>189.0</ele><time>2026-03-28T14:17:25Z</time></trkpt><trkpt lat="45.59260434424509" lon="4.796891535661979"><ele>189.0</ele><time>2026-03-28T14:17:26Z</time></trkpt><trkpt lat="45.592344747690184" lon="4.796958946326817"><ele>189.0</ele><time>2026-03-28T14:17:27Z</time></trkpt><trkpt lat="45.59208741428072" lon="4.797030580880548"><ele>185.0</ele><time>2026-03-28T14:17:28Z</time></trkpt><trkpt lat="45.5918298282469" lon="4.797102341801175"><ele>181.0</ele><time>2026-03-28T14:17:29Z</time></trkpt><trkpt lat="45.59157241293925" lon="4.79717690058636"><ele>181.0</ele><time>2026-03-28T14:17:30Z</time></trkpt><trkpt lat="45.59131417422706" lon="4.797255627657964"><ele>181.0</ele><time>2026-03-28T14:17:31Z</time></trkpt><trkpt lat="45.59105928461021" lon="4.797336512647884"><ele>180.0</ele><time>2026-03-28T14:17:32Z</time></trkpt><trkpt lat="45.59080727017329" lon="4.797417498907353"><ele>179.0</ele><time>2026-03-28T14:17:33Z</time></trkpt><trkpt lat="45.590550479817594" lon="4.797504086138626"><ele>180.0</ele><time>2026-03-28T14:17:34Z</time></trkpt><trkpt lat="45.59029458875811" lon="4.797591436582524"><ele>181.0</ele><time>2026-03-28T14:17:35Z</time></trkpt><trkpt lat="45.590038652315876" lon="4.797673982073185"><ele>181.0</ele><time>2026-03-28T14:17:36Z</time></trkpt><trkpt lat="45.58978618933132" lon="4.797760822771197"><ele>181.0</ele><time>2026-03-28T14:17:37Z</time></trkpt><trkpt lat="45.589523697987524" lon="4.7978537542555735"><ele>181.0</ele><time>2026-03-28T14:17:38Z</time></trkpt><trkpt lat="45.589269227540974" lon="4.797946775230909"><ele>181.0</ele><time>2026-03-28T14:17:39Z</time></trkpt><trkpt lat="45.58901368255273" lon="4.798044490115513"><ele>181.0</ele><time>2026-03-28T14:17:40Z</time></trkpt><trkpt lat="45.58875308911107" lon="4.798142164447331"><ele>181.0</ele><time>2026-03-28T14:17:41Z</time></trkpt><trkpt lat="45.588498320086686" lon="4.798243409690341"><ele>180.0</ele><time>2026-03-28T14:17:42Z</time></trkpt><trkpt lat="45.58824658772301" lon="4.798344833932851"><ele>179.0</ele><time>2026-03-28T14:17:43Z</time></trkpt><trkpt lat="45.58799494025706" lon="4.798444498878145"><ele>179.5</ele><time>2026-03-28T14:17:44Z</time></trkpt><trkpt lat="45.58773763152691" lon="4.7985450169016435"><ele>180.0</ele><time>2026-03-28T14:17:45Z</time></trkpt><trkpt lat="45.5874847166996" lon="4.7986494597945635"><ele>180.0</ele><time>2026-03-28T14:17:46Z</time></trkpt><trkpt lat="45.58722583563281" lon="4.7987542091647235"><ele>180.0</ele><time>2026-03-28T14:17:47Z</time></trkpt><trkpt lat="45.58697619125703" lon="4.798865146788452"><ele>178.5</ele><time>2026-03-28T14:17:48Z</time></trkpt><trkpt lat="45.58672570597683" lon="4.798976459014649"><ele>177.0</ele><time>2026-03-28T14:17:49Z</time></trkpt><trkpt lat="45.5864747816777" lon="4.799091178151841"><ele>177.0</ele><time>2026-03-28T14:17:50Z</time></trkpt><trkpt lat="45.58622425034823" lon="4.7992025595025325"><ele>177.0</ele><time>2026-03-28T14:17:51Z</time></trkpt><trkpt lat="45.58597189464581" lon="4.799319069997279"><ele>176.5</ele><time>2026-03-28T14:17:52Z</time></trkpt><trkpt lat="45.58572389379477" lon="4.799434345973343"><ele>176.0</ele><time>2026-03-28T14:17:53Z</time></trkpt><trkpt lat="45.585474501230955" lon="4.799555819080668"><ele>175.0</ele><time>2026-03-28T14:17:54Z</time></trkpt><trkpt lat="45.58522447668765" lon="4.799678539427427"><ele>174.0</ele><time>2026-03-28T14:17:55Z</time></trkpt><trkpt lat="45.58498050387952" lon="4.799807111591783"><ele>174.0</ele><time>2026-03-28T14:17:56Z</time></trkpt><trkpt lat="45.584729327392765" lon="4.799930662513919"><ele>174.0</ele><time>2026-03-28T14:17:57Z</time></trkpt><trkpt lat="45.58448411422717" lon="4.800055937172144"><ele>175.0</ele><time>2026-03-28T14:17:58Z</time></trkpt><trkpt lat="45.584243810604015" lon="4.800177678985643"><ele>176.0</ele><time>2026-03-28T14:17:59Z</time></trkpt><trkpt lat="45.584002301035184" lon="4.800299054462561"><ele>176.0</ele><time>2026-03-28T14:18:00Z</time></trkpt><trkpt lat="45.58375488883397" lon="4.800423331961217"><ele>176.0</ele><time>2026-03-28T14:18:01Z</time></trkpt><trkpt lat="45.583512880486246" lon="4.800541152237583"><ele>176.0</ele><time>2026-03-28T14:18:02Z</time></trkpt><trkpt lat="45.583271828033034" lon="4.8006624794482375"><ele>176.0</ele><time>2026-03-28T14:18:03Z</time></trkpt><trkpt lat="45.583033791971104" lon="4.8007852568764555"><ele>175.0</ele><time>2026-03-28T14:18:04Z</time></trkpt><trkpt lat="45.58279129935676" lon="4.8009117324373225"><ele>174.0</ele><time>2026-03-28T14:18:05Z</time></trkpt><trkpt lat="45.58255013840677" lon="4.801038849835349"><ele>173.0</ele><time>2026-03-28T14:18:06Z</time></trkpt><trkpt lat="45.582315957677416" lon="4.80116591638329"><ele>172.0</ele><time>2026-03-28T14:18:07Z</time></trkpt><trkpt lat="45.582077057250174" lon="4.80129482946208"><ele>172.5</ele><time>2026-03-28T14:18:08Z</time></trkpt><trkpt lat="45.58184013223681" lon="4.801420844696082"><ele>173.0</ele><time>2026-03-28T14:18:09Z</time></trkpt><trkpt lat="45.58160134793143" lon="4.801548641747918"><ele>173.0</ele><time>2026-03-28T14:18:10Z</time></trkpt><trkpt lat="45.58136303277988" lon="4.801676439573674"><ele>173.0</ele><time>2026-03-28T14:18:11Z</time></trkpt><trkpt lat="45.581125137204666" lon="4.801808031340327"><ele>169.5</ele><time>2026-03-28T14:18:12Z</time></trkpt><trkpt lat="45.58088610163221" lon="4.801940996975018"><ele>166.0</ele><time>2026-03-28T14:18:13Z</time></trkpt><trkpt lat="45.580647806095506" lon="4.802076887090657"><ele>166.0</ele><time>2026-03-28T14:18:14Z</time></trkpt><trkpt lat="45.58041315007348" lon="4.802215165786712"><ele>166.0</ele><time>2026-03-28T14:18:15Z</time></trkpt><trkpt lat="45.580174664274026" lon="4.802350848527171"><ele>163.0</ele><time>2026-03-28T14:18:16Z</time></trkpt><trkpt lat="45.57993538010818" lon="4.802487259804034"><ele>160.0</ele><time>2026-03-28T14:18:17Z</time></trkpt><trkpt lat="45.57969537116871" lon="4.802623424210825"><ele>158.5</ele><time>2026-03-28T14:18:18Z</time></trkpt><trkpt lat="45.57946111970213" lon="4.802760730438859"><ele>157.0</ele><time>2026-03-28T14:18:19Z</time></trkpt><trkpt lat="45.57921777853973" lon="4.8029052379131185"><ele>157.0</ele><time>2026-03-28T14:18:20Z</time></trkpt><trkpt lat="45.578976035742066" lon="4.803047657566613"><ele>157.0</ele><time>2026-03-28T14:18:21Z</time></trkpt><trkpt lat="45.578733576986735" lon="4.803189833490262"><ele>158.0</ele><time>2026-03-28T14:18:22Z</time></trkpt><trkpt lat="45.57849281793972" lon="4.803332303069831"><ele>159.0</ele><time>2026-03-28T14:18:23Z</time></trkpt><trkpt lat="45.57825159406599" lon="4.803476788704073"><ele>158.5</ele><time>2026-03-28T14:18:24Z</time></trkpt><trkpt lat="45.57801338835641" lon="4.80361956880527"><ele>158.0</ele><time>2026-03-28T14:18:25Z</time></trkpt><trkpt lat="45.57777026897113" lon="4.803765331580444"><ele>158.0</ele><time>2026-03-28T14:18:26Z</time></trkpt><trkpt lat="45.57753386982237" lon="4.803911949810766"><ele>158.0</ele><time>2026-03-28T14:18:27Z</time></trkpt><trkpt lat="45.57729984710825" lon="4.804062077118274"><ele>158.0</ele><time>2026-03-28T14:18:28Z</time></trkpt><trkpt lat="45.577072328073164" lon="4.80421860019033"><ele>158.0</ele><time>2026-03-28T14:18:29Z</time></trkpt><trkpt lat="45.576849230431556" lon="4.804382806342352"><ele>157.5</ele><time>2026-03-28T14:18:30Z</time></trkpt><trkpt lat="45.57663282095979" lon="4.80455777469646"><ele>157.0</ele><time>2026-03-28T14:18:31Z</time></trkpt><trkpt lat="45.57642058310209" lon="4.804741110386259"><ele>157.0</ele><time>2026-03-28T14:18:32Z</time></trkpt><trkpt lat="45.57621548022049" lon="4.804932448427547"><ele>157.0</ele><time>2026-03-28T14:18:33Z</time></trkpt><trkpt lat="45.576015259033255" lon="4.805128725199652"><ele>158.0</ele><time>2026-03-28T14:18:34Z</time></trkpt><trkpt lat="45.57582236356473" lon="4.805326677606679"><ele>159.0</ele><time>2026-03-28T14:18:35Z</time></trkpt><trkpt lat="45.575633686745775" lon="4.8055274855606696"><ele>159.0</ele><time>2026-03-28T14:18:36Z</time></trkpt><trkpt lat="45.57545415533932" lon="4.805732741498596"><ele>159.0</ele><time>2026-03-28T14:18:37Z</time></trkpt><trkpt lat="45.5752793779837" lon="4.805937718330709"><ele>159.0</ele><time>2026-03-28T14:18:38Z</time></trkpt><trkpt lat="45.57511198024125" lon="4.80614780179892"><ele>159.0</ele><time>2026-03-28T14:18:39Z</time></trkpt><trkpt lat="45.57494789511525" lon="4.806360937129971"><ele>159.0</ele><time>2026-03-28T14:18:40Z</time></trkpt><trkpt lat="45.574789589891985" lon="4.806589085047765"><ele>159.0</ele><time>2026-03-28T14:18:41Z</time></trkpt><trkpt lat="45.57463217619838" lon="4.806825334480032"><ele>159.0</ele><time>2026-03-28T14:18:42Z</time></trkpt><trkpt lat="45.57447964719533" lon="4.80706438861217"><ele>159.0</ele><time>2026-03-28T14:18:43Z</time></trkpt><trkpt lat="45.574330098157084" lon="4.807309072735511"><ele>159.0</ele><time>2026-03-28T14:18:44Z</time></trkpt><trkpt lat="45.574185416310684" lon="4.807561159376454"><ele>158.5</ele><time>2026-03-28T14:18:45Z</time></trkpt><trkpt lat="45.57403980455732" lon="4.807815701260191"><ele>158.0</ele><time>2026-03-28T14:18:46Z</time></trkpt><trkpt lat="45.57389956459138" lon="4.808082585298626"><ele>158.0</ele><time>2026-03-28T14:18:47Z</time></trkpt><trkpt lat="45.57376717795789" lon="4.808359626563144"><ele>158.0</ele><time>2026-03-28T14:18:48Z</time></trkpt><trkpt lat="45.57363778431283" lon="4.808635546947341"><ele>158.5</ele><time>2026-03-28T14:18:49Z</time></trkpt><trkpt lat="45.57350803959363" lon="4.8089181308908655"><ele>159.0</ele><time>2026-03-28T14:18:50Z</time></trkpt><trkpt lat="45.57338558164169" lon="4.809202793743524"><ele>160.5</ele><time>2026-03-28T14:18:51Z</time></trkpt><trkpt lat="45.57325725399332" lon="4.809485690909546"><ele>162.0</ele><time>2026-03-28T14:18:52Z</time></trkpt><trkpt lat="45.57312317657746" lon="4.809770242924536"><ele>162.0</ele><time>2026-03-28T14:18:53Z</time></trkpt><trkpt lat="45.57298839572894" lon="4.810056962272629"><ele>162.0</ele><time>2026-03-28T14:18:54Z</time></trkpt><trkpt lat="45.572851753040595" lon="4.810338860546073"><ele>158.5</ele><time>2026-03-28T14:18:55Z</time></trkpt><trkpt lat="45.572708061812655" lon="4.810617743483775"><ele>155.0</ele><time>2026-03-28T14:18:56Z</time></trkpt><trkpt lat="45.572557221109975" lon="4.810891564432649"><ele>155.5</ele><time>2026-03-28T14:18:57Z</time></trkpt><trkpt lat="45.57240545788702" lon="4.811168323206926"><ele>156.0</ele><time>2026-03-28T14:18:58Z</time></trkpt><trkpt lat="45.572247970880156" lon="4.811439909551014"><ele>156.0</ele><time>2026-03-28T14:18:59Z</time></trkpt><trkpt lat="45.572085420111215" lon="4.811704650344444"><ele>156.0</ele><time>2026-03-28T14:19:00Z</time></trkpt><trkpt lat="45.57192513760436" lon="4.811970384184258"><ele>155.5</ele><time>2026-03-28T14:19:01Z</time></trkpt><trkpt lat="45.57175841951183" lon="4.812235248701184"><ele>155.0</ele><time>2026-03-28T14:19:02Z</time></trkpt><trkpt lat="45.57158387620508" lon="4.812491159888973"><ele>155.0</ele><time>2026-03-28T14:19:03Z</time></trkpt><trkpt lat="45.5714073967058" lon="4.8127456161701145"><ele>155.0</ele><time>2026-03-28T14:19:04Z</time></trkpt><trkpt lat="45.571226572920835" lon="4.812994114469667"><ele>155.5</ele><time>2026-03-28T14:19:05Z</time></trkpt><trkpt lat="45.571039611934175" lon="4.813240680501995"><ele>156.0</ele><time>2026-03-28T14:19:06Z</time></trkpt><trkpt lat="45.57085259583345" lon="4.813481857963751"><ele>156.0</ele><time>2026-03-28T14:19:07Z</time></trkpt><trkpt lat="45.5706603756979" lon="4.813719191837264"><ele>156.0</ele><time>2026-03-28T14:19:08Z</time></trkpt><trkpt lat="45.57046481455506" lon="4.813952186644795"><ele>155.0</ele><time>2026-03-28T14:19:09Z</time></trkpt><trkpt lat="45.57026593776932" lon="4.814180651722472"><ele>154.0</ele><time>2026-03-28T14:19:10Z</time></trkpt><trkpt lat="45.570061679059826" lon="4.814402117117876"><ele>156.0</ele><time>2026-03-28T14:19:11Z</time></trkpt><trkpt lat="45.56985552668467" lon="4.814617296696447"><ele>158.0</ele><time>2026-03-28T14:19:12Z</time></trkpt><trkpt lat="45.56964551619944" lon="4.81482982778552"><ele>157.5</ele><time>2026-03-28T14:19:13Z</time></trkpt><trkpt lat="45.569435246742806" lon="4.815038492934165"><ele>157.0</ele><time>2026-03-28T14:19:14Z</time></trkpt><trkpt lat="45.56922041619273" lon="4.815240040350998"><ele>157.0</ele><time>2026-03-28T14:19:15Z</time></trkpt><trkpt lat="45.56900257950936" lon="4.815436266986877"><ele>157.0</ele><time>2026-03-28T14:19:16Z</time></trkpt><trkpt lat="45.568776780727895" lon="4.815630144089568"><ele>156.5</ele><time>2026-03-28T14:19:17Z</time></trkpt><trkpt lat="45.56855091236344" lon="4.815813941304013"><ele>156.0</ele><time>2026-03-28T14:19:18Z</time></trkpt><trkpt lat="45.56832510050377" lon="4.815993110971923"><ele>156.0</ele><time>2026-03-28T14:19:19Z</time></trkpt><trkpt lat="45.56809507886312" lon="4.816160896701114"><ele>156.0</ele><time>2026-03-28T14:19:20Z</time></trkpt><trkpt lat="45.56785815666583" lon="4.8163249409489435"><ele>155.0</ele><time>2026-03-28T14:19:21Z</time></trkpt><trkpt lat="45.56762107825044" lon="4.816482212171203"><ele>154.0</ele><time>2026-03-28T14:19:22Z</time></trkpt><trkpt lat="45.56737992537477" lon="4.816635117625426"><ele>154.0</ele><time>2026-03-28T14:19:23Z</time></trkpt><trkpt lat="45.56713519967603" lon="4.816779020259777"><ele>154.0</ele><time>2026-03-28T14:19:24Z</time></trkpt><trkpt lat="45.56689017011352" lon="4.81691470639021"><ele>156.5</ele><time>2026-03-28T14:19:25Z</time></trkpt><trkpt lat="45.56664449510875" lon="4.817046287740932"><ele>159.0</ele><time>2026-03-28T14:19:26Z</time></trkpt><trkpt lat="45.5663978385342" lon="4.817176460120748"><ele>157.0</ele><time>2026-03-28T14:19:27Z</time></trkpt><trkpt lat="45.5661486245952" lon="4.8173009306141665"><ele>155.0</ele><time>2026-03-28T14:19:28Z</time></trkpt><trkpt lat="45.565900786688644" lon="4.817423170124791"><ele>155.0</ele><time>2026-03-28T14:19:29Z</time></trkpt><trkpt lat="45.565652603739125" lon="4.817544076923462"><ele>155.0</ele><time>2026-03-28T14:19:30Z</time></trkpt><trkpt lat="45.56540751364345" lon="4.817670574932021"><ele>160.0</ele><time>2026-03-28T14:19:31Z</time></trkpt><trkpt lat="45.565162460554596" lon="4.817802206394946"><ele>165.0</ele><time>2026-03-28T14:19:32Z</time></trkpt><trkpt lat="45.564919811204845" lon="4.817938153929775"><ele>165.0</ele><time>2026-03-28T14:19:33Z</time></trkpt><trkpt lat="45.56467803357537" lon="4.818082930318902"><ele>165.0</ele><time>2026-03-28T14:19:34Z</time></trkpt><trkpt lat="45.56443639518131" lon="4.818233646699995"><ele>161.0</ele><time>2026-03-28T14:19:35Z</time></trkpt><trkpt lat="45.56419514301265" lon="4.8183880562193036"><ele>157.0</ele><time>2026-03-28T14:19:36Z</time></trkpt><trkpt lat="45.56395367037982" lon="4.818549497557854"><ele>158.5</ele><time>2026-03-28T14:19:37Z</time></trkpt><trkpt lat="45.56371631836258" lon="4.818713604581221"><ele>160.0</ele><time>2026-03-28T14:19:38Z</time></trkpt><trkpt lat="45.56347879999157" lon="4.818880414974733"><ele>160.0</ele><time>2026-03-28T14:19:39Z</time></trkpt><trkpt lat="45.5632438934333" lon="4.81905118980679"><ele>160.0</ele><time>2026-03-28T14:19:40Z</time></trkpt><trkpt lat="45.563007201634534" lon="4.819224143224202"><ele>160.0</ele><time>2026-03-28T14:19:41Z</time></trkpt><trkpt lat="45.562771855634125" lon="4.819400470497445"><ele>160.0</ele><time>2026-03-28T14:19:42Z</time></trkpt><trkpt lat="45.56253921406113" lon="4.819580811020471"><ele>160.0</ele><time>2026-03-28T14:19:43Z</time></trkpt><trkpt lat="45.56230990393981" lon="4.819764300723914"><ele>160.0</ele><time>2026-03-28T14:19:44Z</time></trkpt><trkpt lat="45.56208053142669" lon="4.819949469270974"><ele>159.0</ele><time>2026-03-28T14:19:45Z</time></trkpt><trkpt lat="45.56184919967639" lon="4.8201340053803685"><ele>158.0</ele><time>2026-03-28T14:19:46Z</time></trkpt><trkpt lat="45.56161736406334" lon="4.820317732350341"><ele>158.0</ele><time>2026-03-28T14:19:47Z</time></trkpt><trkpt lat="45.56138793415404" lon="4.820503984406573"><ele>158.0</ele><time>2026-03-28T14:19:48Z</time></trkpt><trkpt lat="45.56115883901181" lon="4.820687905749373"><ele>157.5</ele><time>2026-03-28T14:19:49Z</time></trkpt><trkpt lat="45.560932061375865" lon="4.820874485224007"><ele>157.0</ele><time>2026-03-28T14:19:50Z</time></trkpt><trkpt lat="45.56070490321858" lon="4.821065161849332"><ele>157.0</ele><time>2026-03-28T14:19:51Z</time></trkpt><trkpt lat="45.56047959357882" lon="4.821254667568893"><ele>157.0</ele><time>2026-03-28T14:19:52Z</time></trkpt><trkpt lat="45.56025225816654" lon="4.821443474940912"><ele>156.5</ele><time>2026-03-28T14:19:53Z</time></trkpt><trkpt lat="45.56002412380378" lon="4.821629234277596"><ele>156.0</ele><time>2026-03-28T14:19:54Z</time></trkpt><trkpt lat="45.55980167773311" lon="4.821821255535449"><ele>156.0</ele><time>2026-03-28T14:19:55Z</time></trkpt><trkpt lat="45.55957852306564" lon="4.8220147308083545"><ele>156.0</ele><time>2026-03-28T14:19:56Z</time></trkpt><trkpt lat="45.55935474057683" lon="4.822205717227914"><ele>155.5</ele><time>2026-03-28T14:19:57Z</time></trkpt><trkpt lat="45.55913114275758" lon="4.8223961492572185"><ele>155.0</ele><time>2026-03-28T14:19:58Z</time></trkpt><trkpt lat="45.55890691276707" lon="4.822590116793746"><ele>156.5</ele><time>2026-03-28T14:19:59Z</time></trkpt><trkpt lat="45.55868260629728" lon="4.822787417186365"><ele>158.0</ele><time>2026-03-28T14:20:00Z</time></trkpt><trkpt lat="45.55846149914685" lon="4.822987852313887"><ele>158.0</ele><time>2026-03-28T14:20:01Z</time></trkpt><trkpt lat="45.55824308693786" lon="4.823186700799185"><ele>158.0</ele><time>2026-03-28T14:20:02Z</time></trkpt><trkpt lat="45.558021282032136" lon="4.823386693359054"><ele>156.5</ele><time>2026-03-28T14:20:03Z</time></trkpt><trkpt lat="45.55779820667468" lon="4.823585998649133"><ele>155.0</ele><time>2026-03-28T14:20:04Z</time></trkpt><trkpt lat="45.55757502236352" lon="4.823785917472517"><ele>155.0</ele><time>2026-03-28T14:20:05Z</time></trkpt><trkpt lat="45.55735159220775" lon="4.823988658233542"><ele>155.0</ele><time>2026-03-28T14:20:06Z</time></trkpt><trkpt lat="45.557130469789655" lon="4.8241913652369846"><ele>156.0</ele><time>2026-03-28T14:20:07Z</time></trkpt><trkpt lat="45.55690774107783" lon="4.824395102675177"><ele>157.0</ele><time>2026-03-28T14:20:08Z</time></trkpt><trkpt lat="45.55668659188724" lon="4.824597765864308"><ele>157.0</ele><time>2026-03-28T14:20:09Z</time></trkpt><trkpt lat="45.5564656014888" lon="4.8248011874618255"><ele>157.0</ele><time>2026-03-28T14:20:10Z</time></trkpt><trkpt lat="45.55624496352062" lon="4.825006527441749"><ele>156.0</ele><time>2026-03-28T14:20:11Z</time></trkpt><trkpt lat="45.55602587400345" lon="4.825213263993453"><ele>155.0</ele><time>2026-03-28T14:20:12Z</time></trkpt><trkpt lat="45.55580562403966" lon="4.82541917831215"><ele>155.0</ele><time>2026-03-28T14:20:13Z</time></trkpt><trkpt lat="45.55558847404107" lon="4.825627306286946"><ele>155.0</ele><time>2026-03-28T14:20:14Z</time></trkpt><trkpt lat="45.55537197400225" lon="4.8258367900801336"><ele>154.5</ele><time>2026-03-28T14:20:15Z</time></trkpt><trkpt lat="45.555155379746004" lon="4.826048840981999"><ele>154.0</ele><time>2026-03-28T14:20:16Z</time></trkpt><trkpt lat="45.554939229641825" lon="4.826261401912833"><ele>154.0</ele><time>2026-03-28T14:20:17Z</time></trkpt><trkpt lat="45.55472141033338" lon="4.826470656945295"><ele>154.0</ele><time>2026-03-28T14:20:18Z</time></trkpt><trkpt lat="45.554503610457466" lon="4.8266804068961875"><ele>155.0</ele><time>2026-03-28T14:20:19Z</time></trkpt><trkpt lat="45.55428823486505" lon="4.826889918245166"><ele>156.0</ele><time>2026-03-28T14:20:20Z</time></trkpt><trkpt lat="45.55407233107169" lon="4.827102602973608"><ele>156.0</ele><time>2026-03-28T14:20:21Z</time></trkpt><trkpt lat="45.5538618424229" lon="4.827317130211579"><ele>156.0</ele><time>2026-03-28T14:20:22Z</time></trkpt><trkpt lat="45.55365354529798" lon="4.827536107371859"><ele>155.5</ele><time>2026-03-28T14:20:23Z</time></trkpt><trkpt lat="45.55344895198171" lon="4.827758247787661"><ele>155.0</ele><time>2026-03-28T14:20:24Z</time></trkpt><trkpt lat="45.55323456825779" lon="4.827970734505698"><ele>155.0</ele><time>2026-03-28T14:20:25Z</time></trkpt><trkpt lat="45.5530228025906" lon="4.8281884256079195"><ele>155.0</ele><time>2026-03-28T14:20:26Z</time></trkpt><trkpt lat="45.55281070805682" lon="4.8284098008704"><ele>154.0</ele><time>2026-03-28T14:20:27Z</time></trkpt><trkpt lat="45.55259882779368" lon="4.82863270474079"><ele>153.0</ele><time>2026-03-28T14:20:28Z</time></trkpt><trkpt lat="45.5523893703243" lon="4.828857502108427"><ele>153.0</ele><time>2026-03-28T14:20:29Z</time></trkpt><trkpt lat="45.55218362987939" lon="4.8290857349110015"><ele>153.0</ele><time>2026-03-28T14:20:30Z</time></trkpt><trkpt lat="45.551978101937614" lon="4.8293142739891435"><ele>153.5</ele><time>2026-03-28T14:20:31Z</time></trkpt><trkpt lat="45.55178213870689" lon="4.829543514385068"><ele>154.0</ele><time>2026-03-28T14:20:32Z</time></trkpt><trkpt lat="45.55158626353429" lon="4.829768138605441"><ele>154.0</ele><time>2026-03-28T14:20:33Z</time></trkpt><trkpt lat="45.551398243794715" lon="4.829991854593303"><ele>154.0</ele><time>2026-03-28T14:20:34Z</time></trkpt><trkpt lat="45.55121014216784" lon="4.83021664829996"><ele>154.5</ele><time>2026-03-28T14:20:35Z</time></trkpt><trkpt lat="45.551022475849464" lon="4.830439702738279"><ele>155.0</ele><time>2026-03-28T14:20:36Z</time></trkpt><trkpt lat="45.55083619387293" lon="4.830664236958861"><ele>155.0</ele><time>2026-03-28T14:20:37Z</time></trkpt><trkpt lat="45.55065157670069" lon="4.830883876680186"><ele>155.0</ele><time>2026-03-28T14:20:38Z</time></trkpt><trkpt lat="45.55047164181257" lon="4.831107544745207"><ele>155.5</ele><time>2026-03-28T14:20:39Z</time></trkpt><trkpt lat="45.55029133546111" lon="4.831331068037244"><ele>156.0</ele><time>2026-03-28T14:20:40Z</time></trkpt><trkpt lat="45.550108486921296" lon="4.831554486993555"><ele>156.0</ele><time>2026-03-28T14:20:41Z</time></trkpt><trkpt lat="45.549926841529356" lon="4.831781177005281"><ele>156.0</ele><time>2026-03-28T14:20:42Z</time></trkpt><trkpt lat="45.549745584633754" lon="4.832007458745978"><ele>155.5</ele><time>2026-03-28T14:20:43Z</time></trkpt><trkpt lat="45.54956321415961" lon="4.832234125085401"><ele>155.0</ele><time>2026-03-28T14:20:44Z</time></trkpt><trkpt lat="45.54938943502784" lon="4.832459533517589"><ele>155.0</ele><time>2026-03-28T14:20:45Z</time></trkpt><trkpt lat="45.54921474219382" lon="4.8326863091134475"><ele>155.0</ele><time>2026-03-28T14:20:46Z</time></trkpt><trkpt lat="45.54904097138064" lon="4.832912477533739"><ele>155.0</ele><time>2026-03-28T14:20:47Z</time></trkpt><trkpt lat="45.548865378541294" lon="4.8331439148355715"><ele>155.0</ele><time>2026-03-28T14:20:48Z</time></trkpt><trkpt lat="45.5486907412675" lon="4.833381309095788"><ele>155.0</ele><time>2026-03-28T14:20:49Z</time></trkpt><trkpt lat="45.54851693396199" lon="4.833619462500071"><ele>155.0</ele><time>2026-03-28T14:20:50Z</time></trkpt><trkpt lat="45.54835154696769" lon="4.833861069614218"><ele>155.0</ele><time>2026-03-28T14:20:51Z</time></trkpt><trkpt lat="45.54817758626023" lon="4.834103922743168"><ele>155.0</ele><time>2026-03-28T14:20:52Z</time></trkpt><trkpt lat="45.54801176604758" lon="4.834358422976332"><ele>154.5</ele><time>2026-03-28T14:20:53Z</time></trkpt><trkpt lat="45.54784005607209" lon="4.834615880607234"><ele>154.0</ele><time>2026-03-28T14:20:54Z</time></trkpt><trkpt lat="45.54766540717218" lon="4.83487918007177"><ele>155.0</ele><time>2026-03-28T14:20:55Z</time></trkpt><trkpt lat="45.54749314934837" lon="4.83514837209596"><ele>156.0</ele><time>2026-03-28T14:20:56Z</time></trkpt><trkpt lat="45.547320427298814" lon="4.835424747454345"><ele>156.0</ele><time>2026-03-28T14:20:57Z</time></trkpt><trkpt lat="45.54714502235513" lon="4.835701232931196"><ele>156.0</ele><time>2026-03-28T14:20:58Z</time></trkpt><trkpt lat="45.546975495482656" lon="4.835986631781296"><ele>155.0</ele><time>2026-03-28T14:20:59Z</time></trkpt><trkpt lat="45.546806704166045" lon="4.836271783018973"><ele>154.0</ele><time>2026-03-28T14:21:00Z</time></trkpt><trkpt lat="45.54664176343595" lon="4.836561252116556"><ele>155.5</ele><time>2026-03-28T14:21:01Z</time></trkpt><trkpt lat="45.54647973855987" lon="4.8368575902572895"><ele>157.0</ele><time>2026-03-28T14:21:02Z</time></trkpt><trkpt lat="45.54631698832103" lon="4.83715447762528"><ele>156.5</ele><time>2026-03-28T14:21:03Z</time></trkpt><trkpt lat="45.54615480160818" lon="4.8374508127733975"><ele>156.0</ele><time>2026-03-28T14:21:04Z</time></trkpt><trkpt lat="45.545993458719884" lon="4.8377499849974095"><ele>155.5</ele><time>2026-03-28T14:21:05Z</time></trkpt><trkpt lat="45.545835030158244" lon="4.838052324131038"><ele>155.0</ele><time>2026-03-28T14:21:06Z</time></trkpt><trkpt lat="45.545678467742384" lon="4.838363402641213"><ele>153.5</ele><time>2026-03-28T14:21:07Z</time></trkpt><trkpt lat="45.54552802669356" lon="4.838672528362059"><ele>152.0</ele><time>2026-03-28T14:21:08Z</time></trkpt><trkpt lat="45.54537734145375" lon="4.838980209474193"><ele>152.0</ele><time>2026-03-28T14:21:09Z</time></trkpt><trkpt lat="45.545229000068964" lon="4.839299548488328"><ele>152.0</ele><time>2026-03-28T14:21:10Z</time></trkpt><trkpt lat="45.54508668140878" lon="4.8396166077199885"><ele>153.5</ele><time>2026-03-28T14:21:11Z</time></trkpt><trkpt lat="45.544947335942794" lon="4.839936855316262"><ele>155.0</ele><time>2026-03-28T14:21:12Z</time></trkpt><trkpt lat="45.54481002191801" lon="4.840261352731505"><ele>156.0</ele><time>2026-03-28T14:21:13Z</time></trkpt><trkpt lat="45.54467590751586" lon="4.840586549682489"><ele>157.0</ele><time>2026-03-28T14:21:14Z</time></trkpt><trkpt lat="45.54454432805324" lon="4.84091578202412"><ele>157.0</ele><time>2026-03-28T14:21:15Z</time></trkpt><trkpt lat="45.544413618665104" lon="4.84124735000578"><ele>157.0</ele><time>2026-03-28T14:21:16Z</time></trkpt><trkpt lat="45.54428870489662" lon="4.841580715671179"><ele>156.5</ele><time>2026-03-28T14:21:17Z</time></trkpt><trkpt lat="45.54417097852077" lon="4.841914338728831"><ele>156.0</ele><time>2026-03-28T14:21:18Z</time></trkpt><trkpt lat="45.54405510418689" lon="4.842252304396802"><ele>156.0</ele><time>2026-03-28T14:21:19Z</time></trkpt><trkpt lat="45.54394312555612" lon="4.8425951628408335"><ele>156.0</ele><time>2026-03-28T14:21:20Z</time></trkpt><trkpt lat="45.54383258679018" lon="4.842934619491583"><ele>156.5</ele><time>2026-03-28T14:21:21Z</time></trkpt><trkpt lat="45.54372557538514" lon="4.843280336399498"><ele>157.0</ele><time>2026-03-28T14:21:22Z</time></trkpt><trkpt lat="45.54361919628048" lon="4.843626094021998"><ele>157.0</ele><time>2026-03-28T14:21:23Z</time></trkpt><trkpt lat="45.54352350579703" lon="4.843971931721193"><ele>157.0</ele><time>2026-03-28T14:21:24Z</time></trkpt><trkpt lat="45.543439360239624" lon="4.844322728187385"><ele>157.0</ele><time>2026-03-28T14:21:25Z</time></trkpt><trkpt lat="45.543367696594245" lon="4.844679416933433"><ele>157.0</ele><time>2026-03-28T14:21:26Z</time></trkpt><trkpt lat="45.54330480936585" lon="4.845044814987973"><ele>155.5</ele><time>2026-03-28T14:21:27Z</time></trkpt><trkpt lat="45.543255183325364" lon="4.845415085094284"><ele>154.0</ele><time>2026-03-28T14:21:28Z</time></trkpt><trkpt lat="45.5432226127334" lon="4.845787011859416"><ele>154.0</ele><time>2026-03-28T14:21:29Z</time></trkpt><trkpt lat="45.543203819067564" lon="4.846160472523839"><ele>154.0</ele><time>2026-03-28T14:21:30Z</time></trkpt><trkpt lat="45.543201038901294" lon="4.846537570326951"><ele>155.0</ele><time>2026-03-28T14:21:31Z</time></trkpt><trkpt lat="45.54321299899271" lon="4.846912811659093"><ele>156.0</ele><time>2026-03-28T14:21:32Z</time></trkpt><trkpt lat="45.54322943514579" lon="4.847286643601601"><ele>155.5</ele><time>2026-03-28T14:21:33Z</time></trkpt><trkpt lat="45.54325283279656" lon="4.8476583213010125"><ele>155.0</ele><time>2026-03-28T14:21:34Z</time></trkpt><trkpt lat="45.54328505482896" lon="4.848028658426"><ele>155.0</ele><time>2026-03-28T14:21:35Z</time></trkpt><trkpt lat="45.54331754784879" lon="4.8484018641812865"><ele>155.0</ele><time>2026-03-28T14:21:36Z</time></trkpt><trkpt lat="45.5433497795711" lon="4.848773949192806"><ele>155.5</ele><time>2026-03-28T14:21:37Z</time></trkpt><trkpt lat="45.543370465309174" lon="4.849143398407306"><ele>156.0</ele><time>2026-03-28T14:21:38Z</time></trkpt><trkpt lat="45.543383773544235" lon="4.849508197673183"><ele>156.0</ele><time>2026-03-28T14:21:39Z</time></trkpt><trkpt lat="45.54338628405345" lon="4.849878453089583"><ele>156.0</ele><time>2026-03-28T14:21:40Z</time></trkpt><trkpt lat="45.54337304141071" lon="4.850243317229359"><ele>156.0</ele><time>2026-03-28T14:21:41Z</time></trkpt><trkpt lat="45.54334063120255" lon="4.850605310781687"><ele>156.0</ele><time>2026-03-28T14:21:42Z</time></trkpt><trkpt lat="45.54329637727467" lon="4.850968213312909"><ele>155.5</ele><time>2026-03-28T14:21:43Z</time></trkpt><trkpt lat="45.54323677370192" lon="4.851325794495539"><ele>155.0</ele><time>2026-03-28T14:21:44Z</time></trkpt><trkpt lat="45.54316363482904" lon="4.851680433982853"><ele>154.5</ele><time>2026-03-28T14:21:45Z</time></trkpt><trkpt lat="45.54306987057655" lon="4.852027068135367"><ele>154.0</ele><time>2026-03-28T14:21:46Z</time></trkpt><trkpt lat="45.542961626516835" lon="4.852364606910522"><ele>154.5</ele><time>2026-03-28T14:21:47Z</time></trkpt><trkpt lat="45.542838893741475" lon="4.852691129250254"><ele>155.0</ele><time>2026-03-28T14:21:48Z</time></trkpt><trkpt lat="45.54269595556157" lon="4.853001246213665"><ele>155.0</ele><time>2026-03-28T14:21:49Z</time></trkpt><trkpt lat="45.542537835999426" lon="4.8532983607100135"><ele>155.0</ele><time>2026-03-28T14:21:50Z</time></trkpt><trkpt lat="45.542366428936944" lon="4.853580498371921"><ele>156.0</ele><time>2026-03-28T14:21:51Z</time></trkpt><trkpt lat="45.542187741985884" lon="4.853847303731932"><ele>157.0</ele><time>2026-03-28T14:21:52Z</time></trkpt><trkpt lat="45.54199494777496" lon="4.854098010690723"><ele>157.0</ele><time>2026-03-28T14:21:53Z</time></trkpt><trkpt lat="45.54179028277692" lon="4.85433117707825"><ele>157.0</ele><time>2026-03-28T14:21:54Z</time></trkpt><trkpt lat="45.541576389630755" lon="4.8545444795834936"><ele>157.0</ele><time>2026-03-28T14:21:55Z</time></trkpt><trkpt lat="45.5413509851478" lon="4.854736626309905"><ele>157.0</ele><time>2026-03-28T14:21:56Z</time></trkpt><trkpt lat="45.54111863894034" lon="4.854903236019287"><ele>155.5</ele><time>2026-03-28T14:21:57Z</time></trkpt><trkpt lat="45.54087933119907" lon="4.855043762735983"><ele>154.0</ele><time>2026-03-28T14:21:58Z</time></trkpt><trkpt lat="45.540640942966874" lon="4.855165933178596"><ele>154.0</ele><time>2026-03-28T14:21:59Z</time></trkpt><trkpt lat="45.54039699283792" lon="4.855277799178607"><ele>154.0</ele><time>2026-03-28T14:22:00Z</time></trkpt><trkpt lat="45.54015105192714" lon="4.855388248007174"><ele>151.0</ele><time>2026-03-28T14:22:01Z</time></trkpt><trkpt lat="45.539905395172845" lon="4.855503120142291"><ele>148.0</ele><time>2026-03-28T14:22:02Z</time></trkpt><trkpt lat="45.53966065070144" lon="4.855620169183103"><ele>148.0</ele><time>2026-03-28T14:22:03Z</time></trkpt><trkpt lat="45.53941744204522" lon="4.855739431559555"><ele>148.0</ele><time>2026-03-28T14:22:04Z</time></trkpt><trkpt lat="45.539171779296346" lon="4.855854732596575"><ele>148.0</ele><time>2026-03-28T14:22:05Z</time></trkpt><trkpt lat="45.53892149496749" lon="4.8559653263558875"><ele>148.0</ele><time>2026-03-28T14:22:06Z</time></trkpt><trkpt lat="45.538675024757104" lon="4.856077247307887"><ele>148.5</ele><time>2026-03-28T14:22:07Z</time></trkpt><trkpt lat="45.538425151327345" lon="4.856188710884037"><ele>149.0</ele><time>2026-03-28T14:22:08Z</time></trkpt><trkpt lat="45.53817332488655" lon="4.85629950189639"><ele>149.0</ele><time>2026-03-28T14:22:09Z</time></trkpt><trkpt lat="45.53792138406867" lon="4.856410769102739"><ele>149.0</ele><time>2026-03-28T14:22:10Z</time></trkpt><trkpt lat="45.537671675535684" lon="4.856522405619499"><ele>153.0</ele><time>2026-03-28T14:22:11Z</time></trkpt><trkpt lat="45.53741817694576" lon="4.856636758913555"><ele>157.0</ele><time>2026-03-28T14:22:12Z</time></trkpt><trkpt lat="45.5371679825487" lon="4.8567501857656055"><ele>160.5</ele><time>2026-03-28T14:22:13Z</time></trkpt><trkpt lat="45.53691891323608" lon="4.85686442622574"><ele>164.0</ele><time>2026-03-28T14:22:14Z</time></trkpt><trkpt lat="45.53666722063215" lon="4.85697813666853"><ele>164.0</ele><time>2026-03-28T14:22:15Z</time></trkpt><trkpt lat="45.536415207248574" lon="4.857092881430585"><ele>164.0</ele><time>2026-03-28T14:22:16Z</time></trkpt><trkpt lat="45.53616727807844" lon="4.857202737496203"><ele>168.0</ele><time>2026-03-28T14:22:17Z</time></trkpt><trkpt lat="45.53591886904039" lon="4.857315442786692"><ele>172.0</ele><time>2026-03-28T14:22:18Z</time></trkpt><trkpt lat="45.535670538921465" lon="4.8574343978880785"><ele>172.0</ele><time>2026-03-28T14:22:19Z</time></trkpt><trkpt lat="45.5354271619624" lon="4.857562425158295"><ele>172.0</ele><time>2026-03-28T14:22:20Z</time></trkpt><trkpt lat="45.53518403731407" lon="4.857694695844232"><ele>172.5</ele><time>2026-03-28T14:22:21Z</time></trkpt><trkpt lat="45.53494384737459" lon="4.857838689311089"><ele>173.0</ele><time>2026-03-28T14:22:22Z</time></trkpt><trkpt lat="45.534707614737385" lon="4.85799800227359"><ele>177.5</ele><time>2026-03-28T14:22:23Z</time></trkpt><trkpt lat="45.53447479344781" lon="4.858163188493155"><ele>182.0</ele><time>2026-03-28T14:22:24Z</time></trkpt><trkpt lat="45.53424660430495" lon="4.85833822567693"><ele>177.5</ele><time>2026-03-28T14:22:25Z</time></trkpt><trkpt lat="45.53401995777524" lon="4.8585155226341"><ele>173.0</ele><time>2026-03-28T14:22:26Z</time></trkpt><trkpt lat="45.53379585487281" lon="4.858701651636187"><ele>174.5</ele><time>2026-03-28T14:22:27Z</time></trkpt><trkpt lat="45.53357278455457" lon="4.858895642518906"><ele>176.0</ele><time>2026-03-28T14:22:28Z</time></trkpt><trkpt lat="45.533350642358236" lon="4.859086804075604"><ele>176.0</ele><time>2026-03-28T14:22:29Z</time></trkpt><trkpt lat="45.53313010943784" lon="4.859280348348372"><ele>176.0</ele><time>2026-03-28T14:22:30Z</time></trkpt><trkpt lat="45.532907430776724" lon="4.859474532109761"><ele>174.5</ele><time>2026-03-28T14:22:31Z</time></trkpt><trkpt lat="45.53268603450278" lon="4.859668836082406"><ele>173.0</ele><time>2026-03-28T14:22:32Z</time></trkpt><trkpt lat="45.532463145648215" lon="4.859857246996244"><ele>173.0</ele><time>2026-03-28T14:22:33Z</time></trkpt><trkpt lat="45.53223699807323" lon="4.860037736793538"><ele>173.0</ele><time>2026-03-28T14:22:34Z</time></trkpt><trkpt lat="45.532008005608205" lon="4.860211051463516"><ele>172.0</ele><time>2026-03-28T14:22:35Z</time></trkpt><trkpt lat="45.531777609914265" lon="4.86038171836264"><ele>171.0</ele><time>2026-03-28T14:22:36Z</time></trkpt><trkpt lat="45.531544944929735" lon="4.860539879390526"><ele>171.0</ele><time>2026-03-28T14:22:37Z</time></trkpt><trkpt lat="45.53131053606698" lon="4.860696267021629"><ele>171.0</ele><time>2026-03-28T14:22:38Z</time></trkpt><trkpt lat="45.531071590215504" lon="4.8608393274493"><ele>170.5</ele><time>2026-03-28T14:22:39Z</time></trkpt><trkpt lat="45.530828792096464" lon="4.860972669016324"><ele>170.0</ele><time>2026-03-28T14:22:40Z</time></trkpt><trkpt lat="45.530582666189474" lon="4.861093038827816"><ele>172.0</ele><time>2026-03-28T14:22:41Z</time></trkpt><trkpt lat="45.530333136775816" lon="4.861200737244001"><ele>174.0</ele><time>2026-03-28T14:22:42Z</time></trkpt><trkpt lat="45.53008094570137" lon="4.861296400378357"><ele>174.0</ele><time>2026-03-28T14:22:43Z</time></trkpt><trkpt lat="45.52982829223072" lon="4.861383011477504"><ele>174.0</ele><time>2026-03-28T14:22:44Z</time></trkpt><trkpt lat="45.529572605259" lon="4.861461539395558"><ele>176.5</ele><time>2026-03-28T14:22:45Z</time></trkpt><trkpt lat="45.52931653631086" lon="4.861534489702468"><ele>179.0</ele><time>2026-03-28T14:22:46Z</time></trkpt><trkpt lat="45.52905822693635" lon="4.861589344133461"><ele>179.0</ele><time>2026-03-28T14:22:47Z</time></trkpt><trkpt lat="45.528796612550245" lon="4.861632915794582"><ele>179.0</ele><time>2026-03-28T14:22:48Z</time></trkpt><trkpt lat="45.528539783002635" lon="4.861671426327792"><ele>181.0</ele><time>2026-03-28T14:22:49Z</time></trkpt><trkpt lat="45.528272606043764" lon="4.861692392328837"><ele>183.0</ele><time>2026-03-28T14:22:50Z</time></trkpt><trkpt lat="45.52801044356946" lon="4.8617139730588095"><ele>183.5</ele><time>2026-03-28T14:22:51Z</time></trkpt><trkpt lat="45.52774908787951" lon="4.861723140794117"><ele>184.0</ele><time>2026-03-28T14:22:52Z</time></trkpt><trkpt lat="45.52748829526412" lon="4.861719588408613"><ele>184.0</ele><time>2026-03-28T14:22:53Z</time></trkpt><trkpt lat="45.5272244084196" lon="4.861705030268227"><ele>184.0</ele><time>2026-03-28T14:22:54Z</time></trkpt><trkpt lat="45.5269629347852" lon="4.8616767722973755"><ele>186.0</ele><time>2026-03-28T14:22:55Z</time></trkpt><trkpt lat="45.52669857745256" lon="4.861635409637898"><ele>188.0</ele><time>2026-03-28T14:22:56Z</time></trkpt><trkpt lat="45.526435519044256" lon="4.861580181899254"><ele>187.5</ele><time>2026-03-28T14:22:57Z</time></trkpt><trkpt lat="45.52617181430311" lon="4.861512109774908"><ele>187.0</ele><time>2026-03-28T14:22:58Z</time></trkpt><trkpt lat="45.525914216400906" lon="4.861435005832778"><ele>187.0</ele><time>2026-03-28T14:22:59Z</time></trkpt><trkpt lat="45.52565900511666" lon="4.861348960298664"><ele>187.0</ele><time>2026-03-28T14:23:00Z</time></trkpt><trkpt lat="45.525402660707826" lon="4.861248086445564"><ele>182.5</ele><time>2026-03-28T14:23:01Z</time></trkpt><trkpt lat="45.52514881452569" lon="4.861136152687578"><ele>178.0</ele><time>2026-03-28T14:23:02Z</time></trkpt><trkpt lat="45.52489342671838" lon="4.861018361812256"><ele>180.0</ele><time>2026-03-28T14:23:03Z</time></trkpt><trkpt lat="45.52463523270138" lon="4.860895266005209"><ele>182.0</ele><time>2026-03-28T14:23:04Z</time></trkpt><trkpt lat="45.52437637680158" lon="4.8607704159328105"><ele>182.0</ele><time>2026-03-28T14:23:05Z</time></trkpt><trkpt lat="45.524121001497264" lon="4.860646455608588"><ele>182.0</ele><time>2026-03-28T14:23:06Z</time></trkpt><trkpt lat="45.52386587618663" lon="4.860517125729347"><ele>176.5</ele><time>2026-03-28T14:23:07Z</time></trkpt><trkpt lat="45.52361055273029" lon="4.860393443811246"><ele>171.0</ele><time>2026-03-28T14:23:08Z</time></trkpt><trkpt lat="45.523359080926824" lon="4.860267570929762"><ele>171.0</ele><time>2026-03-28T14:23:09Z</time></trkpt><trkpt lat="45.52310796156913" lon="4.860142158590471"><ele>171.0</ele><time>2026-03-28T14:23:10Z</time></trkpt><trkpt lat="45.52285385680105" lon="4.860014156783632"><ele>173.5</ele><time>2026-03-28T14:23:11Z</time></trkpt><trkpt lat="45.52260164868465" lon="4.859890336438083"><ele>176.0</ele><time>2026-03-28T14:23:12Z</time></trkpt><trkpt lat="45.522350168005154" lon="4.859773575288367"><ele>176.0</ele><time>2026-03-28T14:23:13Z</time></trkpt><trkpt lat="45.522091641257475" lon="4.8596614485343945"><ele>176.0</ele><time>2026-03-28T14:23:14Z</time></trkpt><trkpt lat="45.52183043869823" lon="4.859558198423244"><ele>171.5</ele><time>2026-03-28T14:23:15Z</time></trkpt><trkpt lat="45.52156827310907" lon="4.8594716760899646"><ele>167.0</ele><time>2026-03-28T14:23:16Z</time></trkpt><trkpt lat="45.5213006500881" lon="4.859393080088363"><ele>164.5</ele><time>2026-03-28T14:23:17Z</time></trkpt><trkpt lat="45.52102595460177" lon="4.859336312278254"><ele>162.0</ele><time>2026-03-28T14:23:18Z</time></trkpt><trkpt lat="45.520752159684385" lon="4.859287219605937"><ele>162.5</ele><time>2026-03-28T14:23:19Z</time></trkpt><trkpt lat="45.52047770981463" lon="4.859248457254991"><ele>163.0</ele><time>2026-03-28T14:23:20Z</time></trkpt><trkpt lat="45.520208050033595" lon="4.859222494003536"><ele>161.0</ele><time>2026-03-28T14:23:21Z</time></trkpt><trkpt lat="45.51993431613585" lon="4.859207738987119"><ele>159.0</ele><time>2026-03-28T14:23:22Z</time></trkpt><trkpt lat="45.51966547882012" lon="4.859189994556622"><ele>159.0</ele><time>2026-03-28T14:23:23Z</time></trkpt><trkpt lat="45.5193951220553" lon="4.85917479967069"><ele>159.0</ele><time>2026-03-28T14:23:24Z</time></trkpt><trkpt lat="45.51912617614514" lon="4.859146333730502"><ele>159.0</ele><time>2026-03-28T14:23:25Z</time></trkpt><trkpt lat="45.51885897175944" lon="4.859106471478488"><ele>159.0</ele><time>2026-03-28T14:23:26Z</time></trkpt><trkpt lat="45.51859466501943" lon="4.859054827191906"><ele>160.0</ele><time>2026-03-28T14:23:27Z</time></trkpt><trkpt lat="45.51833188029706" lon="4.85898327173668"><ele>161.0</ele><time>2026-03-28T14:23:28Z</time></trkpt><trkpt lat="45.51807235715305" lon="4.858895483149801"><ele>159.5</ele><time>2026-03-28T14:23:29Z</time></trkpt><trkpt lat="45.51781628488173" lon="4.85879038335357"><ele>158.0</ele><time>2026-03-28T14:23:30Z</time></trkpt><trkpt lat="45.51756584451964" lon="4.858669536070857"><ele>158.0</ele><time>2026-03-28T14:23:31Z</time></trkpt><trkpt lat="45.51731853277442" lon="4.858530177016532"><ele>158.0</ele><time>2026-03-28T14:23:32Z</time></trkpt><trkpt lat="45.5170764684747" lon="4.858375115982601"><ele>161.0</ele><time>2026-03-28T14:23:33Z</time></trkpt><trkpt lat="45.51684069550596" lon="4.858204173929795"><ele>164.0</ele><time>2026-03-28T14:23:34Z</time></trkpt><trkpt lat="45.51661107954067" lon="4.858019248954581"><ele>164.0</ele><time>2026-03-28T14:23:35Z</time></trkpt><trkpt lat="45.5163867906546" lon="4.857817950037703"><ele>164.0</ele><time>2026-03-28T14:23:36Z</time></trkpt><trkpt lat="45.51617125175147" lon="4.857601191626503"><ele>164.5</ele><time>2026-03-28T14:23:37Z</time></trkpt><trkpt lat="45.51596225379166" lon="4.857371780648297"><ele>165.0</ele><time>2026-03-28T14:23:38Z</time></trkpt><trkpt lat="45.51575944548429" lon="4.857130315228092"><ele>165.0</ele><time>2026-03-28T14:23:39Z</time></trkpt><trkpt lat="45.515565154431336" lon="4.856870468216586"><ele>165.0</ele><time>2026-03-28T14:23:40Z</time></trkpt><trkpt lat="45.51537850844473" lon="4.8565982102341"><ele>162.0</ele><time>2026-03-28T14:23:41Z</time></trkpt><trkpt lat="45.515202264412686" lon="4.85631112993173"><ele>159.0</ele><time>2026-03-28T14:23:42Z</time></trkpt><trkpt lat="45.51503588118639" lon="4.856013127411594"><ele>163.5</ele><time>2026-03-28T14:23:43Z</time></trkpt><trkpt lat="45.514874334863244" lon="4.85570302716474"><ele>168.0</ele><time>2026-03-28T14:23:44Z</time></trkpt><trkpt lat="45.51472599644592" lon="4.855381298064066"><ele>171.0</ele><time>2026-03-28T14:23:45Z</time></trkpt><trkpt lat="45.51458613306996" lon="4.855047505153413"><ele>174.0</ele><time>2026-03-28T14:23:46Z</time></trkpt><trkpt lat="45.51444886856678" lon="4.8547075817651155"><ele>169.5</ele><time>2026-03-28T14:23:47Z</time></trkpt><trkpt lat="45.51431597022413" lon="4.854366600859098"><ele>165.0</ele><time>2026-03-28T14:23:48Z</time></trkpt><trkpt lat="45.514184520615245" lon="4.854027593706152"><ele>165.0</ele><time>2026-03-28T14:23:49Z</time></trkpt><trkpt lat="45.51405024521893" lon="4.853688671041496"><ele>165.0</ele><time>2026-03-28T14:23:50Z</time></trkpt><trkpt lat="45.51392455720463" lon="4.853353953676153"><ele>161.0</ele><time>2026-03-28T14:23:51Z</time></trkpt><trkpt lat="45.513801389276814" lon="4.853018838255248"><ele>157.0</ele><time>2026-03-28T14:23:52Z</time></trkpt><trkpt lat="45.51367526516974" lon="4.852677438926134"><ele>159.0</ele><time>2026-03-28T14:23:53Z</time></trkpt><trkpt lat="45.51355026879696" lon="4.852335688646465"><ele>161.0</ele><time>2026-03-28T14:23:54Z</time></trkpt><trkpt lat="45.513426454501996" lon="4.851997506522775"><ele>163.5</ele><time>2026-03-28T14:23:55Z</time></trkpt><trkpt lat="45.51330257358264" lon="4.851662476133252"><ele>166.0</ele><time>2026-03-28T14:23:56Z</time></trkpt><trkpt lat="45.51317964813255" lon="4.851329253936455"><ele>166.0</ele><time>2026-03-28T14:23:57Z</time></trkpt><trkpt lat="45.51304997849925" lon="4.850994143445912"><ele>166.0</ele><time>2026-03-28T14:23:58Z</time></trkpt><trkpt lat="45.51291545032848" lon="4.850662342265871"><ele>163.5</ele><time>2026-03-28T14:23:59Z</time></trkpt><trkpt lat="45.512773122777546" lon="4.850341094577913"><ele>161.0</ele><time>2026-03-28T14:24:00Z</time></trkpt><trkpt lat="45.512635813897646" lon="4.850023851442495"><ele>161.0</ele><time>2026-03-28T14:24:01Z</time></trkpt><trkpt lat="45.51249101975899" lon="4.849714188291841"><ele>161.0</ele><time>2026-03-28T14:24:02Z</time></trkpt><trkpt lat="45.51233445295326" lon="4.84942087697678"><ele>158.5</ele><time>2026-03-28T14:24:03Z</time></trkpt><trkpt lat="45.51216599502639" lon="4.849138500053815"><ele>156.0</ele><time>2026-03-28T14:24:04Z</time></trkpt><trkpt lat="45.511989039158415" lon="4.848862051297823"><ele>156.0</ele><time>2026-03-28T14:24:05Z</time></trkpt><trkpt lat="45.51180968222834" lon="4.848601093004292"><ele>156.0</ele><time>2026-03-28T14:24:06Z</time></trkpt><trkpt lat="45.51162212626099" lon="4.848350875994563"><ele>154.5</ele><time>2026-03-28T14:24:07Z</time></trkpt><trkpt lat="45.51142697929199" lon="4.848111461847466"><ele>153.0</ele><time>2026-03-28T14:24:08Z</time></trkpt><trkpt lat="45.511228140372104" lon="4.847884277904833"><ele>153.0</ele><time>2026-03-28T14:24:09Z</time></trkpt><trkpt lat="45.511017345201594" lon="4.84766369026866"><ele>153.0</ele><time>2026-03-28T14:24:10Z</time></trkpt><trkpt lat="45.51081520638343" lon="4.847457640807968"><ele>152.5</ele><time>2026-03-28T14:24:11Z</time></trkpt><trkpt lat="45.5105987830428" lon="4.8472490813723885"><ele>152.0</ele><time>2026-03-28T14:24:12Z</time></trkpt><trkpt lat="45.510379774926534" lon="4.847040757084758"><ele>152.0</ele><time>2026-03-28T14:24:13Z</time></trkpt><trkpt lat="45.510159784797146" lon="4.846833513242561"><ele>152.0</ele><time>2026-03-28T14:24:14Z</time></trkpt><trkpt lat="45.50994367196388" lon="4.846626326745138"><ele>152.5</ele><time>2026-03-28T14:24:15Z</time></trkpt><trkpt lat="45.50972842576502" lon="4.846418637822977"><ele>153.0</ele><time>2026-03-28T14:24:16Z</time></trkpt><trkpt lat="45.50951213945148" lon="4.846207806872321"><ele>153.0</ele><time>2026-03-28T14:24:17Z</time></trkpt><trkpt lat="45.509296564760696" lon="4.845997208132884"><ele>153.0</ele><time>2026-03-28T14:24:18Z</time></trkpt><trkpt lat="45.509080771050364" lon="4.845788053424988"><ele>153.5</ele><time>2026-03-28T14:24:19Z</time></trkpt><trkpt lat="45.50886609214979" lon="4.845579241947036"><ele>154.0</ele><time>2026-03-28T14:24:20Z</time></trkpt><trkpt lat="45.50865185193459" lon="4.845369704135131"><ele>154.0</ele><time>2026-03-28T14:24:21Z</time></trkpt><trkpt lat="45.50844442246865" lon="4.84515090175242"><ele>154.0</ele><time>2026-03-28T14:24:22Z</time></trkpt><trkpt lat="45.50824298867546" lon="4.844920075804463"><ele>154.5</ele><time>2026-03-28T14:24:23Z</time></trkpt><trkpt lat="45.5080507643461" lon="4.844678905941032"><ele>155.0</ele><time>2026-03-28T14:24:24Z</time></trkpt><trkpt lat="45.50786422659038" lon="4.844422474601714"><ele>158.5</ele><time>2026-03-28T14:24:25Z</time></trkpt><trkpt lat="45.507686107507894" lon="4.844155513825273"><ele>162.0</ele><time>2026-03-28T14:24:26Z</time></trkpt><trkpt lat="45.50751866156204" lon="4.84387946057968"><ele>162.0</ele><time>2026-03-28T14:24:27Z</time></trkpt><trkpt lat="45.5073515231879" lon="4.843586382663198"><ele>162.0</ele><time>2026-03-28T14:24:28Z</time></trkpt><trkpt lat="45.50719954929515" lon="4.843285483410402"><ele>160.0</ele><time>2026-03-28T14:24:29Z</time></trkpt><trkpt lat="45.507058577094185" lon="4.842977580223493"><ele>158.0</ele><time>2026-03-28T14:24:30Z</time></trkpt><trkpt lat="45.50691833048585" lon="4.842668187751723"><ele>158.0</ele><time>2026-03-28T14:24:31Z</time></trkpt><trkpt lat="45.50678061890531" lon="4.8423530753028805"><ele>158.0</ele><time>2026-03-28T14:24:32Z</time></trkpt><trkpt lat="45.50664631812351" lon="4.84204652532168"><ele>161.0</ele><time>2026-03-28T14:24:33Z</time></trkpt><trkpt lat="45.50650326894398" lon="4.841744431682727"><ele>164.0</ele><time>2026-03-28T14:24:34Z</time></trkpt><trkpt lat="45.506351233360974" lon="4.841448238278001"><ele>159.0</ele><time>2026-03-28T14:24:35Z</time></trkpt><trkpt lat="45.50618939124935" lon="4.841165091420959"><ele>154.0</ele><time>2026-03-28T14:24:36Z</time></trkpt><trkpt lat="45.5060157583935" lon="4.8408934888814485"><ele>154.0</ele><time>2026-03-28T14:24:37Z</time></trkpt><trkpt lat="45.5058332565137" lon="4.840634471891568"><ele>154.0</ele><time>2026-03-28T14:24:38Z</time></trkpt><trkpt lat="45.5056345568908" lon="4.8403875104329686"><ele>154.0</ele><time>2026-03-28T14:24:39Z</time></trkpt><trkpt lat="45.505428336155525" lon="4.840157988270457"><ele>154.0</ele><time>2026-03-28T14:24:40Z</time></trkpt><trkpt lat="45.505215428254516" lon="4.839946401640849"><ele>153.5</ele><time>2026-03-28T14:24:41Z</time></trkpt><trkpt lat="45.50499633909687" lon="4.839748021974814"><ele>153.0</ele><time>2026-03-28T14:24:42Z</time></trkpt><trkpt lat="45.50476731409453" lon="4.839568455089707"><ele>153.0</ele><time>2026-03-28T14:24:43Z</time></trkpt><trkpt lat="45.5045322517004" lon="4.839410939012557"><ele>153.0</ele><time>2026-03-28T14:24:44Z</time></trkpt><trkpt lat="45.504292470761825" lon="4.83927265804062"><ele>154.0</ele><time>2026-03-28T14:24:45Z</time></trkpt><trkpt lat="45.50404942071861" lon="4.839153699018601"><ele>155.0</ele><time>2026-03-28T14:24:46Z</time></trkpt><trkpt lat="45.50380193539982" lon="4.839053828197808"><ele>154.5</ele><time>2026-03-28T14:24:47Z</time></trkpt><trkpt lat="45.50355463424967" lon="4.838973564649093"><ele>154.0</ele><time>2026-03-28T14:24:48Z</time></trkpt><trkpt lat="45.50330407193609" lon="4.838913783161313"><ele>154.0</ele><time>2026-03-28T14:24:49Z</time></trkpt><trkpt lat="45.503054014673545" lon="4.838873562935332"><ele>154.0</ele><time>2026-03-28T14:24:50Z</time></trkpt><trkpt lat="45.50280624353172" lon="4.838853411291486"><ele>154.0</ele><time>2026-03-28T14:24:51Z</time></trkpt><trkpt lat="45.50255729918344" lon="4.838850735958182"><ele>154.0</ele><time>2026-03-28T14:24:52Z</time></trkpt><trkpt lat="45.502308481452395" lon="4.838860096724328"><ele>152.0</ele><time>2026-03-28T14:24:53Z</time></trkpt><trkpt lat="45.50205685588096" lon="4.838880220658662"><ele>150.0</ele><time>2026-03-28T14:24:54Z</time></trkpt><trkpt lat="45.50180680832958" lon="4.838901716242824"><ele>150.0</ele><time>2026-03-28T14:24:55Z</time></trkpt><trkpt lat="45.501557672152884" lon="4.83892405302691"><ele>150.0</ele><time>2026-03-28T14:24:56Z</time></trkpt><trkpt lat="45.50130119019425" lon="4.838940084894607"><ele>147.5</ele><time>2026-03-28T14:24:57Z</time></trkpt><trkpt lat="45.50104907315874" lon="4.838960828394695"><ele>145.0</ele><time>2026-03-28T14:24:58Z</time></trkpt><trkpt lat="45.50079072942059" lon="4.838979736369295"><ele>145.0</ele><time>2026-03-28T14:24:59Z</time></trkpt><trkpt lat="45.50053410885506" lon="4.83899747809727"><ele>145.0</ele><time>2026-03-28T14:25:00Z</time></trkpt><trkpt lat="45.5002733411829" lon="4.839013525034655"><ele>145.0</ele><time>2026-03-28T14:25:01Z</time></trkpt><trkpt lat="45.500014193899695" lon="4.839033046874877"><ele>145.0</ele><time>2026-03-28T14:25:02Z</time></trkpt><trkpt lat="45.49975416176546" lon="4.839060782888962"><ele>146.5</ele><time>2026-03-28T14:25:03Z</time></trkpt><trkpt lat="45.499495576810666" lon="4.839073353989696"><ele>148.0</ele><time>2026-03-28T14:25:04Z</time></trkpt><trkpt lat="45.4992415703721" lon="4.839091126010598"><ele>148.0</ele><time>2026-03-28T14:25:05Z</time></trkpt><trkpt lat="45.498987040514024" lon="4.839102874387551"><ele>148.0</ele><time>2026-03-28T14:25:06Z</time></trkpt><trkpt lat="45.49873477951839" lon="4.839113617895965"><ele>151.0</ele><time>2026-03-28T14:25:07Z</time></trkpt><trkpt lat="45.49849227142434" lon="4.839106808883156"><ele>154.0</ele><time>2026-03-28T14:25:08Z</time></trkpt><trkpt lat="45.498243373645565" lon="4.839077922222734"><ele>154.0</ele><time>2026-03-28T14:25:09Z</time></trkpt><trkpt lat="45.49799294167015" lon="4.8390336426998"><ele>154.0</ele><time>2026-03-28T14:25:10Z</time></trkpt><trkpt lat="45.49775463568632" lon="4.838973229061675"><ele>157.0</ele><time>2026-03-28T14:25:11Z</time></trkpt><trkpt lat="45.49751930273366" lon="4.838893985838118"><ele>160.0</ele><time>2026-03-28T14:25:12Z</time></trkpt><trkpt lat="45.497293637410905" lon="4.838800399610634"><ele>161.5</ele><time>2026-03-28T14:25:13Z</time></trkpt><trkpt lat="45.497073351165234" lon="4.838693036774672"><ele>163.0</ele><time>2026-03-28T14:25:14Z</time></trkpt><trkpt lat="45.49686290544454" lon="4.838566938457589"><ele>163.0</ele><time>2026-03-28T14:25:15Z</time></trkpt><trkpt lat="45.49665993925659" lon="4.838421588542534"><ele>163.0</ele><time>2026-03-28T14:25:16Z</time></trkpt><trkpt lat="45.4964644614163" lon="4.838265353915177"><ele>163.0</ele><time>2026-03-28T14:25:17Z</time></trkpt><trkpt lat="45.49627327421795" lon="4.838096494303096"><ele>163.0</ele><time>2026-03-28T14:25:18Z</time></trkpt><trkpt lat="45.49608978502828" lon="4.837909443246774"><ele>164.5</ele><time>2026-03-28T14:25:19Z</time></trkpt><trkpt lat="45.49591384543266" lon="4.837711545510623"><ele>166.0</ele><time>2026-03-28T14:25:20Z</time></trkpt><trkpt lat="45.49574214520615" lon="4.837502218993407"><ele>166.0</ele><time>2026-03-28T14:25:21Z</time></trkpt><trkpt lat="45.495572817639136" lon="4.837289924371868"><ele>166.0</ele><time>2026-03-28T14:25:22Z</time></trkpt><trkpt lat="45.49540585600435" lon="4.837072922737627"><ele>167.33333333333334</ele><time>2026-03-28T14:25:23Z</time></trkpt><trkpt lat="45.49523987342167" lon="4.83685376523906"><ele>168.66666666666666</ele><time>2026-03-28T14:25:24Z</time></trkpt><trkpt lat="45.495077767545745" lon="4.836642034703609"><ele>170.0</ele><time>2026-03-28T14:25:25Z</time></trkpt><trkpt lat="45.494913364957355" lon="4.836431118066925"><ele>170.0</ele><time>2026-03-28T14:25:26Z</time></trkpt><trkpt lat="45.49474631290323" lon="4.836223623309813"><ele>170.0</ele><time>2026-03-28T14:25:27Z</time></trkpt><trkpt lat="45.49458152301705" lon="4.83601254215493"><ele>170.0</ele><time>2026-03-28T14:25:28Z</time></trkpt><trkpt lat="45.49442260166871" lon="4.835805516953248"><ele>171.33333333333331</ele><time>2026-03-28T14:25:29Z</time></trkpt><trkpt lat="45.49426062238497" lon="4.8356025879418185"><ele>172.66666666666666</ele><time>2026-03-28T14:25:30Z</time></trkpt><trkpt lat="45.49410436961417" lon="4.835401932017233"><ele>174.0</ele><time>2026-03-28T14:25:31Z</time></trkpt><trkpt lat="45.493947789165745" lon="4.835200702381396"><ele>171.66666666666666</ele><time>2026-03-28T14:25:32Z</time></trkpt><trkpt lat="45.49378621508735" lon="4.834995738904564"><ele>169.33333333333331</ele><time>2026-03-28T14:25:33Z</time></trkpt><trkpt lat="45.49362257568802" lon="4.834791065248268"><ele>167.0</ele><time>2026-03-28T14:25:34Z</time></trkpt><trkpt lat="45.49346004703239" lon="4.834585646714364"><ele>170.0</ele><time>2026-03-28T14:25:35Z</time></trkpt><trkpt lat="45.49329120866663" lon="4.834379087213848"><ele>173.0</ele><time>2026-03-28T14:25:36Z</time></trkpt><trkpt lat="45.493114729809605" lon="4.834179332283152"><ele>176.0</ele><time>2026-03-28T14:25:37Z</time></trkpt><trkpt lat="45.49293908566633" lon="4.833983514073119"><ele>184.0</ele><time>2026-03-28T14:25:38Z</time></trkpt><trkpt lat="45.49275384246642" lon="4.833791852711145"><ele>192.0</ele><time>2026-03-28T14:25:39Z</time></trkpt><trkpt lat="45.492565886359124" lon="4.833606296426454"><ele>187.5</ele><time>2026-03-28T14:25:40Z</time></trkpt><trkpt lat="45.49237445471266" lon="4.833427749638826"><ele>183.0</ele><time>2026-03-28T14:25:41Z</time></trkpt><trkpt lat="45.49217334685494" lon="4.833253727784249"><ele>190.0</ele><time>2026-03-28T14:25:42Z</time></trkpt><trkpt lat="45.49196734383492" lon="4.833097058125592"><ele>197.0</ele><time>2026-03-28T14:25:43Z</time></trkpt><trkpt lat="45.49175187598315" lon="4.83294866583357"><ele>197.0</ele><time>2026-03-28T14:25:44Z</time></trkpt><trkpt lat="45.49152585083788" lon="4.832814479345773"><ele>197.0</ele><time>2026-03-28T14:25:45Z</time></trkpt><trkpt lat="45.491291789199906" lon="4.83270127713797"><ele>196.0</ele><time>2026-03-28T14:25:46Z</time></trkpt><trkpt lat="45.49105552878699" lon="4.832605416972605"><ele>195.0</ele><time>2026-03-28T14:25:47Z</time></trkpt><trkpt lat="45.49081652776608" lon="4.832525380329668"><ele>195.0</ele><time>2026-03-28T14:25:48Z</time></trkpt><trkpt lat="45.4905738954123" lon="4.832466258421902"><ele>195.0</ele><time>2026-03-28T14:25:49Z</time></trkpt><trkpt lat="45.490331868378995" lon="4.832423905469154"><ele>200.5</ele><time>2026-03-28T14:25:50Z</time></trkpt><trkpt lat="45.49008786588956" lon="4.832408419679346"><ele>206.0</ele><time>2026-03-28T14:25:51Z</time></trkpt><trkpt lat="45.48984770125849" lon="4.832403736210499"><ele>206.0</ele><time>2026-03-28T14:25:52Z</time></trkpt><trkpt lat="45.48960025199452" lon="4.832421785747667"><ele>206.0</ele><time>2026-03-28T14:25:53Z</time></trkpt><trkpt lat="45.48934692411046" lon="4.832452868915696"><ele>207.0</ele><time>2026-03-28T14:25:54Z</time></trkpt><trkpt lat="45.48909900329626" lon="4.832510759947127"><ele>208.0</ele><time>2026-03-28T14:25:55Z</time></trkpt><trkpt lat="45.48886041571863" lon="4.832580336655916"><ele>208.5</ele><time>2026-03-28T14:25:56Z</time></trkpt><trkpt lat="45.48862251483615" lon="4.8326667718216045"><ele>209.0</ele><time>2026-03-28T14:25:57Z</time></trkpt><trkpt lat="45.48838507549622" lon="4.832779523320518"><ele>209.0</ele><time>2026-03-28T14:25:58Z</time></trkpt><trkpt lat="45.488151995702395" lon="4.832907909940723"><ele>209.0</ele><time>2026-03-28T14:25:59Z</time></trkpt><trkpt lat="45.4879180303893" lon="4.83304904841691"><ele>204.5</ele><time>2026-03-28T14:26:00Z</time></trkpt><trkpt lat="45.48768625811694" lon="4.83318998154514"><ele>200.0</ele><time>2026-03-28T14:26:01Z</time></trkpt><trkpt lat="45.48745417130398" lon="4.833335551545318"><ele>202.5</ele><time>2026-03-28T14:26:02Z</time></trkpt><trkpt lat="45.48722365357038" lon="4.833484191299122"><ele>205.0</ele><time>2026-03-28T14:26:03Z</time></trkpt><trkpt lat="45.4869875876363" lon="4.833626347106852"><ele>205.0</ele><time>2026-03-28T14:26:04Z</time></trkpt><trkpt lat="45.48675109961431" lon="4.833766890961077"><ele>205.0</ele><time>2026-03-28T14:26:05Z</time></trkpt><trkpt lat="45.48651387789087" lon="4.833906114849911"><ele>205.0</ele><time>2026-03-28T14:26:06Z</time></trkpt><trkpt lat="45.48628021007207" lon="4.834046410457851"><ele>205.0</ele><time>2026-03-28T14:26:07Z</time></trkpt><trkpt lat="45.486044644566036" lon="4.834183342636478"><ele>203.5</ele><time>2026-03-28T14:26:08Z</time></trkpt><trkpt lat="45.48580415006075" lon="4.834304479310958"><ele>202.0</ele><time>2026-03-28T14:26:09Z</time></trkpt><trkpt lat="45.48555891179901" lon="4.834407792577639"><ele>206.0</ele><time>2026-03-28T14:26:10Z</time></trkpt><trkpt lat="45.485308285709934" lon="4.834496927467256"><ele>210.0</ele><time>2026-03-28T14:26:11Z</time></trkpt><trkpt lat="45.48505137235897" lon="4.83455049492841"><ele>210.0</ele><time>2026-03-28T14:26:12Z</time></trkpt><trkpt lat="45.48479787178571" lon="4.8345948331896444"><ele>210.0</ele><time>2026-03-28T14:26:13Z</time></trkpt><trkpt lat="45.48453464839492" lon="4.834614133224995"><ele>209.0</ele><time>2026-03-28T14:26:14Z</time></trkpt><trkpt lat="45.48427788710768" lon="4.834605305854655"><ele>208.0</ele><time>2026-03-28T14:26:15Z</time></trkpt><trkpt lat="45.48402242751635" lon="4.834584068468326"><ele>208.0</ele><time>2026-03-28T14:26:16Z</time></trkpt><trkpt lat="45.483770532361085" lon="4.834533904987073"><ele>208.0</ele><time>2026-03-28T14:26:17Z</time></trkpt><trkpt lat="45.48352483339317" lon="4.834470421838037"><ele>209.5</ele><time>2026-03-28T14:26:18Z</time></trkpt><trkpt lat="45.48328578129255" lon="4.834387507560505"><ele>211.0</ele><time>2026-03-28T14:26:19Z</time></trkpt><trkpt lat="45.483053197073595" lon="4.834295825174607"><ele>213.5</ele><time>2026-03-28T14:26:20Z</time></trkpt><trkpt lat="45.48282852850028" lon="4.834197790274499"><ele>216.0</ele><time>2026-03-28T14:26:21Z</time></trkpt><trkpt lat="45.482603853136574" lon="4.834107371045843"><ele>216.0</ele><time>2026-03-28T14:26:22Z</time></trkpt><trkpt lat="45.482379844328925" lon="4.834023357698946"><ele>216.0</ele><time>2026-03-28T14:26:23Z</time></trkpt><trkpt lat="45.48215943597649" lon="4.833946031974231"><ele>215.5</ele><time>2026-03-28T14:26:24Z</time></trkpt><trkpt lat="45.48193695173411" lon="4.833873187017478"><ele>215.0</ele><time>2026-03-28T14:26:25Z</time></trkpt><trkpt lat="45.48171718468882" lon="4.833799398790465"><ele>215.0</ele><time>2026-03-28T14:26:26Z</time></trkpt><trkpt lat="45.48149692068169" lon="4.8337216480738645"><ele>215.0</ele><time>2026-03-28T14:26:27Z</time></trkpt><trkpt lat="45.481277982254944" lon="4.833646828847024"><ele>213.0</ele><time>2026-03-28T14:26:28Z</time></trkpt><trkpt lat="45.48105988122004" lon="4.833570663144672"><ele>211.0</ele><time>2026-03-28T14:26:29Z</time></trkpt><trkpt lat="45.48084718528128" lon="4.833495917570401"><ele>209.0</ele><time>2026-03-28T14:26:30Z</time></trkpt><trkpt lat="45.48063679245037" lon="4.833425295331987"><ele>208.66666666666669</ele><time>2026-03-28T14:26:31Z</time></trkpt><trkpt lat="45.48042898268653" lon="4.833357198982782"><ele>208.33333333333331</ele><time>2026-03-28T14:26:32Z</time></trkpt><trkpt lat="45.48022543986353" lon="4.833295447778705"><ele>208.0</ele><time>2026-03-28T14:26:33Z</time></trkpt><trkpt lat="45.48002585803674" lon="4.8332384966544755"><ele>208.0</ele><time>2026-03-28T14:26:34Z</time></trkpt><trkpt lat="45.47983005443912" lon="4.833187020981996"><ele>208.0</ele><time>2026-03-28T14:26:35Z</time></trkpt><trkpt lat="45.479639643638386" lon="4.833143993362773"><ele>208.0</ele><time>2026-03-28T14:26:36Z</time></trkpt><trkpt lat="45.47945205876014" lon="4.833111287306004"><ele>210.0</ele><time>2026-03-28T14:26:37Z</time></trkpt><trkpt lat="45.47927131114659" lon="4.833068018170772"><ele>212.0</ele><time>2026-03-28T14:26:38Z</time></trkpt><trkpt lat="45.47909218262872" lon="4.8330288063001925"><ele>214.0</ele><time>2026-03-28T14:26:39Z</time></trkpt><trkpt lat="45.47891797276331" lon="4.832990671153113"><ele>214.66666666666666</ele><time>2026-03-28T14:26:40Z</time></trkpt><trkpt lat="45.47874948471056" lon="4.832953619138023"><ele>215.33333333333331</ele><time>2026-03-28T14:26:41Z</time></trkpt><trkpt lat="45.47858664273482" lon="4.832916879174484"><ele>216.0</ele><time>2026-03-28T14:26:42Z</time></trkpt><trkpt lat="45.47842209872859" lon="4.832879755196247"><ele>216.0</ele><time>2026-03-28T14:26:43Z</time></trkpt><trkpt lat="45.478263648674194" lon="4.832844006122013"><ele>216.0</ele><time>2026-03-28T14:26:44Z</time></trkpt><trkpt lat="45.47811202865188" lon="4.832809980737455"><ele>216.0</ele><time>2026-03-28T14:26:45Z</time></trkpt><trkpt lat="45.4779648988493" lon="4.832778592329554"><ele>215.25</ele><time>2026-03-28T14:26:46Z</time></trkpt><trkpt lat="45.47783056390951" lon="4.832749940990858"><ele>214.5</ele><time>2026-03-28T14:26:47Z</time></trkpt><trkpt lat="45.47769926316587" lon="4.83272336406275"><ele>213.75</ele><time>2026-03-28T14:26:48Z</time></trkpt><trkpt lat="45.47757225624216" lon="4.832699995266237"><ele>213.0</ele><time>2026-03-28T14:26:49Z</time></trkpt><trkpt lat="45.47745920927086" lon="4.832681631374997"><ele>213.0</ele><time>2026-03-28T14:26:50Z</time></trkpt><trkpt lat="45.47735381495041" lon="4.832665107384667"><ele>213.0</ele><time>2026-03-28T14:26:51Z</time></trkpt><trkpt lat="45.477256898421714" lon="4.832649992630195"><ele>213.0</ele><time>2026-03-28T14:26:52Z</time></trkpt><trkpt lat="45.47716983235159" lon="4.832636644954751"><ele>213.0</ele><time>2026-03-28T14:26:53Z</time></trkpt><trkpt lat="45.47710340631293" lon="4.832627744015546"><ele>213.0</ele><time>2026-03-28T14:26:54Z</time></trkpt><trkpt lat="45.47699820120645" lon="4.832613646759172"><ele>213.33333333333334</ele><time>2026-03-28T14:26:56Z</time></trkpt><trkpt lat="45.476888140152816" lon="4.832599644411897"><ele>213.66666666666669</ele><time>2026-03-28T14:26:58Z</time></trkpt><trkpt lat="45.47682484987516" lon="4.832593253868037"><ele>214.0</ele><time>2026-03-28T14:26:59Z</time></trkpt><trkpt lat="45.47675730351275" lon="4.832586433579513"><ele>214.33333333333334</ele><time>2026-03-28T14:27:00Z</time></trkpt><trkpt lat="45.47667469759087" lon="4.832579472230911"><ele>214.66666666666669</ele><time>2026-03-28T14:27:01Z</time></trkpt><trkpt lat="45.476579223948946" lon="4.832573706598317"><ele>215.0</ele><time>2026-03-28T14:27:02Z</time></trkpt><trkpt lat="45.47646690960524" lon="4.832576863147467"><ele>215.0</ele><time>2026-03-28T14:27:03Z</time></trkpt><trkpt lat="45.47635289517692" lon="4.832589776548159"><ele>215.0</ele><time>2026-03-28T14:27:04Z</time></trkpt><trkpt lat="45.476226422357065" lon="4.832613880649577"><ele>215.0</ele><time>2026-03-28T14:27:05Z</time></trkpt><trkpt lat="45.47609778707082" lon="4.832645202433381"><ele>215.0</ele><time>2026-03-28T14:27:06Z</time></trkpt><trkpt lat="45.475956806758674" lon="4.832680911217665"><ele>216.33333333333334</ele><time>2026-03-28T14:27:07Z</time></trkpt><trkpt lat="45.47581325926084" lon="4.832717270505434"><ele>217.66666666666669</ele><time>2026-03-28T14:27:08Z</time></trkpt><trkpt lat="45.47566619657193" lon="4.8327545201618225"><ele>219.0</ele><time>2026-03-28T14:27:09Z</time></trkpt><trkpt lat="45.47551629038434" lon="4.832834911403678"><ele>218.66666666666669</ele><time>2026-03-28T14:27:10Z</time></trkpt><trkpt lat="45.47535389140933" lon="4.832836654042399"><ele>218.33333333333334</ele><time>2026-03-28T14:27:11Z</time></trkpt><trkpt lat="45.475185054624305" lon="4.832843384880105"><ele>218.0</ele><time>2026-03-28T14:27:12Z</time></trkpt><trkpt lat="45.475005389641176" lon="4.832848713354031"><ele>218.0</ele><time>2026-03-28T14:27:13Z</time></trkpt><trkpt lat="45.47481584758022" lon="4.8328541621861"><ele>218.0</ele><time>2026-03-28T14:27:14Z</time></trkpt><trkpt lat="45.47461948060055" lon="4.8328601655061"><ele>218.0</ele><time>2026-03-28T14:27:15Z</time></trkpt><trkpt lat="45.474415365612586" lon="4.832867501208535"><ele>217.0</ele><time>2026-03-28T14:27:16Z</time></trkpt><trkpt lat="45.47420993243753" lon="4.832877939529213"><ele>216.0</ele><time>2026-03-28T14:27:17Z</time></trkpt><trkpt lat="45.47400388698843" lon="4.832884756839472"><ele>215.0</ele><time>2026-03-28T14:27:18Z</time></trkpt><trkpt lat="45.473795697355605" lon="4.832887002022434"><ele>216.0</ele><time>2026-03-28T14:27:19Z</time></trkpt><trkpt lat="45.47358044084432" lon="4.832891581116421"><ele>217.0</ele><time>2026-03-28T14:27:20Z</time></trkpt><trkpt lat="45.47335995342019" lon="4.83289633307385"><ele>218.0</ele><time>2026-03-28T14:27:21Z</time></trkpt><trkpt lat="45.473134550833755" lon="4.832899000523878"><ele>219.5</ele><time>2026-03-28T14:27:22Z</time></trkpt><trkpt lat="45.472906822281374" lon="4.832901576528139"><ele>221.0</ele><time>2026-03-28T14:27:23Z</time></trkpt><trkpt lat="45.47267454066701" lon="4.832916217987374"><ele>221.0</ele><time>2026-03-28T14:27:24Z</time></trkpt><trkpt lat="45.47243283924843" lon="4.832934923293899"><ele>221.0</ele><time>2026-03-28T14:27:25Z</time></trkpt><trkpt lat="45.47219126043102" lon="4.832957232959798"><ele>220.5</ele><time>2026-03-28T14:27:26Z</time></trkpt><trkpt lat="45.47194536015247" lon="4.83297765523142"><ele>220.0</ele><time>2026-03-28T14:27:27Z</time></trkpt><trkpt lat="45.471693583672916" lon="4.832996600971732"><ele>220.0</ele><time>2026-03-28T14:27:28Z</time></trkpt><trkpt lat="45.47143736877236" lon="4.833009078136977"><ele>220.0</ele><time>2026-03-28T14:27:29Z</time></trkpt><trkpt lat="45.47117717047016" lon="4.8330221744353095"><ele>219.5</ele><time>2026-03-28T14:27:30Z</time></trkpt><trkpt lat="45.47091522205831" lon="4.833035008835655"><ele>219.0</ele><time>2026-03-28T14:27:31Z</time></trkpt><trkpt lat="45.47064958044355" lon="4.833042230953246"><ele>219.0</ele><time>2026-03-28T14:27:32Z</time></trkpt><trkpt lat="45.47038704732185" lon="4.83305408871176"><ele>219.0</ele><time>2026-03-28T14:27:33Z</time></trkpt><trkpt lat="45.470121314866645" lon="4.833068289806134"><ele>219.0</ele><time>2026-03-28T14:27:34Z</time></trkpt><trkpt lat="45.46986165442124" lon="4.833079471779134"><ele>219.0</ele><time>2026-03-28T14:27:35Z</time></trkpt><trkpt lat="45.4695995456218" lon="4.833089297998532"><ele>219.5</ele><time>2026-03-28T14:27:36Z</time></trkpt><trkpt lat="45.46933577408017" lon="4.8330972486003265"><ele>220.0</ele><time>2026-03-28T14:27:37Z</time></trkpt><trkpt lat="45.4690667240791" lon="4.83310174440773"><ele>220.0</ele><time>2026-03-28T14:27:38Z</time></trkpt><trkpt lat="45.46880009906435" lon="4.833106026589162"><ele>220.0</ele><time>2026-03-28T14:27:39Z</time></trkpt><trkpt lat="45.46853377913442" lon="4.833107239799953"><ele>219.5</ele><time>2026-03-28T14:27:40Z</time></trkpt><trkpt lat="45.46826570219545" lon="4.833106035547255"><ele>219.0</ele><time>2026-03-28T14:27:41Z</time></trkpt><trkpt lat="45.46799125147672" lon="4.833100927945713"><ele>219.5</ele><time>2026-03-28T14:27:42Z</time></trkpt><trkpt lat="45.46771715625885" lon="4.833094251319319"><ele>220.0</ele><time>2026-03-28T14:27:43Z</time></trkpt><trkpt lat="45.46744541740432" lon="4.833087288166521"><ele>220.0</ele><time>2026-03-28T14:27:44Z</time></trkpt><trkpt lat="45.46717391438323" lon="4.833075037110663"><ele>220.0</ele><time>2026-03-28T14:27:45Z</time></trkpt><trkpt lat="45.466899149388034" lon="4.833058208499251"><ele>220.5</ele><time>2026-03-28T14:27:46Z</time></trkpt><trkpt lat="45.466626203607724" lon="4.833041036556784"><ele>221.0</ele><time>2026-03-28T14:27:47Z</time></trkpt><trkpt lat="45.466354591593834" lon="4.833019845508159"><ele>221.0</ele><time>2026-03-28T14:27:48Z</time></trkpt><trkpt lat="45.466081844007256" lon="4.8329971334306165"><ele>221.0</ele><time>2026-03-28T14:27:49Z</time></trkpt><trkpt lat="45.46580745309774" lon="4.832974280729354"><ele>221.0</ele><time>2026-03-28T14:27:50Z</time></trkpt><trkpt lat="45.46553391762147" lon="4.832950172930277"><ele>221.0</ele><time>2026-03-28T14:27:51Z</time></trkpt><trkpt lat="45.46526459692414" lon="4.832921983014802"><ele>220.5</ele><time>2026-03-28T14:27:52Z</time></trkpt><trkpt lat="45.464994629816914" lon="4.832893718758807"><ele>220.0</ele><time>2026-03-28T14:27:53Z</time></trkpt><trkpt lat="45.46471918205989" lon="4.832860332233386"><ele>221.0</ele><time>2026-03-28T14:27:54Z</time></trkpt><trkpt lat="45.4644456366198" lon="4.832824226989759"><ele>222.0</ele><time>2026-03-28T14:27:55Z</time></trkpt><trkpt lat="45.46417593132835" lon="4.832787821856489"><ele>222.0</ele><time>2026-03-28T14:27:56Z</time></trkpt><trkpt lat="45.463902828614046" lon="4.832740248087921"><ele>222.0</ele><time>2026-03-28T14:27:57Z</time></trkpt><trkpt lat="45.463629750189824" lon="4.832688367550181"><ele>221.0</ele><time>2026-03-28T14:27:58Z</time></trkpt><trkpt lat="45.46335927145789" lon="4.832630851560547"><ele>220.0</ele><time>2026-03-28T14:27:59Z</time></trkpt><trkpt lat="45.46308940408697" lon="4.832575583053249"><ele>220.0</ele><time>2026-03-28T14:28:00Z</time></trkpt><trkpt lat="45.46281416348308" lon="4.83252365814204"><ele>220.0</ele><time>2026-03-28T14:28:01Z</time></trkpt><trkpt lat="45.46254002497614" lon="4.832469239822653"><ele>220.0</ele><time>2026-03-28T14:28:02Z</time></trkpt><trkpt lat="45.46226655859678" lon="4.832412367432633"><ele>220.0</ele><time>2026-03-28T14:28:03Z</time></trkpt><trkpt lat="45.46199540737451" lon="4.832355834039417"><ele>220.5</ele><time>2026-03-28T14:28:04Z</time></trkpt><trkpt lat="45.46172196425156" lon="4.832295131194301"><ele>221.0</ele><time>2026-03-28T14:28:05Z</time></trkpt><trkpt lat="45.46144959880189" lon="4.832234758965207"><ele>221.0</ele><time>2026-03-28T14:28:06Z</time></trkpt><trkpt lat="45.46118063275421" lon="4.832176438835042"><ele>221.0</ele><time>2026-03-28T14:28:07Z</time></trkpt><trkpt lat="45.46090933880872" lon="4.832113037622988"><ele>221.0</ele><time>2026-03-28T14:28:08Z</time></trkpt><trkpt lat="45.46063589840371" lon="4.832042664893874"><ele>221.0</ele><time>2026-03-28T14:28:09Z</time></trkpt><trkpt lat="45.46036566954709" lon="4.831973050440924"><ele>220.5</ele><time>2026-03-28T14:28:10Z</time></trkpt><trkpt lat="45.46009418979617" lon="4.831896788512704"><ele>220.0</ele><time>2026-03-28T14:28:11Z</time></trkpt><trkpt lat="45.4598244357949" lon="4.831822263182861"><ele>219.5</ele><time>2026-03-28T14:28:12Z</time></trkpt><trkpt lat="45.45955293679168" lon="4.831741823327932"><ele>219.0</ele><time>2026-03-28T14:28:13Z</time></trkpt><trkpt lat="45.45928608099556" lon="4.831662977390625"><ele>219.0</ele><time>2026-03-28T14:28:14Z</time></trkpt><trkpt lat="45.459015805889685" lon="4.831577663469052"><ele>219.0</ele><time>2026-03-28T14:28:15Z</time></trkpt><trkpt lat="45.458749004810095" lon="4.831499687599935"><ele>218.5</ele><time>2026-03-28T14:28:16Z</time></trkpt><trkpt lat="45.45848155887679" lon="4.831414708632956"><ele>218.0</ele><time>2026-03-28T14:28:17Z</time></trkpt><trkpt lat="45.45821170373804" lon="4.831334535408551"><ele>218.5</ele><time>2026-03-28T14:28:18Z</time></trkpt><trkpt lat="45.45794031389547" lon="4.831251284861784"><ele>219.0</ele><time>2026-03-28T14:28:19Z</time></trkpt><trkpt lat="45.45767295667673" lon="4.831171004705941"><ele>219.0</ele><time>2026-03-28T14:28:20Z</time></trkpt><trkpt lat="45.457402910700154" lon="4.831089914544466"><ele>219.0</ele><time>2026-03-28T14:28:21Z</time></trkpt><trkpt lat="45.45713352375519" lon="4.831010868862725"><ele>218.0</ele><time>2026-03-28T14:28:22Z</time></trkpt><trkpt lat="45.4568647939125" lon="4.8309231154283445"><ele>217.0</ele><time>2026-03-28T14:28:23Z</time></trkpt><trkpt lat="45.456597082610976" lon="4.830845579059071"><ele>217.0</ele><time>2026-03-28T14:28:24Z</time></trkpt><trkpt lat="45.45633165602139" lon="4.830758195453367"><ele>217.0</ele><time>2026-03-28T14:28:25Z</time></trkpt><trkpt lat="45.45605927444848" lon="4.830673012209794"><ele>216.5</ele><time>2026-03-28T14:28:26Z</time></trkpt><trkpt lat="45.45578966914909" lon="4.8305898175141095"><ele>216.0</ele><time>2026-03-28T14:28:27Z</time></trkpt><trkpt lat="45.45551965586936" lon="4.830507851858072"><ele>216.5</ele><time>2026-03-28T14:28:28Z</time></trkpt><trkpt lat="45.4552489256862" lon="4.8304196154524375"><ele>217.0</ele><time>2026-03-28T14:28:29Z</time></trkpt><trkpt lat="45.454977580703925" lon="4.830335983867966"><ele>217.0</ele><time>2026-03-28T14:28:30Z</time></trkpt><trkpt lat="45.45470229634952" lon="4.83025100497727"><ele>217.0</ele><time>2026-03-28T14:28:31Z</time></trkpt><trkpt lat="45.45442131489326" lon="4.830166999710807"><ele>217.0</ele><time>2026-03-28T14:28:32Z</time></trkpt><trkpt lat="45.45414246283591" lon="4.8300862011606185"><ele>217.0</ele><time>2026-03-28T14:28:33Z</time></trkpt><trkpt lat="45.4538590007505" lon="4.830001119804908"><ele>216.5</ele><time>2026-03-28T14:28:34Z</time></trkpt><trkpt lat="45.45358136367517" lon="4.829920237848265"><ele>216.0</ele><time>2026-03-28T14:28:35Z</time></trkpt><trkpt lat="45.45329679970635" lon="4.829837082567355"><ele>216.0</ele><time>2026-03-28T14:28:36Z</time></trkpt><trkpt lat="45.45301289741254" lon="4.829752678634917"><ele>216.0</ele><time>2026-03-28T14:28:37Z</time></trkpt><trkpt lat="45.45273629270954" lon="4.8296702708613655"><ele>216.5</ele><time>2026-03-28T14:28:38Z</time></trkpt><trkpt lat="45.45245722349228" lon="4.82958406291335"><ele>217.0</ele><time>2026-03-28T14:28:39Z</time></trkpt><trkpt lat="45.452174843455026" lon="4.8294947619128195"><ele>217.5</ele><time>2026-03-28T14:28:40Z</time></trkpt><trkpt lat="45.45189696144787" lon="4.829409294797855"><ele>218.0</ele><time>2026-03-28T14:28:41Z</time></trkpt><trkpt lat="45.451617513177105" lon="4.829320488067382"><ele>218.0</ele><time>2026-03-28T14:28:42Z</time></trkpt><trkpt lat="45.45133922205438" lon="4.829234361992776"><ele>218.0</ele><time>2026-03-28T14:28:43Z</time></trkpt><trkpt lat="45.4510616815469" lon="4.829147626097756"><ele>218.0</ele><time>2026-03-28T14:28:44Z</time></trkpt><trkpt lat="45.45078424610893" lon="4.829060817048984"><ele>218.0</ele><time>2026-03-28T14:28:45Z</time></trkpt><trkpt lat="45.45051327382963" lon="4.828976124638997"><ele>217.5</ele><time>2026-03-28T14:28:46Z</time></trkpt><trkpt lat="45.450242337037224" lon="4.828892077602868"><ele>217.0</ele><time>2026-03-28T14:28:47Z</time></trkpt><trkpt lat="45.449974484693875" lon="4.828809188327731"><ele>217.0</ele><time>2026-03-28T14:28:48Z</time></trkpt><trkpt lat="45.449706629132905" lon="4.8287254224863645"><ele>217.0</ele><time>2026-03-28T14:28:49Z</time></trkpt><trkpt lat="45.449440994164505" lon="4.8286428363094975"><ele>218.0</ele><time>2026-03-28T14:28:50Z</time></trkpt><trkpt lat="45.44917143038848" lon="4.828554580386884"><ele>219.0</ele><time>2026-03-28T14:28:51Z</time></trkpt><trkpt lat="45.448905664795355" lon="4.8284728662129615"><ele>220.0</ele><time>2026-03-28T14:28:52Z</time></trkpt><trkpt lat="45.448635106233674" lon="4.828390541933857"><ele>221.0</ele><time>2026-03-28T14:28:53Z</time></trkpt><trkpt lat="45.44836750103319" lon="4.828309442652468"><ele>221.0</ele><time>2026-03-28T14:28:54Z</time></trkpt><trkpt lat="45.448103106640836" lon="4.8282291967308195"><ele>221.0</ele><time>2026-03-28T14:28:55Z</time></trkpt><trkpt lat="45.44783472569062" lon="4.828147629686581"><ele>222.5</ele><time>2026-03-28T14:28:56Z</time></trkpt><trkpt lat="45.44757274961892" lon="4.828069773700975"><ele>224.0</ele><time>2026-03-28T14:28:57Z</time></trkpt><trkpt lat="45.44730701273239" lon="4.827986152889724"><ele>224.0</ele><time>2026-03-28T14:28:58Z</time></trkpt><trkpt lat="45.447043345609885" lon="4.827905971231042"><ele>224.0</ele><time>2026-03-28T14:28:59Z</time></trkpt><trkpt lat="45.44677923790357" lon="4.8278241975759375"><ele>224.0</ele><time>2026-03-28T14:29:00Z</time></trkpt><trkpt lat="45.44651715787608" lon="4.827742499669907"><ele>224.0</ele><time>2026-03-28T14:29:01Z</time></trkpt><trkpt lat="45.44625585648768" lon="4.8276594474035495"><ele>224.0</ele><time>2026-03-28T14:29:02Z</time></trkpt><trkpt lat="45.44599713167647" lon="4.827577651105579"><ele>224.0</ele><time>2026-03-28T14:29:03Z</time></trkpt><trkpt lat="45.44573609969413" lon="4.827497371469678"><ele>224.0</ele><time>2026-03-28T14:29:04Z</time></trkpt><trkpt lat="45.445474085524864" lon="4.82741442889141"><ele>224.0</ele><time>2026-03-28T14:29:05Z</time></trkpt><trkpt lat="45.4452157728271" lon="4.8273336354716845"><ele>223.5</ele><time>2026-03-28T14:29:06Z</time></trkpt><trkpt lat="45.44495220754353" lon="4.8272510551926695"><ele>223.0</ele><time>2026-03-28T14:29:07Z</time></trkpt><trkpt lat="45.444695189258475" lon="4.8271729617391665"><ele>224.0</ele><time>2026-03-28T14:29:08Z</time></trkpt><trkpt lat="45.44442893453976" lon="4.8270897518902665"><ele>225.0</ele><time>2026-03-28T14:29:09Z</time></trkpt><trkpt lat="45.444167862758945" lon="4.8270084468846655"><ele>225.0</ele><time>2026-03-28T14:29:10Z</time></trkpt><trkpt lat="45.443904667623585" lon="4.826917967859737"><ele>225.0</ele><time>2026-03-28T14:29:11Z</time></trkpt><trkpt lat="45.443643759744695" lon="4.826823314918674"><ele>224.5</ele><time>2026-03-28T14:29:12Z</time></trkpt><trkpt lat="45.4433813155681" lon="4.8267276402261095"><ele>224.0</ele><time>2026-03-28T14:29:13Z</time></trkpt><trkpt lat="45.443115583519685" lon="4.82663582398065"><ele>224.5</ele><time>2026-03-28T14:29:14Z</time></trkpt><trkpt lat="45.442849319672085" lon="4.82655097180494"><ele>225.0</ele><time>2026-03-28T14:29:15Z</time></trkpt><trkpt lat="45.44258208724275" lon="4.826467463207054"><ele>225.0</ele><time>2026-03-28T14:29:16Z</time></trkpt><trkpt lat="45.44231450780153" lon="4.826380311890212"><ele>225.0</ele><time>2026-03-28T14:29:17Z</time></trkpt><trkpt lat="45.44204514398993" lon="4.826298118997384"><ele>225.5</ele><time>2026-03-28T14:29:18Z</time></trkpt><trkpt lat="45.44177590405224" lon="4.826212416002324"><ele>226.0</ele><time>2026-03-28T14:29:19Z</time></trkpt><trkpt lat="45.44150669803075" lon="4.826128761648299"><ele>226.0</ele><time>2026-03-28T14:29:20Z</time></trkpt><trkpt lat="45.441236999628565" lon="4.826042405475675"><ele>226.0</ele><time>2026-03-28T14:29:21Z</time></trkpt><trkpt lat="45.44096427052772" lon="4.825957234641657"><ele>225.5</ele><time>2026-03-28T14:29:22Z</time></trkpt><trkpt lat="45.44069315226692" lon="4.82587271230999"><ele>225.0</ele><time>2026-03-28T14:29:23Z</time></trkpt><trkpt lat="45.44042310600225" lon="4.825789659817411"><ele>226.0</ele><time>2026-03-28T14:29:24Z</time></trkpt><trkpt lat="45.44015135662127" lon="4.825705299824738"><ele>227.0</ele><time>2026-03-28T14:29:25Z</time></trkpt><trkpt lat="45.43988123844293" lon="4.825621069207089"><ele>227.5</ele><time>2026-03-28T14:29:26Z</time></trkpt><trkpt lat="45.43960911348839" lon="4.825537905700821"><ele>228.0</ele><time>2026-03-28T14:29:27Z</time></trkpt><trkpt lat="45.439339901880054" lon="4.825457727389973"><ele>228.0</ele><time>2026-03-28T14:29:28Z</time></trkpt><trkpt lat="45.43906453906059" lon="4.8253748834406816"><ele>228.0</ele><time>2026-03-28T14:29:29Z</time></trkpt><trkpt lat="45.43879341469079" lon="4.8252931177490215"><ele>228.0</ele><time>2026-03-28T14:29:30Z</time></trkpt><trkpt lat="45.43852219437178" lon="4.825211881198081"><ele>228.0</ele><time>2026-03-28T14:29:31Z</time></trkpt><trkpt lat="45.4382511120481" lon="4.825133508142286"><ele>227.5</ele><time>2026-03-28T14:29:32Z</time></trkpt><trkpt lat="45.43797963010637" lon="4.825056795709175"><ele>227.0</ele><time>2026-03-28T14:29:33Z</time></trkpt><trkpt lat="45.4377102824797" lon="4.824981928485856"><ele>226.0</ele><time>2026-03-28T14:29:34Z</time></trkpt><trkpt lat="45.43743627967355" lon="4.824903812801138"><ele>225.0</ele><time>2026-03-28T14:29:35Z</time></trkpt><trkpt lat="45.43716383796067" lon="4.824824405398652"><ele>224.0</ele><time>2026-03-28T14:29:36Z</time></trkpt><trkpt lat="45.43689400970073" lon="4.824743719671614"><ele>223.0</ele><time>2026-03-28T14:29:37Z</time></trkpt><trkpt lat="45.43662440885187" lon="4.824662119436256"><ele>223.0</ele><time>2026-03-28T14:29:38Z</time></trkpt><trkpt lat="45.4363576974309" lon="4.824580850146845"><ele>223.0</ele><time>2026-03-28T14:29:39Z</time></trkpt><trkpt lat="45.43608656098756" lon="4.824495791530547"><ele>223.0</ele><time>2026-03-28T14:29:40Z</time></trkpt><trkpt lat="45.43581531829925" lon="4.8244119976660755"><ele>223.0</ele><time>2026-03-28T14:29:41Z</time></trkpt><trkpt lat="45.43554645107123" lon="4.824328463526704"><ele>220.0</ele><time>2026-03-28T14:29:42Z</time></trkpt><trkpt lat="45.43527288127279" lon="4.824243236305913"><ele>217.0</ele><time>2026-03-28T14:29:43Z</time></trkpt><trkpt lat="45.43500256512617" lon="4.824160286363173"><ele>217.0</ele><time>2026-03-28T14:29:44Z</time></trkpt><trkpt lat="45.43473585814992" lon="4.824082470902081"><ele>217.0</ele><time>2026-03-28T14:29:45Z</time></trkpt><trkpt lat="45.43446679721271" lon="4.824005669855123"><ele>212.5</ele><time>2026-03-28T14:29:46Z</time></trkpt><trkpt lat="45.434197717402306" lon="4.823934163364456"><ele>208.0</ele><time>2026-03-28T14:29:47Z</time></trkpt><trkpt lat="45.43393094173604" lon="4.82386943265256"><ele>205.5</ele><time>2026-03-28T14:29:48Z</time></trkpt><trkpt lat="45.433660460409556" lon="4.823805478031561"><ele>203.0</ele><time>2026-03-28T14:29:49Z</time></trkpt><trkpt lat="45.43339190345316" lon="4.823744143788108"><ele>203.0</ele><time>2026-03-28T14:29:50Z</time></trkpt><trkpt lat="45.43311953512928" lon="4.823694477858219"><ele>203.0</ele><time>2026-03-28T14:29:51Z</time></trkpt><trkpt lat="45.43284833171532" lon="4.8236528563785335"><ele>201.5</ele><time>2026-03-28T14:29:52Z</time></trkpt><trkpt lat="45.43257828626949" lon="4.823625619954861"><ele>200.0</ele><time>2026-03-28T14:29:53Z</time></trkpt><trkpt lat="45.43230614037174" lon="4.823601641703842"><ele>199.0</ele><time>2026-03-28T14:29:54Z</time></trkpt><trkpt lat="45.43204122891514" lon="4.823590435991039"><ele>198.0</ele><time>2026-03-28T14:29:55Z</time></trkpt><trkpt lat="45.43177453788789" lon="4.823588094595832"><ele>198.0</ele><time>2026-03-28T14:29:56Z</time></trkpt><trkpt lat="45.4315026082835" lon="4.823594642121735"><ele>198.0</ele><time>2026-03-28T14:29:57Z</time></trkpt><trkpt lat="45.431232874801815" lon="4.823610107866146"><ele>198.0</ele><time>2026-03-28T14:29:58Z</time></trkpt><trkpt lat="45.43096127414112" lon="4.823628655805188"><ele>198.0</ele><time>2026-03-28T14:29:59Z</time></trkpt><trkpt lat="45.430692596818325" lon="4.823663254297582"><ele>197.5</ele><time>2026-03-28T14:30:00Z</time></trkpt><trkpt lat="45.43042259114487" lon="4.823694442572384"><ele>197.0</ele><time>2026-03-28T14:30:01Z</time></trkpt><trkpt lat="45.430157966339614" lon="4.823746160962009"><ele>197.0</ele><time>2026-03-28T14:30:02Z</time></trkpt><trkpt lat="45.42989078607302" lon="4.8238039764900655"><ele>197.0</ele><time>2026-03-28T14:30:03Z</time></trkpt><trkpt lat="45.42962595234435" lon="4.823863935446227"><ele>197.0</ele><time>2026-03-28T14:30:04Z</time></trkpt><trkpt lat="45.42936377663245" lon="4.823939675790934"><ele>197.0</ele><time>2026-03-28T14:30:05Z</time></trkpt><trkpt lat="45.429104314260485" lon="4.824019243179065"><ele>197.0</ele><time>2026-03-28T14:30:06Z</time></trkpt><trkpt lat="45.42884308262647" lon="4.8241017386365765"><ele>197.0</ele><time>2026-03-28T14:30:07Z</time></trkpt><trkpt lat="45.42857673064428" lon="4.824196225761663"><ele>197.5</ele><time>2026-03-28T14:30:08Z</time></trkpt><trkpt lat="45.428312491904464" lon="4.824293994487441"><ele>198.0</ele><time>2026-03-28T14:30:09Z</time></trkpt><trkpt lat="45.42805382879001" lon="4.824404540212046"><ele>197.5</ele><time>2026-03-28T14:30:10Z</time></trkpt><trkpt lat="45.42779582492541" lon="4.824520442227823"><ele>197.0</ele><time>2026-03-28T14:30:11Z</time></trkpt><trkpt lat="45.42753611601748" lon="4.824640784490241"><ele>197.0</ele><time>2026-03-28T14:30:12Z</time></trkpt><trkpt lat="45.427282932840995" lon="4.824765279628148"><ele>197.0</ele><time>2026-03-28T14:30:13Z</time></trkpt><trkpt lat="45.427028111441096" lon="4.824900854521898"><ele>197.5</ele><time>2026-03-28T14:30:14Z</time></trkpt><trkpt lat="45.42677599566795" lon="4.825041636960871"><ele>198.0</ele><time>2026-03-28T14:30:15Z</time></trkpt><trkpt lat="45.42652470268328" lon="4.8251831592840855"><ele>199.5</ele><time>2026-03-28T14:30:16Z</time></trkpt><trkpt lat="45.42627400895624" lon="4.825325932332104"><ele>201.0</ele><time>2026-03-28T14:30:17Z</time></trkpt><trkpt lat="45.42603561577776" lon="4.825462220195028"><ele>201.0</ele><time>2026-03-28T14:30:18Z</time></trkpt><trkpt lat="45.42580048772451" lon="4.8256020720468396"><ele>201.0</ele><time>2026-03-28T14:30:19Z</time></trkpt><trkpt lat="45.42555701590357" lon="4.825752243379977"><ele>201.5</ele><time>2026-03-28T14:30:20Z</time></trkpt><trkpt lat="45.42530402242326" lon="4.825899320656316"><ele>202.0</ele><time>2026-03-28T14:30:21Z</time></trkpt><trkpt lat="45.42505126121303" lon="4.826044040340928"><ele>200.0</ele><time>2026-03-28T14:30:22Z</time></trkpt><trkpt lat="45.4248026551919" lon="4.8261847237642295"><ele>198.0</ele><time>2026-03-28T14:30:23Z</time></trkpt><trkpt lat="45.42454967769286" lon="4.826325352152055"><ele>204.0</ele><time>2026-03-28T14:30:24Z</time></trkpt><trkpt lat="45.42430177143748" lon="4.8264585067249905"><ele>210.0</ele><time>2026-03-28T14:30:25Z</time></trkpt><trkpt lat="45.424049726687464" lon="4.8265977052874325"><ele>216.5</ele><time>2026-03-28T14:30:26Z</time></trkpt><trkpt lat="45.42379888876355" lon="4.826732303386258"><ele>223.0</ele><time>2026-03-28T14:30:27Z</time></trkpt><trkpt lat="45.42354941278221" lon="4.826871256638567"><ele>223.0</ele><time>2026-03-28T14:30:28Z</time></trkpt><trkpt lat="45.423297414414485" lon="4.827000246228056"><ele>223.0</ele><time>2026-03-28T14:30:29Z</time></trkpt><trkpt lat="45.42304011119159" lon="4.827117812014913"><ele>226.5</ele><time>2026-03-28T14:30:30Z</time></trkpt><trkpt lat="45.42277797695158" lon="4.827225242367603"><ele>230.0</ele><time>2026-03-28T14:30:31Z</time></trkpt><trkpt lat="45.4225200251128" lon="4.827325510739659"><ele>230.0</ele><time>2026-03-28T14:30:32Z</time></trkpt><trkpt lat="45.42226140290113" lon="4.827424441687912"><ele>230.0</ele><time>2026-03-28T14:30:33Z</time></trkpt><trkpt lat="45.42199889914767" lon="4.8275105438906625"><ele>231.5</ele><time>2026-03-28T14:30:34Z</time></trkpt><trkpt lat="45.421737006931096" lon="4.827591047097206"><ele>233.0</ele><time>2026-03-28T14:30:35Z</time></trkpt><trkpt lat="45.421475266956804" lon="4.827657828089076"><ele>234.5</ele><time>2026-03-28T14:30:36Z</time></trkpt><trkpt lat="45.42120080870836" lon="4.827725490308866"><ele>236.0</ele><time>2026-03-28T14:30:37Z</time></trkpt><trkpt lat="45.4209342640164" lon="4.82777769944507"><ele>236.0</ele><time>2026-03-28T14:30:38Z</time></trkpt><trkpt lat="45.4206664468751" lon="4.827821987054207"><ele>236.0</ele><time>2026-03-28T14:30:39Z</time></trkpt><trkpt lat="45.42039761822934" lon="4.827859117973844"><ele>237.0</ele><time>2026-03-28T14:30:40Z</time></trkpt><trkpt lat="45.42013113218467" lon="4.827888817858933"><ele>238.0</ele><time>2026-03-28T14:30:41Z</time></trkpt><trkpt lat="45.4198611353522" lon="4.827908906050187"><ele>238.0</ele><time>2026-03-28T14:30:42Z</time></trkpt><trkpt lat="45.419590812533166" lon="4.827917727601495"><ele>238.0</ele><time>2026-03-28T14:30:43Z</time></trkpt><trkpt lat="45.41931949188435" lon="4.8279166851446735"><ele>238.0</ele><time>2026-03-28T14:30:44Z</time></trkpt><trkpt lat="45.41904863842599" lon="4.827905169946924"><ele>238.0</ele><time>2026-03-28T14:30:45Z</time></trkpt><trkpt lat="45.41877101029747" lon="4.827882575608561"><ele>238.5</ele><time>2026-03-28T14:30:46Z</time></trkpt><trkpt lat="45.41850011205746" lon="4.827856258371176"><ele>239.0</ele><time>2026-03-28T14:30:47Z</time></trkpt><trkpt lat="45.418228854310144" lon="4.827820384599043"><ele>239.0</ele><time>2026-03-28T14:30:48Z</time></trkpt><trkpt lat="45.417956145008745" lon="4.827771287352366"><ele>239.0</ele><time>2026-03-28T14:30:49Z</time></trkpt><trkpt lat="45.41768580257426" lon="4.8277143699389145"><ele>239.0</ele><time>2026-03-28T14:30:50Z</time></trkpt><trkpt lat="45.41741768989289" lon="4.8276507604035634"><ele>239.0</ele><time>2026-03-28T14:30:51Z</time></trkpt><trkpt lat="45.417151014019105" lon="4.827579768218591"><ele>240.5</ele><time>2026-03-28T14:30:52Z</time></trkpt><trkpt lat="45.41688297417393" lon="4.8275000851398"><ele>242.0</ele><time>2026-03-28T14:30:53Z</time></trkpt><trkpt lat="45.41661741158608" lon="4.8274224584115535"><ele>242.0</ele><time>2026-03-28T14:30:54Z</time></trkpt><trkpt lat="45.41635138948832" lon="4.8273391785549"><ele>242.0</ele><time>2026-03-28T14:30:55Z</time></trkpt><trkpt lat="45.41608659953913" lon="4.827242303013795"><ele>243.0</ele><time>2026-03-28T14:30:56Z</time></trkpt><trkpt lat="45.41582131817653" lon="4.8271331229935175"><ele>244.0</ele><time>2026-03-28T14:30:57Z</time></trkpt><trkpt lat="45.41556140143908" lon="4.827011555344651"><ele>244.0</ele><time>2026-03-28T14:30:58Z</time></trkpt><trkpt lat="45.415305320077316" lon="4.826875738974546"><ele>244.0</ele><time>2026-03-28T14:30:59Z</time></trkpt><trkpt lat="45.41505551962072" lon="4.826728035608583"><ele>244.5</ele><time>2026-03-28T14:31:00Z</time></trkpt><trkpt lat="45.41480300021678" lon="4.826573637912401"><ele>245.0</ele><time>2026-03-28T14:31:01Z</time></trkpt><trkpt lat="45.41455081782308" lon="4.8264102967549976"><ele>245.0</ele><time>2026-03-28T14:31:02Z</time></trkpt><trkpt lat="45.414304383011924" lon="4.826233282969745"><ele>245.0</ele><time>2026-03-28T14:31:03Z</time></trkpt><trkpt lat="45.414065664017045" lon="4.826043747387263"><ele>245.5</ele><time>2026-03-28T14:31:04Z</time></trkpt><trkpt lat="45.41382976812663" lon="4.825840124946887"><ele>246.0</ele><time>2026-03-28T14:31:05Z</time></trkpt><trkpt lat="45.41360044152232" lon="4.825632028205329"><ele>246.5</ele><time>2026-03-28T14:31:06Z</time></trkpt><trkpt lat="45.41336841280339" lon="4.825416372115302"><ele>247.0</ele><time>2026-03-28T14:31:07Z</time></trkpt><trkpt lat="45.41314222582904" lon="4.82519845891108"><ele>248.0</ele><time>2026-03-28T14:31:08Z</time></trkpt><trkpt lat="45.41291331560177" lon="4.824981034434858"><ele>249.0</ele><time>2026-03-28T14:31:09Z</time></trkpt><trkpt lat="45.41268596050848" lon="4.824762427515537"><ele>249.0</ele><time>2026-03-28T14:31:10Z</time></trkpt><trkpt lat="45.412457659449636" lon="4.824546120870113"><ele>249.0</ele><time>2026-03-28T14:31:11Z</time></trkpt><trkpt lat="45.41222936835593" lon="4.824328432911611"><ele>250.0</ele><time>2026-03-28T14:31:12Z</time></trkpt><trkpt lat="45.4120009201282" lon="4.8241077563582335"><ele>251.0</ele><time>2026-03-28T14:31:13Z</time></trkpt><trkpt lat="45.411777118969326" lon="4.823892356639679"><ele>251.0</ele><time>2026-03-28T14:31:14Z</time></trkpt><trkpt lat="45.411549120717915" lon="4.8236749656840425"><ele>251.0</ele><time>2026-03-28T14:31:15Z</time></trkpt><trkpt lat="45.41132162449821" lon="4.8234595843817125"><ele>250.5</ele><time>2026-03-28T14:31:16Z</time></trkpt><trkpt lat="45.41109691627481" lon="4.823243375926003"><ele>250.0</ele><time>2026-03-28T14:31:17Z</time></trkpt><trkpt lat="45.41086915688346" lon="4.823025662507101"><ele>250.0</ele><time>2026-03-28T14:31:18Z</time></trkpt><trkpt lat="45.410642681513956" lon="4.822807000004913"><ele>250.0</ele><time>2026-03-28T14:31:19Z</time></trkpt><trkpt lat="45.410419525730504" lon="4.822594711229762"><ele>249.5</ele><time>2026-03-28T14:31:20Z</time></trkpt><trkpt lat="45.41019151687835" lon="4.822380339371588"><ele>249.0</ele><time>2026-03-28T14:31:21Z</time></trkpt><trkpt lat="45.40996816398921" lon="4.822166542925825"><ele>249.0</ele><time>2026-03-28T14:31:22Z</time></trkpt><trkpt lat="45.409742554849316" lon="4.821945518874538"><ele>249.0</ele><time>2026-03-28T14:31:23Z</time></trkpt><trkpt lat="45.40951539729717" lon="4.821731030909422"><ele>250.5</ele><time>2026-03-28T14:31:24Z</time></trkpt><trkpt lat="45.409286934621896" lon="4.821513191537417"><ele>252.0</ele><time>2026-03-28T14:31:25Z</time></trkpt><trkpt lat="45.409054115772115" lon="4.82129724725711"><ele>252.0</ele><time>2026-03-28T14:31:26Z</time></trkpt><trkpt lat="45.40882517686197" lon="4.8210863860470425"><ele>252.0</ele><time>2026-03-28T14:31:27Z</time></trkpt><trkpt lat="45.4085976155234" lon="4.820870917864822"><ele>252.5</ele><time>2026-03-28T14:31:28Z</time></trkpt><trkpt lat="45.40837007617101" lon="4.820654532027198"><ele>253.0</ele><time>2026-03-28T14:31:29Z</time></trkpt><trkpt lat="45.40814033389405" lon="4.820438860198748"><ele>252.5</ele><time>2026-03-28T14:31:30Z</time></trkpt><trkpt lat="45.4079287530576" lon="4.820227158125934"><ele>252.0</ele><time>2026-03-28T14:31:31Z</time></trkpt><trkpt lat="45.40770639721167" lon="4.820013283510215"><ele>251.5</ele><time>2026-03-28T14:31:32Z</time></trkpt><trkpt lat="45.40747497593701" lon="4.819796679645186"><ele>251.0</ele><time>2026-03-28T14:31:33Z</time></trkpt><trkpt lat="45.40724444097609" lon="4.819580218241826"><ele>251.5</ele><time>2026-03-28T14:31:34Z</time></trkpt><trkpt lat="45.40701418246713" lon="4.819363680246654"><ele>252.0</ele><time>2026-03-28T14:31:35Z</time></trkpt><trkpt lat="45.40678714350085" lon="4.8191500205952895"><ele>252.5</ele><time>2026-03-28T14:31:36Z</time></trkpt><trkpt lat="45.40655884343436" lon="4.818931561064476"><ele>253.0</ele><time>2026-03-28T14:31:37Z</time></trkpt><trkpt lat="45.406331172576834" lon="4.818716190082652"><ele>253.5</ele><time>2026-03-28T14:31:38Z</time></trkpt><trkpt lat="45.40610401499729" lon="4.818498165464657"><ele>254.0</ele><time>2026-03-28T14:31:39Z</time></trkpt><trkpt lat="45.40587714952903" lon="4.818283265073105"><ele>254.0</ele><time>2026-03-28T14:31:40Z</time></trkpt><trkpt lat="45.40564966603182" lon="4.8180686627162235"><ele>254.0</ele><time>2026-03-28T14:31:41Z</time></trkpt><trkpt lat="45.40542075337628" lon="4.817853041549625"><ele>253.0</ele><time>2026-03-28T14:31:42Z</time></trkpt><trkpt lat="45.405191492029275" lon="4.81763824676311"><ele>252.0</ele><time>2026-03-28T14:31:43Z</time></trkpt><trkpt lat="45.40496512179453" lon="4.817422330250802"><ele>252.0</ele><time>2026-03-28T14:31:44Z</time></trkpt><trkpt lat="45.40473705468067" lon="4.817203999870141"><ele>252.0</ele><time>2026-03-28T14:31:45Z</time></trkpt><trkpt lat="45.40450696287534" lon="4.816987847532717"><ele>253.0</ele><time>2026-03-28T14:31:46Z</time></trkpt><trkpt lat="45.4042733962178" lon="4.8167711593905205"><ele>254.0</ele><time>2026-03-28T14:31:47Z</time></trkpt><trkpt lat="45.40404407720019" lon="4.81655744330964"><ele>253.5</ele><time>2026-03-28T14:31:48Z</time></trkpt><trkpt lat="45.40381434414656" lon="4.816342808726838"><ele>253.0</ele><time>2026-03-28T14:31:49Z</time></trkpt><trkpt lat="45.40358303074598" lon="4.8161328417625064"><ele>252.5</ele><time>2026-03-28T14:31:50Z</time></trkpt><trkpt lat="45.40335201921524" lon="4.815919387860585"><ele>252.0</ele><time>2026-03-28T14:31:51Z</time></trkpt><trkpt lat="45.403120822623045" lon="4.815704826597723"><ele>253.5</ele><time>2026-03-28T14:31:52Z</time></trkpt><trkpt lat="45.402891688381914" lon="4.815486025328137"><ele>255.0</ele><time>2026-03-28T14:31:53Z</time></trkpt><trkpt lat="45.402662677315504" lon="4.815267272802649"><ele>254.0</ele><time>2026-03-28T14:31:54Z</time></trkpt><trkpt lat="45.402434145452474" lon="4.815052607405359"><ele>253.0</ele><time>2026-03-28T14:31:55Z</time></trkpt><trkpt lat="45.402202777293354" lon="4.8148410376006"><ele>255.0</ele><time>2026-03-28T14:31:56Z</time></trkpt><trkpt lat="45.401974876990586" lon="4.814626634105151"><ele>257.0</ele><time>2026-03-28T14:31:57Z</time></trkpt><trkpt lat="45.40174787421246" lon="4.814411652526016"><ele>257.5</ele><time>2026-03-28T14:31:58Z</time></trkpt><trkpt lat="45.401517710589324" lon="4.814202783745696"><ele>258.0</ele><time>2026-03-28T14:31:59Z</time></trkpt><trkpt lat="45.40129349759583" lon="4.813988794614896"><ele>257.0</ele><time>2026-03-28T14:32:00Z</time></trkpt><trkpt lat="45.40106699893686" lon="4.813778004966284"><ele>256.0</ele><time>2026-03-28T14:32:01Z</time></trkpt><trkpt lat="45.400838412373" lon="4.8135647579573435"><ele>256.0</ele><time>2026-03-28T14:32:02Z</time></trkpt><trkpt lat="45.400610882870495" lon="4.813352775701328"><ele>256.0</ele><time>2026-03-28T14:32:03Z</time></trkpt><trkpt lat="45.40038587568049" lon="4.813140117315922"><ele>256.0</ele><time>2026-03-28T14:32:04Z</time></trkpt><trkpt lat="45.40016016670602" lon="4.812926970692564"><ele>256.0</ele><time>2026-03-28T14:32:05Z</time></trkpt><trkpt lat="45.39993219974528" lon="4.812713577891953"><ele>256.0</ele><time>2026-03-28T14:32:06Z</time></trkpt><trkpt lat="45.39970781017968" lon="4.812501648296405"><ele>256.0</ele><time>2026-03-28T14:32:07Z</time></trkpt><trkpt lat="45.399482294108715" lon="4.812290666932248"><ele>256.0</ele><time>2026-03-28T14:32:08Z</time></trkpt><trkpt lat="45.399259221587826" lon="4.812079766909947"><ele>256.0</ele><time>2026-03-28T14:32:09Z</time></trkpt><trkpt lat="45.39903355210327" lon="4.81187021272983"><ele>256.0</ele><time>2026-03-28T14:32:10Z</time></trkpt><trkpt lat="45.39881017196582" lon="4.811657880632122"><ele>256.0</ele><time>2026-03-28T14:32:11Z</time></trkpt><trkpt lat="45.39858845938281" lon="4.8114452341422895"><ele>256.0</ele><time>2026-03-28T14:32:12Z</time></trkpt><trkpt lat="45.39836553679796" lon="4.811232770163008"><ele>256.0</ele><time>2026-03-28T14:32:13Z</time></trkpt><trkpt lat="45.39814499110878" lon="4.811017318741783"><ele>256.0</ele><time>2026-03-28T14:32:14Z</time></trkpt><trkpt lat="45.397924733128555" lon="4.810801714662177"><ele>256.0</ele><time>2026-03-28T14:32:15Z</time></trkpt><trkpt lat="45.397703398747495" lon="4.8105798050517405"><ele>256.0</ele><time>2026-03-28T14:32:16Z</time></trkpt><trkpt lat="45.3974839902628" lon="4.810355814690882"><ele>256.0</ele><time>2026-03-28T14:32:17Z</time></trkpt><trkpt lat="45.39726323498295" lon="4.810136426033436"><ele>256.5</ele><time>2026-03-28T14:32:18Z</time></trkpt><trkpt lat="45.397036740254656" lon="4.809919475309349"><ele>257.0</ele><time>2026-03-28T14:32:19Z</time></trkpt><trkpt lat="45.396812079666276" lon="4.809706178810794"><ele>257.0</ele><time>2026-03-28T14:32:20Z</time></trkpt><trkpt lat="45.39658691962596" lon="4.80949580534339"><ele>257.0</ele><time>2026-03-28T14:32:21Z</time></trkpt><trkpt lat="45.39635635095753" lon="4.809284935362122"><ele>258.0</ele><time>2026-03-28T14:32:22Z</time></trkpt><trkpt lat="45.396125499254204" lon="4.809082360761898"><ele>259.0</ele><time>2026-03-28T14:32:23Z</time></trkpt><trkpt lat="45.39589091111755" lon="4.808883364746445"><ele>259.0</ele><time>2026-03-28T14:32:24Z</time></trkpt><trkpt lat="45.39565329013017" lon="4.808688816202089"><ele>259.0</ele><time>2026-03-28T14:32:25Z</time></trkpt><trkpt lat="45.39541333025413" lon="4.80850281833149"><ele>259.5</ele><time>2026-03-28T14:32:26Z</time></trkpt><trkpt lat="45.395171986357454" lon="4.808325173544973"><ele>260.0</ele><time>2026-03-28T14:32:27Z</time></trkpt><trkpt lat="45.39492985402827" lon="4.808150748708571"><ele>260.0</ele><time>2026-03-28T14:32:28Z</time></trkpt><trkpt lat="45.394685278108334" lon="4.807979396027619"><ele>260.0</ele><time>2026-03-28T14:32:29Z</time></trkpt><trkpt lat="45.394436862164575" lon="4.807814262051388"><ele>258.5</ele><time>2026-03-28T14:32:30Z</time></trkpt><trkpt lat="45.3941892217366" lon="4.807652620931688"><ele>257.0</ele><time>2026-03-28T14:32:31Z</time></trkpt><trkpt lat="45.39394364257645" lon="4.807494617308143"><ele>257.0</ele><time>2026-03-28T14:32:32Z</time></trkpt><trkpt lat="45.39369808386982" lon="4.807344003915549"><ele>257.0</ele><time>2026-03-28T14:32:33Z</time></trkpt><trkpt lat="45.39345166196257" lon="4.807198986487759"><ele>257.0</ele><time>2026-03-28T14:32:34Z</time></trkpt><trkpt lat="45.393202441071935" lon="4.807063433307602"><ele>257.0</ele><time>2026-03-28T14:32:35Z</time></trkpt><trkpt lat="45.392953202102554" lon="4.806933383601883"><ele>257.0</ele><time>2026-03-28T14:32:36Z</time></trkpt><trkpt lat="45.39270124262122" lon="4.806810236604187"><ele>257.0</ele><time>2026-03-28T14:32:37Z</time></trkpt><trkpt lat="45.392451241656055" lon="4.806695865119997"><ele>257.0</ele><time>2026-03-28T14:32:38Z</time></trkpt><trkpt lat="45.392196465060174" lon="4.806582003328258"><ele>257.0</ele><time>2026-03-28T14:32:39Z</time></trkpt><trkpt lat="45.39194320548912" lon="4.806476077218115"><ele>257.0</ele><time>2026-03-28T14:32:40Z</time></trkpt><trkpt lat="45.39168679397192" lon="4.806374822383241"><ele>257.0</ele><time>2026-03-28T14:32:41Z</time></trkpt><trkpt lat="45.39143166538904" lon="4.806276685038124"><ele>256.0</ele><time>2026-03-28T14:32:42Z</time></trkpt><trkpt lat="45.39117501584023" lon="4.806181107064398"><ele>255.0</ele><time>2026-03-28T14:32:43Z</time></trkpt><trkpt lat="45.390916230768184" lon="4.806090115756549"><ele>255.0</ele><time>2026-03-28T14:32:44Z</time></trkpt><trkpt lat="45.390658375366314" lon="4.806001831454526"><ele>255.0</ele><time>2026-03-28T14:32:45Z</time></trkpt><trkpt lat="45.390397355063065" lon="4.805918910583773"><ele>255.0</ele><time>2026-03-28T14:32:46Z</time></trkpt><trkpt lat="45.39013461713945" lon="4.8058421380275735"><ele>255.0</ele><time>2026-03-28T14:32:47Z</time></trkpt><trkpt lat="45.3898734446231" lon="4.805772882631944"><ele>255.5</ele><time>2026-03-28T14:32:48Z</time></trkpt><trkpt lat="45.38961129631792" lon="4.805710830499888"><ele>256.0</ele><time>2026-03-28T14:32:49Z</time></trkpt><trkpt lat="45.38934908770216" lon="4.805655394787206"><ele>256.0</ele><time>2026-03-28T14:32:50Z</time></trkpt><trkpt lat="45.389085862232136" lon="4.805604539240776"><ele>256.0</ele><time>2026-03-28T14:32:51Z</time></trkpt><trkpt lat="45.388822286828386" lon="4.805558368971664"><ele>255.5</ele><time>2026-03-28T14:32:52Z</time></trkpt><trkpt lat="45.38855852265476" lon="4.805520930521468"><ele>255.0</ele><time>2026-03-28T14:32:53Z</time></trkpt><trkpt lat="45.38829748916028" lon="4.805491367839207"><ele>255.0</ele><time>2026-03-28T14:32:54Z</time></trkpt><trkpt lat="45.38803469494477" lon="4.805469069578565"><ele>255.0</ele><time>2026-03-28T14:32:55Z</time></trkpt><trkpt lat="45.3877703585547" lon="4.805454893208566"><ele>251.5</ele><time>2026-03-28T14:32:56Z</time></trkpt><trkpt lat="45.38750762304777" lon="4.805447938376522"><ele>248.0</ele><time>2026-03-28T14:32:57Z</time></trkpt><trkpt lat="45.38724385446202" lon="4.805447421155955"><ele>245.0</ele><time>2026-03-28T14:32:58Z</time></trkpt><trkpt lat="45.38697586037893" lon="4.805448625270521"><ele>242.0</ele><time>2026-03-28T14:32:59Z</time></trkpt><trkpt lat="45.386711545618" lon="4.805456516281202"><ele>242.0</ele><time>2026-03-28T14:33:00Z</time></trkpt><trkpt lat="45.38645006078923" lon="4.805471594284488"><ele>242.0</ele><time>2026-03-28T14:33:01Z</time></trkpt><trkpt lat="45.38618454266027" lon="4.805489693106239"><ele>241.5</ele><time>2026-03-28T14:33:02Z</time></trkpt><trkpt lat="45.38592069548273" lon="4.805515934366334"><ele>241.0</ele><time>2026-03-28T14:33:03Z</time></trkpt><trkpt lat="45.38565708542035" lon="4.8055471467334865"><ele>241.0</ele><time>2026-03-28T14:33:04Z</time></trkpt><trkpt lat="45.38539472526161" lon="4.805574885208219"><ele>241.0</ele><time>2026-03-28T14:33:05Z</time></trkpt><trkpt lat="45.385132656850146" lon="4.8055950708836965"><ele>241.0</ele><time>2026-03-28T14:33:06Z</time></trkpt><trkpt lat="45.38486946424739" lon="4.805610368335043"><ele>241.0</ele><time>2026-03-28T14:33:07Z</time></trkpt><trkpt lat="45.38460542523207" lon="4.8056223783691445"><ele>239.5</ele><time>2026-03-28T14:33:08Z</time></trkpt><trkpt lat="45.38434293905113" lon="4.80562796891108"><ele>238.0</ele><time>2026-03-28T14:33:09Z</time></trkpt><trkpt lat="45.384080160843766" lon="4.8056253709125185"><ele>237.0</ele><time>2026-03-28T14:33:10Z</time></trkpt><trkpt lat="45.383818776766475" lon="4.805622650813295"><ele>236.0</ele><time>2026-03-28T14:33:11Z</time></trkpt><trkpt lat="45.38355682911333" lon="4.805610687842894"><ele>236.0</ele><time>2026-03-28T14:33:12Z</time></trkpt><trkpt lat="45.38329585640262" lon="4.805594639681027"><ele>236.0</ele><time>2026-03-28T14:33:13Z</time></trkpt><trkpt lat="45.38303367135455" lon="4.805569980086761"><ele>233.5</ele><time>2026-03-28T14:33:14Z</time></trkpt><trkpt lat="45.38277180862073" lon="4.805541396684003"><ele>231.0</ele><time>2026-03-28T14:33:15Z</time></trkpt><trkpt lat="45.38251020636055" lon="4.805508259319296"><ele>231.0</ele><time>2026-03-28T14:33:16Z</time></trkpt><trkpt lat="45.382247244195256" lon="4.805469905304862"><ele>231.0</ele><time>2026-03-28T14:33:17Z</time></trkpt><trkpt lat="45.38198395609792" lon="4.805424665187856"><ele>230.5</ele><time>2026-03-28T14:33:18Z</time></trkpt><trkpt lat="45.381721672205735" lon="4.805371648419809"><ele>230.0</ele><time>2026-03-28T14:33:19Z</time></trkpt><trkpt lat="45.38146433049178" lon="4.805316461006665"><ele>229.0</ele><time>2026-03-28T14:33:20Z</time></trkpt><trkpt lat="45.381206557694455" lon="4.80526304904748"><ele>228.0</ele><time>2026-03-28T14:33:21Z</time></trkpt><trkpt lat="45.38095117185569" lon="4.805207981326982"><ele>228.5</ele><time>2026-03-28T14:33:22Z</time></trkpt><trkpt lat="45.380692755728234" lon="4.8051567325931845"><ele>229.0</ele><time>2026-03-28T14:33:23Z</time></trkpt><trkpt lat="45.38043410610956" lon="4.805107306698227"><ele>227.0</ele><time>2026-03-28T14:33:24Z</time></trkpt><trkpt lat="45.38017470992241" lon="4.8050581257868"><ele>225.0</ele><time>2026-03-28T14:33:25Z</time></trkpt><trkpt lat="45.37991482557042" lon="4.80500924949395"><ele>223.5</ele><time>2026-03-28T14:33:26Z</time></trkpt><trkpt lat="45.37966274645476" lon="4.804960868766818"><ele>222.0</ele><time>2026-03-28T14:33:27Z</time></trkpt><trkpt lat="45.37940899841385" lon="4.804914104073062"><ele>222.0</ele><time>2026-03-28T14:33:28Z</time></trkpt><trkpt lat="45.37915656933423" lon="4.804862696847877"><ele>222.0</ele><time>2026-03-28T14:33:29Z</time></trkpt><trkpt lat="45.37890408403603" lon="4.80481022677336"><ele>220.5</ele><time>2026-03-28T14:33:30Z</time></trkpt><trkpt lat="45.37865128354911" lon="4.80475475669316"><ele>219.0</ele><time>2026-03-28T14:33:31Z</time></trkpt><trkpt lat="45.378403525442316" lon="4.804699073826948"><ele>219.0</ele><time>2026-03-28T14:33:32Z</time></trkpt><trkpt lat="45.37815681675849" lon="4.804645388875668"><ele>219.0</ele><time>2026-03-28T14:33:33Z</time></trkpt><trkpt lat="45.377908887044214" lon="4.804592623306637"><ele>220.5</ele><time>2026-03-28T14:33:34Z</time></trkpt><trkpt lat="45.377661826147644" lon="4.804537296995954"><ele>222.0</ele><time>2026-03-28T14:33:35Z</time></trkpt><trkpt lat="45.37741701418353" lon="4.804485862224419"><ele>221.5</ele><time>2026-03-28T14:33:36Z</time></trkpt><trkpt lat="45.37717550580423" lon="4.804444520538891"><ele>221.0</ele><time>2026-03-28T14:33:37Z</time></trkpt><trkpt lat="45.376932760033135" lon="4.804417715662724"><ele>221.0</ele><time>2026-03-28T14:33:38Z</time></trkpt><trkpt lat="45.37668805955832" lon="4.80440628423756"><ele>221.0</ele><time>2026-03-28T14:33:39Z</time></trkpt><trkpt lat="45.37644031976847" lon="4.804411681016927"><ele>221.5</ele><time>2026-03-28T14:33:40Z</time></trkpt><trkpt lat="45.376194177333375" lon="4.804432163129161"><ele>222.0</ele><time>2026-03-28T14:33:41Z</time></trkpt><trkpt lat="45.37594633018381" lon="4.804468966564431"><ele>222.0</ele><time>2026-03-28T14:33:42Z</time></trkpt><trkpt lat="45.37569849592137" lon="4.804523416029491"><ele>222.0</ele><time>2026-03-28T14:33:43Z</time></trkpt><trkpt lat="45.37544817896162" lon="4.804591716045671"><ele>220.5</ele><time>2026-03-28T14:33:44Z</time></trkpt><trkpt lat="45.375198366184456" lon="4.804675917643328"><ele>219.0</ele><time>2026-03-28T14:33:45Z</time></trkpt><trkpt lat="45.3749530522959" lon="4.8047772407575335"><ele>219.0</ele><time>2026-03-28T14:33:46Z</time></trkpt><trkpt lat="45.37471120093024" lon="4.804896569005338"><ele>219.0</ele><time>2026-03-28T14:33:47Z</time></trkpt><trkpt lat="45.374472601222514" lon="4.805030186893031"><ele>218.5</ele><time>2026-03-28T14:33:48Z</time></trkpt><trkpt lat="45.374232904391434" lon="4.805174500047026"><ele>218.0</ele><time>2026-03-28T14:33:49Z</time></trkpt><trkpt lat="45.37399620276153" lon="4.805331440003775"><ele>211.0</ele><time>2026-03-28T14:33:50Z</time></trkpt><trkpt lat="45.37376604256428" lon="4.805508423935551"><ele>204.0</ele><time>2026-03-28T14:33:51Z</time></trkpt><trkpt lat="45.37354319526058" lon="4.805705682899566"><ele>204.0</ele><time>2026-03-28T14:33:52Z</time></trkpt><trkpt lat="45.37332463825402" lon="4.805917790003452"><ele>204.0</ele><time>2026-03-28T14:33:53Z</time></trkpt><trkpt lat="45.373114256595656" lon="4.8061406757561524"><ele>202.5</ele><time>2026-03-28T14:33:54Z</time></trkpt><trkpt lat="45.37290462327283" lon="4.806366231746415"><ele>201.0</ele><time>2026-03-28T14:33:55Z</time></trkpt><trkpt lat="45.3726925694756" lon="4.806588865534056"><ele>201.0</ele><time>2026-03-28T14:33:56Z</time></trkpt><trkpt lat="45.37247982878847" lon="4.806805584276619"><ele>201.0</ele><time>2026-03-28T14:33:57Z</time></trkpt><trkpt lat="45.37225753935785" lon="4.807019115685027"><ele>199.5</ele><time>2026-03-28T14:33:58Z</time></trkpt><trkpt lat="45.372028968408046" lon="4.807210015153313"><ele>198.0</ele><time>2026-03-28T14:33:59Z</time></trkpt><trkpt lat="45.37179515458931" lon="4.807384920503141"><ele>198.0</ele><time>2026-03-28T14:34:00Z</time></trkpt><trkpt lat="45.371555318849786" lon="4.807542952402943"><ele>198.0</ele><time>2026-03-28T14:34:01Z</time></trkpt><trkpt lat="45.37131219065135" lon="4.807681323947312"><ele>197.5</ele><time>2026-03-28T14:34:02Z</time></trkpt><trkpt lat="45.37106091189406" lon="4.807802083811568"><ele>197.0</ele><time>2026-03-28T14:34:03Z</time></trkpt><trkpt lat="45.37080586200695" lon="4.807905902322347"><ele>197.0</ele><time>2026-03-28T14:34:04Z</time></trkpt><trkpt lat="45.37054807467249" lon="4.807994333775606"><ele>197.0</ele><time>2026-03-28T14:34:05Z</time></trkpt><trkpt lat="45.37028803843939" lon="4.808057796816939"><ele>192.0</ele><time>2026-03-28T14:34:06Z</time></trkpt><trkpt lat="45.370028401352684" lon="4.808104987899288"><ele>187.0</ele><time>2026-03-28T14:34:07Z</time></trkpt><trkpt lat="45.36976438139603" lon="4.808132360583691"><ele>183.0</ele><time>2026-03-28T14:34:08Z</time></trkpt><trkpt lat="45.369498577866196" lon="4.808143637163183"><ele>179.0</ele><time>2026-03-28T14:34:09Z</time></trkpt><trkpt lat="45.369235492579016" lon="4.808139526295964"><ele>179.0</ele><time>2026-03-28T14:34:10Z</time></trkpt><trkpt lat="45.368973832722176" lon="4.808116787193455"><ele>179.0</ele><time>2026-03-28T14:34:11Z</time></trkpt><trkpt lat="45.368712546722875" lon="4.808071943383787"><ele>175.5</ele><time>2026-03-28T14:34:12Z</time></trkpt><trkpt lat="45.36845204292778" lon="4.808014146119296"><ele>172.0</ele><time>2026-03-28T14:34:13Z</time></trkpt><trkpt lat="45.36819419130415" lon="4.807935174418984"><ele>169.0</ele><time>2026-03-28T14:34:14Z</time></trkpt><trkpt lat="45.36794092073111" lon="4.807856218387123"><ele>166.0</ele><time>2026-03-28T14:34:15Z</time></trkpt><trkpt lat="45.36768167428721" lon="4.8077762541619515"><ele>166.0</ele><time>2026-03-28T14:34:16Z</time></trkpt><trkpt lat="45.367421445290624" lon="4.807694791598253"><ele>166.0</ele><time>2026-03-28T14:34:17Z</time></trkpt><trkpt lat="45.36716348379109" lon="4.807614623302157"><ele>164.5</ele><time>2026-03-28T14:34:18Z</time></trkpt><trkpt lat="45.36690419377077" lon="4.80753222439834"><ele>163.0</ele><time>2026-03-28T14:34:19Z</time></trkpt><trkpt lat="45.3666462267205" lon="4.807449384109823"><ele>163.0</ele><time>2026-03-28T14:34:20Z</time></trkpt><trkpt lat="45.366386899714" lon="4.807372784946307"><ele>163.0</ele><time>2026-03-28T14:34:21Z</time></trkpt><trkpt lat="45.366129044547385" lon="4.807295061820961"><ele>163.0</ele><time>2026-03-28T14:34:22Z</time></trkpt><trkpt lat="45.36586888689234" lon="4.80721750229814"><ele>163.0</ele><time>2026-03-28T14:34:23Z</time></trkpt><trkpt lat="45.3656113044173" lon="4.80713797825175"><ele>162.0</ele><time>2026-03-28T14:34:24Z</time></trkpt><trkpt lat="45.36534931741233" lon="4.807056128101085"><ele>161.0</ele><time>2026-03-28T14:34:25Z</time></trkpt><trkpt lat="45.36509234393097" lon="4.806976322893405"><ele>161.0</ele><time>2026-03-28T14:34:26Z</time></trkpt><trkpt lat="45.3648339146124" lon="4.806893680481496"><ele>161.0</ele><time>2026-03-28T14:34:27Z</time></trkpt><trkpt lat="45.36457825414221" lon="4.806812898774686"><ele>160.5</ele><time>2026-03-28T14:34:28Z</time></trkpt><trkpt lat="45.36432233612" lon="4.806732206479446"><ele>160.0</ele><time>2026-03-28T14:34:29Z</time></trkpt><trkpt lat="45.36406339682916" lon="4.806653078437226"><ele>159.0</ele><time>2026-03-28T14:34:30Z</time></trkpt><trkpt lat="45.36380919062528" lon="4.806577040966715"><ele>158.0</ele><time>2026-03-28T14:34:31Z</time></trkpt><trkpt lat="45.36355424112041" lon="4.806501887395738"><ele>158.0</ele><time>2026-03-28T14:34:32Z</time></trkpt><trkpt lat="45.363301457575524" lon="4.806432143550154"><ele>158.0</ele><time>2026-03-28T14:34:33Z</time></trkpt><trkpt lat="45.36304658818459" lon="4.8063596062984635"><ele>158.0</ele><time>2026-03-28T14:34:34Z</time></trkpt><trkpt lat="45.36279209963445" lon="4.806291176121458"><ele>158.0</ele><time>2026-03-28T14:34:35Z</time></trkpt><trkpt lat="45.36253822849112" lon="4.806226775830852"><ele>158.0</ele><time>2026-03-28T14:34:36Z</time></trkpt><trkpt lat="45.36228004742857" lon="4.8061648078479555"><ele>158.0</ele><time>2026-03-28T14:34:37Z</time></trkpt><trkpt lat="45.36202203117966" lon="4.8061046839380746"><ele>158.5</ele><time>2026-03-28T14:34:38Z</time></trkpt><trkpt lat="45.36176700117382" lon="4.806048010172529"><ele>159.0</ele><time>2026-03-28T14:34:39Z</time></trkpt><trkpt lat="45.36151170640736" lon="4.8059955000238"><ele>158.5</ele><time>2026-03-28T14:34:40Z</time></trkpt><trkpt lat="45.36125621104121" lon="4.805944284242149"><ele>158.0</ele><time>2026-03-28T14:34:41Z</time></trkpt><trkpt lat="45.3609997772685" lon="4.805890853310586"><ele>158.0</ele><time>2026-03-28T14:34:42Z</time></trkpt><trkpt lat="45.36074524484484" lon="4.805841298006158"><ele>158.0</ele><time>2026-03-28T14:34:43Z</time></trkpt><trkpt lat="45.360488773090786" lon="4.805794249934749"><ele>157.0</ele><time>2026-03-28T14:34:44Z</time></trkpt><trkpt lat="45.36023503271729" lon="4.805747792261338"><ele>156.0</ele><time>2026-03-28T14:34:45Z</time></trkpt><trkpt lat="45.35998193179242" lon="4.8057017046865775"><ele>156.0</ele><time>2026-03-28T14:34:46Z</time></trkpt><trkpt lat="45.35972709055715" lon="4.805652548266871"><ele>156.0</ele><time>2026-03-28T14:34:47Z</time></trkpt><trkpt lat="45.35947088494165" lon="4.805603867186541"><ele>155.0</ele><time>2026-03-28T14:34:48Z</time></trkpt><trkpt lat="45.35921678759021" lon="4.805552650491292"><ele>154.0</ele><time>2026-03-28T14:34:49Z</time></trkpt><trkpt lat="45.35896206000151" lon="4.805500403176451"><ele>153.5</ele><time>2026-03-28T14:34:50Z</time></trkpt><trkpt lat="45.35870517176241" lon="4.805448739538542"><ele>153.0</ele><time>2026-03-28T14:34:51Z</time></trkpt><trkpt lat="45.358451374983375" lon="4.805400456066683"><ele>153.0</ele><time>2026-03-28T14:34:52Z</time></trkpt><trkpt lat="45.358198761328715" lon="4.8053544428553145"><ele>153.0</ele><time>2026-03-28T14:34:53Z</time></trkpt><trkpt lat="45.35794314443097" lon="4.805307918144926"><ele>152.5</ele><time>2026-03-28T14:34:54Z</time></trkpt><trkpt lat="45.357687332530936" lon="4.8052616021409555"><ele>152.0</ele><time>2026-03-28T14:34:55Z</time></trkpt><trkpt lat="45.35743247028921" lon="4.8052154529853945"><ele>152.0</ele><time>2026-03-28T14:34:56Z</time></trkpt><trkpt lat="45.35717686803689" lon="4.8051728526929605"><ele>152.0</ele><time>2026-03-28T14:34:57Z</time></trkpt><trkpt lat="45.35692075351648" lon="4.805135733367649"><ele>151.5</ele><time>2026-03-28T14:34:58Z</time></trkpt><trkpt lat="45.356664376137914" lon="4.805102571372362"><ele>151.0</ele><time>2026-03-28T14:34:59Z</time></trkpt><trkpt lat="45.35640551476326" lon="4.805075126862194"><ele>151.0</ele><time>2026-03-28T14:35:00Z</time></trkpt><trkpt lat="45.356146142919734" lon="4.805053230129119"><ele>151.0</ele><time>2026-03-28T14:35:01Z</time></trkpt><trkpt lat="45.3558891627914" lon="4.805037280443678"><ele>151.0</ele><time>2026-03-28T14:35:02Z</time></trkpt><trkpt lat="45.35563292989918" lon="4.8050271194047"><ele>151.0</ele><time>2026-03-28T14:35:03Z</time></trkpt><trkpt lat="45.35537489814004" lon="4.805020064292669"><ele>151.5</ele><time>2026-03-28T14:35:04Z</time></trkpt><trkpt lat="45.35511776424083" lon="4.805017727749037"><ele>152.0</ele><time>2026-03-28T14:35:05Z</time></trkpt><trkpt lat="45.354861017536145" lon="4.8050189890077935"><ele>152.0</ele><time>2026-03-28T14:35:06Z</time></trkpt><trkpt lat="45.354603635124924" lon="4.805025348802589"><ele>152.0</ele><time>2026-03-28T14:35:07Z</time></trkpt><trkpt lat="45.35434634705882" lon="4.805037367130109"><ele>152.0</ele><time>2026-03-28T14:35:08Z</time></trkpt><trkpt lat="45.354089339892106" lon="4.805054765431771"><ele>152.0</ele><time>2026-03-28T14:35:09Z</time></trkpt><trkpt lat="45.35383147936102" lon="4.8050807875196035"><ele>152.0</ele><time>2026-03-28T14:35:10Z</time></trkpt><trkpt lat="45.353576445572195" lon="4.80511062588709"><ele>152.0</ele><time>2026-03-28T14:35:11Z</time></trkpt><trkpt lat="45.35332053404353" lon="4.805144933589441"><ele>152.0</ele><time>2026-03-28T14:35:12Z</time></trkpt><trkpt lat="45.35306517161462" lon="4.805182237266632"><ele>152.0</ele><time>2026-03-28T14:35:13Z</time></trkpt><trkpt lat="45.352810119446666" lon="4.805224687363105"><ele>152.5</ele><time>2026-03-28T14:35:14Z</time></trkpt><trkpt lat="45.352554997295755" lon="4.805272573883465"><ele>153.0</ele><time>2026-03-28T14:35:15Z</time></trkpt><trkpt lat="45.352298971795385" lon="4.8053266709266556"><ele>153.5</ele><time>2026-03-28T14:35:16Z</time></trkpt><trkpt lat="45.352043405719996" lon="4.805387701128853"><ele>154.0</ele><time>2026-03-28T14:35:17Z</time></trkpt><trkpt lat="45.35178475067552" lon="4.805453058524711"><ele>154.0</ele><time>2026-03-28T14:35:18Z</time></trkpt><trkpt lat="45.351532967284236" lon="4.80552424512113"><ele>154.0</ele><time>2026-03-28T14:35:19Z</time></trkpt><trkpt lat="45.351281390385815" lon="4.805596207747966"><ele>153.0</ele><time>2026-03-28T14:35:20Z</time></trkpt><trkpt lat="45.35102658661339" lon="4.805666431318567"><ele>152.0</ele><time>2026-03-28T14:35:21Z</time></trkpt><trkpt lat="45.350773242453364" lon="4.805736031003474"><ele>152.0</ele><time>2026-03-28T14:35:22Z</time></trkpt><trkpt lat="45.35051985690546" lon="4.805801695487589"><ele>152.0</ele><time>2026-03-28T14:35:23Z</time></trkpt><trkpt lat="45.350270245277684" lon="4.805869886063903"><ele>152.0</ele><time>2026-03-28T14:35:24Z</time></trkpt><trkpt lat="45.350020208357584" lon="4.805940601935372"><ele>152.0</ele><time>2026-03-28T14:35:25Z</time></trkpt><trkpt lat="45.34976996133553" lon="4.806011764414258"><ele>154.0</ele><time>2026-03-28T14:35:26Z</time></trkpt><trkpt lat="45.3495169807587" lon="4.806082069081638"><ele>156.0</ele><time>2026-03-28T14:35:27Z</time></trkpt><trkpt lat="45.34926713422219" lon="4.806152508585946"><ele>156.0</ele><time>2026-03-28T14:35:28Z</time></trkpt><trkpt lat="45.34901137911754" lon="4.806221004766525"><ele>156.0</ele><time>2026-03-28T14:35:29Z</time></trkpt><trkpt lat="45.3487587835025" lon="4.806287521270779"><ele>155.0</ele><time>2026-03-28T14:35:30Z</time></trkpt><trkpt lat="45.348507439476904" lon="4.806356389313314"><ele>154.0</ele><time>2026-03-28T14:35:31Z</time></trkpt><trkpt lat="45.34825520147532" lon="4.806425777031904"><ele>154.0</ele><time>2026-03-28T14:35:32Z</time></trkpt><trkpt lat="45.34800332862048" lon="4.806496507683077"><ele>154.0</ele><time>2026-03-28T14:35:33Z</time></trkpt><trkpt lat="45.3477506036404" lon="4.806569317087501"><ele>154.0</ele><time>2026-03-28T14:35:34Z</time></trkpt><trkpt lat="45.347497332771034" lon="4.806639716363993"><ele>154.0</ele><time>2026-03-28T14:35:35Z</time></trkpt><trkpt lat="45.347244860265974" lon="4.806706594268428"><ele>154.0</ele><time>2026-03-28T14:35:36Z</time></trkpt><trkpt lat="45.34699069496275" lon="4.806777825672868"><ele>154.0</ele><time>2026-03-28T14:35:37Z</time></trkpt><trkpt lat="45.3467321171185" lon="4.806843131625743"><ele>154.0</ele><time>2026-03-28T14:35:38Z</time></trkpt><trkpt lat="45.34648014832387" lon="4.806914146636818"><ele>154.0</ele><time>2026-03-28T14:35:39Z</time></trkpt><trkpt lat="45.346226453433516" lon="4.8069826275993135"><ele>155.0</ele><time>2026-03-28T14:35:40Z</time></trkpt><trkpt lat="45.34597414270852" lon="4.807054516170572"><ele>156.0</ele><time>2026-03-28T14:35:41Z</time></trkpt><trkpt lat="45.34571934561796" lon="4.807125398147689"><ele>156.0</ele><time>2026-03-28T14:35:42Z</time></trkpt><trkpt lat="45.34546837037408" lon="4.8072003874062545"><ele>156.0</ele><time>2026-03-28T14:35:43Z</time></trkpt><trkpt lat="45.3452134829168" lon="4.80727037465354"><ele>156.0</ele><time>2026-03-28T14:35:44Z</time></trkpt><trkpt lat="45.34496026831487" lon="4.807342345215293"><ele>156.0</ele><time>2026-03-28T14:35:45Z</time></trkpt><trkpt lat="45.34470783886459" lon="4.807413539896716"><ele>156.0</ele><time>2026-03-28T14:35:46Z</time></trkpt><trkpt lat="45.34445633806539" lon="4.807484367574088"><ele>156.0</ele><time>2026-03-28T14:35:47Z</time></trkpt><trkpt lat="45.344203984915836" lon="4.807556747230275"><ele>156.0</ele><time>2026-03-28T14:35:48Z</time></trkpt><trkpt lat="45.34395257329694" lon="4.807624178900801"><ele>156.0</ele><time>2026-03-28T14:35:49Z</time></trkpt><trkpt lat="45.343698968146306" lon="4.807687816484635"><ele>159.0</ele><time>2026-03-28T14:35:50Z</time></trkpt><trkpt lat="45.34344574709804" lon="4.80775557324347"><ele>162.0</ele><time>2026-03-28T14:35:51Z</time></trkpt><trkpt lat="45.343191538119434" lon="4.807825692281009"><ele>159.5</ele><time>2026-03-28T14:35:52Z</time></trkpt><trkpt lat="45.34294100312451" lon="4.80789860275834"><ele>157.0</ele><time>2026-03-28T14:35:53Z</time></trkpt><trkpt lat="45.34268759993494" lon="4.807963769755217"><ele>157.0</ele><time>2026-03-28T14:35:54Z</time></trkpt><trkpt lat="45.34243643073954" lon="4.808034223328645"><ele>157.0</ele><time>2026-03-28T14:35:55Z</time></trkpt><trkpt lat="45.34218113039975" lon="4.808100445176247"><ele>157.5</ele><time>2026-03-28T14:35:56Z</time></trkpt><trkpt lat="45.3419280385086" lon="4.8081675711647565"><ele>158.0</ele><time>2026-03-28T14:35:57Z</time></trkpt><trkpt lat="45.34167568595524" lon="4.808236215989604"><ele>158.0</ele><time>2026-03-28T14:35:58Z</time></trkpt><trkpt lat="45.34142242989968" lon="4.808302974291059"><ele>158.0</ele><time>2026-03-28T14:35:59Z</time></trkpt><trkpt lat="45.3411682756152" lon="4.808373548832365"><ele>158.0</ele><time>2026-03-28T14:36:00Z</time></trkpt><trkpt lat="45.340914912812096" lon="4.808444604520353"><ele>158.0</ele><time>2026-03-28T14:36:01Z</time></trkpt><trkpt lat="45.340662510402815" lon="4.808512810035646"><ele>159.0</ele><time>2026-03-28T14:36:02Z</time></trkpt><trkpt lat="45.340417312606284" lon="4.808581766839106"><ele>160.0</ele><time>2026-03-28T14:36:03Z</time></trkpt><trkpt lat="45.3401621140057" lon="4.8086506359700545"><ele>160.0</ele><time>2026-03-28T14:36:04Z</time></trkpt><trkpt lat="45.33990749111714" lon="4.808719076851713"><ele>160.0</ele><time>2026-03-28T14:36:05Z</time></trkpt><trkpt lat="45.33965434192955" lon="4.8087893520339176"><ele>159.5</ele><time>2026-03-28T14:36:06Z</time></trkpt><trkpt lat="45.33940139602779" lon="4.808858122805285"><ele>159.0</ele><time>2026-03-28T14:36:07Z</time></trkpt><trkpt lat="45.339148908227365" lon="4.808927849822873"><ele>159.0</ele><time>2026-03-28T14:36:08Z</time></trkpt><trkpt lat="45.33889403165778" lon="4.808998003022571"><ele>159.0</ele><time>2026-03-28T14:36:09Z</time></trkpt><trkpt lat="45.33864115769323" lon="4.809067082931461"><ele>160.0</ele><time>2026-03-28T14:36:10Z</time></trkpt><trkpt lat="45.33838775800615" lon="4.809137977131334"><ele>161.0</ele><time>2026-03-28T14:36:11Z</time></trkpt><trkpt lat="45.3381374161071" lon="4.809207624268687"><ele>160.5</ele><time>2026-03-28T14:36:12Z</time></trkpt><trkpt lat="45.33788265418458" lon="4.8092755241944145"><ele>160.0</ele><time>2026-03-28T14:36:13Z</time></trkpt><trkpt lat="45.337629277815786" lon="4.809343124914895"><ele>162.5</ele><time>2026-03-28T14:36:14Z</time></trkpt><trkpt lat="45.33737835290462" lon="4.809412800678917"><ele>165.0</ele><time>2026-03-28T14:36:15Z</time></trkpt><trkpt lat="45.33712463719758" lon="4.809483129514224"><ele>165.0</ele><time>2026-03-28T14:36:16Z</time></trkpt><trkpt lat="45.336872650735195" lon="4.80955653335981"><ele>165.0</ele><time>2026-03-28T14:36:17Z</time></trkpt><trkpt lat="45.336619811505095" lon="4.809626004448662"><ele>163.0</ele><time>2026-03-28T14:36:18Z</time></trkpt><trkpt lat="45.33636774674833" lon="4.809697648011027"><ele>161.0</ele><time>2026-03-28T14:36:19Z</time></trkpt><trkpt lat="45.33611264697932" lon="4.809766246155405"><ele>161.0</ele><time>2026-03-28T14:36:20Z</time></trkpt><trkpt lat="45.33585853669803" lon="4.809835695361879"><ele>161.0</ele><time>2026-03-28T14:36:21Z</time></trkpt><trkpt lat="45.33560573902176" lon="4.809905945083748"><ele>163.0</ele><time>2026-03-28T14:36:22Z</time></trkpt><trkpt lat="45.335353633687035" lon="4.809974419411735"><ele>165.0</ele><time>2026-03-28T14:36:23Z</time></trkpt><trkpt lat="45.335099848599505" lon="4.810041893448565"><ele>165.0</ele><time>2026-03-28T14:36:24Z</time></trkpt><trkpt lat="45.33484753466312" lon="4.810112270022281"><ele>165.0</ele><time>2026-03-28T14:36:25Z</time></trkpt><trkpt lat="45.334594619850385" lon="4.810181598091255"><ele>165.5</ele><time>2026-03-28T14:36:26Z</time></trkpt><trkpt lat="45.33433866111762" lon="4.8102511927481535"><ele>166.0</ele><time>2026-03-28T14:36:27Z</time></trkpt><trkpt lat="45.33408460119999" lon="4.810321854200095"><ele>166.0</ele><time>2026-03-28T14:36:28Z</time></trkpt><trkpt lat="45.3338256647626" lon="4.810388533277102"><ele>166.0</ele><time>2026-03-28T14:36:29Z</time></trkpt><trkpt lat="45.333569070276795" lon="4.810452437725566"><ele>166.0</ele><time>2026-03-28T14:36:30Z</time></trkpt><trkpt lat="45.3333137354562" lon="4.8105183976591"><ele>166.0</ele><time>2026-03-28T14:36:31Z</time></trkpt><trkpt lat="45.33305690764728" lon="4.810582491244432"><ele>166.0</ele><time>2026-03-28T14:36:32Z</time></trkpt><trkpt lat="45.33279916007517" lon="4.810643125258268"><ele>166.0</ele><time>2026-03-28T14:36:33Z</time></trkpt><trkpt lat="45.33254273708343" lon="4.810701788396663"><ele>166.0</ele><time>2026-03-28T14:36:34Z</time></trkpt><trkpt lat="45.332282396896574" lon="4.810759117633966"><ele>166.0</ele><time>2026-03-28T14:36:35Z</time></trkpt><trkpt lat="45.33202210272203" lon="4.810815328184573"><ele>167.0</ele><time>2026-03-28T14:36:36Z</time></trkpt><trkpt lat="45.331762192892896" lon="4.81087318228662"><ele>168.0</ele><time>2026-03-28T14:36:37Z</time></trkpt><trkpt lat="45.33150428973636" lon="4.810928859698061"><ele>168.0</ele><time>2026-03-28T14:36:38Z</time></trkpt><trkpt lat="45.33124482605906" lon="4.810984494418304"><ele>168.0</ele><time>2026-03-28T14:36:39Z</time></trkpt><trkpt lat="45.33098440468954" lon="4.811038205733348"><ele>168.0</ele><time>2026-03-28T14:36:40Z</time></trkpt><trkpt lat="45.330721883527104" lon="4.811088289354343"><ele>168.0</ele><time>2026-03-28T14:36:41Z</time></trkpt><trkpt lat="45.33045989632309" lon="4.811142120352357"><ele>167.0</ele><time>2026-03-28T14:36:42Z</time></trkpt><trkpt lat="45.33019619735016" lon="4.811195751665774"><ele>166.0</ele><time>2026-03-28T14:36:43Z</time></trkpt><trkpt lat="45.32993393810376" lon="4.811243908659338"><ele>166.5</ele><time>2026-03-28T14:36:44Z</time></trkpt><trkpt lat="45.32967412394142" lon="4.811291311445919"><ele>167.0</ele><time>2026-03-28T14:36:45Z</time></trkpt><trkpt lat="45.329415434554264" lon="4.8113386023185365"><ele>167.0</ele><time>2026-03-28T14:36:46Z</time></trkpt><trkpt lat="45.32915840481719" lon="4.8113805834120065"><ele>167.0</ele><time>2026-03-28T14:36:47Z</time></trkpt><trkpt lat="45.32890250962636" lon="4.8114297976521785"><ele>166.5</ele><time>2026-03-28T14:36:48Z</time></trkpt><trkpt lat="45.32864596400919" lon="4.811483611715296"><ele>166.0</ele><time>2026-03-28T14:36:49Z</time></trkpt><trkpt lat="45.32838773397153" lon="4.811530431414384"><ele>166.0</ele><time>2026-03-28T14:36:50Z</time></trkpt><trkpt lat="45.32813037693537" lon="4.811576424482378"><ele>166.0</ele><time>2026-03-28T14:36:51Z</time></trkpt><trkpt lat="45.32787378058978" lon="4.811619451181712"><ele>163.5</ele><time>2026-03-28T14:36:52Z</time></trkpt><trkpt lat="45.327615512689505" lon="4.811655505681726"><ele>161.0</ele><time>2026-03-28T14:36:53Z</time></trkpt><trkpt lat="45.327354832390846" lon="4.811684906205883"><ele>158.5</ele><time>2026-03-28T14:36:54Z</time></trkpt><trkpt lat="45.3270970954832" lon="4.811713698823843"><ele>156.0</ele><time>2026-03-28T14:36:55Z</time></trkpt><trkpt lat="45.32683898630205" lon="4.811744204119667"><ele>156.0</ele><time>2026-03-28T14:36:56Z</time></trkpt><trkpt lat="45.326580425500765" lon="4.8117710420793465"><ele>156.0</ele><time>2026-03-28T14:36:57Z</time></trkpt><trkpt lat="45.32632192415047" lon="4.811802418552671"><ele>158.5</ele><time>2026-03-28T14:36:58Z</time></trkpt><trkpt lat="45.32606141982629" lon="4.811828293948552"><ele>161.0</ele><time>2026-03-28T14:36:59Z</time></trkpt><trkpt lat="45.32579797160874" lon="4.81185741185686"><ele>162.0</ele><time>2026-03-28T14:37:00Z</time></trkpt><trkpt lat="45.3255355095283" lon="4.811882976609497"><ele>163.0</ele><time>2026-03-28T14:37:01Z</time></trkpt><trkpt lat="45.32527227108524" lon="4.811906116292811"><ele>163.0</ele><time>2026-03-28T14:37:02Z</time></trkpt><trkpt lat="45.3250083917872" lon="4.8119298826822465"><ele>163.0</ele><time>2026-03-28T14:37:03Z</time></trkpt><trkpt lat="45.32474175236231" lon="4.8119504745131545"><ele>161.0</ele><time>2026-03-28T14:37:04Z</time></trkpt><trkpt lat="45.32447622700049" lon="4.811967724554931"><ele>159.0</ele><time>2026-03-28T14:37:05Z</time></trkpt><trkpt lat="45.32420846919719" lon="4.811989135960372"><ele>159.0</ele><time>2026-03-28T14:37:06Z</time></trkpt><trkpt lat="45.32393834788779" lon="4.812013490433507"><ele>159.0</ele><time>2026-03-28T14:37:07Z</time></trkpt><trkpt lat="45.32367239482363" lon="4.812031271465327"><ele>156.5</ele><time>2026-03-28T14:37:08Z</time></trkpt><trkpt lat="45.32340229788597" lon="4.8120485287839045"><ele>154.0</ele><time>2026-03-28T14:37:09Z</time></trkpt><trkpt lat="45.32313163284929" lon="4.812056170976502"><ele>153.0</ele><time>2026-03-28T14:37:10Z</time></trkpt><trkpt lat="45.32286445869767" lon="4.812066734749606"><ele>152.0</ele><time>2026-03-28T14:37:11Z</time></trkpt><trkpt lat="45.32259215974394" lon="4.812072950818919"><ele>152.0</ele><time>2026-03-28T14:37:12Z</time></trkpt><trkpt lat="45.32232062941413" lon="4.812076257119338"><ele>152.0</ele><time>2026-03-28T14:37:13Z</time></trkpt><trkpt lat="45.322052698882594" lon="4.812082110316709"><ele>152.0</ele><time>2026-03-28T14:37:14Z</time></trkpt><trkpt lat="45.32178429215529" lon="4.812085745586739"><ele>152.0</ele><time>2026-03-28T14:37:15Z</time></trkpt><trkpt lat="45.32151774971144" lon="4.812091970705089"><ele>151.0</ele><time>2026-03-28T14:37:16Z</time></trkpt><trkpt lat="45.32124704614985" lon="4.812094850876933"><ele>150.0</ele><time>2026-03-28T14:37:17Z</time></trkpt><trkpt lat="45.320977116382544" lon="4.812093338429418"><ele>150.0</ele><time>2026-03-28T14:37:18Z</time></trkpt><trkpt lat="45.320706698479704" lon="4.8120905675334695"><ele>150.0</ele><time>2026-03-28T14:37:19Z</time></trkpt><trkpt lat="45.32043307234832" lon="4.812085517075382"><ele>149.5</ele><time>2026-03-28T14:37:20Z</time></trkpt><trkpt lat="45.32016072796258" lon="4.8120792300599575"><ele>149.0</ele><time>2026-03-28T14:37:21Z</time></trkpt><trkpt lat="45.31988810752161" lon="4.812070822356741"><ele>147.0</ele><time>2026-03-28T14:37:22Z</time></trkpt><trkpt lat="45.31961470849205" lon="4.812063658083955"><ele>145.0</ele><time>2026-03-28T14:37:23Z</time></trkpt><trkpt lat="45.319341043143936" lon="4.812057377737918"><ele>145.0</ele><time>2026-03-28T14:37:24Z</time></trkpt><trkpt lat="45.31906705891533" lon="4.81204894507919"><ele>145.0</ele><time>2026-03-28T14:37:25Z</time></trkpt><trkpt lat="45.31879254553359" lon="4.812039310388357"><ele>145.0</ele><time>2026-03-28T14:37:26Z</time></trkpt><trkpt lat="45.318516215015144" lon="4.812027086745323"><ele>145.0</ele><time>2026-03-28T14:37:27Z</time></trkpt><trkpt lat="45.318241660545716" lon="4.812014300347791"><ele>145.5</ele><time>2026-03-28T14:37:28Z</time></trkpt><trkpt lat="45.31796649286269" lon="4.811999235472513"><ele>146.0</ele><time>2026-03-28T14:37:29Z</time></trkpt><trkpt lat="45.31769147214647" lon="4.811981077267014"><ele>146.0</ele><time>2026-03-28T14:37:30Z</time></trkpt><trkpt lat="45.317415376837396" lon="4.811960145937912"><ele>146.0</ele><time>2026-03-28T14:37:31Z</time></trkpt><trkpt lat="45.31714273994701" lon="4.8119396216111525"><ele>146.0</ele><time>2026-03-28T14:37:32Z</time></trkpt><trkpt lat="45.316867146864375" lon="4.811919265971643"><ele>146.0</ele><time>2026-03-28T14:37:33Z</time></trkpt><trkpt lat="45.3165931574099" lon="4.811898058594872"><ele>145.5</ele><time>2026-03-28T14:37:34Z</time></trkpt><trkpt lat="45.31631818518261" lon="4.811877964090423"><ele>145.0</ele><time>2026-03-28T14:37:35Z</time></trkpt><trkpt lat="45.316049972036986" lon="4.81185934881534"><ele>145.0</ele><time>2026-03-28T14:37:36Z</time></trkpt><trkpt lat="45.315780159365346" lon="4.811836965423213"><ele>145.0</ele><time>2026-03-28T14:37:37Z</time></trkpt><trkpt lat="45.315508393684055" lon="4.811815969495862"><ele>145.5</ele><time>2026-03-28T14:37:38Z</time></trkpt><trkpt lat="45.31523979569379" lon="4.811796266685302"><ele>146.0</ele><time>2026-03-28T14:37:39Z</time></trkpt><trkpt lat="45.31496928441521" lon="4.811775806640081"><ele>145.5</ele><time>2026-03-28T14:37:40Z</time></trkpt><trkpt lat="45.314699113388976" lon="4.811757197135858"><ele>145.0</ele><time>2026-03-28T14:37:41Z</time></trkpt><trkpt lat="45.31443018467825" lon="4.811738072116034"><ele>145.0</ele><time>2026-03-28T14:37:42Z</time></trkpt><trkpt lat="45.31416221944644" lon="4.8117198874704075"><ele>145.0</ele><time>2026-03-28T14:37:43Z</time></trkpt><trkpt lat="45.31389414886158" lon="4.811703369810019"><ele>145.0</ele><time>2026-03-28T14:37:44Z</time></trkpt><trkpt lat="45.31362331989278" lon="4.811682188031415"><ele>145.0</ele><time>2026-03-28T14:37:45Z</time></trkpt><trkpt lat="45.313354742057314" lon="4.8116598180883665"><ele>145.0</ele><time>2026-03-28T14:37:46Z</time></trkpt><trkpt lat="45.31308663158491" lon="4.8116375392321595"><ele>145.0</ele><time>2026-03-28T14:37:47Z</time></trkpt><trkpt lat="45.31281803641568" lon="4.8116173818507955"><ele>144.5</ele><time>2026-03-28T14:37:48Z</time></trkpt><trkpt lat="45.31255014041629" lon="4.811594404161827"><ele>144.0</ele><time>2026-03-28T14:37:49Z</time></trkpt><trkpt lat="45.31228251355572" lon="4.81157095650472"><ele>144.0</ele><time>2026-03-28T14:37:50Z</time></trkpt><trkpt lat="45.3120157794552" lon="4.811543674139681"><ele>144.0</ele><time>2026-03-28T14:37:51Z</time></trkpt><trkpt lat="45.31174874193975" lon="4.811525092228942"><ele>144.0</ele><time>2026-03-28T14:37:52Z</time></trkpt><trkpt lat="45.3114811415966" lon="4.811516169446491"><ele>144.0</ele><time>2026-03-28T14:37:53Z</time></trkpt><trkpt lat="45.31121117656455" lon="4.8115109889578225"><ele>143.5</ele><time>2026-03-28T14:37:54Z</time></trkpt><trkpt lat="45.31094252778569" lon="4.811510759274659"><ele>143.0</ele><time>2026-03-28T14:37:55Z</time></trkpt><trkpt lat="45.310671207914105" lon="4.811530744357313"><ele>144.5</ele><time>2026-03-28T14:37:56Z</time></trkpt><trkpt lat="45.31040292578627" lon="4.811546410634315"><ele>146.0</ele><time>2026-03-28T14:37:57Z</time></trkpt><trkpt lat="45.31013431395275" lon="4.811592314915576"><ele>146.0</ele><time>2026-03-28T14:37:58Z</time></trkpt><trkpt lat="45.30986454637146" lon="4.81163991894418"><ele>146.0</ele><time>2026-03-28T14:37:59Z</time></trkpt><trkpt lat="45.30960110165177" lon="4.811695534018878"><ele>148.5</ele><time>2026-03-28T14:38:00Z</time></trkpt><trkpt lat="45.3093349991512" lon="4.811760548610371"><ele>151.0</ele><time>2026-03-28T14:38:01Z</time></trkpt><trkpt lat="45.30907112766054" lon="4.811841271565531"><ele>158.0</ele><time>2026-03-28T14:38:02Z</time></trkpt><trkpt lat="45.30880580631303" lon="4.811916463945946"><ele>165.0</ele><time>2026-03-28T14:38:03Z</time></trkpt><trkpt lat="45.30854702619841" lon="4.812008887540471"><ele>165.0</ele><time>2026-03-28T14:38:04Z</time></trkpt><trkpt lat="45.30828702202658" lon="4.812104203354237"><ele>165.0</ele><time>2026-03-28T14:38:05Z</time></trkpt><trkpt lat="45.308027336052085" lon="4.812205151923827"><ele>164.5</ele><time>2026-03-28T14:38:06Z</time></trkpt><trkpt lat="45.30776743268461" lon="4.812309686486877"><ele>164.0</ele><time>2026-03-28T14:38:07Z</time></trkpt><trkpt lat="45.307509574004875" lon="4.812422494297152"><ele>164.0</ele><time>2026-03-28T14:38:08Z</time></trkpt><trkpt lat="45.307251224064494" lon="4.812543812303964"><ele>164.0</ele><time>2026-03-28T14:38:09Z</time></trkpt><trkpt lat="45.30699531488671" lon="4.812670459337322"><ele>167.0</ele><time>2026-03-28T14:38:10Z</time></trkpt><trkpt lat="45.306743559123866" lon="4.812812908180962"><ele>170.0</ele><time>2026-03-28T14:38:11Z</time></trkpt><trkpt lat="45.30648654547982" lon="4.8129579341465245"><ele>168.0</ele><time>2026-03-28T14:38:12Z</time></trkpt><trkpt lat="45.306229579494754" lon="4.813116742665413"><ele>166.0</ele><time>2026-03-28T14:38:13Z</time></trkpt><trkpt lat="45.305981169144985" lon="4.813275922999613"><ele>166.0</ele><time>2026-03-28T14:38:14Z</time></trkpt><trkpt lat="45.30573323848532" lon="4.813446836942489"><ele>166.0</ele><time>2026-03-28T14:38:15Z</time></trkpt><trkpt lat="45.30548791680828" lon="4.81362886064951"><ele>165.5</ele><time>2026-03-28T14:38:16Z</time></trkpt><trkpt lat="45.30524667813824" lon="4.813810441955303"><ele>165.0</ele><time>2026-03-28T14:38:17Z</time></trkpt><trkpt lat="45.30500438045365" lon="4.813998421512028"><ele>165.0</ele><time>2026-03-28T14:38:18Z</time></trkpt><trkpt lat="45.30476570687819" lon="4.814193859817424"><ele>165.0</ele><time>2026-03-28T14:38:19Z</time></trkpt><trkpt lat="45.304530242436684" lon="4.814401982984826"><ele>161.5</ele><time>2026-03-28T14:38:20Z</time></trkpt><trkpt lat="45.30429307180459" lon="4.814610923269245"><ele>158.0</ele><time>2026-03-28T14:38:21Z</time></trkpt><trkpt lat="45.30405742605675" lon="4.814824412553696"><ele>158.0</ele><time>2026-03-28T14:38:22Z</time></trkpt><trkpt lat="45.303827160709865" lon="4.815050102252716"><ele>158.0</ele><time>2026-03-28T14:38:23Z</time></trkpt><trkpt lat="45.30359997439075" lon="4.815278705794429"><ele>157.5</ele><time>2026-03-28T14:38:24Z</time></trkpt><trkpt lat="45.303377440433515" lon="4.815512816216963"><ele>157.0</ele><time>2026-03-28T14:38:25Z</time></trkpt><trkpt lat="45.30315625762273" lon="4.815754513110048"><ele>157.0</ele><time>2026-03-28T14:38:26Z</time></trkpt><trkpt lat="45.30294074866533" lon="4.8160027721446"><ele>157.0</ele><time>2026-03-28T14:38:27Z</time></trkpt><trkpt lat="45.30272882320784" lon="4.816260302860505"><ele>157.0</ele><time>2026-03-28T14:38:28Z</time></trkpt><trkpt lat="45.302525099792234" lon="4.816517767825566"><ele>157.0</ele><time>2026-03-28T14:38:29Z</time></trkpt><trkpt lat="45.302326959350516" lon="4.816779320632173"><ele>155.5</ele><time>2026-03-28T14:38:30Z</time></trkpt><trkpt lat="45.30213855476923" lon="4.817044882449815"><ele>154.0</ele><time>2026-03-28T14:38:31Z</time></trkpt><trkpt lat="45.3019521652971" lon="4.817300991168677"><ele>154.0</ele><time>2026-03-28T14:38:32Z</time></trkpt><trkpt lat="45.3017662085825" lon="4.817548887154793"><ele>154.0</ele><time>2026-03-28T14:38:33Z</time></trkpt><trkpt lat="45.3015798499562" lon="4.817792619969072"><ele>152.0</ele><time>2026-03-28T14:38:34Z</time></trkpt><trkpt lat="45.301400533412696" lon="4.81803614125458"><ele>150.0</ele><time>2026-03-28T14:38:35Z</time></trkpt><trkpt lat="45.301221995911725" lon="4.8182783767554485"><ele>150.5</ele><time>2026-03-28T14:38:36Z</time></trkpt><trkpt lat="45.30104384841893" lon="4.818522329667211"><ele>151.0</ele><time>2026-03-28T14:38:37Z</time></trkpt><trkpt lat="45.30085780724749" lon="4.8187712767369195"><ele>151.0</ele><time>2026-03-28T14:38:38Z</time></trkpt><trkpt lat="45.30067287199839" lon="4.819015558297748"><ele>151.0</ele><time>2026-03-28T14:38:39Z</time></trkpt><trkpt lat="45.3004881995438" lon="4.819263370956428"><ele>149.5</ele><time>2026-03-28T14:38:40Z</time></trkpt><trkpt lat="45.300303749564975" lon="4.819516574974079"><ele>148.0</ele><time>2026-03-28T14:38:41Z</time></trkpt><trkpt lat="45.30011822792232" lon="4.819773357771395"><ele>148.0</ele><time>2026-03-28T14:38:42Z</time></trkpt><trkpt lat="45.29993670955713" lon="4.8200261103234325"><ele>148.0</ele><time>2026-03-28T14:38:43Z</time></trkpt><trkpt lat="45.2997527602589" lon="4.820276299296833"><ele>148.0</ele><time>2026-03-28T14:38:44Z</time></trkpt><trkpt lat="45.29957172937295" lon="4.820522213375599"><ele>148.0</ele><time>2026-03-28T14:38:45Z</time></trkpt><trkpt lat="45.299385572927186" lon="4.8207600762475264"><ele>149.0</ele><time>2026-03-28T14:38:46Z</time></trkpt><trkpt lat="45.29919516137402" lon="4.820993299481333"><ele>150.0</ele><time>2026-03-28T14:38:47Z</time></trkpt><trkpt lat="45.29900619198011" lon="4.821232492434548"><ele>150.5</ele><time>2026-03-28T14:38:48Z</time></trkpt><trkpt lat="45.2988095895385" lon="4.821461514863549"><ele>151.0</ele><time>2026-03-28T14:38:49Z</time></trkpt><trkpt lat="45.29860482728251" lon="4.821679804780762"><ele>151.5</ele><time>2026-03-28T14:38:50Z</time></trkpt><trkpt lat="45.29839293188567" lon="4.821883405026956"><ele>152.0</ele><time>2026-03-28T14:38:51Z</time></trkpt><trkpt lat="45.298172207151296" lon="4.82208079643136"><ele>152.0</ele><time>2026-03-28T14:38:52Z</time></trkpt><trkpt lat="45.29794547115035" lon="4.822266711331343"><ele>152.0</ele><time>2026-03-28T14:38:53Z</time></trkpt><trkpt lat="45.297714792052204" lon="4.822442662813252"><ele>152.0</ele><time>2026-03-28T14:38:54Z</time></trkpt><trkpt lat="45.29747771818171" lon="4.822608553388239"><ele>152.0</ele><time>2026-03-28T14:38:55Z</time></trkpt><trkpt lat="45.29723574958965" lon="4.822764457805908"><ele>151.5</ele><time>2026-03-28T14:38:56Z</time></trkpt><trkpt lat="45.29699281428747" lon="4.822914378408525"><ele>151.0</ele><time>2026-03-28T14:38:57Z</time></trkpt><trkpt lat="45.29674457319714" lon="4.823057197261366"><ele>151.0</ele><time>2026-03-28T14:38:58Z</time></trkpt><trkpt lat="45.296492451170856" lon="4.82318779573"><ele>151.0</ele><time>2026-03-28T14:38:59Z</time></trkpt><trkpt lat="45.29623785489094" lon="4.823309157468584"><ele>153.5</ele><time>2026-03-28T14:39:00Z</time></trkpt><trkpt lat="45.29598003251551" lon="4.823423662660705"><ele>156.0</ele><time>2026-03-28T14:39:01Z</time></trkpt><trkpt lat="45.29571969905191" lon="4.82352492164727"><ele>159.5</ele><time>2026-03-28T14:39:02Z</time></trkpt><trkpt lat="45.29545840532261" lon="4.823616596606325"><ele>163.0</ele><time>2026-03-28T14:39:03Z</time></trkpt><trkpt lat="45.29519419702706" lon="4.823696760960423"><ele>163.0</ele><time>2026-03-28T14:39:04Z</time></trkpt><trkpt lat="45.29492466429237" lon="4.823764997699362"><ele>163.0</ele><time>2026-03-28T14:39:05Z</time></trkpt><trkpt lat="45.294653332057074" lon="4.823820909156426"><ele>163.0</ele><time>2026-03-28T14:39:06Z</time></trkpt><trkpt lat="45.29438032411304" lon="4.8238610103978266"><ele>163.0</ele><time>2026-03-28T14:39:07Z</time></trkpt><trkpt lat="45.294107689911066" lon="4.82389293951503"><ele>161.5</ele><time>2026-03-28T14:39:08Z</time></trkpt><trkpt lat="45.29383227169547" lon="4.823912927321742"><ele>160.0</ele><time>2026-03-28T14:39:09Z</time></trkpt><trkpt lat="45.29355947565834" lon="4.823922310084202"><ele>160.0</ele><time>2026-03-28T14:39:10Z</time></trkpt><trkpt lat="45.29328585087935" lon="4.823924927094336"><ele>160.0</ele><time>2026-03-28T14:39:11Z</time></trkpt><trkpt lat="45.29301446937401" lon="4.823911538380387"><ele>159.5</ele><time>2026-03-28T14:39:12Z</time></trkpt><trkpt lat="45.29274106245821" lon="4.823884503476637"><ele>159.0</ele><time>2026-03-28T14:39:13Z</time></trkpt><trkpt lat="45.292468874924225" lon="4.823846056892507"><ele>159.0</ele><time>2026-03-28T14:39:14Z</time></trkpt><trkpt lat="45.29219791727369" lon="4.823794662572725"><ele>159.0</ele><time>2026-03-28T14:39:15Z</time></trkpt><trkpt lat="45.291928415467176" lon="4.8237327419690805"><ele>159.0</ele><time>2026-03-28T14:39:16Z</time></trkpt><trkpt lat="45.29165811337403" lon="4.8236590427109345"><ele>159.0</ele><time>2026-03-28T14:39:17Z</time></trkpt><trkpt lat="45.29138871932963" lon="4.823572126245914"><ele>160.0</ele><time>2026-03-28T14:39:18Z</time></trkpt><trkpt lat="45.291122022550006" lon="4.8234778556118805"><ele>161.0</ele><time>2026-03-28T14:39:19Z</time></trkpt><trkpt lat="45.290859525121256" lon="4.82338052875695"><ele>161.0</ele><time>2026-03-28T14:39:20Z</time></trkpt><trkpt lat="45.290595920114505" lon="4.823285758551005"><ele>161.0</ele><time>2026-03-28T14:39:21Z</time></trkpt><trkpt lat="45.2903326995566" lon="4.82319156765464"><ele>160.0</ele><time>2026-03-28T14:39:22Z</time></trkpt><trkpt lat="45.290070133323105" lon="4.823099822185982"><ele>159.0</ele><time>2026-03-28T14:39:23Z</time></trkpt><trkpt lat="45.28980799563569" lon="4.823004794185026"><ele>159.0</ele><time>2026-03-28T14:39:24Z</time></trkpt><trkpt lat="45.28954626082741" lon="4.822912272000564"><ele>159.0</ele><time>2026-03-28T14:39:25Z</time></trkpt><trkpt lat="45.28928124023694" lon="4.822818199626174"><ele>159.0</ele><time>2026-03-28T14:39:26Z</time></trkpt><trkpt lat="45.28901842569897" lon="4.82272412167304"><ele>159.0</ele><time>2026-03-28T14:39:27Z</time></trkpt><trkpt lat="45.28875374787272" lon="4.822632042973243"><ele>159.5</ele><time>2026-03-28T14:39:28Z</time></trkpt><trkpt lat="45.288489412659345" lon="4.8225461186889245"><ele>160.0</ele><time>2026-03-28T14:39:29Z</time></trkpt><trkpt lat="45.28822573788236" lon="4.822460536717299"><ele>160.0</ele><time>2026-03-28T14:39:30Z</time></trkpt><trkpt lat="45.28796155369627" lon="4.822374253418588"><ele>160.0</ele><time>2026-03-28T14:39:31Z</time></trkpt><trkpt lat="45.28769654129849" lon="4.822287597119292"><ele>160.0</ele><time>2026-03-28T14:39:32Z</time></trkpt><trkpt lat="45.287433161784016" lon="4.822200818049482"><ele>160.0</ele><time>2026-03-28T14:39:33Z</time></trkpt><trkpt lat="45.2871683343503" lon="4.82212020578912"><ele>159.0</ele><time>2026-03-28T14:39:34Z</time></trkpt><trkpt lat="45.28690430717032" lon="4.822046014090517"><ele>158.0</ele><time>2026-03-28T14:39:35Z</time></trkpt><trkpt lat="45.28664306185239" lon="4.821980927030011"><ele>158.5</ele><time>2026-03-28T14:39:36Z</time></trkpt><trkpt lat="45.28637522184479" lon="4.8219242570671765"><ele>159.0</ele><time>2026-03-28T14:39:37Z</time></trkpt><trkpt lat="45.28610756451049" lon="4.821878040525362"><ele>159.0</ele><time>2026-03-28T14:39:38Z</time></trkpt><trkpt lat="45.28583698287752" lon="4.8218431727062105"><ele>159.0</ele><time>2026-03-28T14:39:39Z</time></trkpt><trkpt lat="45.28556869470284" lon="4.821818276733293"><ele>158.5</ele><time>2026-03-28T14:39:40Z</time></trkpt><trkpt lat="45.28530154966446" lon="4.8218066857656945"><ele>158.0</ele><time>2026-03-28T14:39:41Z</time></trkpt><trkpt lat="45.285032998561825" lon="4.821812654424976"><ele>158.0</ele><time>2026-03-28T14:39:42Z</time></trkpt><trkpt lat="45.28476226864105" lon="4.821819412930903"><ele>158.0</ele><time>2026-03-28T14:39:43Z</time></trkpt><trkpt lat="45.28448715537765" lon="4.8218397580751455"><ele>158.0</ele><time>2026-03-28T14:39:44Z</time></trkpt><trkpt lat="45.28421780345718" lon="4.821868014286718"><ele>158.0</ele><time>2026-03-28T14:39:45Z</time></trkpt><trkpt lat="45.28394754332479" lon="4.821904379323817"><ele>158.5</ele><time>2026-03-28T14:39:46Z</time></trkpt><trkpt lat="45.28367958224619" lon="4.821944240339038"><ele>159.0</ele><time>2026-03-28T14:39:47Z</time></trkpt><trkpt lat="45.28341277116362" lon="4.822000234982727"><ele>159.0</ele><time>2026-03-28T14:39:48Z</time></trkpt><trkpt lat="45.283149250129796" lon="4.8220734425786"><ele>159.0</ele><time>2026-03-28T14:39:49Z</time></trkpt><trkpt lat="45.28288321270965" lon="4.82216565243542"><ele>159.0</ele><time>2026-03-28T14:39:50Z</time></trkpt><trkpt lat="45.2826226601082" lon="4.822269508559934"><ele>159.0</ele><time>2026-03-28T14:39:51Z</time></trkpt><trkpt lat="45.28236830084892" lon="4.8223842576414215"><ele>159.0</ele><time>2026-03-28T14:39:52Z</time></trkpt><trkpt lat="45.28211667360237" lon="4.822506021672122"><ele>159.0</ele><time>2026-03-28T14:39:53Z</time></trkpt><trkpt lat="45.28186350548495" lon="4.822640970138311"><ele>158.5</ele><time>2026-03-28T14:39:54Z</time></trkpt><trkpt lat="45.281616184659164" lon="4.822793128828184"><ele>158.0</ele><time>2026-03-28T14:39:55Z</time></trkpt><trkpt lat="45.28136592919616" lon="4.822947881629144"><ele>158.0</ele><time>2026-03-28T14:39:56Z</time></trkpt><trkpt lat="45.28111961333577" lon="4.823119066254078"><ele>158.0</ele><time>2026-03-28T14:39:57Z</time></trkpt><trkpt lat="45.280878237793836" lon="4.823291692111144"><ele>157.5</ele><time>2026-03-28T14:39:58Z</time></trkpt><trkpt lat="45.28064108688402" lon="4.823482609474499"><ele>157.0</ele><time>2026-03-28T14:39:59Z</time></trkpt><trkpt lat="45.28040636886761" lon="4.82367726328667"><ele>158.0</ele><time>2026-03-28T14:40:00Z</time></trkpt><trkpt lat="45.280174153320985" lon="4.823875191002962"><ele>159.0</ele><time>2026-03-28T14:40:01Z</time></trkpt><trkpt lat="45.279945950329086" lon="4.824082266285853"><ele>159.0</ele><time>2026-03-28T14:40:02Z</time></trkpt><trkpt lat="45.27971857099106" lon="4.82429018032835"><ele>159.0</ele><time>2026-03-28T14:40:03Z</time></trkpt><trkpt lat="45.279488775525365" lon="4.824498182161173"><ele>159.5</ele><time>2026-03-28T14:40:04Z</time></trkpt><trkpt lat="45.279262144923415" lon="4.824703984216523"><ele>160.0</ele><time>2026-03-28T14:40:05Z</time></trkpt><trkpt lat="45.279034568176925" lon="4.8249110488405815"><ele>159.5</ele><time>2026-03-28T14:40:06Z</time></trkpt><trkpt lat="45.27880638809246" lon="4.825116907530609"><ele>159.0</ele><time>2026-03-28T14:40:07Z</time></trkpt><trkpt lat="45.278578021123785" lon="4.825322081955976"><ele>160.0</ele><time>2026-03-28T14:40:08Z</time></trkpt><trkpt lat="45.27834850396074" lon="4.825526181990811"><ele>161.0</ele><time>2026-03-28T14:40:09Z</time></trkpt><trkpt lat="45.27811961865167" lon="4.825730582974241"><ele>161.0</ele><time>2026-03-28T14:40:10Z</time></trkpt><trkpt lat="45.27789202312038" lon="4.825938294064409"><ele>161.0</ele><time>2026-03-28T14:40:11Z</time></trkpt><trkpt lat="45.277664914480674" lon="4.826140030160831"><ele>161.0</ele><time>2026-03-28T14:40:12Z</time></trkpt><trkpt lat="45.2774355584793" lon="4.8263455571155465"><ele>161.0</ele><time>2026-03-28T14:40:13Z</time></trkpt><trkpt lat="45.277207064072876" lon="4.826549485332126"><ele>160.5</ele><time>2026-03-28T14:40:14Z</time></trkpt><trkpt lat="45.2769764012134" lon="4.826756628437273"><ele>160.0</ele><time>2026-03-28T14:40:15Z</time></trkpt><trkpt lat="45.276747870546195" lon="4.826961222102289"><ele>160.5</ele><time>2026-03-28T14:40:16Z</time></trkpt><trkpt lat="45.27651918493401" lon="4.827165581467548"><ele>161.0</ele><time>2026-03-28T14:40:17Z</time></trkpt><trkpt lat="45.27629052770899" lon="4.827370349886743"><ele>161.0</ele><time>2026-03-28T14:40:18Z</time></trkpt><trkpt lat="45.27606258976477" lon="4.827575656074005"><ele>161.0</ele><time>2026-03-28T14:40:19Z</time></trkpt><trkpt lat="45.27583383345399" lon="4.827779626171303"><ele>161.0</ele><time>2026-03-28T14:40:20Z</time></trkpt><trkpt lat="45.27560596978817" lon="4.827984547436727"><ele>161.0</ele><time>2026-03-28T14:40:21Z</time></trkpt><trkpt lat="45.275378134534805" lon="4.828190261887712"><ele>161.0</ele><time>2026-03-28T14:40:22Z</time></trkpt><trkpt lat="45.27514863922219" lon="4.828392903348062"><ele>161.0</ele><time>2026-03-28T14:40:23Z</time></trkpt><trkpt lat="45.274919340495586" lon="4.828597329096549"><ele>160.5</ele><time>2026-03-28T14:40:24Z</time></trkpt><trkpt lat="45.27469024924134" lon="4.828804264290395"><ele>160.0</ele><time>2026-03-28T14:40:25Z</time></trkpt><trkpt lat="45.27445747981607" lon="4.829013412630965"><ele>160.0</ele><time>2026-03-28T14:40:26Z</time></trkpt><trkpt lat="45.27422740562753" lon="4.8292182033927356"><ele>160.0</ele><time>2026-03-28T14:40:27Z</time></trkpt><trkpt lat="45.273996769668635" lon="4.829426106671305"><ele>159.0</ele><time>2026-03-28T14:40:28Z</time></trkpt><trkpt lat="45.27376686747836" lon="4.829630951927119"><ele>158.0</ele><time>2026-03-28T14:40:29Z</time></trkpt><trkpt lat="45.27353684145437" lon="4.829841455004262"><ele>158.0</ele><time>2026-03-28T14:40:30Z</time></trkpt><trkpt lat="45.27330786705187" lon="4.830048445866566"><ele>158.0</ele><time>2026-03-28T14:40:31Z</time></trkpt><trkpt lat="45.27308058077207" lon="4.830253172413446"><ele>159.5</ele><time>2026-03-28T14:40:32Z</time></trkpt><trkpt lat="45.27285189655689" lon="4.830458134164015"><ele>161.0</ele><time>2026-03-28T14:40:33Z</time></trkpt><trkpt lat="45.27262442902294" lon="4.830662294618611"><ele>161.0</ele><time>2026-03-28T14:40:34Z</time></trkpt><trkpt lat="45.27240070826592" lon="4.830865127030131"><ele>161.0</ele><time>2026-03-28T14:40:35Z</time></trkpt><trkpt lat="45.27217593210264" lon="4.831068901214918"><ele>161.0</ele><time>2026-03-28T14:40:36Z</time></trkpt><trkpt lat="45.27195510073848" lon="4.831266714436872"><ele>161.0</ele><time>2026-03-28T14:40:37Z</time></trkpt><trkpt lat="45.271736605935985" lon="4.831464021060677"><ele>161.0</ele><time>2026-03-28T14:40:38Z</time></trkpt><trkpt lat="45.2715223259977" lon="4.831657254303177"><ele>161.0</ele><time>2026-03-28T14:40:39Z</time></trkpt><trkpt lat="45.27130830116063" lon="4.831850299966421"><ele>160.5</ele><time>2026-03-28T14:40:40Z</time></trkpt><trkpt lat="45.27109349207008" lon="4.832040363070995"><ele>160.0</ele><time>2026-03-28T14:40:41Z</time></trkpt><trkpt lat="45.27088087677972" lon="4.832226017733779"><ele>160.0</ele><time>2026-03-28T14:40:42Z</time></trkpt><trkpt lat="45.27066579672215" lon="4.8324140095515125"><ele>160.0</ele><time>2026-03-28T14:40:43Z</time></trkpt><trkpt lat="45.270450274691036" lon="4.8325975484228225"><ele>160.0</ele><time>2026-03-28T14:40:44Z</time></trkpt><trkpt lat="45.27023440320652" lon="4.832780939171329"><ele>160.0</ele><time>2026-03-28T14:40:45Z</time></trkpt><trkpt lat="45.27001912306982" lon="4.832959591238882"><ele>160.0</ele><time>2026-03-28T14:40:46Z</time></trkpt><trkpt lat="45.26980088910646" lon="4.833137731665891"><ele>160.0</ele><time>2026-03-28T14:40:47Z</time></trkpt><trkpt lat="45.26958239447461" lon="4.833313653272752"><ele>161.0</ele><time>2026-03-28T14:40:48Z</time></trkpt><trkpt lat="45.26936265461647" lon="4.833483219864474"><ele>162.0</ele><time>2026-03-28T14:40:49Z</time></trkpt><trkpt lat="45.26914134593395" lon="4.833650076452648"><ele>161.0</ele><time>2026-03-28T14:40:50Z</time></trkpt><trkpt lat="45.268917489746734" lon="4.833811426479202"><ele>160.0</ele><time>2026-03-28T14:40:51Z</time></trkpt><trkpt lat="45.26869113625371" lon="4.8339711144945054"><ele>160.0</ele><time>2026-03-28T14:40:52Z</time></trkpt><trkpt lat="45.26846683943369" lon="4.834119102277221"><ele>160.0</ele><time>2026-03-28T14:40:53Z</time></trkpt><trkpt lat="45.26824128597794" lon="4.834261597349143"><ele>160.0</ele><time>2026-03-28T14:40:54Z</time></trkpt><trkpt lat="45.26801793655116" lon="4.8343996620248815"><ele>160.0</ele><time>2026-03-28T14:40:55Z</time></trkpt><trkpt lat="45.26779429875846" lon="4.834538674931429"><ele>160.0</ele><time>2026-03-28T14:40:56Z</time></trkpt><trkpt lat="45.26757404035191" lon="4.834673061343729"><ele>160.0</ele><time>2026-03-28T14:40:57Z</time></trkpt><trkpt lat="45.267345690161164" lon="4.834795725886751"><ele>161.0</ele><time>2026-03-28T14:40:58Z</time></trkpt><trkpt lat="45.26711810024948" lon="4.834916952934799"><ele>162.0</ele><time>2026-03-28T14:40:59Z</time></trkpt><trkpt lat="45.26688765342481" lon="4.835034995810548"><ele>162.0</ele><time>2026-03-28T14:41:00Z</time></trkpt><trkpt lat="45.26665826984102" lon="4.835144338003909"><ele>162.0</ele><time>2026-03-28T14:41:01Z</time></trkpt><trkpt lat="45.266425854037024" lon="4.835246976625963"><ele>161.5</ele><time>2026-03-28T14:41:02Z</time></trkpt><trkpt lat="45.266194498542646" lon="4.835348715016947"><ele>161.0</ele><time>2026-03-28T14:41:03Z</time></trkpt><trkpt lat="45.265961771315176" lon="4.835443509628699"><ele>161.0</ele><time>2026-03-28T14:41:04Z</time></trkpt><trkpt lat="45.26572608038819" lon="4.8355375298665795"><ele>161.0</ele><time>2026-03-28T14:41:05Z</time></trkpt><trkpt lat="45.265489247032704" lon="4.835629336687927"><ele>161.0</ele><time>2026-03-28T14:41:06Z</time></trkpt><trkpt lat="45.26524273305703" lon="4.8357163196752815"><ele>161.0</ele><time>2026-03-28T14:41:07Z</time></trkpt><trkpt lat="45.26499677806492" lon="4.83579824081057"><ele>160.0</ele><time>2026-03-28T14:41:08Z</time></trkpt><trkpt lat="45.26474756158131" lon="4.8358735948296"><ele>159.0</ele><time>2026-03-28T14:41:09Z</time></trkpt><trkpt lat="45.26449475995625" lon="4.835947828880083"><ele>160.0</ele><time>2026-03-28T14:41:10Z</time></trkpt><trkpt lat="45.26424056404493" lon="4.836013575091161"><ele>161.0</ele><time>2026-03-28T14:41:11Z</time></trkpt><trkpt lat="45.263982870848814" lon="4.836072727462434"><ele>159.5</ele><time>2026-03-28T14:41:12Z</time></trkpt><trkpt lat="45.2637245878462" lon="4.836122510996698"><ele>158.0</ele><time>2026-03-28T14:41:13Z</time></trkpt><trkpt lat="45.263465672105" lon="4.836174614558552"><ele>158.0</ele><time>2026-03-28T14:41:14Z</time></trkpt><trkpt lat="45.26320533508039" lon="4.836216646991187"><ele>158.0</ele><time>2026-03-28T14:41:15Z</time></trkpt><trkpt lat="45.26294304494062" lon="4.836256719136186"><ele>158.0</ele><time>2026-03-28T14:41:16Z</time></trkpt><trkpt lat="45.2626822464607" lon="4.836287922699683"><ele>158.0</ele><time>2026-03-28T14:41:17Z</time></trkpt><trkpt lat="45.26241854409351" lon="4.836309654444403"><ele>157.0</ele><time>2026-03-28T14:41:18Z</time></trkpt><trkpt lat="45.262159128948014" lon="4.836320827320019"><ele>156.0</ele><time>2026-03-28T14:41:19Z</time></trkpt><trkpt lat="45.261896415381834" lon="4.836326873282616"><ele>156.0</ele><time>2026-03-28T14:41:20Z</time></trkpt><trkpt lat="45.26164034934901" lon="4.836326095176401"><ele>156.0</ele><time>2026-03-28T14:41:21Z</time></trkpt><trkpt lat="45.2613824497977" lon="4.83632176319558"><ele>156.0</ele><time>2026-03-28T14:41:22Z</time></trkpt><trkpt lat="45.26112680710275" lon="4.836317443236853"><ele>156.0</ele><time>2026-03-28T14:41:23Z</time></trkpt><trkpt lat="45.260870307851526" lon="4.836310969382016"><ele>155.0</ele><time>2026-03-28T14:41:24Z</time></trkpt><trkpt lat="45.26061540323514" lon="4.836298229712473"><ele>154.0</ele><time>2026-03-28T14:41:25Z</time></trkpt><trkpt lat="45.26036145669108" lon="4.8362814496163455"><ele>154.0</ele><time>2026-03-28T14:41:26Z</time></trkpt><trkpt lat="45.26010673170544" lon="4.836260045643707"><ele>154.0</ele><time>2026-03-28T14:41:27Z</time></trkpt><trkpt lat="45.25984963948037" lon="4.836233133793441"><ele>154.5</ele><time>2026-03-28T14:41:28Z</time></trkpt><trkpt lat="45.25959297581363" lon="4.8362031236365794"><ele>155.0</ele><time>2026-03-28T14:41:29Z</time></trkpt><trkpt lat="45.259338989826524" lon="4.83617263414106"><ele>155.0</ele><time>2026-03-28T14:41:30Z</time></trkpt><trkpt lat="45.25908080007271" lon="4.836140172803059"><ele>155.0</ele><time>2026-03-28T14:41:31Z</time></trkpt><trkpt lat="45.25882470367732" lon="4.836103370299371"><ele>156.5</ele><time>2026-03-28T14:41:32Z</time></trkpt><trkpt lat="45.258565054191926" lon="4.8360610673142705"><ele>158.0</ele><time>2026-03-28T14:41:33Z</time></trkpt><trkpt lat="45.258308909244114" lon="4.8360190007001185"><ele>158.0</ele><time>2026-03-28T14:41:34Z</time></trkpt><trkpt lat="45.25805080297718" lon="4.83597939023984"><ele>158.0</ele><time>2026-03-28T14:41:35Z</time></trkpt><trkpt lat="45.2577920930506" lon="4.835938028207259"><ele>157.5</ele><time>2026-03-28T14:41:36Z</time></trkpt><trkpt lat="45.257533558629085" lon="4.835900072533072"><ele>157.0</ele><time>2026-03-28T14:41:37Z</time></trkpt><trkpt lat="45.257274497111204" lon="4.835860451594947"><ele>156.5</ele><time>2026-03-28T14:41:38Z</time></trkpt><trkpt lat="45.25701631914673" lon="4.83582085908617"><ele>156.0</ele><time>2026-03-28T14:41:39Z</time></trkpt><trkpt lat="45.256756770083165" lon="4.835778554231328"><ele>156.0</ele><time>2026-03-28T14:41:40Z</time></trkpt><trkpt lat="45.25649500296721" lon="4.835737036836818"><ele>156.0</ele><time>2026-03-28T14:41:41Z</time></trkpt><trkpt lat="45.25623275850271" lon="4.835695004088422"><ele>155.5</ele><time>2026-03-28T14:41:42Z</time></trkpt><trkpt lat="45.25596881115705" lon="4.835652223888609"><ele>155.0</ele><time>2026-03-28T14:41:43Z</time></trkpt><trkpt lat="45.255703771253785" lon="4.835612070333699"><ele>155.0</ele><time>2026-03-28T14:41:44Z</time></trkpt><trkpt lat="45.255438311078656" lon="4.8355677344030505"><ele>155.0</ele><time>2026-03-28T14:41:45Z</time></trkpt><trkpt lat="45.25516998974719" lon="4.835524273302947"><ele>155.0</ele><time>2026-03-28T14:41:46Z</time></trkpt><trkpt lat="45.25490215698977" lon="4.835483889343733"><ele>155.0</ele><time>2026-03-28T14:41:47Z</time></trkpt><trkpt lat="45.25463188871891" lon="4.835444433398766"><ele>154.5</ele><time>2026-03-28T14:41:48Z</time></trkpt><trkpt lat="45.25436039796848" lon="4.835403507224391"><ele>154.0</ele><time>2026-03-28T14:41:49Z</time></trkpt><trkpt lat="45.25409088085685" lon="4.835363003821223"><ele>153.5</ele><time>2026-03-28T14:41:50Z</time></trkpt><trkpt lat="45.25382095015856" lon="4.835320517654437"><ele>153.0</ele><time>2026-03-28T14:41:51Z</time></trkpt><trkpt lat="45.25354990239366" lon="4.835276412884514"><ele>153.0</ele><time>2026-03-28T14:41:52Z</time></trkpt><trkpt lat="45.253278661768206" lon="4.835231481659354"><ele>153.0</ele><time>2026-03-28T14:41:53Z</time></trkpt><trkpt lat="45.25300676020627" lon="4.835188257793232"><ele>153.0</ele><time>2026-03-28T14:41:54Z</time></trkpt><trkpt lat="45.252737066963185" lon="4.835151204992015"><ele>153.0</ele><time>2026-03-28T14:41:55Z</time></trkpt><trkpt lat="45.25246570241381" lon="4.835117192956663"><ele>150.5</ele><time>2026-03-28T14:41:56Z</time></trkpt><trkpt lat="45.25219317706942" lon="4.83508579823853"><ele>148.0</ele><time>2026-03-28T14:41:57Z</time></trkpt><trkpt lat="45.25192156379689" lon="4.83506047507997"><ele>148.0</ele><time>2026-03-28T14:41:58Z</time></trkpt><trkpt lat="45.25164825489141" lon="4.835041342666009"><ele>148.0</ele><time>2026-03-28T14:41:59Z</time></trkpt><trkpt lat="45.25137428315894" lon="4.835033915889657"><ele>147.5</ele><time>2026-03-28T14:42:00Z</time></trkpt><trkpt lat="45.25110232633517" lon="4.835036381501608"><ele>147.0</ele><time>2026-03-28T14:42:01Z</time></trkpt><trkpt lat="45.25083152713118" lon="4.835044378625876"><ele>146.5</ele><time>2026-03-28T14:42:02Z</time></trkpt><trkpt lat="45.2505614656491" lon="4.835062071469558"><ele>146.0</ele><time>2026-03-28T14:42:03Z</time></trkpt><trkpt lat="45.25028758950268" lon="4.835087044586637"><ele>146.0</ele><time>2026-03-28T14:42:04Z</time></trkpt><trkpt lat="45.250015524866214" lon="4.835120419094224"><ele>146.0</ele><time>2026-03-28T14:42:05Z</time></trkpt><trkpt lat="45.24974588526508" lon="4.835164615138491"><ele>148.5</ele><time>2026-03-28T14:42:06Z</time></trkpt><trkpt lat="45.24947453507183" lon="4.835215551928656"><ele>151.0</ele><time>2026-03-28T14:42:07Z</time></trkpt><trkpt lat="45.249207638757454" lon="4.835276363068532"><ele>150.0</ele><time>2026-03-28T14:42:08Z</time></trkpt><trkpt lat="45.248940161752536" lon="4.835345345897322"><ele>149.0</ele><time>2026-03-28T14:42:09Z</time></trkpt><trkpt lat="45.248671796615945" lon="4.835421467994561"><ele>149.0</ele><time>2026-03-28T14:42:10Z</time></trkpt><trkpt lat="45.24840581875211" lon="4.835507750160786"><ele>149.0</ele><time>2026-03-28T14:42:11Z</time></trkpt><trkpt lat="45.24814098618344" lon="4.835602144285213"><ele>151.5</ele><time>2026-03-28T14:42:12Z</time></trkpt><trkpt lat="45.24788356949645" lon="4.835705873165943"><ele>154.0</ele><time>2026-03-28T14:42:13Z</time></trkpt><trkpt lat="45.24762909106026" lon="4.835816770415024"><ele>154.0</ele><time>2026-03-28T14:42:14Z</time></trkpt><trkpt lat="45.24737694285845" lon="4.835932166580382"><ele>154.0</ele><time>2026-03-28T14:42:15Z</time></trkpt><trkpt lat="45.247133893915766" lon="4.83605973057697"><ele>154.0</ele><time>2026-03-28T14:42:16Z</time></trkpt><trkpt lat="45.24688822649772" lon="4.836199829581168"><ele>154.0</ele><time>2026-03-28T14:42:17Z</time></trkpt><trkpt lat="45.24664312660948" lon="4.836341440229611"><ele>153.0</ele><time>2026-03-28T14:42:18Z</time></trkpt><trkpt lat="45.24639569395508" lon="4.8364932690509965"><ele>152.0</ele><time>2026-03-28T14:42:19Z</time></trkpt><trkpt lat="45.24615208094507" lon="4.836652044944609"><ele>152.0</ele><time>2026-03-28T14:42:20Z</time></trkpt><trkpt lat="45.24591159654865" lon="4.836821116846296"><ele>152.0</ele><time>2026-03-28T14:42:21Z</time></trkpt><trkpt lat="45.24567252580996" lon="4.836999586339884"><ele>153.5</ele><time>2026-03-28T14:42:22Z</time></trkpt><trkpt lat="45.24542888815094" lon="4.837187055798646"><ele>155.0</ele><time>2026-03-28T14:42:23Z</time></trkpt><trkpt lat="45.24519446583646" lon="4.837377119881214"><ele>155.0</ele><time>2026-03-28T14:42:24Z</time></trkpt><trkpt lat="45.24496356162056" lon="4.837574396719537"><ele>155.0</ele><time>2026-03-28T14:42:25Z</time></trkpt><trkpt lat="45.24473636885346" lon="4.837780235028564"><ele>154.5</ele><time>2026-03-28T14:42:26Z</time></trkpt><trkpt lat="45.244511124276855" lon="4.837993588796943"><ele>154.0</ele><time>2026-03-28T14:42:27Z</time></trkpt><trkpt lat="45.24428880789729" lon="4.83821520712944"><ele>154.0</ele><time>2026-03-28T14:42:28Z</time></trkpt><trkpt lat="45.24406942585536" lon="4.838447190919416"><ele>154.0</ele><time>2026-03-28T14:42:29Z</time></trkpt><trkpt lat="45.24385823916676" lon="4.838687022744928"><ele>156.0</ele><time>2026-03-28T14:42:30Z</time></trkpt><trkpt lat="45.24364774499592" lon="4.838932280824552"><ele>158.0</ele><time>2026-03-28T14:42:31Z</time></trkpt><trkpt lat="45.2434414395615" lon="4.83918392374084"><ele>158.0</ele><time>2026-03-28T14:42:32Z</time></trkpt><trkpt lat="45.24323821821139" lon="4.839440033018965"><ele>158.0</ele><time>2026-03-28T14:42:33Z</time></trkpt><trkpt lat="45.243040186352516" lon="4.839701856662013"><ele>158.0</ele><time>2026-03-28T14:42:34Z</time></trkpt><trkpt lat="45.24284816552982" lon="4.839971902703714"><ele>158.0</ele><time>2026-03-28T14:42:35Z</time></trkpt><trkpt lat="45.242661496863356" lon="4.840252000745853"><ele>159.0</ele><time>2026-03-28T14:42:36Z</time></trkpt><trkpt lat="45.242473774045614" lon="4.840537061599328"><ele>160.0</ele><time>2026-03-28T14:42:37Z</time></trkpt><trkpt lat="45.242292269275225" lon="4.840821946571565"><ele>160.5</ele><time>2026-03-28T14:42:38Z</time></trkpt><trkpt lat="45.24211498961084" lon="4.84111405402725"><ele>161.0</ele><time>2026-03-28T14:42:39Z</time></trkpt><trkpt lat="45.24194151892959" lon="4.841411543558634"><ele>161.0</ele><time>2026-03-28T14:42:40Z</time></trkpt><trkpt lat="45.24176796488755" lon="4.841705789190558"><ele>161.0</ele><time>2026-03-28T14:42:41Z</time></trkpt><trkpt lat="45.24159500802925" lon="4.84200479440501"><ele>162.5</ele><time>2026-03-28T14:42:42Z</time></trkpt><trkpt lat="45.241420904149344" lon="4.842299311111213"><ele>164.0</ele><time>2026-03-28T14:42:43Z</time></trkpt><trkpt lat="45.24124534705859" lon="4.842590056889592"><ele>164.5</ele><time>2026-03-28T14:42:44Z</time></trkpt><trkpt lat="45.24106245571826" lon="4.842870024519709"><ele>165.0</ele><time>2026-03-28T14:42:45Z</time></trkpt><trkpt lat="45.24087990196926" lon="4.843146950714968"><ele>165.0</ele><time>2026-03-28T14:42:46Z</time></trkpt><trkpt lat="45.24068599471454" lon="4.84341469702793"><ele>165.0</ele><time>2026-03-28T14:42:47Z</time></trkpt><trkpt lat="45.24049069606196" lon="4.843677193427404"><ele>167.0</ele><time>2026-03-28T14:42:48Z</time></trkpt><trkpt lat="45.24029456328814" lon="4.843928244292434"><ele>169.0</ele><time>2026-03-28T14:42:49Z</time></trkpt><trkpt lat="45.240088022962304" lon="4.844162444660885"><ele>171.0</ele><time>2026-03-28T14:42:50Z</time></trkpt><trkpt lat="45.23987714932032" lon="4.844394538498768"><ele>173.0</ele><time>2026-03-28T14:42:51Z</time></trkpt><trkpt lat="45.23966214981395" lon="4.8446145170449455"><ele>173.0</ele><time>2026-03-28T14:42:52Z</time></trkpt><trkpt lat="45.2394391980686" lon="4.844824287611627"><ele>173.0</ele><time>2026-03-28T14:42:53Z</time></trkpt><trkpt lat="45.239207564370524" lon="4.84501405440148"><ele>173.0</ele><time>2026-03-28T14:42:54Z</time></trkpt><trkpt lat="45.23897368849565" lon="4.845206891358174"><ele>173.0</ele><time>2026-03-28T14:42:55Z</time></trkpt><trkpt lat="45.23873410127842" lon="4.845381884340904"><ele>173.5</ele><time>2026-03-28T14:42:56Z</time></trkpt><trkpt lat="45.238493555333925" lon="4.845553586746093"><ele>174.0</ele><time>2026-03-28T14:42:57Z</time></trkpt><trkpt lat="45.23824977719436" lon="4.845708355486936"><ele>175.0</ele><time>2026-03-28T14:42:58Z</time></trkpt><trkpt lat="45.23800202861227" lon="4.845855208888224"><ele>176.0</ele><time>2026-03-28T14:42:59Z</time></trkpt><trkpt lat="45.23775284771288" lon="4.845995576135232"><ele>176.0</ele><time>2026-03-28T14:43:00Z</time></trkpt><trkpt lat="45.2374984154607" lon="4.846130114168637"><ele>176.0</ele><time>2026-03-28T14:43:01Z</time></trkpt><trkpt lat="45.237244439820635" lon="4.846264380375448"><ele>178.5</ele><time>2026-03-28T14:43:02Z</time></trkpt><trkpt lat="45.23698803340508" lon="4.846397429193805"><ele>181.0</ele><time>2026-03-28T14:43:03Z</time></trkpt><trkpt lat="45.236735394326814" lon="4.8465305869802755"><ele>181.0</ele><time>2026-03-28T14:43:04Z</time></trkpt><trkpt lat="45.236484619168166" lon="4.846661579542836"><ele>181.0</ele><time>2026-03-28T14:43:05Z</time></trkpt><trkpt lat="45.23623139165658" lon="4.846793065269424"><ele>185.5</ele><time>2026-03-28T14:43:06Z</time></trkpt><trkpt lat="45.23597851939103" lon="4.8469254904705155"><ele>190.0</ele><time>2026-03-28T14:43:07Z</time></trkpt><trkpt lat="45.23572314750771" lon="4.847060219222439"><ele>192.5</ele><time>2026-03-28T14:43:08Z</time></trkpt><trkpt lat="45.23546703765115" lon="4.847190843262622"><ele>195.0</ele><time>2026-03-28T14:43:09Z</time></trkpt><trkpt lat="45.23520792309714" lon="4.847320491334851"><ele>195.0</ele><time>2026-03-28T14:43:10Z</time></trkpt><trkpt lat="45.23495279662418" lon="4.8474534026712215"><ele>195.0</ele><time>2026-03-28T14:43:11Z</time></trkpt><trkpt lat="45.234702685328855" lon="4.847586615920346"><ele>198.0</ele><time>2026-03-28T14:43:12Z</time></trkpt><trkpt lat="45.2344591959079" lon="4.847714230400331"><ele>201.0</ele><time>2026-03-28T14:43:13Z</time></trkpt><trkpt lat="45.23420885298678" lon="4.847840770868129"><ele>201.5</ele><time>2026-03-28T14:43:14Z</time></trkpt><trkpt lat="45.2339643667621" lon="4.847967644710563"><ele>202.0</ele><time>2026-03-28T14:43:15Z</time></trkpt><trkpt lat="45.23372192308211" lon="4.848096506807932"><ele>202.0</ele><time>2026-03-28T14:43:16Z</time></trkpt><trkpt lat="45.23348273637086" lon="4.848222251207727"><ele>202.0</ele><time>2026-03-28T14:43:17Z</time></trkpt><trkpt lat="45.233239560938976" lon="4.8483556770622105"><ele>204.0</ele><time>2026-03-28T14:43:18Z</time></trkpt><trkpt lat="45.23298829690973" lon="4.848489031339376"><ele>206.0</ele><time>2026-03-28T14:43:19Z</time></trkpt><trkpt lat="45.23274343968827" lon="4.848631269913452"><ele>206.0</ele><time>2026-03-28T14:43:20Z</time></trkpt><trkpt lat="45.23249569227397" lon="4.848773668427192"><ele>206.0</ele><time>2026-03-28T14:43:21Z</time></trkpt><trkpt lat="45.232255601843576" lon="4.848921326930097"><ele>210.0</ele><time>2026-03-28T14:43:22Z</time></trkpt><trkpt lat="45.232019625579944" lon="4.849068309602437"><ele>214.0</ele><time>2026-03-28T14:43:23Z</time></trkpt><trkpt lat="45.23178746985349" lon="4.849215947681039"><ele>213.5</ele><time>2026-03-28T14:43:24Z</time></trkpt><trkpt lat="45.231562892630826" lon="4.849368377833762"><ele>213.0</ele><time>2026-03-28T14:43:25Z</time></trkpt><trkpt lat="45.231343601618015" lon="4.849524308259619"><ele>213.0</ele><time>2026-03-28T14:43:26Z</time></trkpt><trkpt lat="45.2311264659895" lon="4.84968097091892"><ele>213.0</ele><time>2026-03-28T14:43:27Z</time></trkpt><trkpt lat="45.23091516833671" lon="4.849840678264773"><ele>213.0</ele><time>2026-03-28T14:43:28Z</time></trkpt><trkpt lat="45.230704342364945" lon="4.85000565467475"><ele>213.0</ele><time>2026-03-28T14:43:29Z</time></trkpt><trkpt lat="45.23049467091794" lon="4.850179838481324"><ele>216.5</ele><time>2026-03-28T14:43:30Z</time></trkpt><trkpt lat="45.23028756690777" lon="4.850357098959857"><ele>220.0</ele><time>2026-03-28T14:43:31Z</time></trkpt><trkpt lat="45.23008536361195" lon="4.850539907981032"><ele>220.0</ele><time>2026-03-28T14:43:32Z</time></trkpt><trkpt lat="45.229882571363696" lon="4.850727802528246"><ele>220.0</ele><time>2026-03-28T14:43:33Z</time></trkpt><trkpt lat="45.229683378754956" lon="4.850921238622409"><ele>226.0</ele><time>2026-03-28T14:43:34Z</time></trkpt><trkpt lat="45.22948695755112" lon="4.851115318083278"><ele>232.0</ele><time>2026-03-28T14:43:35Z</time></trkpt><trkpt lat="45.229291027592154" lon="4.851320746433786"><ele>232.0</ele><time>2026-03-28T14:43:36Z</time></trkpt><trkpt lat="45.22909572618291" lon="4.851526637982982"><ele>232.0</ele><time>2026-03-28T14:43:37Z</time></trkpt><trkpt lat="45.22890588766812" lon="4.85174607942421"><ele>233.5</ele><time>2026-03-28T14:43:38Z</time></trkpt><trkpt lat="45.228719829105486" lon="4.851965640029368"><ele>235.0</ele><time>2026-03-28T14:43:39Z</time></trkpt><trkpt lat="45.22853287483045" lon="4.852189293396157"><ele>235.0</ele><time>2026-03-28T14:43:40Z</time></trkpt><trkpt lat="45.228346225646625" lon="4.8524171954693704"><ele>235.0</ele><time>2026-03-28T14:43:41Z</time></trkpt><trkpt lat="45.22815896778744" lon="4.852648542515258"><ele>236.5</ele><time>2026-03-28T14:43:42Z</time></trkpt><trkpt lat="45.22797727940137" lon="4.852871219794876"><ele>238.0</ele><time>2026-03-28T14:43:43Z</time></trkpt><trkpt lat="45.22779531934512" lon="4.853090400782238"><ele>238.0</ele><time>2026-03-28T14:43:44Z</time></trkpt><trkpt lat="45.227611203490355" lon="4.85330880233405"><ele>238.0</ele><time>2026-03-28T14:43:45Z</time></trkpt><trkpt lat="45.22742224863972" lon="4.8535281606091925"><ele>238.0</ele><time>2026-03-28T14:43:46Z</time></trkpt><trkpt lat="45.22723042919116" lon="4.8537455189382674"><ele>238.0</ele><time>2026-03-28T14:43:47Z</time></trkpt><trkpt lat="45.22703662675486" lon="4.853967755292737"><ele>238.0</ele><time>2026-03-28T14:43:48Z</time></trkpt><trkpt lat="45.22683971857081" lon="4.854187832611004"><ele>238.0</ele><time>2026-03-28T14:43:49Z</time></trkpt><trkpt lat="45.22664021145868" lon="4.854407274784713"><ele>241.5</ele><time>2026-03-28T14:43:50Z</time></trkpt><trkpt lat="45.22644000017369" lon="4.854630468001032"><ele>245.0</ele><time>2026-03-28T14:43:51Z</time></trkpt><trkpt lat="45.22623428284143" lon="4.854847421490022"><ele>245.0</ele><time>2026-03-28T14:43:52Z</time></trkpt><trkpt lat="45.226025511856875" lon="4.855066260453648"><ele>245.0</ele><time>2026-03-28T14:43:53Z</time></trkpt><trkpt lat="45.22581219195262" lon="4.855278299603629"><ele>246.5</ele><time>2026-03-28T14:43:54Z</time></trkpt><trkpt lat="45.22559475466958" lon="4.855490029308709"><ele>248.0</ele><time>2026-03-28T14:43:55Z</time></trkpt><trkpt lat="45.22537567729143" lon="4.855695315958759"><ele>248.0</ele><time>2026-03-28T14:43:56Z</time></trkpt><trkpt lat="45.225152395579464" lon="4.855903459748477"><ele>248.0</ele><time>2026-03-28T14:43:57Z</time></trkpt><trkpt lat="45.224931179623795" lon="4.856106026196656"><ele>249.5</ele><time>2026-03-28T14:43:58Z</time></trkpt><trkpt lat="45.224703096425905" lon="4.8563082345728885"><ele>251.0</ele><time>2026-03-28T14:43:59Z</time></trkpt><trkpt lat="45.224472486942446" lon="4.856500524053508"><ele>251.0</ele><time>2026-03-28T14:44:00Z</time></trkpt><trkpt lat="45.22423818996197" lon="4.856696116273785"><ele>251.0</ele><time>2026-03-28T14:44:01Z</time></trkpt><trkpt lat="45.22400328689943" lon="4.856881270565963"><ele>251.0</ele><time>2026-03-28T14:44:02Z</time></trkpt><trkpt lat="45.223762103780366" lon="4.85706756968865"><ele>251.0</ele><time>2026-03-28T14:44:03Z</time></trkpt><trkpt lat="45.22351859688992" lon="4.857246345673546"><ele>251.0</ele><time>2026-03-28T14:44:04Z</time></trkpt><trkpt lat="45.22327781388977" lon="4.85741970879184"><ele>251.0</ele><time>2026-03-28T14:44:05Z</time></trkpt><trkpt lat="45.223035598828574" lon="4.857593269419734"><ele>253.5</ele><time>2026-03-28T14:44:06Z</time></trkpt><trkpt lat="45.22278982778533" lon="4.857765442265128"><ele>256.0</ele><time>2026-03-28T14:44:07Z</time></trkpt><trkpt lat="45.222543948813126" lon="4.857930426292296"><ele>255.0</ele><time>2026-03-28T14:44:08Z</time></trkpt><trkpt lat="45.22229611287892" lon="4.858086606700216"><ele>254.0</ele><time>2026-03-28T14:44:09Z</time></trkpt><trkpt lat="45.222048480419154" lon="4.858242747292477"><ele>254.0</ele><time>2026-03-28T14:44:10Z</time></trkpt><trkpt lat="45.22179928166618" lon="4.858393168424094"><ele>254.0</ele><time>2026-03-28T14:44:11Z</time></trkpt><trkpt lat="45.221547586278234" lon="4.858544013354335"><ele>257.0</ele><time>2026-03-28T14:44:12Z</time></trkpt><trkpt lat="45.221297776953406" lon="4.858691926176043"><ele>260.0</ele><time>2026-03-28T14:44:13Z</time></trkpt><trkpt lat="45.22104261035388" lon="4.858830484477915"><ele>260.0</ele><time>2026-03-28T14:44:14Z</time></trkpt><trkpt lat="45.220787930620794" lon="4.858967646416929"><ele>260.0</ele><time>2026-03-28T14:44:15Z</time></trkpt><trkpt lat="45.22053568605094" lon="4.859102615234409"><ele>259.5</ele><time>2026-03-28T14:44:16Z</time></trkpt><trkpt lat="45.22027908312261" lon="4.859232961910657"><ele>259.0</ele><time>2026-03-28T14:44:17Z</time></trkpt><trkpt lat="45.220022084479496" lon="4.859358329402505"><ele>261.0</ele><time>2026-03-28T14:44:18Z</time></trkpt><trkpt lat="45.21976436976646" lon="4.859475261538483"><ele>263.0</ele><time>2026-03-28T14:44:19Z</time></trkpt><trkpt lat="45.21950238436258" lon="4.85958223870986"><ele>263.0</ele><time>2026-03-28T14:44:20Z</time></trkpt><trkpt lat="45.219241484808215" lon="4.859692658634516"><ele>263.0</ele><time>2026-03-28T14:44:21Z</time></trkpt><trkpt lat="45.21898254760837" lon="4.85979563777697"><ele>265.0</ele><time>2026-03-28T14:44:22Z</time></trkpt><trkpt lat="45.21872205882068" lon="4.859899375003741"><ele>267.0</ele><time>2026-03-28T14:44:23Z</time></trkpt><trkpt lat="45.218459784523596" lon="4.859998710069368"><ele>267.0</ele><time>2026-03-28T14:44:24Z</time></trkpt><trkpt lat="45.21819901439717" lon="4.860099251502542"><ele>267.0</ele><time>2026-03-28T14:44:25Z</time></trkpt><trkpt lat="45.21793833961449" lon="4.860193754291962"><ele>271.0</ele><time>2026-03-28T14:44:26Z</time></trkpt><trkpt lat="45.21768080982577" lon="4.860286707708402"><ele>275.0</ele><time>2026-03-28T14:44:27Z</time></trkpt><trkpt lat="45.217427344808186" lon="4.8603795229491595"><ele>276.0</ele><time>2026-03-28T14:44:28Z</time></trkpt><trkpt lat="45.2171795635937" lon="4.860471583083796"><ele>277.0</ele><time>2026-03-28T14:44:29Z</time></trkpt><trkpt lat="45.21693211505651" lon="4.8605637559558454"><ele>277.0</ele><time>2026-03-28T14:44:30Z</time></trkpt><trkpt lat="45.21668500960575" lon="4.860655231046575"><ele>277.0</ele><time>2026-03-28T14:44:31Z</time></trkpt><trkpt lat="45.21643745497539" lon="4.860745330891306"><ele>281.0</ele><time>2026-03-28T14:44:32Z</time></trkpt><trkpt lat="45.21618737622544" lon="4.86083748489989"><ele>285.0</ele><time>2026-03-28T14:44:33Z</time></trkpt><trkpt lat="45.21593858432625" lon="4.860929099896211"><ele>284.0</ele><time>2026-03-28T14:44:34Z</time></trkpt><trkpt lat="45.21568712068736" lon="4.861026428239324"><ele>283.0</ele><time>2026-03-28T14:44:35Z</time></trkpt><trkpt lat="45.215435488460244" lon="4.861126579849648"><ele>286.0</ele><time>2026-03-28T14:44:36Z</time></trkpt><trkpt lat="45.21518183815173" lon="4.861226349789571"><ele>289.0</ele><time>2026-03-28T14:44:37Z</time></trkpt><trkpt lat="45.21493123566099" lon="4.861339600138668"><ele>291.5</ele><time>2026-03-28T14:44:38Z</time></trkpt><trkpt lat="45.21467722901695" lon="4.861457863121923"><ele>294.0</ele><time>2026-03-28T14:44:39Z</time></trkpt><trkpt lat="45.2144286022875" lon="4.861589235880151"><ele>294.0</ele><time>2026-03-28T14:44:40Z</time></trkpt><trkpt lat="45.2141759209544" lon="4.861727624140903"><ele>294.0</ele><time>2026-03-28T14:44:41Z</time></trkpt><trkpt lat="45.21392664249267" lon="4.861876793763839"><ele>293.5</ele><time>2026-03-28T14:44:42Z</time></trkpt><trkpt lat="45.21368304773097" lon="4.862046986283303"><ele>293.0</ele><time>2026-03-28T14:44:43Z</time></trkpt><trkpt lat="45.213441342560856" lon="4.862225995136984"><ele>293.0</ele><time>2026-03-28T14:44:44Z</time></trkpt><trkpt lat="45.21320307535767" lon="4.862417444816248"><ele>293.0</ele><time>2026-03-28T14:44:45Z</time></trkpt><trkpt lat="45.212964220182464" lon="4.862613963598036"><ele>295.5</ele><time>2026-03-28T14:44:46Z</time></trkpt><trkpt lat="45.21273520968951" lon="4.862828193611341"><ele>298.0</ele><time>2026-03-28T14:44:47Z</time></trkpt><trkpt lat="45.212510458944315" lon="4.863049062087732"><ele>302.0</ele><time>2026-03-28T14:44:48Z</time></trkpt><trkpt lat="45.21228939042482" lon="4.86327800327105"><ele>306.0</ele><time>2026-03-28T14:44:49Z</time></trkpt><trkpt lat="45.212070742970596" lon="4.863508620028728"><ele>306.0</ele><time>2026-03-28T14:44:50Z</time></trkpt><trkpt lat="45.21185636322662" lon="4.863742703741909"><ele>306.0</ele><time>2026-03-28T14:44:51Z</time></trkpt><trkpt lat="45.21164670819868" lon="4.863982261703462"><ele>311.5</ele><time>2026-03-28T14:44:52Z</time></trkpt><trkpt lat="45.21143836210452" lon="4.864232451438357"><ele>317.0</ele><time>2026-03-28T14:44:53Z</time></trkpt><trkpt lat="45.211239500590295" lon="4.864490134478354"><ele>317.0</ele><time>2026-03-28T14:44:54Z</time></trkpt><trkpt lat="45.211045548426036" lon="4.864759850544639"><ele>317.0</ele><time>2026-03-28T14:44:55Z</time></trkpt><trkpt lat="45.210858247563046" lon="4.8650397007442505"><ele>318.0</ele><time>2026-03-28T14:44:56Z</time></trkpt><trkpt lat="45.21067674694544" lon="4.865329331048386"><ele>319.0</ele><time>2026-03-28T14:44:57Z</time></trkpt><trkpt lat="45.2105004016236" lon="4.865623102299407"><ele>322.5</ele><time>2026-03-28T14:44:58Z</time></trkpt><trkpt lat="45.21032974514281" lon="4.865926758355762"><ele>326.0</ele><time>2026-03-28T14:44:59Z</time></trkpt><trkpt lat="45.210169442708036" lon="4.866239413591413"><ele>326.0</ele><time>2026-03-28T14:45:00Z</time></trkpt><trkpt lat="45.210013974252725" lon="4.8665583114905715"><ele>326.0</ele><time>2026-03-28T14:45:01Z</time></trkpt><trkpt lat="45.209865405496636" lon="4.866885980895219"><ele>333.0</ele><time>2026-03-28T14:45:02Z</time></trkpt><trkpt lat="45.20972730974284" lon="4.867218844411881"><ele>340.0</ele><time>2026-03-28T14:45:03Z</time></trkpt><trkpt lat="45.20960165144225" lon="4.86755695679852"><ele>337.0</ele><time>2026-03-28T14:45:04Z</time></trkpt><trkpt lat="45.20947616004602" lon="4.867901692366215"><ele>334.0</ele><time>2026-03-28T14:45:05Z</time></trkpt><trkpt lat="45.20935385461482" lon="4.868248186471124"><ele>332.5</ele><time>2026-03-28T14:45:06Z</time></trkpt><trkpt lat="45.209237941990146" lon="4.868601657067257"><ele>331.0</ele><time>2026-03-28T14:45:07Z</time></trkpt><trkpt lat="45.20912710333781" lon="4.8689581913584625"><ele>333.5</ele><time>2026-03-28T14:45:08Z</time></trkpt><trkpt lat="45.20901314825308" lon="4.86931627855129"><ele>336.0</ele><time>2026-03-28T14:45:09Z</time></trkpt><trkpt lat="45.20890132653173" lon="4.869675389367854"><ele>335.5</ele><time>2026-03-28T14:45:10Z</time></trkpt><trkpt lat="45.2087844962422" lon="4.8700296826022855"><ele>335.0</ele><time>2026-03-28T14:45:11Z</time></trkpt><trkpt lat="45.20866174795886" lon="4.870379656107385"><ele>335.0</ele><time>2026-03-28T14:45:12Z</time></trkpt><trkpt lat="45.20852893887935" lon="4.870721230946022"><ele>335.0</ele><time>2026-03-28T14:45:13Z</time></trkpt><trkpt lat="45.20839015820857" lon="4.871061544901542"><ele>333.0</ele><time>2026-03-28T14:45:14Z</time></trkpt><trkpt lat="45.20824408746092" lon="4.871395652865702"><ele>331.0</ele><time>2026-03-28T14:45:15Z</time></trkpt><trkpt lat="45.20809013753101" lon="4.871719087354979"><ele>326.5</ele><time>2026-03-28T14:45:16Z</time></trkpt><trkpt lat="45.207930264694355" lon="4.872040380426147"><ele>322.0</ele><time>2026-03-28T14:45:17Z</time></trkpt><trkpt lat="45.20775892783032" lon="4.872352557927562"><ele>320.0</ele><time>2026-03-28T14:45:18Z</time></trkpt><trkpt lat="45.20758268848777" lon="4.872653491042471"><ele>318.0</ele><time>2026-03-28T14:45:19Z</time></trkpt><trkpt lat="45.20740155771439" lon="4.872951939175002"><ele>314.5</ele><time>2026-03-28T14:45:20Z</time></trkpt><trkpt lat="45.207216337991646" lon="4.873242749544007"><ele>311.0</ele><time>2026-03-28T14:45:21Z</time></trkpt><trkpt lat="45.20702294408568" lon="4.873519087511731"><ele>308.5</ele><time>2026-03-28T14:45:22Z</time></trkpt><trkpt lat="45.20682567347688" lon="4.873785306176941"><ele>306.0</ele><time>2026-03-28T14:45:23Z</time></trkpt><trkpt lat="45.20662044985992" lon="4.874045003529411"><ele>303.5</ele><time>2026-03-28T14:45:24Z</time></trkpt><trkpt lat="45.206406267728255" lon="4.874292504467118"><ele>301.0</ele><time>2026-03-28T14:45:25Z</time></trkpt><trkpt lat="45.20618626639114" lon="4.874527912263265"><ele>301.0</ele><time>2026-03-28T14:45:26Z</time></trkpt><trkpt lat="45.20596687419937" lon="4.874759930477883"><ele>301.0</ele><time>2026-03-28T14:45:27Z</time></trkpt><trkpt lat="45.20574200494628" lon="4.874979487892419"><ele>299.0</ele><time>2026-03-28T14:45:28Z</time></trkpt><trkpt lat="45.20551363093343" lon="4.875191888966492"><ele>297.0</ele><time>2026-03-28T14:45:29Z</time></trkpt><trkpt lat="45.20528023904397" lon="4.875399017470691"><ele>297.0</ele><time>2026-03-28T14:45:30Z</time></trkpt><trkpt lat="45.20504368780702" lon="4.875588753183516"><ele>297.0</ele><time>2026-03-28T14:45:31Z</time></trkpt><trkpt lat="45.204801647181554" lon="4.8757685637055275"><ele>295.0</ele><time>2026-03-28T14:45:32Z</time></trkpt><trkpt lat="45.20455363439802" lon="4.875935050722305"><ele>293.0</ele><time>2026-03-28T14:45:33Z</time></trkpt><trkpt lat="45.204302217972725" lon="4.876092879761582"><ele>293.0</ele><time>2026-03-28T14:45:34Z</time></trkpt><trkpt lat="45.20405101332349" lon="4.876241852456085"><ele>293.0</ele><time>2026-03-28T14:45:35Z</time></trkpt><trkpt lat="45.20379676839573" lon="4.876380204632933"><ele>291.0</ele><time>2026-03-28T14:45:36Z</time></trkpt><trkpt lat="45.2035368340452" lon="4.87650847452979"><ele>289.0</ele><time>2026-03-28T14:45:37Z</time></trkpt><trkpt lat="45.203273685380594" lon="4.876623566465026"><ele>290.5</ele><time>2026-03-28T14:45:38Z</time></trkpt><trkpt lat="45.20301035533795" lon="4.876729044117342"><ele>292.0</ele><time>2026-03-28T14:45:39Z</time></trkpt><trkpt lat="45.20274456121193" lon="4.876819264202865"><ele>292.0</ele><time>2026-03-28T14:45:40Z</time></trkpt><trkpt lat="45.202480585103636" lon="4.876901539386101"><ele>292.0</ele><time>2026-03-28T14:45:41Z</time></trkpt><trkpt lat="45.20221134476231" lon="4.876972442661806"><ele>289.5</ele><time>2026-03-28T14:45:42Z</time></trkpt><trkpt lat="45.201939321103005" lon="4.8770253987830205"><ele>287.0</ele><time>2026-03-28T14:45:43Z</time></trkpt><trkpt lat="45.2016671842411" lon="4.87707143884223"><ele>284.5</ele><time>2026-03-28T14:45:44Z</time></trkpt><trkpt lat="45.2013892220706" lon="4.877100721909576"><ele>282.0</ele><time>2026-03-28T14:45:45Z</time></trkpt><trkpt lat="45.2011139159034" lon="4.877122448181343"><ele>282.0</ele><time>2026-03-28T14:45:46Z</time></trkpt><trkpt lat="45.20084116352246" lon="4.877132659237336"><ele>282.0</ele><time>2026-03-28T14:45:47Z</time></trkpt><trkpt lat="45.200569936043316" lon="4.877129455368941"><ele>278.0</ele><time>2026-03-28T14:45:48Z</time></trkpt><trkpt lat="45.20029733590097" lon="4.87711171055938"><ele>274.0</ele><time>2026-03-28T14:45:49Z</time></trkpt><trkpt lat="45.200022770004495" lon="4.877087755836018"><ele>272.0</ele><time>2026-03-28T14:45:50Z</time></trkpt><trkpt lat="45.199749502040945" lon="4.877047962399154"><ele>270.0</ele><time>2026-03-28T14:45:51Z</time></trkpt><trkpt lat="45.19947700837584" lon="4.876997329145677"><ele>270.0</ele><time>2026-03-28T14:45:52Z</time></trkpt><trkpt lat="45.19920358649321" lon="4.876932704170025"><ele>270.0</ele><time>2026-03-28T14:45:53Z</time></trkpt><trkpt lat="45.1989324867218" lon="4.876854505726508"><ele>267.5</ele><time>2026-03-28T14:45:54Z</time></trkpt><trkpt lat="45.19866259490602" lon="4.876764796568114"><ele>265.0</ele><time>2026-03-28T14:45:55Z</time></trkpt><trkpt lat="45.198395720965316" lon="4.876664961075051"><ele>268.5</ele><time>2026-03-28T14:45:56Z</time></trkpt><trkpt lat="45.198129906638684" lon="4.876559196315874"><ele>272.0</ele><time>2026-03-28T14:45:57Z</time></trkpt><trkpt lat="45.19786691580751" lon="4.876439666190946"><ele>272.0</ele><time>2026-03-28T14:45:58Z</time></trkpt><trkpt lat="45.19760711905415" lon="4.876317476091167"><ele>272.0</ele><time>2026-03-28T14:45:59Z</time></trkpt><trkpt lat="45.19734507824477" lon="4.876197512378352"><ele>272.5</ele><time>2026-03-28T14:46:00Z</time></trkpt><trkpt lat="45.197081582024985" lon="4.876085231087045"><ele>273.0</ele><time>2026-03-28T14:46:01Z</time></trkpt><trkpt lat="45.19681790865421" lon="4.87597836735575"><ele>268.0</ele><time>2026-03-28T14:46:02Z</time></trkpt><trkpt lat="45.19654864153063" lon="4.875887723260193"><ele>263.0</ele><time>2026-03-28T14:46:03Z</time></trkpt><trkpt lat="45.19627885583847" lon="4.8758042414902985"><ele>263.0</ele><time>2026-03-28T14:46:04Z</time></trkpt><trkpt lat="45.19600608117432" lon="4.875735601420455"><ele>263.0</ele><time>2026-03-28T14:46:05Z</time></trkpt><trkpt lat="45.19573233624235" lon="4.875679406991497"><ele>263.5</ele><time>2026-03-28T14:46:06Z</time></trkpt><trkpt lat="45.19545880376033" lon="4.875632347123355"><ele>264.0</ele><time>2026-03-28T14:46:07Z</time></trkpt><trkpt lat="45.19518549575223" lon="4.875598678375101"><ele>264.0</ele><time>2026-03-28T14:46:08Z</time></trkpt><trkpt lat="45.19491116504985" lon="4.875571925711386"><ele>264.0</ele><time>2026-03-28T14:46:09Z</time></trkpt><trkpt lat="45.19463582859271" lon="4.87555853060684"><ele>262.5</ele><time>2026-03-28T14:46:10Z</time></trkpt><trkpt lat="45.194360493903474" lon="4.875553221699452"><ele>261.0</ele><time>2026-03-28T14:46:11Z</time></trkpt><trkpt lat="45.19408353281496" lon="4.875556710310344"><ele>258.0</ele><time>2026-03-28T14:46:12Z</time></trkpt><trkpt lat="45.193811999494365" lon="4.875582177533831"><ele>255.0</ele><time>2026-03-28T14:46:13Z</time></trkpt><trkpt lat="45.19353877887598" lon="4.875613268081235"><ele>255.0</ele><time>2026-03-28T14:46:14Z</time></trkpt><trkpt lat="45.19326372107578" lon="4.875658967424712"><ele>255.0</ele><time>2026-03-28T14:46:15Z</time></trkpt><trkpt lat="45.192993114219604" lon="4.875719040676745"><ele>250.0</ele><time>2026-03-28T14:46:16Z</time></trkpt><trkpt lat="45.19272122659594" lon="4.875784357377546"><ele>245.0</ele><time>2026-03-28T14:46:17Z</time></trkpt><trkpt lat="45.19245170301031" lon="4.875860534702067"><ele>241.0</ele><time>2026-03-28T14:46:18Z</time></trkpt><trkpt lat="45.192179873646516" lon="4.875948368774536"><ele>237.0</ele><time>2026-03-28T14:46:19Z</time></trkpt><trkpt lat="45.191914133789716" lon="4.876052974002691"><ele>237.0</ele><time>2026-03-28T14:46:20Z</time></trkpt><trkpt lat="45.191652988626615" lon="4.87616827546411"><ele>237.0</ele><time>2026-03-28T14:46:21Z</time></trkpt><trkpt lat="45.191387584474334" lon="4.8762902142908695"><ele>235.0</ele><time>2026-03-28T14:46:22Z</time></trkpt><trkpt lat="45.191131157314956" lon="4.876426739252938"><ele>233.0</ele><time>2026-03-28T14:46:23Z</time></trkpt><trkpt lat="45.190876539420856" lon="4.876576486199914"><ele>230.5</ele><time>2026-03-28T14:46:24Z</time></trkpt><trkpt lat="45.190624073700285" lon="4.876733426360063"><ele>228.0</ele><time>2026-03-28T14:46:25Z</time></trkpt><trkpt lat="45.190376170469" lon="4.876906301590848"><ele>228.0</ele><time>2026-03-28T14:46:26Z</time></trkpt><trkpt lat="45.19013402340866" lon="4.877085924986176"><ele>228.0</ele><time>2026-03-28T14:46:27Z</time></trkpt><trkpt lat="45.189896267251406" lon="4.877274452942988"><ele>225.5</ele><time>2026-03-28T14:46:28Z</time></trkpt><trkpt lat="45.1896550402478" lon="4.877476820853411"><ele>223.0</ele><time>2026-03-28T14:46:29Z</time></trkpt><trkpt lat="45.18941847492826" lon="4.877676270809877"><ele>223.0</ele><time>2026-03-28T14:46:30Z</time></trkpt><trkpt lat="45.18919287386973" lon="4.8778913187405655"><ele>223.0</ele><time>2026-03-28T14:46:31Z</time></trkpt><trkpt lat="45.188965729635356" lon="4.878106875362985"><ele>223.0</ele><time>2026-03-28T14:46:32Z</time></trkpt><trkpt lat="45.188743313563705" lon="4.87832162044046"><ele>223.0</ele><time>2026-03-28T14:46:33Z</time></trkpt><trkpt lat="45.18851903950627" lon="4.878531332316989"><ele>223.0</ele><time>2026-03-28T14:46:34Z</time></trkpt><trkpt lat="45.18829278787866" lon="4.878743197839078"><ele>223.0</ele><time>2026-03-28T14:46:35Z</time></trkpt><trkpt lat="45.18806852985343" lon="4.878957053347864"><ele>221.0</ele><time>2026-03-28T14:46:36Z</time></trkpt><trkpt lat="45.187841408240615" lon="4.879171590495769"><ele>219.0</ele><time>2026-03-28T14:46:37Z</time></trkpt><trkpt lat="45.18761756180112" lon="4.879383190444073"><ele>218.5</ele><time>2026-03-28T14:46:38Z</time></trkpt><trkpt lat="45.18739340935055" lon="4.879595997178334"><ele>218.0</ele><time>2026-03-28T14:46:39Z</time></trkpt><trkpt lat="45.18716338762736" lon="4.879812842268452"><ele>218.0</ele><time>2026-03-28T14:46:40Z</time></trkpt><trkpt lat="45.18693364691613" lon="4.880025182553644"><ele>218.0</ele><time>2026-03-28T14:46:41Z</time></trkpt><trkpt lat="45.186711001339816" lon="4.880227868928787"><ele>214.0</ele><time>2026-03-28T14:46:42Z</time></trkpt><trkpt lat="45.18648506414922" lon="4.880422494624432"><ele>210.0</ele><time>2026-03-28T14:46:43Z</time></trkpt><trkpt lat="45.186253291909104" lon="4.880604948774743"><ele>210.0</ele><time>2026-03-28T14:46:44Z</time></trkpt><trkpt lat="45.18601110752865" lon="4.880786000306285"><ele>210.0</ele><time>2026-03-28T14:46:45Z</time></trkpt><trkpt lat="45.18576738430668" lon="4.880953519084656"><ele>205.5</ele><time>2026-03-28T14:46:46Z</time></trkpt><trkpt lat="45.18551821218596" lon="4.881112524573497"><ele>201.0</ele><time>2026-03-28T14:46:47Z</time></trkpt><trkpt lat="45.18526977525724" lon="4.881262095896205"><ele>201.0</ele><time>2026-03-28T14:46:48Z</time></trkpt><trkpt lat="45.185018596907916" lon="4.881393803237901"><ele>201.0</ele><time>2026-03-28T14:46:49Z</time></trkpt><trkpt lat="45.18476350084974" lon="4.881520891210765"><ele>200.0</ele><time>2026-03-28T14:46:50Z</time></trkpt><trkpt lat="45.184507117187025" lon="4.881631260393835"><ele>199.0</ele><time>2026-03-28T14:46:51Z</time></trkpt><trkpt lat="45.18425244952402" lon="4.881730909912283"><ele>196.5</ele><time>2026-03-28T14:46:52Z</time></trkpt><trkpt lat="45.18399062000253" lon="4.881820608608697"><ele>194.0</ele><time>2026-03-28T14:46:53Z</time></trkpt><trkpt lat="45.18372994229122" lon="4.881899859657597"><ele>194.0</ele><time>2026-03-28T14:46:54Z</time></trkpt><trkpt lat="45.18346470795682" lon="4.881975472464537"><ele>194.0</ele><time>2026-03-28T14:46:55Z</time></trkpt><trkpt lat="45.183196929247266" lon="4.882030690321685"><ele>192.5</ele><time>2026-03-28T14:46:56Z</time></trkpt><trkpt lat="45.18292462142969" lon="4.88208807367148"><ele>191.0</ele><time>2026-03-28T14:46:57Z</time></trkpt><trkpt lat="45.182655307041166" lon="4.882142151966742"><ele>191.0</ele><time>2026-03-28T14:46:58Z</time></trkpt><trkpt lat="45.18238790867435" lon="4.882205339972742"><ele>191.0</ele><time>2026-03-28T14:46:59Z</time></trkpt><trkpt lat="45.18212262114563" lon="4.882275566171274"><ele>190.0</ele><time>2026-03-28T14:47:00Z</time></trkpt><trkpt lat="45.18185888244062" lon="4.882354808928236"><ele>189.0</ele><time>2026-03-28T14:47:01Z</time></trkpt><trkpt lat="45.18159708969142" lon="4.882448015725347"><ele>186.0</ele><time>2026-03-28T14:47:02Z</time></trkpt><trkpt lat="45.18133802762922" lon="4.88255240428415"><ele>183.0</ele><time>2026-03-28T14:47:03Z</time></trkpt><trkpt lat="45.181073470836026" lon="4.882660493811795"><ele>183.0</ele><time>2026-03-28T14:47:04Z</time></trkpt><trkpt lat="45.180815647390524" lon="4.8827820362338406"><ele>183.0</ele><time>2026-03-28T14:47:05Z</time></trkpt><trkpt lat="45.18056300571108" lon="4.882912048402573"><ele>182.0</ele><time>2026-03-28T14:47:06Z</time></trkpt><trkpt lat="45.18030574497226" lon="4.883059821735288"><ele>181.0</ele><time>2026-03-28T14:47:07Z</time></trkpt><trkpt lat="45.18005228167182" lon="4.883217821655094"><ele>181.5</ele><time>2026-03-28T14:47:08Z</time></trkpt><trkpt lat="45.17980770169845" lon="4.883389439447894"><ele>182.0</ele><time>2026-03-28T14:47:09Z</time></trkpt><trkpt lat="45.179564359078356" lon="4.883573867144361"><ele>182.0</ele><time>2026-03-28T14:47:10Z</time></trkpt><trkpt lat="45.17932774093164" lon="4.88376388046011"><ele>182.0</ele><time>2026-03-28T14:47:11Z</time></trkpt><trkpt lat="45.17909185996131" lon="4.883960231710079"><ele>181.0</ele><time>2026-03-28T14:47:12Z</time></trkpt><trkpt lat="45.17885958310515" lon="4.88415400959743"><ele>180.0</ele><time>2026-03-28T14:47:13Z</time></trkpt><trkpt lat="45.17862607415762" lon="4.884358827455233"><ele>180.0</ele><time>2026-03-28T14:47:14Z</time></trkpt><trkpt lat="45.17839736031051" lon="4.88456697460751"><ele>180.0</ele><time>2026-03-28T14:47:15Z</time></trkpt><trkpt lat="45.17816699049539" lon="4.8847742049991"><ele>180.5</ele><time>2026-03-28T14:47:16Z</time></trkpt><trkpt lat="45.17794251691403" lon="4.884979953503454"><ele>181.0</ele><time>2026-03-28T14:47:17Z</time></trkpt><trkpt lat="45.17771528837476" lon="4.885184149108702"><ele>181.0</ele><time>2026-03-28T14:47:18Z</time></trkpt><trkpt lat="45.177478975662005" lon="4.885386408079347"><ele>181.0</ele><time>2026-03-28T14:47:19Z</time></trkpt><trkpt lat="45.17724657875346" lon="4.885584020641302"><ele>180.5</ele><time>2026-03-28T14:47:20Z</time></trkpt><trkpt lat="45.17701363643868" lon="4.885776949866122"><ele>180.0</ele><time>2026-03-28T14:47:21Z</time></trkpt><trkpt lat="45.17677974973505" lon="4.885961317092311"><ele>180.0</ele><time>2026-03-28T14:47:22Z</time></trkpt><trkpt lat="45.17653949530551" lon="4.886135857535255"><ele>180.0</ele><time>2026-03-28T14:47:23Z</time></trkpt><trkpt lat="45.17629553550524" lon="4.886308589575118"><ele>181.5</ele><time>2026-03-28T14:47:24Z</time></trkpt><trkpt lat="45.17604646525429" lon="4.886479643194568"><ele>183.0</ele><time>2026-03-28T14:47:25Z</time></trkpt><trkpt lat="45.17579684985637" lon="4.886645502954742"><ele>183.0</ele><time>2026-03-28T14:47:26Z</time></trkpt><trkpt lat="45.175544616347715" lon="4.886809534795645"><ele>183.0</ele><time>2026-03-28T14:47:27Z</time></trkpt><trkpt lat="45.17529212286238" lon="4.886968128331403"><ele>183.0</ele><time>2026-03-28T14:47:28Z</time></trkpt><trkpt lat="45.17503780983951" lon="4.887118642008256"><ele>183.0</ele><time>2026-03-28T14:47:29Z</time></trkpt><trkpt lat="45.17478705850495" lon="4.8872623640536235"><ele>183.0</ele><time>2026-03-28T14:47:30Z</time></trkpt><trkpt lat="45.174536261774726" lon="4.887401744548515"><ele>183.0</ele><time>2026-03-28T14:47:31Z</time></trkpt><trkpt lat="45.174284044353904" lon="4.887536573211121"><ele>183.5</ele><time>2026-03-28T14:47:32Z</time></trkpt><trkpt lat="45.174032588149394" lon="4.887663560293584"><ele>184.0</ele><time>2026-03-28T14:47:33Z</time></trkpt><trkpt lat="45.173784814241785" lon="4.88778318458352"><ele>184.0</ele><time>2026-03-28T14:47:34Z</time></trkpt><trkpt lat="45.173529573132065" lon="4.887897778098625"><ele>184.0</ele><time>2026-03-28T14:47:35Z</time></trkpt><trkpt lat="45.173280921108216" lon="4.888009556149006"><ele>182.5</ele><time>2026-03-28T14:47:36Z</time></trkpt><trkpt lat="45.17302792166417" lon="4.8881105251064465"><ele>181.0</ele><time>2026-03-28T14:47:37Z</time></trkpt><trkpt lat="45.17277937638105" lon="4.888203259965653"><ele>181.0</ele><time>2026-03-28T14:47:38Z</time></trkpt><trkpt lat="45.17251938893333" lon="4.888288620986644"><ele>181.0</ele><time>2026-03-28T14:47:39Z</time></trkpt><trkpt lat="45.17226721201425" lon="4.888373830882768"><ele>181.0</ele><time>2026-03-28T14:47:40Z</time></trkpt><trkpt lat="45.17200635256025" lon="4.88845011415034"><ele>181.0</ele><time>2026-03-28T14:47:41Z</time></trkpt><trkpt lat="45.171751560872075" lon="4.888523965877365"><ele>182.0</ele><time>2026-03-28T14:47:42Z</time></trkpt><trkpt lat="45.17149711814305" lon="4.888593017600267"><ele>183.0</ele><time>2026-03-28T14:47:43Z</time></trkpt><trkpt lat="45.171239304515304" lon="4.8886567278643485"><ele>183.0</ele><time>2026-03-28T14:47:44Z</time></trkpt><trkpt lat="45.170983639225476" lon="4.888714845504533"><ele>183.0</ele><time>2026-03-28T14:47:45Z</time></trkpt><trkpt lat="45.17072767021533" lon="4.888767387089705"><ele>184.0</ele><time>2026-03-28T14:47:46Z</time></trkpt><trkpt lat="45.17047230462794" lon="4.888811814359057"><ele>185.0</ele><time>2026-03-28T14:47:47Z</time></trkpt><trkpt lat="45.17021776526763" lon="4.888853563911886"><ele>185.0</ele><time>2026-03-28T14:47:48Z</time></trkpt><trkpt lat="45.169961421156785" lon="4.888890492416995"><ele>185.0</ele><time>2026-03-28T14:47:49Z</time></trkpt><trkpt lat="45.16970758883205" lon="4.888919219349017"><ele>186.5</ele><time>2026-03-28T14:47:50Z</time></trkpt><trkpt lat="45.16945569334128" lon="4.888945996608795"><ele>188.0</ele><time>2026-03-28T14:47:51Z</time></trkpt><trkpt lat="45.16920307678125" lon="4.888964399394692"><ele>190.0</ele><time>2026-03-28T14:47:52Z</time></trkpt><trkpt lat="45.16895095789994" lon="4.8889796372001735"><ele>192.0</ele><time>2026-03-28T14:47:53Z</time></trkpt><trkpt lat="45.1686974536881" lon="4.888993575803729"><ele>192.0</ele><time>2026-03-28T14:47:54Z</time></trkpt><trkpt lat="45.168445163343506" lon="4.889002966402269"><ele>192.0</ele><time>2026-03-28T14:47:55Z</time></trkpt><trkpt lat="45.16818743705172" lon="4.88901325900744"><ele>192.0</ele><time>2026-03-28T14:47:56Z</time></trkpt><trkpt lat="45.16792213488157" lon="4.889011083357967"><ele>192.0</ele><time>2026-03-28T14:47:57Z</time></trkpt><trkpt lat="45.167655226789094" lon="4.889002658818447"><ele>192.0</ele><time>2026-03-28T14:47:58Z</time></trkpt><trkpt lat="45.16738540660441" lon="4.888994140496732"><ele>192.0</ele><time>2026-03-28T14:47:59Z</time></trkpt><trkpt lat="45.16711828280326" lon="4.888980221855124"><ele>193.0</ele><time>2026-03-28T14:48:00Z</time></trkpt><trkpt lat="45.166857210306006" lon="4.888962640158771"><ele>194.0</ele><time>2026-03-28T14:48:01Z</time></trkpt><trkpt lat="45.16659748243304" lon="4.8889521231370185"><ele>195.0</ele><time>2026-03-28T14:48:02Z</time></trkpt><trkpt lat="45.1663415972012" lon="4.888942537511233"><ele>196.0</ele><time>2026-03-28T14:48:03Z</time></trkpt><trkpt lat="45.16608597158897" lon="4.888928632528271"><ele>196.0</ele><time>2026-03-28T14:48:04Z</time></trkpt><trkpt lat="45.16583470915536" lon="4.88891491741137"><ele>196.0</ele><time>2026-03-28T14:48:05Z</time></trkpt><trkpt lat="45.165580684156104" lon="4.8888973615243705"><ele>196.5</ele><time>2026-03-28T14:48:06Z</time></trkpt><trkpt lat="45.16532484828318" lon="4.888883907598315"><ele>197.0</ele><time>2026-03-28T14:48:07Z</time></trkpt><trkpt lat="45.165069170723335" lon="4.888867560662276"><ele>198.0</ele><time>2026-03-28T14:48:08Z</time></trkpt><trkpt lat="45.164814353852165" lon="4.8888542797497"><ele>199.0</ele><time>2026-03-28T14:48:09Z</time></trkpt><trkpt lat="45.16455954187766" lon="4.888839825484365"><ele>199.0</ele><time>2026-03-28T14:48:10Z</time></trkpt><trkpt lat="45.16430354712168" lon="4.888824381376904"><ele>199.0</ele><time>2026-03-28T14:48:11Z</time></trkpt><trkpt lat="45.164048018200546" lon="4.888808536080281"><ele>199.0</ele><time>2026-03-28T14:48:12Z</time></trkpt><trkpt lat="45.16379306289113" lon="4.888792642871576"><ele>199.0</ele><time>2026-03-28T14:48:13Z</time></trkpt><trkpt lat="45.16353772290985" lon="4.888777401978123"><ele>199.0</ele><time>2026-03-28T14:48:14Z</time></trkpt><trkpt lat="45.16327828478511" lon="4.888762343976279"><ele>199.0</ele><time>2026-03-28T14:48:15Z</time></trkpt><trkpt lat="45.16302397287695" lon="4.888753289603928"><ele>200.5</ele><time>2026-03-28T14:48:16Z</time></trkpt><trkpt lat="45.16276612029833" lon="4.888740523387335"><ele>202.0</ele><time>2026-03-28T14:48:17Z</time></trkpt><trkpt lat="45.162507508868025" lon="4.888729923687581"><ele>202.0</ele><time>2026-03-28T14:48:18Z</time></trkpt><trkpt lat="45.1622490355713" lon="4.888719153639891"><ele>202.0</ele><time>2026-03-28T14:48:19Z</time></trkpt><trkpt lat="45.161984761664236" lon="4.888707474085753"><ele>202.0</ele><time>2026-03-28T14:48:20Z</time></trkpt><trkpt lat="45.16172052512106" lon="4.888694647221219"><ele>202.0</ele><time>2026-03-28T14:48:21Z</time></trkpt><trkpt lat="45.16145385287536" lon="4.888677811238667"><ele>201.0</ele><time>2026-03-28T14:48:22Z</time></trkpt><trkpt lat="45.1611857077949" lon="4.8886629058881175"><ele>200.0</ele><time>2026-03-28T14:48:23Z</time></trkpt><trkpt lat="45.16091538549095" lon="4.888646287825629"><ele>200.5</ele><time>2026-03-28T14:48:24Z</time></trkpt><trkpt lat="45.16064610758599" lon="4.888633661442498"><ele>201.0</ele><time>2026-03-28T14:48:25Z</time></trkpt><trkpt lat="45.1603766408904" lon="4.888618745608492"><ele>201.0</ele><time>2026-03-28T14:48:26Z</time></trkpt><trkpt lat="45.16010145055679" lon="4.888601018409546"><ele>201.0</ele><time>2026-03-28T14:48:27Z</time></trkpt><trkpt lat="45.159829678689626" lon="4.888585356649259"><ele>201.5</ele><time>2026-03-28T14:48:28Z</time></trkpt><trkpt lat="45.159560814557246" lon="4.88856693710242"><ele>202.0</ele><time>2026-03-28T14:48:29Z</time></trkpt><trkpt lat="45.159286090590385" lon="4.8885525988112954"><ele>203.0</ele><time>2026-03-28T14:48:30Z</time></trkpt><trkpt lat="45.15901319371945" lon="4.888537076472657"><ele>204.0</ele><time>2026-03-28T14:48:31Z</time></trkpt><trkpt lat="45.158740713890595" lon="4.888525145374219"><ele>204.0</ele><time>2026-03-28T14:48:32Z</time></trkpt><trkpt lat="45.158467726038836" lon="4.888513984783598"><ele>204.0</ele><time>2026-03-28T14:48:33Z</time></trkpt><trkpt lat="45.1581943472165" lon="4.888503113434204"><ele>205.0</ele><time>2026-03-28T14:48:34Z</time></trkpt><trkpt lat="45.15792022358048" lon="4.888490326583116"><ele>206.0</ele><time>2026-03-28T14:48:35Z</time></trkpt><trkpt lat="45.15764711577559" lon="4.888475872871022"><ele>206.0</ele><time>2026-03-28T14:48:36Z</time></trkpt><trkpt lat="45.15737416713502" lon="4.888464041207663"><ele>206.0</ele><time>2026-03-28T14:48:37Z</time></trkpt><trkpt lat="45.15709870929448" lon="4.888449477963584"><ele>208.0</ele><time>2026-03-28T14:48:38Z</time></trkpt><trkpt lat="45.156822513066615" lon="4.888432509644708"><ele>210.0</ele><time>2026-03-28T14:48:39Z</time></trkpt><trkpt lat="45.15654628490436" lon="4.888417884674816"><ele>211.5</ele><time>2026-03-28T14:48:40Z</time></trkpt><trkpt lat="45.156269978733874" lon="4.888398754053967"><ele>213.0</ele><time>2026-03-28T14:48:41Z</time></trkpt><trkpt lat="45.155996149029896" lon="4.888381097752128"><ele>213.0</ele><time>2026-03-28T14:48:42Z</time></trkpt><trkpt lat="45.155718110118684" lon="4.888367981585303"><ele>213.0</ele><time>2026-03-28T14:48:43Z</time></trkpt><trkpt lat="45.15543873716857" lon="4.888347116565794"><ele>213.5</ele><time>2026-03-28T14:48:44Z</time></trkpt><trkpt lat="45.15516369304146" lon="4.8883378963049715"><ele>214.0</ele><time>2026-03-28T14:48:45Z</time></trkpt><trkpt lat="45.15488850659528" lon="4.888319008535836"><ele>214.5</ele><time>2026-03-28T14:48:46Z</time></trkpt><trkpt lat="45.15461352507731" lon="4.888299030748981"><ele>215.0</ele><time>2026-03-28T14:48:47Z</time></trkpt><trkpt lat="45.15433970917693" lon="4.888280341062952"><ele>215.0</ele><time>2026-03-28T14:48:48Z</time></trkpt><trkpt lat="45.15406605110659" lon="4.888267123045414"><ele>215.0</ele><time>2026-03-28T14:48:49Z</time></trkpt><trkpt lat="45.153791497881635" lon="4.8882490040267585"><ele>216.0</ele><time>2026-03-28T14:48:50Z</time></trkpt><trkpt lat="45.15351944863201" lon="4.888234281138628"><ele>217.0</ele><time>2026-03-28T14:48:51Z</time></trkpt><trkpt lat="45.15324394023088" lon="4.888221828053009"><ele>219.0</ele><time>2026-03-28T14:48:52Z</time></trkpt><trkpt lat="45.152970189714715" lon="4.8882033208019955"><ele>221.0</ele><time>2026-03-28T14:48:53Z</time></trkpt><trkpt lat="45.15269936954796" lon="4.888192363584116"><ele>221.0</ele><time>2026-03-28T14:48:54Z</time></trkpt><trkpt lat="45.15242701434308" lon="4.888178207805119"><ele>221.0</ele><time>2026-03-28T14:48:55Z</time></trkpt><trkpt lat="45.15215650463554" lon="4.888166663595703"><ele>221.0</ele><time>2026-03-28T14:48:56Z</time></trkpt><trkpt lat="45.15187979905616" lon="4.888150817875793"><ele>221.0</ele><time>2026-03-28T14:48:57Z</time></trkpt><trkpt lat="45.15160243085007" lon="4.888130875197263"><ele>223.5</ele><time>2026-03-28T14:48:58Z</time></trkpt><trkpt lat="45.15132951555203" lon="4.888117895353091"><ele>226.0</ele><time>2026-03-28T14:48:59Z</time></trkpt><trkpt lat="45.1510588372374" lon="4.888104840330675"><ele>226.0</ele><time>2026-03-28T14:49:00Z</time></trkpt><trkpt lat="45.150787587885034" lon="4.888089092756391"><ele>226.0</ele><time>2026-03-28T14:49:01Z</time></trkpt><trkpt lat="45.150516734309775" lon="4.888075086734941"><ele>228.0</ele><time>2026-03-28T14:49:02Z</time></trkpt><trkpt lat="45.150245451937735" lon="4.888060700690193"><ele>230.0</ele><time>2026-03-28T14:49:03Z</time></trkpt><trkpt lat="45.14997612662342" lon="4.888048058566036"><ele>231.5</ele><time>2026-03-28T14:49:04Z</time></trkpt><trkpt lat="45.14970682121107" lon="4.888038341336288"><ele>233.0</ele><time>2026-03-28T14:49:05Z</time></trkpt><trkpt lat="45.14943561583052" lon="4.888032219587941"><ele>233.0</ele><time>2026-03-28T14:49:06Z</time></trkpt><trkpt lat="45.14916518733797" lon="4.8880310115658405"><ele>233.0</ele><time>2026-03-28T14:49:07Z</time></trkpt><trkpt lat="45.14889538555551" lon="4.888032227507809"><ele>235.0</ele><time>2026-03-28T14:49:08Z</time></trkpt><trkpt lat="45.148624107760156" lon="4.88803866099673"><ele>237.0</ele><time>2026-03-28T14:49:09Z</time></trkpt><trkpt lat="45.14835435714017" lon="4.888052404700535"><ele>238.0</ele><time>2026-03-28T14:49:10Z</time></trkpt><trkpt lat="45.148083926540224" lon="4.888074277028168"><ele>239.0</ele><time>2026-03-28T14:49:11Z</time></trkpt><trkpt lat="45.147814187745105" lon="4.8881063989085485"><ele>239.0</ele><time>2026-03-28T14:49:12Z</time></trkpt><trkpt lat="45.14754198518372" lon="4.8881427159749045"><ele>239.0</ele><time>2026-03-28T14:49:13Z</time></trkpt><trkpt lat="45.14727163049965" lon="4.888188584528042"><ele>238.5</ele><time>2026-03-28T14:49:14Z</time></trkpt><trkpt lat="45.14700206463463" lon="4.888241674303259"><ele>238.0</ele><time>2026-03-28T14:49:15Z</time></trkpt><trkpt lat="45.14673438108066" lon="4.888300744482393"><ele>239.0</ele><time>2026-03-28T14:49:16Z</time></trkpt><trkpt lat="45.146467987871645" lon="4.888366563323688"><ele>240.0</ele><time>2026-03-28T14:49:17Z</time></trkpt><trkpt lat="45.146202782077594" lon="4.8884396010791535"><ele>244.0</ele><time>2026-03-28T14:49:18Z</time></trkpt><trkpt lat="45.14594565952434" lon="4.8885259053120915"><ele>248.0</ele><time>2026-03-28T14:49:19Z</time></trkpt><trkpt lat="45.14568312537989" lon="4.888614931842615"><ele>248.0</ele><time>2026-03-28T14:49:20Z</time></trkpt><trkpt lat="45.14542514571658" lon="4.8887108701198105"><ele>248.0</ele><time>2026-03-28T14:49:21Z</time></trkpt><trkpt lat="45.14516329777753" lon="4.888815635578338"><ele>248.0</ele><time>2026-03-28T14:49:22Z</time></trkpt><trkpt lat="45.14490287783516" lon="4.888933429997086"><ele>248.0</ele><time>2026-03-28T14:49:23Z</time></trkpt><trkpt lat="45.144637697843926" lon="4.889057470220176"><ele>247.5</ele><time>2026-03-28T14:49:24Z</time></trkpt><trkpt lat="45.14437514664902" lon="4.889190039800342"><ele>247.0</ele><time>2026-03-28T14:49:25Z</time></trkpt><trkpt lat="45.14411594340542" lon="4.889332582100423"><ele>246.5</ele><time>2026-03-28T14:49:26Z</time></trkpt><trkpt lat="45.143850422141924" lon="4.889482443206188"><ele>246.0</ele><time>2026-03-28T14:49:27Z</time></trkpt><trkpt lat="45.143589446804235" lon="4.889637228770808"><ele>246.0</ele><time>2026-03-28T14:49:28Z</time></trkpt><trkpt lat="45.14332746840954" lon="4.889801362943154"><ele>246.0</ele><time>2026-03-28T14:49:29Z</time></trkpt><trkpt lat="45.14306353680728" lon="4.889967651239299"><ele>244.5</ele><time>2026-03-28T14:49:30Z</time></trkpt><trkpt lat="45.142794381104665" lon="4.89014015382992"><ele>243.0</ele><time>2026-03-28T14:49:31Z</time></trkpt><trkpt lat="45.14252906426182" lon="4.890319218088043"><ele>243.5</ele><time>2026-03-28T14:49:32Z</time></trkpt><trkpt lat="45.142265653614444" lon="4.890496311047078"><ele>244.0</ele><time>2026-03-28T14:49:33Z</time></trkpt><trkpt lat="45.14200123720261" lon="4.890675789833658"><ele>244.0</ele><time>2026-03-28T14:49:34Z</time></trkpt><trkpt lat="45.14173629092882" lon="4.890848631260703"><ele>244.0</ele><time>2026-03-28T14:49:35Z</time></trkpt><trkpt lat="45.14146901762993" lon="4.891011918408413"><ele>242.5</ele><time>2026-03-28T14:49:36Z</time></trkpt><trkpt lat="45.14120462006707" lon="4.891177641597472"><ele>241.0</ele><time>2026-03-28T14:49:37Z</time></trkpt><trkpt lat="45.14093697655591" lon="4.891335399924019"><ele>242.0</ele><time>2026-03-28T14:49:38Z</time></trkpt><trkpt lat="45.1406673073854" lon="4.891479359406617"><ele>243.0</ele><time>2026-03-28T14:49:39Z</time></trkpt><trkpt lat="45.14039638608387" lon="4.891623719205965"><ele>240.5</ele><time>2026-03-28T14:49:40Z</time></trkpt><trkpt lat="45.14012044044671" lon="4.891759857490724"><ele>238.0</ele><time>2026-03-28T14:49:41Z</time></trkpt><trkpt lat="45.139844659483046" lon="4.891888655549109"><ele>236.5</ele><time>2026-03-28T14:49:42Z</time></trkpt><trkpt lat="45.13956542353423" lon="4.892012053958847"><ele>235.0</ele><time>2026-03-28T14:49:43Z</time></trkpt><trkpt lat="45.139287305512354" lon="4.89213021860849"><ele>234.0</ele><time>2026-03-28T14:49:44Z</time></trkpt><trkpt lat="45.13900604093427" lon="4.892244559553209"><ele>233.0</ele><time>2026-03-28T14:49:45Z</time></trkpt><trkpt lat="45.138728260210605" lon="4.892350583035619"><ele>233.0</ele><time>2026-03-28T14:49:46Z</time></trkpt><trkpt lat="45.13844817181668" lon="4.89245200695347"><ele>233.0</ele><time>2026-03-28T14:49:47Z</time></trkpt><trkpt lat="45.13816914242047" lon="4.892547454397746"><ele>236.5</ele><time>2026-03-28T14:49:48Z</time></trkpt><trkpt lat="45.137887433685506" lon="4.892644986460953"><ele>240.0</ele><time>2026-03-28T14:49:49Z</time></trkpt><trkpt lat="45.137604995687006" lon="4.892740782988304"><ele>237.0</ele><time>2026-03-28T14:49:50Z</time></trkpt><trkpt lat="45.13732739047554" lon="4.892835451511167"><ele>234.0</ele><time>2026-03-28T14:49:51Z</time></trkpt><trkpt lat="45.137046692117735" lon="4.892930185906572"><ele>234.0</ele><time>2026-03-28T14:49:52Z</time></trkpt><trkpt lat="45.1367695181542" lon="4.893022734710227"><ele>234.0</ele><time>2026-03-28T14:49:53Z</time></trkpt><trkpt lat="45.136487413281074" lon="4.893113985982945"><ele>230.5</ele><time>2026-03-28T14:49:54Z</time></trkpt><trkpt lat="45.136209097917835" lon="4.893207456022623"><ele>227.0</ele><time>2026-03-28T14:49:55Z</time></trkpt><trkpt lat="45.13592430451786" lon="4.893297885795984"><ele>226.5</ele><time>2026-03-28T14:49:56Z</time></trkpt><trkpt lat="45.13565137300682" lon="4.893387839657426"><ele>226.0</ele><time>2026-03-28T14:49:57Z</time></trkpt><trkpt lat="45.13537591513619" lon="4.893478688719778"><ele>225.0</ele><time>2026-03-28T14:49:58Z</time></trkpt><trkpt lat="45.13509724700152" lon="4.893568282720749"><ele>224.0</ele><time>2026-03-28T14:49:59Z</time></trkpt><trkpt lat="45.134820731653505" lon="4.893663179052075"><ele>223.5</ele><time>2026-03-28T14:50:00Z</time></trkpt><trkpt lat="45.1345417569507" lon="4.893756828190921"><ele>223.0</ele><time>2026-03-28T14:50:01Z</time></trkpt><trkpt lat="45.13426668723409" lon="4.8938461164486196"><ele>222.5</ele><time>2026-03-28T14:50:02Z</time></trkpt><trkpt lat="45.133986974843936" lon="4.893935155647424"><ele>222.0</ele><time>2026-03-28T14:50:03Z</time></trkpt><trkpt lat="45.1337083276401" lon="4.894022817133582"><ele>222.0</ele><time>2026-03-28T14:50:04Z</time></trkpt><trkpt lat="45.13343286399493" lon="4.894104254679254"><ele>222.0</ele><time>2026-03-28T14:50:05Z</time></trkpt><trkpt lat="45.133159346144694" lon="4.894187289883773"><ele>221.0</ele><time>2026-03-28T14:50:06Z</time></trkpt><trkpt lat="45.13288628996425" lon="4.894273289581206"><ele>220.0</ele><time>2026-03-28T14:50:07Z</time></trkpt><trkpt lat="45.13261848879138" lon="4.894359601914566"><ele>219.5</ele><time>2026-03-28T14:50:08Z</time></trkpt><trkpt lat="45.13234809299996" lon="4.89444625639043"><ele>219.0</ele><time>2026-03-28T14:50:09Z</time></trkpt><trkpt lat="45.132077889453804" lon="4.894533066303977"><ele>219.0</ele><time>2026-03-28T14:50:10Z</time></trkpt><trkpt lat="45.13180804121321" lon="4.89462278251086"><ele>219.0</ele><time>2026-03-28T14:50:11Z</time></trkpt><trkpt lat="45.131539773759805" lon="4.894710785782603"><ele>220.5</ele><time>2026-03-28T14:50:12Z</time></trkpt><trkpt lat="45.13127416445352" lon="4.894800263434456"><ele>222.0</ele><time>2026-03-28T14:50:13Z</time></trkpt><trkpt lat="45.131005423667865" lon="4.894888051725292"><ele>222.0</ele><time>2026-03-28T14:50:14Z</time></trkpt><trkpt lat="45.13074004873228" lon="4.8949741806371145"><ele>222.0</ele><time>2026-03-28T14:50:15Z</time></trkpt><trkpt lat="45.13047168966951" lon="4.895059259481753"><ele>220.0</ele><time>2026-03-28T14:50:16Z</time></trkpt><trkpt lat="45.13020532602568" lon="4.895144764213833"><ele>218.0</ele><time>2026-03-28T14:50:17Z</time></trkpt><trkpt lat="45.12994242053031" lon="4.895228902987471"><ele>217.5</ele><time>2026-03-28T14:50:18Z</time></trkpt><trkpt lat="45.12967622844239" lon="4.8953197645026725"><ele>217.0</ele><time>2026-03-28T14:50:19Z</time></trkpt><trkpt lat="45.12941013477709" lon="4.895408712740001"><ele>217.0</ele><time>2026-03-28T14:50:20Z</time></trkpt><trkpt lat="45.129144495608315" lon="4.895494977691009"><ele>217.0</ele><time>2026-03-28T14:50:21Z</time></trkpt><trkpt lat="45.128876830022804" lon="4.895583706109084"><ele>217.0</ele><time>2026-03-28T14:50:22Z</time></trkpt><trkpt lat="45.128615303830905" lon="4.895672117907383"><ele>217.0</ele><time>2026-03-28T14:50:23Z</time></trkpt><trkpt lat="45.12835672525317" lon="4.895756892957557"><ele>217.0</ele><time>2026-03-28T14:50:24Z</time></trkpt><trkpt lat="45.12809455978039" lon="4.895845204756032"><ele>217.0</ele><time>2026-03-28T14:50:25Z</time></trkpt><trkpt lat="45.1278329038854" lon="4.895933328814406"><ele>213.5</ele><time>2026-03-28T14:50:26Z</time></trkpt><trkpt lat="45.12757223139717" lon="4.896016908554575"><ele>210.0</ele><time>2026-03-28T14:50:27Z</time></trkpt><trkpt lat="45.127309619073195" lon="4.896098742587693"><ele>209.5</ele><time>2026-03-28T14:50:28Z</time></trkpt><trkpt lat="45.12704561130275" lon="4.896180442984277"><ele>209.0</ele><time>2026-03-28T14:50:29Z</time></trkpt><trkpt lat="45.12677677074279" lon="4.896255203916353"><ele>209.5</ele><time>2026-03-28T14:50:30Z</time></trkpt><trkpt lat="45.12650611078291" lon="4.896318241192087"><ele>210.0</ele><time>2026-03-28T14:50:31Z</time></trkpt><trkpt lat="45.126236569803254" lon="4.896367894905876"><ele>210.0</ele><time>2026-03-28T14:50:32Z</time></trkpt><trkpt lat="45.125967877146834" lon="4.896406931153663"><ele>210.0</ele><time>2026-03-28T14:50:33Z</time></trkpt><trkpt lat="45.12569542482227" lon="4.8964383399321285"><ele>210.0</ele><time>2026-03-28T14:50:34Z</time></trkpt><trkpt lat="45.12542263606026" lon="4.896463550706506"><ele>210.0</ele><time>2026-03-28T14:50:35Z</time></trkpt><trkpt lat="45.12514997508682" lon="4.89648231683778"><ele>210.0</ele><time>2026-03-28T14:50:36Z</time></trkpt><trkpt lat="45.124876543925524" lon="4.89649371184592"><ele>210.0</ele><time>2026-03-28T14:50:37Z</time></trkpt><trkpt lat="45.124603476949915" lon="4.896495159140961"><ele>210.0</ele><time>2026-03-28T14:50:38Z</time></trkpt><trkpt lat="45.12432864765125" lon="4.896490306703257"><ele>210.0</ele><time>2026-03-28T14:50:39Z</time></trkpt><trkpt lat="45.12405183768116" lon="4.8964761292694154"><ele>209.0</ele><time>2026-03-28T14:50:40Z</time></trkpt><trkpt lat="45.12377498853511" lon="4.896455719053889"><ele>208.0</ele><time>2026-03-28T14:50:41Z</time></trkpt><trkpt lat="45.12349902122426" lon="4.896425569490176"><ele>207.5</ele><time>2026-03-28T14:50:42Z</time></trkpt><trkpt lat="45.123220382227615" lon="4.896385978371891"><ele>207.0</ele><time>2026-03-28T14:50:43Z</time></trkpt><trkpt lat="45.122945631940226" lon="4.896337412872259"><ele>207.0</ele><time>2026-03-28T14:50:44Z</time></trkpt><trkpt lat="45.12267123724462" lon="4.896283873966703"><ele>207.0</ele><time>2026-03-28T14:50:45Z</time></trkpt><trkpt lat="45.12239773342691" lon="4.896221525074322"><ele>206.0</ele><time>2026-03-28T14:50:46Z</time></trkpt><trkpt lat="45.1221229424147" lon="4.896150135173738"><ele>205.0</ele><time>2026-03-28T14:50:47Z</time></trkpt><trkpt lat="45.121854726598905" lon="4.896073659798403"><ele>205.0</ele><time>2026-03-28T14:50:48Z</time></trkpt><trkpt lat="45.12158757793199" lon="4.8959899490329"><ele>205.0</ele><time>2026-03-28T14:50:49Z</time></trkpt><trkpt lat="45.12132049290519" lon="4.8958952195757695"><ele>206.0</ele><time>2026-03-28T14:50:50Z</time></trkpt><trkpt lat="45.1210590079189" lon="4.895793440900568"><ele>207.0</ele><time>2026-03-28T14:50:51Z</time></trkpt><trkpt lat="45.12079921164297" lon="4.895684622691443"><ele>205.0</ele><time>2026-03-28T14:50:52Z</time></trkpt><trkpt lat="45.120539189429294" lon="4.895563102343533"><ele>203.0</ele><time>2026-03-28T14:50:53Z</time></trkpt><trkpt lat="45.12027740122928" lon="4.895436663790389"><ele>203.0</ele><time>2026-03-28T14:50:54Z</time></trkpt><trkpt lat="45.12002305000272" lon="4.895303843653755"><ele>203.0</ele><time>2026-03-28T14:50:55Z</time></trkpt><trkpt lat="45.119762658971574" lon="4.895165540309563"><ele>203.0</ele><time>2026-03-28T14:50:56Z</time></trkpt><trkpt lat="45.119509403961395" lon="4.89502192516298"><ele>203.0</ele><time>2026-03-28T14:50:57Z</time></trkpt><trkpt lat="45.11925277188544" lon="4.894872210564793"><ele>204.0</ele><time>2026-03-28T14:50:58Z</time></trkpt><trkpt lat="45.119001212371494" lon="4.8947150886857305"><ele>205.0</ele><time>2026-03-28T14:50:59Z</time></trkpt><trkpt lat="45.11875500313243" lon="4.894553509253407"><ele>205.0</ele><time>2026-03-28T14:51:00Z</time></trkpt><trkpt lat="45.11850760158447" lon="4.894379687739336"><ele>205.0</ele><time>2026-03-28T14:51:01Z</time></trkpt><trkpt lat="45.11826561694254" lon="4.894195731858934"><ele>206.0</ele><time>2026-03-28T14:51:02Z</time></trkpt><trkpt lat="45.11802588215362" lon="4.894008305577822"><ele>207.0</ele><time>2026-03-28T14:51:03Z</time></trkpt><trkpt lat="45.117791450507795" lon="4.893813073232812"><ele>207.0</ele><time>2026-03-28T14:51:04Z</time></trkpt><trkpt lat="45.11755467810343" lon="4.893603793659299"><ele>207.0</ele><time>2026-03-28T14:51:05Z</time></trkpt><trkpt lat="45.11732228480033" lon="4.893398662987268"><ele>207.0</ele><time>2026-03-28T14:51:06Z</time></trkpt><trkpt lat="45.11709204944295" lon="4.893190134064582"><ele>207.0</ele><time>2026-03-28T14:51:07Z</time></trkpt><trkpt lat="45.1168624414047" lon="4.892968393699196"><ele>207.0</ele><time>2026-03-28T14:51:08Z</time></trkpt><trkpt lat="45.11663869252807" lon="4.892736882721975"><ele>207.0</ele><time>2026-03-28T14:51:09Z</time></trkpt><trkpt lat="45.11642263162758" lon="4.892507225842548"><ele>206.5</ele><time>2026-03-28T14:51:10Z</time></trkpt><trkpt lat="45.11620743314273" lon="4.892267167053637"><ele>206.0</ele><time>2026-03-28T14:51:11Z</time></trkpt><trkpt lat="45.115993155478634" lon="4.8920185196458394"><ele>206.0</ele><time>2026-03-28T14:51:12Z</time></trkpt><trkpt lat="45.11578072953192" lon="4.891769738863032"><ele>206.0</ele><time>2026-03-28T14:51:13Z</time></trkpt><trkpt lat="45.11557050269693" lon="4.891522515787224"><ele>205.0</ele><time>2026-03-28T14:51:14Z</time></trkpt><trkpt lat="45.115360494957876" lon="4.8912722009201985"><ele>204.0</ele><time>2026-03-28T14:51:15Z</time></trkpt><trkpt lat="45.11514967684712" lon="4.891023688903754"><ele>203.5</ele><time>2026-03-28T14:51:16Z</time></trkpt><trkpt lat="45.114940198291876" lon="4.890769147733518"><ele>203.0</ele><time>2026-03-28T14:51:17Z</time></trkpt><trkpt lat="45.114730086557486" lon="4.890519774128455"><ele>201.5</ele><time>2026-03-28T14:51:18Z</time></trkpt><trkpt lat="45.11452072179622" lon="4.890263110945542"><ele>200.0</ele><time>2026-03-28T14:51:19Z</time></trkpt><trkpt lat="45.114313598938324" lon="4.890014112501335"><ele>200.0</ele><time>2026-03-28T14:51:20Z</time></trkpt><trkpt lat="45.1141037335579" lon="4.889765291219187"><ele>200.0</ele><time>2026-03-28T14:51:21Z</time></trkpt><trkpt lat="45.1138929757012" lon="4.889515656446576"><ele>200.0</ele><time>2026-03-28T14:51:22Z</time></trkpt><trkpt lat="45.11368029456573" lon="4.889269831323073"><ele>200.0</ele><time>2026-03-28T14:51:23Z</time></trkpt><trkpt lat="45.11346905998233" lon="4.889021976289181"><ele>200.0</ele><time>2026-03-28T14:51:24Z</time></trkpt><trkpt lat="45.113253318504405" lon="4.888777858251114"><ele>200.0</ele><time>2026-03-28T14:51:25Z</time></trkpt><trkpt lat="45.11303245293473" lon="4.8885372152738125"><ele>201.5</ele><time>2026-03-28T14:51:26Z</time></trkpt><trkpt lat="45.1128147057509" lon="4.888302903971314"><ele>203.0</ele><time>2026-03-28T14:51:27Z</time></trkpt><trkpt lat="45.112593508697586" lon="4.888073505728689"><ele>200.0</ele><time>2026-03-28T14:51:28Z</time></trkpt><trkpt lat="45.112366668291976" lon="4.887846937629497"><ele>197.0</ele><time>2026-03-28T14:51:29Z</time></trkpt><trkpt lat="45.112137232443374" lon="4.887622586155444"><ele>197.5</ele><time>2026-03-28T14:51:30Z</time></trkpt><trkpt lat="45.111903011255144" lon="4.887401710575581"><ele>198.0</ele><time>2026-03-28T14:51:31Z</time></trkpt><trkpt lat="45.111673517717335" lon="4.88718960711347"><ele>195.0</ele><time>2026-03-28T14:51:32Z</time></trkpt><trkpt lat="45.11144158217053" lon="4.886980999570795"><ele>192.0</ele><time>2026-03-28T14:51:33Z</time></trkpt><trkpt lat="45.11120853706345" lon="4.886773185697179"><ele>191.0</ele><time>2026-03-28T14:51:34Z</time></trkpt><trkpt lat="45.11097363524623" lon="4.886564013826144"><ele>190.0</ele><time>2026-03-28T14:51:35Z</time></trkpt><trkpt lat="45.11073822206097" lon="4.8863684850105304"><ele>190.0</ele><time>2026-03-28T14:51:36Z</time></trkpt><trkpt lat="45.11050513671782" lon="4.886178141021327"><ele>190.0</ele><time>2026-03-28T14:51:37Z</time></trkpt><trkpt lat="45.11026802749262" lon="4.885979572479477"><ele>191.0</ele><time>2026-03-28T14:51:38Z</time></trkpt><trkpt lat="45.1100302423537" lon="4.885776193382457"><ele>192.0</ele><time>2026-03-28T14:51:39Z</time></trkpt><trkpt lat="45.10979443209029" lon="4.885576080174166"><ele>190.0</ele><time>2026-03-28T14:51:40Z</time></trkpt><trkpt lat="45.10955499642034" lon="4.885379540987669"><ele>188.0</ele><time>2026-03-28T14:51:41Z</time></trkpt><trkpt lat="45.10931686885453" lon="4.8851859026540145"><ele>188.0</ele><time>2026-03-28T14:51:42Z</time></trkpt><trkpt lat="45.109076215353994" lon="4.884988729978749"><ele>188.0</ele><time>2026-03-28T14:51:43Z</time></trkpt><trkpt lat="45.10883770081617" lon="4.884790739470963"><ele>188.0</ele><time>2026-03-28T14:51:44Z</time></trkpt><trkpt lat="45.10859829769874" lon="4.884590520788244"><ele>188.0</ele><time>2026-03-28T14:51:45Z</time></trkpt><trkpt lat="45.108357661435896" lon="4.884390113852243"><ele>187.0</ele><time>2026-03-28T14:51:46Z</time></trkpt><trkpt lat="45.10811793331669" lon="4.884192292926338"><ele>186.0</ele><time>2026-03-28T14:51:47Z</time></trkpt><trkpt lat="45.10787904203613" lon="4.88399446757489"><ele>186.0</ele><time>2026-03-28T14:51:48Z</time></trkpt><trkpt lat="45.107640341277786" lon="4.883792269910665"><ele>186.0</ele><time>2026-03-28T14:51:49Z</time></trkpt><trkpt lat="45.10740003974114" lon="4.883594802200128"><ele>185.0</ele><time>2026-03-28T14:51:50Z</time></trkpt><trkpt lat="45.107160179584284" lon="4.8833957737675995"><ele>184.0</ele><time>2026-03-28T14:51:51Z</time></trkpt><trkpt lat="45.106923993440745" lon="4.88319816944456"><ele>184.0</ele><time>2026-03-28T14:51:52Z</time></trkpt><trkpt lat="45.10668672955343" lon="4.88300207452892"><ele>184.0</ele><time>2026-03-28T14:51:53Z</time></trkpt><trkpt lat="45.10645013475352" lon="4.882811660884926"><ele>183.5</ele><time>2026-03-28T14:51:54Z</time></trkpt><trkpt lat="45.10621055622836" lon="4.882611036816319"><ele>183.0</ele><time>2026-03-28T14:51:55Z</time></trkpt><trkpt lat="45.1059695794218" lon="4.882414815399551"><ele>183.5</ele><time>2026-03-28T14:51:56Z</time></trkpt><trkpt lat="45.105731810785514" lon="4.882225949279928"><ele>184.0</ele><time>2026-03-28T14:51:57Z</time></trkpt><trkpt lat="45.10549227693401" lon="4.882030915912375"><ele>184.0</ele><time>2026-03-28T14:51:58Z</time></trkpt><trkpt lat="45.10525657486158" lon="4.881834682729965"><ele>184.0</ele><time>2026-03-28T14:51:59Z</time></trkpt><trkpt lat="45.105017901300464" lon="4.881638833428639"><ele>185.0</ele><time>2026-03-28T14:52:00Z</time></trkpt><trkpt lat="45.104778587386384" lon="4.881438886867563"><ele>186.0</ele><time>2026-03-28T14:52:01Z</time></trkpt><trkpt lat="45.10454059858277" lon="4.881240858270305"><ele>186.0</ele><time>2026-03-28T14:52:02Z</time></trkpt><trkpt lat="45.10430327489831" lon="4.881043305901783"><ele>186.0</ele><time>2026-03-28T14:52:03Z</time></trkpt><trkpt lat="45.104062576676874" lon="4.880843475714961"><ele>183.5</ele><time>2026-03-28T14:52:04Z</time></trkpt><trkpt lat="45.103821671027" lon="4.88064250528555"><ele>181.0</ele><time>2026-03-28T14:52:05Z</time></trkpt><trkpt lat="45.103580157057856" lon="4.880444159056232"><ele>181.0</ele><time>2026-03-28T14:52:06Z</time></trkpt><trkpt lat="45.103338835403335" lon="4.880248349573875"><ele>181.0</ele><time>2026-03-28T14:52:07Z</time></trkpt><trkpt lat="45.10309706761472" lon="4.880058482752511"><ele>180.5</ele><time>2026-03-28T14:52:08Z</time></trkpt><trkpt lat="45.10285459582936" lon="4.879864094590133"><ele>180.0</ele><time>2026-03-28T14:52:09Z</time></trkpt><trkpt lat="45.102609354783" lon="4.879684760398835"><ele>179.0</ele><time>2026-03-28T14:52:10Z</time></trkpt><trkpt lat="45.10236353591818" lon="4.879505887617056"><ele>178.0</ele><time>2026-03-28T14:52:11Z</time></trkpt><trkpt lat="45.102117461363285" lon="4.87934059590146"><ele>179.0</ele><time>2026-03-28T14:52:12Z</time></trkpt><trkpt lat="45.10186584953601" lon="4.879182957032061"><ele>180.0</ele><time>2026-03-28T14:52:13Z</time></trkpt><trkpt lat="45.10161531497135" lon="4.879024096462078"><ele>179.0</ele><time>2026-03-28T14:52:14Z</time></trkpt><trkpt lat="45.10136095242998" lon="4.8788733489891145"><ele>178.0</ele><time>2026-03-28T14:52:15Z</time></trkpt><trkpt lat="45.101106802578954" lon="4.878741787757524"><ele>178.0</ele><time>2026-03-28T14:52:16Z</time></trkpt><trkpt lat="45.10084449153291" lon="4.878613198948756"><ele>178.0</ele><time>2026-03-28T14:52:17Z</time></trkpt><trkpt lat="45.10057929096667" lon="4.878510167932357"><ele>177.5</ele><time>2026-03-28T14:52:18Z</time></trkpt><trkpt lat="45.10031047076024" lon="4.8784038311377795"><ele>177.0</ele><time>2026-03-28T14:52:19Z</time></trkpt><trkpt lat="45.10004278657401" lon="4.878312689846458"><ele>177.0</ele><time>2026-03-28T14:52:20Z</time></trkpt><trkpt lat="45.099768765504024" lon="4.8782365954195335"><ele>177.0</ele><time>2026-03-28T14:52:21Z</time></trkpt><trkpt lat="45.09949806285269" lon="4.878168344350256"><ele>177.0</ele><time>2026-03-28T14:52:22Z</time></trkpt><trkpt lat="45.09922899758847" lon="4.878110851156369"><ele>177.0</ele><time>2026-03-28T14:52:23Z</time></trkpt><trkpt lat="45.09895143168804" lon="4.87805944691961"><ele>175.5</ele><time>2026-03-28T14:52:24Z</time></trkpt><trkpt lat="45.098680653034904" lon="4.878018820813722"><ele>174.0</ele><time>2026-03-28T14:52:25Z</time></trkpt><trkpt lat="45.09840959500091" lon="4.877987411563672"><ele>174.0</ele><time>2026-03-28T14:52:26Z</time></trkpt><trkpt lat="45.09813402221101" lon="4.87796713621992"><ele>174.0</ele><time>2026-03-28T14:52:27Z</time></trkpt><trkpt lat="45.09786145664158" lon="4.877952887022967"><ele>174.0</ele><time>2026-03-28T14:52:28Z</time></trkpt><trkpt lat="45.09758455935085" lon="4.877951346142999"><ele>174.0</ele><time>2026-03-28T14:52:29Z</time></trkpt><trkpt lat="45.09731136451159" lon="4.877963166713476"><ele>173.5</ele><time>2026-03-28T14:52:30Z</time></trkpt><trkpt lat="45.09703528067778" lon="4.877982516234405"><ele>173.0</ele><time>2026-03-28T14:52:31Z</time></trkpt><trkpt lat="45.09676183598882" lon="4.878008324377148"><ele>173.5</ele><time>2026-03-28T14:52:32Z</time></trkpt><trkpt lat="45.09648921219365" lon="4.878042910276033"><ele>174.0</ele><time>2026-03-28T14:52:33Z</time></trkpt><trkpt lat="45.09621720822099" lon="4.878087516376396"><ele>174.0</ele><time>2026-03-28T14:52:34Z</time></trkpt><trkpt lat="45.09594396034675" lon="4.878142587799938"><ele>174.0</ele><time>2026-03-28T14:52:35Z</time></trkpt><trkpt lat="45.09567638295803" lon="4.878212282016296"><ele>174.5</ele><time>2026-03-28T14:52:36Z</time></trkpt><trkpt lat="45.095404190667466" lon="4.878284914503117"><ele>175.0</ele><time>2026-03-28T14:52:37Z</time></trkpt><trkpt lat="45.09513432997324" lon="4.87836843030227"><ele>173.0</ele><time>2026-03-28T14:52:38Z</time></trkpt><trkpt lat="45.094867913584" lon="4.878458639939956"><ele>171.0</ele><time>2026-03-28T14:52:39Z</time></trkpt><trkpt lat="45.094600191622455" lon="4.878551677755745"><ele>171.0</ele><time>2026-03-28T14:52:40Z</time></trkpt><trkpt lat="45.0943333769936" lon="4.87864238362537"><ele>171.0</ele><time>2026-03-28T14:52:41Z</time></trkpt><trkpt lat="45.094066906848774" lon="4.8787308251225845"><ele>173.0</ele><time>2026-03-28T14:52:42Z</time></trkpt><trkpt lat="45.09379822248147" lon="4.878819190201647"><ele>175.0</ele><time>2026-03-28T14:52:43Z</time></trkpt><trkpt lat="45.09353186691908" lon="4.878905619756518"><ele>175.0</ele><time>2026-03-28T14:52:44Z</time></trkpt><trkpt lat="45.093265346132846" lon="4.878984455001795"><ele>175.0</ele><time>2026-03-28T14:52:45Z</time></trkpt><trkpt lat="45.09299792180873" lon="4.87905432899871"><ele>175.0</ele><time>2026-03-28T14:52:46Z</time></trkpt><trkpt lat="45.09272825955166" lon="4.879117002705808"><ele>175.0</ele><time>2026-03-28T14:52:47Z</time></trkpt><trkpt lat="45.092456899610994" lon="4.879165921540142"><ele>176.0</ele><time>2026-03-28T14:52:48Z</time></trkpt><trkpt lat="45.09218964710883" lon="4.879206550303575"><ele>177.0</ele><time>2026-03-28T14:52:49Z</time></trkpt><trkpt lat="45.09192017709006" lon="4.8792341856926615"><ele>177.0</ele><time>2026-03-28T14:52:50Z</time></trkpt><trkpt lat="45.0916492979552" lon="4.879251632621812"><ele>177.0</ele><time>2026-03-28T14:52:51Z</time></trkpt><trkpt lat="45.09137819680062" lon="4.8792585832718105"><ele>175.0</ele><time>2026-03-28T14:52:52Z</time></trkpt><trkpt lat="45.09111031822853" lon="4.879257928293348"><ele>173.0</ele><time>2026-03-28T14:52:53Z</time></trkpt><trkpt lat="45.09084524526649" lon="4.879242589473975"><ele>171.0</ele><time>2026-03-28T14:52:54Z</time></trkpt><trkpt lat="45.090576638792065" lon="4.879220769071903"><ele>169.0</ele><time>2026-03-28T14:52:55Z</time></trkpt><trkpt lat="45.0903136172077" lon="4.8791903406129356"><ele>169.0</ele><time>2026-03-28T14:52:56Z</time></trkpt><trkpt lat="45.09005185355562" lon="4.879152406445386"><ele>169.0</ele><time>2026-03-28T14:52:57Z</time></trkpt><trkpt lat="45.08979161049583" lon="4.879109402902023"><ele>167.5</ele><time>2026-03-28T14:52:58Z</time></trkpt><trkpt lat="45.089530586584125" lon="4.879062385460851"><ele>166.0</ele><time>2026-03-28T14:52:59Z</time></trkpt><trkpt lat="45.0892669821714" lon="4.879012117475385"><ele>164.0</ele><time>2026-03-28T14:53:00Z</time></trkpt><trkpt lat="45.08900573788499" lon="4.878964093855713"><ele>162.0</ele><time>2026-03-28T14:53:01Z</time></trkpt><trkpt lat="45.0887468769636" lon="4.878914827270689"><ele>162.0</ele><time>2026-03-28T14:53:02Z</time></trkpt><trkpt lat="45.08848466445197" lon="4.878861728801525"><ele>162.0</ele><time>2026-03-28T14:53:03Z</time></trkpt><trkpt lat="45.088228648248744" lon="4.8787996322721625"><ele>160.5</ele><time>2026-03-28T14:53:04Z</time></trkpt><trkpt lat="45.08797181033025" lon="4.878731981565742"><ele>159.0</ele><time>2026-03-28T14:53:05Z</time></trkpt><trkpt lat="45.087716421716486" lon="4.878653206448857"><ele>159.0</ele><time>2026-03-28T14:53:06Z</time></trkpt><trkpt lat="45.087461703961786" lon="4.878565566430942"><ele>159.0</ele><time>2026-03-28T14:53:07Z</time></trkpt><trkpt lat="45.087207854587724" lon="4.878473578229859"><ele>163.5</ele><time>2026-03-28T14:53:08Z</time></trkpt><trkpt lat="45.086955850319086" lon="4.878371976066419"><ele>168.0</ele><time>2026-03-28T14:53:09Z</time></trkpt><trkpt lat="45.08670041779574" lon="4.878267879183785"><ele>164.5</ele><time>2026-03-28T14:53:10Z</time></trkpt><trkpt lat="45.08645031331203" lon="4.878158526732144"><ele>161.0</ele><time>2026-03-28T14:53:11Z</time></trkpt><trkpt lat="45.08619898132047" lon="4.878042353360336"><ele>161.0</ele><time>2026-03-28T14:53:12Z</time></trkpt><trkpt lat="45.085947914079554" lon="4.8779190261381435"><ele>161.0</ele><time>2026-03-28T14:53:13Z</time></trkpt><trkpt lat="45.08569640274897" lon="4.8777882801946095"><ele>159.5</ele><time>2026-03-28T14:53:14Z</time></trkpt><trkpt lat="45.08544252737781" lon="4.8776533109535105"><ele>158.0</ele><time>2026-03-28T14:53:15Z</time></trkpt><trkpt lat="45.085188344967385" lon="4.877512758256406"><ele>158.5</ele><time>2026-03-28T14:53:16Z</time></trkpt><trkpt lat="45.08493686528047" lon="4.877366039588391"><ele>159.0</ele><time>2026-03-28T14:53:17Z</time></trkpt><trkpt lat="45.08468231191363" lon="4.87721067183834"><ele>159.0</ele><time>2026-03-28T14:53:18Z</time></trkpt><trkpt lat="45.08443477669898" lon="4.8770492197869615"><ele>159.0</ele><time>2026-03-28T14:53:19Z</time></trkpt><trkpt lat="45.084190814720685" lon="4.876879510519923"><ele>158.0</ele><time>2026-03-28T14:53:20Z</time></trkpt><trkpt lat="45.08395411387031" lon="4.87670301703559"><ele>157.0</ele><time>2026-03-28T14:53:21Z</time></trkpt><trkpt lat="45.083716603271" lon="4.876523083915287"><ele>157.0</ele><time>2026-03-28T14:53:22Z</time></trkpt><trkpt lat="45.083478645861064" lon="4.876337703484164"><ele>157.0</ele><time>2026-03-28T14:53:23Z</time></trkpt><trkpt lat="45.083241091178294" lon="4.876144249338499"><ele>157.5</ele><time>2026-03-28T14:53:24Z</time></trkpt><trkpt lat="45.083006148937606" lon="4.875942813666865"><ele>158.0</ele><time>2026-03-28T14:53:25Z</time></trkpt><trkpt lat="45.08277319559304" lon="4.875732497199413"><ele>158.0</ele><time>2026-03-28T14:53:26Z</time></trkpt><trkpt lat="45.0825482095358" lon="4.875518276784494"><ele>158.0</ele><time>2026-03-28T14:53:27Z</time></trkpt><trkpt lat="45.082326150410466" lon="4.875308134008056"><ele>156.5</ele><time>2026-03-28T14:53:28Z</time></trkpt><trkpt lat="45.08210495032793" lon="4.875086069422867"><ele>155.0</ele><time>2026-03-28T14:53:29Z</time></trkpt><trkpt lat="45.08188867156431" lon="4.87485057307405"><ele>155.0</ele><time>2026-03-28T14:53:30Z</time></trkpt><trkpt lat="45.08167766461624" lon="4.874604491870057"><ele>155.0</ele><time>2026-03-28T14:53:31Z</time></trkpt><trkpt lat="45.081468904196456" lon="4.874354178313794"><ele>154.0</ele><time>2026-03-28T14:53:32Z</time></trkpt><trkpt lat="45.08125646932489" lon="4.874097580013967"><ele>153.0</ele><time>2026-03-28T14:53:33Z</time></trkpt><trkpt lat="45.08104858857369" lon="4.873842016406426"><ele>153.0</ele><time>2026-03-28T14:53:34Z</time></trkpt><trkpt lat="45.08084249430134" lon="4.873583341027181"><ele>153.0</ele><time>2026-03-28T14:53:35Z</time></trkpt><trkpt lat="45.08064096683797" lon="4.873323217139235"><ele>150.5</ele><time>2026-03-28T14:53:36Z</time></trkpt><trkpt lat="45.08043662542749" lon="4.873064024343572"><ele>148.0</ele><time>2026-03-28T14:53:37Z</time></trkpt><trkpt lat="45.08023318091515" lon="4.872807906028082"><ele>148.5</ele><time>2026-03-28T14:53:38Z</time></trkpt><trkpt lat="45.08003105751398" lon="4.8725438439697735"><ele>149.0</ele><time>2026-03-28T14:53:39Z</time></trkpt><trkpt lat="45.079830652727786" lon="4.872286405810013"><ele>149.0</ele><time>2026-03-28T14:53:40Z</time></trkpt><trkpt lat="45.07963122908357" lon="4.872027664289903"><ele>149.0</ele><time>2026-03-28T14:53:41Z</time></trkpt><trkpt lat="45.079432228520254" lon="4.87177148851107"><ele>149.0</ele><time>2026-03-28T14:53:42Z</time></trkpt><trkpt lat="45.07922778736949" lon="4.871524764717348"><ele>149.0</ele><time>2026-03-28T14:53:43Z</time></trkpt><trkpt lat="45.079014833533684" lon="4.871282811053052"><ele>148.0</ele><time>2026-03-28T14:53:44Z</time></trkpt><trkpt lat="45.078802278708444" lon="4.871052487810851"><ele>147.0</ele><time>2026-03-28T14:53:45Z</time></trkpt><trkpt lat="45.07858437589438" lon="4.870824636473965"><ele>147.0</ele><time>2026-03-28T14:53:46Z</time></trkpt><trkpt lat="45.078360210044245" lon="4.870603546107758"><ele>147.0</ele><time>2026-03-28T14:53:47Z</time></trkpt><trkpt lat="45.078134321263036" lon="4.870389344869404"><ele>146.5</ele><time>2026-03-28T14:53:48Z</time></trkpt><trkpt lat="45.077904962044" lon="4.870192116395027"><ele>146.0</ele><time>2026-03-28T14:53:49Z</time></trkpt><trkpt lat="45.07767077849434" lon="4.87000490063595"><ele>144.5</ele><time>2026-03-28T14:53:50Z</time></trkpt><trkpt lat="45.07743440538816" lon="4.8698285705057485"><ele>143.0</ele><time>2026-03-28T14:53:51Z</time></trkpt><trkpt lat="45.077193173142426" lon="4.869663486198626"><ele>143.0</ele><time>2026-03-28T14:53:52Z</time></trkpt><trkpt lat="45.076947601325216" lon="4.8694982447127675"><ele>143.0</ele><time>2026-03-28T14:53:53Z</time></trkpt><trkpt lat="45.076698951307485" lon="4.869346754871926"><ele>141.5</ele><time>2026-03-28T14:53:54Z</time></trkpt><trkpt lat="45.076451669443635" lon="4.869210548570342"><ele>140.0</ele><time>2026-03-28T14:53:55Z</time></trkpt><trkpt lat="45.07620299505311" lon="4.869084450914779"><ele>140.0</ele><time>2026-03-28T14:53:56Z</time></trkpt><trkpt lat="45.07595144688207" lon="4.8689650155225905"><ele>140.0</ele><time>2026-03-28T14:53:57Z</time></trkpt><trkpt lat="45.075699009190004" lon="4.868856657908453"><ele>140.0</ele><time>2026-03-28T14:53:58Z</time></trkpt><trkpt lat="45.07544478804825" lon="4.8687615017692485"><ele>140.0</ele><time>2026-03-28T14:53:59Z</time></trkpt><trkpt lat="45.07518715110366" lon="4.868676918363059"><ele>140.5</ele><time>2026-03-28T14:54:00Z</time></trkpt><trkpt lat="45.07493101931545" lon="4.868607371640381"><ele>141.0</ele><time>2026-03-28T14:54:01Z</time></trkpt><trkpt lat="45.07467410813698" lon="4.8685447628331575"><ele>141.0</ele><time>2026-03-28T14:54:02Z</time></trkpt><trkpt lat="45.0744222253913" lon="4.868491606082511"><ele>141.0</ele><time>2026-03-28T14:54:03Z</time></trkpt><trkpt lat="45.07416265460399" lon="4.868449209416521"><ele>141.5</ele><time>2026-03-28T14:54:04Z</time></trkpt><trkpt lat="45.07390314375852" lon="4.868417312935167"><ele>142.0</ele><time>2026-03-28T14:54:05Z</time></trkpt><trkpt lat="45.07364184326615" lon="4.868395313341421"><ele>142.0</ele><time>2026-03-28T14:54:06Z</time></trkpt><trkpt lat="45.073382353837935" lon="4.868381659260375"><ele>142.0</ele><time>2026-03-28T14:54:07Z</time></trkpt><trkpt lat="45.073120974125736" lon="4.868384663629388"><ele>141.0</ele><time>2026-03-28T14:54:08Z</time></trkpt><trkpt lat="45.072858498091804" lon="4.868395938072386"><ele>140.0</ele><time>2026-03-28T14:54:09Z</time></trkpt><trkpt lat="45.07259388143712" lon="4.868417077048342"><ele>138.0</ele><time>2026-03-28T14:54:10Z</time></trkpt><trkpt lat="45.0723318563024" lon="4.868448165729334"><ele>136.0</ele><time>2026-03-28T14:54:11Z</time></trkpt><trkpt lat="45.072068621006274" lon="4.868490796827129"><ele>136.0</ele><time>2026-03-28T14:54:12Z</time></trkpt><trkpt lat="45.071805263532376" lon="4.868541073184663"><ele>136.0</ele><time>2026-03-28T14:54:13Z</time></trkpt><trkpt lat="45.07154241637208" lon="4.868603529889103"><ele>135.5</ele><time>2026-03-28T14:54:14Z</time></trkpt><trkpt lat="45.071283296652005" lon="4.86868325687842"><ele>135.0</ele><time>2026-03-28T14:54:15Z</time></trkpt><trkpt lat="45.07102337989487" lon="4.868767946592804"><ele>136.0</ele><time>2026-03-28T14:54:16Z</time></trkpt><trkpt lat="45.07076632306667" lon="4.8688634549776335"><ele>137.0</ele><time>2026-03-28T14:54:17Z</time></trkpt><trkpt lat="45.07050989481386" lon="4.868966830906156"><ele>137.0</ele><time>2026-03-28T14:54:18Z</time></trkpt><trkpt lat="45.070256022664225" lon="4.869084303042506"><ele>137.0</ele><time>2026-03-28T14:54:19Z</time></trkpt><trkpt lat="45.07000962879773" lon="4.869221565917992"><ele>137.5</ele><time>2026-03-28T14:54:20Z</time></trkpt><trkpt lat="45.06976167744389" lon="4.869347039732312"><ele>138.0</ele><time>2026-03-28T14:54:21Z</time></trkpt><trkpt lat="45.069518440632564" lon="4.8694919111299955"><ele>138.0</ele><time>2026-03-28T14:54:22Z</time></trkpt><trkpt lat="45.069284721921576" lon="4.8696447119060124"><ele>138.0</ele><time>2026-03-28T14:54:23Z</time></trkpt><trkpt lat="45.069051444788045" lon="4.869811079203776"><ele>138.0</ele><time>2026-03-28T14:54:24Z</time></trkpt><trkpt lat="45.06882257867864" lon="4.869989077190511"><ele>138.0</ele><time>2026-03-28T14:54:25Z</time></trkpt><trkpt lat="45.068587804429455" lon="4.8701712121102"><ele>138.0</ele><time>2026-03-28T14:54:26Z</time></trkpt><trkpt lat="45.068359891132154" lon="4.8703630514726255"><ele>138.0</ele><time>2026-03-28T14:54:27Z</time></trkpt><trkpt lat="45.068138965394816" lon="4.870565430618205"><ele>138.0</ele><time>2026-03-28T14:54:28Z</time></trkpt><trkpt lat="45.067925303375205" lon="4.8707758611289265"><ele>138.0</ele><time>2026-03-28T14:54:29Z</time></trkpt><trkpt lat="45.06771378582978" lon="4.870990743086518"><ele>138.0</ele><time>2026-03-28T14:54:30Z</time></trkpt><trkpt lat="45.06750100633938" lon="4.871202764482264"><ele>138.0</ele><time>2026-03-28T14:54:31Z</time></trkpt><trkpt lat="45.06728942940047" lon="4.871416015733018"><ele>138.5</ele><time>2026-03-28T14:54:32Z</time></trkpt><trkpt lat="45.06707309502323" lon="4.8716322407777435"><ele>139.0</ele><time>2026-03-28T14:54:33Z</time></trkpt><trkpt lat="45.06685464051494" lon="4.871844102197548"><ele>139.0</ele><time>2026-03-28T14:54:34Z</time></trkpt><trkpt lat="45.06663409192272" lon="4.872051119120097"><ele>139.0</ele><time>2026-03-28T14:54:35Z</time></trkpt><trkpt lat="45.06641183319398" lon="4.872252305514187"><ele>138.5</ele><time>2026-03-28T14:54:36Z</time></trkpt><trkpt lat="45.066185090892056" lon="4.872450884538538"><ele>138.0</ele><time>2026-03-28T14:54:37Z</time></trkpt><trkpt lat="45.065957455678415" lon="4.872642118108392"><ele>136.0</ele><time>2026-03-28T14:54:38Z</time></trkpt><trkpt lat="45.065723532755364" lon="4.872835374050616"><ele>134.0</ele><time>2026-03-28T14:54:39Z</time></trkpt><trkpt lat="45.06548796065192" lon="4.873023510252822"><ele>134.0</ele><time>2026-03-28T14:54:40Z</time></trkpt><trkpt lat="45.06524927949637" lon="4.873211478826259"><ele>134.0</ele><time>2026-03-28T14:54:41Z</time></trkpt><trkpt lat="45.065009358805845" lon="4.873392907446457"><ele>135.0</ele><time>2026-03-28T14:54:42Z</time></trkpt><trkpt lat="45.06476753035999" lon="4.873570297204179"><ele>136.0</ele><time>2026-03-28T14:54:43Z</time></trkpt><trkpt lat="45.0645199216415" lon="4.8737390803936"><ele>136.0</ele><time>2026-03-28T14:54:44Z</time></trkpt><trkpt lat="45.06427414690054" lon="4.873909003209858"><ele>136.0</ele><time>2026-03-28T14:54:45Z</time></trkpt><trkpt lat="45.064026752437314" lon="4.874077271514866"><ele>134.5</ele><time>2026-03-28T14:54:46Z</time></trkpt><trkpt lat="45.06377668501919" lon="4.874238524342042"><ele>133.0</ele><time>2026-03-28T14:54:47Z</time></trkpt><trkpt lat="45.06352649153135" lon="4.874396164841709"><ele>135.5</ele><time>2026-03-28T14:54:48Z</time></trkpt><trkpt lat="45.0632733328557" lon="4.8745502718363865"><ele>138.0</ele><time>2026-03-28T14:54:49Z</time></trkpt><trkpt lat="45.063019034235964" lon="4.874696017718934"><ele>138.0</ele><time>2026-03-28T14:54:50Z</time></trkpt><trkpt lat="45.062761027756885" lon="4.8748366410703206"><ele>138.0</ele><time>2026-03-28T14:54:51Z</time></trkpt><trkpt lat="45.06250425773477" lon="4.874975750903242"><ele>140.0</ele><time>2026-03-28T14:54:52Z</time></trkpt><trkpt lat="45.0622472498085" lon="4.875110878616921"><ele>142.0</ele><time>2026-03-28T14:54:53Z</time></trkpt><trkpt lat="45.061993346456575" lon="4.875240697442483"><ele>142.0</ele><time>2026-03-28T14:54:54Z</time></trkpt><trkpt lat="45.061741270479814" lon="4.875373106557187"><ele>142.0</ele><time>2026-03-28T14:54:55Z</time></trkpt><trkpt lat="45.06148426179883" lon="4.875492347073062"><ele>140.5</ele><time>2026-03-28T14:54:56Z</time></trkpt><trkpt lat="45.06122603064601" lon="4.875608088816592"><ele>139.0</ele><time>2026-03-28T14:54:57Z</time></trkpt><trkpt lat="45.06096670344538" lon="4.875716001055104"><ele>137.5</ele><time>2026-03-28T14:54:58Z</time></trkpt><trkpt lat="45.06070793922349" lon="4.875822131719463"><ele>136.0</ele><time>2026-03-28T14:54:59Z</time></trkpt><trkpt lat="45.0604439453819" lon="4.875922158374383"><ele>138.5</ele><time>2026-03-28T14:55:00Z</time></trkpt><trkpt lat="45.06017999400684" lon="4.876015484508747"><ele>141.0</ele><time>2026-03-28T14:55:01Z</time></trkpt><trkpt lat="45.05992091150064" lon="4.876111705055602"><ele>141.0</ele><time>2026-03-28T14:55:02Z</time></trkpt><trkpt lat="45.05966130662632" lon="4.876202409627877"><ele>141.0</ele><time>2026-03-28T14:55:03Z</time></trkpt><trkpt lat="45.059397086167124" lon="4.87628542552242"><ele>141.0</ele><time>2026-03-28T14:55:04Z</time></trkpt><trkpt lat="45.059131110376995" lon="4.876366440385027"><ele>141.0</ele><time>2026-03-28T14:55:05Z</time></trkpt><trkpt lat="45.05886760420874" lon="4.87643910055339"><ele>141.5</ele><time>2026-03-28T14:55:06Z</time></trkpt><trkpt lat="45.05860346363741" lon="4.876508929436627"><ele>142.0</ele><time>2026-03-28T14:55:07Z</time></trkpt><trkpt lat="45.05833951515019" lon="4.876573077650566"><ele>142.0</ele><time>2026-03-28T14:55:08Z</time></trkpt><trkpt lat="45.058071930318015" lon="4.876632910627541"><ele>142.0</ele><time>2026-03-28T14:55:09Z</time></trkpt><trkpt lat="45.05780260469917" lon="4.876689200446318"><ele>142.0</ele><time>2026-03-28T14:55:10Z</time></trkpt><trkpt lat="45.057533783971046" lon="4.876737886529879"><ele>142.0</ele><time>2026-03-28T14:55:11Z</time></trkpt><trkpt lat="45.057264774476366" lon="4.876786655961237"><ele>142.0</ele><time>2026-03-28T14:55:12Z</time></trkpt><trkpt lat="45.05699412802654" lon="4.876831108064109"><ele>142.0</ele><time>2026-03-28T14:55:13Z</time></trkpt><trkpt lat="45.05672139443897" lon="4.876870584932012"><ele>143.0</ele><time>2026-03-28T14:55:14Z</time></trkpt><trkpt lat="45.056449364484465" lon="4.876903745533723"><ele>144.0</ele><time>2026-03-28T14:55:15Z</time></trkpt><trkpt lat="45.05617913926714" lon="4.876933657187484"><ele>144.0</ele><time>2026-03-28T14:55:16Z</time></trkpt><trkpt lat="45.05591061074195" lon="4.876964179378898"><ele>144.0</ele><time>2026-03-28T14:55:17Z</time></trkpt><trkpt lat="45.0556379151496" lon="4.876995050881707"><ele>144.0</ele><time>2026-03-28T14:55:18Z</time></trkpt><trkpt lat="45.05536652749921" lon="4.877024158164457"><ele>144.0</ele><time>2026-03-28T14:55:19Z</time></trkpt><trkpt lat="45.055092076121724" lon="4.877053140464692"><ele>144.0</ele><time>2026-03-28T14:55:20Z</time></trkpt><trkpt lat="45.0548173337457" lon="4.877084768966684"><ele>144.0</ele><time>2026-03-28T14:55:21Z</time></trkpt><trkpt lat="45.054544031953185" lon="4.8771187503217455"><ele>144.0</ele><time>2026-03-28T14:55:22Z</time></trkpt><trkpt lat="45.05426872113701" lon="4.877152036069985"><ele>144.0</ele><time>2026-03-28T14:55:23Z</time></trkpt><trkpt lat="45.05399280791617" lon="4.877181140008802"><ele>144.5</ele><time>2026-03-28T14:55:24Z</time></trkpt><trkpt lat="45.05371904570704" lon="4.877210482155019"><ele>145.0</ele><time>2026-03-28T14:55:25Z</time></trkpt><trkpt lat="45.0534451823613" lon="4.877240722102293"><ele>144.0</ele><time>2026-03-28T14:55:26Z</time></trkpt><trkpt lat="45.053171693558376" lon="4.877273407577353"><ele>143.0</ele><time>2026-03-28T14:55:27Z</time></trkpt><trkpt lat="45.052897728726194" lon="4.877302426347502"><ele>143.0</ele><time>2026-03-28T14:55:28Z</time></trkpt><trkpt lat="45.05262183187634" lon="4.8773327445481565"><ele>143.0</ele><time>2026-03-28T14:55:29Z</time></trkpt><trkpt lat="45.05234455276061" lon="4.877363784943947"><ele>143.5</ele><time>2026-03-28T14:55:30Z</time></trkpt><trkpt lat="45.0520724072551" lon="4.8773983880352425"><ele>144.0</ele><time>2026-03-28T14:55:31Z</time></trkpt><trkpt lat="45.05179606583443" lon="4.877431358814282"><ele>143.5</ele><time>2026-03-28T14:55:32Z</time></trkpt><trkpt lat="45.05152244533018" lon="4.8774650156880375"><ele>143.0</ele><time>2026-03-28T14:55:33Z</time></trkpt><trkpt lat="45.051246842272036" lon="4.877496330716254"><ele>143.0</ele><time>2026-03-28T14:55:34Z</time></trkpt><trkpt lat="45.05096875831137" lon="4.8775283896891874"><ele>143.0</ele><time>2026-03-28T14:55:35Z</time></trkpt><trkpt lat="45.050694781267886" lon="4.877561146387558"><ele>143.5</ele><time>2026-03-28T14:55:36Z</time></trkpt><trkpt lat="45.05041807081827" lon="4.877592013510874"><ele>144.0</ele><time>2026-03-28T14:55:37Z</time></trkpt><trkpt lat="45.050144521138805" lon="4.877624978614363"><ele>143.5</ele><time>2026-03-28T14:55:38Z</time></trkpt><trkpt lat="45.04987155145016" lon="4.877658630456934"><ele>143.0</ele><time>2026-03-28T14:55:39Z</time></trkpt><trkpt lat="45.04959583921438" lon="4.8776921139836364"><ele>143.0</ele><time>2026-03-28T14:55:40Z</time></trkpt><trkpt lat="45.04931897326538" lon="4.8777252865604925"><ele>143.0</ele><time>2026-03-28T14:55:41Z</time></trkpt><trkpt lat="45.04904322702774" lon="4.877757568057267"><ele>142.0</ele><time>2026-03-28T14:55:42Z</time></trkpt><trkpt lat="45.048767601089544" lon="4.87778797779733"><ele>141.0</ele><time>2026-03-28T14:55:43Z</time></trkpt><trkpt lat="45.048489770408914" lon="4.877822550753024"><ele>141.0</ele><time>2026-03-28T14:55:44Z</time></trkpt><trkpt lat="45.04821192396947" lon="4.877853786425231"><ele>141.0</ele><time>2026-03-28T14:55:45Z</time></trkpt><trkpt lat="45.047937106512066" lon="4.8778804255658805"><ele>141.0</ele><time>2026-03-28T14:55:46Z</time></trkpt><trkpt lat="45.0476626355231" lon="4.877910797783497"><ele>141.0</ele><time>2026-03-28T14:55:47Z</time></trkpt><trkpt lat="45.04738740940466" lon="4.8779427341079"><ele>141.5</ele><time>2026-03-28T14:55:48Z</time></trkpt><trkpt lat="45.047111953006024" lon="4.87797670985268"><ele>142.0</ele><time>2026-03-28T14:55:49Z</time></trkpt><trkpt lat="45.04683531599456" lon="4.878008572080709"><ele>142.5</ele><time>2026-03-28T14:55:50Z</time></trkpt><trkpt lat="45.04656265664635" lon="4.878035770439149"><ele>143.0</ele><time>2026-03-28T14:55:51Z</time></trkpt><trkpt lat="45.04628736075638" lon="4.878064639997686"><ele>143.0</ele><time>2026-03-28T14:55:52Z</time></trkpt><trkpt lat="45.046013416621406" lon="4.878093448612444"><ele>143.0</ele><time>2026-03-28T14:55:53Z</time></trkpt><trkpt lat="45.04574138286097" lon="4.878117188677008"><ele>142.0</ele><time>2026-03-28T14:55:54Z</time></trkpt><trkpt lat="45.045470033159454" lon="4.878138235440466"><ele>141.0</ele><time>2026-03-28T14:55:55Z</time></trkpt><trkpt lat="45.045195451610084" lon="4.8781544744936"><ele>142.0</ele><time>2026-03-28T14:55:56Z</time></trkpt><trkpt lat="45.044923811767546" lon="4.878167843050482"><ele>143.0</ele><time>2026-03-28T14:55:57Z</time></trkpt><trkpt lat="45.044651481287836" lon="4.8781785857402395"><ele>143.0</ele><time>2026-03-28T14:55:58Z</time></trkpt><trkpt lat="45.044376532936006" lon="4.878183189649822"><ele>143.0</ele><time>2026-03-28T14:55:59Z</time></trkpt><trkpt lat="45.0441035829419" lon="4.878183754838025"><ele>142.5</ele><time>2026-03-28T14:56:00Z</time></trkpt><trkpt lat="45.04382916949436" lon="4.878181086976719"><ele>142.0</ele><time>2026-03-28T14:56:01Z</time></trkpt><trkpt lat="45.0435568102505" lon="4.8781734274683926"><ele>143.0</ele><time>2026-03-28T14:56:02Z</time></trkpt><trkpt lat="45.043283426342704" lon="4.878163889921021"><ele>144.0</ele><time>2026-03-28T14:56:03Z</time></trkpt><trkpt lat="45.0430109183318" lon="4.878147362108963"><ele>144.0</ele><time>2026-03-28T14:56:04Z</time></trkpt><trkpt lat="45.042736252211164" lon="4.878127175096385"><ele>144.0</ele><time>2026-03-28T14:56:05Z</time></trkpt><trkpt lat="45.042462326495674" lon="4.878103610162003"><ele>144.0</ele><time>2026-03-28T14:56:06Z</time></trkpt><trkpt lat="45.04218938278937" lon="4.8780775508379985"><ele>144.0</ele><time>2026-03-28T14:56:07Z</time></trkpt><trkpt lat="45.04191595180737" lon="4.878048044588915"><ele>144.0</ele><time>2026-03-28T14:56:08Z</time></trkpt><trkpt lat="45.04164453010608" lon="4.878016013485028"><ele>144.0</ele><time>2026-03-28T14:56:09Z</time></trkpt><trkpt lat="45.04137416672557" lon="4.877977466191618"><ele>144.0</ele><time>2026-03-28T14:56:10Z</time></trkpt><trkpt lat="45.04110144799346" lon="4.877935215682644"><ele>144.0</ele><time>2026-03-28T14:56:11Z</time></trkpt><trkpt lat="45.04083273435824" lon="4.877889237809155"><ele>143.5</ele><time>2026-03-28T14:56:12Z</time></trkpt><trkpt lat="45.04056421282294" lon="4.87783933520821"><ele>143.0</ele><time>2026-03-28T14:56:13Z</time></trkpt><trkpt lat="45.04029460453676" lon="4.877786375797277"><ele>143.0</ele><time>2026-03-28T14:56:14Z</time></trkpt><trkpt lat="45.04002470929966" lon="4.877728470686114"><ele>143.0</ele><time>2026-03-28T14:56:15Z</time></trkpt><trkpt lat="45.03975451300459" lon="4.87766812281495"><ele>143.0</ele><time>2026-03-28T14:56:16Z</time></trkpt><trkpt lat="45.03948272434445" lon="4.8776002959618365"><ele>143.0</ele><time>2026-03-28T14:56:17Z</time></trkpt><trkpt lat="45.039211230552816" lon="4.877529244194674"><ele>142.5</ele><time>2026-03-28T14:56:18Z</time></trkpt><trkpt lat="45.038942815458384" lon="4.877451923321072"><ele>142.0</ele><time>2026-03-28T14:56:19Z</time></trkpt><trkpt lat="45.03867315128594" lon="4.877372487153054"><ele>142.0</ele><time>2026-03-28T14:56:20Z</time></trkpt><trkpt lat="45.03840449154842" lon="4.877289484305902"><ele>142.0</ele><time>2026-03-28T14:56:21Z</time></trkpt><trkpt lat="45.03813602511463" lon="4.8772005856973975"><ele>141.5</ele><time>2026-03-28T14:56:22Z</time></trkpt><trkpt lat="45.03786365054363" lon="4.877112169846856"><ele>141.0</ele><time>2026-03-28T14:56:23Z</time></trkpt><trkpt lat="45.0375905877134" lon="4.877019728462438"><ele>141.0</ele><time>2026-03-28T14:56:24Z</time></trkpt><trkpt lat="45.03732549391697" lon="4.876931445620294"><ele>141.0</ele><time>2026-03-28T14:56:25Z</time></trkpt><trkpt lat="45.03705670466201" lon="4.876846337100622"><ele>141.0</ele><time>2026-03-28T14:56:26Z</time></trkpt><trkpt lat="45.03678588678525" lon="4.876762136764434"><ele>141.0</ele><time>2026-03-28T14:56:27Z</time></trkpt><trkpt lat="45.03651841491035" lon="4.876675099584771"><ele>141.0</ele><time>2026-03-28T14:56:28Z</time></trkpt><trkpt lat="45.03624475937206" lon="4.876588711499564"><ele>141.0</ele><time>2026-03-28T14:56:29Z</time></trkpt><trkpt lat="45.03597387888576" lon="4.876503038872551"><ele>141.5</ele><time>2026-03-28T14:56:30Z</time></trkpt><trkpt lat="45.03570855694901" lon="4.876416263574536"><ele>142.0</ele><time>2026-03-28T14:56:31Z</time></trkpt><trkpt lat="45.03545058936261" lon="4.876332388704691"><ele>142.0</ele><time>2026-03-28T14:56:32Z</time></trkpt><trkpt lat="45.03518030931574" lon="4.8762497488420475"><ele>142.0</ele><time>2026-03-28T14:56:33Z</time></trkpt><trkpt lat="45.0349112716913" lon="4.876166270624907"><ele>142.0</ele><time>2026-03-28T14:56:34Z</time></trkpt><trkpt lat="45.03464314845836" lon="4.876087489867246"><ele>142.0</ele><time>2026-03-28T14:56:35Z</time></trkpt><trkpt lat="45.03437368952516" lon="4.876010195426602"><ele>142.0</ele><time>2026-03-28T14:56:36Z</time></trkpt><trkpt lat="45.03410615613572" lon="4.87593671429091"><ele>142.0</ele><time>2026-03-28T14:56:37Z</time></trkpt><trkpt lat="45.03383761893893" lon="4.87587057668771"><ele>142.0</ele><time>2026-03-28T14:56:38Z</time></trkpt><trkpt lat="45.033570451842174" lon="4.875804207910096"><ele>142.0</ele><time>2026-03-28T14:56:39Z</time></trkpt><trkpt lat="45.033298293416586" lon="4.875739596095806"><ele>141.0</ele><time>2026-03-28T14:56:40Z</time></trkpt><trkpt lat="45.03302435556814" lon="4.875668180090721"><ele>140.0</ele><time>2026-03-28T14:56:41Z</time></trkpt><trkpt lat="45.03275458116556" lon="4.875609451308716"><ele>140.0</ele><time>2026-03-28T14:56:42Z</time></trkpt><trkpt lat="45.03248752246748" lon="4.875554345027545"><ele>140.0</ele><time>2026-03-28T14:56:43Z</time></trkpt><trkpt lat="45.03221799013113" lon="4.875502445370133"><ele>140.5</ele><time>2026-03-28T14:56:44Z</time></trkpt><trkpt lat="45.03194731057267" lon="4.875446103337205"><ele>141.0</ele><time>2026-03-28T14:56:45Z</time></trkpt><trkpt lat="45.03167298684977" lon="4.875396782306321"><ele>141.0</ele><time>2026-03-28T14:56:46Z</time></trkpt><trkpt lat="45.03139726195668" lon="4.875350105768836"><ele>141.0</ele><time>2026-03-28T14:56:47Z</time></trkpt><trkpt lat="45.03112204308381" lon="4.8753009092190185"><ele>141.0</ele><time>2026-03-28T14:56:48Z</time></trkpt><trkpt lat="45.030847806755425" lon="4.875255154684294"><ele>141.0</ele><time>2026-03-28T14:56:49Z</time></trkpt><trkpt lat="45.0305725390814" lon="4.875212993756657"><ele>141.0</ele><time>2026-03-28T14:56:50Z</time></trkpt><trkpt lat="45.030300787534586" lon="4.8751750964663785"><ele>141.0</ele><time>2026-03-28T14:56:51Z</time></trkpt><trkpt lat="45.030020435239685" lon="4.8751380450961035"><ele>140.0</ele><time>2026-03-28T14:56:52Z</time></trkpt><trkpt lat="45.029743278745876" lon="4.875111177677029"><ele>139.0</ele><time>2026-03-28T14:56:53Z</time></trkpt><trkpt lat="45.02946736948885" lon="4.875088610026179"><ele>138.5</ele><time>2026-03-28T14:56:54Z</time></trkpt><trkpt lat="45.02919249016007" lon="4.875065586300891"><ele>138.0</ele><time>2026-03-28T14:56:55Z</time></trkpt><trkpt lat="45.02891753000304" lon="4.875044581685928"><ele>139.0</ele><time>2026-03-28T14:56:56Z</time></trkpt><trkpt lat="45.028645783175186" lon="4.8750257324667885"><ele>140.0</ele><time>2026-03-28T14:56:57Z</time></trkpt><trkpt lat="45.02836858143427" lon="4.87500276098599"><ele>140.5</ele><time>2026-03-28T14:56:58Z</time></trkpt><trkpt lat="45.028089582967226" lon="4.8749846164943875"><ele>141.0</ele><time>2026-03-28T14:56:59Z</time></trkpt><trkpt lat="45.02781158711215" lon="4.874962376513205"><ele>141.0</ele><time>2026-03-28T14:57:00Z</time></trkpt><trkpt lat="45.02753575274924" lon="4.874943518187108"><ele>141.0</ele><time>2026-03-28T14:57:01Z</time></trkpt><trkpt lat="45.02725947862232" lon="4.874923244171289"><ele>140.0</ele><time>2026-03-28T14:57:02Z</time></trkpt><trkpt lat="45.02698725279092" lon="4.874901085766614"><ele>139.0</ele><time>2026-03-28T14:57:03Z</time></trkpt><trkpt lat="45.02672449050747" lon="4.874884048071639"><ele>139.0</ele><time>2026-03-28T14:57:04Z</time></trkpt><trkpt lat="45.02646383640076" lon="4.874878757169346"><ele>139.0</ele><time>2026-03-28T14:57:05Z</time></trkpt><trkpt lat="45.026204795362354" lon="4.874876549896001"><ele>139.0</ele><time>2026-03-28T14:57:06Z</time></trkpt><trkpt lat="45.02595661962262" lon="4.874875599796431"><ele>139.0</ele><time>2026-03-28T14:57:07Z</time></trkpt><trkpt lat="45.025714789566635" lon="4.874875084744116"><ele>138.0</ele><time>2026-03-28T14:57:08Z</time></trkpt><trkpt lat="45.02548164745668" lon="4.874876905589452"><ele>137.0</ele><time>2026-03-28T14:57:09Z</time></trkpt><trkpt lat="45.025254800068126" lon="4.874881719806494"><ele>137.0</ele><time>2026-03-28T14:57:10Z</time></trkpt><trkpt lat="45.02503488098869" lon="4.874886116056286"><ele>137.0</ele><time>2026-03-28T14:57:11Z</time></trkpt><trkpt lat="45.02481637297211" lon="4.874891361666954"><ele>137.0</ele><time>2026-03-28T14:57:12Z</time></trkpt><trkpt lat="45.02459716349296" lon="4.874896631280768"><ele>137.0</ele><time>2026-03-28T14:57:13Z</time></trkpt><trkpt lat="45.024378316266336" lon="4.8749052728553295"><ele>137.0</ele><time>2026-03-28T14:57:14Z</time></trkpt><trkpt lat="45.024158312794334" lon="4.874910364783107"><ele>137.0</ele><time>2026-03-28T14:57:15Z</time></trkpt><trkpt lat="45.02393295962981" lon="4.874919499248156"><ele>137.0</ele><time>2026-03-28T14:57:16Z</time></trkpt><trkpt lat="45.02370825480545" lon="4.874931186800878"><ele>137.0</ele><time>2026-03-28T14:57:17Z</time></trkpt><trkpt lat="45.02348313958222" lon="4.874946604592783"><ele>137.0</ele><time>2026-03-28T14:57:18Z</time></trkpt><trkpt lat="45.023254384685046" lon="4.874962891622478"><ele>137.0</ele><time>2026-03-28T14:57:19Z</time></trkpt><trkpt lat="45.02302977650333" lon="4.874976232956945"><ele>137.0</ele><time>2026-03-28T14:57:20Z</time></trkpt><trkpt lat="45.02280654556919" lon="4.874993160252151"><ele>137.0</ele><time>2026-03-28T14:57:21Z</time></trkpt><trkpt lat="45.02257840323746" lon="4.8750102585554504"><ele>137.0</ele><time>2026-03-28T14:57:22Z</time></trkpt><trkpt lat="45.02235155557462" lon="4.875028336876323"><ele>137.0</ele><time>2026-03-28T14:57:23Z</time></trkpt><trkpt lat="45.02212616300951" lon="4.875052425244511"><ele>137.0</ele><time>2026-03-28T14:57:24Z</time></trkpt><trkpt lat="45.02190268388936" lon="4.875073683748207"><ele>137.0</ele><time>2026-03-28T14:57:25Z</time></trkpt><trkpt lat="45.021680440793816" lon="4.875089654376589"><ele>137.0</ele><time>2026-03-28T14:57:26Z</time></trkpt><trkpt lat="45.0214613258507" lon="4.875106518164981"><ele>137.0</ele><time>2026-03-28T14:57:27Z</time></trkpt><trkpt lat="45.02124485713733" lon="4.875115975615069"><ele>137.0</ele><time>2026-03-28T14:57:28Z</time></trkpt><trkpt lat="45.021039149341206" lon="4.875125327893457"><ele>137.0</ele><time>2026-03-28T14:57:29Z</time></trkpt><trkpt lat="45.02084941700571" lon="4.8751380858117255"><ele>136.66666666666666</ele><time>2026-03-28T14:57:30Z</time></trkpt><trkpt lat="45.02067025264429" lon="4.875153650762417"><ele>136.33333333333334</ele><time>2026-03-28T14:57:31Z</time></trkpt><trkpt lat="45.02050867028833" lon="4.875164995162346"><ele>136.0</ele><time>2026-03-28T14:57:32Z</time></trkpt><trkpt lat="45.02035389248814" lon="4.8751722252908865"><ele>136.0</ele><time>2026-03-28T14:57:33Z</time></trkpt><trkpt lat="45.02021554486539" lon="4.875177418993049"><ele>136.0</ele><time>2026-03-28T14:57:34Z</time></trkpt><trkpt lat="45.02008147609557" lon="4.875171663017327"><ele>136.0</ele><time>2026-03-28T14:57:35Z</time></trkpt><trkpt lat="45.019958593923484" lon="4.875160364175622"><ele>136.0</ele><time>2026-03-28T14:57:36Z</time></trkpt><trkpt lat="45.01984199073425" lon="4.875144522881383"><ele>136.2</ele><time>2026-03-28T14:57:37Z</time></trkpt><trkpt lat="45.01972692625709" lon="4.8751335924762556"><ele>136.39999999999998</ele><time>2026-03-28T14:57:38Z</time></trkpt><trkpt lat="45.01961441435579" lon="4.875141015314393"><ele>136.6</ele><time>2026-03-28T14:57:39Z</time></trkpt><trkpt lat="45.01951165932805" lon="4.875151471011651"><ele>136.79999999999998</ele><time>2026-03-28T14:57:40Z</time></trkpt><trkpt lat="45.019408713752384" lon="4.875164798339098"><ele>137.0</ele><time>2026-03-28T14:57:41Z</time></trkpt><trkpt lat="45.01931841329967" lon="4.875171840053547"><ele>137.0</ele><time>2026-03-28T14:57:42Z</time></trkpt><trkpt lat="45.01923780999069" lon="4.875168793501997"><ele>137.0</ele><time>2026-03-28T14:57:43Z</time></trkpt><trkpt lat="45.019165772333544" lon="4.875142176530712"><ele>137.0</ele><time>2026-03-28T14:57:44Z</time></trkpt><trkpt lat="45.0190891469475" lon="4.875117114121465"><ele>137.0</ele><time>2026-03-28T14:57:45Z</time></trkpt><trkpt lat="45.019013139766265" lon="4.875120300274723"><ele>137.0</ele><time>2026-03-28T14:57:46Z</time></trkpt><trkpt lat="45.01894012770647" lon="4.875148564118628"><ele>137.0</ele><time>2026-03-28T14:57:47Z</time></trkpt><trkpt lat="45.018878481871305" lon="4.875192480871809"><ele>137.0</ele><time>2026-03-28T14:57:48Z</time></trkpt><trkpt lat="45.01877849200739" lon="4.875228184977107"><ele>137.0</ele><time>2026-03-28T14:57:50Z</time></trkpt><trkpt lat="45.01867375270588" lon="4.875234163862424"><ele>137.0</ele><time>2026-03-28T14:57:52Z</time></trkpt><trkpt lat="45.01854774013713" lon="4.875253484270011"><ele>137.0</ele><time>2026-03-28T14:57:54Z</time></trkpt><trkpt lat="45.018482140162135" lon="4.875263856454183"><ele>137.0</ele><time>2026-03-28T14:57:55Z</time></trkpt><trkpt lat="45.01841557100233" lon="4.875273890038956"><ele>137.00000000000003</ele><time>2026-03-28T14:57:56Z</time></trkpt><trkpt lat="45.01834792730439" lon="4.875280033718479"><ele>137.0</ele><time>2026-03-28T14:57:57Z</time></trkpt><trkpt lat="45.018275648439996" lon="4.875285891616523"><ele>137.0</ele><time>2026-03-28T14:57:58Z</time></trkpt><trkpt lat="45.018200145131864" lon="4.875291142499565"><ele>137.0</ele><time>2026-03-28T14:57:59Z</time></trkpt><trkpt lat="45.0181218180295" lon="4.875297510618767"><ele>137.0</ele><time>2026-03-28T14:58:00Z</time></trkpt><trkpt lat="45.01804416058737" lon="4.875306709313546"><ele>137.00000000000003</ele><time>2026-03-28T14:58:01Z</time></trkpt><trkpt lat="45.01797067364787" lon="4.875313238970937"><ele>137.0</ele><time>2026-03-28T14:58:02Z</time></trkpt><trkpt lat="45.0179027228849" lon="4.875318527014871"><ele>137.0</ele><time>2026-03-28T14:58:03Z</time></trkpt><trkpt lat="45.017836026462966" lon="4.875323995973232"><ele>137.0</ele><time>2026-03-28T14:58:04Z</time></trkpt><trkpt lat="45.01772323838568" lon="4.875332594657985"><ele>137.0</ele><time>2026-03-28T14:58:06Z</time></trkpt><trkpt lat="45.01762735056796" lon="4.875319872313061"><ele>137.0</ele><time>2026-03-28T14:58:08Z</time></trkpt><trkpt lat="45.017555653221265" lon="4.875249159403877"><ele>137.0</ele><time>2026-03-28T14:58:10Z</time></trkpt><trkpt lat="45.01752114836872" lon="4.875128446236054"><ele>137.0</ele><time>2026-03-28T14:58:12Z</time></trkpt><trkpt lat="45.017501979167704" lon="4.875018861192818"><ele>138.0</ele><time>2026-03-28T14:58:14Z</time></trkpt></trkseg></trk></gpx>